Date time  Uvelocity_cm/s Vvelocity_cm/s W_velocity_cm/s horizontalSpeedCareful_cm/s TotalSpeedCareful_cm/s HorizontalWindDirection_deg WindElevation_deg SpeedOfSound_cm/sec Temperature_Kelvin pressure_mb2009/04/23 15:59:59.9      60   -429   -130    434    453 172.0 -21.7  34310  292.13 0854.31
2009/04/23 16:00:00.0     178   -419    -54    456    460 157.0  -6.8  34324  292.37 0854.31
2009/04/23 16:00:00.1     185   -438    -21    476    477 157.1  -2.6  34332  292.50 0854.31
2009/04/23 16:00:00.2     214   -319    133    385    408 146.2  19.1  34208  290.40 0854.33
2009/04/23 16:00:00.3     266   -285    168    390    424 137.0  24.9  34200  290.24 0854.33
2009/04/23 16:00:00.4     328   -162    160    366    399 116.3  25.1  34206  290.35 0854.33
2009/04/23 16:00:00.5     100    261    241    280    369  21.0  45.1  34224  290.67 0854.33
2009/04/23 16:00:00.6      69    241    165    251    300  16.1  36.5  34222  290.61 0854.33
2009/04/23 16:00:00.7      54    226    144    233    273  13.6  34.5  34218  290.56 0854.33
2009/04/23 16:00:00.8      34    143    189    147    239  13.4  58.4  34220  290.60 0854.33
2009/04/23 16:00:00.9       0    138    145    139    200 359.6  51.2  34224  290.65 0854.33
2009/04/23 16:00:01.0     -13    304     31    305    307 357.4   5.9  34220  290.58 0854.33
2009/04/23 16:00:01.1       5    149    150    150    212   2.2  50.1  34226  290.70 0854.33
2009/04/23 16:00:01.2     -59    183    110    193    222 342.0  32.1  34222  290.62 0854.33
2009/04/23 16:00:01.3     -63    119     68    135    151 331.9  28.2  34204  290.31 0854.33
2009/04/23 16:00:01.4     -61     20     89     65    110 288.2  60.5  34220  290.60 0854.33
2009/04/23 16:00:01.5     -95    -13     33     96    102 262.1  19.4  34230  290.77 0854.33
2009/04/23 16:00:01.6    -104    -23     29    107    111 257.2  15.3  34244  290.99 0854.33
2009/04/23 16:00:01.7     -67     52     70     85    110 307.8  43.7  34232  290.81 0854.33
2009/04/23 16:00:01.8     -96     11     29     97    102 276.6  16.8  34234  290.82 0854.33
2009/04/23 16:00:01.9     -62     -4     22     63     67 265.6  19.2  34234  290.82 0854.33
2009/04/23 16:00:02.0     -68    -86      1    110    111 218.3   0.8  34234  290.82 0854.33
2009/04/23 16:00:02.1       3    -34     -1     35     36 173.8  -3.1  34236  290.86 0854.33
2009/04/23 16:00:02.2     134    -27    -72    137    154 101.5 -34.2  34210  290.41 0854.34
2009/04/23 16:00:02.3     287    194   -122    347    368  55.9 -19.4  34172  289.76 0854.34
2009/04/23 16:00:02.4     237    188    -48    303    307  51.6  -9.0  34172  289.78 0854.34
2009/04/23 16:00:02.5     290    291     58    411    416  44.9   8.1  34198  290.22 0854.34
2009/04/23 16:00:02.6     325    161     74    363    371  63.6  11.6  34192  290.10 0854.34
2009/04/23 16:00:02.7     234    169     19    289    290  54.1   3.8  34170  289.73 0854.34
2009/04/23 16:00:02.8     260    215     95    338    352  50.5  15.8  34166  289.69 0854.34
2009/04/23 16:00:02.9     248    270     80    367    376  42.5  12.4  34178  289.87 0854.34
2009/04/23 16:00:03.0     212    333    102    396    410  32.5  14.5  34168  289.72 0854.34
2009/04/23 16:00:03.1     316    204     74    377    385  57.2  11.1  34192  290.11 0854.34
2009/04/23 16:00:03.2     339    132     10    364    365  68.7   1.6  34204  290.33 0854.34
2009/04/23 16:00:03.3     430    361      7    562    563  50.0   0.8  34194  290.14 0854.34
2009/04/23 16:00:03.4     174    274    -12    325    326  32.5  -2.2  34236  290.87 0854.34
2009/04/23 16:00:03.5     196    262    -60    328    334  36.7 -10.5  34214  290.50 0854.34
2009/04/23 16:00:03.6     276    110    -11    298    299  68.3  -2.2  34186  290.02 0854.34
2009/04/23 16:00:03.7     293    277    -15    404    405  46.7  -2.2  34178  289.88 0854.34
2009/04/23 16:00:03.8     293    228    -61    372    378  52.2  -9.3  34182  289.93 0854.34
2009/04/23 16:00:03.9     213     85    -94    230    248  68.2 -27.8  34186  290.00 0854.34
2009/04/23 16:00:04.0     225    -34    -77    228    241  98.6 -18.7  34188  290.05 0854.34
2009/04/23 16:00:04.1      97    191     18    215    216  27.0   4.9  34184  289.99 0854.34
2009/04/23 16:00:04.2      44    176     -3    182    183  14.0  -1.1  34202  290.28 0854.35
2009/04/23 16:00:04.3     -49    111     26    122    125 336.3  12.2  34224  290.67 0854.35
2009/04/23 16:00:04.4     -60     93     29    112    116 327.0  14.7  34244  290.99 0854.35
2009/04/23 16:00:04.5     -36    -27     70     46     83 233.1  64.1  34218  290.57 0854.35
2009/04/23 16:00:04.6     -21     16     43     27     50 307.8  64.7  34202  290.30 0854.35
2009/04/23 16:00:04.7      33    102     51    108    119  18.3  27.2  34186  290.02 0854.35
2009/04/23 16:00:04.8     122    203     16    238    239  31.0   3.9  34194  290.15 0854.35
2009/04/23 16:00:04.9      56    210     -4    218    219  15.1  -1.1  34192  290.11 0854.35
2009/04/23 16:00:05.0     115    226    -76    254    266  27.1 -16.6  34190  290.07 0854.35
2009/04/23 16:00:05.1     190     75     86    205    222  68.3  23.8  34194  290.16 0854.35
2009/04/23 16:00:05.2     214    -90    135    233    269 112.8  32.7  34188  290.05 0854.35
2009/04/23 16:00:05.3     136    -10    -65    137    151  94.4 -31.6  34196  290.19 0854.35
2009/04/23 16:00:05.4      45    -30   -140     55    150 123.3 -81.5  34216  290.53 0854.35
2009/04/23 16:00:05.5      30   -111   -152    116    191 164.9 -63.1  34204  290.31 0854.35
2009/04/23 16:00:05.6      62    -21   -113     66    130 109.1 -71.2  34214  290.48 0854.35
2009/04/23 16:00:05.7      37      0    -32     38     49  90.0 -48.2  34210  290.43 0854.35
2009/04/23 16:00:05.8     -67     28     42     73     84 292.6  32.9  34208  290.40 0854.35
2009/04/23 16:00:05.9     -91    119     88    151    174 322.6  33.1  34206  290.35 0854.35
2009/04/23 16:00:06.0    -148    284     93    321    335 332.5  16.1  34254  291.18 0854.35
2009/04/23 16:00:06.1     -76    395     94    403    414 349.1  13.2  34322  292.32 0854.35
2009/04/23 16:00:06.2     -31    367    115    369    387 355.0  17.3  34308  292.07 0854.40
2009/04/23 16:00:06.3     -87    433     88    442    451 348.6  11.3  34316  292.21 0854.40
2009/04/23 16:00:06.4    -113    526     91    539    547 347.9   9.6  34346  292.74 0854.40
2009/04/23 16:00:06.5    -114    477    181    491    523 346.5  21.1  34342  292.68 0854.40
2009/04/23 16:00:06.6     -81    432    252    440    507 349.3  32.4  34312  292.16 0854.40
2009/04/23 16:00:06.7     138    517    281    536    605  15.0  29.8  34376  293.23 0854.40
2009/04/23 16:00:06.8      84    447    220    455    505  10.7  27.7  34366  293.09 0854.40
2009/04/23 16:00:06.9      -6    430    194    431    472 359.1  25.9  34356  292.91 0854.40
2009/04/23 16:00:07.0      71    382    188    389    432  10.6  27.7  34322  292.32 0854.40
2009/04/23 16:00:07.1      84    312    225    324    394  15.2  38.3  34298  291.90 0854.40
2009/04/23 16:00:07.2     234    422    184    483    516  29.0  21.8  34282  291.63 0854.40
2009/04/23 16:00:07.3     429    513     43    670    672  39.9   3.7  34280  291.62 0854.40
2009/04/23 16:00:07.4     515    576    132    773    785  41.8   9.7  34182  289.93 0854.40
2009/04/23 16:00:07.5     431    557    164    705    724  37.8  13.1  34202  290.27 0854.40
2009/04/23 16:00:07.6     555    608    200    824    848  42.4  13.7  34222  290.61 0854.40
2009/04/23 16:00:07.7     742    483    196    886    908  56.9  12.5  34224  290.67 0854.40
2009/04/23 16:00:07.8     771    506     68    923    926  56.7   4.2  34172  289.77 0854.40
2009/04/23 16:00:07.9     556    857     42   1022   1023  33.0   2.4  34136  289.18 0854.40
2009/04/23 16:00:08.0     394    735    -65    835    838  28.2  -4.5  34156  289.50 0854.40
2009/04/23 16:00:08.1     177    604    219    630    666  16.4  20.0  34168  289.70 0854.40
2009/04/23 16:00:08.2     119    622    116    634    645  10.8  10.4  34162  289.60 0854.41
2009/04/23 16:00:08.3    -192    478   -143    516    536 338.1 -15.5  34146  289.35 0854.41
2009/04/23 16:00:08.4    -478    357   -154    597    617 306.8 -14.5  34130  289.07 0854.41
2009/04/23 16:00:08.5    -600    322   -214    681    713 298.2 -22.5  34078  288.17 0854.41
2009/04/23 16:00:08.6    -623    158   -220    643    679 284.3 -23.9  34090  288.38 0854.41
2009/04/23 16:00:08.7    -330    175   -244    374    446 298.0 -40.7  34126  288.99 0854.41
2009/04/23 16:00:08.8     -68    -67   -164     96    190 225.4 -71.4  34130  289.08 0854.41
2009/04/23 16:00:08.9     206    -97    -56    228    235 115.2 -13.9  34118  288.87 0854.41
2009/04/23 16:00:09.0     312   -141    -35    343    345 114.3  -5.9  34146  289.33 0854.41
2009/04/23 16:00:09.1     209   -132   -307    248    394 122.4 -61.5  34152  289.43 0854.41
2009/04/23 16:00:09.2      66   -200   -305    211    370 161.5 -66.5  34158  289.54 0854.41
2009/04/23 16:00:09.3     261    -98   -140    279    312 110.6 -32.9  34146  289.32 0854.41
2009/04/23 16:00:09.4     416   -202   -121    463    479 116.0 -14.7  34142  289.28 0854.41
2009/04/23 16:00:09.5     376   -190   -100    422    434 116.9 -13.4  34148  289.38 0854.41
2009/04/23 16:00:09.6     141      0    -33    142    146  90.4 -13.4  34146  289.35 0854.41
2009/04/23 16:00:09.7     229   -206    -85    309    321 132.0 -15.4  34150  289.41 0854.41
2009/04/23 16:00:09.8     274    -88   -121    288    312 107.9 -28.3  34146  289.34 0854.41
2009/04/23 16:00:10.0     216    -55    -70    224    235 104.4 -17.6  34152  289.43 0854.41
2009/04/23 16:00:10.1     133    -74   -122    153    195 119.3 -47.1  34148  289.38 0854.41
2009/04/23 16:00:10.2     208     26     74    210    222  82.8  20.0  34140  289.24 0854.41
2009/04/23 16:00:10.3     310      0    129    311    336  90.0  23.8  34132  289.10 0854.32
2009/04/23 16:00:10.4     133     84    286    158    326  57.5  68.8  34138  289.20 0854.32
2009/04/23 16:00:10.5      85      1    266     86    279  88.7  81.6  34150  289.41 0854.32
2009/04/23 16:00:10.6     261    -87    146    276    312 108.4  30.2  34146  289.34 0854.32
2009/04/23 16:00:10.7     293    -67     36    301    304 103.0   6.9  34120  288.90 0854.32
2009/04/23 16:00:10.8     250   -123     57    279    285 116.2  11.6  34150  289.39 0854.32
2009/04/23 16:00:10.9     150    -14    101    151    181  95.7  36.7  34144  289.31 0854.32
2009/04/23 16:00:11.0     176    -56    107    185    213 107.9  33.1  34164  289.63 0854.32
2009/04/23 16:00:11.1     264    -73    138    274    306 105.5  28.7  34152  289.42 0854.32
2009/04/23 16:00:11.2     224   -123    123    256    284 118.8  27.3  34152  289.42 0854.32
2009/04/23 16:00:11.3       0   -163    257    164    304 180.2  64.6  34178  289.88 0854.32
2009/04/23 16:00:11.4      38   -225    215    229    314 170.3  48.2  34174  289.81 0854.32
2009/04/23 16:00:11.5     -76   -160     32    178    181 205.3  10.3  34164  289.65 0854.32
2009/04/23 16:00:11.6    -276   -152    -24    316    317 241.1  -4.4  34166  289.66 0854.32
2009/04/23 16:00:11.7    -230   -230    -55    326    331 225.0  -9.6  34162  289.60 0854.32
2009/04/23 16:00:11.8    -191   -245   -225    311    383 217.9 -43.9  34150  289.40 0854.32
2009/04/23 16:00:11.9      44   -413   -252    416    486 173.9 -38.6  34150  289.39 0854.32
2009/04/23 16:00:12.0    -255   -260   -156    365    396 224.4 -28.9  34150  289.40 0854.32
2009/04/23 16:00:12.1      15   -263   -189    264    324 176.6 -43.6  34158  289.54 0854.32
2009/04/23 16:00:12.2    -104   -111   -242    153    286 223.2 -69.1  34152  289.42 0854.32
2009/04/23 16:00:12.3     -46     -3    -64     47     79 265.6 -64.4  34156  289.52 0854.25
2009/04/23 16:00:12.4    -152    -71    -82    168    186 244.8 -31.8  34154  289.46 0854.25
2009/04/23 16:00:12.5    -146     -3   -138    147    201 268.7 -52.4  34144  289.31 0854.25
2009/04/23 16:00:12.6     -71    -73   -103    103    145 224.1 -54.5  34150  289.41 0854.25
2009/04/23 16:00:12.7    -110   -226    -98    252    270 205.9 -26.9  34156  289.51 0854.25
2009/04/23 16:00:12.8     133   -326    -19    353    354 157.7  -3.2  34156  289.50 0854.25
2009/04/23 16:00:12.9     186   -417      0    457    458 155.9   0.0  34158  289.55 0854.25
2009/04/23 16:00:13.0     110   -364    242    381    451 163.1  35.5  34150  289.41 0854.25
2009/04/23 16:00:13.1      50   -245    207    251    325 168.4  43.7  34156  289.51 0854.25
2009/04/23 16:00:13.2     165   -238    172    290    337 145.3  33.5  34160  289.58 0854.25
2009/04/23 16:00:13.3       4    -61    166     62    177 175.5  78.6  34184  289.99 0854.26
2009/04/23 16:00:13.4     115     11    193    116    225  84.3  66.2  34170  289.74 0854.26
2009/04/23 16:00:13.5     -88      0    241     89    256 270.0  78.9  34180  289.91 0854.26
2009/04/23 16:00:13.6    -138     71    155    156    219 297.1  50.0  34178  289.89 0854.26
2009/04/23 16:00:13.7    -199    -15     92    200    220 265.6  26.6  34174  289.80 0854.26
2009/04/23 16:00:13.8    -182     46     36    188    192 284.4  11.0  34176  289.85 0854.26
2009/04/23 16:00:13.9    -111   -127    147    170    224 221.2  45.4  34170  289.75 0854.26
2009/04/23 16:00:14.0    -176   -212    143    276    310 219.7  29.3  34180  289.90 0854.26
2009/04/23 16:00:14.1    -207   -122    -65    241    250 239.4 -15.2  34164  289.64 0854.26
2009/04/23 16:00:14.2    -179    -77    -68    195    207 246.7 -19.4  34150  289.41 0854.26
2009/04/23 16:00:14.3    -345    -89     77    357    366 255.5  12.2  34200  290.25 0854.26
2009/04/23 16:00:14.4    -413   -224     56    470    474 241.5   6.9  34196  290.17 0854.26
2009/04/23 16:00:14.5    -277   -221    123    355    376 231.4  19.2  34180  289.91 0854.26
2009/04/23 16:00:14.6    -276   -380     36    470    472 216.0   4.4  34178  289.89 0854.26
2009/04/23 16:00:14.7    -236   -353    115    425    441 213.8  15.2  34178  289.88 0854.26
2009/04/23 16:00:14.8    -550   -332     61    643    647 238.9   5.5  34184  289.98 0854.26
2009/04/23 16:00:14.9    -625   -487    -66    793    796 232.1  -4.8  34170  289.74 0854.26
2009/04/23 16:00:15.0    -318   -468    -95    566    575 214.2  -9.6  34156  289.49 0854.26
2009/04/23 16:00:15.1    -261   -424     14    499    500 211.6   1.7  34170  289.73 0854.26
2009/04/23 16:00:15.2    -263   -414   -102    491    502 212.5 -11.8  34172  289.78 0854.26
2009/04/23 16:00:15.3    -265   -365    -41    452    454 216.0  -5.2  34172  289.77 0854.19
2009/04/23 16:00:15.4    -183   -415     46    454    457 203.9   5.9  34178  289.87 0854.19
2009/04/23 16:00:15.5      62   -530      7    534    535 173.3   0.8  34156  289.50 0854.19
2009/04/23 16:00:15.6      12   -506    -31    507    508 178.6  -3.5  34152  289.45 0854.19
2009/04/23 16:00:15.7     126   -395    -22    415    416 162.2  -3.1  34168  289.70 0854.19
2009/04/23 16:00:15.8     196   -268     66    333    340 143.9  11.3  34156  289.50 0854.19
2009/04/23 16:00:15.9     249   -293    112    385    402 139.6  16.3  34152  289.42 0854.19
2009/04/23 16:00:16.0     190   -104    117    217    246 118.9  30.6  34166  289.68 0854.19
2009/04/23 16:00:16.1     -15    106     79    108    133 351.5  39.7  34176  289.84 0854.19
2009/04/23 16:00:16.2      48   -132    119    141    184 159.9  44.5  34174  289.82 0854.19
2009/04/23 16:00:16.3     164   -115    223    201    300 125.1  53.3  34166  289.68 0854.19
2009/04/23 16:00:16.4     167    -64    244    180    303 111.1  60.3  34178  289.88 0854.19
2009/04/23 16:00:16.5     -66     75    181    101    207 318.6  68.5  34184  289.99 0854.19
2009/04/23 16:00:16.6       1    -39    166     40    170 177.3  86.7  34192  290.11 0854.19
2009/04/23 16:00:16.7     -70     47    190     85    208 304.2  74.5  34196  290.19 0854.19
2009/04/23 16:00:16.8     -41    -24    201     48    206 239.3  86.9  34198  290.23 0854.19
2009/04/23 16:00:16.9      45     66    201     81    216  34.3  77.0  34194  290.16 0854.19
2009/04/23 16:00:17.0     120    -77    220    143    262 122.9  64.4  34198  290.21 0854.19
2009/04/23 16:00:17.1     181   -169    211    248    325 133.1  44.7  34186  290.02 0854.19
2009/04/23 16:00:17.2     177   -154    235    235    332 131.1  50.1  34200  290.24 0854.19
2009/04/23 16:00:17.3     138   -126    215    188    285 132.4  54.3  34198  290.22 0854.22
2009/04/23 16:00:17.4     244   -147    194    286    345 121.1  37.4  34190  290.07 0854.22
2009/04/23 16:00:17.5     130    -17    126    132    182  97.5  48.7  34192  290.11 0854.22
2009/04/23 16:00:17.6     173     71    171    188    254  67.6  47.5  34186  290.02 0854.22
2009/04/23 16:00:17.7     155     86    164    178    242  60.9  47.7  34184  289.99 0854.22
2009/04/23 16:00:17.8     168     30    125    171    211  79.6  39.7  34186  290.01 0854.22
2009/04/23 16:00:17.9     114     23    144    117    185  78.5  56.6  34198  290.23 0854.22
2009/04/23 16:00:18.0      89     93    119    129    175  43.7  47.9  34192  290.11 0854.22
2009/04/23 16:00:18.1     -47    -67    114     83    141 215.2  60.5  34192  290.11 0854.22
2009/04/23 16:00:18.2    -116   -138     88    181    201 219.9  27.8  34180  289.91 0854.22
2009/04/23 16:00:18.3     -57   -120    101    133    167 205.4  41.4  34174  289.82 0854.22
2009/04/23 16:00:18.4     -33   -238    112    241    265 188.0  27.0  34180  289.92 0854.22
2009/04/23 16:00:18.5     -20   -224    114    226    253 185.3  28.7  34184  289.98 0854.22
2009/04/23 16:00:18.6     -42   -206     90    211    229 191.6  24.6  34182  289.96 0854.22
2009/04/23 16:00:18.7      -5   -175     62    176    187 181.8  19.4  34180  289.92 0854.22
2009/04/23 16:00:18.8     116    -86    117    145    186 126.4  43.5  34196  290.18 0854.22
2009/04/23 16:00:18.9     231   -217    191    318    370 133.2  33.7  34198  290.21 0854.22
2009/04/23 16:00:19.0     162   -161    235    229    328 134.9  50.7  34208  290.37 0854.22
2009/04/23 16:00:19.1     134    -14    198    135    239  96.1  62.6  34240  290.92 0854.22
2009/04/23 16:00:19.2     178    -43    272    184    328 103.7  62.8  34216  290.53 0854.22
2009/04/23 16:00:19.3      13    -16    158     21    159 140.4  90.0  34230  290.77 0854.25
2009/04/23 16:00:19.4     -18     30    174     36    177 329.3  89.0  34238  290.91 0854.25
2009/04/23 16:00:19.5     -13     64    182     66    193 348.5  79.7  34218  290.57 0854.25
2009/04/23 16:00:19.6      -2    -87    271     88    284 181.4  81.6  34202  290.27 0854.25
2009/04/23 16:00:19.7     -25    -23    178     35    181 226.9  89.4  34202  290.30 0854.25
2009/04/23 16:00:19.8     -65    -64    224     92    242 225.1  76.6  34200  290.25 0854.25
2009/04/23 16:00:19.9    -131   -277    261    307    402 205.3  44.8  34178  289.89 0854.25
2009/04/23 16:00:20.0    -151   -348    262    380    461 203.4  37.9  34174  289.80 0854.25
2009/04/23 16:00:20.1    -217   -137    223    257    340 237.6  45.5  34208  290.37 0854.25
2009/04/23 16:00:20.2    -347   -185    199    394    441 241.9  28.9  34192  290.11 0854.25
2009/04/23 16:00:20.3    -355   -191     70    404    411 241.7   9.9  34196  290.19 0854.25
2009/04/23 16:00:20.4    -288   -109     16    309    310 249.2   3.1  34218  290.54 0854.25
2009/04/23 16:00:20.5    -119    -47     57    129    141 248.3  25.2  34214  290.50 0854.25
2009/04/23 16:00:20.6    -163   -215    190    270    330 217.2  38.5  34202  290.27 0854.25
2009/04/23 16:00:20.7    -135   -214    202    254    324 212.3  42.7  34208  290.37 0854.25
2009/04/23 16:00:20.8    -202    -49    112    208    236 256.3  30.6  34200  290.26 0854.25
2009/04/23 16:00:20.9    -241     10    119    242    269 272.6  28.0  34240  290.92 0854.25
2009/04/23 16:00:21.0    -293    161    101    335    350 298.8  16.8  34274  291.52 0854.25
2009/04/23 16:00:21.1      44    219    110    224    249  11.5  28.2  34290  291.78 0854.25
2009/04/23 16:00:21.2     172    214     42    275    279  38.7   8.8  34282  291.63 0854.25
2009/04/23 16:00:21.3      27    203    142    205    249   7.8  38.0  34304  292.01 0854.16
2009/04/23 16:00:21.4      31    152    138    156    208  11.6  46.2  34330  292.46 0854.16
2009/04/23 16:00:21.5      72     93    144    118    186  37.8  56.4  34312  292.17 0854.16
2009/04/23 16:00:21.6      26    189    192    191    270   8.1  49.9  34312  292.14 0854.16
2009/04/23 16:00:21.7    -127    218    233    253    343 329.7  47.6  34298  291.92 0854.16
2009/04/23 16:00:21.8    -302    414    129    513    530 323.9  14.2  34278  291.59 0854.16
2009/04/23 16:00:21.9    -233    390    161    455    482 329.1  20.3  34272  291.46 0854.16
2009/04/23 16:00:22.0    -298    271     48    404    407 312.3   6.9  34160  289.56 0854.16
2009/04/23 16:00:22.1    -220    296    158    370    402 323.4  24.6  34194  290.15 0854.16
2009/04/23 16:00:22.2    -174    265    255    318    407 326.6  42.8  34212  290.47 0854.16
2009/04/23 16:00:22.3     -53    367    289    371    470 351.7  41.9  34174  289.80 0854.16
2009/04/23 16:00:22.4     153    521    243    544    595  16.4  25.7  34260  291.27 0854.16
2009/04/23 16:00:22.5     111    702     89    711    717   9.0   7.2  34228  290.71 0854.16
2009/04/23 16:00:22.6      78    619    200    624    656   7.2  17.8  34178  289.87 0854.16
2009/04/23 16:00:22.7      17    580    241    581    629   1.7  23.9  34116  288.83 0854.16
2009/04/23 16:00:22.8    -303    606    274    678    731 333.4  23.2  34132  289.10 0854.16
2009/04/23 16:00:22.9    -332    650    305    730    791 332.9  24.1  34136  289.15 0854.16
2009/04/23 16:00:23.0     201    408    348    456    573  26.3  41.2  34216  290.53 0854.16
2009/04/23 16:00:23.1     199    416    293    462    547  25.6  35.5  34242  290.97 0854.16
2009/04/23 16:00:23.2      22    569    245    570    620   2.2  24.8  34170  289.73 0854.16
2009/04/23 16:00:23.3     194    492    -24    530    531  21.6  -2.6  34212  290.46 0854.16
2009/04/23 16:00:23.4     389    984    200   1059   1078  21.6  10.7  34152  289.44 0854.16
2009/04/23 16:00:23.5     181   1004    245   1021   1050  10.2  13.5  34118  288.85 0854.16
2009/04/23 16:00:23.6     617    748     28    970    971  39.5   1.7  34234  290.82 0854.16
2009/04/23 16:00:23.7     195    590    249    622    669  18.3  23.0  34106  288.65 0854.16
2009/04/23 16:00:23.8    -208    679    111    711    720 343.0   8.9  34098  288.51 0854.16
2009/04/23 16:00:23.9    -140    422     61    445    450 341.6   7.8  34092  288.43 0854.16
2009/04/23 16:00:24.0       9    215   -178    216    279   2.5 -48.1  34110  288.73 0854.16
2009/04/23 16:00:24.1     398    321    -24    512    513  51.2  -2.7  34120  288.88 0854.16
2009/04/23 16:00:24.2     432    454    233    627    668  43.6  21.4  34106  288.65 0854.16
2009/04/23 16:00:24.3     349    408    -95    538    547  40.5 -10.1  34110  288.72 0854.16
2009/04/23 16:00:24.4     461    472    -24    661    662  44.3  -2.1  34126  288.99 0854.16
2009/04/23 16:00:24.5     441    467     61    643    647  43.3   5.4  34152  289.43 0854.16
2009/04/23 16:00:24.6     332    587     60    675    678  29.5   5.1  34116  288.82 0854.16
2009/04/23 16:00:24.7     361    652     49    746    748  29.0   3.8  34122  288.92 0854.16
2009/04/23 16:00:24.8     342    667    112    750    759  27.2   8.5  34318  292.25 0854.16
2009/04/23 16:00:24.9     398    778     90    874    879  27.1   5.9  34126  289.00 0854.16
2009/04/23 16:00:25.0     352    766    152    844    858  24.7  10.2  34098  288.53 0854.16
2009/04/23 16:00:25.1     290    765    102    819    826  20.8   7.1  34098  288.52 0854.16
2009/04/23 16:00:25.2     250    753     36    794    795  18.4   2.6  34126  288.98 0854.16
2009/04/23 16:00:25.3     187    442    -83    481    489  22.9  -9.9  34188  290.06 0854.22
2009/04/23 16:00:25.4     349    408    -29    538    539  40.6  -3.1  34188  290.06 0854.22
2009/04/23 16:00:25.5     534    532    -41    754    756  45.1  -3.2  34226  290.68 0854.22
2009/04/23 16:00:25.6     183    593     74    621    626  17.2   6.9  34166  289.67 0854.22
2009/04/23 16:00:25.7     385    470    172    608    632  39.3  15.8  34264  291.35 0854.22
2009/04/23 16:00:25.8     300    351    108    463    476  40.5  13.1  34284  291.68 0854.22
2009/04/23 16:00:25.9     162    503    143    529    549  17.9  15.1  34190  290.07 0854.22
2009/04/23 16:00:26.0     446    458    248    640    686  44.2  22.4  34252  291.14 0854.22
2009/04/23 16:00:26.1     346    438    125    559    573  38.3  12.6  34196  290.19 0854.22
2009/04/23 16:00:26.2     367    540    229    653    691  34.2  20.1  34256  291.19 0854.22
2009/04/23 16:00:26.3     477    436    359    647    739  47.6  31.4  34248  291.05 0854.22
2009/04/23 16:00:26.4     475    441    325    649    725  47.1  28.6  34202  290.30 0854.22
2009/04/23 16:00:26.5     686    268    262    737    783  68.6  19.6  34252  291.13 0854.22
2009/04/23 16:00:26.6     634    220    338    672    752  70.8  28.7  34248  291.05 0854.22
2009/04/23 16:00:26.7     681    318     93    752    758  65.0   7.1  34208  290.40 0854.22
2009/04/23 16:00:26.8     688    226    212    725    756  71.8  16.3  34186  290.01 0854.22
2009/04/23 16:00:26.9     641    254    314    690    758  68.3  26.2  34200  290.26 0854.22
2009/04/23 16:00:27.0     741    238    191    779    803  72.2  13.8  34140  289.22 0854.22
2009/04/23 16:00:27.1     678    447    191    813    836  56.6  13.2  34090  288.40 0854.22
2009/04/23 16:00:27.2     510    394     51    645    648  52.3   4.6  34124  288.96 0854.25
2009/04/23 16:00:27.3     546    354     42    652    654  57.0   3.7  34110  288.72 0854.25
2009/04/23 16:00:27.4     609    287     27    674    675  64.8   2.3  34108  288.68 0854.25
2009/04/23 16:00:27.5     606    276    121    666    677  65.5  10.3  34106  288.66 0854.25
2009/04/23 16:00:27.6     610    230    211    653    687  69.3  17.9  34108  288.70 0854.25
2009/04/23 16:00:27.7     548    433    243    699    741  51.7  19.2  34110  288.74 0854.25
2009/04/23 16:00:27.8     698    455    103    834    841  56.9   7.1  34104  288.63 0854.25
2009/04/23 16:00:27.9     678    322    -29    751    752  64.6  -2.2  34170  289.73 0854.25
2009/04/23 16:00:28.0     521    151      3    543    544  73.8   0.4  34196  290.19 0854.25
2009/04/23 16:00:28.1     366    228    214    432    482  58.1  28.2  34120  288.88 0854.25
2009/04/23 16:00:28.2     294     13     75    295    305  87.4  14.4  34146  289.34 0854.25
2009/04/23 16:00:28.3     325    -73    115    334    354 102.8  19.1  34224  290.67 0854.25
2009/04/23 16:00:28.4     392     73    155    399    428  79.4  22.3  34158  289.55 0854.25
2009/04/23 16:00:28.5     326    136    135    354    378  67.4  21.8  34118  288.86 0854.25
2009/04/23 16:00:28.6     302    168    132    346    370  60.9  21.8  34126  288.99 0854.25
2009/04/23 16:00:28.7     265    158    130    309    335  59.3  24.1  34122  288.93 0854.25
2009/04/23 16:00:28.8     237    145    137    279    310  58.5  28.0  34130  289.05 0854.25
2009/04/23 16:00:28.9     325    226    115    396    413  55.2  16.3  34134  289.12 0854.25
2009/04/23 16:00:29.0     231     77     80    244    257  71.6  18.1  34126  289.00 0854.25
2009/04/23 16:00:29.1     271    162     41    316    319  59.1   7.5  34186  290.00 0854.25
2009/04/23 16:00:29.2      -4    265     47    266    271 359.1  10.1  34210  290.42 0854.28
2009/04/23 16:00:29.3      -6    222    146    223    266 358.4  36.3  34236  290.85 0854.28
2009/04/23 16:00:29.4     -57    207    132    215    252 344.4  34.5  34238  290.88 0854.28
2009/04/23 16:00:29.5      12    367    103    368    383   2.0  15.7  34226  290.69 0854.28
2009/04/23 16:00:29.6      73    379     41    387    390  11.0   6.1  34192  290.13 0854.28
2009/04/23 16:00:29.7     234    365    110    434    448  32.7  14.3  34246  291.02 0854.28
2009/04/23 16:00:29.8     167    352     98    390    403  25.5  14.2  34262  291.32 0854.28
2009/04/23 16:00:29.9      69    423    116    429    445   9.4  15.2  34274  291.52 0854.28
2009/04/23 16:00:30.0       8    417    152    418    444   1.1  20.9  34288  291.74 0854.28
2009/04/23 16:00:30.1     226    169    140    283    315  53.1  28.2  34290  291.78 0854.28
2009/04/23 16:00:30.2     125    197    172    234    290  32.3  39.7  34298  291.92 0854.28
2009/04/23 16:00:30.3     158    323    266    360    447  26.1  40.1  34290  291.77 0854.28
2009/04/23 16:00:30.4     178    538    414    567    702  18.3  39.7  34188  290.05 0854.28
2009/04/23 16:00:30.5     -16    596    240    597    643 358.4  23.1  34142  289.25 0854.28
2009/04/23 16:00:30.6     136    637    196    652    681  12.1  16.8  34160  289.56 0854.28
2009/04/23 16:00:30.7     230    677    144    716    731  18.8  11.4  34284  291.69 0854.28
2009/04/23 16:00:30.8     234    624    135    667    681  20.6  11.5  34210  290.43 0854.28
2009/04/23 16:00:30.9     250    381    -11    457    458  33.3  -1.4  34280  291.62 0854.28
2009/04/23 16:00:31.0     445    374     38    582    584  50.0   3.8  34252  291.12 0854.28
2009/04/23 16:00:31.1     569    619     35    842    843  42.6   2.4  34156  289.49 0854.28
2009/04/23 16:00:31.2     544    444    106    703    711  50.8   8.6  34136  289.15 0854.36
2009/04/23 16:00:31.3     321    322     29    455    456  44.9   3.7  34108  288.68 0854.36
2009/04/23 16:00:31.4    -114    456    179    471    503 345.9  21.8  34122  288.93 0854.36
2009/04/23 16:00:31.5     -95    668    404    675    786 351.9  33.7  34136  289.18 0854.36
2009/04/23 16:00:31.6    -169    509    -88    537    545 341.6  -9.3  34124  288.97 0854.36
2009/04/23 16:00:31.7    -203    262   -197    332    386 322.2 -37.9  34156  289.52 0854.36
2009/04/23 16:00:31.8     -67    140   -152    156    217 334.5 -53.8  34154  289.48 0854.36
2009/04/23 16:00:31.9    -111    163    -58    198    206 325.7 -21.2  34136  289.18 0854.36
2009/04/23 16:00:32.0    -127     65   -125    143    189 297.1 -50.0  34134  289.14 0854.36
2009/04/23 16:00:32.1    -288     86   -249    301    390 286.8 -48.2  34128  289.03 0854.36
2009/04/23 16:00:32.2    -558    317   -287    643    704 299.6 -30.1  34148  289.38 0854.36
2009/04/23 16:00:32.3    -691    309   -205    757    785 294.1 -15.2  34142  289.25 0854.36
2009/04/23 16:00:32.4    -821    303   -102    876    882 290.3  -6.7  34152  289.44 0854.36
2009/04/23 16:00:32.5    -523    131     54    540    543 284.1   5.8  34144  289.29 0854.36
2009/04/23 16:00:32.6    -387    127    148    408    434 288.2  20.9  34144  289.31 0854.36
2009/04/23 16:00:32.7    -332    235     46    408    411 305.3   6.5  34146  289.34 0854.36
2009/04/23 16:00:32.8    -371    233     93    438    448 302.1  12.0  34134  289.12 0854.36
2009/04/23 16:00:32.9    -448    337    -13    561    562 307.0  -1.4  34154  289.46 0854.36
2009/04/23 16:00:33.0    -108    345    126    362    384 342.6  19.2  34154  289.48 0854.36
2009/04/23 16:00:33.1    -183    301     90    353    365 328.6  14.4  34164  289.65 0854.36
2009/04/23 16:00:33.2    -162    371     12    405    406 336.4   1.7  34164  289.65 0854.40
2009/04/23 16:00:33.3    -314    333    110    458    471 316.7  13.5  34176  289.83 0854.40
2009/04/23 16:00:33.4    -375    331    314    501    591 311.5  35.0  34192  290.13 0854.40
2009/04/23 16:00:33.5    -305    382    218    489    535 321.4  25.6  34206  290.35 0854.40
2009/04/23 16:00:33.6    -296    372    223    476    525 321.5  27.1  34216  290.52 0854.40
2009/04/23 16:00:33.7    -250    330    211    415    465 322.8  29.2  34212  290.46 0854.40
2009/04/23 16:00:33.8    -165    -81    181    184    258 243.8  49.8  34198  290.20 0854.40
2009/04/23 16:00:33.9       1    -72    189     73    202 179.1  78.2  34212  290.47 0854.40
2009/04/23 16:00:34.0     -12    -73    134     75    153 189.8  68.8  34220  290.58 0854.40
2009/04/23 16:00:34.1      28    -47    123     55    134 149.3  74.5  34210  290.41 0854.40
2009/04/23 16:00:34.2      17     42    100     46    110  22.7  73.1  34210  290.41 0854.39
2009/04/23 16:00:34.3     -12     64     87     66    109 349.3  59.0  34208  290.38 0854.39
2009/04/23 16:00:34.4      61    -44    102     76    127 126.0  59.0  34208  290.40 0854.39
2009/04/23 16:00:34.5      66     -9    140     67    155  97.9  72.8  34204  290.31 0854.39
2009/04/23 16:00:34.6      -6     41    126     42    132 351.1  81.0  34218  290.55 0854.39
2009/04/23 16:00:34.7     221     44    164    226    279  78.6  39.7  34204  290.32 0854.39
2009/04/23 16:00:34.8     -29    -39    190     49    196 217.0  85.6  34222  290.64 0854.39
2009/04/23 16:00:34.9     -35    -10    128     37    133 253.2  83.3  34212  290.45 0854.39
2009/04/23 16:00:35.0     -78     31     74     85    112 291.7  45.4  34208  290.40 0854.39
2009/04/23 16:00:35.1    -143    143    123    203    237 315.0  34.2  34216  290.52 0854.39
2009/04/23 16:00:35.2    -231    -18     90    232    248 265.4  22.1  34262  291.31 0854.39
2009/04/23 16:00:35.3    -283    -59    159    290    330 258.1  31.3  34298  291.92 0854.39
2009/04/23 16:00:35.4    -410   -127    101    430    442 252.7  13.2  34224  290.65 0854.39
2009/04/23 16:00:35.5    -326   -110    124    345    367 251.3  19.9  34192  290.10 0854.39
2009/04/23 16:00:35.6    -385     38     18    387    388 275.7   2.8  34252  291.15 0854.39
2009/04/23 16:00:35.7    -335     30    -11    337    338 275.2  -1.9  34228  290.74 0854.39
2009/04/23 16:00:35.8    -361    182     -3    405    406 296.8  -0.5  34190  290.07 0854.39
2009/04/23 16:00:35.9    -398    132    -99    420    432 288.4 -13.3  34160  289.58 0854.39
2009/04/23 16:00:36.0    -300     70     -8    309    310 283.2  -1.6  34172  289.76 0854.39
2009/04/23 16:00:36.1    -260     19     83    261    274 274.3  17.7  34176  289.85 0854.39
2009/04/23 16:00:36.2    -295    -52     83    300    312 259.9  15.6  34178  289.88 0854.41
2009/04/23 16:00:36.3    -163   -251    213    300    367 213.0  38.8  34220  290.60 0854.41
2009/04/23 16:00:36.4    -125   -287     37    314    317 203.6   6.8  34198  290.22 0854.41
2009/04/23 16:00:36.5    -215   -325     75    390    398 213.5  11.0  34198  290.21 0854.41
2009/04/23 16:00:36.6    -246   -313     66    399    405 218.1   9.5  34204  290.33 0854.41
2009/04/23 16:00:36.7     -34   -338     -2    340    341 185.9  -0.5  34192  290.11 0854.41
2009/04/23 16:00:36.8      17   -367     35    368    370 177.3   5.5  34186  290.01 0854.41
2009/04/23 16:00:36.9      54   -334     53    339    344 170.8   9.0  34194  290.15 0854.41
2009/04/23 16:00:37.0      59   -396     81    401    410 171.5  11.4  34196  290.17 0854.41
2009/04/23 16:00:37.1      22   -417    139    418    441 176.9  18.4  34206  290.36 0854.41
2009/04/23 16:00:37.3      53   -381    218    385    442 172.0  32.0  34204  290.31 0854.41
2009/04/23 16:00:37.3      73   -326    209    335    394 167.4  35.0  34202  290.27 0854.41
2009/04/23 16:00:37.5      70   -346    203    354    408 168.4  32.4  34208  290.37 0854.41
2009/04/23 16:00:37.6       0   -236    218    237    322 180.2  47.5  34230  290.76 0854.41
2009/04/23 16:00:37.6     -34   -224    236    227    327 188.7  51.2  34240  290.93 0854.41
2009/04/23 16:00:37.8      -8   -138    176    139    224 183.6  57.9  34250  291.09 0854.41
2009/04/23 16:00:37.9       6      0    168      7    168  90.0  90.0  34236  290.86 0854.41
2009/04/23 16:00:38.0     -45     13    115     47    124 286.8  77.1  34202  290.30 0854.41
2009/04/23 16:00:38.1       0    -65    164     66    176 180.0  77.0  34204  290.33 0854.41
2009/04/23 16:00:38.2     -28   -137    298    140    329 191.6  73.1  34194  290.15 0854.41
2009/04/23 16:00:38.3     -26   -365    314    366    482 184.1  45.0  34200  290.24 0854.41
2009/04/23 16:00:38.4     -85   -414    140    423    446 191.7  18.4  34190  290.07 0854.41
2009/04/23 16:00:38.5     -91   -380     94    391    403 193.6  13.6  34182  289.96 0854.41
2009/04/23 16:00:38.6    -103   -318     -1    335    336 197.9  -0.3  34172  289.79 0854.41
2009/04/23 16:00:38.7    -115   -297     97    319    334 201.3  17.0  34182  289.93 0854.41
2009/04/23 16:00:38.8    -144   -335     20    365    366 203.3   3.1  34178  289.86 0854.41
2009/04/23 16:00:38.9     -50   -251    106    257    278 191.3  23.6  34188  290.05 0854.41
2009/04/23 16:00:39.0     -81   -234     38    248    252 199.1   8.9  34176  289.85 0854.41
2009/04/23 16:00:39.1     -41   -113    135    121    181 200.0  53.3  34202  290.28 0854.41
2009/04/23 16:00:39.2     -27    -82    100     87    132 198.7  54.3  34200  290.26 0854.41
2009/04/23 16:00:39.3     -13   -167    167    168    236 184.5  50.0  34196  290.19 0854.41
2009/04/23 16:00:39.4     -14   -157    201    158    255 185.3  57.9  34196  290.19 0854.41
2009/04/23 16:00:39.5       4   -154    169    155    229 178.2  52.5  34190  290.08 0854.41
2009/04/23 16:00:39.6     -12    -15     96     20     98 217.8  89.0  34204  290.33 0854.41
2009/04/23 16:00:39.7      51    -32     98     61    115 122.5  64.7  34204  290.31 0854.41
2009/04/23 16:00:39.8      67   -119    151    137    203 150.6  52.7  34196  290.19 0854.41
2009/04/23 16:00:39.9       5   -100    109    101    148 176.9  52.2  34202  290.30 0854.41
2009/04/23 16:00:40.0      47   -113    111    123    165 157.3  46.9  34200  290.26 0854.41
2009/04/23 16:00:40.1      57   -171    129    181    222 161.5  39.1  34190  290.09 0854.41
2009/04/23 16:00:40.2      60   -189    129    199    237 162.2  36.3  34194  290.16 0854.41
2009/04/23 16:00:40.3     190   -111    197    221    296 120.4  46.4  34198  290.20 0854.41
2009/04/23 16:00:40.4      21   -219    155    221    269 174.4  38.6  34188  290.05 0854.41
2009/04/23 16:00:40.5     -18   -233    213    234    316 184.5  47.0  34190  290.07 0854.41
2009/04/23 16:00:40.6      40   -270    210    274    345 171.5  41.3  34194  290.15 0854.41
2009/04/23 16:00:40.7      89   -321    251    334    417 164.5  40.7  34192  290.10 0854.41
2009/04/23 16:00:40.8     123   -262    158    290    330 154.8  31.0  34192  290.12 0854.41
2009/04/23 16:00:40.9     204   -195     88    283    297 133.8  17.3  34192  290.12 0854.41
2009/04/23 16:00:41.0     269   -170     69    319    327 122.2  12.3  34194  290.15 0854.41
2009/04/23 16:00:41.1     213   -117     88    244    260 118.8  19.9  34182  289.95 0854.41
2009/04/23 16:00:41.2     188     23    189    190    267  82.8  50.0  34192  290.12 0854.41
2009/04/23 16:00:41.3     195      3     78    196    210  89.1  23.0  34202  290.30 0854.41
2009/04/23 16:00:41.4      61    -88    117    108    159 145.3  52.5  34200  290.26 0854.41
2009/04/23 16:00:41.5       4     13    118     14    118  18.5  90.0  34214  290.48 0854.41
2009/04/23 16:00:41.6      67     -1    103     68    123  90.9  64.1  34210  290.41 0854.41
2009/04/23 16:00:41.7     143    -67    152    159    219 115.2  48.7  34202  290.30 0854.41
2009/04/23 16:00:41.8     170   -108    177    202    268 122.6  45.8  34208  290.37 0854.41
2009/04/23 16:00:41.9     145   -205     96    252    269 144.6  22.0  34194  290.14 0854.41
2009/04/23 16:00:42.0     182   -160    132    243    276 131.3  31.0  34196  290.19 0854.41
2009/04/23 16:00:42.1     193   -152    129    246    277 128.2  29.8  34186  290.02 0854.41
2009/04/23 16:00:42.2     206   -308    126    371    392 146.2  18.8  34178  289.89 0854.41
2009/04/23 16:00:42.3     202   -304     72    366    374 146.4  11.1  34186  290.01 0854.41
2009/04/23 16:00:42.4     200   -283      9    347    348 144.7   1.6  34188  290.03 0854.41
2009/04/23 16:00:42.5      79   -260     23    272    274 163.0   4.9  34186  290.02 0854.41
2009/04/23 16:00:42.6     156   -220     63    271    279 144.6  13.1  34178  289.88 0854.41
2009/04/23 16:00:42.7     256   -243    152    354    385 133.5  24.9  34172  289.76 0854.41
2009/04/23 16:00:42.8     126   -326    188    350    397 158.8  30.6  34172  289.77 0854.41
2009/04/23 16:00:42.9      44   -401    198    404    449 173.7  28.1  34176  289.83 0854.41
2009/04/23 16:00:43.0     -26   -434    136    435    456 183.5  17.4  34178  289.88 0854.41
2009/04/23 16:00:43.1      18   -346     91    347    359 176.9  14.7  34178  289.86 0854.41
2009/04/23 16:00:43.2      31   -406    -34    408    410 175.6  -4.8  34184  289.97 0854.41
2009/04/23 16:00:43.3      84   -345    -55    356    361 166.2  -8.8  34182  289.94 0854.41
2009/04/23 16:00:43.4     228   -289    -14    369    370 141.8  -2.2  34180  289.91 0854.41
2009/04/23 16:00:43.5     147   -286     53    322    327 152.8   9.4  34184  289.97 0854.41
2009/04/23 16:00:43.6     216   -290     93    362    374 143.3  14.5  34182  289.93 0854.41
2009/04/23 16:00:43.7     253   -260     17    364    365 135.8   2.8  34184  289.98 0854.41
2009/04/23 16:00:43.8     172   -348     61    389    394 153.6   9.0  34178  289.86 0854.41
2009/04/23 16:00:43.9     254   -211    157    331    366 129.6  27.3  34174  289.81 0854.41
2009/04/23 16:00:44.0     129   -354    158    378    409 159.9  24.1  34178  289.86 0854.41
2009/04/23 16:00:44.1     166   -502    128    529    545 161.7  13.7  34178  289.87 0854.41
2009/04/23 16:00:44.2     193   -416    137    459    480 155.1  16.7  34178  289.89 0854.41
2009/04/23 16:00:44.3     269   -468    170    541    568 150.1  17.4  34160  289.58 0854.42
2009/04/23 16:00:44.4     243   -455    167    516    543 151.9  17.9  34160  289.57 0854.42
2009/04/23 16:00:44.5     165   -512    249    539    593 162.1  26.5  34164  289.63 0854.42
2009/04/23 16:00:44.6     199   -511    272    549    612 158.7  28.2  34162  289.61 0854.42
2009/04/23 16:00:44.7     209   -485    298    529    607 156.7  31.9  34166  289.68 0854.42
2009/04/23 16:00:44.8     101   -537    251    547    601 169.3  26.4  34164  289.64 0854.42
2009/04/23 16:00:44.9     250   -549    268    604    660 155.5  25.6  34166  289.69 0854.42
2009/04/23 16:00:45.0     205   -490    253    532    589 157.3  27.3  34166  289.69 0854.42
2009/04/23 16:00:45.1      50   -545    160    548    571 174.7  16.3  34164  289.65 0854.42
2009/04/23 16:00:45.2      70   -490    174    496    526 171.8  19.4  34162  289.59 0854.42
2009/04/23 16:00:45.3     201   -519    262    557    615 158.8  27.1  34162  289.59 0854.42
2009/04/23 16:00:45.4     293   -458    119    544    558 147.4  12.4  34164  289.65 0854.42
2009/04/23 16:00:45.5     279   -466    -92    544    552 149.1  -9.6  34160  289.57 0854.42
2009/04/23 16:00:45.6     236   -550    -53    599    602 156.8  -5.1  34160  289.58 0854.42
2009/04/23 16:00:45.7     178   -432     67    468    473 157.5   8.2  34162  289.61 0854.42
2009/04/23 16:00:45.8     223   -404    -93    462    472 151.1 -11.5  34166  289.66 0854.42
2009/04/23 16:00:45.9     217   -438     30    489    490 153.6   3.6  34150  289.39 0854.42
2009/04/23 16:00:46.0     317   -450     58    551    555 144.8   6.1  34154  289.46 0854.42
2009/04/23 16:00:46.1     350   -408    -29    538    539 139.4  -3.2  34148  289.38 0854.42
2009/04/23 16:00:46.2     369   -360    -11    516    517 134.3  -1.3  34146  289.34 0854.42
2009/04/23 16:00:46.3     341   -370      7    504    505 137.4   0.8  34154  289.47 0854.41
2009/04/23 16:00:46.4     365   -274    -47    457    460 126.9  -6.0  34156  289.51 0854.41
2009/04/23 16:00:46.5     384   -232      8    449    450 121.2   1.1  34152  289.43 0854.41
2009/04/23 16:00:46.6     373   -194     60    421    426 117.5   8.2  34156  289.51 0854.41
2009/04/23 16:00:46.7     374   -191    144    421    446 117.1  18.9  34168  289.70 0854.41
2009/04/23 16:00:46.8     363   -216     20    423    424 120.8   2.8  34168  289.70 0854.41
2009/04/23 16:00:46.9     254   -166     86    304    317 123.3  15.9  34166  289.68 0854.41
2009/04/23 16:00:47.0     322   -383    177    501    531 140.0  20.3  34162  289.62 0854.41
2009/04/23 16:00:47.1     281   -353    200    452    494 141.5  25.6  34162  289.62 0854.41
2009/04/23 16:00:47.2     175   -274    233    326    400 147.5  39.0  34166  289.69 0854.41
2009/04/23 16:00:47.3      69   -267    229    276    358 165.5  43.8  34166  289.69 0854.41
2009/04/23 16:00:47.4      45   -250    275    255    375 169.8  52.3  34172  289.76 0854.41
2009/04/23 16:00:47.5      20   -308    245    309    394 176.2  42.6  34164  289.65 0854.41
2009/04/23 16:00:47.6     147   -268    232    306    384 151.1  41.2  34162  289.62 0854.41
2009/04/23 16:00:47.7     151   -307    278    343    441 153.7  43.3  34166  289.68 0854.41
2009/04/23 16:00:47.8     258   -289    274    388    474 138.2  38.7  34162  289.61 0854.41
2009/04/23 16:00:47.9     243   -201    293    316    430 129.6  47.7  34164  289.65 0854.41
2009/04/23 16:00:48.0      62    -18    194     65    204 106.8  81.0  34176  289.84 0854.41
2009/04/23 16:00:48.1     119   -103    238    158    285 130.9  63.6  34176  289.83 0854.41
2009/04/23 16:00:48.2      14   -158    232    159    281 174.7  62.6  34168  289.70 0854.41
2009/04/23 16:00:48.3      53   -159    241    168    293 161.5  61.8  34172  289.78 0854.42
2009/04/23 16:00:48.4      50   -273    247    278    371 169.5  46.2  34162  289.60 0854.42
2009/04/23 16:00:48.5     -35   -278    285    281    400 187.3  50.2  34162  289.59 0854.42
2009/04/23 16:00:48.6     -43   -411    181    414    451 186.1  25.1  34156  289.49 0854.42
2009/04/23 16:00:48.7     -17   -377    144    378    404 182.6  22.0  34162  289.59 0854.42
2009/04/23 16:00:48.8      39   -467    177    469    501 175.1  21.6  34162  289.61 0854.42
2009/04/23 16:00:48.9       1   -385    277    386    475 179.8  39.2  34166  289.68 0854.42
2009/04/23 16:00:49.0     102   -297    156    315    351 161.1  28.4  34166  289.69 0854.42
2009/04/23 16:00:49.1      -1   -323    123    324    346 180.2  21.8  34164  289.65 0854.42
2009/04/23 16:00:49.2      26   -257    140    259    294 174.0  30.8  34168  289.71 0854.42
2009/04/23 16:00:49.3     159   -331    146    368    395 154.3  22.9  34162  289.59 0854.42
2009/04/23 16:00:49.4      67   -473    245    478    537 171.9  29.2  34180  289.91 0854.42
2009/04/23 16:00:49.5      76   -431    271    438    515 169.9  34.6  34184  289.98 0854.42
2009/04/23 16:00:49.6      46   -305    226    309    382 171.3  39.7  34178  289.89 0854.42
2009/04/23 16:00:49.7     -75   -247    254    259    362 197.0  49.7  34182  289.94 0854.42
2009/04/23 16:00:49.8      -3   -204    248    205    321 181.0  56.2  34180  289.92 0854.42
2009/04/23 16:00:49.9      22   -229    220    231    319 174.4  48.6  34176  289.83 0854.42
2009/04/23 16:00:50.0     119   -228    157    258    302 152.4  34.4  34170  289.75 0854.42
2009/04/23 16:00:50.1      33   -253    183    256    314 172.4  39.2  34168  289.70 0854.42
2009/04/23 16:00:50.2      80   -152     88    173    194 152.1  29.1  34168  289.72 0854.42
2009/04/23 16:00:50.3      16   -114    140    116    181 172.0  56.3  34176  289.85 0854.43
2009/04/23 16:00:50.4      50    -71    110     88    140 144.8  56.9  34178  289.89 0854.43
2009/04/23 16:00:50.5      85   -129    150    155    215 146.6  49.4  34174  289.80 0854.43
2009/04/23 16:00:50.6       3   -114    151    115    189 178.2  59.0  34168  289.72 0854.43
2009/04/23 16:00:50.7      46    -68    152     83    173 145.7  69.1  34168  289.72 0854.43
2009/04/23 16:00:50.8     218   -205    160    300    340 133.3  30.6  34148  289.37 0854.43
2009/04/23 16:00:50.9     258   -161     89    305    318 122.0  16.3  34154  289.46 0854.43
2009/04/23 16:00:51.0     118   -285     60    309    315 157.5  11.1  34170  289.73 0854.43
2009/04/23 16:00:51.1     116   -195    139    227    266 149.2  34.5  34160  289.56 0854.43
2009/04/23 16:00:51.2     144   -233     67    275    284 148.3  13.7  34170  289.75 0854.43
2009/04/23 16:00:51.3     251   -260    -13    362    363 136.0  -2.1  34172  289.77 0854.43
2009/04/23 16:00:51.4     276   -244    -92    369    381 131.4 -14.1  34174  289.81 0854.43
2009/04/23 16:00:51.5     255   -235   -113    348    365 132.7 -23.2  34172  289.76 0854.43
2009/04/23 16:00:51.6     263   -217   -115    342    360 129.5 -23.5  34172  289.76 0854.43
2009/04/23 16:00:51.7     272   -219    -98    350    363 128.8 -20.3  34172  289.76 0854.43
2009/04/23 16:00:51.8     246   -211   -105    325    342 130.7 -17.9  34176  289.84 0854.43
2009/04/23 16:00:51.9     167   -186      2    251    252 138.1   0.5  34174  289.80 0854.43
2009/04/23 16:00:52.0     183    -86   -108    203    229 115.1 -34.7  34172  289.79 0854.43
2009/04/23 16:00:52.1      99   -135    -65    168    180 143.5 -26.4  34170  289.74 0854.43
2009/04/23 16:00:52.2      60    -77    -37     98    104 142.2 -25.4  34172  289.77 0854.43
2009/04/23 16:00:52.3      59      0    -30     60     67  90.0 -32.6  34174  289.82 0854.43
2009/04/23 16:00:52.4      30    -12     22     33     39 111.7  36.5  34176  289.84 0854.43
2009/04/23 16:00:52.5      88     30     14     94     96  70.9   8.5  34178  289.89 0854.43
2009/04/23 16:00:52.6     107     44     41    116    123  67.4  20.0  34180  289.92 0854.43
2009/04/23 16:00:52.7     167     16     11    168    169  84.3   3.8  34182  289.96 0854.43
2009/04/23 16:00:52.8     152     41    -31    158    162  74.9 -11.1  34176  289.85 0854.43
2009/04/23 16:00:52.9     265   -214    174    341    382 129.0  29.2  34158  289.54 0854.43
2009/04/23 16:00:53.0     126   -288    163    315    354 156.3  29.4  34146  289.32 0854.43
2009/04/23 16:00:53.1      36   -211    158    215    266 170.2  39.7  34148  289.37 0854.43
2009/04/23 16:00:53.2     -21   -150     66    152    165 188.1  24.9  34164  289.63 0854.43
2009/04/23 16:00:53.3      60   -310     37    316    319 168.9   6.7  34166  289.68 0854.43
2009/04/23 16:00:53.4     -16   -281      8    282    283 183.4   1.8  34164  289.63 0854.43
2009/04/23 16:00:53.5     -84   -277     -1    290    291 196.9  -0.3  34168  289.71 0854.43
2009/04/23 16:00:53.6       0   -280     69    281    290 180.0  13.9  34168  289.70 0854.43
2009/04/23 16:00:53.7     -44   -402    164    405    436 186.3  23.1  34156  289.51 0854.43
2009/04/23 16:00:53.8      62   -353    125    359    381 170.0  19.2  34152  289.43 0854.43
2009/04/23 16:00:53.9      50   -403    161    407    437 172.9  22.9  34140  289.22 0854.43
2009/04/23 16:00:54.0     -28   -262    210    264    337 186.2  42.6  34144  289.31 0854.43
2009/04/23 16:00:54.1      50   -255    259    260    366 168.9  50.1  34134  289.13 0854.43
2009/04/23 16:00:54.2      19      6    154     21    155  71.6  90.0  34150  289.40 0854.42
2009/04/23 16:00:54.3     -95    -65     -1    116    117 235.8  -0.7  34146  289.33 0854.42
2009/04/23 16:00:54.4     127    -92     -4    157    158 126.0  -1.6  34138  289.21 0854.42
2009/04/23 16:00:54.5     263   -172    117    315    336 123.3  21.4  34142  289.26 0854.42
2009/04/23 16:00:54.6     102   -109    212    150    259 136.8  61.3  34150  289.40 0854.42
2009/04/23 16:00:54.7     178   -128    156    220    269 125.9  38.8  34150  289.39 0854.42
2009/04/23 16:00:54.8     302    -81    109    313    332 105.0  19.2  34144  289.31 0854.42
2009/04/23 16:00:54.9     158    -51    112    167    201 107.9  37.3  34136  289.18 0854.42
2009/04/23 16:00:55.0     182   -282    -66    336    343 147.2 -11.2  34142  289.25 0854.42
2009/04/23 16:00:55.1     150   -374    -98    404    416 158.2 -13.7  34140  289.24 0854.42
2009/04/23 16:00:55.2      19   -537   -112    538    550 177.9 -11.8  34150  289.40 0854.40
2009/04/23 16:00:55.3     -59   -428   -140    433    455 187.9 -22.9  34146  289.34 0854.40
2009/04/23 16:00:55.4      24   -221    -97    223    243 173.8 -29.5  34154  289.46 0854.40
2009/04/23 16:00:55.5     179   -282    -86    335    346 147.5 -14.4  34146  289.33 0854.40
2009/04/23 16:00:55.6     201   -304   -118    365    384 146.4 -18.0  34138  289.21 0854.40
2009/04/23 16:00:55.7     258   -326     72    416    423 141.6   9.9  34144  289.31 0854.40
2009/04/23 16:00:55.8     328   -384    137    506    525 139.5  15.2  34142  289.25 0854.40
2009/04/23 16:00:55.9     298   -197     47    358    362 123.5   7.5  34136  289.18 0854.40
2009/04/23 16:00:56.0     307    -89    -16    320    321 106.2  -3.0  34142  289.25 0854.40
2009/04/23 16:00:56.1     139    -44   -123    146    190 107.7 -48.5  34146  289.33 0854.40
2009/04/23 16:00:56.2     151   -251   -157    293    332 149.0 -35.0  34146  289.32 0854.40
2009/04/23 16:00:56.3     180   -178    -83    254    267 134.7 -23.6  34144  289.31 0854.40
2009/04/23 16:00:56.4     250   -207   -105    325    341 129.6 -23.3  34152  289.43 0854.40
2009/04/23 16:00:56.5     345   -131   -101    370    384 110.8 -15.4  34150  289.40 0854.40
2009/04/23 16:00:56.6     228   -194   -128    300    326 130.4 -29.0  34144  289.31 0854.40
2009/04/23 16:00:56.7     164   -175   -107    241    263 136.8 -30.3  34146  289.32 0854.40
2009/04/23 16:00:56.8     249   -259    -86    360    371 136.1 -13.4  34138  289.20 0854.40
2009/04/23 16:00:56.9     280   -122    -48    306    310 113.5  -9.0  34140  289.24 0854.40
2009/04/23 16:00:57.0     267    -61    -66    275    283 103.0 -13.7  34140  289.22 0854.40
2009/04/23 16:00:57.1     262     -7     -7    263    264  91.7  -1.6  34140  289.24 0854.40
2009/04/23 16:00:57.2     240    -68     53    250    256 105.9  12.0  34134  289.14 0854.36
2009/04/23 16:00:57.3     284     -8     50    285    290  91.7  10.0  34144  289.29 0854.36
2009/04/23 16:00:57.4     241     -8    191    242    308  92.1  42.4  34142  289.25 0854.36
2009/04/23 16:00:57.5     248     50    148    254    293  78.5  32.9  34140  289.22 0854.36
2009/04/23 16:00:57.6      92      7    184     93    206  85.6  71.4  34154  289.46 0854.36
2009/04/23 16:00:57.7     192     37    144    196    243  79.0  39.9  34136  289.16 0854.36
2009/04/23 16:00:57.8      35      1    144     36    148  87.4  85.9  34156  289.50 0854.36
2009/04/23 16:00:57.9     158     -6    118    159    198  92.5  40.1  34140  289.23 0854.36
2009/04/23 16:00:58.0     240      3    104    241    262  89.2  24.6  34142  289.27 0854.36
2009/04/23 16:00:58.1     223     74    112    236    261  71.6  27.2  34144  289.31 0854.36
2009/04/23 16:00:58.2     185     61     87    195    213  71.6  25.7  34144  289.30 0854.36
2009/04/23 16:00:58.3     156     36     75    161    177  76.8  27.0  34140  289.24 0854.36
2009/04/23 16:00:58.4     109     -4    123    110    165  92.6  53.5  34140  289.24 0854.36
2009/04/23 16:00:58.5      43    -15    130     46    137 110.0  79.7  34162  289.60 0854.36
2009/04/23 16:00:58.6     -11     18    116     22    118 329.3  89.6  34172  289.79 0854.36
2009/04/23 16:00:58.7     -23     67    155     71    170 340.8  73.8  34168  289.72 0854.36
2009/04/23 16:00:58.8      -5     76    130     77    151 355.6  66.8  34168  289.72 0854.36
2009/04/23 16:00:58.9     198   -125    162    235    285 122.4  37.6  34150  289.39 0854.36
2009/04/23 16:00:59.0     199   -126    206    236    313 122.4  45.6  34148  289.36 0854.36
2009/04/23 16:00:59.1     141   -264    241    300    384 151.9  43.1  34138  289.21 0854.36
2009/04/23 16:00:59.2     189   -226    231    295    374 140.1  42.1  34152  289.45 0854.34
2009/04/23 16:00:59.3     142   -256    156    293    331 151.0  30.5  34148  289.36 0854.34
2009/04/23 16:00:59.4      88   -307    256    320    409 164.0  42.7  34148  289.38 0854.34
2009/04/23 16:00:59.5     167   -182    251    248    352 137.5  50.4  34150  289.39 0854.34
2009/04/23 16:00:59.6     275   -282    331    395    515 135.7  44.3  34150  289.40 0854.34
2009/04/23 16:00:59.7     249   -266    253    365    444 137.0  38.0  34144  289.29 0854.34
2009/04/23 16:00:59.8     318   -298    211    437    485 133.1  27.7  34144  289.30 0854.34
2009/04/23 16:00:59.9     301   -354    171    465    495 139.6  21.1  34142  289.27 0854.34
2009/04/23 16:01:00.0     343   -273     36    439    441 128.5   4.7  34144  289.31 0854.34
2009/04/23 16:01:00.1     318   -215    125    384    404 124.1  18.0  34148  289.38 0854.34
2009/04/23 16:01:00.2     336   -262    124    427    445 128.0  16.3  34146  289.34 0854.34
2009/04/23 16:01:00.3     234   -220    132    322    348 133.3  23.5  34144  289.30 0854.34
2009/04/23 16:01:00.4      97   -303    103    319    336 162.2  18.0  34142  289.28 0854.34
2009/04/23 16:01:00.5     126   -236     24    268    270 151.9   5.2  34146  289.34 0854.34
2009/04/23 16:01:00.6       4   -299     26    300    302 179.1   5.0  34144  289.29 0854.34
2009/04/23 16:01:00.7      97   -338    117    352    372 164.0  18.5  34146  289.32 0854.34
2009/04/23 16:01:00.8     149   -325    187    358    403 155.4  29.6  34156  289.52 0854.34
2009/04/23 16:01:00.9     215   -344     51    406    410 148.0   7.2  34150  289.39 0854.34
2009/04/23 16:01:01.0     183   -281    201    336    391 146.9  33.6  34166  289.67 0854.34
2009/04/23 16:01:01.1     146   -320    157    352    385 155.4  25.7  34164  289.65 0854.34
2009/04/23 16:01:01.2     126   -288    172    315    358 156.3  31.0  34152  289.45 0854.34
2009/04/23 16:01:01.3      -7   -273    221    274    352 181.6  43.0  34146  289.34 0854.34
2009/04/23 16:01:01.4     189   -231    149    299    334 140.8  28.5  34150  289.41 0854.34
2009/04/23 16:01:01.5     179   -349      7    393    394 152.8   1.1  34148  289.38 0854.34
2009/04/23 16:01:01.6     166   -297   -111    341    359 150.8 -18.0  34148  289.37 0854.34
2009/04/23 16:01:01.7     179   -330    -25    376    377 151.5  -3.9  34152  289.43 0854.34
2009/04/23 16:01:01.8     179   -311     18    359    360 150.1   3.0  34154  289.47 0854.34
2009/04/23 16:01:01.9     207   -288    125    355    377 144.3  19.4  34146  289.35 0854.34
2009/04/23 16:01:02.0     242   -259    125    355    377 136.9  19.5  34152  289.43 0854.34
2009/04/23 16:01:02.1     221   -173    100    281    299 128.0  19.6  34158  289.53 0854.34
2009/04/23 16:01:02.2     208   -222    113    305    325 136.8  21.3  34154  289.47 0854.34
2009/04/23 16:01:02.3     185   -191    174    266    317 135.9  36.4  34150  289.41 0854.34
2009/04/23 16:01:02.4     244   -154    154    289    327 122.2  30.3  34154  289.47 0854.34
2009/04/23 16:01:02.5     172   -221    171    281    328 142.2  34.4  34152  289.44 0854.34
2009/04/23 16:01:02.6      84    -89    162    123    203 136.8  59.2  34158  289.53 0854.34
2009/04/23 16:01:02.7     107   -176    141    207    250 148.6  37.4  34154  289.46 0854.34
2009/04/23 16:01:02.8     100   -288    191    305    359 160.8  35.2  34156  289.52 0854.34
2009/04/23 16:01:02.9     108   -241    198    265    330 155.9  40.4  34154  289.47 0854.34
2009/04/23 16:01:03.0     182   -205    164    275    320 138.3  33.7  34156  289.51 0854.34
2009/04/23 16:01:03.1      74   -257    166    268    315 164.0  34.8  34150  289.41 0854.34
2009/04/23 16:01:03.2     145   -244    171    285    332 149.3  33.8  34150  289.41 0854.32
2009/04/23 16:01:03.3     113   -164    170    200    262 145.5  44.8  34152  289.44 0854.32
2009/04/23 16:01:03.4      27    -82    140     87    164 161.7  65.1  34168  289.72 0854.32
2009/04/23 16:01:03.5     122   -240    179    270    323 153.0  36.7  34154  289.46 0854.32
2009/04/23 16:01:03.7      69   -208    169    220    277 161.5  41.6  34152  289.44 0854.32
2009/04/23 16:01:03.7      30    -30    125     43    132 135.0  81.2  34172  289.79 0854.32
2009/04/23 16:01:03.9      51    -80    104     95    140 147.4  52.2  34160  289.57 0854.32
2009/04/23 16:01:03.9     113    -76    135    137    192 124.1  50.0  34172  289.77 0854.32
2009/04/23 16:01:04.1     112    -72    123    134    181 122.9  47.7  34166  289.67 0854.32
2009/04/23 16:01:04.2      71    -69    135    100    168 134.4  60.0  34166  289.67 0854.32
2009/04/23 16:01:04.3      21    -67     81     71    107 162.2  54.3  34168  289.70 0854.32
2009/04/23 16:01:04.4      64   -151    124    165    206 157.1  40.9  34152  289.45 0854.32
2009/04/23 16:01:04.5     125   -120    106    174    203 134.0  34.4  34158  289.55 0854.32
2009/04/23 16:01:04.6     136   -105    121    173    211 127.8  38.4  34162  289.60 0854.32
2009/04/23 16:01:04.7     140    -76    115    160    197 118.4  39.3  34170  289.74 0854.32
2009/04/23 16:01:04.8     136    -49    101    145    176 110.0  38.6  34174  289.80 0854.32
2009/04/23 16:01:04.9     126    -42    103    133    168 108.6  42.0  34166  289.69 0854.32
2009/04/23 16:01:05.0     174    -11    127    175    216  93.7  39.7  34164  289.63 0854.32
2009/04/23 16:01:05.1     147     35    162    152    222  76.3  52.1  34248  291.08 0854.32
2009/04/23 16:01:05.2     124     12    179    125    218  84.3  61.5  34268  291.40 0854.32
2009/04/23 16:01:05.3     102    -27    133    106    170 105.0  57.5  34236  290.86 0854.29
2009/04/23 16:01:05.4      72     66    125     98    158  47.3  58.2  34300  291.96 0854.29
2009/04/23 16:01:05.5     201     81    166    217    273  68.0  41.2  34274  291.50 0854.29
2009/04/23 16:01:05.6     248    108    109    271    292  66.5  23.0  34316  292.23 0854.29
2009/04/23 16:01:05.7     196    181    216    267    343  47.3  43.3  34340  292.62 0854.29
2009/04/23 16:01:05.8     179    237    236    298    380  37.0  42.4  34372  293.17 0854.29
2009/04/23 16:01:05.9      10    393    215    394    448   1.5  31.3  34320  292.30 0854.29
2009/04/23 16:01:06.0     173    254    161    308    347  34.3  29.8  34346  292.75 0854.29
2009/04/23 16:01:06.1     234    235    105    332    349  44.9  17.5  34328  292.41 0854.29
2009/04/23 16:01:06.2      63    196     20    206    208  17.8   5.7  34340  292.64 0854.29
2009/04/23 16:01:06.3     -72    300     70    309    317 346.4  12.8  34286  291.72 0854.29
2009/04/23 16:01:06.4     -79    261     -1    273    274 343.1  -0.3  34266  291.38 0854.29
2009/04/23 16:01:06.5     -54    243     92    250    266 347.3  21.0  34304  292.01 0854.29
2009/04/23 16:01:06.6       3    251     40    252    256   0.9   9.0  34320  292.28 0854.29
2009/04/23 16:01:06.7     150    214      3    262    263  35.1   0.7  34292  291.82 0854.29
2009/04/23 16:01:06.8     135    195     37    238    242  34.7   9.0  34316  292.21 0854.29
2009/04/23 16:01:06.9      90    162     87    186    205  29.2  27.1  34336  292.58 0854.29
2009/04/23 16:01:07.0     196     92     -8    217    218  64.8  -2.1  34342  292.66 0854.29
2009/04/23 16:01:07.1     267      7     57    268    275  88.3  12.1  34368  293.10 0854.29
2009/04/23 16:01:07.2     313    -15    109    314    333  92.9  19.2  34360  292.96 0854.29
2009/04/23 16:01:07.3     272    -54     84    278    291 101.2  16.8  34348  292.77 0854.26
2009/04/23 16:01:07.4     295    -36     63    298    305  97.1  12.1  34344  292.69 0854.26
2009/04/23 16:01:07.5     405     57    148    410    437  82.0  19.9  34292  291.82 0854.26
2009/04/23 16:01:07.6     317    -10    101    318    334  91.9  17.7  34284  291.68 0854.26
2009/04/23 16:01:07.7     390     95    181    402    440  76.3  25.9  34348  292.76 0854.26
2009/04/23 16:01:07.8     205     26    197    207    285  82.5  48.5  34372  293.18 0854.26
2009/04/23 16:01:07.9     131     77    170    153    228  59.4  53.3  34390  293.50 0854.26
2009/04/23 16:01:08.0       4      4    108      7    108  45.0  90.0  34386  293.43 0854.26
2009/04/23 16:01:08.1      66    -15     58     68     89 103.3  44.8  34374  293.22 0854.26
2009/04/23 16:01:08.2     136    -28     51    139    148 101.9  21.0  34332  292.51 0854.26
2009/04/23 16:01:08.3     115    -74     59    138    150 122.9  24.6  34294  291.84 0854.26
2009/04/23 16:01:08.4     162     -6     98    163    190  92.4  34.0  34270  291.45 0854.26
2009/04/23 16:01:08.5     146    -54    101    156    185 110.4  35.6  34276  291.55 0854.26
2009/04/23 16:01:08.6     213      0    108    214    239  89.9  29.1  34222  290.62 0854.26
2009/04/23 16:01:08.7     250     42    141    254    290  80.4  31.4  34272  291.46 0854.26
2009/04/23 16:01:08.8     197     -4    113    198    227  91.3  32.1  34320  292.29 0854.26
2009/04/23 16:01:08.9     180      3    201    181    270  88.7  53.3  34282  291.63 0854.26
2009/04/23 16:01:09.0     194      0    167    195    256  90.0  44.9  34306  292.06 0854.26
2009/04/23 16:01:09.1     152     11    173    153    230  85.6  54.2  34338  292.59 0854.26
2009/04/23 16:01:09.2      53    -33    134     63    148 122.4  73.1  34364  293.05 0854.26
2009/04/23 16:01:09.3      70     84    101    110    149  39.7  47.9  34314  292.20 0854.27
2009/04/23 16:01:09.4     118    163    115    202    232  36.0  32.1  34288  291.76 0854.27
2009/04/23 16:01:09.5      -6    115    156    116    194 356.9  60.0  34298  291.91 0854.27
2009/04/23 16:01:09.6     -43    108    121    117    168 338.2  50.9  34296  291.89 0854.27
2009/04/23 16:01:09.7      94    139    118    169    206  34.1  38.4  34294  291.84 0854.27
2009/04/23 16:01:09.8      97    159    138    187    232  31.4  39.7  34302  291.98 0854.27
2009/04/23 16:01:09.9      76    173    121    190    225  23.8  35.5  34292  291.81 0854.27
2009/04/23 16:01:10.0      62    176    139    187    233  19.6  40.1  34328  292.42 0854.27
2009/04/23 16:01:10.1      27    143    148    146    207  10.7  50.1  34318  292.25 0854.27
2009/04/23 16:01:10.2     108     55    113    122    166  62.9  47.7  34324  292.35 0854.27
2009/04/23 16:01:10.3     124     61    113    139    179  63.8  43.5  34330  292.46 0854.27
2009/04/23 16:01:10.4     180      3    132    181    224  88.7  39.7  34274  291.50 0854.27
2009/04/23 16:01:10.5     208    -16    131    209    246  94.6  35.5  34266  291.38 0854.27
2009/04/23 16:01:10.6     189      1    119    190    224  89.6  35.5  34240  290.94 0854.27
2009/04/23 16:01:10.7     163    -30    133    166    212 100.6  43.0  34286  291.72 0854.27
2009/04/23 16:01:10.8     172    -14     92    173    195  94.8  30.1  34250  291.11 0854.27
2009/04/23 16:01:10.9     192     11    146    193    242  86.5  40.7  34220  290.58 0854.27
2009/04/23 16:01:11.0     191      1    129    192    231  89.4  36.7  34228  290.72 0854.27
2009/04/23 16:01:11.1     229     20    157    230    278  84.8  37.6  34278  291.56 0854.27
2009/04/23 16:01:11.2     200      0    165    201    260  89.9  43.7  34244  291.00 0854.27
2009/04/23 16:01:11.3     191     -8    181    192    263  92.6  48.2  34266  291.36 0854.30
2009/04/23 16:01:11.4     264     76    164    275    320  73.8  33.7  34306  292.04 0854.30
2009/04/23 16:01:11.5     206     52    157    213    264  75.8  40.1  34310  292.11 0854.30
2009/04/23 16:01:11.6     191    104    194    218    291  61.4  46.2  34300  291.96 0854.30
2009/04/23 16:01:11.7     172     99    155    199    252  60.0  41.7  34272  291.46 0854.30
2009/04/23 16:01:11.8      65     52    173     84    192  50.9  72.8  34282  291.66 0854.30
2009/04/23 16:01:11.9      53      1    124     54    135  88.3  75.0  34278  291.59 0854.30
2009/04/23 16:01:12.0     140     57    143    152    208  67.8  48.2  34276  291.54 0854.30
2009/04/23 16:01:12.1      61    165     83    176    194  20.3  27.1  34286  291.71 0854.30
2009/04/23 16:01:12.2     158    109    116    193    225  55.4  34.0  34298  291.93 0854.30
2009/04/23 16:01:12.3     196    157     86    252    267  51.4  18.9  34284  291.67 0854.30
2009/04/23 16:01:12.4     -82    303    -40    314    317 344.8  -7.3  34208  290.37 0854.30
2009/04/23 16:01:12.5    -299    329   -123    445    462 317.7 -15.5  34188  290.05 0854.30
2009/04/23 16:01:12.6    -333    276      5    433    434 309.6   0.7  34182  289.95 0854.30
2009/04/23 16:01:12.7    -200    214    152    294    330 317.0  29.6  34200  290.24 0854.30
2009/04/23 16:01:12.8    -114    204    177    234    293 330.8  40.9  34220  290.59 0854.30
2009/04/23 16:01:12.9    -137    145    134    200    240 316.6  37.0  34238  290.89 0854.30
2009/04/23 16:01:13.0    -221      2     70    222    233 270.6  17.7  34222  290.62 0854.30
2009/04/23 16:01:13.1    -186    -14     -4    187    188 265.6  -1.3  34204  290.33 0854.30
2009/04/23 16:01:13.2    -173    -53     13    181    182 252.9   4.4  34224  290.65 0854.30
2009/04/23 16:01:13.3     -42    -73    -25     85     89 209.9 -16.6  34230  290.75 0854.30
2009/04/23 16:01:13.4      54    -73    -13     91     92 143.5  -8.2  34228  290.74 0854.30
2009/04/23 16:01:13.5     130      3    108    131    169  88.3  43.7  34238  290.89 0854.30
2009/04/23 16:01:13.6     124    -19    137    126    186  98.8  52.7  34254  291.18 0854.30
2009/04/23 16:01:13.7      63    -33    121     72    140 118.0  66.8  34266  291.37 0854.30
2009/04/23 16:01:13.8     -11     27    117     30    120 338.2  85.9  34266  291.38 0854.30
2009/04/23 16:01:13.9      22     34    115     41    122  32.5  79.7  34262  291.30 0854.30
2009/04/23 16:01:14.0      -5      4     93      7     93 313.3  90.0  34268  291.40 0854.30
2009/04/23 16:01:14.1      14     18     83     24     86  37.8  83.3  34258  291.25 0854.30
2009/04/23 16:01:14.2       0     -1     78      2     78 189.7  90.0  34244  291.01 0854.30
2009/04/23 16:01:14.3      23   -100     82    103    131 166.6  43.3  34212  290.45 0854.30
2009/04/23 16:01:14.4      60   -103     91    120    150 149.7  41.2  34212  290.45 0854.30
2009/04/23 16:01:14.5     124    -49     95    134    164 111.8  38.6  34202  290.28 0854.30
2009/04/23 16:01:14.6      93      0     63     94    113  90.0  36.5  34246  291.03 0854.30
2009/04/23 16:01:14.7      90    -28     53     95    108 107.7  31.4  34200  290.26 0854.30
2009/04/23 16:01:14.8      68     -5     97     69    119  94.3  61.1  34206  290.36 0854.30
2009/04/23 16:01:14.9     125     59     98    139    170  64.6  38.6  34332  292.51 0854.30
2009/04/23 16:01:15.0     112     39    114    119    164  70.5  49.2  34324  292.35 0854.30
2009/04/23 16:01:15.1     142     38     96    147    175  75.0  35.7  34320  292.30 0854.30
2009/04/23 16:01:15.2     186    104     58    214    222  60.7  15.3  34314  292.18 0854.30
2009/04/23 16:01:15.3     176     90    -40    198    203  62.9 -11.6  34328  292.42 0854.32
2009/04/23 16:01:15.4     232     80     86    246    261  70.9  19.4  34286  291.72 0854.32
2009/04/23 16:01:15.5     317     65    150    324    357  78.3  26.6  34290  291.78 0854.32
2009/04/23 16:01:15.6     223     34     88    226    242  81.2  22.3  34268  291.41 0854.32
2009/04/23 16:01:15.7     415     85     -8    424    425  78.3  -1.2  34222  290.61 0854.32
2009/04/23 16:01:15.8     318     24    140    319    348  85.6  25.2  34250  291.11 0854.32
2009/04/23 16:01:15.9     346      1    211    347    406  89.7  34.3  34284  291.68 0854.32
2009/04/23 16:01:16.0     300   -100    166    317    357 108.6  29.8  34288  291.74 0854.32
2009/04/23 16:01:16.1     337    -92     82    350    360 105.4  13.3  34274  291.51 0854.32
2009/04/23 16:01:16.2     248    -26    112    250    273  96.1  25.9  34248  291.07 0854.32
2009/04/23 16:01:16.3     113   -203     81    233    247 150.8  19.2  34270  291.44 0854.34
2009/04/23 16:01:16.4     115   -370    -18    388    389 162.7  -2.8  34252  291.13 0854.34
2009/04/23 16:01:16.5     140   -365    -57    392    397 159.0  -8.3  34212  290.47 0854.34
2009/04/23 16:01:16.6     184   -333     24    381    382 151.0   3.6  34206  290.35 0854.34
2009/04/23 16:01:16.7     131   -260     66    292    300 153.3  12.9  34224  290.65 0854.34
2009/04/23 16:01:16.8     194   -200      4    279    280 135.9   1.0  34214  290.49 0854.34
2009/04/23 16:01:16.9     175   -187     45    257    262 137.0  10.1  34198  290.22 0854.34
2009/04/23 16:01:17.0      76   -216     47    230    235 160.6  11.6  34264  291.33 0854.34
2009/04/23 16:01:17.1      70   -207     36    219    223 161.3   9.5  34234  290.84 0854.34
2009/04/23 16:01:17.2      76   -230     97    243    261 161.5  23.0  34230  290.75 0854.34
2009/04/23 16:01:17.3      49   -231    120    237    265 168.0  28.7  34244  290.99 0854.34
2009/04/23 16:01:17.4       0   -250    172    251    304 179.9  37.6  34240  290.92 0854.34
2009/04/23 16:01:17.5     -27   -242    111    244    268 186.5  26.2  34234  290.82 0854.34
2009/04/23 16:01:17.6      42   -156    114    162    198 164.9  38.6  34230  290.77 0854.34
2009/04/23 16:01:17.7      57   -189    157    198    252 163.1  42.7  34216  290.53 0854.34
2009/04/23 16:01:17.8      66   -164    142    177    226 157.9  43.3  34220  290.60 0854.34
2009/04/23 16:01:17.9      31   -180    163    183    245 170.2  46.2  34220  290.58 0854.34
2009/04/23 16:01:18.0      26   -226    181    228    291 173.3  42.7  34232  290.78 0854.34
2009/04/23 16:01:18.1      18   -240    179    241    300 175.5  40.1  34254  291.16 0854.34
2009/04/23 16:01:18.2      -4   -139    216    140    257 181.8  64.1  34228  290.72 0854.34
2009/04/23 16:01:18.3     -23     15    126     28    129 302.5  88.5  34242  290.96 0854.37
2009/04/23 16:01:18.4     -42    113    190    121    225 339.5  64.7  34240  290.92 0854.37
2009/04/23 16:01:18.5    -255    -54    151    261    301 257.8  32.9  34242  290.95 0854.37
2009/04/23 16:01:18.6    -247     -7    179    248    305 268.3  39.5  34238  290.90 0854.37
2009/04/23 16:01:18.7    -140   -135    210    195    286 226.0  52.2  34238  290.90 0854.37
2009/04/23 16:01:18.8    -153   -153    202    217    296 225.0  47.9  34260  291.27 0854.37
2009/04/23 16:01:18.9       0   -126    216    127    250 180.0  66.8  34246  291.03 0854.37
2009/04/23 16:01:19.0     -54   -202    135    210    249 195.1  35.6  34222  290.61 0854.37
2009/04/23 16:01:19.1      -9   -185    158    186    244 182.9  44.8  34214  290.48 0854.37
2009/04/23 16:01:19.2     -10   -175    194    176    261 183.4  53.0  34236  290.87 0854.37
2009/04/23 16:01:19.3     -22   -156    189    158    246 188.1  56.1  34242  290.98 0854.37
2009/04/23 16:01:19.4     -63   -136    180    150    234 204.9  56.1  34234  290.84 0854.37
2009/04/23 16:01:19.5     -93   -256    182    273    328 200.0  36.7  34218  290.56 0854.37
2009/04/23 16:01:19.6     -99   -248    222    268    348 201.9  43.8  34220  290.58 0854.37
2009/04/23 16:01:19.7      86   -238    174    254    307 160.2  37.6  34216  290.53 0854.37
2009/04/23 16:01:19.8     -11   -203    217    204    297 183.1  52.1  34224  290.65 0854.37
2009/04/23 16:01:19.9     -15   -209    211    210    297 184.2  50.1  34238  290.90 0854.37
2009/04/23 16:01:20.0      58   -185    133    195    236 162.4  37.6  34226  290.70 0854.37
2009/04/23 16:01:20.1      16   -196    175    197    263 175.3  46.2  34230  290.76 0854.37
2009/04/23 16:01:20.2     -62   -205    162    215    269 196.9  40.7  34218  290.54 0854.37
2009/04/23 16:01:20.3    -102   -207    142    231    271 206.3  34.8  34218  290.56 0854.37
2009/04/23 16:01:20.4     -85   -134    152    159    219 212.5  48.7  34228  290.72 0854.37
2009/04/23 16:01:20.5     -70   -137    140    155    208 207.2  46.9  34236  290.87 0854.37
2009/04/23 16:01:20.6     -63   -133    209    148    256 205.4  61.3  34266  291.37 0854.37
2009/04/23 16:01:20.7     -51    -94    150    107    184 208.5  61.1  34240  290.94 0854.37
2009/04/23 16:01:20.8     -47   -144    140    152    206 198.3  47.7  34226  290.69 0854.37
2009/04/23 16:01:20.9      -7   -152    148    153    212 182.7  49.4  34234  290.84 0854.37
2009/04/23 16:01:21.0     -12   -131    178    132    221 185.3  60.3  34260  291.28 0854.37
2009/04/23 16:01:21.1     -21    -13    123     25    125 237.6  89.0  34280  291.62 0854.37
2009/04/23 16:01:21.2      59     -5    116     60    130  95.2  70.8  34280  291.62 0854.37
2009/04/23 16:01:21.3      -8    -22     76     24     79 200.0  81.8  34298  291.93 0854.37
2009/04/23 16:01:21.4      -1    -10     86     11     86 188.0  90.0  34300  291.96 0854.37
2009/04/23 16:01:21.5     -28    -23    146     37    150 230.5  85.9  34296  291.89 0854.37
2009/04/23 16:01:21.6     -58     19     86     62    106 288.2  60.6  34272  291.47 0854.37
2009/04/23 16:01:21.7     -23     19     58     31     65 309.6  68.9  34282  291.66 0854.37
2009/04/23 16:01:21.8     -45     30     83     55     99 304.2  63.6  34292  291.81 0854.37
2009/04/23 16:01:21.9    -106    -56     79    121    144 242.0  35.6  34274  291.52 0854.37
2009/04/23 16:01:22.0    -147   -118    116    189    221 231.1  34.8  34294  291.86 0854.37
2009/04/23 16:01:22.1    -133     21    120    135    180 279.2  46.4  34314  292.20 0854.37
2009/04/23 16:01:22.2    -148   -101    107    180    209 235.6  33.5  34298  291.91 0854.38
2009/04/23 16:01:22.3    -112     44     79    121    144 291.7  35.6  34266  291.37 0854.38
2009/04/23 16:01:22.4     -91     50     72    105    127 298.9  37.6  34278  291.59 0854.38
2009/04/23 16:01:22.5    -151    -17     84    153    174 263.4  31.4  34326  292.40 0854.38
2009/04/23 16:01:22.6    -141     -4     84    142    164 268.3  33.7  34340  292.63 0854.38
2009/04/23 16:01:22.7    -124     -6     34    125    130 267.0  15.3  34336  292.58 0854.38
2009/04/23 16:01:22.8    -100    -36    111    107    154 250.0  50.7  34358  292.95 0854.38
2009/04/23 16:01:22.9    -159   -159    129    225    259 225.0  32.4  34294  291.84 0854.38
2009/04/23 16:01:23.0     -92   -209    140    229    268 203.8  34.4  34244  291.00 0854.38
2009/04/23 16:01:23.1       3   -255    133    256    288 179.3  29.3  34240  290.93 0854.38
2009/04/23 16:01:23.2      45   -276    126    280    307 170.7  26.2  34236  290.87 0854.38
2009/04/23 16:01:23.3       4   -275     64    276    284 179.0  13.2  34250  291.09 0854.38
2009/04/23 16:01:23.4      45   -267    136    271    303 170.3  28.5  34262  291.29 0854.38
2009/04/23 16:01:23.5      46   -305    197    309    366 171.3  35.6  34292  291.81 0854.38
2009/04/23 16:01:23.6     -35   -179    206    183    275 191.1  54.2  34304  292.01 0854.38
2009/04/23 16:01:23.7       9   -180    235    181    296 177.1  58.5  34292  291.80 0854.38
2009/04/23 16:01:23.8      25   -135    158    138    209 169.3  54.3  34268  291.42 0854.38
2009/04/23 16:01:23.9     -19   -172    178    174    248 186.5  50.4  34264  291.33 0854.38
2009/04/23 16:01:24.0     110   -119    139    163    214 137.2  44.8  34212  290.45 0854.38
2009/04/23 16:01:24.1     107   -114    102    157    187 136.8  35.7  34204  290.31 0854.38
2009/04/23 16:01:24.2     212    -94     92    233    250 114.0  22.8  34218  290.54 0854.39
2009/04/23 16:01:24.3     140   -101    124    173    212 126.0  39.1  34206  290.36 0854.39
2009/04/23 16:01:24.4      57   -149    175    160    237 159.1  53.0  34216  290.53 0854.39
2009/04/23 16:01:24.5     154   -152    163    217    271 134.7  40.7  34220  290.58 0854.39
2009/04/23 16:01:24.6     131   -131    135    186    229 135.2  39.7  34216  290.52 0854.39
2009/04/23 16:01:24.7      80   -175    129    193    232 155.3  36.7  34214  290.48 0854.39
2009/04/23 16:01:24.8     101   -159     66    189    201 147.5  19.4  34218  290.57 0854.39
2009/04/23 16:01:24.9     141   -205    207    249    323 145.5  44.0  34218  290.56 0854.39
2009/04/23 16:01:25.0      64   -251    232    260    348 165.7  46.4  34258  291.24 0854.39
2009/04/23 16:01:25.1      34   -249    207    252    326 172.2  43.7  34242  290.95 0854.39
2009/04/23 16:01:25.2      67   -172    162    185    245 158.6  45.8  34258  291.23 0854.39
2009/04/23 16:01:25.3      69   -172    142    186    234 157.9  41.4  34210  290.43 0854.39
2009/04/23 16:01:25.4      64   -162    149    175    229 158.4  44.5  34198  290.21 0854.39
2009/04/23 16:01:25.5     146   -127    177    194    262 130.9  47.5  34190  290.07 0854.39
2009/04/23 16:01:25.6     131   -179    144    223    265 143.7  35.6  34160  289.56 0854.39
2009/04/23 16:01:25.7      95   -161    197    188    272 149.5  51.4  34166  289.66 0854.39
2009/04/23 16:01:25.8     228   -188     31    296    298 129.5   6.1  34172  289.78 0854.39
2009/04/23 16:01:25.9     280   -111     11    302    303 111.7   2.1  34220  290.58 0854.39
2009/04/23 16:01:26.0     191   -129    112    231    256 124.0  27.4  34162  289.61 0854.39
2009/04/23 16:01:26.1      51   -214    166    221    276 166.4  40.7  34164  289.64 0854.39
2009/04/23 16:01:26.2     257   -157    137    302    331 121.5  26.0  34188  290.03 0854.41
2009/04/23 16:01:26.3     145   -145    123    206    239 135.0  33.5  34180  289.91 0854.41
2009/04/23 16:01:26.4      57    -79     93     98    135 144.4  49.0  34184  289.99 0854.41
2009/04/23 16:01:26.5     174   -128     67    217    228 126.4  17.3  34180  289.92 0854.41
2009/04/23 16:01:26.6      37   -144     28    149    152 165.3  11.0  34188  290.04 0854.41
2009/04/23 16:01:26.7     -51   -211      2    218    219 193.6   0.7  34174  289.82 0854.41
2009/04/23 16:01:26.8     -23   -259     -9    261    262 185.1  -2.1  34180  289.92 0854.41
2009/04/23 16:01:26.9       3   -214     26    215    217 179.1   7.1  34184  289.99 0854.41
2009/04/23 16:01:27.0      15   -162     41    163    169 174.7  14.3  34188  290.06 0854.41
2009/04/23 16:01:27.1       6   -127     57    128    140 177.3  25.2  34198  290.21 0854.41
2009/04/23 16:01:27.2      20    -75     33     78     84 164.9  23.6  34196  290.18 0854.41
2009/04/23 16:01:27.3      45    -58     74     74    104 142.2  50.1  34180  289.92 0854.41
2009/04/23 16:01:27.4     121    -53     55    133    143 113.5  23.1  34182  289.96 0854.41
2009/04/23 16:01:27.5     146    -92    -28    173    176 122.4  -9.3  34192  290.13 0854.41
2009/04/23 16:01:27.6     153    -85    -61    176    187 119.1 -19.1  34190  290.09 0854.41
2009/04/23 16:01:27.7     151    -93    -30    178    181 121.5  -9.8  34186  290.01 0854.41
2009/04/23 16:01:27.8     140    -99    -19    172    174 125.5  -6.5  34186  290.02 0854.41
2009/04/23 16:01:27.9     150   -135     18    202    203 132.0   5.2  34174  289.80 0854.41
2009/04/23 16:01:28.0     113   -113     43    161    167 135.0  15.0  34152  289.43 0854.41
2009/04/23 16:01:28.1      55   -100     84    115    142 151.1  39.7  34152  289.45 0854.41
2009/04/23 16:01:28.2      57    -99     92    115    147 150.1  43.7  34158  289.53 0854.44
2009/04/23 16:01:28.3      57   -120    107    134    171 154.5  43.0  34162  289.60 0854.44
2009/04/23 16:01:28.4      28   -142     95    145    173 168.5  36.0  34160  289.57 0854.44
2009/04/23 16:01:28.5      -1   -135    139    136    194 180.8  50.4  34170  289.74 0854.44
2009/04/23 16:01:28.6     -47   -142    112    150    187 198.3  40.4  34172  289.79 0854.44
2009/04/23 16:01:28.7     -28   -139    127    142    190 191.6  46.4  34174  289.82 0854.44
2009/04/23 16:01:28.8     -87   -115     16    145    146 217.0   6.5  34178  289.87 0854.44
2009/04/23 16:01:28.9      16   -115    -31    117    122 171.9 -15.0  34178  289.87 0854.44
2009/04/23 16:01:29.0      46   -139     48    147    155 161.7  18.4  34172  289.77 0854.44
2009/04/23 16:01:29.1      44   -130     32    138    142 161.3  13.2  34166  289.67 0854.44
2009/04/23 16:01:29.2     108   -171     88    203    221 147.7  24.9  34166  289.67 0854.44
2009/04/23 16:01:29.3     120   -309    176    332    375 158.7  30.3  34174  289.82 0854.44
2009/04/23 16:01:29.4     233   -233     41    330    333 135.0   7.1  34168  289.71 0854.44
2009/04/23 16:01:29.6     179   -279    157    332    367 147.3  27.1  34172  289.76 0854.44
2009/04/23 16:01:29.6     243   -241    139    343    370 134.7  23.1  34168  289.72 0854.44
2009/04/23 16:01:29.7     424   -192    207    466    509 114.4  25.6  34188  290.05 0854.44
2009/04/23 16:01:29.8     336   -311    145    459    482 132.8  17.5  34172  289.78 0854.44
2009/04/23 16:01:30.0     219   -287     70    362    369 142.6  11.0  34174  289.82 0854.44
2009/04/23 16:01:30.1     348   -236    -27    421    422 124.2  -3.7  34182  289.95 0854.44
2009/04/23 16:01:30.2     319   -227     46    392    395 125.5   6.7  34148  289.37 0854.44
2009/04/23 16:01:30.3     285   -232     55    368    373 129.1   8.5  34146  289.35 0854.44
2009/04/23 16:01:30.4     312   -140    -19    342    343 114.2  -3.2  34168  289.72 0854.44
2009/04/23 16:01:30.5     177   -161    -21    240    241 132.4  -5.2  34178  289.86 0854.44
2009/04/23 16:01:30.6     186   -153    -43    242    246 129.5 -10.1  34190  290.07 0854.44
2009/04/23 16:01:30.7     170   -207    -10    268    269 140.6  -2.2  34186  290.02 0854.44
2009/04/23 16:01:30.8     180   -264    -38    320    323 145.6  -6.9  34166  289.68 0854.44
2009/04/23 16:01:30.9     247   -276     87    371    382 138.2  13.3  34158  289.55 0854.44
2009/04/23 16:01:31.0     296   -244     19    384    385 129.5   2.9  34176  289.84 0854.44
2009/04/23 16:01:31.1     242   -194    -57    311    317 128.7 -10.4  34198  290.20 0854.44
2009/04/23 16:01:31.2     157   -183     49    242    248 139.5  11.6  34174  289.81 0854.44
2009/04/23 16:01:31.3     199   -109     19    227    228 118.8   4.9  34162  289.62 0854.44
2009/04/23 16:01:31.4     207   -115     74    238    250 119.1  17.4  34172  289.76 0854.44
2009/04/23 16:01:31.5     115    -57    108    129    168 116.6  44.3  34166  289.69 0854.44
2009/04/23 16:01:31.6     118    -13     57    119    131  96.6  27.3  34164  289.63 0854.44
2009/04/23 16:01:31.7     119    -69     87    138    163 120.2  35.5  34170  289.75 0854.44
2009/04/23 16:01:31.8     100    -16    128    102    163  99.2  57.5  34168  289.72 0854.44
2009/04/23 16:01:31.9      45    -54     91     71    115 140.4  57.9  34176  289.84 0854.44
2009/04/23 16:01:32.0      14      8     82     17     83  61.1  89.0  34186  290.02 0854.44
2009/04/23 16:01:32.1     -10   -130    150    131    199 184.4  54.3  34184  289.97 0854.44
2009/04/23 16:01:32.2       9     27    150     29    152  18.3  89.1  34200  290.25 0854.44
2009/04/23 16:01:32.3    -155    -51     70    164    178 251.8  24.3  34204  290.33 0854.45
2009/04/23 16:01:32.4    -146    -58     59    158    168 248.3  21.3  34210  290.43 0854.45
2009/04/23 16:01:32.5    -112    -35      1    118    119 252.3   0.8  34206  290.36 0854.45
2009/04/23 16:01:32.6    -136     49    -18    145    147 290.0  -7.2  34196  290.18 0854.45
2009/04/23 16:01:32.7     -64     26     -3     70     71 291.8  -3.1  34192  290.11 0854.45
2009/04/23 16:01:32.8      13     75    -35     77     84   9.8 -30.6  34184  289.97 0854.45
2009/04/23 16:01:32.9      98    118     -3    154    155  39.6  -1.2  34174  289.80 0854.45
2009/04/23 16:01:33.0      91    158     74    183    197  29.9  23.1  34184  289.97 0854.45
2009/04/23 16:01:33.1     114    158     94    196    217  35.8  27.3  34176  289.84 0854.45
2009/04/23 16:01:33.2     184    146     27    236    238  51.6   6.7  34172  289.76 0854.45
2009/04/23 16:01:33.3     194    147    -13    244    245  52.9  -3.2  34210  290.41 0854.45
2009/04/23 16:01:33.4     175    113     11    209    210  57.1   3.1  34264  291.35 0854.45
2009/04/23 16:01:33.5     151     78    121    171    209  62.5  38.8  34180  289.92 0854.45
2009/04/23 16:01:33.6     232    -24    192    234    302  96.1  43.7  34168  289.71 0854.45
2009/04/23 16:01:33.7     178     32    154    181    237  79.6  44.8  34170  289.75 0854.45
2009/04/23 16:01:33.8      92     41    131    101    165  66.0  58.5  34198  290.21 0854.45
2009/04/23 16:01:33.9      68     36     89     78    118  62.0  54.3  34212  290.45 0854.45
2009/04/23 16:01:34.0       4     54     55     55     77   4.5  50.1  34234  290.82 0854.45
2009/04/23 16:01:34.1      81     63    137    103    171  52.2  59.2  34266  291.37 0854.45
2009/04/23 16:01:34.2      48     51    138     71    155  43.2  70.8  34286  291.71 0854.45
2009/04/23 16:01:34.3     -25    110    148    113    186 347.1  58.7  34314  292.18 0854.46
2009/04/23 16:01:34.4      82    208    127    224    257  21.6  32.1  34352  292.84 0854.46
2009/04/23 16:01:34.5      27    253     44    255    259   6.2  10.0  34340  292.64 0854.46
2009/04/23 16:01:34.6     114    121     88    167    188  43.2  30.1  34352  292.83 0854.46
2009/04/23 16:01:34.7     110    331    147    350    379  18.5  24.1  34296  291.88 0854.46
2009/04/23 16:01:34.8      65    338    177    345    387  11.0  29.3  34336  292.58 0854.46
2009/04/23 16:01:34.9      67    340    122    347    367  11.2  20.0  34306  292.05 0854.46
2009/04/23 16:01:35.0     135    362    148    387    414  20.5  22.0  34278  291.58 0854.46
2009/04/23 16:01:35.1     192    326    174    379    417  30.5  26.4  34292  291.80 0854.46
2009/04/23 16:01:35.2     302    221     87    375    386  53.8  13.1  34416  293.93 0854.46
2009/04/23 16:01:35.3     237    204    128    313    338  49.3  23.4  34376  293.24 0854.46
2009/04/23 16:01:35.4      17    278     61    279    286   3.5  12.4  34354  292.87 0854.46
2009/04/23 16:01:35.5      30    260     56    262    269   6.7  12.2  34336  292.55 0854.46
2009/04/23 16:01:35.6      41    223     11    227    228  10.5   2.9  34322  292.34 0854.46
2009/04/23 16:01:35.7      16    211    -91    212    230   4.5 -29.3  34308  292.08 0854.46
2009/04/23 16:01:35.8     -51    232     53    238    244 347.5  12.6  34320  292.28 0854.46
2009/04/23 16:01:35.9     -63    317     71    324    332 348.7  12.4  34318  292.27 0854.46
2009/04/23 16:01:36.0    -126    228     22    261    263 331.0   4.9  34334  292.52 0854.46
2009/04/23 16:01:36.1     -99    209     80    232    246 334.7  19.2  34330  292.47 0854.46
2009/04/23 16:01:36.2     -94    187     42    210    215 333.3  11.4  34320  292.29 0854.46
2009/04/23 16:01:36.3     -95    181     17    205    206 332.4   4.9  34324  292.37 0854.45
2009/04/23 16:01:36.4      -1    211     10    212    213 359.5   2.9  34320  292.29 0854.45
2009/04/23 16:01:36.5      69    149      8    165    166  24.9   2.9  34318  292.25 0854.45
2009/04/23 16:01:36.6      84     87     53    122    133  44.1  25.1  34334  292.52 0854.45
2009/04/23 16:01:36.7     157    196     44    252    256  38.7  10.0  34300  291.96 0854.45
2009/04/23 16:01:36.8     256    228    -26    343    345  48.3  -4.5  34214  290.49 0854.45
2009/04/23 16:01:36.9     190    244    -20    310    311  37.9  -3.7  34180  289.90 0854.45
2009/04/23 16:01:37.0     230    264     76    351    360  41.0  12.3  34218  290.54 0854.45
2009/04/23 16:01:37.1     323    270     66    422    428  50.1   8.9  34192  290.12 0854.45
2009/04/23 16:01:37.2     259    259     28    367    368  45.1   4.4  34170  289.74 0854.45
2009/04/23 16:01:37.3     280    297     63    409    414  43.3   8.8  34180  289.90 0854.45
2009/04/23 16:01:37.4     294    269     93    399    410  47.6  13.2  34182  289.94 0854.45
2009/04/23 16:01:37.5     304    280     20    414    415  47.4   2.8  34172  289.78 0854.45
2009/04/23 16:01:37.6     265    354     25    443    444  36.9   3.3  34142  289.27 0854.45
2009/04/23 16:01:37.7     228    355    -16    422    423  32.7  -2.2  34174  289.82 0854.45
2009/04/23 16:01:37.8     249    303     31    393    395  39.4   4.6  34144  289.30 0854.45
2009/04/23 16:01:37.9     296    204    126    360    382  55.4  19.3  34162  289.62 0854.45
2009/04/23 16:01:38.0     352    204    123    408    427  59.9  16.8  34138  289.19 0854.45
2009/04/23 16:01:38.1     419    297    180    514    545  54.6  19.3  34138  289.21 0854.45
2009/04/23 16:01:38.2     349    312     19    469    470  48.2   2.3  34160  289.57 0854.45
2009/04/23 16:01:38.3     346    346    -19    490    491  45.0  -2.2  34104  288.61 0854.45
2009/04/23 16:01:38.4     364    349     28    505    506  46.2   3.3  34086  288.32 0854.45
2009/04/23 16:01:38.5     414    281    103    501    512  55.8  11.7  34082  288.25 0854.45
2009/04/23 16:01:38.6     445    259    127    515    531  59.8  13.9  34108  288.69 0854.45
2009/04/23 16:01:38.7     489    287    167    568    592  59.6  16.4  34122  288.93 0854.45
2009/04/23 16:01:38.8     369    116    137    387    410  72.5  20.2  34152  289.44 0854.45
2009/04/23 16:01:38.9     392     88   -140    402    425  77.3 -24.3  34188  290.04 0854.45
2009/04/23 16:01:39.0     375     -6   -166    376    411  91.0 -29.7  34210  290.42 0854.45
2009/04/23 16:01:39.1     314    -94   -189    328    378 106.7 -37.0  34202  290.30 0854.45
2009/04/23 16:01:39.2     302   -127   -139    328    356 112.8 -28.7  34244  291.01 0854.45
2009/04/23 16:01:39.3     313    -87   -140    325    353 105.6 -29.3  34230  290.76 0854.44
2009/04/23 16:01:39.4     266    -75   -111    277    298 105.9 -27.4  34258  291.22 0854.44
2009/04/23 16:01:39.5     291    -63   -123    298    322 102.4 -28.0  34248  291.05 0854.44
2009/04/23 16:01:39.6     150     62    -53    163    172  67.6 -18.1  34210  290.41 0854.44
2009/04/23 16:01:39.7     214    120    -37    246    249  60.7  -8.6  34214  290.49 0854.44
2009/04/23 16:01:39.8     316    236     46    395    398  53.2   6.7  34184  289.98 0854.44
2009/04/23 16:01:39.9     356    259     80    441    449  53.9  10.3  34156  289.51 0854.44
2009/04/23 16:01:40.0     394    245    152    465    490  58.1  18.2  34148  289.37 0854.44
2009/04/23 16:01:40.1     405    103     98    418    430  75.7  13.3  34168  289.72 0854.44
2009/04/23 16:01:40.2     445    300    115    537    550  56.0  12.1  34180  289.92 0854.44
2009/04/23 16:01:40.3     393    186    -55    435    439  64.6  -7.2  34202  290.29 0854.44
2009/04/23 16:01:40.4     353    315   -143    474    496  48.2 -16.8  34192  290.10 0854.44
2009/04/23 16:01:40.5     294    298   -115    419    434  44.6 -20.0  34204  290.33 0854.44
2009/04/23 16:01:40.6     271    212   -110    345    363  52.0 -17.7  34192  290.11 0854.44
2009/04/23 16:01:40.7     248    213    -30    328    330  49.3  -5.4  34172  289.77 0854.44
2009/04/23 16:01:40.8      57    408     -8    413    414   8.0  -1.1  34164  289.65 0854.44
2009/04/23 16:01:40.9      -9    319    119    320    341 358.2  21.3  34174  289.82 0854.44
2009/04/23 16:01:41.0     -28    437    -46    438    441 356.3  -6.1  34156  289.51 0854.44
2009/04/23 16:01:41.1     -69    474    -38    480    482 351.7  -4.6  34172  289.76 0854.44
2009/04/23 16:01:41.2     -46    610   -101    612    621 355.7  -9.4  34172  289.79 0854.44
2009/04/23 16:01:41.3      60    359    -24    365    366   9.6  -3.8  34206  290.35 0854.44
2009/04/23 16:01:41.4     -95    344    -13    357    358 344.5  -2.2  34210  290.43 0854.44
2009/04/23 16:01:41.5    -100    390    -22    403    404 345.5  -3.2  34198  290.21 0854.44
2009/04/23 16:01:41.6     -80    484    105    491    503 350.6  12.2  34212  290.44 0854.44
2009/04/23 16:01:41.7     -70    514    151    519    541 352.2  16.3  34260  291.26 0854.44
2009/04/23 16:01:41.8    -137    558    203    575    609 346.2  20.3  34276  291.53 0854.44
2009/04/23 16:01:41.9    -218    479    103    527    538 335.5  11.1  34184  289.97 0854.44
2009/04/23 16:01:42.0    -107    427    141    441    464 345.8  17.8  34208  290.38 0854.44
2009/04/23 16:01:42.1       0    459    110    460    474   0.0  13.5  34184  289.98 0854.44
2009/04/23 16:01:42.2      49    564     59    567    571   5.0   6.0  34150  289.41 0854.44
2009/04/23 16:01:42.3      55    507     50    511    514   6.3   5.7  34192  290.10 0854.44
2009/04/23 16:01:42.4     133    462     56    481    485  16.1   6.7  34242  290.98 0854.44
2009/04/23 16:01:42.5     230    444    -44    501    504  27.4  -5.1  34298  291.90 0854.44
2009/04/23 16:01:42.6     320    282     73    427    434  48.6   9.7  34254  291.18 0854.44
2009/04/23 16:01:42.7     131    174     89    219    236  37.0  23.4  34234  290.82 0854.44
2009/04/23 16:01:42.8      -7    284    189    285    341 358.4  36.6  34268  291.41 0854.44
2009/04/23 16:01:42.9     145    206    200    253    322  35.2  42.4  34244  291.00 0854.44
2009/04/23 16:01:43.0      41     78    149     89    173  28.1  66.2  34262  291.32 0854.44
2009/04/23 16:01:43.1      -2    157    142    158    212 359.0  46.6  34262  291.32 0854.44
2009/04/23 16:01:43.2     397    301    288    499    576  52.8  32.6  34250  291.09 0854.44
2009/04/23 16:01:43.3     410    242    255    477    540  59.5  30.5  34148  289.38 0854.42
2009/04/23 16:01:43.4     506    205    187    547    579  67.9  18.9  34118  288.85 0854.42
2009/04/23 16:01:43.5     455    140    129    477    495  72.8  15.2  34128  289.03 0854.42
2009/04/23 16:01:43.6     391    191     22    436    437  64.0   2.9  34118  288.85 0854.42
2009/04/23 16:01:43.7     365    209     34    421    423  60.2   4.7  34132  289.09 0854.42
2009/04/23 16:01:43.8     338    225    194    407    450  56.3  27.3  34190  290.09 0854.42
2009/04/23 16:01:43.9     392    120    144    411    436  73.0  19.3  34158  289.53 0854.42
2009/04/23 16:01:44.0     394    123     89    413    423  72.6  12.2  34130  289.05 0854.42
2009/04/23 16:01:44.1     380    149     23    409    410  68.5   3.2  34128  289.04 0854.42
2009/04/23 16:01:44.2     369    176     13    409    410  64.5   1.9  34126  289.00 0854.42
2009/04/23 16:01:44.3     322    203     50    381    385  57.7   7.5  34132  289.11 0854.42
2009/04/23 16:01:44.4     371    223    274    433    512  59.0  35.5  34258  291.24 0854.42
2009/04/23 16:01:44.5     272    152    165    312    352  60.7  30.1  34162  289.59 0854.42
2009/04/23 16:01:44.6     430    136    248    452    515  72.4  31.3  34132  289.10 0854.42
2009/04/23 16:01:44.7     298    131    314    326    452  66.3  49.0  34152  289.43 0854.42
2009/04/23 16:01:44.8     277    153    289    317    428  61.1  47.0  34142  289.28 0854.42
2009/04/23 16:01:44.9     486    160     20    512    513  71.7   2.3  34148  289.37 0854.42
2009/04/23 16:01:45.0     538    147    253    558    612  74.7  26.2  34210  290.41 0854.42
2009/04/23 16:01:45.1     375    -29    135    377    400  94.5  20.4  34170  289.74 0854.42
2009/04/23 16:01:45.2     255    209    -52    330    335  50.7  -9.0  34166  289.67 0854.42
2009/04/23 16:01:45.3     275    101     46    294    298  69.8   8.9  34136  289.17 0854.39
2009/04/23 16:01:45.4     233    232     -7    330    331  45.1  -1.3  34158  289.55 0854.39
2009/04/23 16:01:45.5     206    139     63    249    257  56.0  14.3  34144  289.31 0854.39
2009/04/23 16:01:45.6     195     65    115    206    235  71.6  31.4  34154  289.48 0854.39
2009/04/23 16:01:45.7     106   -200   -141    227    267 152.1 -39.6  34152  289.42 0854.39
2009/04/23 16:01:45.8     244   -237   -113    341    359 134.2 -23.7  34156  289.52 0854.39
2009/04/23 16:01:45.9      63   -182    -37    193    197 160.8 -10.9  34156  289.52 0854.39
2009/04/23 16:01:46.0     206   -153    -81    257    270 126.6 -17.6  34160  289.56 0854.39
2009/04/23 16:01:46.1     256   -260    -46    365    368 135.5  -7.2  34166  289.67 0854.39
2009/04/23 16:01:46.2     171   -160    -94    235    253 133.2 -27.4  34172  289.76 0854.39
2009/04/23 16:01:46.3      77    -99    -96    126    158 142.1 -45.6  34168  289.72 0854.39
2009/04/23 16:01:46.4     108   -101    -82    149    170 133.1 -35.4  34160  289.58 0854.39
2009/04/23 16:01:46.5      18    -53    -74     57     93 161.3 -62.3  34166  289.67 0854.39
2009/04/23 16:01:46.6     -18    -45   -140     49    148 201.8 -85.1  34174  289.82 0854.39
2009/04/23 16:01:46.7     -48     33   -149     59    160 305.1 -81.8  34154  289.48 0854.39
2009/04/23 16:01:46.8      47     57   -131     75    150  39.6 -72.1  34148  289.36 0854.39
2009/04/23 16:01:46.9     159    114    -88    197    215  54.3 -30.1  34142  289.26 0854.39
2009/04/23 16:01:47.0      41     93     57    102    116  24.1  31.4  34152  289.45 0854.39
2009/04/23 16:01:47.1     -42     73     67     85    108 329.7  43.3  34166  289.67 0854.39
2009/04/23 16:01:47.2      49     60     89     78    118  39.7  54.3  34166  289.69 0854.39
2009/04/23 16:01:47.3      -7     -7     58     11     59 225.0  89.1  34172  289.77 0854.31
2009/04/23 16:01:47.4     -78     43    130     90    158 298.9  62.1  34188  290.06 0854.31
2009/04/23 16:01:47.5      16     59    148     62    160  15.2  76.1  34184  289.97 0854.31
2009/04/23 16:01:47.6     121    101    115    158    195  50.0  39.7  34174  289.80 0854.31
2009/04/23 16:01:47.7      31     55    119     64    135  29.0  69.3  34184  289.99 0854.31
2009/04/23 16:01:47.8     144    173    140    226    265  39.7  35.0  34156  289.49 0854.31
2009/04/23 16:01:47.9      42    311    109    314    333   7.8  19.2  34222  290.61 0854.31
2009/04/23 16:01:48.0      -6    477     55    478    482 359.2   6.6  34266  291.36 0854.31
2009/04/23 16:01:48.1     181    393     84    433    442  24.8  11.0  34280  291.62 0854.31
2009/04/23 16:01:48.2     -46    428    134    431    452 353.8  17.3  34276  291.53 0854.31
2009/04/23 16:01:48.3    -109    328     94    346    359 341.5  15.3  34242  290.96 0854.31
2009/04/23 16:01:48.4      58    467    104    471    483   7.1  12.5  34238  290.88 0854.31
2009/04/23 16:01:48.5    -143    374    137    401    424 339.1  18.9  34244  291.01 0854.31
2009/04/23 16:01:48.6    -136    331    162    358    392 337.6  26.2  34230  290.77 0854.31
2009/04/23 16:01:48.7    -163    295    122    338    360 331.0  19.9  34182  289.93 0854.31
2009/04/23 16:01:48.8    -201    363    168    416    448 331.0  23.1  34164  289.63 0854.31
2009/04/23 16:01:48.9    -155    314    105    351    367 333.7  16.7  34174  289.81 0854.31
2009/04/23 16:01:49.0    -100    246    233    266    353 337.7  45.8  34192  290.12 0854.31
2009/04/23 16:01:49.1       4    130    192    131    232   1.8  62.7  34192  290.11 0854.31
2009/04/23 16:01:49.2      71    158    164    174    239  24.1  48.5  34234  290.82 0854.31
2009/04/23 16:01:49.3     107    115    171    158    232  42.8  52.2  34260  291.26 0854.31
2009/04/23 16:01:49.4     175    104    240    204    314  59.3  55.4  34334  292.53 0854.31
2009/04/23 16:01:49.5     125    147    191    194    272  40.3  49.9  34310  292.11 0854.31
2009/04/23 16:01:49.6     145    122    194    190    271  49.8  50.4  34336  292.55 0854.31
2009/04/23 16:01:49.7     252     86    117    267    291  71.2  25.2  34332  292.48 0854.31
2009/04/23 16:01:49.8      76    170     94    187    209  24.1  28.7  34332  292.49 0854.31
2009/04/23 16:01:49.9     200    412    119    459    475  25.9  14.6  34208  290.37 0854.31
2009/04/23 16:01:50.0     254    335     35    421    423  37.2   4.9  34236  290.85 0854.31
2009/04/23 16:01:50.1     369    175    -71    409    416  64.6  -9.9  34256  291.19 0854.31
2009/04/23 16:01:50.2     411    222    130    468    486  61.6  15.6  34282  291.66 0854.31
2009/04/23 16:01:50.3     346    418    -53    543    546  39.6  -5.6  34246  291.03 0854.31
2009/04/23 16:01:50.4     396    308     37    502    504  52.1   4.2  34266  291.36 0854.31
2009/04/23 16:01:50.5     681    240    139    723    737  70.6  10.9  34264  291.35 0854.31
2009/04/23 16:01:50.6     557    158     60    580    584  74.1   5.9  34260  291.26 0854.31
2009/04/23 16:01:50.7     458    384    121    598    611  50.0  11.5  34250  291.10 0854.31
2009/04/23 16:01:50.8     593    352    -31    690    691  59.3  -2.6  34222  290.63 0854.31
2009/04/23 16:01:50.9     576    308     19    654    655  61.9   1.7  34252  291.13 0854.31
2009/04/23 16:01:51.0     674    275    -98    728    735  67.8  -7.7  34182  289.94 0854.31
2009/04/23 16:01:51.1     714    297     37    774    776  67.4   2.8  34180  289.91 0854.31
2009/04/23 16:01:51.2     742     66    122    746    757  84.9   9.3  34194  290.16 0854.30
2009/04/23 16:01:51.3     818     44     94    820    826  86.9   6.6  34190  290.09 0854.30
2009/04/23 16:01:51.4     415    105    155    429    456  75.7  20.8  34174  289.80 0854.30
2009/04/23 16:01:51.5     331     91   -217    344    406  74.6 -39.7  34184  289.99 0854.30
2009/04/23 16:01:51.6     312   -164   -175    353    393 117.8 -32.6  34182  289.94 0854.30
2009/04/23 16:01:51.7     253   -139   -294    289    412 118.9 -55.1  34208  290.40 0854.30
2009/04/23 16:01:51.8      25   -370   -105    371    385 176.1 -20.4  34168  289.71 0854.30
2009/04/23 16:01:51.9     -67   -381     -8    387    388 190.0  -1.3  34178  289.87 0854.30
2009/04/23 16:01:52.0    -148    292    345    328    476 333.0  51.6  34192  290.11 0854.30
2009/04/23 16:01:52.1    -187    153    310    242    393 309.3  58.2  34192  290.11 0854.30
2009/04/23 16:01:52.2    -158     72    299    174    345 294.6  67.2  34208  290.37 0854.30
2009/04/23 16:01:52.3      11   -241    132    242    275 177.3  31.3  34196  290.17 0854.30
2009/04/23 16:01:52.4     -50   -238    -35    244    247 192.0  -8.2  34192  290.12 0854.30
2009/04/23 16:01:52.5       9   -118     14    119    120 175.5   6.9  34186  290.02 0854.30
2009/04/23 16:01:52.6    -207     52     24    214    216 284.2   6.5  34152  289.45 0854.30
2009/04/23 16:01:52.7    -249    -68   -106    259    279 254.7 -27.8  34156  289.51 0854.30
2009/04/23 16:01:52.8    -313    -79   -204    323    382 255.8 -39.9  34146  289.35 0854.30
2009/04/23 16:01:52.9    -183   -130   -226    225    318 234.7 -54.4  34154  289.46 0854.30
2009/04/23 16:01:53.0     -42   -202   -273    207    342 191.8 -63.5  34154  289.46 0854.30
2009/04/23 16:01:53.2    -266   -419   -341    497    602 212.5 -42.0  34166  289.69 0854.30
2009/04/23 16:01:53.2    -398   -444   -417    597    728 221.9 -42.8  34172  289.77 0854.33
2009/04/23 16:01:53.3    -235   -738   -245    775    812 197.7 -22.6  34178  289.88 0854.33
2009/04/23 16:01:53.4     -76   -765   -197    769    794 185.7 -14.4  34166  289.68 0854.33
2009/04/23 16:01:53.5     -65   -565   -366    569    676 186.6 -40.1  34210  290.42 0854.33
2009/04/23 16:01:53.6      28   -703   -175    704    726 177.7 -14.0  34190  290.08 0854.33
2009/04/23 16:01:53.7      50   -650   -206    653    684 175.5 -22.5  34200  290.26 0854.33
2009/04/23 16:01:53.8     153   -773    -91    789    795 168.8  -6.6  34212  290.44 0854.33
2009/04/23 16:01:53.9      85   -776    -41    781    783 173.7  -3.0  34190  290.08 0854.33
2009/04/23 16:01:54.0      76   -769    282    773    822 174.3  21.0  34194  290.14 0854.33
2009/04/23 16:01:54.1      -3   -796    227    797    829 180.3  15.9  34202  290.28 0854.33
2009/04/23 16:01:54.2     128   -554    340    569    662 167.0  33.6  34184  289.99 0854.33
2009/04/23 16:01:54.4     170   -494    376    523    644 161.0  39.3  34182  289.95 0854.33
2009/04/23 16:01:54.4      -2   -326    372    327    495 180.5  54.3  34192  290.11 0854.33
2009/04/23 16:01:54.5     -73     -8    280     74    289 263.0  84.9  34212  290.46 0854.33
2009/04/23 16:01:54.6      24   -119    313    122    335 168.4  77.6  34202  290.27 0854.33
2009/04/23 16:01:54.7     -66      0    282     67    289 269.2  86.9  34228  290.71 0854.33
2009/04/23 16:01:54.8      29     55    140     63    153  28.1  74.5  34210  290.43 0854.33
2009/04/23 16:01:54.9     -77    216    157    230    278 340.2  37.6  34212  290.44 0854.33
2009/04/23 16:01:55.0     -60    180    179    190    261 341.5  48.0  34212  290.44 0854.33
2009/04/23 16:01:55.1     -91    -58    155    108    188 237.5  61.8  34212  290.45 0854.33
2009/04/23 16:01:55.2    -434   -230    201    492    531 242.1  23.5  34226  290.69 0854.38
2009/04/23 16:01:55.3    -322   -204     59    382    387 237.6   8.9  34232  290.79 0854.38
2009/04/23 16:01:55.4    -198   -232    185    306    357 220.5  34.0  34234  290.84 0854.38
2009/04/23 16:01:55.6    -226   -230     75    323    332 224.5  13.2  34246  291.03 0854.38
2009/04/23 16:01:55.6    -236    -86   -189    252    315 249.8 -45.1  34178  289.88 0854.38
2009/04/23 16:01:55.7    -210    -16    163    211    266 265.6  41.7  34204  290.32 0854.38
2009/04/23 16:01:55.8    -278      3     32    279    281 270.8   6.7  34200  290.26 0854.38
2009/04/23 16:01:55.9    -304      5    185    305    356 271.0  34.1  34230  290.76 0854.38
2009/04/23 16:01:56.0    -173     75    202    189    276 293.5  52.2  34230  290.75 0854.38
2009/04/23 16:01:56.1     -68    166    219    180    283 337.5  56.4  34224  290.65 0854.38
2009/04/23 16:01:56.2    -111    233    141    259    294 334.4  31.3  34220  290.58 0854.38
2009/04/23 16:01:56.4     -62    224     67    233    243 344.4  16.0  34234  290.82 0854.38
2009/04/23 16:01:56.5     -52    243      3    249    250 347.7   0.7  34264  291.34 0854.38
2009/04/23 16:01:56.6    -119    331     79    352    361 340.2  12.8  34250  291.10 0854.38
2009/04/23 16:01:56.7    -185    282     78    338    348 326.6  13.1  34230  290.76 0854.38
2009/04/23 16:01:56.8    -145    274    131    310    336 332.1  24.2  34236  290.86 0854.38
2009/04/23 16:01:56.9    -217    283     66    357    364 322.5  10.6  34226  290.69 0854.38
2009/04/23 16:01:57.0    -208    305     18    370    371 325.6   2.8  34222  290.62 0854.38
2009/04/23 16:01:57.1    -164    415    -24    447    448 338.4  -3.1  34250  291.11 0854.38
2009/04/23 16:01:57.2    -201    366      8    418    419 331.1   1.2  34264  291.33 0854.38
2009/04/23 16:01:57.3    -146    359     24    388    389 337.8   3.6  34264  291.35 0854.40
2009/04/23 16:01:57.4     -10    297    206    298    362 358.0  38.0  34238  290.91 0854.40
2009/04/23 16:01:57.5     -46    272    144    276    311 350.4  29.8  34228  290.71 0854.40
2009/04/23 16:01:57.6      32    372     95    374    386   5.0  14.3  34230  290.77 0854.40
2009/04/23 16:01:57.7     125    370     16    391    392  18.7   2.4  34268  291.40 0854.40
2009/04/23 16:01:57.8     231    408    -85    469    477  29.5 -10.4  34280  291.61 0854.40
2009/04/23 16:01:57.9     296    249     54    387    391  49.9   8.0  34244  291.00 0854.40
2009/04/23 16:01:58.0     295    422     -6    516    517  35.0  -0.7  34272  291.49 0854.40
2009/04/23 16:01:58.1     238    504    153    558    579  25.3  15.4  34194  290.14 0854.40
2009/04/23 16:01:58.2     176    462    179    495    527  20.9  19.9  34210  290.42 0854.40
2009/04/23 16:01:58.3     158    365    177    398    435  23.5  25.3  34192  290.11 0854.39
2009/04/23 16:01:58.4     327    380    108    502    514  40.8  12.2  34336  292.58 0854.39
2009/04/23 16:01:58.5     541    298    141    618    635  61.1  12.9  34272  291.47 0854.39
2009/04/23 16:01:58.6     408    446    106    605    615  42.4  10.0  34260  291.27 0854.39
2009/04/23 16:01:58.7     286    572    157    640    660  26.6  13.8  34246  291.03 0854.39
2009/04/23 16:01:58.8     385    649    131    755    767  30.7   9.9  34242  290.97 0854.39
2009/04/23 16:01:58.9     319    571    109    655    665  29.2   9.5  34234  290.83 0854.39
2009/04/23 16:01:59.0     367    575    211    683    716  32.6  17.2  34244  291.01 0854.39
2009/04/23 16:01:59.1     111    370   -109    387    402  16.8 -20.4  34174  289.82 0854.39
2009/04/23 16:01:59.2      39    510     16    512    513   4.5   1.9  34168  289.71 0854.39
2009/04/23 16:01:59.3     115    482    115    496    510  13.4  13.1  34198  290.23 0854.39
2009/04/23 16:01:59.4      80    546     26    552    553   8.4   2.8  34190  290.09 0854.39
2009/04/23 16:01:59.5      30    393    113    395    411   4.5  16.0  34180  289.90 0854.39
2009/04/23 16:01:59.6      34    358    151    360    390   5.6  24.1  34178  289.87 0854.39
2009/04/23 16:01:59.7      63    374    159    380    411   9.6  24.1  34176  289.84 0854.39
2009/04/23 16:01:59.8     -67    389    103    395    409 350.2  14.7  34174  289.82 0854.39
2009/04/23 16:01:59.9     -84    275     86    288    301 343.0  16.8  34170  289.73 0854.39
2009/04/23 16:02:00.0      27    135     77    138    158  11.6  31.6  34172  289.77 0854.39
2009/04/23 16:02:00.1     -68     57    -57     90    106 310.0 -39.9  34146  289.35 0854.39
2009/04/23 16:02:00.2     -86      0    -52     87    101 270.0 -37.9  34158  289.53 0854.39
2009/04/23 16:02:00.3     -62      1    -60     63     87 271.7 -53.4  34154  289.48 0854.38
2009/04/23 16:02:00.4     -17      5    -46     18     49 288.4 -82.6  34170  289.75 0854.38
2009/04/23 16:02:00.5      12      4    -27     13     29  71.4 -77.2  34168  289.70 0854.38
2009/04/23 16:02:00.6      58     -7     -3     59     60  97.0  -3.2  34166  289.67 0854.38
2009/04/23 16:02:00.7     239     52      3    245    246  77.6   0.8  34172  289.76 0854.38
2009/04/23 16:02:00.8      99     20    -92    101    136  78.5 -51.9  34176  289.85 0854.38
2009/04/23 16:02:00.9     109     27   -120    113    164  75.8 -56.0  34198  290.21 0854.38
2009/04/23 16:02:01.0     134     66    -68    150    164  63.8 -30.6  34246  291.04 0854.38
2009/04/23 16:02:01.1      60    120    -64    135    149  26.7 -31.6  34214  290.48 0854.38
2009/04/23 16:02:01.2       5     35     19     36     40   8.0  30.3  34230  290.77 0854.38
2009/04/23 16:02:01.3     -17    -17    -24     25     34 225.0 -56.4  34184  289.99 0854.38
2009/04/23 16:02:01.4     -63     35    -51     73     89 298.8 -43.0  34204  290.33 0854.38
2009/04/23 16:02:01.5    -104     28   -124    108    164 285.1 -59.0  34198  290.23 0854.38
2009/04/23 16:02:01.6    -102    -34   -110    108    154 251.4 -54.5  34178  289.87 0854.38
2009/04/23 16:02:01.7    -167   -100   -139    195    239 239.1 -43.5  34130  289.08 0854.38
2009/04/23 16:02:01.8    -181   -113   -156    214    264 238.0 -44.1  34150  289.41 0854.38
2009/04/23 16:02:01.9    -237   -150   -179    281    333 237.6 -40.0  34118  288.85 0854.38
2009/04/23 16:02:02.0    -202    -55   -211    210    297 254.7 -54.5  34108  288.70 0854.38
2009/04/23 16:02:02.1    -110   -123   -201    166    260 221.7 -60.8  34096  288.49 0854.38
2009/04/23 16:02:02.2      14    -82   -205     84    221 169.8 -81.4  34106  288.65 0854.38
2009/04/23 16:02:02.3     -16    -40   -207     44    211 201.8 -90.0  34154  289.48 0854.39
2009/04/23 16:02:02.4      -3   -177   -174    178    248 181.1 -54.2  34188  290.06 0854.39
2009/04/23 16:02:02.5     -88   -192   -157    212    263 204.7 -44.3  34176  289.85 0854.39
2009/04/23 16:02:02.6    -243   -343   -108    421    435 215.4 -14.5  34172  289.77 0854.39
2009/04/23 16:02:02.7    -276   -308    -23    414    415 221.9  -3.2  34174  289.80 0854.39
2009/04/23 16:02:02.8    -231   -211      5    313    314 227.6   1.0  34176  289.85 0854.39
2009/04/23 16:02:02.9    -295   -123     10    320    321 247.3   1.8  34172  289.76 0854.39
2009/04/23 16:02:03.0    -278   -147    107    315    333 242.0  18.8  34166  289.68 0854.39
2009/04/23 16:02:03.1    -194   -134     78    236    249 235.4  18.5  34170  289.73 0854.39
2009/04/23 16:02:03.2    -262   -167     67    311    319 237.5  12.3  34164  289.63 0854.39
2009/04/23 16:02:03.3    -124    -49    169    134    215 248.2  57.7  34180  289.91 0854.39
2009/04/23 16:02:03.4    -124    -81    139    149    203 236.7  48.0  34170  289.74 0854.39
2009/04/23 16:02:03.5    -286    -98     39    303    306 250.9   7.5  34150  289.41 0854.39
2009/04/23 16:02:03.6    -256   -189     28    319    321 233.6   5.1  34150  289.39 0854.39
2009/04/23 16:02:03.7    -175   -211    116    275    298 219.6  24.1  34148  289.36 0854.39
2009/04/23 16:02:03.8    -221   -319    227    389    450 214.7  32.9  34170  289.75 0854.39
2009/04/23 16:02:03.9    -335   -212     20    397    398 237.6   2.9  34156  289.52 0854.39
2009/04/23 16:02:04.0    -287    -58    -28    293    295 258.5  -5.6  34162  289.61 0854.39
2009/04/23 16:02:04.1    -289   -165    -58    334    340 240.2  -9.9  34172  289.79 0854.39
2009/04/23 16:02:04.2    -352    -65      9    358    359 259.5   1.5  34152  289.43 0854.39
2009/04/23 16:02:04.3    -282   -133    -48    312    316 244.7  -8.9  34156  289.49 0854.41
2009/04/23 16:02:04.4    -249   -147     45    290    294 239.4   9.0  34180  289.92 0854.41
2009/04/23 16:02:04.5    -294   -106    -39    313    316 250.1  -7.2  34176  289.85 0854.41
2009/04/23 16:02:04.6    -278    -62    -90    285    300 257.4 -17.6  34150  289.39 0854.41
2009/04/23 16:02:04.7    -405    -75    -88    412    422 259.5 -12.2  34142  289.27 0854.41
2009/04/23 16:02:04.8    -393   -193     -8    439    440 243.8  -1.2  34154  289.48 0854.41
2009/04/23 16:02:04.9    -306   -302   -131    431    450 225.4 -21.8  34138  289.19 0854.41
2009/04/23 16:02:05.0    -357    -86   -152    368    398 256.4 -28.1  34138  289.21 0854.41
2009/04/23 16:02:05.1    -292    -82   -269    304    405 254.3 -50.5  34152  289.42 0854.41
2009/04/23 16:02:05.2    -216   -128    -19    252    253 239.4  -4.4  34140  289.24 0854.41
2009/04/23 16:02:05.3    -278   -132    -23    308    309 244.6  -4.4  34152  289.44 0854.41
2009/04/23 16:02:05.4    -352   -264     -8    441    442 233.2  -1.2  34140  289.24 0854.41
2009/04/23 16:02:05.5    -343   -234    -64    416    421 235.6  -8.8  34146  289.34 0854.41
2009/04/23 16:02:05.6    -260   -202   -165    330    368 232.2 -32.9  34146  289.35 0854.41
2009/04/23 16:02:05.7    -414   -351   -177    543    572 229.7 -18.0  34146  289.33 0854.41
2009/04/23 16:02:05.8    -347   -446   -176    566    593 217.9 -17.3  34142  289.25 0854.41
2009/04/23 16:02:05.9    -346   -249   -247    427    493 234.3 -37.1  34146  289.32 0854.41
2009/04/23 16:02:06.0    -356   -312   -216    474    520 228.7 -30.7  34136  289.18 0854.41
2009/04/23 16:02:06.1    -414   -313   -247    520    575 232.9 -31.7  34136  289.16 0854.41
2009/04/23 16:02:06.2    -417   -282   -206    504    544 235.9 -27.9  34142  289.28 0854.41
2009/04/23 16:02:06.3    -412   -164   -206    444    489 248.2 -31.0  34138  289.20 0854.41
2009/04/23 16:02:06.4    -191   -203   -146    279    314 223.2 -34.2  34146  289.34 0854.41
2009/04/23 16:02:06.5    -112   -145    -79    184    200 217.6 -29.3  34148  289.36 0854.41
2009/04/23 16:02:06.6     -83   -145   -107    168    199 209.9 -39.9  34148  289.36 0854.41
2009/04/23 16:02:06.7     101   -307   -158    324    360 161.7 -32.3  34144  289.30 0854.41
2009/04/23 16:02:06.8     -26   -351   -101    352    366 184.4 -20.7  34152  289.43 0854.41
2009/04/23 16:02:06.9     -69   -221   -154    232    278 197.4 -41.1  34148  289.37 0854.41
2009/04/23 16:02:07.0     -89   -236   -161    253    299 200.7 -39.9  34144  289.31 0854.41
2009/04/23 16:02:07.1    -261   -352   -231    439    496 216.6 -34.5  34146  289.35 0854.41
2009/04/23 16:02:07.2    -318   -208   -168    381    416 236.8 -29.6  34134  289.14 0854.41
2009/04/23 16:02:07.3    -210   -249    -37    326    329 220.2  -6.5  34146  289.32 0854.41
2009/04/23 16:02:07.4    -270   -418    -10    498    499 212.9  -1.3  34144  289.30 0854.41
2009/04/23 16:02:07.5    -329   -471    -88    575    582 215.0  -8.7  34146  289.32 0854.41
2009/04/23 16:02:07.6    -356   -330    -55    486    490 227.2  -6.5  34140  289.22 0854.41
2009/04/23 16:02:07.7    -300   -340     18    454    455 221.5   2.4  34142  289.27 0854.41
2009/04/23 16:02:07.8    -201   -456     47    499    502 203.8   5.5  34140  289.23 0854.41
2009/04/23 16:02:07.9    -310   -428    188    529    562 216.0  19.6  34132  289.11 0854.41
2009/04/23 16:02:08.0    -198   -388    284    436    520 207.1  36.0  34138  289.20 0854.41
2009/04/23 16:02:08.1    -432   -336    135    548    565 232.2  13.9  34136  289.18 0854.41
2009/04/23 16:02:08.2    -430   -286      6    517    518 236.4   0.7  34130  289.08 0854.41
2009/04/23 16:02:08.3    -377   -293    171    478    507 232.2  20.4  34132  289.10 0854.39
2009/04/23 16:02:08.4    -361   -303    169    472    501 230.0  20.4  34146  289.34 0854.39
2009/04/23 16:02:08.5    -359   -358    180    508    538 225.1  20.4  34142  289.26 0854.39
2009/04/23 16:02:08.6    -470   -440    -35    645    647 226.9  -3.1  34138  289.20 0854.39
2009/04/23 16:02:08.7    -308   -249    -88    397    407 231.0 -12.6  34126  289.00 0854.39
2009/04/23 16:02:08.8    -312   -159   -178    351    393 243.0 -33.5  34128  289.04 0854.39
2009/04/23 16:02:08.9    -466     39   -227    468    520 274.9 -32.2  34126  289.00 0854.39
2009/04/23 16:02:09.0    -402   -136   -195    425    467 251.3 -30.8  34138  289.21 0854.39
2009/04/23 16:02:09.1    -473     88   -157    482    507 280.6 -18.1  34136  289.17 0854.39
2009/04/23 16:02:09.2    -542    -75    -70    548    553 262.1  -7.4  34148  289.38 0854.39
2009/04/23 16:02:09.3    -475    -62     10    479    480 262.5   1.2  34146  289.34 0854.39
2009/04/23 16:02:09.4    -364    -37     67    366    373 264.1  10.4  34136  289.15 0854.39
2009/04/23 16:02:09.5    -395    -54    -18    399    400 262.2  -2.7  34162  289.59 0854.39
2009/04/23 16:02:09.6    -424    -82    -83    432    440 259.0 -10.9  34170  289.73 0854.39
2009/04/23 16:02:09.7    -418     -3   -150    419    446 269.5 -19.7  34154  289.46 0854.39
2009/04/23 16:02:09.8    -392    -71   -102    399    412 259.7 -14.4  34162  289.60 0854.39
2009/04/23 16:02:09.9    -299   -106   -107    318    335 250.5 -23.6  34152  289.42 0854.39
2009/04/23 16:02:10.0    -217   -210   -101    303    319 226.0 -23.6  34128  289.03 0854.39
2009/04/23 16:02:10.1    -230   -194    -94    302    317 229.8 -17.3  34144  289.29 0854.39
2009/04/23 16:02:10.2    -349   -165    -46    387    390 244.6  -6.8  34144  289.30 0854.39
2009/04/23 16:02:10.3    -433    -40   -224    436    490 264.7 -33.7  34162  289.59 0854.41
2009/04/23 16:02:10.4    -242   -386   -173    456    487 212.1 -26.2  34188  290.03 0854.41
2009/04/23 16:02:10.5     -26   -356     14    357    358 184.3   2.3  34166  289.69 0854.41
2009/04/23 16:02:10.6    -167   -323     99    364    378 207.4  15.3  34166  289.69 0854.41
2009/04/23 16:02:10.7    -303   -227    161    379    411 233.1  24.3  34162  289.62 0854.41
2009/04/23 16:02:10.8    -173   -431    173    465    496 201.9  21.4  34142  289.28 0854.41
2009/04/23 16:02:10.9    -355   -277    203    451    494 232.0  25.9  34146  289.35 0854.41
2009/04/23 16:02:11.0    -646   -294     34    710    711 245.5   2.8  34174  289.81 0854.41
2009/04/23 16:02:11.1    -623   -389    -11    735    736 238.0  -0.9  34162  289.62 0854.41
2009/04/23 16:02:11.2    -332   -471      0    577    578 215.2   0.0  34152  289.42 0854.41
2009/04/23 16:02:11.3    -572   -218   -118    613    625 249.1 -10.9  34146  289.35 0854.41
2009/04/23 16:02:11.4    -693   -297   -118    754    764 246.8  -8.9  34176  289.85 0854.41
2009/04/23 16:02:11.5    -466   -536   -141    711    725 221.0 -11.2  34170  289.74 0854.41
2009/04/23 16:02:11.6    -467   -630    -23    785    786 216.5  -1.7  34158  289.54 0854.41
2009/04/23 16:02:11.7    -587   -525    -75    788    792 228.2  -5.5  34138  289.19 0854.41
2009/04/23 16:02:11.8    -685   -282   -100    741    748 247.6  -7.7  34158  289.53 0854.41
2009/04/23 16:02:11.9    -773   -258   -104    816    823 251.5  -7.3  34170  289.75 0854.41
2009/04/23 16:02:12.0    -505   -326   -196    602    633 237.2 -23.2  34126  289.01 0854.41
2009/04/23 16:02:12.1    -650   -250   -239    697    736 249.0 -24.0  34162  289.62 0854.41
2009/04/23 16:02:12.2    -699   -414   -248    813    849 239.4 -21.8  34142  289.27 0854.41
2009/04/23 16:02:12.3    -534   -412    -94    675    682 232.4  -8.0  34138  289.21 0854.44
2009/04/23 16:02:12.4    -245   -360    -71    436    442 214.3  -9.3  34130  289.07 0854.44
2009/04/23 16:02:12.5    -442   -159    114    470    484 250.2  13.7  34122  288.93 0854.44
2009/04/23 16:02:12.6    -190   -163   -229    251    339 229.3 -51.7  34142  289.27 0854.44
2009/04/23 16:02:12.7    -413   -203   -283    461    540 243.8 -38.9  34162  289.61 0854.44
2009/04/23 16:02:12.8    -451   -157    144    478    500 250.7  16.8  34162  289.62 0854.44
2009/04/23 16:02:12.9    -277   -550    -89    617    624 206.8  -8.3  34140  289.23 0854.44
2009/04/23 16:02:13.0    -443   -369     18    577    578 230.2   1.8  34122  288.93 0854.44
2009/04/23 16:02:13.1    -705   -367   -100    795    802 242.5  -7.2  34120  288.88 0854.44
2009/04/23 16:02:13.2    -576   -395   -155    699    717 235.5 -12.5  34130  289.05 0854.44
2009/04/23 16:02:13.3    -541   -499   -121    736    747 227.3  -9.3  34118  288.87 0854.44
2009/04/23 16:02:13.4    -425   -216     42    477    479 243.0   5.1  34152  289.45 0854.44
2009/04/23 16:02:13.5    -587   -387   -176    704    726 236.6 -14.1  34120  288.89 0854.44
2009/04/23 16:02:13.6    -648   -328   -209    727    756 243.2 -20.8  34106  288.65 0854.44
2009/04/23 16:02:13.7    -662   -255   -366    710    798 248.9 -33.9  34110  288.73 0854.44
2009/04/23 16:02:13.8    -588   -519   -267    785    830 228.6 -18.8  34110  288.74 0854.44
2009/04/23 16:02:13.9    -528   -270   -171    593    618 242.9 -16.1  34128  289.03 0854.44
2009/04/23 16:02:14.0    -291   -331   -185    441    478 221.3 -28.6  34120  288.88 0854.44
2009/04/23 16:02:14.1    -556   -112   -177    568    594 258.6 -22.3  34138  289.19 0854.44
2009/04/23 16:02:14.2    -597    -36   -266    599    655 266.5 -30.0  34136  289.15 0854.44
2009/04/23 16:02:14.3    -307   -252   -141    398    423 230.6 -19.6  34138  289.19 0854.43
2009/04/23 16:02:14.4    -294    -37   -102    297    314 262.8 -24.0  34136  289.15 0854.43
2009/04/23 16:02:14.5    -151   -216   -237    264    354 215.0 -50.9  34126  289.00 0854.43
2009/04/23 16:02:14.6    -225   -291   -246    369    443 217.7 -41.1  34120  288.90 0854.43
2009/04/23 16:02:14.7    -168   -353   -224    392    451 205.5 -36.7  34100  288.56 0854.43
2009/04/23 16:02:14.8    -172   -124   -247    213    326 234.1 -59.3  34104  288.63 0854.43
2009/04/23 16:02:14.9     -70   -149    -97    165    191 205.2 -37.5  34114  288.80 0854.43
2009/04/23 16:02:15.0    -125   -127   -120    179    215 224.5 -41.4  34142  289.28 0854.43
2009/04/23 16:02:15.1     -69   -194     76    206    219 199.6  21.0  34134  289.14 0854.43
2009/04/23 16:02:15.2    -262    -29   -101    264    282 263.6 -26.4  34128  289.03 0854.43
2009/04/23 16:02:15.3    -510   -109     62    522    526 257.9   6.8  34132  289.09 0854.43
2009/04/23 16:02:15.4    -490     53    -63    493    498 276.2  -7.4  34126  289.01 0854.43
2009/04/23 16:02:15.5    -446    -27    122    447    464 266.5  15.3  34130  289.07 0854.43
2009/04/23 16:02:15.6    -389     19    206    390    441 272.9  30.1  34124  288.97 0854.43
2009/04/23 16:02:15.7    -254   -167    235    305    385 236.7  41.6  34130  289.08 0854.43
2009/04/23 16:02:15.8    -323   -133    147    350    379 247.6  24.1  34130  289.06 0854.43
2009/04/23 16:02:15.9    -454    115   -103    469    481 284.3 -12.4  34128  289.03 0854.43
2009/04/23 16:02:16.0    -544    101   -152    554    574 280.6 -20.0  34128  289.04 0854.43
2009/04/23 16:02:16.1    -457     20   -147    458    481 272.6 -22.9  34126  288.98 0854.43
2009/04/23 16:02:16.2    -512     42   -173    514    542 274.8 -23.5  34130  289.07 0854.43
2009/04/23 16:02:16.3    -520    105    -57    531    535 281.5  -6.2  34142  289.26 0854.45
2009/04/23 16:02:16.4    -536    214    -30    578    579 291.8  -3.0  34130  289.07 0854.45
2009/04/23 16:02:16.5    -547    163   -189    571    601 286.6 -23.7  34130  289.08 0854.45
2009/04/23 16:02:16.6    -465    143    -93    487    496 287.2 -10.8  34130  289.05 0854.45
2009/04/23 16:02:16.7    -405     94    -68    416    422 283.2  -9.3  34134  289.12 0854.45
2009/04/23 16:02:16.8    -461    139   -156    482    506 286.8 -23.2  34130  289.08 0854.45
2009/04/23 16:02:16.9    -468     42   -197    470    509 275.2 -28.6  34134  289.12 0854.45
2009/04/23 16:02:17.0    -391      0   -280    392    481 270.0 -43.5  34126  288.99 0854.45
2009/04/23 16:02:17.1    -333   -166   -218    373    432 243.5 -37.3  34132  289.11 0854.45
2009/04/23 16:02:17.2    -332     26   -276    334    433 274.6 -48.2  34134  289.14 0854.45
2009/04/23 16:02:17.3    -325     55     23    330    331 279.6   4.0  34128  289.04 0854.45
2009/04/23 16:02:17.4    -140    122    -57    187    195 311.1 -22.1  34130  289.06 0854.45
2009/04/23 16:02:17.5    -106     99    -90    146    171 313.2 -39.2  34138  289.21 0854.45
2009/04/23 16:02:17.6    -199    217    -59    295    301 317.6 -11.3  34134  289.14 0854.45
2009/04/23 16:02:17.7    -315    -39     22    318    319 262.8   4.0  34154  289.47 0854.45
2009/04/23 16:02:17.8    -432      6     79    433    441 270.9  10.3  34170  289.75 0854.45
2009/04/23 16:02:17.9    -429     56     56    433    437 277.5   7.5  34168  289.72 0854.45
2009/04/23 16:02:18.0    -182    -52    -61    190    200 254.1 -17.9  34174  289.82 0854.45
2009/04/23 16:02:18.1     -48    -45   -130     66    145 226.9 -75.4  34156  289.50 0854.45
2009/04/23 16:02:18.2     -56    -73    -61     93    111 217.4 -40.4  34132  289.09 0854.45
2009/04/23 16:02:18.3     -86     -1    -70     87    111 269.2 -48.1  34140  289.24 0854.46
2009/04/23 16:02:18.4     -97    -70    -26    120    123 234.1 -12.4  34136  289.16 0854.46
2009/04/23 16:02:18.5     -46   -110    -25    120    123 202.7 -11.9  34132  289.11 0854.46
2009/04/23 16:02:18.6    -133   -224    -57    261    268 210.7 -12.4  34128  289.03 0854.46
2009/04/23 16:02:18.7     -65   -214     27    224    226 196.9   6.9  34122  288.94 0854.46
2009/04/23 16:02:18.8      -8   -124    -16    125    127 184.0  -7.3  34126  288.99 0854.46
2009/04/23 16:02:18.9     -27   -153     28    156    159 190.2  10.3  34124  288.97 0854.46
2009/04/23 16:02:19.0    -145    -49     -6    154    155 251.4  -2.2  34136  289.18 0854.46
2009/04/23 16:02:19.1    -181    -44    -61    187    197 256.1 -18.1  34122  288.92 0854.46
2009/04/23 16:02:19.2    -258    -87    -34    273    276 251.2  -7.2  34122  288.93 0854.46
2009/04/23 16:02:19.3    -302    -88    -22    315    316 253.6  -4.0  34126  288.98 0854.46
2009/04/23 16:02:19.4    -298    -66    -39    306    309 257.4  -7.4  34122  288.92 0854.46
2009/04/23 16:02:19.5    -354    -71    -46    362    365 258.6  -7.4  34126  288.98 0854.46
2009/04/23 16:02:19.6    -359    -57    -52    364    368 260.9  -8.2  34120  288.91 0854.46
2009/04/23 16:02:19.7    -397   -126    -30    417    419 252.3  -4.1  34118  288.85 0854.46
2009/04/23 16:02:19.8    -414    -64   -115    419    435 261.2 -15.4  34120  288.90 0854.46
2009/04/23 16:02:19.9    -451    -49    -91    454    464 263.7 -11.3  34112  288.77 0854.46
2009/04/23 16:02:20.0    -399     76   -133    407    429 280.9 -18.1  34122  288.92 0854.46
2009/04/23 16:02:20.1    -432     53   -127    436    454 277.1 -21.0  34122  288.92 0854.46
2009/04/23 16:02:20.2    -321     24   -109    322    339 274.4 -23.6  34122  288.94 0854.46
2009/04/23 16:02:20.3    -273     25    -97    275    291 275.3 -24.4  34116  288.83 0854.46
2009/04/23 16:02:20.4    -221     59    -90    229    246 285.1 -26.9  34122  288.93 0854.46
2009/04/23 16:02:20.5    -225     23    -73    227    238 275.9 -22.9  34120  288.90 0854.46
2009/04/23 16:02:20.6    -250    -20    -76    251    262 265.4 -21.7  34124  288.95 0854.46
2009/04/23 16:02:20.7    -183     22   -100    185    210 277.0 -35.2  34124  288.96 0854.46
2009/04/23 16:02:20.8    -168     37   -108    173    203 282.6 -39.6  34122  288.94 0854.46
2009/04/23 16:02:20.9    -229    113   -132    256    288 296.2 -33.7  34138  289.20 0854.46
2009/04/23 16:02:21.0    -251     91   -133    268    299 290.0 -32.6  34134  289.14 0854.46
2009/04/23 16:02:21.1    -244    106   -149    267    305 293.5 -35.8  34142  289.27 0854.46
2009/04/23 16:02:21.2    -203     41   -126    208    243 281.5 -38.8  34152  289.43 0854.44
2009/04/23 16:02:21.3     -84     56    -57    101    115 303.7 -36.3  34158  289.53 0854.44
2009/04/23 16:02:21.4    -143    107     43    179    185 306.9  13.7  34156  289.50 0854.44
2009/04/23 16:02:21.5    -243    196     63    313    320 308.9  11.4  34152  289.44 0854.44
2009/04/23 16:02:21.6    -256     56      8    263    264 282.4   1.8  34156  289.51 0854.44
2009/04/23 16:02:21.7    -195    -27    -61    198    208 261.9 -17.3  34152  289.45 0854.44
2009/04/23 16:02:21.8    -159     86    -63    181    191 298.4 -24.0  34164  289.65 0854.44
2009/04/23 16:02:21.9    -106     67      9    126    127 302.5   4.4  34166  289.67 0854.44
2009/04/23 16:02:22.0    -125     85     78    152    170 304.2  29.3  34160  289.57 0854.44
2009/04/23 16:02:22.1    -200    147     74    249    260 306.2  16.6  34150  289.39 0854.44
2009/04/23 16:02:22.2     -96    208     70    230    241 335.3  17.1  34148  289.37 0854.44
2009/04/23 16:02:22.3    -134    213     30    252    254 327.7   6.9  34152  289.44 0854.44
2009/04/23 16:02:22.5    -120    145     48    189    196 320.3  14.3  34150  289.41 0854.44
2009/04/23 16:02:22.6    -112    169     49    203    209 326.4  13.7  34148  289.38 0854.44
2009/04/23 16:02:22.7    -114    118     40    165    170 315.9  13.7  34150  289.41 0854.44
2009/04/23 16:02:22.8     -97    133     46    165    172 323.9  15.8  34152  289.43 0854.44
2009/04/23 16:02:22.9     -76      6     41     77     87 275.2  30.3  34162  289.62 0854.44
2009/04/23 16:02:23.0      28     26    107     39    113  46.9  80.2  34182  289.94 0854.44
2009/04/23 16:02:23.1      57     47    104     74    127  50.5  60.6  34174  289.82 0854.44
2009/04/23 16:02:23.2      66     18     83     69    107  74.9  56.3  34172  289.77 0854.44
2009/04/23 16:02:23.3      80     19     85     83    118  76.7  50.2  34160  289.57 0854.42
2009/04/23 16:02:23.4     113     72     70    135    152  57.5  29.3  34150  289.41 0854.42
2009/04/23 16:02:23.5     139    129     79    190    205  47.1  23.8  34152  289.45 0854.42
2009/04/23 16:02:23.6     146    116     24    187    189  51.6   7.5  34160  289.57 0854.42
2009/04/23 16:02:23.7     169    101      2    198    199  59.1   0.7  34154  289.46 0854.42
2009/04/23 16:02:23.8     222     93    106    241    263  67.2  25.1  34162  289.59 0854.42
2009/04/23 16:02:23.9      97    110    189    148    240  41.4  58.2  34164  289.65 0854.42
2009/04/23 16:02:24.0      85    267    190    281    339  17.8  37.2  34144  289.31 0854.42
2009/04/23 16:02:24.1     -29    250     94    252    268 353.3  21.3  34144  289.29 0854.42
2009/04/23 16:02:24.2    -123    238     25    269    271 332.6   5.4  34144  289.31 0854.42
2009/04/23 16:02:24.3    -182    286     93    340    353 327.5  15.3  34150  289.40 0854.42
2009/04/23 16:02:24.4    -157    283    139    324    352 331.0  24.8  34148  289.38 0854.42
2009/04/23 16:02:24.5     -77    233    143    246    284 341.7  32.7  34164  289.64 0854.42
2009/04/23 16:02:24.6    -173    213     63    275    283 321.0  12.9  34154  289.46 0854.42
2009/04/23 16:02:24.7    -198    209     34    289    292 316.6   6.9  34158  289.53 0854.42
2009/04/23 16:02:24.8    -223    109   -116    249    274 296.0 -31.4  34152  289.44 0854.42
2009/04/23 16:02:24.9    -159    220     -6    272    273 324.0  -1.3  34156  289.49 0854.42
2009/04/23 16:02:25.0     -51    192    -15    199    200 344.9  -4.6  34160  289.57 0854.42
2009/04/23 16:02:25.1      39    124     61    131    144  17.4  27.1  34166  289.67 0854.42
2009/04/23 16:02:25.2     -99     20     35    102    109 281.5  19.2  34162  289.62 0854.42
2009/04/23 16:02:25.3    -138     72      0    156    157 297.5  -0.3  34164  289.65 0854.39
2009/04/23 16:02:25.4    -119     98    -76    155    172 309.5 -32.2  34164  289.65 0854.39
2009/04/23 16:02:25.5    -163     31   -113    167    201 281.0 -41.8  34170  289.75 0854.39
2009/04/23 16:02:25.6     -92      0    -58     93    109 270.4 -39.9  34170  289.75 0854.39
2009/04/23 16:02:25.7     -33    -50    -16     60     63 213.4 -15.5  34168  289.72 0854.39
2009/04/23 16:02:25.8     -61    -80    -31    101    105 217.4 -22.3  34168  289.72 0854.39
2009/04/23 16:02:25.9     -68   -105    -62    126    140 213.0 -32.2  34168  289.70 0854.39
2009/04/23 16:02:26.0     -43   -175      2    181    182 194.0   0.8  34160  289.58 0854.39
2009/04/23 16:02:26.1      35   -232     -9    235    236 171.3  -2.2  34158  289.53 0854.39
2009/04/23 16:02:26.2     -17   -259      0    260    261 183.8   0.2  34162  289.59 0854.39
2009/04/23 16:02:26.3      78   -203     42    218    223 158.8  11.1  34152  289.43 0854.39
2009/04/23 16:02:26.4     103   -204     79    229    243 153.0  19.2  34172  289.78 0854.39
2009/04/23 16:02:26.5      95   -149    112    178    210 147.4  35.5  34198  290.21 0854.39
2009/04/23 16:02:26.6      85   -140    115    165    201 148.6  38.4  34188  290.04 0854.39
2009/04/23 16:02:26.7      71   -233    173    244    299 163.1  38.8  34160  289.56 0854.39
2009/04/23 16:02:26.8      14   -190    210    191    283 175.5  53.2  34170  289.75 0854.39
2009/04/23 16:02:26.9      94   -161    110    187    216 149.5  33.4  34162  289.60 0854.39
2009/04/23 16:02:27.0      42   -256     91    260    275 170.7  20.0  34162  289.59 0854.39
2009/04/23 16:02:27.1     -65   -308     97    315    330 192.0  17.2  34168  289.70 0854.39
2009/04/23 16:02:27.2     -72   -355     97    363    376 191.6  15.0  34162  289.62 0854.39
2009/04/23 16:02:27.3     -27   -365    119    366    385 184.3  18.0  34162  289.62 0854.39
2009/04/23 16:02:27.4       0   -410     90    411    421 180.0  12.4  34174  289.82 0854.39
2009/04/23 16:02:27.5     -41   -379     79    382    391 186.3  11.8  34176  289.84 0854.39
2009/04/23 16:02:27.6      -3   -373    121    374    394 180.6  17.9  34176  289.84 0854.39
2009/04/23 16:02:27.7     -47   -397    140    400    423 186.8  20.0  34174  289.82 0854.39
2009/04/23 16:02:27.8     -40   -365     34    368    370 186.3   5.4  34168  289.71 0854.39
2009/04/23 16:02:27.9     -32   -322     97    324    339 185.7  16.6  34168  289.72 0854.39
2009/04/23 16:02:28.0     -18   -299     58    300    306 183.5  11.0  34162  289.61 0854.39
2009/04/23 16:02:28.1     -39   -255     43    258    262 188.7   9.5  34168  289.71 0854.39
2009/04/23 16:02:28.2     -95   -227    116    247    272 202.8  27.1  34174  289.81 0854.39
2009/04/23 16:02:28.3    -120   -233    115    263    287 207.2  25.1  34178  289.86 0854.39
2009/04/23 16:02:28.4     -60   -276    125    283    309 192.4  25.3  34196  290.17 0854.39
2009/04/23 16:02:28.5     -84   -249    160    263    307 198.7  34.4  34216  290.53 0854.39
2009/04/23 16:02:28.6     -77   -233    140    246    283 198.3  32.4  34212  290.46 0854.39
2009/04/23 16:02:28.7    -134   -284     71    315    324 205.3  12.8  34208  290.39 0854.39
2009/04/23 16:02:28.8    -187   -289    -32    345    347 213.0  -5.4  34220  290.59 0854.39
2009/04/23 16:02:28.9    -254   -310     -4    402    403 219.3  -0.7  34218  290.54 0854.39
2009/04/23 16:02:29.0    -218   -260    -61    340    346 220.1 -10.3  34228  290.74 0854.39
2009/04/23 16:02:29.1    -142   -257     89    294    308 208.9  16.8  34212  290.44 0854.39
2009/04/23 16:02:29.2    -160   -216    -12    269    270 216.5  -2.6  34202  290.27 0854.39
2009/04/23 16:02:29.3    -192   -215     -6    289    290 221.7  -1.3  34196  290.17 0854.39
2009/04/23 16:02:29.4     -93   -135     66    165    177 214.5  23.0  34198  290.23 0854.39
2009/04/23 16:02:29.5     -49    -71    122     87    149 214.7  60.6  34198  290.23 0854.39
2009/04/23 16:02:29.6      57   -160    118    171    207 160.2  37.8  34200  290.26 0854.39
2009/04/23 16:02:29.7     -49   -145    141    154    208 198.7  47.5  34196  290.18 0854.39
2009/04/23 16:02:29.8     -54   -116     63    129    143 204.9  27.8  34182  289.94 0854.39
2009/04/23 16:02:29.9    -121    -21      5    123    124 259.9   2.3  34206  290.35 0854.39
2009/04/23 16:02:30.0    -101    -24    -31    104    108 256.3 -21.2  34214  290.48 0854.39
2009/04/23 16:02:30.1    -177    -73     23    192    194 247.6   7.1  34202  290.30 0854.39
2009/04/23 16:02:30.2    -159   -507     22    532    533 197.4   2.4  34166  289.67 0854.39
2009/04/23 16:02:30.3    -116   -384     -8    402    403 196.8  -1.2  34166  289.67 0854.39
2009/04/23 16:02:30.4    -128   -408    -44    428    431 197.4  -6.0  34170  289.73 0854.39
2009/04/23 16:02:30.5     -42   -271     56    275    281 188.9  11.6  34166  289.68 0854.39
2009/04/23 16:02:30.6     -57   -252    154    259    301 192.9  33.5  34184  289.98 0854.39
2009/04/23 16:02:30.7      24   -220    207    222    303 173.8  47.9  34202  290.27 0854.39
2009/04/23 16:02:30.8      92   -314    187    328    377 163.7  32.1  34192  290.11 0854.39
2009/04/23 16:02:30.9      67   -330    200    337    391 168.4  33.5  34184  289.98 0854.39
2009/04/23 16:02:31.0     -60   -336    222    342    407 190.1  35.9  34180  289.91 0854.39
2009/04/23 16:02:31.1     -20   -263    164    264    310 184.5  35.5  34180  289.92 0854.39
2009/04/23 16:02:31.2     -44   -205    206    210    294 192.3  49.8  34188  290.03 0854.39
2009/04/23 16:02:31.3      53   -170    156    179    237 162.6  45.8  34188  290.04 0854.40
2009/04/23 16:02:31.4     126   -169    237    211    317 143.3  53.7  34224  290.65 0854.40
2009/04/23 16:02:31.5      20   -154    255    156    298 172.4  65.7  34210  290.41 0854.40
2009/04/23 16:02:31.6     220   -134    189    258    319 121.3  39.9  34252  291.14 0854.40
2009/04/23 16:02:31.7     252   -124    228    281    361 116.2  43.4  34294  291.86 0854.40
2009/04/23 16:02:31.8     252    -48    290    257    387 100.8  54.0  34282  291.66 0854.40
2009/04/23 16:02:31.9     113   -178    194    212    287 147.5  47.5  34214  290.49 0854.40
2009/04/23 16:02:32.0     244   -220    252    329    414 132.0  41.3  34174  289.82 0854.40
2009/04/23 16:02:32.1     288   -210    256    357    439 126.1  39.2  34172  289.78 0854.40
2009/04/23 16:02:32.2     341   -167    277    380    470 116.1  39.7  34182  289.94 0854.40
2009/04/23 16:02:32.3     354   -195    248    405    474 118.9  34.4  34180  289.92 0854.40
2009/04/23 16:02:32.4     349   -229    285    418    505 123.3  37.6  34188  290.03 0854.40
2009/04/23 16:02:32.5     145   -343    260    373    454 157.0  38.4  34172  289.78 0854.40
2009/04/23 16:02:32.6     109   -239    229    263    348 155.5  45.5  34172  289.78 0854.40
2009/04/23 16:02:32.7      91   -263    209    279    348 160.9  40.7  34176  289.85 0854.40
2009/04/23 16:02:32.8      28   -246    250    248    352 173.3  50.1  34180  289.90 0854.40
2009/04/23 16:02:32.9     -14   -210    189    211    283 184.0  46.6  34182  289.95 0854.40
2009/04/23 16:02:33.0     -94   -196    177    218    280 205.6  43.5  34184  289.98 0854.40
2009/04/23 16:02:33.1    -102   -233    163    255    302 203.6  35.6  34178  289.88 0854.40
2009/04/23 16:02:33.2     -63   -190    140    201    244 198.3  38.5  34190  290.08 0854.40
2009/04/23 16:02:33.3    -119   -179    168    216    273 213.6  41.7  34184  289.97 0854.41
2009/04/23 16:02:33.4    -122   -290    175    315    360 202.9  31.5  34188  290.06 0854.41
2009/04/23 16:02:33.5      16   -274    138    275    307 176.6  28.5  34186  290.00 0854.41
2009/04/23 16:02:33.6     -34   -205    188    208    280 189.6  46.9  34180  289.90 0854.41
2009/04/23 16:02:33.7     -43   -119    233    127    265 200.1  69.1  34178  289.89 0854.41
2009/04/23 16:02:33.8     -35     -7    152     36    156 258.5  86.9  34180  289.91 0854.41
2009/04/23 16:02:33.9      23      0    187     24    188  90.0  90.0  34172  289.77 0854.41
2009/04/23 16:02:34.0      36     55    263     67    271  33.4  85.6  34190  290.09 0854.41
2009/04/23 16:02:34.1     290   -193    249    349    428 123.7  39.0  34174  289.80 0854.41
2009/04/23 16:02:34.2     151   -273    111    313    333 151.0  19.5  34176  289.85 0854.41
2009/04/23 16:02:34.3      96   -285    -19    301    302 161.3  -3.7  34172  289.78 0854.41
2009/04/23 16:02:34.4      23   -298    -13    299    300 175.5  -2.6  34170  289.75 0854.41
2009/04/23 16:02:34.5      30   -251     14    253    254 173.1   3.3  34172  289.78 0854.41
2009/04/23 16:02:34.6       0   -205     57    206    214 180.0  15.6  34174  289.80 0854.41
2009/04/23 16:02:34.7     102   -195    145    221    264 152.4  36.3  34172  289.78 0854.41
2009/04/23 16:02:34.8      85   -214    183    231    294 158.2  42.7  34170  289.73 0854.41
2009/04/23 16:02:34.9       3   -237    254    238    348 179.1  52.1  34158  289.54 0854.41
2009/04/23 16:02:35.0      68   -314    244    322    404 167.7  40.9  34174  289.81 0854.41
2009/04/23 16:02:35.1       5   -315    242    316    398 179.0  41.4  34174  289.82 0854.41
2009/04/23 16:02:35.2      31   -362    132    364    388 175.0  19.9  34160  289.57 0854.41
2009/04/23 16:02:35.3      -8   -299     26    300    302 181.6   5.0  34164  289.63 0854.42
2009/04/23 16:02:35.4     -70   -361    -60    368    373 191.1  -9.3  34158  289.54 0854.42
2009/04/23 16:02:35.5     -74   -349     98    357    371 192.0  15.4  34146  289.35 0854.42
2009/04/23 16:02:35.6      34   -246    186    249    310 172.0  40.4  34152  289.42 0854.42
2009/04/23 16:02:35.7      63   -244    156    253    297 165.5  34.5  34164  289.63 0854.42
2009/04/23 16:02:35.8       7   -306     51    307    312 178.6   9.4  34170  289.75 0854.42
2009/04/23 16:02:35.9    -124   -387    -18    407    408 197.8  -2.6  34156  289.51 0854.42
2009/04/23 16:02:36.0     -97   -506     15    516    517 190.9   1.7  34166  289.69 0854.42
2009/04/23 16:02:36.1     -12   -453     40    454    456 181.6   5.1  34164  289.63 0854.42
2009/04/23 16:02:36.2      17   -423     43    424    427 177.7   5.9  34170  289.73 0854.42
2009/04/23 16:02:36.3      93   -351    132    364    387 165.1  20.8  34168  289.72 0854.42
2009/04/23 16:02:36.4      98   -605    214    613    650 170.8  19.3  34170  289.74 0854.42
2009/04/23 16:02:36.5     102   -617    218    626    662 170.6  20.0  34176  289.84 0854.42
2009/04/23 16:02:36.6     101   -591    226    600    641 170.2  21.6  34164  289.64 0854.42
2009/04/23 16:02:36.7     120   -532    286    546    616 167.2  29.9  34182  289.95 0854.42
2009/04/23 16:02:36.8     171   -558    246    584    633 163.0  24.3  34180  289.91 0854.42
2009/04/23 16:02:36.9     210   -446    395    493    631 154.8  42.8  34172  289.78 0854.42
2009/04/23 16:02:37.0     345   -277    282    443    525 128.8  35.5  34180  289.91 0854.42
2009/04/23 16:02:37.1     192   -301    350    358    500 147.5  49.4  34174  289.80 0854.42
2009/04/23 16:02:37.2     105   -287    334    306    452 159.9  52.7  34166  289.68 0854.42
2009/04/23 16:02:37.3     285   -283    291    402    496 134.8  39.5  34178  289.89 0854.43
2009/04/23 16:02:37.4     387   -288    289    483    562 126.6  33.7  34172  289.79 0854.43
2009/04/23 16:02:37.5     325   -188    339    376    506 120.0  46.8  34170  289.74 0854.43
2009/04/23 16:02:37.6     319   -218    246    387    458 124.4  35.5  34174  289.82 0854.43
2009/04/23 16:02:37.7     199   -205    308    286    420 135.9  52.3  34178  289.87 0854.43
2009/04/23 16:02:37.8     208   -236    299    315    434 138.6  48.5  34178  289.89 0854.43
2009/04/23 16:02:37.9      90   -334    325    347    475 164.9  48.0  34178  289.87 0854.43
2009/04/23 16:02:38.0      53   -365    350    369    508 171.7  48.4  34186  290.00 0854.43
2009/04/23 16:02:38.1     153   -430    364    457    584 160.4  42.7  34180  289.92 0854.43
2009/04/23 16:02:38.2      90   -338    291    350    455 165.0  43.8  34172  289.78 0854.43
2009/04/23 16:02:38.3     231   -453    203    509    547 152.9  23.0  34176  289.85 0854.43
2009/04/23 16:02:38.4     149   -466    123    490    506 162.2  14.2  34172  289.76 0854.43
2009/04/23 16:02:38.5     199   -395    157    443    471 153.2  19.5  34170  289.75 0854.43
2009/04/23 16:02:38.6     241   -396    265    464    534 148.6  32.3  34156  289.50 0854.43
2009/04/23 16:02:38.7     245   -315    271    400    483 142.1  37.4  34164  289.63 0854.43
2009/04/23 16:02:38.8     178   -259    182    315    363 145.5  32.7  34166  289.69 0854.43
2009/04/23 16:02:38.9     110   -281    221    302    374 158.6  39.7  34162  289.62 0854.43
2009/04/23 16:02:39.0      17   -286    268    287    392 176.6  47.9  34168  289.71 0854.43
2009/04/23 16:02:39.1     -61   -204    256    214    333 196.7  56.0  34178  289.86 0854.43
2009/04/23 16:02:39.2     -13   -182    211    183    279 184.2  54.6  34176  289.83 0854.43
2009/04/23 16:02:39.3       2   -111    193    112    223 178.6  67.2  34184  289.99 0854.46
2009/04/23 16:02:39.4      46   -106    148    116    188 156.4  57.9  34184  289.97 0854.46
2009/04/23 16:02:39.5      -8   -126    186    127    225 184.0  62.6  34178  289.89 0854.46
2009/04/23 16:02:39.6      51   -155    179    164    242 161.7  52.7  34174  289.82 0854.46
2009/04/23 16:02:39.7       0    -51    137     52    146 179.1  78.6  34186  290.02 0854.46
2009/04/23 16:02:39.8      28    -44    146     53    155 147.5  80.2  34186  290.01 0854.46
2009/04/23 16:02:39.9      43     27    138     52    147  57.5  78.6  34196  290.18 0854.46
2009/04/23 16:02:40.0     -66     54    147     86    170 309.5  67.0  34186  290.02 0854.46
2009/04/23 16:02:40.1     -44     45    100     64    118 315.9  64.6  34188  290.04 0854.46
2009/04/23 16:02:40.2     -24     73     69     78    104 341.3  46.9  34184  289.99 0854.46
2009/04/23 16:02:40.3      -4    101    111    102    150 357.3  52.2  34192  290.11 0854.48
2009/04/23 16:02:40.4      14    135    144    136    198   6.2  52.0  34180  289.92 0854.48
2009/04/23 16:02:40.5     134    121    150    181    235  47.8  43.8  34170  289.74 0854.48
2009/04/23 16:02:40.6     111    123    103    167    196  42.1  34.8  34172  289.79 0854.48
2009/04/23 16:02:40.7     119     80     85    144    167  55.9  33.1  34170  289.75 0854.48
2009/04/23 16:02:40.8     112      1     60    113    127  89.2  29.8  34176  289.84 0854.48
2009/04/23 16:02:40.9      66     43     65     80    103  56.7  43.7  34178  289.89 0854.48
2009/04/23 16:02:41.0     -12     51     62     53     81 346.6  54.8  34178  289.87 0854.48
2009/04/23 16:02:41.1     -38     87     73     96    120 336.4  41.2  34176  289.84 0854.48
2009/04/23 16:02:41.2     -44     90     74    101    125 334.1  39.7  34178  289.87 0854.48
2009/04/23 16:02:41.3    -107     43     36    116    122 291.8  17.3  34188  290.06 0854.48
2009/04/23 16:02:41.4    -113     73     13    135    136 302.9   5.9  34196  290.19 0854.48
2009/04/23 16:02:41.5    -113     99      7    151    152 311.3   2.8  34198  290.21 0854.48
2009/04/23 16:02:41.6    -104     64    -44    123    130 301.5 -24.4  34198  290.21 0854.48
2009/04/23 16:02:41.7    -201    -60    -27    210    212 253.2  -7.3  34208  290.40 0854.48
2009/04/23 16:02:41.8    -158    -64    -48    171    178 247.8 -15.8  34214  290.50 0854.48
2009/04/23 16:02:41.9    -102    -90     33    137    141 228.6  13.7  34224  290.67 0854.48
2009/04/23 16:02:42.0     -95   -102     50    140    148 222.8  20.4  34220  290.58 0854.48
2009/04/23 16:02:42.1     -13    -46     -7     48     49 196.0  -9.3  34202  290.30 0854.48
2009/04/23 16:02:42.2     -20     19    -46     28     53 313.3 -69.1  34202  290.28 0854.48
2009/04/23 16:02:42.3      -8     13    -56     16     58 327.5 -86.2  34184  289.99 0854.46
2009/04/23 16:02:42.4      34      6    -64     35     72  78.5 -73.3  34192  290.11 0854.46
2009/04/23 16:02:42.5     112     -8    -70    113    132  94.4 -39.9  34190  290.09 0854.46
2009/04/23 16:02:42.6     181     25      9    183    184  82.1   2.9  34268  291.42 0854.46
2009/04/23 16:02:42.7     221     39     40    225    229  79.9  10.1  34278  291.57 0854.46
2009/04/23 16:02:42.8     339    127     29    363    365  69.4   4.7  34270  291.44 0854.46
2009/04/23 16:02:42.9     339     93     88    352    363  74.6  14.2  34304  292.03 0854.46
2009/04/23 16:02:43.0     277     99     59    295    301  70.3  11.4  34262  291.29 0854.46
2009/04/23 16:02:43.1     166    160     36    231    234  46.0   8.9  34284  291.68 0854.46
2009/04/23 16:02:43.2     235    248      0    343    344  43.5   0.1  34258  291.22 0854.46
2009/04/23 16:02:43.3     279    213     75    352    361  52.6  12.1  34252  291.13 0854.46
2009/04/23 16:02:43.4     257    198    -17    325    326  52.4  -3.0  34244  291.00 0854.46
2009/04/23 16:02:43.5     242    148    -36    285    288  58.5  -7.3  34248  291.05 0854.46
2009/04/23 16:02:43.6     308    162   -110    349    367  62.3 -17.6  34238  290.89 0854.46
2009/04/23 16:02:43.7     282    179   -126    335    357  57.5 -25.9  34238  290.89 0854.46
2009/04/23 16:02:43.8     149    115   -156    189    245  52.2 -48.1  34184  289.97 0854.46
2009/04/23 16:02:43.9      95     99    -49    138    147  43.7 -19.7  34190  290.08 0854.46
2009/04/23 16:02:44.0     133    -27     31    136    140 101.5  13.1  34186  290.02 0854.46
2009/04/23 16:02:44.1     330    135     31    357    359  67.7   5.1  34240  290.94 0854.46
2009/04/23 16:02:44.2     256     78    -84    268    280  72.9 -22.8  34200  290.26 0854.46
2009/04/23 16:02:44.3     467    155    -75    493    499  71.6  -8.7  34172  289.79 0854.46
2009/04/23 16:02:44.4     305     36   -150    308    342  83.2 -32.2  34184  289.98 0854.46
2009/04/23 16:02:44.5     479    134     -2    498    499  74.3  -0.3  34162  289.62 0854.46
2009/04/23 16:02:44.6     391     87   -224    401    459  77.4 -35.9  34210  290.41 0854.46
2009/04/23 16:02:44.7     510     57   -112    514    527  83.5 -12.4  34184  289.99 0854.46
2009/04/23 16:02:44.8     386     14    -87    387    397  87.9 -12.7  34192  290.10 0854.46
2009/04/23 16:02:44.9     327     -4     42    328    331  90.7   7.4  34190  290.08 0854.46
2009/04/23 16:02:45.0     332    -43     59    335    341  97.5  10.1  34198  290.23 0854.46
2009/04/23 16:02:45.1     347   -115    141    366    392 108.4  22.2  34222  290.62 0854.46
2009/04/23 16:02:45.2     360    -74    199    368    418 101.7  30.8  34206  290.34 0854.46
2009/04/23 16:02:45.3     223    -31    159    226    276  98.0  38.6  34212  290.46 0854.46
2009/04/23 16:02:45.4     163     97     -3    190    191  59.3  -1.2  34218  290.55 0854.46
2009/04/23 16:02:45.5     142    -19    105    144    178  97.9  39.7  34224  290.67 0854.46
2009/04/23 16:02:45.6     135    -23     69    137    153  99.7  28.7  34226  290.70 0854.46
2009/04/23 16:02:45.7      84    -49    151     98    180 120.7  64.1  34234  290.82 0854.46
2009/04/23 16:02:45.8      39     26    179     48    185  55.8  84.9  34220  290.58 0854.46
2009/04/23 16:02:45.9     -30    -64    102     71    124 205.4  62.6  34224  290.67 0854.46
2009/04/23 16:02:46.0     143    -20    179    145    230  98.0  56.4  34216  290.53 0854.46
2009/04/23 16:02:46.1     166    -17    167    167    236  95.9  50.1  34204  290.33 0854.46
2009/04/23 16:02:46.2     143   -100     98    175    200 125.1  31.6  34206  290.36 0854.46
2009/04/23 16:02:46.3      89    -89    123    126    176 135.0  49.4  34208  290.38 0854.46
2009/04/23 16:02:46.4      40    -68     98     80    126 149.3  56.4  34236  290.87 0854.46
2009/04/23 16:02:46.5      32    -52    122     62    136 148.4  71.0  34226  290.69 0854.46
2009/04/23 16:02:46.6     -58    -54     99     80    127 226.8  56.9  34222  290.62 0854.46
2009/04/23 16:02:46.7     -40   -120    134    127    184 198.5  51.6  34224  290.67 0854.46
2009/04/23 16:02:46.8     -37   -109    116    116    164 198.7  50.1  34214  290.50 0854.46
2009/04/23 16:02:46.9     -18   -180    121    181    217 185.8  37.0  34210  290.41 0854.46
2009/04/23 16:02:47.0     -57   -166     99    176    201 199.2  31.9  34212  290.45 0854.46
2009/04/23 16:02:47.1    -135   -186     50    230    236 216.0  12.4  34204  290.32 0854.46
2009/04/23 16:02:47.2    -171   -207     36    269    272 219.6   7.8  34238  290.90 0854.46
2009/04/23 16:02:47.3    -249   -281    143    376    402 221.5  22.0  34214  290.50 0854.46
2009/04/23 16:02:47.4    -433   -231    -89    492    501 241.9 -10.3  34178  289.89 0854.46
2009/04/23 16:02:47.5    -387   -240    -32    456    458 238.2  -4.1  34172  289.77 0854.46
2009/04/23 16:02:47.6    -474   -263     40    543    545 241.0   4.2  34226  290.69 0854.46
2009/04/23 16:02:47.7    -472   -121    -26    488    489 255.6  -3.1  34222  290.64 0854.46
2009/04/23 16:02:47.8    -605   -122    -78    618    623 258.6  -7.2  34212  290.45 0854.46
2009/04/23 16:02:47.9    -632   -181   -208    658    691 254.0 -17.6  34152  289.44 0854.46
2009/04/23 16:02:48.0    -612   -272   -192    670    698 246.0 -16.0  34190  290.09 0854.46
2009/04/23 16:02:48.1    -483   -176   -143    515    534 250.0 -20.2  34162  289.62 0854.46
2009/04/23 16:02:48.2    -313    -20     67    314    322 266.3  12.2  34170  289.73 0854.45
2009/04/23 16:02:48.3    -295    -69    132    304    331 256.8  24.9  34182  289.95 0854.45
2009/04/23 16:02:48.4    -400    -83    107    409    423 258.2  14.7  34194  290.14 0854.45
2009/04/23 16:02:48.5    -387   -151     30    416    418 248.7   4.2  34218  290.56 0854.45
2009/04/23 16:02:48.6    -363   -141     -7    390    391 248.7  -1.2  34238  290.91 0854.45
2009/04/23 16:02:48.7    -250   -199    -28    320    322 231.4  -5.1  34242  290.95 0854.45
2009/04/23 16:02:48.8      70   -246    -70    256    266 164.0 -15.4  34230  290.76 0854.45
2009/04/23 16:02:48.9      61   -303     75    310    319 168.5  13.7  34216  290.53 0854.45
2009/04/23 16:02:49.0     -52   -224     26    230    232 193.1   6.5  34218  290.57 0854.45
2009/04/23 16:02:49.1    -170   -198    -73    262    271 220.6 -20.2  34194  290.15 0854.45
2009/04/23 16:02:49.2    -269   -270   -139    382    406 224.9 -25.2  34154  289.48 0854.45
2009/04/23 16:02:49.3     -62   -497   -204    501    540 187.2 -27.8  34192  290.13 0854.45
2009/04/23 16:02:49.4      29   -462   -248    463    525 176.4 -34.9  34172  289.76 0854.45
2009/04/23 16:02:49.5       8   -466   -237    467    523 179.0 -33.6  34188  290.05 0854.45
2009/04/23 16:02:49.6     -20   -396   -109    397    412 182.9 -15.4  34214  290.50 0854.45
2009/04/23 16:02:49.7     -73   -408     21    415    416 190.2   2.9  34212  290.44 0854.45
2009/04/23 16:02:49.9    -176   -345    -66    388    394 207.0  -9.7  34196  290.18 0854.45
2009/04/23 16:02:50.0     -62   -346    -31    352    354 190.2  -5.1  34214  290.49 0854.45
2009/04/23 16:02:50.1      21   -482   -157    483    508 177.4 -18.0  34198  290.20 0854.45
2009/04/23 16:02:50.2      14   -347   -163    348    384 177.7 -31.5  34198  290.21 0854.45
2009/04/23 16:02:50.3     -26   -399   -126    400    420 183.8 -17.5  34212  290.44 0854.46
2009/04/23 16:02:50.4      12   -372   -117    373    390 178.1 -22.5  34204  290.33 0854.46
2009/04/23 16:02:50.5      -4   -275   -101    276    293 181.0 -25.3  34204  290.32 0854.46
2009/04/23 16:02:50.6    -169   -138   -110    219    245 230.9 -32.9  34230  290.75 0854.46
2009/04/23 16:02:50.7    -212      3   -128    213    248 270.9 -38.4  34226  290.70 0854.46
2009/04/23 16:02:50.8    -294     18   -161    295    336 273.5 -35.7  34220  290.59 0854.46
2009/04/23 16:02:50.9    -170     65    -90    183    203 291.1 -32.6  34204  290.31 0854.46
2009/04/23 16:02:51.0    -129    -35    -99    134    166 254.5 -44.8  34216  290.53 0854.46
2009/04/23 16:02:51.1    -159    -16   -116    160    197 263.9 -44.1  34216  290.53 0854.46
2009/04/23 16:02:51.2    -102    -26   -113    106    154 255.4 -56.5  34222  290.64 0854.46
2009/04/23 16:02:51.3     -82    -92    -72    124    143 221.9 -37.8  34224  290.65 0854.46
2009/04/23 16:02:51.4       9    -83    -58     84    102 173.8 -43.0  34220  290.60 0854.46
2009/04/23 16:02:51.5      29    -92    -82     97    127 162.2 -49.2  34220  290.60 0854.46
2009/04/23 16:02:51.6      94    -56    -73    110    132 120.7 -40.9  34222  290.64 0854.46
2009/04/23 16:02:51.7     141    -26    -94    144    171 100.6 -40.4  34212  290.47 0854.46
2009/04/23 16:02:51.8     193    -20    -74    195    208  95.9 -25.9  34200  290.25 0854.46
2009/04/23 16:02:51.9     149     30    -74    152    169  78.6 -32.2  34200  290.26 0854.46
2009/04/23 16:02:52.0      52    -53   -124     75    144 135.8 -70.1  34194  290.16 0854.46
2009/04/23 16:02:52.1      58      4   -189     59    197  85.6 -86.7  34196  290.18 0854.46
2009/04/23 16:02:52.2       0   -110   -172    111    204 180.0 -69.0  34198  290.21 0854.46
2009/04/23 16:02:52.3     104   -213    -37    238    242 153.9  -9.0  34190  290.07 0854.45
2009/04/23 16:02:52.4     136   -246     55    282    288 151.0  11.1  34188  290.03 0854.45
2009/04/23 16:02:52.5     201   -201    121    285    309 135.0  24.3  34182  289.93 0854.45
2009/04/23 16:02:52.6     248   -211     74    326    335 130.4  12.9  34174  289.81 0854.45
2009/04/23 16:02:52.7     260   -256     73    366    374 134.6  11.3  34180  289.91 0854.45
2009/04/23 16:02:52.8     240   -229     -3    332    333 133.7  -0.6  34184  289.98 0854.45
2009/04/23 16:02:52.9     214   -187     72    285    295 131.1  14.3  34178  289.86 0854.45
2009/04/23 16:02:53.0     277   -204    137    345    371 126.4  23.0  34162  289.59 0854.45
2009/04/23 16:02:53.1     245   -162     82    294    306 123.5  15.6  34174  289.80 0854.45
2009/04/23 16:02:53.2     211   -137    -64    252    261 123.1 -14.4  34190  290.07 0854.45
2009/04/23 16:02:53.3     225    -97    -37    246    249 113.3  -8.6  34182  289.93 0854.45
2009/04/23 16:02:53.4     334    -77     17    343    344 103.0   2.9  34172  289.77 0854.45
2009/04/23 16:02:53.5     250    -86     51    265    270 109.1  11.0  34180  289.90 0854.45
2009/04/23 16:02:53.6     251    -93     32    268    270 110.4   6.9  34194  290.15 0854.45
2009/04/23 16:02:53.7     238    -46    125    243    273 101.0  29.3  34174  289.81 0854.45
2009/04/23 16:02:53.8     228    -20    129    229    262  95.2  31.9  34178  289.86 0854.45
2009/04/23 16:02:53.9     239     41     29    243    245  80.1   6.9  34188  290.05 0854.45
2009/04/23 16:02:54.0     202     24    109    204    231  83.0  30.3  34188  290.04 0854.45
2009/04/23 16:02:54.1     172    -29    156    175    234  99.7  46.2  34186  290.01 0854.45
2009/04/23 16:02:54.2      85     62    141    106    176  53.6  59.4  34188  290.06 0854.45
2009/04/23 16:02:54.3      26     78    125     83    150  18.5  63.6  34184  289.97 0854.44
2009/04/23 16:02:54.4      20     42    162     47    168  25.4  83.5  34192  290.11 0854.44
2009/04/23 16:02:54.5     -21     32    146     39    151 327.4  84.9  34196  290.18 0854.44
2009/04/23 16:02:54.6     -11    -56    156     58    166 191.6  78.6  34180  289.91 0854.44
2009/04/23 16:02:54.7      72     28    167     78    184  68.3  73.2  34182  289.96 0854.44
2009/04/23 16:02:54.8     -21      3    135     22    136 279.7  90.0  34198  290.23 0854.44
2009/04/23 16:02:54.9      -7    -58    112     59    126 187.1  70.4  34186  290.02 0854.44
2009/04/23 16:02:55.0     -34      4    114     35    119 277.9  82.7  34208  290.38 0854.44
2009/04/23 16:02:55.1      19    -28    126     35    130 145.7  84.8  34196  290.19 0854.44
2009/04/23 16:02:55.2       7    -24     98     26    101 163.1  84.9  34202  290.28 0854.44
2009/04/23 16:02:55.3     -42     -7    122     43    129 260.3  80.7  34204  290.31 0854.44
2009/04/23 16:02:55.4    -101   -116    141    154    208 221.0  47.5  34178  289.87 0854.44
2009/04/23 16:02:55.5    -128     35    105    133    169 285.5  42.4  34196  290.19 0854.44
2009/04/23 16:02:55.6     -45    -84    129     96    160 208.5  59.8  34192  290.11 0854.44
2009/04/23 16:02:55.7     -76   -129    190    150    242 210.7  57.9  34176  289.85 0854.44
2009/04/23 16:02:55.8      25   -157    164    160    229 170.7  50.4  34178  289.89 0854.44
2009/04/23 16:02:55.9      50   -225    219    231    318 167.3  48.5  34178  289.86 0854.44
2009/04/23 16:02:56.0     -43   -330    134    333    358 187.6  23.0  34166  289.67 0854.44
2009/04/23 16:02:56.1       7   -432    113    433    448 179.0  14.7  34176  289.83 0854.44
2009/04/23 16:02:56.2     -20   -363    140    364    389 183.2  22.0  34172  289.77 0854.44
2009/04/23 16:02:56.3     101   -307    152    324    357 161.7  27.1  34172  289.77 0854.45
2009/04/23 16:02:56.4     148   -358    195    388    434 157.5  28.7  34178  289.87 0854.45
2009/04/23 16:02:56.5      94   -325    221    339    404 163.9  36.3  34174  289.81 0854.45
2009/04/23 16:02:56.6     216   -470    124    518    533 155.3  13.5  34168  289.70 0854.45
2009/04/23 16:02:56.7     229   -433    111    491    504 152.1  12.8  34166  289.67 0854.45
2009/04/23 16:02:56.8     141   -457    120    479    494 162.8  14.2  34184  289.98 0854.45
2009/04/23 16:02:56.9     214   -434     56    485    489 153.7   6.6  34178  289.89 0854.45
2009/04/23 16:02:57.0     183   -389     89    430    440 154.8  11.8  34186  290.00 0854.45
2009/04/23 16:02:57.1      88   -392    -15    402    403 167.2  -2.2  34196  290.19 0854.45
2009/04/23 16:02:57.2     132   -401    -23    423    424 161.7  -3.1  34190  290.09 0854.45
2009/04/23 16:02:57.3     141   -433    -25    456    457 162.0  -3.2  34176  289.83 0854.45
2009/04/23 16:02:57.4     181   -351    -45    396    399 152.7  -6.5  34174  289.82 0854.45
2009/04/23 16:02:57.5     151   -296    -13    333    334 152.9  -2.3  34172  289.76 0854.45
2009/04/23 16:02:57.6      42   -341     19    344    345 172.9   3.3  34190  290.08 0854.45
2009/04/23 16:02:57.7      65   -279     35    287    290 166.7   7.1  34182  289.95 0854.45
2009/04/23 16:02:57.8      83   -315     29    326    328 165.1   5.2  34190  290.07 0854.45
2009/04/23 16:02:57.9     -66   -366     -8    372    373 190.3  -1.3  34192  290.13 0854.45
2009/04/23 16:02:58.0     -67   -392     11    398    399 189.7   1.7  34196  290.18 0854.45
2009/04/23 16:02:58.1    -125   -480    126    497    513 194.6  14.3  34174  289.81 0854.45
2009/04/23 16:02:58.2    -347   -550    -14    651    652 212.2  -1.3  34184  289.99 0854.45
2009/04/23 16:02:58.3    -213   -530   -143    572    590 201.9 -14.1  34164  289.63 0854.46
2009/04/23 16:02:58.4    -194   -573      2    606    607 198.7   0.2  34180  289.90 0854.46
2009/04/23 16:02:58.5    -217   -458    -19    507    508 205.4  -2.2  34172  289.76 0854.46
2009/04/23 16:02:58.6    -120   -516     63    530    534 193.2   6.9  34186  290.02 0854.46
2009/04/23 16:02:58.7    -179   -477     85    510    518 200.6   9.5  34178  289.88 0854.46
2009/04/23 16:02:58.8    -107   -470    104    483    495 192.9  12.2  34184  289.98 0854.46
2009/04/23 16:02:58.9      -6   -438    204    439    484 180.8  26.6  34148  289.37 0854.46
2009/04/23 16:02:59.0      41   -399     12    402    403 174.0   1.7  34170  289.74 0854.46
2009/04/23 16:02:59.1      85   -418    -86    427    436 168.4 -11.5  34152  289.44 0854.46
2009/04/23 16:02:59.2      20   -380    -74    381    389 176.9 -11.1  34152  289.45 0854.46
2009/04/23 16:02:59.3      -5   -511    -33    512    514 180.6  -3.7  34172  289.78 0854.46
2009/04/23 16:02:59.4     -43   -477     -9    479    480 185.2  -1.2  34168  289.71 0854.46
2009/04/23 16:02:59.5     -33   -491    -27    493    494 183.9  -3.2  34160  289.56 0854.46
2009/04/23 16:02:59.6     -24   -496    -59    497    501 182.8  -6.9  34130  289.05 0854.46
2009/04/23 16:02:59.7      51   -439    -30    443    444 173.3  -3.9  34130  289.05 0854.46
2009/04/23 16:02:59.8      52   -471      5    474    475 173.7   0.7  34152  289.42 0854.46
2009/04/23 16:02:59.9     130   -430    108    450    463 163.1  13.5  34168  289.72 0854.46
2009/04/23 16:03:00.0     150   -401    100    429    441 159.5  13.2  34156  289.49 0854.46
2009/04/23 16:03:00.1     152   -398     87    427    437 159.1  11.6  34136  289.17 0854.46
2009/04/23 16:03:00.2      68   -333    153    341    373 168.4  25.8  34148  289.37 0854.46
2009/04/23 16:03:00.3     116   -284    165    308    349 157.7  30.5  34126  288.99 0854.47
2009/04/23 16:03:00.4       4   -336    103    337    353 179.2  17.1  34150  289.40 0854.47
2009/04/23 16:03:00.5      27   -376    176    377    416 175.8  26.9  34136  289.16 0854.47
2009/04/23 16:03:00.6      60   -352    187    358    403 170.3  29.6  34156  289.50 0854.47
2009/04/23 16:03:00.7      25   -380    236    381    448 176.1  34.9  34172  289.77 0854.47
2009/04/23 16:03:00.8     -17   -328    163    329    367 183.1  28.4  34158  289.54 0854.47
2009/04/23 16:03:00.9      22   -316      6    317    318 176.0   1.1  34138  289.19 0854.47
2009/04/23 16:03:01.0      29   -446    -46    447    450 176.2  -5.9  34158  289.53 0854.47
2009/04/23 16:03:01.1     127   -501      1    518    519 165.7   0.2  34142  289.28 0854.47
2009/04/23 16:03:01.2      89   -498     15    507    508 169.8   1.7  34130  289.08 0854.47
2009/04/23 16:03:01.3     117   -488    100    502    512 166.5  11.3  34120  288.88 0854.47
2009/04/23 16:03:01.4     129   -388    127    410    430 161.5  17.3  34126  289.00 0854.47
2009/04/23 16:03:01.5     124   -405     83    424    433 163.0  11.1  34128  289.04 0854.47
2009/04/23 16:03:01.6     -15   -350    215    351    411 182.6  34.4  34126  288.98 0854.47
2009/04/23 16:03:01.7     -24   -400    242    401    468 183.5  34.0  34162  289.61 0854.47
2009/04/23 16:03:01.8     -39   -421    262    423    497 185.4  34.9  34134  289.13 0854.47
2009/04/23 16:03:01.9     -83   -311    277    322    424 195.1  45.0  34136  289.15 0854.47
2009/04/23 16:03:02.0     -49   -358    310    362    476 187.8  45.0  34134  289.12 0854.47
2009/04/23 16:03:02.1      26   -289    261    291    390 174.7  46.6  34138  289.20 0854.47
2009/04/23 16:03:02.2      44   -311    325    315    452 171.9  51.2  34134  289.12 0854.47
2009/04/23 16:03:02.3     216   -117    345    246    423 118.6  61.2  34158  289.54 0854.47
2009/04/23 16:03:02.4     249    -62    195    257    322 104.1  41.2  34178  289.86 0854.47
2009/04/23 16:03:02.5      42   -304     84    308    320 172.0  15.4  34136  289.17 0854.47
2009/04/23 16:03:02.6     -40   -282     56    285    291 188.1  11.1  34132  289.10 0854.47
2009/04/23 16:03:02.7     -83   -156    111    177    208 208.1  35.5  34130  289.08 0854.47
2009/04/23 16:03:02.8     -25   -133    158    136    208 190.7  55.0  34142  289.26 0854.47
2009/04/23 16:03:02.9      -4   -102    200    103    224 182.2  70.8  34160  289.58 0854.47
2009/04/23 16:03:03.0     -37      7    126     38    131 281.4  82.7  34174  289.80 0854.47
2009/04/23 16:03:03.1     -60     60    141     85    164 314.9  66.0  34162  289.62 0854.47
2009/04/23 16:03:03.2     -24     79    202     83    218 342.6  77.0  34164  289.63 0854.47
2009/04/23 16:03:03.3       0      7    189      8    189 355.5  90.0  34168  289.70 0854.46
2009/04/23 16:03:03.4      29    -84    207     90    225 160.8  75.0  34170  289.74 0854.46
2009/04/23 16:03:03.5     209     83     72    225    237  68.3  17.9  34160  289.56 0854.46
2009/04/23 16:03:03.6      61    202    -26    212    214  16.9  -7.2  34154  289.48 0854.46
2009/04/23 16:03:03.7     -78    148    -48    168    174 332.1 -21.2  34182  289.94 0854.46
2009/04/23 16:03:03.8     132    135    113    190    221  44.3  33.5  34190  290.09 0854.46
2009/04/23 16:03:03.9     285     67    213    293    362  76.7  39.7  34280  291.62 0854.46
2009/04/23 16:03:04.0     212    160    187    266    325  52.9  38.5  34276  291.55 0854.46
2009/04/23 16:03:04.1     121    191    142    227    267  32.3  35.5  34282  291.65 0854.46
2009/04/23 16:03:04.2      29     61    147     68    161  25.4  73.8  34276  291.54 0854.46
2009/04/23 16:03:04.3      34    101    133    107    170  18.7  56.9  34246  291.04 0854.46
2009/04/23 16:03:04.4     115     20    241    117    267  79.9  72.7  34204  290.31 0854.46
2009/04/23 16:03:04.5     133     83    206    157    259  58.0  59.0  34212  290.45 0854.46
2009/04/23 16:03:04.6     127     70    244    145    283  61.1  66.7  34292  291.82 0854.46
2009/04/23 16:03:04.7      58      1    168     59    178  88.3  80.2  34258  291.25 0854.46
2009/04/23 16:03:04.8      14     -4    151     15    151 108.4  90.0  34230  290.77 0854.46
2009/04/23 16:03:04.9      99    -17    147    101    178  99.7  62.1  34182  289.94 0854.46
2009/04/23 16:03:05.0     170    -75    143    187    235 114.0  41.4  34178  289.89 0854.46
2009/04/23 16:03:05.1      96     -2     77     97    123  91.7  42.2  34184  289.99 0854.46
2009/04/23 16:03:05.2      85     15    110     87    140  79.9  57.9  34194  290.16 0854.46
2009/04/23 16:03:05.3     219     10    220    220    311  87.2  50.1  34220  290.58 0854.47
2009/04/23 16:03:05.4     164     74    231    181    293  65.6  58.2  34226  290.68 0854.47
2009/04/23 16:03:05.5      16    -26    143     31    146 147.5  89.0  34210  290.43 0854.47
2009/04/23 16:03:05.6      98    -54     83    113    140 118.9  39.7  34192  290.13 0854.47
2009/04/23 16:03:05.7      38    -59     71     71    100 147.5  50.1  34156  289.52 0854.47
2009/04/23 16:03:05.8      45    -19     56     50     75 113.5  53.3  34164  289.65 0854.47
2009/04/23 16:03:05.9     119    -55     19    132    134 114.8   8.5  34176  289.85 0854.47
2009/04/23 16:03:06.0     132    -15    130    133    185  96.6  49.4  34202  290.30 0854.47
2009/04/23 16:03:06.1      25    -42     32     49     58 149.3  35.6  34200  290.25 0854.47
2009/04/23 16:03:06.2      14    -27    -63     31     70 152.8 -77.2  34198  290.23 0854.47
2009/04/23 16:03:06.3      53    -49     -9     73     74 133.1  -7.3  34202  290.30 0854.47
2009/04/23 16:03:06.4      50    -36     54     62     82 126.0  45.8  34196  290.19 0854.47
2009/04/23 16:03:06.5      -9    -30     10     32     34 196.9  17.3  34200  290.26 0854.47
2009/04/23 16:03:06.6     -16     26    -23     31     38 327.5 -46.1  34210  290.41 0854.47
2009/04/23 16:03:06.7     -17     51    -54     54     76 341.5 -54.5  34204  290.31 0854.47
2009/04/23 16:03:06.8     -35    100    -56    107    120 340.4 -33.7  34224  290.65 0854.47
2009/04/23 16:03:06.9     -52     91     -2    106    107 330.1  -1.3  34230  290.75 0854.47
2009/04/23 16:03:07.0    -141     10     92    142    169 274.4  36.0  34188  290.06 0854.47
2009/04/23 16:03:07.1    -164    -11     -9    165    166 265.9  -3.1  34176  289.84 0854.47
2009/04/23 16:03:07.2    -269    -35    -15    272    273 262.5  -3.3  34182  289.95 0854.47
2009/04/23 16:03:07.3    -383    -50    -36    387    389 262.6  -5.3  34162  289.62 0854.47
2009/04/23 16:03:07.4    -427    -68     24    433    434 260.9   3.3  34178  289.87 0854.47
2009/04/23 16:03:07.5    -259      3    -92    260    277 270.8 -19.6  34180  289.92 0854.47
2009/04/23 16:03:07.6    -200     48    -50    206    212 283.7 -13.7  34180  289.91 0854.47
2009/04/23 16:03:07.7    -162     32    -51    166    174 281.2 -17.3  34178  289.87 0854.47
2009/04/23 16:03:07.8    -149     25    -19    152    154 279.7  -7.2  34192  290.11 0854.47
2009/04/23 16:03:07.9    -160     -9    115    161    197 266.5  39.3  34212  290.45 0854.47
2009/04/23 16:03:08.0    -123     15    106    124    163 277.0  45.4  34182  289.96 0854.47
2009/04/23 16:03:08.1    -132     97    103    165    194 306.4  35.5  34220  290.60 0854.47
2009/04/23 16:03:08.2     -98    192     75    216    229 333.0  19.2  34292  291.83 0854.47
2009/04/23 16:03:08.3     -70    211     64    223    233 341.7  16.0  34292  291.81 0854.47
2009/04/23 16:03:08.4       3    248     77    249    261   0.9  17.3  34298  291.90 0854.47
2009/04/23 16:03:08.5      38    169    146    174    227  12.7  44.1  34304  292.03 0854.47
2009/04/23 16:03:08.6      86     73    169    114    203  49.6  62.8  34256  291.21 0854.47
2009/04/23 16:03:08.7      63     76    133    100    166  39.7  59.4  34280  291.60 0854.47
2009/04/23 16:03:08.8      11    146     77    147    165   4.5  30.1  34248  291.08 0854.47
2009/04/23 16:03:08.9     -42    185     59    190    199 347.1  17.3  34144  289.30 0854.47
2009/04/23 16:03:09.0     -70    153     85    169    189 335.5  28.5  34184  289.97 0854.47
2009/04/23 16:03:09.1     -82    197     57    214    222 337.3  15.0  34170  289.74 0854.47
2009/04/23 16:03:09.2     -72    158     90    174    195 335.3  29.3  34194  290.14 0854.47
2009/04/23 16:03:09.3     -65    144     72    159    174 335.5  26.2  34172  289.77 0854.49
2009/04/23 16:03:09.4      30     75    105     81    132  21.9  58.4  34196  290.18 0854.49
2009/04/23 16:03:09.5      12    -51    125     53    135 166.6  75.5  34244  290.99 0854.49
2009/04/23 16:03:09.6      23     58    156     63    168  21.9  77.1  34240  290.92 0854.49
2009/04/23 16:03:09.7    -166   -109     72    199    211 236.7  20.7  34262  291.32 0854.49
2009/04/23 16:03:09.8    -169   -209    202    269    336 219.0  40.6  34190  290.09 0854.49
2009/04/23 16:03:09.9    -142   -222    216    264    341 212.6  43.6  34162  289.61 0854.49
2009/04/23 16:03:10.0     130   -160    233    207    311 141.0  53.7  34206  290.36 0854.49
2009/04/23 16:03:10.1      27   -312    301    314    434 174.9  48.8  34136  289.18 0854.49
2009/04/23 16:03:10.2      -6   -350    278    351    447 181.0  42.4  34152  289.44 0854.49
2009/04/23 16:03:10.3     -75   -396    307    404    507 190.7  41.2  34166  289.66 0854.49
2009/04/23 16:03:10.4     107   -337    184    354    398 162.3  29.6  34188  290.06 0854.49
2009/04/23 16:03:10.5     -48   -346     99    350    364 187.9  15.8  34182  289.94 0854.49
2009/04/23 16:03:10.6      -6   -245    178    246    303 181.6  39.7  34184  289.97 0854.49
2009/04/23 16:03:10.7      35   -278    113    281    302 172.7  23.1  34210  290.41 0854.49
2009/04/23 16:03:10.8      35   -233    219    236    321 171.3  47.8  34162  289.59 0854.49
2009/04/23 16:03:10.9     -47   -234    173    239    295 191.6  39.5  34154  289.47 0854.49
2009/04/23 16:03:11.0      14   -191     86    192    210 175.5  25.9  34188  290.04 0854.49
2009/04/23 16:03:11.1      45   -134     36    142    147 161.3  14.3  34210  290.43 0854.49
2009/04/23 16:03:11.2      72   -132    -19    151    153 151.1  -7.2  34194  290.16 0854.49
2009/04/23 16:03:11.3      16   -152    -59    153    163 173.8 -26.4  34192  290.11 0854.49
2009/04/23 16:03:11.4    -125   -146    -79    193    208 220.5 -27.8  34156  289.52 0854.49
2009/04/23 16:03:11.5    -183    -22    -53    185    192 263.0 -21.0  34148  289.38 0854.49
2009/04/23 16:03:11.6    -232   -122   -104    263    282 242.2 -27.2  34150  289.39 0854.49
2009/04/23 16:03:11.7    -267     37   -190    270    330 277.9 -42.9  34148  289.36 0854.49
2009/04/23 16:03:11.8     -72     74   -176    104    204 315.5 -71.2  34156  289.52 0854.49
2009/04/23 16:03:11.9     -15     58    -72     61     94 344.8 -59.8  34158  289.53 0854.49
2009/04/23 16:03:12.0       0     35    -48     36     60 359.1 -63.8  34166  289.69 0854.49
2009/04/23 16:03:12.1      84    -57     -4    102    103 124.2  -2.2  34158  289.53 0854.49
2009/04/23 16:03:12.2      96   -100    -12    139    140 136.3  -5.2  34158  289.55 0854.49
2009/04/23 16:03:12.3      86    -86     19    123    125 135.0   8.9  34152  289.45 0854.49
2009/04/23 16:03:12.4      74    -74     72    105    127 134.9  37.6  34164  289.65 0854.49
2009/04/23 16:03:12.5     -32      7     29     33     43 283.3  46.9  34176  289.84 0854.49
2009/04/23 16:03:12.6     -11     35     -4     37     38 341.7  -7.2  34174  289.82 0854.49
2009/04/23 16:03:12.7      36      6    -63     37     73  80.3 -71.2  34174  289.80 0854.49
2009/04/23 16:03:12.8      25     98    -61    102    118  14.7 -37.9  34178  289.87 0854.49
2009/04/23 16:03:12.9      60     89    -76    108    132  34.3 -43.0  34182  289.94 0854.49
2009/04/23 16:03:13.0     105    105    -42    149    155  45.0 -15.8  34168  289.72 0854.49
2009/04/23 16:03:13.1      71    215     89    227    243  18.3  22.3  34188  290.03 0854.49
2009/04/23 16:03:13.2      -2    182    107    183    211 359.3  33.4  34182  289.96 0854.49
2009/04/23 16:03:13.3     -34    171    144    175    226 348.5  43.7  34186  290.01 0854.48
2009/04/23 16:03:13.4     -34    195    144    199    245 350.0  39.7  34176  289.85 0854.48
2009/04/23 16:03:13.5     180    132    188    224    292  53.6  44.1  34222  290.63 0854.48
2009/04/23 16:03:13.6     244    189    191    309    363  52.3  34.9  34256  291.20 0854.48
2009/04/23 16:03:13.7     119    213    179    245    303  29.2  39.7  34294  291.85 0854.48
2009/04/23 16:03:13.8      54    268    118    274    298  11.6  25.1  34206  290.36 0854.48
2009/04/23 16:03:13.9     150    195     72    247    258  37.6  16.4  34196  290.19 0854.48
2009/04/23 16:03:14.0     127    150     84    197    214  40.3  24.3  34260  291.26 0854.48
2009/04/23 16:03:14.1     120    136     50    182    189  41.4  15.6  34236  290.87 0854.48
2009/04/23 16:03:14.2     169    104    -63    199    209  58.5 -17.6  34258  291.23 0854.48
2009/04/23 16:03:14.3     169     79    -10    187    188  64.8  -3.3  34228  290.74 0854.48
2009/04/23 16:03:14.4     191    -56    -32    200    203 106.4  -9.3  34186  290.01 0854.48
2009/04/23 16:03:14.5     327     36    -32    330    332  83.6  -5.6  34200  290.25 0854.48
2009/04/23 16:03:14.6     243    139    247    280    373  60.2  45.9  34204  290.32 0854.48
2009/04/23 16:03:14.7     508    273    351    577    675  61.7  34.2  34180  289.91 0854.48
2009/04/23 16:03:14.8     164    195    317    255    406  40.1  57.1  34220  290.60 0854.48
2009/04/23 16:03:14.9     211     57    308    219    377  74.9  61.1  34196  290.18 0854.48
2009/04/23 16:03:15.0     461    -35    314    463    559  94.4  37.4  34282  291.65 0854.48
2009/04/23 16:03:15.1     305   -192    177    361    402 122.1  28.1  34248  291.05 0854.48
2009/04/23 16:03:15.2     440   -200    142    484    505 114.5  16.4  34212  290.45 0854.47
2009/04/23 16:03:15.3     412   -249    245    482    540 121.2  29.1  34220  290.60 0854.47
2009/04/23 16:03:15.4     287   -288     31    407    409 135.1   4.4  34238  290.89 0854.47
2009/04/23 16:03:15.5     330   -331    206    468    511 135.1  25.2  34262  291.29 0854.47
2009/04/23 16:03:15.6     351   -380    177    518    548 137.3  18.9  34276  291.54 0854.47
2009/04/23 16:03:15.7     206   -426    178    474    506 154.1  21.5  34272  291.46 0854.47
2009/04/23 16:03:15.8     210   -483    170    527    554 156.5  17.9  34268  291.42 0854.47
2009/04/23 16:03:15.9     116   -467    207    482    524 166.0  24.8  34278  291.58 0854.47
2009/04/23 16:03:16.0      58   -472    290    476    557 172.9  34.4  34284  291.69 0854.47
2009/04/23 16:03:16.1      40   -394    285    397    488 174.2  39.3  34252  291.14 0854.47
2009/04/23 16:03:16.2      59   -331    313    337    459 169.8  47.9  34240  290.92 0854.47
2009/04/23 16:03:16.3      82   -304    219    316    384 164.8  38.0  34216  290.52 0854.47
2009/04/23 16:03:16.4      39   -331    207    334    392 173.2  34.5  34224  290.67 0854.47
2009/04/23 16:03:16.5     -19   -259    158    260    304 184.4  34.2  34236  290.87 0854.47
2009/04/23 16:03:16.6     -18   -237    206    238    314 184.4  45.4  34238  290.90 0854.47
2009/04/23 16:03:16.7     -74   -222    155    235    281 198.5  36.5  34236  290.87 0854.47
2009/04/23 16:03:16.8     -61    -86     99    106    145 215.2  48.0  34252  291.15 0854.47
2009/04/23 16:03:16.9       0    -27    138     28    140 180.9  89.0  34256  291.20 0854.47
2009/04/23 16:03:17.0     -61    -43    105     75    129 234.9  60.6  34254  291.16 0854.47
2009/04/23 16:03:17.1     -87    136    156    162    224 327.5  49.0  34238  290.91 0854.47
2009/04/23 16:03:17.2      24    225    143    227    268   6.2  35.5  34226  290.68 0854.47
2009/04/23 16:03:17.3     135    254    115    288    310  28.1  23.0  34220  290.59 0854.47
2009/04/23 16:03:17.4      12    275    107    276    296   2.7  22.5  34234  290.82 0854.47
2009/04/23 16:03:17.5      27    264     87    266    280   6.0  18.1  34242  290.95 0854.47
2009/04/23 16:03:17.6      37    232     33    236    239   9.1   8.0  34240  290.92 0854.47
2009/04/23 16:03:17.8      35    197     60    201    210  10.2  16.6  34250  291.11 0854.47
2009/04/23 16:03:17.9      44    122     58    130    142  20.1  25.2  34242  290.98 0854.47
2009/04/23 16:03:18.0      42    -24    114     49    124 119.8  75.5  34232  290.81 0854.47
2009/04/23 16:03:18.1     -52    -10    103     54    116 258.5  70.4  34256  291.21 0854.47
2009/04/23 16:03:18.2     -92    -22    130     95    161 256.3  60.3  34244  290.99 0854.47
2009/04/23 16:03:18.3     -40     33    170     52    177 309.5  82.5  34244  291.01 0854.47
2009/04/23 16:03:18.4     246     59    115    254    278  76.5  26.2  34232  290.78 0854.47
2009/04/23 16:03:18.5     191     76    -16    206    207  68.3  -4.6  34242  290.96 0854.47
2009/04/23 16:03:18.6     -61     82    114    103    153 323.0  52.7  34236  290.86 0854.47
2009/04/23 16:03:18.7     -28    147    136    150    202 348.9  47.1  34254  291.16 0854.47
2009/04/23 16:03:18.8    -120    147     81    190    206 320.8  24.6  34270  291.43 0854.47
2009/04/23 16:03:18.9     -78     48      0     92     93 302.0   0.2  34258  291.23 0854.47
2009/04/23 16:03:19.0    -242    -96     51    261    267 248.3  11.1  34244  291.00 0854.47
2009/04/23 16:03:19.1    -126    -58      1    139    140 245.2   0.8  34234  290.82 0854.47
2009/04/23 16:03:19.2     108    103     53    150    160  46.4  19.4  34236  290.86 0854.47
2009/04/23 16:03:19.3     183    185    145    261    298  44.8  31.4  34246  291.02 0854.46
2009/04/23 16:03:19.4     364    297    100    470    481  50.8  12.1  34224  290.66 0854.46
2009/04/23 16:03:19.5     430    246    152    496    519  60.3  17.1  34218  290.57 0854.46
2009/04/23 16:03:19.6     407    238    260    472    538  59.7  31.3  34220  290.59 0854.46
2009/04/23 16:03:19.7     455    206    327    500    597  65.6  36.3  34226  290.70 0854.46
2009/04/23 16:03:19.8     397    185    298    439    530  65.0  37.6  34228  290.71 0854.46
2009/04/23 16:03:19.9     424    201    197    470    509  64.6  24.2  34220  290.59 0854.46
2009/04/23 16:03:20.0     598    156    236    619    662  75.3  22.0  34196  290.18 0854.46
2009/04/23 16:03:20.1     441     64    265    446    518  81.7  33.5  34162  289.62 0854.46
2009/04/23 16:03:20.2     304      4    305    305    431  89.2  50.1  34180  289.91 0854.46
2009/04/23 16:03:20.3     378   -104    268    393    475 105.4  37.6  34174  289.82 0854.46
2009/04/23 16:03:20.4     350   -251    254    431    500 125.7  33.1  34172  289.78 0854.46
2009/04/23 16:03:20.5     245   -195    299    314    433 128.6  48.5  34194  290.15 0854.46
2009/04/23 16:03:20.6     286   -146    183    322    370 117.1  32.3  34194  290.16 0854.46
2009/04/23 16:03:20.7     436   -137    234    458    514 107.5  29.2  34172  289.78 0854.46
2009/04/23 16:03:20.8     429   -235    216    490    535 118.8  25.2  34210  290.43 0854.46
2009/04/23 16:03:20.9     490   -134    206    508    548 105.3  23.4  34150  289.40 0854.46
2009/04/23 16:03:21.0     509   -152    182    532    563 106.6  18.9  34150  289.41 0854.46
2009/04/23 16:03:21.1     491    -97    131    501    518 101.2  14.7  34122  288.93 0854.46
2009/04/23 16:03:21.2     471      0     80    472    479  90.1   9.7  34154  289.47 0854.46
2009/04/23 16:03:21.3     413      2    173    414    448  89.6  24.1  34172  289.77 0854.44
2009/04/23 16:03:21.4     438     25    235    439    497  86.7  30.5  34196  290.18 0854.44
2009/04/23 16:03:21.5     479     17    238    480    535  87.9  28.4  34238  290.90 0854.44
2009/04/23 16:03:21.6     487    290    198    567    601  59.2  19.3  34220  290.58 0854.44
2009/04/23 16:03:21.7     535    147    218    555    596  74.6  22.7  34296  291.89 0854.44
2009/04/23 16:03:21.8     532     25    233    533    581  87.2  25.2  34244  290.99 0854.44
2009/04/23 16:03:21.9     605    123    219    618    655  78.5  20.2  34278  291.57 0854.44
2009/04/23 16:03:22.0     723    182    223    746    779  75.8  16.7  34280  291.60 0854.44
2009/04/23 16:03:22.1     628     95    293    636    700  81.4  26.5  34298  291.92 0854.44
2009/04/23 16:03:22.2     770    114    198    779    804  81.5  14.3  34202  290.30 0854.44
2009/04/23 16:03:22.3     653     68    211    657    691  84.0  17.8  34248  291.07 0854.44
2009/04/23 16:03:22.4     671    206    352    703    786  72.9  28.7  34270  291.43 0854.44
2009/04/23 16:03:22.5     503    208    364    545    655  67.5  36.9  34272  291.49 0854.44
2009/04/23 16:03:22.6     513    129    247    530    584  75.8  26.9  34248  291.06 0854.44
2009/04/23 16:03:22.7     641    203    370    673    768  72.4  31.3  34234  290.82 0854.44
2009/04/23 16:03:22.8     601     88    381    608    717  81.6  35.1  34198  290.22 0854.44
2009/04/23 16:03:22.9     405     59    270    410    490  81.7  36.5  34170  289.74 0854.44
2009/04/23 16:03:23.0     442      5    154    443    470  89.3  19.2  34152  289.44 0854.44
2009/04/23 16:03:23.1     108    332    124    350    372  18.0  19.5  34166  289.67 0854.44
2009/04/23 16:03:23.2      -9    313     89    314    327 358.2  15.9  34172  289.78 0854.44
2009/04/23 16:03:23.3    -181    215     50    282    287 319.9  10.1  34182  289.93 0854.44
2009/04/23 16:03:23.4     -51    304    118    309    330 350.4  21.7  34184  289.97 0854.44
2009/04/23 16:03:23.5    -236     10    183    237    299 272.6  41.7  34196  290.19 0854.44
2009/04/23 16:03:23.6    -300    -33    103    302    320 263.6  18.9  34190  290.09 0854.44
2009/04/23 16:03:23.7    -446    -62    120    451    467 262.0  14.9  34154  289.48 0854.44
2009/04/23 16:03:23.8    -510   -107   -173    522    549 258.1 -23.6  34112  288.77 0854.44
2009/04/23 16:03:23.9    -421    -85   -187    430    468 258.6 -29.5  34108  288.68 0854.44
2009/04/23 16:03:24.0    -296     22   -147    297    331 274.3 -32.8  34102  288.58 0854.44
2009/04/23 16:03:24.1    -195     92   -156    216    266 295.3 -43.9  34102  288.59 0854.44
2009/04/23 16:03:24.2    -179     10    -45    180    186 273.3 -14.3  34106  288.67 0854.44
2009/04/23 16:03:24.3    -277     59    -84    284    296 282.2 -21.5  34102  288.58 0854.45
2009/04/23 16:03:24.4    -542    160   -132    566    582 286.5 -13.2  34120  288.90 0854.45
2009/04/23 16:03:24.5    -409     83   -265    418    494 281.5 -39.9  34118  288.86 0854.45
2009/04/23 16:03:24.6    -128    130   -136    183    228 315.5 -44.5  34124  288.97 0854.45
2009/04/23 16:03:24.7      -5    289    -11    290    291 358.9  -2.2  34134  289.14 0854.45
2009/04/23 16:03:24.8    -119    170   -192    208    283 325.0 -52.1  34142  289.27 0854.45
2009/04/23 16:03:24.9    -270    194    -77    333    342 305.7 -13.1  34148  289.37 0854.45
2009/04/23 16:03:25.0    -212    294    -60    363    369 324.2  -9.5  34152  289.45 0854.45
2009/04/23 16:03:25.1    -233    207    -34    312    314 311.6  -6.3  34166  289.68 0854.45
2009/04/23 16:03:25.2    -249     70   -144    259    296 285.9 -35.8  34144  289.29 0854.45
2009/04/23 16:03:25.3    -269    376    -92    463    473 324.4 -11.3  34164  289.64 0854.45
2009/04/23 16:03:25.4    -202    346    -39    401    403 329.7  -5.6  34160  289.56 0854.45
2009/04/23 16:03:25.5    -154    237    -92    283    297 327.0 -23.3  34166  289.66 0854.45
2009/04/23 16:03:25.6    -146    246     -5    287    288 329.3  -1.2  34162  289.59 0854.45
2009/04/23 16:03:25.7    -402    364   -200    543    578 312.2 -25.5  34138  289.21 0854.45
2009/04/23 16:03:25.8    -355    234    -30    426    428 303.4  -4.1  34162  289.60 0854.45
2009/04/23 16:03:25.9    -471    240    -68    529    534 297.1  -7.4  34158  289.55 0854.45
2009/04/23 16:03:26.0    -397    327   -149    515    537 309.5 -16.2  34150  289.41 0854.45
2009/04/23 16:03:26.1    -502    396    -77    640    645 308.3  -6.9  34140  289.23 0854.45
2009/04/23 16:03:26.2    -482    181    -60    515    519 290.6  -6.7  34142  289.25 0854.45
2009/04/23 16:03:26.3    -636    118    -20    647    648 280.6  -1.8  34146  289.33 0854.42
2009/04/23 16:03:26.4    -748     87    -36    754    755 276.7  -2.8  34134  289.14 0854.42
2009/04/23 16:03:26.5    -657    141    199    673    702 282.2  16.5  34144  289.29 0854.42
2009/04/23 16:03:26.6    -631    -27    210    632    666 267.5  18.4  34130  289.08 0854.42
2009/04/23 16:03:26.7    -661     95     36    668    670 278.2   3.1  34152  289.43 0854.42
2009/04/23 16:03:26.8    -807     28   -116    808    817 272.0  -8.2  34134  289.14 0854.42
2009/04/23 16:03:26.9    -602   -103    150    612    631 260.2  13.8  34134  289.13 0854.42
2009/04/23 16:03:27.0    -386    -14    163    387    419 267.9  24.2  34144  289.29 0854.42
2009/04/23 16:03:27.1    -347   -194    222    398    455 240.8  31.4  34146  289.33 0854.42
2009/04/23 16:03:27.2    -476   -199    269    517    582 247.3  29.8  34148  289.38 0854.42
2009/04/23 16:03:27.3    -533   -186    184    565    595 250.7  18.0  34154  289.47 0854.42
2009/04/23 16:03:27.4    -595     60    199    599    632 275.8  18.4  34162  289.60 0854.42
2009/04/23 16:03:27.5    -522    209    191    563    595 291.8  18.8  34162  289.59 0854.42
2009/04/23 16:03:27.6    -463    161    159    491    517 289.2  17.9  34170  289.73 0854.42
2009/04/23 16:03:27.7    -417     58    102    422    435 278.0  13.7  34174  289.82 0854.42
2009/04/23 16:03:27.8    -368     16    129    369    390 272.5  20.0  34182  289.94 0854.42
2009/04/23 16:03:27.9    -150     10     60    151    162 273.9  22.5  34186  290.01 0854.42
2009/04/23 16:03:28.0       3    -44     86     45     97 175.5  70.4  34190  290.08 0854.42
2009/04/23 16:03:28.1     -26     12     17     29     33 295.3  33.5  34188  290.04 0854.42
2009/04/23 16:03:28.2      15     12    -31     20     36  50.5 -69.1  34180  289.92 0854.42
2009/04/23 16:03:28.3      70     33    -23     78     82  64.6 -17.0  34180  289.92 0854.36
2009/04/23 16:03:28.4      17     26     41     32     52  32.5  57.5  34182  289.96 0854.36
2009/04/23 16:03:28.5      47     13     68     49     83  74.1  60.5  34190  290.09 0854.36
2009/04/23 16:03:28.6      55     -4     23     56     60  94.3  23.1  34184  289.97 0854.36
2009/04/23 16:03:28.7     -35     -2     41     36     54 265.6  53.3  34186  290.02 0854.36
2009/04/23 16:03:28.8     -53      8     26     54     59 278.8  27.3  34196  290.18 0854.36
2009/04/23 16:03:28.9    -264    -75     22    275    276 254.1   4.6  34196  290.19 0854.36
2009/04/23 16:03:29.0    -328   -107    -18    346    347 251.8  -3.0  34198  290.21 0854.36
2009/04/23 16:03:29.1    -447   -166   -151    477    501 249.6 -17.6  34160  289.57 0854.36
2009/04/23 16:03:29.2    -400    138   -117    424    441 289.1 -15.5  34174  289.82 0854.36
2009/04/23 16:03:29.3    -393    -73   -110    400    415 259.4 -15.4  34186  290.02 0854.36
2009/04/23 16:03:29.4    -267    136    -68    300    308 297.1 -12.9  34166  289.66 0854.36
2009/04/23 16:03:29.5     -90    311   -110    324    343 343.7 -18.8  34154  289.48 0854.36
2009/04/23 16:03:29.6    -114    299     17    321    322 339.1   3.1  34156  289.51 0854.36
2009/04/23 16:03:29.7     -59    211    -12    220    221 344.4  -3.2  34166  289.69 0854.36
2009/04/23 16:03:29.8      41    225    -12    229    230  10.5  -3.1  34148  289.36 0854.36
2009/04/23 16:03:29.9      74    293     69    303    311  14.2  12.9  34162  289.61 0854.36
2009/04/23 16:03:30.0     -69    256    -19    266    267 344.8  -4.1  34148  289.37 0854.36
2009/04/23 16:03:30.1      -3    245     -9    246    247 359.3  -2.3  34172  289.76 0854.36
2009/04/23 16:03:30.2     -25    174    -52    176    183 351.8 -21.5  34170  289.75 0854.36
2009/04/23 16:03:30.3     104     42    -98    113    149  67.8 -49.8  34174  289.80 0854.37
2009/04/23 16:03:30.4     -13     30    -33     33     46 336.4 -54.5  34184  289.97 0854.37
2009/04/23 16:03:30.5      25    -25     24     36     43 135.0  37.6  34186  290.02 0854.37
2009/04/23 16:03:30.6      20     45     50     50     70  23.6  50.1  34196  290.18 0854.37
2009/04/23 16:03:30.7     -10     53     98     55    112 348.5  68.8  34206  290.36 0854.37
2009/04/23 16:03:30.8      30     33    124     45    131  42.3  79.7  34196  290.18 0854.37
2009/04/23 16:03:30.9      27     67     98     73    122  21.8  59.4  34198  290.23 0854.37
2009/04/23 16:03:31.0      25    124     70    127    145  11.6  31.4  34180  289.92 0854.37
2009/04/23 16:03:31.1      74    142    119    161    200  27.6  40.1  34188  290.06 0854.37
2009/04/23 16:03:31.2     162    152    214    223    309  46.9  49.0  34190  290.07 0854.37
2009/04/23 16:03:31.3     285     39    135    288    318  82.1  27.0  34168  289.71 0854.37
2009/04/23 16:03:31.4     251    115    197    277    339  65.4  39.0  34180  289.92 0854.37
2009/04/23 16:03:31.5     192    -67    252    204    324 109.3  56.9  34196  290.19 0854.37
2009/04/23 16:03:31.6     135     61    212    149    259  65.6  61.5  34192  290.13 0854.37
2009/04/23 16:03:31.7     303    173    189    350    397  60.3  30.7  34172  289.79 0854.37
2009/04/23 16:03:31.8     145    144    166    205    263  45.2  43.5  34194  290.14 0854.37
2009/04/23 16:03:31.9     196    104     92    222    240  62.0  24.1  34186  290.02 0854.37
2009/04/23 16:03:32.0     244     37     21    247    248  81.2   4.9  34178  289.88 0854.37
2009/04/23 16:03:32.1     279    121    -23    305    306  66.5  -4.4  34174  289.80 0854.37
2009/04/23 16:03:32.2     296    -36    148    299    333  97.0  28.2  34184  289.98 0854.37
2009/04/23 16:03:32.3     194    -59    232    203    308 107.1  54.3  34192  290.10 0854.43
2009/04/23 16:03:32.4     222   -117    139    252    287 117.8  31.4  34184  289.98 0854.43
2009/04/23 16:03:32.5     302    -46    150    306    340  98.8  28.1  34182  289.94 0854.43
2009/04/23 16:03:32.6     183    -86    113    203    232 115.2  31.4  34180  289.92 0854.43
2009/04/23 16:03:32.7     119    -19    106    121    160  99.2  45.8  34182  289.94 0854.43
2009/04/23 16:03:32.8     146    -58    121    158    199 111.8  41.4  34196  290.18 0854.43
2009/04/23 16:03:32.9      73    -76     90    106    139 136.3  44.3  34206  290.35 0854.43
2009/04/23 16:03:33.0      59     22    160     64    172  69.2  77.4  34204  290.31 0854.43
2009/04/23 16:03:33.1       0    -93    124     94    155 180.0  59.0  34198  290.21 0854.43
2009/04/23 16:03:33.2      -5    -74    107     75    130 184.4  61.5  34206  290.36 0854.43
2009/04/23 16:03:33.3     -16   -213    264    214    339 184.5  56.8  34206  290.34 0854.43
2009/04/23 16:03:33.4      52   -268    152    274    313 168.9  31.5  34198  290.20 0854.43
2009/04/23 16:03:33.5     -75   -228     99    241    260 198.3  23.6  34202  290.29 0854.43
2009/04/23 16:03:33.6    -266   -263     97    375    388 225.3  14.5  34228  290.71 0854.43
2009/04/23 16:03:33.7    -173   -238    -46    295    299 216.1  -9.0  34224  290.65 0854.43
2009/04/23 16:03:33.8    -190   -328    -89    380    391 210.1 -13.2  34204  290.32 0854.43
2009/04/23 16:03:33.9    -168   -357    -71    395    402 205.3 -10.3  34182  289.96 0854.43
2009/04/23 16:03:34.0    -138   -356    -45    382    385 201.2  -6.8  34188  290.06 0854.43
2009/04/23 16:03:34.1    -215   -421     -1    473    474 207.1  -0.2  34196  290.18 0854.43
2009/04/23 16:03:34.2     -99   -386    125    399    419 194.5  17.4  34204  290.33 0854.43
2009/04/23 16:03:34.3     -98   -389    142    402    427 194.2  19.5  34212  290.46 0854.46
2009/04/23 16:03:34.4     -95   -291    163    307    347 198.0  30.3  34212  290.47 0854.46
2009/04/23 16:03:34.5      -5   -231    159    232    281 181.4  37.6  34198  290.20 0854.46
2009/04/23 16:03:34.6      18   -298    107    299    317 176.5  20.6  34194  290.15 0854.46
2009/04/23 16:03:34.7     -40   -269     85    272    286 188.5  17.4  34192  290.12 0854.46
2009/04/23 16:03:34.8      62   -187     54    198    206 161.5  15.3  34190  290.09 0854.46
2009/04/23 16:03:34.9      40   -198    -65    203    213 168.4 -23.3  34184  289.97 0854.46
2009/04/23 16:03:35.0     164   -163    -42    232    236 134.7 -10.5  34190  290.07 0854.46
2009/04/23 16:03:35.1     193   -182    -28    266    268 133.2  -6.2  34188  290.05 0854.46
2009/04/23 16:03:35.2     162   -173    -16    238    239 136.8  -3.9  34190  290.07 0854.46
2009/04/23 16:03:35.3     130   -116    -22    175    177 131.8  -7.3  34190  290.08 0854.46
2009/04/23 16:03:35.4     125   -129     40    181    186 135.9  12.6  34178  289.89 0854.46
2009/04/23 16:03:35.5      82   -168     86    188    206 153.9  26.4  34184  289.99 0854.46
2009/04/23 16:03:35.6     102   -149     74    181    195 145.5  23.4  34172  289.79 0854.46
2009/04/23 16:03:35.7     113   -141    115    181    214 141.3  35.5  34162  289.62 0854.46
2009/04/23 16:03:35.8      81   -170    169    189    253 154.6  46.9  34162  289.59 0854.46
2009/04/23 16:03:35.9      72   -214    201    226    302 161.3  46.4  34188  290.03 0854.46
2009/04/23 16:03:36.0     -36   -257    214    260    336 188.0  43.7  34192  290.12 0854.46
2009/04/23 16:03:36.1      12   -251    152    252    294 177.1  33.7  34194  290.14 0854.46
2009/04/23 16:03:36.2     -53   -290    153    295    332 190.5  29.6  34196  290.17 0854.46
2009/04/23 16:03:36.3     -85   -319    176    331    374 194.9  30.3  34196  290.18 0854.50
2009/04/23 16:03:36.4     -56   -342     81    347    357 189.4  13.1  34194  290.15 0854.50
2009/04/23 16:03:36.5     -17   -279     -5    280    281 183.6  -1.1  34194  290.15 0854.50
2009/04/23 16:03:36.6     -20   -303    -19    304    305 183.8  -3.7  34200  290.26 0854.50
2009/04/23 16:03:36.7      71   -322    -34    330    332 167.5  -5.9  34188  290.03 0854.50
2009/04/23 16:03:36.8      97   -365    -68    378    385 165.1 -10.3  34172  289.77 0854.50
2009/04/23 16:03:36.9     105   -338     85    354    365 162.7  13.5  34178  289.86 0854.50
2009/04/23 16:03:37.0     116   -430     53    446    450 164.8   6.9  34170  289.75 0854.50
2009/04/23 16:03:37.1      43   -425    136    428    450 174.2  17.7  34184  289.99 0854.50
2009/04/23 16:03:37.2     -11   -376    152    377    406 181.8  23.1  34178  289.86 0854.50
2009/04/23 16:03:37.3     -56   -361    177    366    406 188.8  27.7  34162  289.59 0854.50
2009/04/23 16:03:37.4     -98   -327     91    342    355 196.8  15.0  34178  289.89 0854.50
2009/04/23 16:03:37.5     -82   -306     59    317    323 195.1  10.6  34180  289.92 0854.50
2009/04/23 16:03:37.6      13   -304     -6    305    306 177.5  -1.3  34182  289.93 0854.50
2009/04/23 16:03:37.7     -18   -277    -36    278    281 183.8  -7.5  34180  289.92 0854.50
2009/04/23 16:03:37.8       3   -275     -6    276    277 179.3  -1.3  34186  290.00 0854.50
2009/04/23 16:03:37.9      21   -305    -36    306    309 176.0  -6.7  34186  290.02 0854.50
2009/04/23 16:03:38.0      56   -310    -41    316    319 169.8  -7.5  34166  289.68 0854.50
2009/04/23 16:03:38.1       5   -307     -1    308    309 179.0  -0.3  34158  289.53 0854.50
2009/04/23 16:03:38.2      -7   -300     -6    301    302 181.4  -1.3  34154  289.47 0854.50
2009/04/23 16:03:38.3       4   -332     -9    333    334 179.3  -1.6  34148  289.37 0854.50
2009/04/23 16:03:38.4      20   -270    -55    271    277 175.6 -11.5  34160  289.58 0854.50
2009/04/23 16:03:38.5      34   -265    -54    268    274 172.7 -11.5  34160  289.56 0854.50
2009/04/23 16:03:38.6       8   -260    -93    261    278 178.2 -19.7  34156  289.51 0854.50
2009/04/23 16:03:38.7     -18   -318    -55    319    324 183.4  -9.9  34138  289.20 0854.50
2009/04/23 16:03:38.8    -115   -390    -81    407    416 196.5 -11.3  34130  289.05 0854.50
2009/04/23 16:03:38.9     -62   -388    -75    394    402 189.1 -10.9  34122  288.93 0854.50
2009/04/23 16:03:39.0    -132   -393    -22    415    416 198.6  -3.1  34120  288.89 0854.50
2009/04/23 16:03:39.1      -8   -435     -2    436    437 181.2  -0.3  34124  288.95 0854.50
2009/04/23 16:03:39.2      45   -422    -56    425    429 173.8  -7.6  34120  288.90 0854.50
2009/04/23 16:03:39.3     -30   -494    -35    495    497 183.5  -4.1  34124  288.95 0854.50
2009/04/23 16:03:39.4    -164   -559    -42    583    585 196.4  -4.1  34138  289.20 0854.50
2009/04/23 16:03:39.5    -281   -570    -26    636    637 206.3  -2.4  34138  289.20 0854.50
2009/04/23 16:03:39.6    -177   -575     18    602    603 197.2   1.8  34136  289.15 0854.50
2009/04/23 16:03:39.7    -131   -558    -12    574    575 193.3  -1.3  34142  289.27 0854.50
2009/04/23 16:03:39.8    -286   -613    -33    677    678 205.0  -2.8  34142  289.27 0854.50
2009/04/23 16:03:39.9    -215   -674    129    708    720 197.7  10.4  34142  289.25 0854.50
2009/04/23 16:03:40.0    -249   -593    131    644    658 202.8  11.6  34132  289.09 0854.50
2009/04/23 16:03:40.1    -175   -620     81    645    651 195.8   7.2  34126  289.01 0854.50
2009/04/23 16:03:40.2    -150   -631    153    649    667 193.4  13.3  34128  289.04 0854.51
2009/04/23 16:03:40.3    -218   -637     44    674    676 199.0   3.8  34136  289.17 0854.51
2009/04/23 16:03:40.4    -244   -577    -41    627    629 203.0  -3.8  34128  289.04 0854.51
2009/04/23 16:03:40.5    -164   -564      7    588    589 196.3   0.7  34134  289.12 0854.51
2009/04/23 16:03:40.6    -177   -527      0    557    558 198.6   0.0  34134  289.13 0854.51
2009/04/23 16:03:40.7     -50   -508    -31    511    512 185.7  -3.5  34136  289.15 0854.51
2009/04/23 16:03:40.8     -47   -618   -149    620    638 184.4 -13.6  34142  289.25 0854.51
2009/04/23 16:03:40.9     -88   -588    -42    595    597 188.6  -4.1  34134  289.14 0854.51
2009/04/23 16:03:41.0     -47   -633    -23    635    636 184.3  -2.1  34142  289.26 0854.51
2009/04/23 16:03:41.1      26   -564     32    565    566 177.3   3.3  34134  289.14 0854.51
2009/04/23 16:03:41.2      10   -477    108    478    491 178.8  12.8  34128  289.03 0854.51
2009/04/23 16:03:41.3     -30   -402     36    404    406 184.4   5.2  34130  289.05 0854.51
2009/04/23 16:03:41.4      29   -379    103    380    394 175.6  15.3  34136  289.18 0854.51
2009/04/23 16:03:41.5      54   -537     79    540    546 174.2   8.3  34128  289.04 0854.51
2009/04/23 16:03:41.6    -141   -575   -180    593    621 193.8 -16.9  34140  289.22 0854.51
2009/04/23 16:03:41.7    -226   -502   -165    551    576 204.3 -16.7  34132  289.11 0854.51
2009/04/23 16:03:41.8     -78   -501   -267    508    573 188.9 -34.5  34134  289.14 0854.51
2009/04/23 16:03:41.9    -205   -527   -373    566    677 201.3 -40.9  34142  289.25 0854.51
2009/04/23 16:03:42.0    -181   -432   -358    469    590 202.7 -45.6  34116  288.84 0854.51
2009/04/23 16:03:42.1    -364   -223   -285    427    513 238.5 -41.4  34142  289.25 0854.51
2009/04/23 16:03:42.2    -476   -120   -255    491    553 255.8 -34.0  34136  289.16 0854.46
2009/04/23 16:03:42.3    -465   -250   -172    528    555 241.7 -23.2  34132  289.09 0854.46
2009/04/23 16:03:42.4    -406   -407    -87    576    583 224.9  -8.6  34138  289.20 0854.46
2009/04/23 16:03:42.5    -309   -218   -115    379    396 234.8 -21.8  34136  289.16 0854.46
2009/04/23 16:03:42.6    -250   -459   -119    523    537 208.6 -12.9  34132  289.11 0854.46
2009/04/23 16:03:42.7    -199   -573     24    607    608 199.2   2.3  34128  289.03 0854.46
2009/04/23 16:03:42.8    -334   -412    -67    531    536 219.1  -7.2  34132  289.09 0854.46
2009/04/23 16:03:42.9    -157   -427   -138    456    476 200.2 -21.8  34130  289.06 0854.46
2009/04/23 16:03:43.0      33   -310     28    312    314 173.8   5.2  34138  289.20 0854.46
2009/04/23 16:03:43.1     146   -402     24    429    430 160.0   3.3  34138  289.21 0854.46
2009/04/23 16:03:43.2      33   -596   -181    597    623 176.8 -21.7  34142  289.28 0854.45
2009/04/23 16:03:43.3     -73   -414   -175    421    455 190.1 -28.3  34136  289.16 0854.45
2009/04/23 16:03:43.4    -117   -316      4    338    339 200.3   0.8  34134  289.13 0854.45
2009/04/23 16:03:43.5     -39   -387    -82    390    399 185.8 -11.9  34128  289.03 0854.45
2009/04/23 16:03:43.6     -59   -476    -18    480    481 187.1  -2.2  34126  288.98 0854.45
2009/04/23 16:03:43.7    -227   -418    -25    476    477 208.5  -3.0  34136  289.15 0854.45
2009/04/23 16:03:43.8    -276   -497    -87    569    576 209.0  -8.7  34128  289.03 0854.45
2009/04/23 16:03:43.9    -188   -552     46    584    586 198.8   4.6  34130  289.07 0854.45
2009/04/23 16:03:44.0    -283   -780    190    830    852 200.0  12.9  34128  289.02 0854.45
2009/04/23 16:03:44.1    -409   -652    -25    770    771 212.1  -1.9  34142  289.25 0854.45
2009/04/23 16:03:44.2    -334   -594     85    682    688 209.4   7.1  34148  289.36 0854.45
2009/04/23 16:03:44.3    -259   -620     81    673    678 202.7   6.9  34130  289.05 0854.45
2009/04/23 16:03:44.4    -404   -442    -17    600    601 222.4  -1.7  34136  289.17 0854.45
2009/04/23 16:03:44.5    -315   -325   -127    453    471 224.1 -15.7  34142  289.28 0854.45
2009/04/23 16:03:44.6     -73   -310   -192    319    372 193.4 -38.2  34142  289.25 0854.45
2009/04/23 16:03:44.7      50   -314   -186    319    369 170.9 -37.5  34148  289.38 0854.45
2009/04/23 16:03:44.8     134   -343   -127    369    391 158.6 -19.0  34142  289.25 0854.45
2009/04/23 16:03:44.9      91   -434   -139    444    465 168.1 -22.4  34154  289.48 0854.45
2009/04/23 16:03:45.0     117   -433   -134    449    469 164.9 -16.6  34152  289.44 0854.45
2009/04/23 16:03:45.1     129   -403   -122    424    442 162.2 -16.0  34150  289.41 0854.45
2009/04/23 16:03:45.2     146   -439    -88    463    472 161.6 -10.8  34152  289.42 0854.38
2009/04/23 16:03:45.3      86   -481   -152    489    512 169.8 -22.2  34156  289.52 0854.38
2009/04/23 16:03:45.4     135   -392    -34    415    417 161.0  -4.8  34154  289.46 0854.38
2009/04/23 16:03:45.6      63   -366     44    372    375 170.2   6.9  34156  289.50 0854.38
2009/04/23 16:03:45.7     -50   -463     13    466    467 186.2   1.6  34150  289.39 0854.38
2009/04/23 16:03:45.8      88   -628     20    635    636 172.0   1.9  34156  289.50 0854.38
2009/04/23 16:03:45.9      88   -594     46    601    603 171.5   4.4  34140  289.22 0854.38
2009/04/23 16:03:46.0     222   -467    236    518    569 154.5  26.2  34134  289.14 0854.38
2009/04/23 16:03:46.1     163   -560    153    584    604 163.7  14.7  34124  288.95 0854.38
2009/04/23 16:03:46.2     150   -466    255    490    552 162.1  29.8  34118  288.85 0854.38
2009/04/23 16:03:46.3     373   -291    335    474    580 128.0  38.6  34162  289.62 0854.38
2009/04/23 16:03:46.4     245   -372    371    446    580 146.6  43.8  34146  289.35 0854.38
2009/04/23 16:03:46.5     370   -414    127    556    571 138.2  12.9  34144  289.31 0854.38
2009/04/23 16:03:46.6     303   -474     27    563    564 147.4   2.8  34130  289.06 0854.38
2009/04/23 16:03:46.7     379   -529    -57    651    654 144.4  -5.1  34134  289.13 0854.38
2009/04/23 16:03:46.8     320   -561    -86    647    653 150.3  -7.6  34120  288.89 0854.38
2009/04/23 16:03:46.9     325   -609     77    691    696 151.9   6.4  34074  288.11 0854.38
2009/04/23 16:03:47.0      68   -590    213    594    631 173.4  20.6  34084  288.27 0854.38
2009/04/23 16:03:47.1     -37   -573    243    575    624 183.7  24.3  34080  288.22 0854.38
2009/04/23 16:03:47.2     -44   -554    352    556    658 184.6  35.5  34100  288.55 0854.38
2009/04/23 16:03:47.3     -65   -580    209    584    620 186.5  20.4  34122  288.93 0854.27
2009/04/23 16:03:47.4     -42   -777    183    779    801 183.1  13.2  34130  289.05 0854.27
2009/04/23 16:03:47.5    -182   -854     97    874    880 192.1   6.4  34138  289.20 0854.27
2009/04/23 16:03:47.6    -458   -773   -241    899    931 210.7 -15.1  34134  289.14 0854.27
2009/04/23 16:03:47.7    -171   -630   -198    653    683 195.2 -16.9  34124  288.97 0854.27
2009/04/23 16:03:47.8       8   -512    186    513    545 179.0  20.9  34126  288.99 0854.27
2009/04/23 16:03:47.9    -153   -570    132    591    606 195.1  12.6  34126  288.98 0854.27
2009/04/23 16:03:48.0    -102   -389    165    403    435 194.7  23.6  34132  289.09 0854.27
2009/04/23 16:03:48.1     -89   -319    165    332    370 195.7  28.4  34130  289.06 0854.27
2009/04/23 16:03:48.2     190    -70    364    203    416 110.2  68.6  34146  289.32 0854.27
2009/04/23 16:03:48.3     -41    -14    380     44    382 250.9  90.0  34142  289.25 0854.27
2009/04/23 16:03:48.4     -48     79    383     93    394 328.8  86.6  34160  289.56 0854.27
2009/04/23 16:03:48.5     293    -47    302    297    423  99.2  50.6  34142  289.28 0854.27
2009/04/23 16:03:48.6     148   -240    233    283    366 148.4  43.7  34128  289.04 0854.27
2009/04/23 16:03:48.7     236   -371    357    441    567 147.5  43.1  34140  289.23 0854.27
2009/04/23 16:03:48.8     147   -316    299    349    459 155.0  44.9  34142  289.26 0854.27
2009/04/23 16:03:48.9      20   -103    257    106    278 168.9  76.6  34156  289.51 0854.27
2009/04/23 16:03:49.0     -59    -59     64     84    105 225.1  41.2  34146  289.35 0854.27
2009/04/23 16:03:49.1     138    232    159    271    314  30.8  33.0  34216  290.53 0854.27
2009/04/23 16:03:49.2     128    141    177    191    260  42.3  47.9  34194  290.14 0854.27
2009/04/23 16:03:49.3     101    127    131    163    209  38.7  43.3  34168  289.70 0854.22
2009/04/23 16:03:49.4      58     64    165     87    186  41.9  70.0  34172  289.79 0854.22
2009/04/23 16:03:49.5     142     46    210    150    258  71.8  60.8  34170  289.75 0854.22
2009/04/23 16:03:49.6     189    137     51    234    240  54.1  12.4  34196  290.17 0854.22
2009/04/23 16:03:49.7     116     57    114    130    172  63.8  45.8  34290  291.79 0854.22
2009/04/23 16:03:49.8      20    145    136    147    200   8.1  47.7  34254  291.16 0854.22
2009/04/23 16:03:49.9     140    167    168    219    276  39.9  41.6  34194  290.15 0854.22
2009/04/23 16:03:50.0      80    177     40    195    200  24.3  11.6  34204  290.31 0854.22
2009/04/23 16:03:50.1     -83    124    -47    150    158 326.2 -17.6  34216  290.53 0854.22
2009/04/23 16:03:50.2     -54    106    -38    120    126 332.8 -17.6  34214  290.48 0854.22
2009/04/23 16:03:50.3     -69     53   -102     88    134 307.8 -59.2  34154  289.46 0854.22
2009/04/23 16:03:50.4      -8     47   -140     48    148 349.3 -85.6  34164  289.63 0854.22
2009/04/23 16:03:50.5      39     25    -76     47     89  56.7 -69.5  34158  289.53 0854.22
2009/04/23 16:03:50.6      19    -40    -64     45     78 153.7 -65.9  34162  289.60 0854.22
2009/04/23 16:03:50.7       8    -40    -65     41     76 167.5 -69.1  34166  289.67 0854.22
2009/04/23 16:03:50.8       0      0    -12      1     12  45.0 -90.0  34170  289.74 0854.22
2009/04/23 16:03:50.9       5     66     43     67     79   4.5  36.0  34158  289.55 0854.22
2009/04/23 16:03:51.0      59     38     85     71    110  56.7  56.3  34186  290.02 0854.22
2009/04/23 16:03:51.1      78     40    118     88    147  62.5  59.4  34190  290.09 0854.22
2009/04/23 16:03:51.2     150     71    122    167    206  64.7  39.9  34202  290.28 0854.22
2009/04/23 16:03:51.3     145     92    159    173    234  57.5  47.5  34180  289.91 0854.28
2009/04/23 16:03:51.4     141      4    157    142    211  88.3  53.3  34172  289.77 0854.28
2009/04/23 16:03:51.5     111     -3    178    112    210  91.7  64.7  34176  289.85 0854.28
2009/04/23 16:03:51.6      89     -6    134     90    161  94.3  62.8  34176  289.85 0854.28
2009/04/23 16:03:51.7     -67    -10    110     68    129 261.2  64.7  34204  290.31 0854.28
2009/04/23 16:03:51.8     -28      6     53     29     60 283.3  68.8  34206  290.36 0854.28
2009/04/23 16:03:51.9     -55     53    131     77    151 314.1  66.8  34192  290.13 0854.28
2009/04/23 16:03:52.0      80   -125    151    149    212 147.5  50.1  34158  289.53 0854.28
2009/04/23 16:03:52.1      20    -58    109     62    125 160.8  67.7  34180  289.91 0854.28
2009/04/23 16:03:52.2    -130    -69     85    148    170 242.0  32.4  34210  290.41 0854.28
2009/04/23 16:03:52.3     -24   -169    108    171    202 188.2  35.5  34170  289.75 0854.28
2009/04/23 16:03:52.4      26    -27    184     38    187 136.6  89.0  34198  290.23 0854.28
2009/04/23 16:03:52.5     -69    -52    112     87    141 233.1  58.4  34174  289.80 0854.28
2009/04/23 16:03:52.6     -39   -310    292    313    428 187.2  47.9  34166  289.67 0854.28
2009/04/23 16:03:52.7     -49   -287    284    292    407 189.7  49.2  34208  290.40 0854.28
2009/04/23 16:03:52.8     -81   -290    280    302    411 195.6  47.8  34178  289.89 0854.28
2009/04/23 16:03:52.9    -182   -115    193    216    289 237.6  46.2  34172  289.76 0854.28
2009/04/23 16:03:53.0      52    -77    149     94    176 145.7  64.7  34158  289.53 0854.28
2009/04/23 16:03:53.1      58   -417    256    422    493 172.0  34.1  34152  289.44 0854.28
2009/04/23 16:03:53.2     101   -379    313    393    502 165.1  42.7  34152  289.42 0854.28
2009/04/23 16:03:53.3     128   -331    316    355    475 158.8  46.3  34150  289.39 0854.32
2009/04/23 16:03:53.4       0   -148    255    149    295 180.0  67.0  34156  289.51 0854.32
2009/04/23 16:03:53.5      22     22    213     32    215  45.0  90.0  34158  289.53 0854.32
2009/04/23 16:03:53.6      21     87    211     90    229  13.8  75.5  34162  289.60 0854.32
2009/04/23 16:03:53.7      -1     98    223     99    243 359.1  74.5  34164  289.65 0854.32
2009/04/23 16:03:53.8      -1     67    296     68    303 359.1  87.5  34172  289.78 0854.32
2009/04/23 16:03:53.9      52     26    325     59    330  63.8  90.0  34190  290.09 0854.32
2009/04/23 16:03:54.0     -63   -291    313    298    432 192.3  51.6  34170  289.74 0854.32
2009/04/23 16:03:54.1     -41   -428    353    431    557 185.6  43.7  34166  289.66 0854.32
2009/04/23 16:03:54.2    -111   -446    373    460    592 194.1  43.1  34168  289.72 0854.32
2009/04/23 16:03:54.3    -260   -487    394    553    679 208.1  39.0  34190  290.08 0854.32
2009/04/23 16:03:54.4    -470   -543    399    719    822 220.9  31.4  34196  290.19 0854.32
2009/04/23 16:03:54.5    -498   -423     73    654    659 229.6   6.4  34214  290.49 0854.32
2009/04/23 16:03:54.6    -385   -403    258    558    614 223.7  26.7  34174  289.81 0854.32
2009/04/23 16:03:54.7    -216   -370    302    429    524 210.2  38.6  34152  289.44 0854.32
2009/04/23 16:03:54.8    -217   -341    383    405    557 212.5  48.4  34148  289.37 0854.32
2009/04/23 16:03:54.9    -519   -217    163    563    587 247.3  16.1  34208  290.39 0854.32
2009/04/23 16:03:55.0    -554   -257     18    611    612 245.1   1.7  34192  290.12 0854.32
2009/04/23 16:03:55.1    -480   -304    108    569    580 237.6  10.8  34188  290.03 0854.32
2009/04/23 16:03:55.2    -406   -361    109    544    555 228.3  11.3  34168  289.72 0854.32
2009/04/23 16:03:55.3    -522   -333    227    620    660 237.5  21.0  34144  289.30 0854.36
2009/04/23 16:03:55.4    -428   -312    216    530    572 233.9  23.5  34130  289.06 0854.36
2009/04/23 16:03:55.5    -469   -272    108    543    554 239.9  11.3  34158  289.55 0854.36
2009/04/23 16:03:55.6    -557   -116    101    570    580 258.2  10.1  34168  289.71 0854.36
2009/04/23 16:03:55.7    -561    -43    -50    563    566 265.6  -5.1  34172  289.77 0854.36
2009/04/23 16:03:55.8    -506   -102   -136    517    535 258.6 -14.8  34118  288.85 0854.36
2009/04/23 16:03:55.9    -524    -30   -166    525    551 266.7 -17.6  34192  290.11 0854.36
2009/04/23 16:03:56.0    -624     31   -194    625    655 272.9 -17.3  34162  289.62 0854.36
2009/04/23 16:03:56.1    -572     21   -198    573    607 272.1 -19.1  34146  289.32 0854.36
2009/04/23 16:03:56.2    -595      3   -233    596    639 270.4 -26.8  34098  288.52 0854.36
2009/04/23 16:03:56.3    -591     62   -208    595    630 276.1 -24.4  34140  289.23 0854.36
2009/04/23 16:03:56.4    -478     40    -93    480    489 274.9 -11.0  34128  289.03 0854.36
2009/04/23 16:03:56.5    -598     23     12    599    600 272.2   1.2  34152  289.42 0854.36
2009/04/23 16:03:56.6    -242   -244    -35    344    346 224.8  -5.9  34162  289.60 0854.36
2009/04/23 16:03:56.7    -227   -176     78    288    299 232.2  15.2  34154  289.46 0854.36
2009/04/23 16:03:56.8    -221   -131    107    258    279 239.3  23.6  34160  289.58 0854.36
2009/04/23 16:03:56.9    -158    -88     69    182    194 240.9  21.5  34170  289.75 0854.36
2009/04/23 16:03:57.0    -129   -141     53    192    200 222.5  15.6  34172  289.77 0854.36
2009/04/23 16:03:57.1    -125   -161     58    204    213 217.9  16.0  34158  289.53 0854.36
2009/04/23 16:03:57.2    -192   -122      9    228    229 237.5   2.5  34150  289.41 0854.36
2009/04/23 16:03:57.3    -142    -90     34    169    173 237.5  11.6  34150  289.41 0854.38
2009/04/23 16:03:57.4    -125   -116     -1    171    172 227.1  -0.5  34144  289.31 0854.38
2009/04/23 16:03:57.5     -72   -133      7    152    153 208.5   2.8  34144  289.30 0854.38
2009/04/23 16:03:57.6     -75   -177    -24    193    195 202.9  -7.2  34130  289.08 0854.38
2009/04/23 16:03:57.7    -102   -160    -17    190    191 212.6  -5.4  34128  289.04 0854.38
2009/04/23 16:03:57.8    -102    -40     57    110    123 248.3  29.3  34152  289.45 0854.38
2009/04/23 16:03:57.9    -181   -117     49    216    222 237.1  12.9  34162  289.60 0854.38
2009/04/23 16:03:58.0    -140   -102     39    174    179 234.0  12.9  34156  289.50 0854.38
2009/04/23 16:03:58.1    -104   -229    -30    252    254 204.5  -6.9  34150  289.39 0854.38
2009/04/23 16:03:58.2     -46   -244    112    249    273 190.7  25.9  34158  289.54 0854.38
2009/04/23 16:03:58.3       2   -157    189    158    246 179.0  56.1  34152  289.43 0854.38
2009/04/23 16:03:58.4       2   -182    125    183    221 179.1  37.6  34122  288.92 0854.38
2009/04/23 16:03:58.5     111   -225    164    252    300 153.7  35.7  34130  289.05 0854.38
2009/04/23 16:03:58.6      23   -317    168    318    359 175.8  30.2  34130  289.06 0854.38
2009/04/23 16:03:58.7     -13   -419    196    420    463 181.9  27.1  34136  289.17 0854.38
2009/04/23 16:03:58.8     -42   -470    203    472    513 185.2  24.8  34138  289.20 0854.38
2009/04/23 16:03:58.9     -52   -362    180    366    407 188.2  28.2  34130  289.08 0854.38
2009/04/23 16:03:59.0      -5   -344     54    345    350 180.9   8.9  34136  289.15 0854.38
2009/04/23 16:03:59.1     170   -360     39    399    401 154.7   5.7  34126  288.99 0854.38
2009/04/23 16:03:59.2      84   -310     77    322    332 164.8  13.6  34134  289.14 0854.38
2009/04/23 16:03:59.3     130   -246    175    279    329 152.1  35.3  34130  289.07 0854.40
2009/04/23 16:03:59.4      93   -169    230    193    300 151.1  56.1  34132  289.09 0854.40
2009/04/23 16:03:59.5       7   -182    189    183    263 177.5  50.9  34130  289.07 0854.40
2009/04/23 16:03:59.6     -14   -205    207    206    292 184.0  50.1  34124  288.95 0854.40
2009/04/23 16:03:59.7     -18   -192    209    193    284 185.6  52.5  34126  289.00 0854.40
2009/04/23 16:03:59.8     -33     21     93     40    101 303.3  75.5  34142  289.28 0854.40
2009/04/23 16:03:59.9    -127     34     68    132    148 285.1  29.3  34150  289.40 0854.40
2009/04/23 16:04:00.0     -52     31     77     61     98 300.7  56.9  34148  289.36 0854.40
2009/04/23 16:04:00.1     -23     39     58     46     74 329.3  56.4  34152  289.43 0854.40
2009/04/23 16:04:00.2     -54    -18     38     58     69 251.4  35.6  34148  289.38 0854.40
2009/04/23 16:04:00.3       6      0    -26      7     26  90.0 -89.3  34148  289.36 0854.40
2009/04/23 16:04:00.4      58    -73    -52     94    107 141.3 -35.8  34140  289.23 0854.40
2009/04/23 16:04:00.5     154    -98    -88    183    203 122.4 -31.8  34132  289.09 0854.40
2009/04/23 16:04:00.6     135    -85    -56    160    170 122.4 -19.4  34134  289.13 0854.40
2009/04/23 16:04:00.7     127    -98      0    161    162 127.8   0.2  34118  288.87 0854.40
2009/04/23 16:04:00.8      97   -168     32    195    198 149.9   9.3  34120  288.91 0854.40
2009/04/23 16:04:00.9     175   -105    -25    205    207 121.1  -7.2  34124  288.97 0854.40
2009/04/23 16:04:01.0      62    -99    -46    117    125 147.9 -26.9  34132  289.09 0854.40
2009/04/23 16:04:01.1      61   -111    -44    127    134 151.0 -23.3  34130  289.06 0854.40
2009/04/23 16:04:01.2      61   -120     17    135    137 152.9   7.5  34124  288.97 0854.40
2009/04/23 16:04:01.3      33    -73     41     81     90 155.5  28.7  34130  289.08 0854.44
2009/04/23 16:04:01.4     -49    -83     22     97    100 210.7  13.2  34130  289.06 0854.44
2009/04/23 16:04:01.5     -43    -41     25     60     65 226.9  23.0  34136  289.16 0854.44
2009/04/23 16:04:01.6     -59     -8     -1     60     61 262.1  -1.2  34136  289.16 0854.44
2009/04/23 16:04:01.7     -79     38    -34     88     94 295.8 -25.9  34130  289.08 0854.44
2009/04/23 16:04:01.8    -145     39    -91    151    176 285.1 -38.4  34138  289.21 0854.44
2009/04/23 16:04:01.9    -114     16    -90    116    146 278.0 -46.6  34138  289.21 0854.44
2009/04/23 16:04:02.0     -53      0    -52     54     74 270.0 -55.5  34134  289.13 0854.44
2009/04/23 16:04:02.1     -58     65    -20     88     91 318.6 -12.9  34128  289.04 0854.44
2009/04/23 16:04:02.2    -103    -41     47    111    120 248.3  24.6  34142  289.28 0854.44
2009/04/23 16:04:02.3    -107    -89     71    140    156 230.4  28.7  34152  289.43 0854.44
2009/04/23 16:04:02.4    -127   -199    120    237    265 212.5  28.7  34140  289.22 0854.44
2009/04/23 16:04:02.5    -121   -264    108    291    310 204.7  21.0  34150  289.41 0854.44
2009/04/23 16:04:02.6     -35   -153     61    157    168 192.9  22.3  34158  289.55 0854.44
2009/04/23 16:04:02.7     -64    -85     80    107    133 217.0  40.1  34160  289.58 0854.44
2009/04/23 16:04:02.8     -69    -69    105     98    143 225.0  52.1  34152  289.43 0854.44
2009/04/23 16:04:02.9     -31    -49     92     59    109 212.5  64.6  34166  289.69 0854.44
2009/04/23 16:04:03.0    -199   -275      4    340    341 215.9   0.8  34154  289.48 0854.44
2009/04/23 16:04:03.1    -204   -219    -27    300    302 223.0  -5.2  34154  289.46 0854.44
2009/04/23 16:04:03.2    -272   -228     59    356    361 230.0   9.4  34154  289.47 0854.44
2009/04/23 16:04:03.3    -249   -353     54    433    437 215.2   7.1  34154  289.48 0854.45
2009/04/23 16:04:03.4    -336   -316     -9    462    463 226.8  -1.2  34144  289.29 0854.45
2009/04/23 16:04:03.5    -154   -390     98    420    432 201.5  13.1  34138  289.19 0854.45
2009/04/23 16:04:03.6    -161   -441    195    470    508 200.1  23.9  34140  289.22 0854.45
2009/04/23 16:04:03.7    -220   -474    119    523    537 204.9  12.9  34130  289.06 0854.45
2009/04/23 16:04:03.8    -210   -378    243    433    496 209.0  31.9  34134  289.13 0854.45
2009/04/23 16:04:03.9    -123   -373    144    393    418 198.3  21.0  34140  289.24 0854.45
2009/04/23 16:04:04.0     -64   -313    154    320    355 191.6  27.4  34144  289.30 0854.45
2009/04/23 16:04:04.1      36   -205    204    209    292 170.0  49.8  34162  289.61 0854.45
2009/04/23 16:04:04.2     -16   -322    192    323    375 182.9  33.5  34152  289.43 0854.45
2009/04/23 16:04:04.3      35   -370    185    372    415 174.6  28.4  34148  289.38 0854.47
2009/04/23 16:04:04.4      65   -462    150    467    491 172.0  17.8  34142  289.25 0854.47
2009/04/23 16:04:04.5     104   -477    146    489    511 167.6  16.6  34146  289.35 0854.47
2009/04/23 16:04:04.6      66   -468    111    473    486 171.9  13.3  34150  289.39 0854.47
2009/04/23 16:04:04.7      23   -432    101    433    445 176.9  13.1  34144  289.29 0854.47
2009/04/23 16:04:04.8     -25   -460     48    461    464 183.2   6.0  34140  289.24 0854.47
2009/04/23 16:04:04.9     112   -358    145    376    402 162.6  22.1  34168  289.72 0854.47
2009/04/23 16:04:05.0     245   -220    130    330    354 131.9  22.7  34168  289.71 0854.47
2009/04/23 16:04:05.1     153   -352    107    384    399 156.5  15.7  34142  289.28 0854.47
2009/04/23 16:04:05.2     138   -336    115    364    382 157.7  17.5  34146  289.35 0854.47
2009/04/23 16:04:05.3     -15   -215    250    216    330 184.2  54.8  34174  289.80 0854.47
2009/04/23 16:04:05.4       4   -164    238    165    289 178.4  62.1  34160  289.56 0854.47
2009/04/23 16:04:05.5     101   -153    272    184    328 146.4  62.8  34162  289.59 0854.47
2009/04/23 16:04:05.6     105   -232     87    255    270 155.5  18.9  34142  289.25 0854.47
2009/04/23 16:04:05.7     112   -229     54    255    261 153.9  12.2  34130  289.07 0854.47
2009/04/23 16:04:05.8     136   -115     63    179    191 130.2  19.6  34142  289.28 0854.47
2009/04/23 16:04:05.9     151   -168    -59    227    235 138.1 -14.7  34162  289.62 0854.47
2009/04/23 16:04:06.0     260   -103     18    280    281 111.7   3.8  34188  290.05 0854.47
2009/04/23 16:04:06.1     326   -113    -15    346    347 109.2  -2.6  34208  290.40 0854.47
2009/04/23 16:04:06.2     315   -154    -13    351    352 116.1  -2.2  34178  289.86 0854.47
2009/04/23 16:04:06.3     278    -77    -37    289    292 105.5  -7.3  34196  290.17 0854.49
2009/04/23 16:04:06.4     249   -126     55    280    286 116.9  11.1  34134  289.14 0854.49
2009/04/23 16:04:06.5     190    -38    138    194    238 101.4  38.8  34134  289.14 0854.49
2009/04/23 16:04:06.6     -12   -149    183    150    236 184.9  56.4  34144  289.31 0854.49
2009/04/23 16:04:06.7     -74   -134    209    154    259 209.0  60.3  34142  289.28 0854.49
2009/04/23 16:04:06.8     -23   -128    240    131    273 190.2  68.9  34144  289.29 0854.49
2009/04/23 16:04:07.0     -22     25    127     34    131 318.6  84.9  34160  289.57 0854.49
2009/04/23 16:04:07.0       8     54    109     55    122   8.9  71.0  34160  289.57 0854.49
2009/04/23 16:04:07.1     -26      2     76     27     80 274.4  80.2  34166  289.67 0854.49
2009/04/23 16:04:07.2      20    -17    174     27    176 131.3  90.0  34172  289.77 0854.49
2009/04/23 16:04:07.3      30   -142    265    146    302 168.0  68.8  34138  289.19 0854.49
2009/04/23 16:04:07.4      82    -61    253    103    273 126.4  77.0  34168  289.70 0854.49
2009/04/23 16:04:07.5     -56   -101    242    116    268 209.0  72.8  34152  289.43 0854.49
2009/04/23 16:04:07.6     -78   -180    325    197    380 203.4  66.0  34152  289.42 0854.49
2009/04/23 16:04:07.7     -70   -246    296    256    391 196.0  54.8  34182  289.93 0854.49
2009/04/23 16:04:07.8      14   -104    270    106    290 172.0  77.4  34172  289.78 0854.49
2009/04/23 16:04:07.9    -178    265    177    320    365 326.2  31.4  34184  289.99 0854.49
2009/04/23 16:04:08.1    -210     82    274    226    355 291.5  56.4  34190  290.07 0854.49
2009/04/23 16:04:08.1       0    257    220    258    339   0.0  44.8  34222  290.61 0854.49
2009/04/23 16:04:08.2    -169    301    247    346    425 330.7  39.1  34248  291.06 0854.51
2009/04/23 16:04:08.3    -112    415    164    430    460 344.9  22.0  34178  289.88 0854.51
2009/04/23 16:04:08.4    -170    292    263    339    429 329.8  41.7  34204  290.32 0854.51
2009/04/23 16:04:08.5     -88    187    319    207    380 334.6  64.3  34222  290.62 0854.51
2009/04/23 16:04:08.6     -27     69    198     75    211 338.2  78.6  34204  290.31 0854.51
2009/04/23 16:04:08.7      -9   -157    231    158    279 183.6  62.6  34152  289.42 0854.51
2009/04/23 16:04:08.8       6   -195    289    196    349 178.0  62.8  34168  289.71 0854.51
2009/04/23 16:04:08.9       0   -170    325    171    367 180.2  70.3  34172  289.78 0854.51
2009/04/23 16:04:09.0       3   -192    288    193    346 179.1  63.3  34140  289.24 0854.51
2009/04/23 16:04:09.1      12   -134    272    135    303 174.7  71.9  34146  289.32 0854.51
2009/04/23 16:04:09.3      45   -147    271    154    311 163.0  67.8  34156  289.49 0854.51
2009/04/23 16:04:09.3      37    -79    278     88    291 154.6  81.7  34180  289.90 0854.51
2009/04/23 16:04:09.4     -57   -106    279    121    304 208.1  75.0  34182  289.93 0854.51
2009/04/23 16:04:09.5      -6   -154    283    155    322 182.2  69.1  34166  289.68 0854.51
2009/04/23 16:04:09.6      58      0    225     59    232  90.0  84.9  34164  289.63 0854.51
2009/04/23 16:04:09.7      19    -76    265     79    276 165.7  82.8  34152  289.43 0854.51
2009/04/23 16:04:09.8      -2   -157    283    158    324 180.9  68.5  34160  289.58 0854.51
2009/04/23 16:04:09.9      96   -153    248    181    307 147.9  60.5  34160  289.56 0854.51
2009/04/23 16:04:10.0      70   -196    286    209    354 160.2  60.4  34152  289.44 0854.51
2009/04/23 16:04:10.1      51    -32    209     61    217 122.4  83.3  34144  289.31 0854.51
2009/04/23 16:04:10.2     222    -89    321    240    400 111.8  59.6  34154  289.47 0854.53
2009/04/23 16:04:10.3      71    -28    205     77    218 111.7  78.6  34154  289.46 0854.53
2009/04/23 16:04:10.5     147    -71    202    164    260 115.8  56.6  34154  289.46 0854.53
2009/04/23 16:04:10.5     237   -237    266    336    428 135.1  42.6  34142  289.25 0854.53
2009/04/23 16:04:10.6     263   -191    254    326    413 126.0  41.9  34156  289.52 0854.53
2009/04/23 16:04:10.7     179   -118    234    215    317 123.5  52.7  34166  289.68 0854.53
2009/04/23 16:04:10.8     203   -150    242    253    350 126.4  48.7  34152  289.44 0854.53
2009/04/23 16:04:10.9     174   -154    239    233    333 131.4  50.8  34144  289.31 0854.53
2009/04/23 16:04:11.0     138   -147    221    202    299 136.8  53.0  34162  289.61 0854.53
2009/04/23 16:04:11.1     147   -144    203    207    289 134.4  49.9  34162  289.61 0854.53
2009/04/23 16:04:11.2     197   -185    160    271    314 133.2  33.3  34156  289.49 0854.53
2009/04/23 16:04:11.3      79   -134    154    156    219 149.3  50.0  34156  289.52 0854.53
2009/04/23 16:04:11.4      38   -157    131    162    208 166.2  43.3  34156  289.52 0854.53
2009/04/23 16:04:11.5     206   -187    170    279    326 132.2  34.3  34144  289.29 0854.53
2009/04/23 16:04:11.6     127   -292    112    319    339 156.4  19.3  34154  289.48 0854.53
2009/04/23 16:04:11.8     185   -206     64    278    286 138.1  13.1  34146  289.32 0854.53
2009/04/23 16:04:11.8     151   -280     55    319    324 151.7   9.9  34156  289.51 0854.53
2009/04/23 16:04:11.9     -11   -250     -5    251    252 182.7  -1.2  34174  289.80 0854.53
2009/04/23 16:04:12.1     -63   -114     -5    131    132 209.0  -2.2  34188  290.06 0854.53
2009/04/23 16:04:12.2     -60     50     -3     79     80 309.5  -2.2  34176  289.85 0854.53
2009/04/23 16:04:12.3       5     37     33     38     50   8.0  44.8  34176  289.84 0854.54
2009/04/23 16:04:12.3       5     45     88     46     99   7.1  69.8  34186  290.02 0854.54
2009/04/23 16:04:12.4      -2    -90     92     91    129 181.8  50.1  34180  289.91 0854.54
2009/04/23 16:04:12.6     -96     27     77    100    126 285.9  41.6  34178  289.89 0854.54
2009/04/23 16:04:12.7     -84     28    163     89    185 288.6  69.1  34210  290.41 0854.54
2009/04/23 16:04:12.8     -24   -121    212    124    245 191.6  67.0  34186  290.02 0854.54
2009/04/23 16:04:12.9    -121   -189    156    225    273 212.6  38.0  34186  290.02 0854.54
2009/04/23 16:04:13.0    -171   -111    -11    205    206 236.9  -3.1  34188  290.06 0854.54
2009/04/23 16:04:13.1    -219   -127     35    254    257 239.8   8.0  34174  289.81 0854.54
2009/04/23 16:04:13.2    -222      3     90    223    240 270.9  23.1  34224  290.66 0854.54
2009/04/23 16:04:13.3    -160   -120     31    200    203 233.1   8.9  34212  290.47 0854.54
2009/04/23 16:04:13.4     -53   -100    140    114    180 208.1  56.4  34244  291.01 0854.54
2009/04/23 16:04:13.5     171    -68    -43    185    191 111.7 -13.2  34222  290.62 0854.54
2009/04/23 16:04:13.6      75    154     -2    172    173  26.1  -0.7  34242  290.98 0854.54
2009/04/23 16:04:13.7     110    110    115    156    193  45.0  39.9  34262  291.32 0854.54
2009/04/23 16:04:13.8      33     79    103     86    134  23.2  56.3  34258  291.23 0854.54
2009/04/23 16:04:13.9     -43     41     54     60     80 313.3  46.9  34254  291.16 0854.54
2009/04/23 16:04:14.0     -88     88     34    125    130 315.0  15.3  34238  290.89 0854.54
2009/04/23 16:04:14.1    -101    103     42    145    152 315.5  16.3  34242  290.98 0854.54
2009/04/23 16:04:14.2     -60    129     35    143    148 335.1  13.7  34248  291.06 0854.54
2009/04/23 16:04:14.3     -85    124    -37    151    156 325.3 -13.9  34248  291.08 0854.55
2009/04/23 16:04:14.4    -124     69    -12    143    144 299.3  -5.1  34228  290.72 0854.55
2009/04/23 16:04:14.5     -98    114     18    151    153 319.5   6.9  34222  290.62 0854.55
2009/04/23 16:04:14.6     -79     80    106    113    154 315.3  48.0  34254  291.16 0854.55
2009/04/23 16:04:14.7     -75     62    123     98    157 309.5  57.5  34272  291.47 0854.55
2009/04/23 16:04:14.8     -36     41    127     55    138 318.6  75.0  34264  291.33 0854.55
2009/04/23 16:04:14.9    -160   -186    -11    246    247 220.8  -2.6  34202  290.29 0854.55
2009/04/23 16:04:15.0     -89   -132     42    160    166 214.1  15.0  34194  290.16 0854.55
2009/04/23 16:04:15.1       8   -128    120    129    176 176.4  47.9  34200  290.26 0854.55
2009/04/23 16:04:15.2       9   -172    156    173    232 176.9  46.9  34208  290.38 0854.55
2009/04/23 16:04:15.3      24   -225    176    227    287 173.8  41.7  34206  290.34 0854.55
2009/04/23 16:04:15.4       7   -311     73    312    321 178.6  13.3  34182  289.93 0854.55
2009/04/23 16:04:15.5      32   -233    158    236    284 172.0  37.0  34210  290.42 0854.55
2009/04/23 16:04:15.6      53   -261     68    267    276 168.4  14.3  34178  289.88 0854.55
2009/04/23 16:04:15.7     -18   -319    129    320    345 183.4  23.1  34158  289.55 0854.55
2009/04/23 16:04:15.8     -15   -299    180    300    349 182.9  34.0  34166  289.69 0854.55
2009/04/23 16:04:15.9     -25     -8    131     27    133 251.8  89.0  34188  290.04 0854.55
2009/04/23 16:04:16.0     -26     43     97     51    109 329.3  69.8  34200  290.25 0854.55
2009/04/23 16:04:16.1     -62     29    107     69    127 295.3  64.6  34210  290.43 0854.55
2009/04/23 16:04:16.2     -55    -75    141     94    169 216.1  63.4  34176  289.84 0854.55
2009/04/23 16:04:16.3    -107    -85     79    137    158 231.4  32.7  34164  289.65 0854.56
2009/04/23 16:04:16.4     -26    -28     60     39     71 223.4  64.6  34160  289.57 0854.56
2009/04/23 16:04:16.5      72     14     53     74     91  78.5  39.1  34160  289.58 0854.56
2009/04/23 16:04:16.6      13   -127    209    128    245 173.8  65.7  34166  289.69 0854.56
2009/04/23 16:04:16.7     -50   -152    182    161    242 198.5  54.0  34166  289.69 0854.56
2009/04/23 16:04:16.8     -64   -125    174    141    223 207.1  56.6  34170  289.75 0854.56
2009/04/23 16:04:16.9    -116   -213    103    243    263 208.7  24.3  34176  289.83 0854.56
2009/04/23 16:04:17.0    -121    -40    125    128    178 251.4  49.4  34194  290.16 0854.56
2009/04/23 16:04:17.1    -186   -117      9    221    222 237.8   2.5  34186  290.02 0854.56
2009/04/23 16:04:17.2    -291   -119    -12    315    316 247.8  -2.2  34186  290.02 0854.56
2009/04/23 16:04:17.3    -196    -29    116    199    230 261.4  32.9  34214  290.50 0854.56
2009/04/23 16:04:17.4    -299    -22    -80    300    311 265.7 -15.0  34180  289.92 0854.56
2009/04/23 16:04:17.5    -155     72    113    172    205 295.1  36.3  34206  290.35 0854.56
2009/04/23 16:04:17.6    -246     33    157    249    294 277.7  35.5  34194  290.14 0854.56
2009/04/23 16:04:17.7    -153    -34    -30    157    160 257.2 -10.9  34194  290.14 0854.56
2009/04/23 16:04:17.8     -84     21    -27     87     91 284.6 -22.8  34206  290.35 0854.56
2009/04/23 16:04:17.9       0    -63    -21     64     67 180.9 -23.8  34204  290.33 0854.56
2009/04/23 16:04:18.0     -48    -24     -6     54     55 242.9  -7.2  34200  290.25 0854.56
2009/04/23 16:04:18.1     -41   -106     89    114    144 201.4  41.7  34196  290.19 0854.56
2009/04/23 16:04:18.2    -229   -108     87    254    269 244.7  18.9  34198  290.20 0854.56
2009/04/23 16:04:18.3     -89   -188     48    209    215 205.3  13.1  34180  289.91 0854.57
2009/04/23 16:04:18.4     -72   -184     82    198    214 201.4  23.6  34170  289.75 0854.57
2009/04/23 16:04:18.5     -50   -186     37    193    197 195.1  11.1  34166  289.67 0854.57
2009/04/23 16:04:18.6     -56   -209     70    217    229 195.2  17.9  34154  289.46 0854.57
2009/04/23 16:04:18.7     -81   -256    -28    269    271 197.6  -6.0  34140  289.24 0854.57
2009/04/23 16:04:18.8    -160   -267     40    312    315 211.0   7.4  34140  289.24 0854.57
2009/04/23 16:04:18.9    -192   -204     66    281    289 223.2  13.2  34144  289.29 0854.57
2009/04/23 16:04:19.0    -191   -323     26    376    377 210.7   4.0  34142  289.28 0854.57
2009/04/23 16:04:19.1    -176   -254     96    310    325 214.7  17.3  34148  289.36 0854.57
2009/04/23 16:04:19.2     -95   -357     77    370    379 194.9  11.8  34142  289.26 0854.57
2009/04/23 16:04:19.3    -137   -337     51    364    368 202.2   8.1  34142  289.25 0854.57
2009/04/23 16:04:19.4      21   -280    215    281    353 175.5  41.4  34146  289.33 0854.57
2009/04/23 16:04:19.5     -88   -276    214    290    360 197.8  40.0  34146  289.33 0854.57
2009/04/23 16:04:19.6      13   -178    230    179    291 175.6  58.4  34152  289.42 0854.57
2009/04/23 16:04:19.7     -39   -286    252    289    383 187.8  45.6  34192  290.13 0854.57
2009/04/23 16:04:19.8      42   -222    238    226    328 169.3  51.5  34170  289.75 0854.57
2009/04/23 16:04:19.9     100   -371    293    385    483 164.9  41.2  34206  290.34 0854.57
2009/04/23 16:04:20.0      96   -404    228    416    474 166.6  31.3  34170  289.73 0854.57
2009/04/23 16:04:20.1     156   -262    118    306    327 149.2  22.2  34156  289.49 0854.57
2009/04/23 16:04:20.2      71   -336     11    344    345 168.0   1.9  34142  289.26 0854.57
2009/04/23 16:04:20.3     131   -255    -22    287    288 152.8  -4.6  34146  289.34 0854.56
2009/04/23 16:04:20.4      93   -237      7    255    256 158.6   1.8  34144  289.31 0854.56
2009/04/23 16:04:20.5     -64   -206     11    216    217 197.4   3.1  34140  289.23 0854.56
2009/04/23 16:04:20.6     -90   -189     76    210    224 205.4  19.9  34146  289.33 0854.56
2009/04/23 16:04:20.7     -71   -116    131    137    189 211.6  49.0  34156  289.52 0854.56
2009/04/23 16:04:20.8     -12   -144    126    145    192 184.9  45.4  34154  289.46 0854.56
2009/04/23 16:04:20.9      21   -284     93    285    300 175.6  18.1  34148  289.36 0854.56
2009/04/23 16:04:21.0    -160   -435     35    464    466 200.3   4.4  34130  289.08 0854.56
2009/04/23 16:04:21.1    -157   -539    -71    562    567 196.3  -7.2  34140  289.24 0854.56
2009/04/23 16:04:21.2    -191   -517      4    552    553 200.3   0.5  34126  288.99 0854.56
2009/04/23 16:04:21.3    -184   -222     89    289    303 219.6  17.2  34140  289.22 0854.56
2009/04/23 16:04:21.4    -140   -224    165    265    312 212.1  35.5  34138  289.20 0854.56
2009/04/23 16:04:21.5    -139   -287    127    320    344 205.9  22.9  34140  289.23 0854.56
2009/04/23 16:04:21.6    -128   -133     29    185    188 223.9   9.0  34144  289.30 0854.56
2009/04/23 16:04:21.7    -204   -140    -77    248    259 235.4 -22.3  34146  289.32 0854.56
2009/04/23 16:04:21.8    -187   -198    -80    273    285 223.3 -16.4  34144  289.29 0854.56
2009/04/23 16:04:21.9    -166   -165     90    235    251 225.1  22.0  34140  289.24 0854.56
2009/04/23 16:04:22.0     -28   -277     10    279    280 185.8   2.1  34140  289.24 0854.56
2009/04/23 16:04:22.1    -226   -337    -95    406    418 213.9 -13.3  34146  289.33 0854.56
2009/04/23 16:04:22.2    -286   -261   -131    388    410 227.7 -18.7  34146  289.34 0854.56
2009/04/23 16:04:22.3    -191   -263    -98    326    341 216.0 -16.8  34138  289.21 0854.58
2009/04/23 16:04:22.4    -262    -80   -182    275    329 252.9 -40.9  34152  289.44 0854.58
2009/04/23 16:04:22.5    -237   -157    -84    285    297 236.5 -21.2  34148  289.37 0854.58
2009/04/23 16:04:22.6    -301   -227     71    378    385 233.0  10.7  34156  289.52 0854.58
2009/04/23 16:04:22.7    -147   -136     47    201    207 227.3  13.2  34152  289.43 0854.58
2009/04/23 16:04:22.8    -203   -160     41    259    263 231.6   9.0  34158  289.53 0854.58
2009/04/23 16:04:22.9     -54   -135    193    146    242 201.8  59.4  34156  289.52 0854.58
2009/04/23 16:04:23.0      61   -109    134    126    183 150.6  52.0  34160  289.57 0854.58
2009/04/23 16:04:23.1     115   -212     -9    242    243 151.5  -2.2  34148  289.36 0854.58
2009/04/23 16:04:23.2     218   -117    -66    248    257 118.2 -15.0  34140  289.22 0854.58
2009/04/23 16:04:23.3     146   -172   -117    226    254 139.7 -33.7  34150  289.39 0854.58
2009/04/23 16:04:23.4      73   -213     17    226    227 161.1   4.4  34132  289.09 0854.58
2009/04/23 16:04:23.5     129   -100     56    164    174 127.8  18.9  34132  289.11 0854.58
2009/04/23 16:04:23.6      78     14    -15     80     82  79.4 -10.9  34126  288.99 0854.58
2009/04/23 16:04:23.7     -39     47    -41     62     74 320.3 -40.0  34136  289.18 0854.58
2009/04/23 16:04:23.8      10     52      8     54     55  11.5   9.0  34138  289.21 0854.58
2009/04/23 16:04:23.9     142    -90    -33    169    173 122.5 -11.1  34148  289.36 0854.58
2009/04/23 16:04:24.0     239   -177    -27    298    300 126.6  -5.2  34152  289.42 0854.58
2009/04/23 16:04:24.1     133    -72     24    152    154 118.4   9.0  34150  289.40 0854.58
2009/04/23 16:04:24.2     -60    -21      3     64     65 250.0   2.9  34156  289.50 0854.58
2009/04/23 16:04:24.3     -63   -136      0    151    152 204.9   0.2  34154  289.46 0854.55
2009/04/23 16:04:24.4     -54    -94    -22    109    112 209.9 -11.3  34156  289.52 0854.55
2009/04/23 16:04:24.5    -125      9    -35    126    131 274.3 -15.5  34156  289.52 0854.55
2009/04/23 16:04:24.6     -92    -28   -138     97    168 253.2 -65.9  34160  289.57 0854.55
2009/04/23 16:04:24.7    -254    -19    -76    255    267 265.6 -16.6  34146  289.32 0854.55
2009/04/23 16:04:24.8    -112     32   -140    117    182 285.9 -60.5  34168  289.72 0854.55
2009/04/23 16:04:24.9      31   -131    -93    135    163 166.6 -42.2  34172  289.79 0854.55
2009/04/23 16:04:25.0      15   -189   -174    190    257 175.3 -51.9  34154  289.47 0854.55
2009/04/23 16:04:25.1      91   -299   -205    313    374 163.0 -40.7  34158  289.54 0854.55
2009/04/23 16:04:25.2     145   -155   -144    213    257 136.8 -41.8  34152  289.44 0854.55
2009/04/23 16:04:25.3     174   -133    -95    220    239 127.3 -29.3  34144  289.31 0854.53
2009/04/23 16:04:25.4     162   -112     -7    198    199 124.6  -2.2  34144  289.31 0854.53
2009/04/23 16:04:25.5      69    -86    -42    111    118 141.3 -25.9  34142  289.26 0854.53
2009/04/23 16:04:25.6      91    -95    -49    132    140 136.3 -25.4  34144  289.30 0854.53
2009/04/23 16:04:25.7     -38   -183    -71    187    200 191.8 -25.9  34150  289.40 0854.53
2009/04/23 16:04:25.8      37   -294    -16    297    298 172.7  -3.1  34140  289.22 0854.53
2009/04/23 16:04:25.9      32   -324     13    326    327 174.2   2.4  34146  289.34 0854.53
2009/04/23 16:04:26.0     124   -451    106    468    480 164.6  12.8  34140  289.23 0854.53
2009/04/23 16:04:26.1     184   -343     34    390    392 151.7   5.1  34142  289.26 0854.53
2009/04/23 16:04:26.2     104   -400     42    414    417 165.4   5.9  34134  289.14 0854.53
2009/04/23 16:04:26.3     177   -335     55    380    385 152.1   8.3  34142  289.28 0854.53
2009/04/23 16:04:26.4     185   -399     61    440    445 155.1   7.9  34142  289.26 0854.53
2009/04/23 16:04:26.5     126   -498     12    514    515 165.7   1.4  34148  289.37 0854.53
2009/04/23 16:04:26.6      32   -566     75    567    572 176.8   7.6  34156  289.49 0854.53
2009/04/23 16:04:26.7     107   -565      8    576    577 169.3   0.8  34150  289.39 0854.53
2009/04/23 16:04:26.8     113   -596     -2    607    608 169.2  -0.3  34150  289.41 0854.53
2009/04/23 16:04:26.9      63   -583     38    587    589 173.8   3.8  34156  289.52 0854.53
2009/04/23 16:04:27.0     122   -545    137    559    576 167.3  13.8  34142  289.27 0854.53
2009/04/23 16:04:27.1     167   -619     75    642    647 164.9   6.7  34136  289.16 0854.53
2009/04/23 16:04:27.2     164   -535      8    560    561 163.0   0.9  34132  289.11 0854.53
2009/04/23 16:04:27.3     145   -556     23    575    576 165.3   2.3  34130  289.07 0854.54
2009/04/23 16:04:27.4     188   -584    -44    614    616 162.1  -4.1  34120  288.89 0854.54
2009/04/23 16:04:27.5     184   -537    -22    568    569 161.1  -2.2  34128  289.03 0854.54
2009/04/23 16:04:27.6      97   -572     81    581    587 170.3   8.0  34140  289.24 0854.54
2009/04/23 16:04:27.7     138   -544    112    562    574 165.7  11.3  34130  289.07 0854.54
2009/04/23 16:04:27.8     157   -475    146    501    522 161.7  16.3  34142  289.28 0854.54
2009/04/23 16:04:27.9     157   -375    139    407    431 157.3  18.9  34144  289.29 0854.54
2009/04/23 16:04:28.0     150   -346    -20    378    379 156.5  -3.1  34142  289.28 0854.54
2009/04/23 16:04:28.1     133   -359     36    384    386 159.6   5.5  34132  289.11 0854.54
2009/04/23 16:04:28.2     105   -298    -33    317    319 160.6  -6.1  34138  289.19 0854.54
2009/04/23 16:04:28.3      15   -201    -11    202    203 175.6  -3.2  34140  289.24 0854.54
2009/04/23 16:04:28.4       0   -171    -33    172    176 180.2 -11.1  34142  289.26 0854.54
2009/04/23 16:04:28.5       0   -191    -34    192    196 180.0 -10.1  34136  289.18 0854.54
2009/04/23 16:04:28.6      16   -208    -27    209    211 175.5  -7.5  34136  289.18 0854.54
2009/04/23 16:04:28.7      87   -169    -68    191    203 152.6 -19.7  34134  289.13 0854.54
2009/04/23 16:04:28.8     166    -44    -22    172    174 105.1  -7.3  34138  289.19 0854.54
2009/04/23 16:04:28.9     205    -97     -5    228    229 115.4  -1.3  34136  289.16 0854.54
2009/04/23 16:04:29.0     152    -71    -11    169    170 115.2  -3.9  34140  289.24 0854.54
2009/04/23 16:04:29.1     146    -83      5    169    170 119.8   1.8  34140  289.24 0854.54
2009/04/23 16:04:29.2     199    -72      5    212    213 110.0   1.6  34146  289.33 0854.54
2009/04/23 16:04:29.3     208   -123     56    242    249 120.6  13.2  34150  289.39 0854.54
2009/04/23 16:04:29.4     161    -48     50    169    177 106.8  16.6  34150  289.40 0854.54
2009/04/23 16:04:29.5     166    -50     25    174    176 106.8   8.2  34152  289.45 0854.54
2009/04/23 16:04:29.6      93    -15    -51     95    107  99.2 -34.7  34150  289.40 0854.54
2009/04/23 16:04:29.7      85     15    -41     87     96  79.4 -31.6  34150  289.40 0854.54
2009/04/23 16:04:29.8      56     33    -74     66     99  59.3 -57.7  34150  289.41 0854.54
2009/04/23 16:04:29.9      50     62    -82     80    114  38.7 -54.1  34154  289.48 0854.54
2009/04/23 16:04:30.0       2     37   -135     38    140   4.5 -88.8  34158  289.53 0854.54
2009/04/23 16:04:30.1     -27    -18    -89     33     94 235.8 -84.1  34156  289.52 0854.54
2009/04/23 16:04:30.2     -60     49    -86     78    116 309.5 -57.1  34144  289.31 0854.54
2009/04/23 16:04:30.3     -77     76    -79    109    134 314.4 -44.1  34140  289.24 0854.54
2009/04/23 16:04:30.4    -128     71   -106    147    181 298.9 -43.9  34146  289.35 0854.54
2009/04/23 16:04:30.5    -219     63    -71    229    239 286.2 -22.3  34150  289.39 0854.54
2009/04/23 16:04:30.6    -303     15    -21    304    305 273.0  -4.1  34150  289.41 0854.54
2009/04/23 16:04:30.7    -258    -63     52    266    272 256.1  11.1  34156  289.49 0854.54
2009/04/23 16:04:30.8    -125   -125     63    178    190 225.0  19.6  34154  289.46 0854.54
2009/04/23 16:04:30.9    -167   -103    133    197    237 238.2  37.4  34144  289.31 0854.54
2009/04/23 16:04:31.0    -132    -44    135    140    194 251.4  49.2  34166  289.67 0854.54
2009/04/23 16:04:31.1     -92   -186     63    208    218 206.3  16.8  34154  289.46 0854.54
2009/04/23 16:04:31.2    -135   -312    -89    341    353 203.4 -14.7  34162  289.60 0854.54
2009/04/23 16:04:31.3    -180   -287    -37    339    342 212.1  -6.2  34154  289.48 0854.56
2009/04/23 16:04:31.4    -241   -187   -112    306    325 232.2 -25.4  34152  289.42 0854.56
2009/04/23 16:04:31.5    -254   -120     18    282    283 244.6   3.8  34158  289.53 0854.56
2009/04/23 16:04:31.6       5   -300     47    301    305 179.0   9.0  34148  289.36 0854.56
2009/04/23 16:04:31.7     -69   -176    -13    190    191 201.4  -4.1  34154  289.48 0854.56
2009/04/23 16:04:31.8      -8   -173    -15    174    175 182.7  -5.2  34154  289.46 0854.56
2009/04/23 16:04:31.9      21   -184     -3    186    187 173.3  -1.2  34148  289.38 0854.56
2009/04/23 16:04:32.0     -64   -339     61    346    352 190.8  10.1  34142  289.26 0854.56
2009/04/23 16:04:32.1     -61   -301    153    308    343 191.5  28.2  34142  289.26 0854.56
2009/04/23 16:04:32.2      31   -251     78    253    265 172.8  17.3  34142  289.25 0854.56
2009/04/23 16:04:32.3     247   -141    185    285    339 119.8  35.9  34140  289.24 0854.56
2009/04/23 16:04:32.4     174   -339     48    382    386 152.8   7.2  34138  289.20 0854.56
2009/04/23 16:04:32.5     257   -264    214    369    426 135.7  32.7  34142  289.27 0854.56
2009/04/23 16:04:32.6     204   -282    266    349    438 144.0  41.1  34172  289.77 0854.56
2009/04/23 16:04:32.7     -21   -365    148    366    394 183.4  23.4  34150  289.40 0854.56
2009/04/23 16:04:32.8     114   -270    122    294    318 157.2  23.8  34140  289.24 0854.56
2009/04/23 16:04:32.9     -38   -273    109    276    296 188.0  23.0  34142  289.25 0854.56
2009/04/23 16:04:33.0      56   -236     65    243    252 166.6  15.0  34142  289.25 0854.56
2009/04/23 16:04:33.1       8   -243     -4    244    245 178.0  -1.1  34144  289.29 0854.56
2009/04/23 16:04:33.2      45   -234    -69    239    248 169.1 -21.0  34144  289.29 0854.56
2009/04/23 16:04:33.3      17   -265    -28    266    268 176.2  -6.2  34146  289.32 0854.57
2009/04/23 16:04:33.4      13   -186    -26    187    189 176.0  -8.0  34148  289.38 0854.57
2009/04/23 16:04:33.5      37   -162     -6    167    168 167.1  -2.2  34146  289.33 0854.57
2009/04/23 16:04:33.6      90   -146     -7    172    173 148.4  -2.6  34148  289.36 0854.57
2009/04/23 16:04:33.7      74    -94     34    121    126 141.7  15.8  34148  289.38 0854.57
2009/04/23 16:04:33.8      58    -78      5     98     99 143.5   2.9  34146  289.35 0854.57
2009/04/23 16:04:33.9      67    -88     13    111    112 142.6   7.1  34150  289.41 0854.57
2009/04/23 16:04:34.0      48    -45     12     66     68 133.1  11.0  34150  289.40 0854.57
2009/04/23 16:04:34.1      20    -45     32     50     59 156.4  35.6  34152  289.45 0854.57
2009/04/23 16:04:34.2       0    -42     42     43     60 180.0  50.0  34168  289.72 0854.57
2009/04/23 16:04:34.3     -20    -61     58     65     87 198.5  46.9  34160  289.58 0854.57
2009/04/23 16:04:34.4     -35    -90     63     97    115 201.4  35.6  34150  289.40 0854.57
2009/04/23 16:04:34.5    -133   -181     83    225    239 216.3  21.0  34152  289.42 0854.57
2009/04/23 16:04:34.6    -169   -175    116    244    270 223.9  27.2  34148  289.37 0854.57
2009/04/23 16:04:34.7    -148   -233    115    277    299 212.5  23.8  34144  289.29 0854.57
2009/04/23 16:04:34.8     -61   -265    158    273    315 193.1  32.7  34148  289.36 0854.57
2009/04/23 16:04:34.9    -201   -295    161    358    392 214.3  25.9  34142  289.28 0854.57
2009/04/23 16:04:35.0    -144   -312    220    344    408 204.8  35.6  34146  289.33 0854.57
2009/04/23 16:04:35.1    -158   -276    183    319    367 209.8  32.6  34156  289.52 0854.57
2009/04/23 16:04:35.2    -211   -116     91    241    257 241.2  22.0  34158  289.54 0854.57
2009/04/23 16:04:35.3    -216   -297    177    368    408 216.0  27.3  34154  289.47 0854.57
2009/04/23 16:04:35.4     -52   -225    287    232    369 193.1  56.9  34168  289.71 0854.57
2009/04/23 16:04:35.5    -110   -326    168    345    383 198.7  27.7  34160  289.57 0854.57
2009/04/23 16:04:35.6     -60   -432    128    437    456 188.0  16.4  34146  289.33 0854.57
2009/04/23 16:04:35.7     -45   -491    106    494    506 185.3  12.1  34146  289.35 0854.57
2009/04/23 16:04:35.8      11   -520     46    521    524 178.8   5.1  34146  289.35 0854.57
2009/04/23 16:04:35.9     169   -625    124    648    660 164.8  10.9  34144  289.30 0854.57
2009/04/23 16:04:36.0     224   -591     43    633    635 159.2   3.9  34146  289.33 0854.57
2009/04/23 16:04:36.1     167   -452    170    483    513 159.7  19.4  34152  289.44 0854.57
2009/04/23 16:04:36.2     391   -406     48    564    567 136.1   4.9  34142  289.28 0854.57
2009/04/23 16:04:36.3     225   -232    162    324    362 135.9  28.6  34152  289.42 0854.57
2009/04/23 16:04:36.4     255   -413    202    486    526 148.3  23.8  34160  289.56 0854.57
2009/04/23 16:04:36.5     305   -478    189    568    599 147.4  18.4  34160  289.58 0854.57
2009/04/23 16:04:36.6     347   -397    119    528    542 138.9  12.8  34160  289.58 0854.57
2009/04/23 16:04:36.7     219   -461    130    511    528 154.5  14.3  34164  289.65 0854.57
2009/04/23 16:04:36.8     194   -454    146    494    516 156.8  16.5  34160  289.56 0854.57
2009/04/23 16:04:36.9     242   -402     53    470    474 148.9   6.5  34152  289.44 0854.57
2009/04/23 16:04:37.0     271   -411     58    493    497 146.6   6.8  34150  289.40 0854.57
2009/04/23 16:04:37.1     181   -430    114    467    481 157.2  13.8  34156  289.49 0854.57
2009/04/23 16:04:37.2     251   -369    216    447    496 145.7  27.7  34184  289.98 0854.57
2009/04/23 16:04:37.3     209   -328     15    390    391 147.5   2.2  34170  289.74 0854.57
2009/04/23 16:04:37.4     173   -262    -22    315    316 146.6  -4.1  34168  289.70 0854.57
2009/04/23 16:04:37.5      84   -309    132    321    347 164.8  23.6  34152  289.45 0854.57
2009/04/23 16:04:37.6     140   -385    198    410    455 160.0  27.7  34180  289.92 0854.57
2009/04/23 16:04:37.7      80   -346    268    356    445 166.9  40.7  34198  290.22 0854.57
2009/04/23 16:04:37.8      59   -208    244    217    326 164.2  53.9  34208  290.39 0854.57
2009/04/23 16:04:37.9      48   -310    243    314    397 171.1  41.6  34188  290.04 0854.57
2009/04/23 16:04:38.0      12   -297    302    298    424 177.5  50.2  34198  290.20 0854.57
2009/04/23 16:04:38.1      17   -299    225    300    375 176.6  40.6  34166  289.69 0854.57
2009/04/23 16:04:38.2       3   -305    275    306    411 179.3  46.6  34178  289.89 0854.57
2009/04/23 16:04:38.3     -29   -379    231    380    444 184.4  34.2  34164  289.65 0854.57
2009/04/23 16:04:38.4     -41   -511    186    513    545 184.7  20.9  34170  289.75 0854.57
2009/04/23 16:04:38.6     -91   -486    149    495    517 190.6  16.8  34170  289.73 0854.57
2009/04/23 16:04:38.7    -104   -400    138    414    437 194.6  18.4  34164  289.63 0854.57
2009/04/23 16:04:38.8     -65   -319    108    326    344 191.7  18.4  34162  289.59 0854.57
2009/04/23 16:04:38.9     -95   -350    214    363    421 195.3  33.4  34152  289.44 0854.57
2009/04/23 16:04:39.0     -67   -258    190    267    327 194.7  39.0  34160  289.58 0854.57
2009/04/23 16:04:39.1     -32   -226    142    229    269 188.1  35.0  34166  289.66 0854.57
2009/04/23 16:04:39.2      14   -229    177    230    290 176.4  41.6  34170  289.73 0854.57
2009/04/23 16:04:39.3     -28   -258     90    260    275 186.2  20.0  34172  289.78 0854.57
2009/04/23 16:04:39.4       3   -255    114    256    280 179.3  25.3  34176  289.83 0854.57
2009/04/23 16:04:39.5      20   -184    201    186    273 173.5  52.2  34198  290.20 0854.57
2009/04/23 16:04:39.6      55   -271    176    277    328 168.4  35.5  34176  289.83 0854.57
2009/04/23 16:04:39.7       8   -212    153    213    262 177.8  39.3  34176  289.83 0854.57
2009/04/23 16:04:39.8      41   -275    168    279    325 171.5  34.0  34170  289.75 0854.57
2009/04/23 16:04:39.9       5   -188    173    189    256 178.2  47.5  34208  290.37 0854.57
2009/04/23 16:04:40.0       2   -143    166    144    219 179.1  54.6  34210  290.43 0854.57
2009/04/23 16:04:40.1       2   -126    157    127    201 179.0  56.6  34194  290.16 0854.57
2009/04/23 16:04:40.2     -16   -147    100    148    178 186.3  37.3  34170  289.74 0854.57
2009/04/23 16:04:40.3     -35   -106    140    112    179 198.3  57.1  34164  289.63 0854.57
2009/04/23 16:04:40.4     -75   -169    159    186    244 204.1  44.8  34146  289.33 0854.57
2009/04/23 16:04:40.5     -22   -206    161    208    263 186.2  41.6  34156  289.49 0854.57
2009/04/23 16:04:40.6     -20   -191    252    193    317 186.0  58.9  34174  289.81 0854.57
2009/04/23 16:04:40.7    -100   -121    161    158    225 219.6  50.4  34156  289.52 0854.57
2009/04/23 16:04:40.8     -49    -99     29    111    115 206.7  14.7  34142  289.28 0854.57
2009/04/23 16:04:40.9     -37   -107    -22    114    117 199.2 -11.3  34142  289.28 0854.57
2009/04/23 16:04:41.0       5    -67    -20     68     70 175.5 -21.7  34142  289.26 0854.57
2009/04/23 16:04:41.1      45    -19      0     50     51 113.5  -0.3  34144  289.30 0854.57
2009/04/23 16:04:41.2      79     20     36     82     89  75.4  25.7  34154  289.48 0854.57
2009/04/23 16:04:41.3     139     18     93    141    168  82.5  36.5  34166  289.69 0854.58
2009/04/23 16:04:41.4      68     60     70     91    114  48.7  41.7  34164  289.65 0854.58
2009/04/23 16:04:41.5    -102    -76    153    128    199 233.1  56.1  34178  289.89 0854.58
2009/04/23 16:04:41.6       0     60    160     61    171 359.1  78.4  34190  290.09 0854.58
2009/04/23 16:04:41.7      27     34    132     44    139  38.7  81.0  34184  289.99 0854.58
2009/04/23 16:04:41.8      85      2    135     86    160  88.3  64.7  34178  289.89 0854.58
2009/04/23 16:04:41.9      69     50     49     86     98  54.0  31.9  34166  289.69 0854.58
2009/04/23 16:04:42.0       0     44     97     45    106 359.1  73.5  34192  290.11 0854.58
2009/04/23 16:04:42.1      67     54     80     87    118  50.9  47.9  34164  289.63 0854.58
2009/04/23 16:04:42.2      55     64    107     85    136  41.0  56.9  34168  289.70 0854.58
2009/04/23 16:04:42.3     133     58     93    146    173  66.5  35.5  34174  289.80 0854.58
2009/04/23 16:04:42.4      88      0     78     89    118  90.0  45.8  34186  290.01 0854.58
2009/04/23 16:04:42.5     -61      3    125     62    139 273.5  71.9  34218  290.55 0854.58
2009/04/23 16:04:42.6       7    -99    161    100    189 175.6  64.9  34200  290.26 0854.58
2009/04/23 16:04:42.7     -35     -2    133     36    137 265.6  84.9  34202  290.30 0854.58
2009/04/23 16:04:42.8     -68    -68    118     97    152 225.0  56.4  34176  289.84 0854.58
2009/04/23 16:04:42.9     -48   -101    115    112    160 205.5  50.7  34162  289.62 0854.58
2009/04/23 16:04:43.0     -37   -182    161    186    246 191.6  45.4  34164  289.65 0854.58
2009/04/23 16:04:43.1    -154   -313    164    349    385 206.2  27.1  34156  289.50 0854.58
2009/04/23 16:04:43.2    -237   -302     39    384    387 218.1   5.9  34146  289.33 0854.58
2009/04/23 16:04:43.3    -306   -182    -49    357    361 239.2  -7.9  34142  289.26 0854.59
2009/04/23 16:04:43.4    -242   -175    -21    299    300 234.0  -4.1  34150  289.39 0854.59
2009/04/23 16:04:43.5    -278   -136    -24    310    312 243.8  -4.6  34152  289.42 0854.59
2009/04/23 16:04:43.6    -337   -158    -71    373    380 244.8 -10.9  34216  290.52 0854.59
2009/04/23 16:04:43.7    -313   -200    -33    372    374 237.4  -5.2  34214  290.49 0854.59
2009/04/23 16:04:43.8    -160   -281     76    324    333 209.7  13.3  34188  290.06 0854.59
2009/04/23 16:04:43.9     -86   -248     91    263    279 199.2  19.2  34166  289.68 0854.59
2009/04/23 16:04:44.0    -149   -116      9    190    191 232.0   2.9  34172  289.77 0854.59
2009/04/23 16:04:44.1    -196   -125    -30    233    235 237.4  -7.5  34172  289.76 0854.59
2009/04/23 16:04:44.2      20    -32    109     38    115 147.5  81.2  34176  289.85 0854.59
2009/04/23 16:04:44.3      52    -46    126     70    144 131.3  68.8  34178  289.87 0854.59
2009/04/23 16:04:44.4       5    -35    128     36    132 172.0  83.9  34176  289.84 0854.59
2009/04/23 16:04:44.5     -24     64    117     69    135 339.1  66.7  34224  290.65 0854.59
2009/04/23 16:04:44.6     -39     74     64     84    105 331.9  41.2  34270  291.45 0854.59
2009/04/23 16:04:44.7     -83     56    -29    101    105 304.2 -21.2  34220  290.60 0854.59
2009/04/23 16:04:44.8    -236    -18    -29    237    239 265.6  -7.2  34176  289.85 0854.59
2009/04/23 16:04:44.9    -290     40     14    293    294 277.9   2.8  34172  289.76 0854.59
2009/04/23 16:04:45.0    -210    -42     25    215    217 258.6   6.9  34148  289.38 0854.59
2009/04/23 16:04:45.1    -177     83     19    196    197 295.2   5.7  34200  290.26 0854.59
2009/04/23 16:04:45.2    -224     45     45    229    234 281.5  11.1  34222  290.64 0854.59
2009/04/23 16:04:45.3    -202    100     21    226    228 296.4   5.4  34232  290.79 0854.60
2009/04/23 16:04:45.4    -206     82     72    222    234 291.7  17.9  34270  291.43 0854.60
2009/04/23 16:04:45.5    -159     79     62    178    189 296.6  19.4  34264  291.33 0854.60
2009/04/23 16:04:45.6    -181     91     39    203    207 296.9  11.1  34268  291.42 0854.60
2009/04/23 16:04:45.7    -219    116     -9    248    249 298.0  -2.2  34250  291.09 0854.60
2009/04/23 16:04:45.8    -231    100     28    252    254 293.5   6.5  34182  289.93 0854.60
2009/04/23 16:04:45.9    -197    233     23    306    307 319.7   4.4  34216  290.53 0854.60
2009/04/23 16:04:46.0    -298    215   -110    368    385 305.9 -16.6  34150  289.40 0854.60
2009/04/23 16:04:46.1    -419    326     11    532    533 307.9   1.2  34222  290.63 0854.60
2009/04/23 16:04:46.2    -322    312     22    449    450 314.0   2.9  34202  290.29 0854.60
2009/04/23 16:04:46.3    -394    201    -16    443    444 297.0  -2.1  34128  289.04 0854.59
2009/04/23 16:04:46.4    -351    220    -77    415    423 302.0 -10.5  34130  289.07 0854.59
2009/04/23 16:04:46.5    -300    198    -37    360    362 303.5  -6.0  34128  289.04 0854.59
2009/04/23 16:04:46.6    -299    181    -20    350    351 301.3  -3.3  34130  289.08 0854.59
2009/04/23 16:04:46.7    -235    220     13    322    323 313.1   2.4  34132  289.10 0854.59
2009/04/23 16:04:46.8    -219    104    -44    243    248 295.4 -10.4  34126  289.00 0854.59
2009/04/23 16:04:46.9    -191    132     27    233    235 304.6   6.7  34132  289.10 0854.59
2009/04/23 16:04:47.0    -223     49      0    229    230 282.4   0.2  34156  289.52 0854.59
2009/04/23 16:04:47.1    -285     50    -52    290    295 280.1 -10.3  34178  289.86 0854.59
2009/04/23 16:04:47.2    -327    101     -4    343    344 287.3  -0.7  34192  290.11 0854.59
2009/04/23 16:04:47.3    -256    101     48    276    281 291.7  10.0  34194  290.14 0854.59
2009/04/23 16:04:47.4    -260     69     -9    270    271 285.0  -2.1  34212  290.46 0854.59
2009/04/23 16:04:47.5    -196     62    -58    206    214 287.7 -20.7  34184  289.99 0854.59
2009/04/23 16:04:47.6    -249    -19    -44    250    254 265.6 -10.1  34170  289.75 0854.59
2009/04/23 16:04:47.7    -185     49     16    192    193 284.8   4.9  34184  289.99 0854.59
2009/04/23 16:04:47.8    -318    203    -25    378    379 302.5  -3.8  34178  289.89 0854.59
2009/04/23 16:04:47.9    -268     37    -92    271    286 277.9 -23.3  34166  289.66 0854.59
2009/04/23 16:04:48.0    -225     24   -116    227    254 276.1 -33.6  34152  289.44 0854.59
2009/04/23 16:04:48.1    -341    -92    -97    354    368 254.9 -15.4  34152  289.43 0854.59
2009/04/23 16:04:48.2    -385    -52   -127    389    409 262.2 -23.3  34144  289.29 0854.59
2009/04/23 16:04:48.3    -307   -113    -90    328    341 249.7 -15.4  34156  289.52 0854.60
2009/04/23 16:04:48.4    -193    -72     78    207    221 249.4  21.5  34176  289.84 0854.60
2009/04/23 16:04:48.5    -349   -121   -117    370    389 250.8 -17.5  34152  289.45 0854.60
2009/04/23 16:04:48.6    -406    -42    -21    409    410 264.1  -3.0  34174  289.82 0854.60
2009/04/23 16:04:48.7    -423   -118   -115    440    455 254.3 -14.7  34138  289.21 0854.60
2009/04/23 16:04:48.8    -422   -162   -141    453    475 249.0 -17.3  34136  289.17 0854.60
2009/04/23 16:04:48.9    -480   -160   -164    507    533 251.5 -17.9  34138  289.19 0854.60
2009/04/23 16:04:49.0    -447    -69   -136    453    474 261.2 -16.8  34136  289.15 0854.60
2009/04/23 16:04:49.1    -435   -157   -152    463    487 250.1 -23.3  34144  289.30 0854.60
2009/04/23 16:04:49.2    -416   -141   -174    440    473 251.3 -27.2  34146  289.33 0854.60
2009/04/23 16:04:49.3    -442    -74   -160    449    478 260.4 -19.7  34140  289.23 0854.60
2009/04/23 16:04:49.4    -431   -133    -43    452    455 252.8  -5.5  34156  289.51 0854.60
2009/04/23 16:04:49.5    -344   -168   -132    384    407 243.9 -19.0  34148  289.37 0854.60
2009/04/23 16:04:49.6    -370   -187   -133    415    435 243.1 -22.9  34142  289.27 0854.60
2009/04/23 16:04:49.7    -320   -211   -166    384    418 236.6 -29.4  34146  289.33 0854.60
2009/04/23 16:04:49.8    -235   -194   -174    305    351 230.5 -36.7  34148  289.37 0854.60
2009/04/23 16:04:49.9    -213   -165   -112    270    292 232.2 -28.0  34134  289.14 0854.60
2009/04/23 16:04:50.0    -250   -159    -84    297    308 237.6 -20.4  34144  289.31 0854.60
2009/04/23 16:04:50.1    -267   -187   -106    327    343 235.0 -23.0  34146  289.33 0854.60
2009/04/23 16:04:50.2    -357   -230   -150    425    450 237.2 -24.5  34140  289.22 0854.60
2009/04/23 16:04:50.3    -297   -205   -175    362    402 235.4 -32.1  34146  289.32 0854.59
2009/04/23 16:04:50.4    -245   -208   -116    322    343 229.6 -19.8  34160  289.57 0854.59
2009/04/23 16:04:50.5    -149   -198   -136    248    282 217.0 -35.7  34160  289.56 0854.59
2009/04/23 16:04:50.6    -111   -200   -127    229    261 209.0 -35.8  34140  289.24 0854.59
2009/04/23 16:04:50.7    -126   -127   -127    180    220 224.8 -43.2  34142  289.28 0854.59
2009/04/23 16:04:50.8     -88   -151   -106    176    205 210.3 -38.4  34170  289.75 0854.59
2009/04/23 16:04:50.9     -84   -133   -135    158    207 212.5 -49.2  34146  289.35 0854.59
2009/04/23 16:04:51.0     -42   -171   -103    177    204 193.8 -37.5  34150  289.41 0854.59
2009/04/23 16:04:51.1      -3   -193   -112    194    224 180.9 -37.3  34142  289.28 0854.59
2009/04/23 16:04:51.2       0   -218   -101    219    241 180.2 -30.8  34152  289.42 0854.59
2009/04/23 16:04:51.3     -39   -230    -78    234    246 189.6 -23.6  34172  289.78 0854.59
2009/04/23 16:04:51.4     -62   -224    -62    233    242 195.6 -15.0  34180  289.92 0854.59
2009/04/23 16:04:51.5     -27   -252    -66    254    263 186.2 -14.7  34182  289.93 0854.59
2009/04/23 16:04:51.6      17   -226    -77    227    239 175.6 -23.8  34194  290.14 0854.59
2009/04/23 16:04:51.7      60   -213    -72    222    233 164.2 -23.8  34160  289.57 0854.59
2009/04/23 16:04:51.8      57   -260    -82    267    279 167.5 -21.8  34162  289.59 0854.59
2009/04/23 16:04:51.9      55   -249    -91    256    272 167.5 -19.6  34166  289.66 0854.59
2009/04/23 16:04:52.0     116   -267    -50    292    297 156.4  -9.8  34144  289.31 0854.59
2009/04/23 16:04:52.1     170   -268    -40    318    321 147.5  -7.3  34138  289.20 0854.59
2009/04/23 16:04:52.2     230   -293      2    373    374 141.9   0.4  34146  289.32 0854.59
2009/04/23 16:04:52.3     205   -240    -50    316    320 139.5  -9.0  34158  289.53 0854.61
2009/04/23 16:04:52.4     149   -191    -63    243    252 142.2 -14.5  34168  289.70 0854.61
2009/04/23 16:04:52.5      84   -266     33    280    283 162.4   6.9  34162  289.59 0854.61
2009/04/23 16:04:52.6     175   -342    -21    385    386 152.9  -3.1  34176  289.84 0854.61
2009/04/23 16:04:52.7      85   -263     34    277    280 162.1   7.1  34176  289.83 0854.61
2009/04/23 16:04:52.8      95   -251     42    269    273 159.3   9.0  34180  289.92 0854.61
2009/04/23 16:04:52.9      68   -327     74    335    344 168.2  12.5  34184  289.98 0854.61
2009/04/23 16:04:53.0      60   -388    121    393    412 171.1  17.1  34174  289.80 0854.61
2009/04/23 16:04:53.1       0   -326     62    327    333 180.0  10.8  34178  289.89 0854.61
2009/04/23 16:04:53.2      35   -359     34    361    363 174.3   5.5  34182  289.94 0854.61
2009/04/23 16:04:53.3      32   -401     -9    403    404 175.3  -1.4  34188  290.04 0854.61
2009/04/23 16:04:53.4      69   -373      5    380    381 169.5   0.8  34186  290.01 0854.61
2009/04/23 16:04:53.5      91   -296    -12    310    311 162.8  -2.2  34186  290.02 0854.61
2009/04/23 16:04:53.6      69   -349    -18    356    357 168.7  -3.0  34192  290.10 0854.61
2009/04/23 16:04:53.7     139   -357     25    384    385 158.7   3.7  34184  289.99 0854.61
2009/04/23 16:04:53.8      84   -350    -32    360    362 166.5  -5.2  34194  290.16 0854.61
2009/04/23 16:04:53.9      -7   -354     44    355    358 181.2   7.1  34168  289.71 0854.61
2009/04/23 16:04:54.0     -50   -441    104    444    457 186.6  13.2  34204  290.31 0854.61
2009/04/23 16:04:54.1     -18   -413    127    414    434 182.6  17.0  34186  290.02 0854.61
2009/04/23 16:04:54.2     -22   -374    132    375    397 183.4  20.0  34188  290.03 0854.61
2009/04/23 16:04:54.3     -29   -355    179    357    399 184.7  28.6  34198  290.21 0854.64
2009/04/23 16:04:54.4      99   -451    109    462    475 167.6  13.3  34182  289.93 0854.64
2009/04/23 16:04:54.5      61   -422    105    427    440 171.7  13.9  34178  289.88 0854.64
2009/04/23 16:04:54.6      58   -381    120    386    405 171.3  17.3  34180  289.91 0854.64
2009/04/23 16:04:54.7      51   -312     74    317    326 170.7  13.3  34186  290.00 0854.64
2009/04/23 16:04:54.8     115   -348    127    367    389 161.6  19.1  34174  289.81 0854.64
2009/04/23 16:04:54.9      47   -326    121    330    351 171.7  21.0  34174  289.82 0854.64
2009/04/23 16:04:55.0     -10   -386    196    387    433 181.6  29.1  34182  289.94 0854.64
2009/04/23 16:04:55.1     -17   -384    208    385    437 182.6  30.7  34182  289.95 0854.64
2009/04/23 16:04:55.2      44   -314    216    318    384 172.0  37.4  34182  289.96 0854.64
2009/04/23 16:04:55.3      78   -310    115    320    340 165.8  20.4  34182  289.96 0854.64
2009/04/23 16:04:55.4      60   -392    123    397    416 171.3  17.3  34176  289.83 0854.64
2009/04/23 16:04:55.5     -21   -417     98    418    430 183.0  13.3  34186  290.00 0854.64
2009/04/23 16:04:55.6     131   -391     91    413    424 161.4  12.5  34168  289.72 0854.64
2009/04/23 16:04:55.7      39   -428    147    431    456 174.7  18.9  34164  289.63 0854.64
2009/04/23 16:04:55.8     129   -358    147    381    408 160.2  22.1  34172  289.77 0854.64
2009/04/23 16:04:55.9     112   -354    159    372    404 162.5  24.6  34168  289.71 0854.64
2009/04/23 16:04:56.0      24   -424    121    425    442 176.8  15.9  34172  289.77 0854.64
2009/04/23 16:04:56.1     -85   -470    222    478    527 190.3  26.7  34182  289.96 0854.64
2009/04/23 16:04:56.2     177   -438    136    473    493 157.9  16.0  34172  289.79 0854.64
2009/04/23 16:04:56.3     111   -322     86    341    352 161.0  14.2  34174  289.82 0854.60
2009/04/23 16:04:56.4     128   -271    131    300    327 154.6  25.1  34186  290.02 0854.60
2009/04/23 16:04:56.5      34   -429     -1    431    432 175.4  -0.3  34174  289.80 0854.60
2009/04/23 16:04:56.6     106   -352    -70    368    375 163.2 -10.9  34176  289.84 0854.60
2009/04/23 16:04:56.7      50   -565    122    568    582 174.9  12.2  34186  290.00 0854.60
2009/04/23 16:04:56.8      89   -340     96    352    365 165.3  15.3  34204  290.32 0854.60
2009/04/23 16:04:56.9      78   -384    294    392    490 168.5  40.7  34212  290.46 0854.60
2009/04/23 16:04:57.0     101   -390    241    403    469 165.4  33.7  34174  289.80 0854.60
2009/04/23 16:04:57.1      -1   -451    289    452    536 180.2  35.6  34142  289.27 0854.60
2009/04/23 16:04:57.2     -62   -452    179    457    490 187.8  22.7  34144  289.30 0854.60
2009/04/23 16:04:57.3      -4   -412    227    413    471 180.6  31.3  34160  289.58 0854.60
2009/04/23 16:04:57.4     105   -393    262    407    484 165.0  35.7  34154  289.48 0854.60
2009/04/23 16:04:57.5      12   -421    260    422    495 178.3  34.6  34156  289.52 0854.60
2009/04/23 16:04:57.6     -12   -341    259    342    429 182.1  40.8  34154  289.47 0854.60
2009/04/23 16:04:57.7      42   -359    225    362    426 173.3  35.0  34160  289.56 0854.60
2009/04/23 16:04:57.8      46   -326    225    330    399 171.9  37.6  34162  289.60 0854.60
2009/04/23 16:04:57.9     121   -346    211    367    423 160.6  32.4  34166  289.66 0854.60
2009/04/23 16:04:58.0     176   -336    195    380    427 152.3  29.3  34162  289.60 0854.60
2009/04/23 16:04:58.1     301   -401    142    502    522 143.1  15.8  34146  289.32 0854.60
2009/04/23 16:04:58.2     140   -424    217    447    496 161.7  27.8  34152  289.42 0854.60
2009/04/23 16:04:58.3     269   -360    274    450    526 143.3  34.2  34162  289.59 0854.55
2009/04/23 16:04:58.4     304   -305     53    432    436 135.1   7.1  34160  289.56 0854.55
2009/04/23 16:04:58.5     193   -365    -33    414    416 152.1  -4.6  34160  289.58 0854.55
2009/04/23 16:04:58.6     130   -371    -17    394    395 160.6  -2.5  34152  289.45 0854.55
2009/04/23 16:04:58.7     223   -238     46    327    331 136.8   8.0  34144  289.30 0854.55
2009/04/23 16:04:58.8     116   -251    147    277    313 155.1  30.2  34154  289.46 0854.55
2009/04/23 16:04:58.9      49   -110    163    121    203 155.9  60.0  34160  289.57 0854.55
2009/04/23 16:04:59.0     -79   -173    179    191    261 204.7  48.0  34164  289.64 0854.55
2009/04/23 16:04:59.1      -3     62     78     63    100 356.4  56.9  34162  289.60 0854.55
2009/04/23 16:04:59.2     178    -98    201    204    286 118.9  49.9  34156  289.49 0854.55
2009/04/23 16:04:59.3     247   -217    201    329    385 131.3  34.4  34154  289.47 0854.55
2009/04/23 16:04:59.4      54   -230     82    237    251 166.7  19.2  34158  289.53 0854.55
2009/04/23 16:04:59.5       4   -229    118    230    258 179.0  29.3  34154  289.47 0854.55
2009/04/23 16:04:59.6      14   -191      6    192    193 175.6   1.8  34156  289.52 0854.55
2009/04/23 16:04:59.7     -84   -314    -26    326    328 195.1  -4.6  34156  289.51 0854.55
2009/04/23 16:04:59.8    -285   -433    -31    519    520 213.4  -3.5  34144  289.29 0854.55
2009/04/23 16:04:59.9    -311   -420    -73    523    529 216.5  -8.0  34140  289.24 0854.55
2009/04/23 16:05:00.0    -152   -490    154    514    537 197.3  16.7  34158  289.53 0854.55
2009/04/23 16:05:00.1    -246   -449     73    512    518 208.7   8.1  34152  289.42 0854.55
2009/04/23 16:05:00.2    -362   -371    -35    519    521 224.3  -3.9  34154  289.46 0854.55
2009/04/23 16:05:00.3    -376   -163     33    410    412 246.5   4.7  34158  289.53 0854.51
2009/04/23 16:05:00.4    -208   -313     20    376    377 213.6   3.1  34152  289.43 0854.51
2009/04/23 16:05:00.5    -261   -361    122    446    463 215.8  15.3  34160  289.56 0854.51
2009/04/23 16:05:00.6    -206   -347     86    404    414 210.7  12.0  34156  289.51 0854.51
2009/04/23 16:05:00.7    -205   -367    120    421    438 209.3  15.9  34156  289.51 0854.51
2009/04/23 16:05:00.8    -147   -255    127    295    321 209.9  24.8  34154  289.47 0854.51
2009/04/23 16:05:00.9     -90   -346     20    358    359 194.7   3.3  34154  289.48 0854.51
2009/04/23 16:05:01.0    -139   -295    -12    327    328 205.2  -2.2  34150  289.39 0854.51
2009/04/23 16:05:01.1    -147   -639     -5    656    657 193.0  -0.5  34138  289.19 0854.51
2009/04/23 16:05:01.2    -109   -576     66    587    591 190.7   6.5  34138  289.19 0854.51
2009/04/23 16:05:01.3    -156   -390    107    421    435 201.8  14.3  34152  289.43 0854.51
2009/04/23 16:05:01.4    -138   -303    251    334    417 204.5  40.7  34154  289.48 0854.51
2009/04/23 16:05:01.5    -102   -345    141    360    386 196.5  22.7  34146  289.35 0854.51
2009/04/23 16:05:01.6    -101   -497    202    508    546 191.6  23.0  34142  289.26 0854.51
2009/04/23 16:05:01.7    -113   -552    243    564    614 191.6  24.9  34134  289.14 0854.51
2009/04/23 16:05:01.8     -27   -438    307    439    535 183.6  38.4  34152  289.42 0854.51
2009/04/23 16:05:01.9     157   -437    144    465    487 160.2  17.3  34146  289.35 0854.51
2009/04/23 16:05:02.0      35   -356    188    358    404 174.3  30.1  34148  289.38 0854.51
2009/04/23 16:05:02.1      52   -449    238    453    511 173.3  29.9  34162  289.61 0854.51
2009/04/23 16:05:02.2     307   -549    239    630    673 150.8  21.7  34140  289.24 0854.41
2009/04/23 16:05:02.3     420   -557    205    698    728 143.0  16.4  34146  289.35 0854.41
2009/04/23 16:05:02.4     301   -473    208    562    599 147.5  21.3  34130  289.07 0854.41
2009/04/23 16:05:02.5     302   -499    229    584    627 148.8  22.5  34138  289.20 0854.41
2009/04/23 16:05:02.6     222   -416    379    472    605 151.9  42.8  34154  289.46 0854.41
2009/04/23 16:05:02.7     337   -513    192    614    644 146.7  17.4  34150  289.40 0854.41
2009/04/23 16:05:02.8     350   -430    173    555    582 140.8  17.3  34148  289.36 0854.41
2009/04/23 16:05:02.9     430   -413    163    597    619 133.8  15.3  34146  289.34 0854.41
2009/04/23 16:05:03.0     384   -345    158    517    541 131.9  17.0  34150  289.41 0854.41
2009/04/23 16:05:03.1     296   -350    246    459    520 139.8  30.5  34152  289.44 0854.41
2009/04/23 16:05:03.2     295   -496    218    578    617 149.3  21.7  34152  289.44 0854.41
2009/04/23 16:05:03.3     392   -504    150    639    657 142.2  13.2  34142  289.28 0854.41
2009/04/23 16:05:03.4     323   -490    204    588    623 146.6  19.2  34146  289.34 0854.41
2009/04/23 16:05:03.5     338   -559    217    654    690 148.8  18.4  34140  289.24 0854.41
2009/04/23 16:05:03.6     322   -503    238    598    643 147.4  22.9  34142  289.25 0854.41
2009/04/23 16:05:03.7     368   -538     77    652    657 145.6   6.8  34152  289.43 0854.41
2009/04/23 16:05:03.8     267   -587    227    645    684 155.5  19.4  34154  289.48 0854.41
2009/04/23 16:05:03.9     324   -485    208    584    619 146.2  20.4  34150  289.39 0854.41
2009/04/23 16:05:04.0     264   -352    320    441    544 143.1  39.5  34148  289.37 0854.41
2009/04/23 16:05:04.1     212   -264    213    339    400 141.3  35.3  34154  289.47 0854.41
2009/04/23 16:05:04.2     261   -272    309    378    488 136.2  43.5  34156  289.49 0854.41
2009/04/23 16:05:04.3     288   -277    272    400    483 133.9  37.4  34162  289.60 0854.41
2009/04/23 16:05:04.4     228   -300    213    377    433 142.8  32.0  34160  289.56 0854.41
2009/04/23 16:05:04.5      74   -320    303    329    447 167.0  47.6  34162  289.60 0854.41
2009/04/23 16:05:04.6      86   -285    296    298    420 163.1  50.0  34170  289.74 0854.41
2009/04/23 16:05:04.7     119    -35    126    125    177 106.4  50.1  34170  289.75 0854.41
2009/04/23 16:05:04.9      -4      9    -56     11     57 334.6 -90.0  34166  289.67 0854.41
2009/04/23 16:05:04.9     -13      8   -115     16    116 302.4 -90.0  34172  289.79 0854.41
2009/04/23 16:05:05.0     106   -106   -103    150    181 135.0 -42.2  34168  289.72 0854.41
2009/04/23 16:05:05.2    -120   -317   -236    340    413 200.8 -42.7  34154  289.47 0854.41
2009/04/23 16:05:05.3    -260   -421   -168    495    523 211.7 -18.8  34156  289.49 0854.41
2009/04/23 16:05:05.4    -169   -515   -124    543    558 198.2 -12.9  34154  289.46 0854.41
2009/04/23 16:05:05.5    -242   -512   -185    567    596 205.3 -23.2  34162  289.61 0854.41
2009/04/23 16:05:05.6    -107   -455    -55    468    472 193.3  -6.7  34146  289.32 0854.41
2009/04/23 16:05:05.7    -428   -132    -64    449    454 252.8  -8.2  34154  289.46 0854.41
2009/04/23 16:05:05.8    -446    -55   -142    450    472 262.9 -17.5  34164  289.64 0854.41
2009/04/23 16:05:05.9    -221    -96   -216    241    323 246.5 -50.9  34170  289.75 0854.41
2009/04/23 16:05:06.0    -222   -105   -181    246    305 244.6 -44.1  34166  289.68 0854.41
2009/04/23 16:05:06.1    -207   -106   -173    233    290 242.9 -44.8  34168  289.70 0854.41
2009/04/23 16:05:06.2    -129     76   -110    150    186 300.7 -44.3  34164  289.65 0854.41
2009/04/23 16:05:06.3     -89      6    -74     90    116 274.4 -48.1  34166  289.69 0854.45
2009/04/23 16:05:06.4    -137   -141   -117    197    229 224.1 -37.9  34162  289.62 0854.45
2009/04/23 16:05:06.5     -52   -321   -123    326    348 189.2 -26.0  34166  289.67 0854.45
2009/04/23 16:05:06.6      34   -212    -98    215    236 170.9 -30.6  34170  289.74 0854.45
2009/04/23 16:05:06.7     -33   -124    -54    129    139 195.2 -28.0  34168  289.72 0854.45
2009/04/23 16:05:06.8     -27   -106    -65    110    127 194.3 -37.9  34162  289.62 0854.45
2009/04/23 16:05:06.9      63   -316    -30    323    325 168.7  -5.3  34154  289.46 0854.45
2009/04/23 16:05:07.0     180   -307    -45    357    360 149.6  -7.3  34152  289.43 0854.45
2009/04/23 16:05:07.1     180   -343    -64    388    394 152.3  -9.5  34154  289.48 0854.45
2009/04/23 16:05:07.2     235   -390   -117    456    471 149.0 -14.4  34158  289.54 0854.45
2009/04/23 16:05:07.3     237   -501   -113    555    567 154.7 -11.6  34154  289.46 0854.47
2009/04/23 16:05:07.4     262   -560   -126    619    633 155.0 -11.6  34154  289.48 0854.47
2009/04/23 16:05:07.5     341   -589    -74    681    686 149.9  -6.2  34142  289.26 0854.47
2009/04/23 16:05:07.6     376   -515     69    638    642 143.9   6.2  34152  289.42 0854.47
2009/04/23 16:05:07.7     266   -536    -39    599    601 153.6  -3.7  34154  289.46 0854.47
2009/04/23 16:05:07.8     228   -604    -77    646    651 159.3  -6.9  34152  289.42 0854.47
2009/04/23 16:05:07.9     236   -505    -21    558    559 155.0  -2.2  34148  289.36 0854.47
2009/04/23 16:05:08.0     313   -556     11    639    640 150.6   1.0  34130  289.08 0854.47
2009/04/23 16:05:08.1     256   -581     13    636    637 156.2   1.2  34136  289.16 0854.47
2009/04/23 16:05:08.2      70   -636    -31    640    641 173.7  -2.8  34162  289.62 0854.47
2009/04/23 16:05:08.3      83   -680     48    686    688 173.0   4.0  34158  289.53 0854.47
2009/04/23 16:05:08.4     142   -662     34    678    679 167.9   2.9  34156  289.51 0854.47
2009/04/23 16:05:08.5      30   -752     47    753    755 177.7   3.6  34160  289.58 0854.47
2009/04/23 16:05:08.6     -31   -697     14    698    699 182.6   1.2  34158  289.55 0854.47
2009/04/23 16:05:08.7    -134   -721    -58    734    737 190.6  -4.6  34166  289.68 0854.47
2009/04/23 16:05:08.8     -16   -747    -35    748    749 181.3  -2.7  34158  289.53 0854.47
2009/04/23 16:05:08.9     129   -698    -67    710    714 169.5  -5.5  34150  289.40 0854.47
2009/04/23 16:05:09.0     110   -705    -39    714    716 171.1  -3.2  34142  289.25 0854.47
2009/04/23 16:05:09.1      47   -755    -68    757    761 176.4  -5.2  34132  289.11 0854.47
2009/04/23 16:05:09.2      29   -727   -123    728    739 177.7  -9.6  34136  289.18 0854.47
2009/04/23 16:05:09.3     206   -689     61    720    723 163.4   4.9  34126  289.01 0854.50
2009/04/23 16:05:09.4     261   -595     66    651    655 156.3   5.8  34130  289.06 0854.50
2009/04/23 16:05:09.5      47   -622     23    624    625 175.6   2.1  34130  289.06 0854.50
2009/04/23 16:05:09.6    -110   -592     45    603    605 190.6   4.3  34130  289.05 0854.50
2009/04/23 16:05:09.7     -42   -539   -126    541    556 184.5 -13.1  34132  289.11 0854.50
2009/04/23 16:05:09.8      39   -556   -142    558    576 176.0 -14.3  34134  289.12 0854.50
2009/04/23 16:05:09.9      95   -493    -42    503    505 169.1  -4.9  34130  289.06 0854.50
2009/04/23 16:05:10.0      32   -456    -43    458    461 175.9  -5.5  34134  289.12 0854.50
2009/04/23 16:05:10.1      25   -409     -1    410    411 176.4  -0.3  34132  289.09 0854.50
2009/04/23 16:05:10.2       7   -428    -18    429    430 179.0  -2.5  34136  289.17 0854.50
2009/04/23 16:05:10.3      -5   -352    -74    353    361 180.9 -11.9  34132  289.11 0854.50
2009/04/23 16:05:10.4     -10   -328    -98    329    343 181.9 -21.4  34142  289.26 0854.50
2009/04/23 16:05:10.5       0   -392   -139    393    417 180.1 -19.5  34140  289.24 0854.50
2009/04/23 16:05:10.6       9   -534   -163    535    560 179.0 -17.0  34148  289.38 0854.50
2009/04/23 16:05:10.7      41   -541   -146    543    563 175.7 -15.1  34144  289.29 0854.50
2009/04/23 16:05:10.8     -43   -550   -116    552    565 184.5 -11.9  34148  289.38 0854.50
2009/04/23 16:05:10.9     -56   -478   -163    482    509 186.7 -18.7  34144  289.30 0854.50
2009/04/23 16:05:11.0      35   -471   -149    473    497 175.7 -17.5  34142  289.28 0854.50
2009/04/23 16:05:11.1      -3   -490   -162    491    518 180.4 -18.3  34142  289.25 0854.50
2009/04/23 16:05:11.2     -28   -511   -142    512    531 183.1 -20.1  34152  289.43 0854.50
2009/04/23 16:05:11.3     -20   -442   -149    443    467 182.6 -23.3  34142  289.26 0854.52
2009/04/23 16:05:11.4      -7   -454   -130    455    473 181.0 -20.7  34136  289.18 0854.52
2009/04/23 16:05:11.5      29   -446   -130    447    465 176.2 -21.0  34148  289.36 0854.52
2009/04/23 16:05:11.6     -26   -450   -156    451    478 183.4 -19.1  34144  289.30 0854.52
2009/04/23 16:05:11.7    -128   -537   -169    553    579 193.4 -17.0  34146  289.32 0854.52
2009/04/23 16:05:11.8     -78   -498   -164    505    530 188.9 -23.0  34140  289.23 0854.52
2009/04/23 16:05:11.9     -20   -518   -157    519    542 182.3 -21.8  34138  289.19 0854.52
2009/04/23 16:05:12.0     -37   -517   -202    519    556 184.1 -26.8  34140  289.23 0854.52
2009/04/23 16:05:12.1       7   -507   -191    508    542 179.1 -25.9  34140  289.23 0854.52
2009/04/23 16:05:12.2      55   -446   -156    450    476 172.9 -24.3  34144  289.30 0854.52
2009/04/23 16:05:12.3       7   -468   -210    469    513 179.1 -30.1  34148  289.37 0854.52
2009/04/23 16:05:12.4     -82   -439   -167    447    477 190.6 -25.9  34144  289.30 0854.52
2009/04/23 16:05:12.5     -71   -376   -106    383    397 190.7 -20.1  34154  289.47 0854.52
2009/04/23 16:05:12.6     -49   -412   -140    415    439 186.8 -18.7  34150  289.39 0854.52
2009/04/23 16:05:12.7    -162   -302    -59    343    349 208.3  -9.9  34152  289.43 0854.52
2009/04/23 16:05:12.8    -143   -278    -75    313    322 207.2 -13.6  34146  289.32 0854.52
2009/04/23 16:05:12.9      -4   -272    -93    273    288 181.0 -23.6  34150  289.39 0854.52
2009/04/23 16:05:13.0      54   -246   -135    252    285 167.5 -34.7  34148  289.36 0854.52
2009/04/23 16:05:13.1     108   -309    -94    328    342 160.7 -16.0  34148  289.38 0854.52
2009/04/23 16:05:13.2     127   -233    -95    266    283 151.3 -19.7  34146  289.32 0854.52
2009/04/23 16:05:13.3      97   -245    -87    264    279 158.4 -18.3  34150  289.39 0854.53
2009/04/23 16:05:13.4      11   -248   -121    249    276 177.3 -32.4  34148  289.37 0854.53
2009/04/23 16:05:13.5      82   -245   -134    259    291 161.5 -33.7  34150  289.41 0854.53
2009/04/23 16:05:13.6      75   -290   -152    300    336 165.5 -33.5  34150  289.41 0854.53
2009/04/23 16:05:13.7     114   -269   -134    293    322 157.1 -30.7  34154  289.46 0854.53
2009/04/23 16:05:13.8     113   -317   -115    337    356 160.3 -23.9  34150  289.40 0854.53
2009/04/23 16:05:13.9     216   -362   -132    422    442 149.2 -22.4  34154  289.46 0854.53
2009/04/23 16:05:14.0     255   -293    -54    389    393 139.0  -8.0  34152  289.43 0854.53
2009/04/23 16:05:14.1     191   -287   -112    345    363 146.3 -18.1  34152  289.42 0854.53
2009/04/23 16:05:14.2     186   -285   -125    341    363 146.8 -25.4  34150  289.40 0854.53
2009/04/23 16:05:14.3     112   -284    -93    306    319 158.4 -21.9  34148  289.37 0854.53
2009/04/23 16:05:14.4      89   -265    -72    280    290 161.3 -14.5  34148  289.36 0854.53
2009/04/23 16:05:14.5     203   -273    -24    341    342 143.3  -4.1  34146  289.35 0854.53
2009/04/23 16:05:14.6     199   -294    -45    356    359 145.9  -7.3  34148  289.38 0854.53
2009/04/23 16:05:14.7     146   -290    -31    325    327 153.2  -5.5  34150  289.39 0854.53
2009/04/23 16:05:14.8     139   -271    -27    305    307 152.8  -5.2  34150  289.39 0854.53
2009/04/23 16:05:14.9     151   -295     18    332    333 152.8   3.1  34146  289.35 0854.53
2009/04/23 16:05:15.0     145   -282     40    318    321 152.8   7.2  34140  289.24 0854.53
2009/04/23 16:05:15.1     119   -263     85    289    302 155.5  16.4  34148  289.36 0854.53
2009/04/23 16:05:15.2     122   -306     80    330    340 158.2  13.7  34150  289.40 0854.53
2009/04/23 16:05:15.3     157   -270    116    313    333 149.7  21.4  34150  289.41 0854.55
2009/04/23 16:05:15.4     176   -338    104    382    397 152.5  15.3  34152  289.42 0854.55
2009/04/23 16:05:15.5     134   -328     90    355    367 157.8  14.3  34152  289.45 0854.55
2009/04/23 16:05:15.6     113   -359    148    377    405 162.5  22.5  34154  289.48 0854.55
2009/04/23 16:05:15.7      85   -369    136    379    402 167.0  20.4  34152  289.45 0854.55
2009/04/23 16:05:15.8     167   -354     94    392    404 154.7  13.5  34152  289.43 0854.55
2009/04/23 16:05:15.9     154   -306    161    343    378 153.2  27.1  34152  289.42 0854.55
2009/04/23 16:05:16.0     143   -280    178    315    361 152.8  32.0  34154  289.48 0854.55
2009/04/23 16:05:16.1     110   -325    239    344    418 161.3  38.3  34164  289.64 0854.55
2009/04/23 16:05:16.2     171   -446    159    478    505 159.0  18.5  34156  289.52 0854.55
2009/04/23 16:05:16.3     148   -437    161    462    490 161.3  19.2  34156  289.50 0854.55
2009/04/23 16:05:16.4     127   -353    240    376    446 160.1  35.6  34172  289.78 0854.55
2009/04/23 16:05:16.5      86   -346    164    357    392 166.0  26.3  34162  289.62 0854.55
2009/04/23 16:05:16.6     100   -312    192    328    380 162.1  33.1  34170  289.74 0854.55
2009/04/23 16:05:16.7     113   -317    173    337    378 160.3  29.3  34168  289.72 0854.55
2009/04/23 16:05:16.8     130   -303    124    330    352 156.7  21.6  34154  289.47 0854.55
2009/04/23 16:05:16.9      32   -321     89    323    336 174.2  15.4  34156  289.52 0854.55
2009/04/23 16:05:17.0      90   -350    113    362    380 165.6  17.4  34156  289.52 0854.55
2009/04/23 16:05:17.1      77   -383     -1    391    392 168.5  -0.3  34156  289.52 0854.55
2009/04/23 16:05:17.2      85   -362    -28    372    373 166.8  -4.4  34152  289.42 0854.55
2009/04/23 16:05:17.3      74   -303    -28    312    314 166.2  -5.2  34148  289.37 0854.51
2009/04/23 16:05:17.4      22   -247    121    249    276 174.9  28.0  34148  289.36 0854.51
2009/04/23 16:05:17.5      59   -253    149    260    299 166.9  32.3  34148  289.37 0854.51
2009/04/23 16:05:17.6     132   -332    124    358    380 158.3  19.2  34132  289.10 0854.51
2009/04/23 16:05:17.7     122   -312    107    336    353 158.6  17.7  34128  289.03 0854.51
2009/04/23 16:05:17.8     128   -309    117    335    355 157.5  19.3  34130  289.08 0854.51
2009/04/23 16:05:17.9      74   -284     62    294    301 165.3  12.0  34156  289.49 0854.51
2009/04/23 16:05:18.0      94   -319     46    333    337 163.5   7.9  34152  289.45 0854.51
2009/04/23 16:05:18.1      60   -387    104    392    406 171.2  14.9  34158  289.54 0854.51
2009/04/23 16:05:18.2     114   -325    114    345    364 160.6  18.4  34162  289.59 0854.51
2009/04/23 16:05:18.3      70   -317    101    325    341 167.5  17.3  34152  289.45 0854.51
2009/04/23 16:05:18.4      18   -309     95    310    325 176.6  17.0  34150  289.41 0854.51
2009/04/23 16:05:18.5      59   -301    111    307    326 168.9  20.6  34154  289.47 0854.51
2009/04/23 16:05:18.6      57   -280    124    286    311 168.4  25.1  34138  289.20 0854.51
2009/04/23 16:05:18.7      42   -300    158    304    342 171.9  29.6  34132  289.10 0854.51
2009/04/23 16:05:18.8      -4   -274    158    275    317 181.0  32.6  34126  288.98 0854.51
2009/04/23 16:05:18.9     -21   -277    183    278    332 184.4  36.4  34140  289.24 0854.51
2009/04/23 16:05:19.0     -13   -269    201    270    336 182.9  40.2  34144  289.29 0854.51
2009/04/23 16:05:19.1      -4   -260    189    261    322 180.9  39.7  34158  289.53 0854.51
2009/04/23 16:05:19.2     -76   -230     87    243    258 198.3  20.4  34148  289.37 0854.51
2009/04/23 16:05:19.3     -28   -179    181    182    256 189.1  50.0  34154  289.47 0854.47
2009/04/23 16:05:19.4     -62   -285    195    292    351 192.4  36.7  34162  289.60 0854.47
2009/04/23 16:05:19.5    -113   -306     97    327    342 200.3  16.5  34152  289.42 0854.47
2009/04/23 16:05:19.6     -59   -285    111    292    312 191.8  21.7  34156  289.51 0854.47
2009/04/23 16:05:19.7     -37   -266    100    269    286 188.0  21.0  34162  289.59 0854.47
2009/04/23 16:05:19.8      -8   -269    185    270    327 181.8  37.7  34158  289.54 0854.47
2009/04/23 16:05:19.9     -39   -207    195    211    287 190.9  47.9  34156  289.51 0854.47
2009/04/23 16:05:20.0     -28   -271    183    273    328 186.0  37.0  34160  289.56 0854.47
2009/04/23 16:05:20.1    -129   -256    124    287    312 206.7  24.8  34162  289.59 0854.47
2009/04/23 16:05:20.2    -100   -277    123    295    319 200.0  23.9  34166  289.68 0854.47
2009/04/23 16:05:20.3    -128   -293    181    320    367 203.6  32.0  34166  289.67 0854.47
2009/04/23 16:05:20.4    -178   -284    162    336    373 212.1  27.4  34166  289.67 0854.47
2009/04/23 16:05:20.5    -185   -152     59    240    248 230.5  13.9  34170  289.73 0854.47
2009/04/23 16:05:20.6    -123   -128     72    178    192 223.9  23.1  34170  289.74 0854.47
2009/04/23 16:05:20.7     -84   -128     88    154    177 213.4  32.4  34170  289.74 0854.47
2009/04/23 16:05:20.8     -33   -146     37    150    155 192.9  13.9  34164  289.65 0854.47
2009/04/23 16:05:20.9     -29    -65     99     72    122 204.5  60.5  34164  289.65 0854.47
2009/04/23 16:05:21.0      40     -5     92     41    100  97.9  74.5  34186  290.02 0854.47
2009/04/23 16:05:21.1      29    -29    101     42    109 135.0  77.0  34190  290.09 0854.47
2009/04/23 16:05:21.2      17     29    126     34    130  30.7  84.9  34190  290.09 0854.47
2009/04/23 16:05:21.3     -14    -22    100     27    103 212.6  84.9  34198  290.23 0854.48
2009/04/23 16:05:21.4      -3    -46     89     47    100 184.5  69.8  34184  289.99 0854.48
2009/04/23 16:05:21.5     -22   -133     78    135    155 189.8  32.9  34160  289.57 0854.48
2009/04/23 16:05:21.6     -46   -116     66    125    141 201.8  29.8  34164  289.63 0854.48
2009/04/23 16:05:21.7     -91    -35     40     98    105 248.7  23.1  34180  289.91 0854.48
2009/04/23 16:05:21.8     -99     63     30    118    122 302.4  14.3  34202  290.30 0854.48
2009/04/23 16:05:21.9     -97     39     10    105    106 291.8   5.4  34194  290.14 0854.48
2009/04/23 16:05:22.0    -131    -57      7    143    144 246.5   2.9  34192  290.13 0854.48
2009/04/23 16:05:22.1    -156     38      7    161    162 283.7   2.8  34196  290.19 0854.48
2009/04/23 16:05:22.2    -174     10      1    175    176 273.5   0.5  34204  290.33 0854.48
2009/04/23 16:05:22.3    -192      8      7    193    194 272.4   2.3  34208  290.40 0854.48
2009/04/23 16:05:22.4    -168     -7     37    169    174 267.4  12.6  34208  290.40 0854.48
2009/04/23 16:05:22.5    -188    -14     32    189    192 265.6   9.9  34208  290.40 0854.48
2009/04/23 16:05:22.6    -198     11     18    199    200 273.3   5.2  34200  290.26 0854.48
2009/04/23 16:05:22.7    -139   -115     58    181    191 230.4  17.9  34184  289.99 0854.48
2009/04/23 16:05:22.8     -97   -152     99    181    206 212.5  31.0  34180  289.92 0854.48
2009/04/23 16:05:22.9     -96   -138    108    169    200 215.0  35.6  34174  289.82 0854.48
2009/04/23 16:05:23.0     -88   -135     80    162    180 213.0  28.2  34182  289.96 0854.48
2009/04/23 16:05:23.1    -176    -83     73    195    208 244.8  21.3  34174  289.82 0854.48
2009/04/23 16:05:23.2    -124   -148     97    194    216 219.9  28.5  34190  290.09 0854.48
2009/04/23 16:05:23.3    -118   -118    127    168    210 225.1  41.2  34204  290.33 0854.46
2009/04/23 16:05:23.4    -108   -144     60    181    191 217.0  18.6  34198  290.23 0854.46
2009/04/23 16:05:23.5    -112   -123     29    167    170 222.5  10.1  34218  290.57 0854.46
2009/04/23 16:05:23.6    -173   -143     43    225    230 230.5  11.0  34234  290.84 0854.46
2009/04/23 16:05:23.7    -195   -183     64    268    276 226.8  13.5  34234  290.83 0854.46
2009/04/23 16:05:23.8    -162   -134     38    211    215 230.5  10.3  34222  290.64 0854.46
2009/04/23 16:05:23.9    -211    -40     37    215    219 259.2   9.9  34228  290.74 0854.46
2009/04/23 16:05:24.0    -229    -82     38    244    248 250.3   9.0  34214  290.49 0854.46
2009/04/23 16:05:24.1    -153    -89    -54    178    186 239.8 -21.7  34208  290.40 0854.46
2009/04/23 16:05:24.2    -179    -35    -36    183    187 258.8 -11.1  34214  290.50 0854.46
2009/04/23 16:05:24.3    -172   -184    -62    253    261 223.0 -13.9  34204  290.32 0854.46
2009/04/23 16:05:24.4     -44   -149     18    156    158 196.5   6.9  34222  290.62 0854.46
2009/04/23 16:05:24.5    -161    -98    -18    189    190 238.5  -5.6  34230  290.75 0854.46
2009/04/23 16:05:24.6    -173   -120    -27    211    213 235.1  -7.5  34222  290.62 0854.46
2009/04/23 16:05:24.7    -177   -155    -36    236    239 228.7  -8.8  34204  290.32 0854.46
2009/04/23 16:05:24.8    -159    -97    -53    187    195 238.5 -16.0  34206  290.35 0854.46
2009/04/23 16:05:24.9    -216   -105    -26    241    243 244.0  -6.2  34232  290.78 0854.46
2009/04/23 16:05:25.0    -198    -66    -46    209    215 251.4 -12.6  34226  290.69 0854.46
2009/04/23 16:05:25.1    -133   -149    -28    200    203 221.7  -8.0  34196  290.18 0854.46
2009/04/23 16:05:25.2    -155   -127    -56    201    209 230.5 -15.8  34184  289.99 0854.46
2009/04/23 16:05:25.3    -198   -143    -72    245    256 234.0 -16.5  34168  289.70 0854.47
2009/04/23 16:05:25.4    -131   -158    -35    206    210 219.6  -9.8  34178  289.87 0854.47
2009/04/23 16:05:25.5     -64   -166     -3    179    180 201.2  -1.3  34190  290.08 0854.47
2009/04/23 16:05:25.6     -86   -162     81    184    201 207.9  25.1  34202  290.30 0854.47
2009/04/23 16:05:25.7     -97   -158     15    186    187 211.6   4.9  34202  290.28 0854.47
2009/04/23 16:05:25.8    -129   -152     18    200    201 220.3   5.2  34202  290.28 0854.47
2009/04/23 16:05:25.9     -88   -204     74    223    236 203.4  18.4  34202  290.30 0854.47
2009/04/23 16:05:26.0    -173   -230     45    289    293 217.0   9.0  34208  290.39 0854.47
2009/04/23 16:05:26.1     -80   -187     39    204    208 203.2  11.0  34198  290.23 0854.47
2009/04/23 16:05:26.2     -31   -269     43    271    275 186.7   9.0  34182  289.93 0854.47
2009/04/23 16:05:26.3      93   -270    -29    286    288 160.9  -6.0  34160  289.58 0854.47
2009/04/23 16:05:26.4      48   -337     66    341    348 171.9  11.0  34178  289.87 0854.47
2009/04/23 16:05:26.5      86   -404     49    414    418 168.0   6.9  34202  290.28 0854.47
2009/04/23 16:05:26.6      34   -314    138    316    344 173.8  25.2  34212  290.47 0854.47
2009/04/23 16:05:26.7      84   -399    173    408    443 168.1  24.3  34172  289.78 0854.47
2009/04/23 16:05:26.8      46   -421    155    424    451 173.7  21.0  34164  289.65 0854.47
2009/04/23 16:05:26.9     -30   -391    183    393    433 184.5  26.9  34172  289.78 0854.47
2009/04/23 16:05:27.0      48   -295    146    300    333 170.7  27.9  34166  289.68 0854.47
2009/04/23 16:05:27.1      10   -258    156    259    302 177.8  34.0  34172  289.76 0854.47
2009/04/23 16:05:27.2     -24   -274    189    276    334 185.1  37.7  34188  290.03 0854.47
2009/04/23 16:05:27.3     -70   -263    164    273    318 194.9  33.8  34182  289.93 0854.45
2009/04/23 16:05:27.4    -141   -207    106    251    272 214.3  24.1  34202  290.29 0854.45
2009/04/23 16:05:27.5    -148   -174     55    229    236 220.3  13.5  34210  290.41 0854.45
2009/04/23 16:05:27.6    -162   -176     59    240    248 222.5  13.9  34198  290.22 0854.45
2009/04/23 16:05:27.7     -91   -256     58    272    279 199.6  12.1  34182  289.93 0854.45
2009/04/23 16:05:27.8     -68   -267    113    276    298 194.3  23.1  34184  289.98 0854.45
2009/04/23 16:05:27.9      22   -173     90    175    196 172.7  29.3  34184  289.97 0854.45
2009/04/23 16:05:28.0      14   -127    104    128    164 173.7  43.3  34186  290.01 0854.45
2009/04/23 16:05:28.1     -48   -102    140    113    179 205.3  56.9  34196  290.19 0854.45
2009/04/23 16:05:28.2      28      9    113     30    116  71.4  84.9  34212  290.47 0854.45
2009/04/23 16:05:28.3      15    -52    132     55    143 164.0  77.0  34192  290.13 0854.44
2009/04/23 16:05:28.4      40   -135    194    141    239 163.5  60.5  34176  289.85 0854.44
2009/04/23 16:05:28.5      -5   -168    181    169    247 181.8  52.2  34172  289.77 0854.44
2009/04/23 16:05:28.6     -66   -282    180    290    341 193.3  35.0  34174  289.80 0854.44
2009/04/23 16:05:28.7    -202   -202     73    287    297 225.0  14.3  34180  289.92 0854.44
2009/04/23 16:05:28.8      36    -87    134     95    164 157.7  61.5  34178  289.89 0854.44
2009/04/23 16:05:28.9      43   -152    163    159    227 164.0  50.7  34182  289.94 0854.44
2009/04/23 16:05:29.0      97   -202    181    225    288 154.4  43.0  34178  289.86 0854.44
2009/04/23 16:05:29.1     -52   -257    147    263    301 191.5  31.4  34168  289.70 0854.44
2009/04/23 16:05:29.2     -38   -329    234    332    406 186.7  38.6  34168  289.71 0854.44
2009/04/23 16:05:29.3      -3   -396    140    397    420 180.5  20.0  34170  289.75 0854.44
2009/04/23 16:05:29.4      48   -328     64    332    339 171.7  11.0  34170  289.74 0854.44
2009/04/23 16:05:29.5      44   -278     35    282    285 170.9   7.1  34170  289.73 0854.44
2009/04/23 16:05:29.6      20   -266     11    267    268 175.6   2.5  34170  289.75 0854.44
2009/04/23 16:05:29.7      67   -243     49    253    258 164.4  11.0  34170  289.75 0854.44
2009/04/23 16:05:29.8     108   -221     -9    247    248 153.9  -2.2  34176  289.85 0854.44
2009/04/23 16:05:29.9     131   -205      5    244    245 147.4   1.2  34174  289.81 0854.44
2009/04/23 16:05:30.0     145   -141    -35    203    207 134.0  -9.8  34174  289.82 0854.44
2009/04/23 16:05:30.1     153   -132    -42    203    208 130.9 -11.9  34174  289.82 0854.44
2009/04/23 16:05:30.2      65   -105    -20    124    126 148.4  -9.3  34172  289.79 0854.44
2009/04/23 16:05:30.3      65   -102     57    122    134 147.4  27.1  34178  289.87 0854.41
2009/04/23 16:05:30.4      39   -110     73    117    137 160.4  35.5  34176  289.84 0854.41
2009/04/23 16:05:30.5     -28   -155     78    158    176 190.2  28.0  34174  289.80 0854.41
2009/04/23 16:05:30.6      94    -34     48    100    110 110.0  27.3  34186  290.01 0854.41
2009/04/23 16:05:30.7     208   -156     13    260    261 126.9   2.9  34174  289.81 0854.41
2009/04/23 16:05:30.9     266   -349      9    439    440 142.7   1.2  34140  289.22 0854.41
2009/04/23 16:05:31.0     347   -447     64    567    571 142.2   6.5  34170  289.75 0854.41
2009/04/23 16:05:31.1     354   -399     10    534    535 138.5   1.1  34150  289.40 0854.41
2009/04/23 16:05:31.2      51   -365    244    369    442 172.0  36.5  34144  289.31 0854.41
2009/04/23 16:05:31.2      48   -311    258    315    407 171.1  43.6  34154  289.48 0854.41
2009/04/23 16:05:31.4     -23   -274    251    276    373 184.9  47.1  34154  289.48 0854.41
2009/04/23 16:05:31.5    -128   -398    160    419    448 197.9  22.0  34174  289.80 0854.41
2009/04/23 16:05:31.6     -24   -379    229    380    443 183.6  33.8  34162  289.60 0854.41
2009/04/23 16:05:31.7      49   -291    162    296    337 170.4  31.3  34178  289.88 0854.41
2009/04/23 16:05:31.8    -117   -419    152    436    461 195.7  20.0  34166  289.66 0854.41
2009/04/23 16:05:31.9      -4   -338    186    339    386 180.8  31.3  34170  289.74 0854.41
2009/04/23 16:05:32.0      51   -438    231    442    498 173.3  29.8  34152  289.45 0854.41
2009/04/23 16:05:32.1     155   -430     67    458    463 160.2   8.3  34156  289.51 0854.41
2009/04/23 16:05:32.2      73   -510     77    516    522 171.8   8.5  34150  289.41 0854.41
2009/04/23 16:05:32.3     112   -429    229    444    499 165.3  29.3  34158  289.54 0854.42
2009/04/23 16:05:32.4     125   -583    341    597    687 167.9  32.3  34154  289.46 0854.42
2009/04/23 16:05:32.5      59   -526    188    530    563 173.5  19.5  34156  289.50 0854.42
2009/04/23 16:05:32.6      36   -476     97    478    489 175.7  11.6  34156  289.52 0854.42
2009/04/23 16:05:32.7    -121   -442    -17    459    460 195.4  -2.2  34162  289.61 0854.42
2009/04/23 16:05:32.8    -146   -365    -15    394    395 201.8  -2.2  34164  289.64 0854.42
2009/04/23 16:05:32.9     -36   -493   -113    495    508 184.2 -12.9  34162  289.62 0854.42
2009/04/23 16:05:33.0      74   -427    -60    434    439 170.1  -7.9  34158  289.55 0854.42
2009/04/23 16:05:33.1     151   -401    -83    429    437 159.3 -11.0  34164  289.65 0854.42
2009/04/23 16:05:33.2      32   -427     -9    429    430 175.6  -1.3  34168  289.72 0854.42
2009/04/23 16:05:33.3     -96   -438     -1    449    450 192.4  -0.2  34168  289.70 0854.42
2009/04/23 16:05:33.4    -110   -468     44    481    484 193.3   5.3  34166  289.69 0854.42
2009/04/23 16:05:33.5     -51   -500     10    503    504 185.9   1.2  34160  289.56 0854.42
2009/04/23 16:05:33.6     -76   -280    138    291    322 195.2  27.2  34168  289.70 0854.42
2009/04/23 16:05:33.7    -142   -356     59    384    389 201.8   8.8  34164  289.65 0854.42
2009/04/23 16:05:33.8      -9   -300    139    301    331 181.8  26.5  34168  289.71 0854.42
2009/04/23 16:05:33.9     -84   -277    219    290    363 196.9  40.9  34160  289.57 0854.42
2009/04/23 16:05:34.0    -219   -343     60    408    413 212.6   8.5  34144  289.29 0854.42
2009/04/23 16:05:34.1     -24   -296    194    298    355 184.7  36.2  34150  289.40 0854.42
2009/04/23 16:05:34.2       3   -194    222    195    295 179.0  54.3  34152  289.44 0854.42
2009/04/23 16:05:34.3     -86   -160    133    182    225 208.3  39.7  34150  289.41 0854.44
2009/04/23 16:05:34.4     -10     16     98     19     99 327.5  89.6  34158  289.53 0854.44
2009/04/23 16:05:34.5     -18   -168    201    170    263 186.2  55.6  34142  289.25 0854.44
2009/04/23 16:05:34.6      16   -264    119    265    290 176.4  25.9  34118  288.85 0854.44
2009/04/23 16:05:34.7      94   -100     37    138    144 136.7  15.3  34130  289.06 0854.44
2009/04/23 16:05:34.8     104     38     84    111    139  70.0  40.7  34142  289.26 0854.44
2009/04/23 16:05:34.9      79    214     51    229    235  20.3  12.6  34130  289.05 0854.44
2009/04/23 16:05:35.0      -3    245     -9    246    247 359.1  -2.2  34136  289.17 0854.44
2009/04/23 16:05:35.1     -23    187    -56    189    198 352.9 -16.6  34138  289.21 0854.44
2009/04/23 16:05:35.2      48    236     43    242    246  11.6  10.1  34138  289.20 0854.44
2009/04/23 16:05:35.3     -22     92     53     95    108 346.6  31.4  34130  289.08 0854.44
2009/04/23 16:05:35.4    -142     40     61    148    160 285.9  23.6  34134  289.13 0854.44
2009/04/23 16:05:35.5    -211   -134    -85    251    265 237.6 -23.3  34132  289.09 0854.44
2009/04/23 16:05:35.6    -258   -142     74    295    305 241.1  14.2  34128  289.02 0854.44
2009/04/23 16:05:35.7    -703    -13    -79    704    709 268.9  -6.5  34130  289.08 0854.44
2009/04/23 16:05:35.8    -607    -41    -33    609    610 266.1  -3.2  34108  288.70 0854.44
2009/04/23 16:05:35.9    -477    -82     57    485    489 260.2   6.7  34120  288.90 0854.44
2009/04/23 16:05:36.0    -302   -115    108    324    342 249.2  18.5  34134  289.13 0854.44
2009/04/23 16:05:36.1    -313    -52    111    318    337 260.5  19.3  34156  289.50 0854.44
2009/04/23 16:05:36.2    -184     -7    107    185    213 267.6  33.1  34140  289.23 0854.44
2009/04/23 16:05:36.3    -305   -116     59    327    333 249.1  10.2  34130  289.08 0854.45
2009/04/23 16:05:36.4    -291   -253   -123    386    405 229.0 -22.8  34126  289.01 0854.45
2009/04/23 16:05:36.5    -311   -224   -209    384    437 234.3 -35.3  34126  289.00 0854.45
2009/04/23 16:05:36.6    -110   -159   -238    194    307 214.7 -60.8  34128  289.03 0854.45
2009/04/23 16:05:36.7    -124   -260   -146    289    323 205.5 -33.1  34134  289.14 0854.45
2009/04/23 16:05:36.8       7   -155    -47    156    162 177.3 -21.7  34124  288.97 0854.45
2009/04/23 16:05:36.9    -215   -185     44    284    288 229.3   8.8  34136  289.17 0854.45
2009/04/23 16:05:37.0      10   -337     53    338    343 178.3   9.0  34126  289.01 0854.45
2009/04/23 16:05:37.1     192   -303    112    359    377 147.6  17.3  34130  289.06 0854.45
2009/04/23 16:05:37.2     229   -341    170    411    444 146.1  23.8  34128  289.04 0854.45
2009/04/23 16:05:37.3     373   -288     50    472    475 127.6   6.1  34124  288.95 0854.45
2009/04/23 16:05:37.4     548   -180    186    577    607 108.2  17.9  34108  288.70 0854.45
2009/04/23 16:05:37.5     316   -199    160    374    406 122.3  24.6  34120  288.91 0854.45
2009/04/23 16:05:37.6     270   -403    282    486    561 146.2  32.9  34110  288.72 0854.45
2009/04/23 16:05:37.7     128   -369    317    391    503 160.8  43.3  34130  289.05 0854.45
2009/04/23 16:05:37.8     241   -364    220    437    489 146.5  28.7  34114  288.78 0854.45
2009/04/23 16:05:37.9     137   -553    372    570    680 166.0  36.2  34122  288.93 0854.45
2009/04/23 16:05:38.0      -8   -520    309    521    605 180.9  33.5  34128  289.02 0854.45
2009/04/23 16:05:38.1     -36   -255    252    258    360 188.2  49.7  34120  288.91 0854.45
2009/04/23 16:05:38.2     110    -14    247    111    270  97.5  74.0  34128  289.04 0854.45
2009/04/23 16:05:38.3     139   -159    248    212    326 139.0  55.3  34136  289.17 0854.45
2009/04/23 16:05:38.4     110   -312    320    332    461 160.5  49.0  34128  289.02 0854.45
2009/04/23 16:05:38.5       9   -299    272    300    404 178.2  46.9  34136  289.18 0854.45
2009/04/23 16:05:38.6      -6   -442    265    443    516 180.9  33.7  34138  289.20 0854.45
2009/04/23 16:05:38.7      13   -503    127    504    520 178.5  14.2  34128  289.03 0854.45
2009/04/23 16:05:38.8     -62   -675     14    679    680 185.3   1.2  34128  289.02 0854.45
2009/04/23 16:05:38.9    -163   -603    122    625    638 195.2  11.1  34132  289.11 0854.45
2009/04/23 16:05:39.0    -244   -574    160    624    645 203.1  14.4  34124  288.96 0854.45
2009/04/23 16:05:39.1    -151   -376    166    406    438 201.9  23.4  34132  289.09 0854.45
2009/04/23 16:05:39.2    -151   -455     59    480    484 198.4   7.1  34116  288.81 0854.45
2009/04/23 16:05:39.3    -237   -453      0    512    513 207.6   0.0  34114  288.78 0854.45
2009/04/23 16:05:39.4    -230   -321    -93    395    406 215.6 -13.3  34128  289.04 0854.45
2009/04/23 16:05:39.5     -25   -299     76    301    311 184.9  14.3  34128  289.03 0854.45
2009/04/23 16:05:39.6     -21   -400    102    401    414 183.1  14.3  34130  289.05 0854.45
2009/04/23 16:05:39.7     -11   -534     89    535    543 181.3   9.5  34148  289.38 0854.45
2009/04/23 16:05:39.8    -110   -560     -8    571    572 191.1  -0.9  34148  289.36 0854.45
2009/04/23 16:05:39.9      41   -448      3    451    452 174.7   0.5  34144  289.31 0854.45
2009/04/23 16:05:40.0     141   -406    -42    430    433 160.8  -5.6  34142  289.27 0854.45
2009/04/23 16:05:40.1     144   -390     43    416    419 159.7   5.9  34138  289.19 0854.45
2009/04/23 16:05:40.2      49   -352      5    356    357 172.0   0.8  34138  289.20 0854.45
2009/04/23 16:05:40.3      60   -354     81    360    370 170.3  12.8  34146  289.33 0854.46
2009/04/23 16:05:40.4     -39   -392     73    394    401 185.7  10.6  34138  289.21 0854.46
2009/04/23 16:05:40.5      18   -282    134    283    313 176.2  27.2  34128  289.02 0854.46
2009/04/23 16:05:40.6     119   -244    203    272    339 153.9  40.4  34134  289.12 0854.46
2009/04/23 16:05:40.7      97   -192    -94    216    235 153.3 -29.5  34148  289.36 0854.46
2009/04/23 16:05:40.8     130    -88     92    158    182 124.2  33.1  34146  289.35 0854.46
2009/04/23 16:05:40.9      84   -176     63    196    206 154.5  17.9  34142  289.26 0854.46
2009/04/23 16:05:41.0     -43   -210     -4    215    216 191.6  -1.3  34140  289.24 0854.46
2009/04/23 16:05:41.1       5   -195     20    196    198 178.4   6.1  34138  289.21 0854.46
2009/04/23 16:05:41.2     249   -300     29    390    392 140.3   4.3  34132  289.10 0854.46
2009/04/23 16:05:41.3     360   -533    138    644    659 145.9  12.2  34118  288.86 0854.46
2009/04/23 16:05:41.4     182   -525    149    556    576 160.8  15.0  34128  289.02 0854.46
2009/04/23 16:05:41.5     181   -553    272    582    642 161.8  26.9  34128  289.03 0854.46
2009/04/23 16:05:41.6     114   -419    138    435    457 164.7  17.7  34122  288.92 0854.46
2009/04/23 16:05:41.7     277   -278    146    393    419 135.1  21.3  34126  288.99 0854.46
2009/04/23 16:05:41.8     133   -414    348    435    557 162.2  42.8  34124  288.97 0854.46
2009/04/23 16:05:41.9     318   -717    273    785    832 156.1  19.2  34136  289.18 0854.46
2009/04/23 16:05:42.0     207   -535    155    574    595 158.8  15.2  34118  288.85 0854.46
2009/04/23 16:05:42.1     135   -364    301    389    491 159.6  41.7  34130  289.07 0854.46
2009/04/23 16:05:42.2      -8   -346    264    347    436 181.4  41.1  34132  289.09 0854.46
2009/04/23 16:05:42.3      93   -505    345    514    619 169.5  37.1  34146  289.32 0854.46
2009/04/23 16:05:42.4     170   -580    398    605    724 163.6  36.5  34130  289.07 0854.46
2009/04/23 16:05:42.5     249   -602    373    652    751 157.5  32.3  34132  289.10 0854.46
2009/04/23 16:05:42.6     361   -532    229    644    684 145.8  19.6  34134  289.12 0854.46
2009/04/23 16:05:42.7     403   -378    117    553    566 133.2  12.0  34132  289.11 0854.46
2009/04/23 16:05:42.8     371    -40    -14    374    375  96.3  -2.2  34130  289.08 0854.46
2009/04/23 16:05:42.9     316    152     42    351    354  64.2   6.9  34134  289.13 0854.46
2009/04/23 16:05:43.0     180     82     94    199    220  65.4  27.1  34128  289.04 0854.46
2009/04/23 16:05:43.1      68    -27    103     74    126 111.7  60.6  34138  289.21 0854.46
2009/04/23 16:05:43.2      53     79      4     96     97  33.8   2.8  34138  289.19 0854.46
2009/04/23 16:05:43.3      47    139    -11    147    148  18.7  -4.6  34136  289.18 0854.46
2009/04/23 16:05:43.4     106    209     -2    235    236  27.0  -0.5  34134  289.12 0854.46
2009/04/23 16:05:43.5     -12    118    103    119    157 354.2  45.6  34136  289.18 0854.46
2009/04/23 16:05:43.6     -63    -72    122     96    155 221.0  57.5  34142  289.26 0854.46
2009/04/23 16:05:43.7     -68   -143    155    159    222 205.5  49.4  34132  289.11 0854.46
2009/04/23 16:05:43.8      -2   -135     62    136    149 180.9  27.1  34130  289.08 0854.46
2009/04/23 16:05:43.9      -5    -46    143     47    150 187.1  80.7  34140  289.24 0854.46
2009/04/23 16:05:44.0     -74      5     14     75     77 274.4  11.1  34144  289.30 0854.46
2009/04/23 16:05:44.1    -114     43    -38    122    127 290.8 -22.3  34142  289.26 0854.46
2009/04/23 16:05:44.2       3     24    -54     25     59   8.0 -78.4  34142  289.26 0854.46
2009/04/23 16:05:44.3      59     81    -20    101    104  36.1 -11.3  34140  289.23 0854.49
2009/04/23 16:05:44.4     101     56    -15    116    118  61.1  -7.7  34134  289.13 0854.49
2009/04/23 16:05:44.5     140      6     44    141    148  87.4  17.3  34128  289.04 0854.49
2009/04/23 16:05:44.6     104    -34     66    110    128 108.2  34.0  34130  289.08 0854.49
2009/04/23 16:05:44.7      23    -67     73     71    101 160.8  50.7  34142  289.26 0854.49
2009/04/23 16:05:44.8      12    -27     49     30     57 154.5  64.7  34144  289.31 0854.49
2009/04/23 16:05:44.9      79     23     16     83     85  73.6  11.1  34138  289.19 0854.49
2009/04/23 16:05:45.0     106     68     20    127    129  57.1   9.0  34132  289.11 0854.49
2009/04/23 16:05:45.1      97     94     -7    136    137  46.0  -3.1  34130  289.06 0854.49
2009/04/23 16:05:45.2      58    105    -43    121    129  28.9 -19.7  34136  289.16 0854.49
2009/04/23 16:05:45.3     -10    138    -25    139    142 355.5 -10.3  34140  289.23 0854.49
2009/04/23 16:05:45.4     -16     61    -46     64     78 344.9 -44.1  34144  289.30 0854.49
2009/04/23 16:05:45.5     -29    128    -14    132    133 347.1  -6.2  34142  289.26 0854.49
2009/04/23 16:05:45.6      68     93    118    116    165  36.1  49.9  34144  289.31 0854.49
2009/04/23 16:05:45.7      12     11     98     17     99  46.7  90.0  34162  289.62 0854.49
2009/04/23 16:05:45.8     -50    -21     80     55     97 247.4  62.6  34174  289.82 0854.49
2009/04/23 16:05:45.9     -73     24     50     78     92 288.6  35.6  34156  289.50 0854.49
2009/04/23 16:05:46.0    -116     50     49    127    136 293.5  22.0  34138  289.21 0854.49
2009/04/23 16:05:46.1    -138     -8     13    139    140 266.5   5.4  34138  289.21 0854.49
2009/04/23 16:05:46.2    -145     47    -44    153    160 288.2 -16.0  34140  289.23 0854.49
2009/04/23 16:05:46.3    -154     11    -73    155    171 274.3 -31.5  34140  289.23 0854.49
2009/04/23 16:05:46.4    -118   -113    -52    164    173 226.2 -17.6  34136  289.18 0854.49
2009/04/23 16:05:46.5    -153   -149    -87    214    231 225.8 -27.5  34132  289.11 0854.49
2009/04/23 16:05:46.6    -102   -184    -75    211    225 209.0 -19.7  34132  289.09 0854.49
2009/04/23 16:05:46.7    -270   -158   -196    314    370 239.6 -39.6  34138  289.20 0854.49
2009/04/23 16:05:46.8    -263     15    -94    264    281 273.4 -19.7  34144  289.29 0854.49
2009/04/23 16:05:46.9    -198   -163   -136    257    290 230.5 -34.5  34126  289.00 0854.49
2009/04/23 16:05:47.0       8   -285    -90    286    300 178.2 -17.5  34120  288.88 0854.49
2009/04/23 16:05:47.1      98   -374     18    387    388 165.2   2.8  34126  288.98 0854.49
2009/04/23 16:05:47.2    -139   -283      2    316    317 206.3   0.4  34122  288.93 0854.49
2009/04/23 16:05:47.3     -60   -299     54    306    311 191.5  10.1  34132  289.10 0854.49
2009/04/23 16:05:47.4      15   -196     77    197    211 175.5  22.5  34128  289.04 0854.49
2009/04/23 16:05:47.5      76   -280    119    291    314 164.9  23.6  34130  289.05 0854.49
2009/04/23 16:05:47.6      52   -376    146    380    407 172.0  22.1  34136  289.15 0854.49
2009/04/23 16:05:47.7    -113   -336    185    355    400 198.6  29.6  34152  289.45 0854.49
2009/04/23 16:05:47.8     -59   -320    249    326    410 190.6  41.2  34168  289.72 0854.49
2009/04/23 16:05:47.9     -83   -317    254    328    414 194.8  41.7  34166  289.67 0854.49
2009/04/23 16:05:48.0     -80   -425    134    433    454 190.7  17.2  34148  289.36 0854.49
2009/04/23 16:05:48.1     -63   -103    229    121    259 211.6  69.9  34162  289.62 0854.49
2009/04/23 16:05:48.2      -6     -2    118      7    118 251.8  90.0  34162  289.60 0854.49
2009/04/23 16:05:48.3     113   -177     90    211    229 147.4  24.6  34148  289.36 0854.48
2009/04/23 16:05:48.4     -49   -180    135    187    230 195.4  39.5  34148  289.36 0854.48
2009/04/23 16:05:48.5    -141   -242    167    281    326 210.3  33.6  34150  289.39 0854.48
2009/04/23 16:05:48.6    -152   -136    111    205    233 228.2  31.3  34162  289.60 0854.48
2009/04/23 16:05:48.7     -75     20    107     78    132 285.0  60.5  34168  289.72 0854.48
2009/04/23 16:05:48.8     -24     29    111     38    117 320.3  81.2  34168  289.72 0854.48
2009/04/23 16:05:48.9    -102     33     59    108    123 288.2  31.3  34160  289.58 0854.48
2009/04/23 16:05:49.0     -29    -34    121     45    129 220.5  79.2  34182  289.96 0854.48
2009/04/23 16:05:49.1     -79    -96    149    125    194 219.7  56.1  34152  289.43 0854.48
2009/04/23 16:05:49.2    -170   -160    122    234    263 226.7  29.5  34142  289.27 0854.48
2009/04/23 16:05:49.3    -183    -54     72    192    205 253.4  21.0  34138  289.21 0854.49
2009/04/23 16:05:49.4    -146    -19    157    148    215 262.5  52.1  34148  289.36 0854.49
2009/04/23 16:05:49.5     -93    110    174    145    226 319.9  56.3  34162  289.60 0854.49
2009/04/23 16:05:49.6      12     38    163     41    168  18.3  85.9  34176  289.85 0854.49
2009/04/23 16:05:49.7     -14    -13    127     20    128 226.9  90.0  34192  290.13 0854.49
2009/04/23 16:05:49.8     -24    -32    122     41    128 217.0  81.0  34186  290.01 0854.49
2009/04/23 16:05:49.9      -3    -84    145     85    168 182.2  67.0  34158  289.53 0854.49
2009/04/23 16:05:50.0      29   -122    134    126    183 166.6  52.0  34152  289.45 0854.49
2009/04/23 16:05:50.1     166   -137    225    216    311 129.5  51.2  34152  289.44 0854.49
2009/04/23 16:05:50.2     152   -135    213    204    294 131.6  51.4  34156  289.51 0854.49
2009/04/23 16:05:50.3     270    -58    248    277    371 102.2  46.5  34152  289.43 0854.49
2009/04/23 16:05:50.4      78    -32    219     85    234 112.6  77.8  34184  289.97 0854.49
2009/04/23 16:05:50.5      81   -117    319    143    349 145.3  74.2  34160  289.58 0854.49
2009/04/23 16:05:50.6      44    -48    219     66    228 137.7  82.8  34168  289.72 0854.49
2009/04/23 16:05:50.7      17     17    170     25    171  45.0  90.0  34174  289.80 0854.49
2009/04/23 16:05:50.8     171   -110    225    204    303 122.9  53.2  34154  289.46 0854.49
2009/04/23 16:05:50.9     266   -158    185    310    361 120.7  33.6  34148  289.38 0854.49
2009/04/23 16:05:51.0     293   -149    109    329    347 117.0  18.4  34146  289.32 0854.49
2009/04/23 16:05:51.1     166    -55    216    175    277 108.4  56.9  34160  289.56 0854.49
2009/04/23 16:05:51.2     257   -121    204    285    350 115.2  39.1  34156  289.52 0854.49
2009/04/23 16:05:51.3     224   -147    189    269    328 123.3  38.6  34152  289.42 0854.48
2009/04/23 16:05:51.4      30   -161    146    164    219 169.1  46.4  34162  289.60 0854.48
2009/04/23 16:05:51.5      54    -37    161     66    174 125.1  76.8  34166  289.67 0854.48
2009/04/23 16:05:51.6      66     42    166     79    183  57.5  72.9  34186  290.01 0854.48
2009/04/23 16:05:51.7     127    -19    215    129    250  98.8  66.0  34188  290.04 0854.48
2009/04/23 16:05:51.8      86     41    245     96    263  64.2  77.6  34180  289.92 0854.48
2009/04/23 16:05:51.9      55   -118    216    131    252 155.1  65.7  34154  289.48 0854.48
2009/04/23 16:05:52.0     221   -407    297    464    550 151.5  35.6  34136  289.16 0854.48
2009/04/23 16:05:52.1     203   -350    271    405    487 149.9  37.0  34140  289.22 0854.48
2009/04/23 16:05:52.2     274   -401    328    486    586 145.6  37.4  34140  289.24 0854.48
2009/04/23 16:05:52.3     221   -392    207    451    496 150.6  26.4  34144  289.30 0854.48
2009/04/23 16:05:52.4     156   -294    239    333    409 152.0  39.3  34148  289.37 0854.48
2009/04/23 16:05:52.5      94   -280    246    296    384 161.3  43.8  34142  289.25 0854.48
2009/04/23 16:05:52.6     124   -283    260    310    404 156.4  44.3  34148  289.37 0854.48
2009/04/23 16:05:52.7      56   -195    233    203    309 164.0  54.3  34154  289.46 0854.48
2009/04/23 16:05:52.8     -23   -228    241    230    333 185.8  51.6  34144  289.31 0854.48
2009/04/23 16:05:52.9      76   -227    150    240    283 161.5  35.5  34162  289.59 0854.48
2009/04/23 16:05:53.0     105   -127    153    166    225 140.4  47.7  34150  289.41 0854.48
2009/04/23 16:05:53.1       5   -220    186    221    288 178.6  44.1  34156  289.51 0854.48
2009/04/23 16:05:53.2    -127   -370      1    392    393 199.0   0.2  34152  289.43 0854.48
2009/04/23 16:05:53.3    -176   -350    -11    392    393 206.7  -1.7  34148  289.38 0854.47
2009/04/23 16:05:53.4       7   -302     36    303    306 178.6   6.9  34148  289.36 0854.47
2009/04/23 16:05:53.5      65   -140     93    155    180 155.1  34.0  34152  289.45 0854.47
2009/04/23 16:05:53.6      38    -93    112    101    150 157.7  53.3  34164  289.65 0854.47
2009/04/23 16:05:53.7      -2    -84     90     85    123 181.8  51.6  34160  289.58 0854.47
2009/04/23 16:05:53.8     -27   -135    195    138    238 191.5  61.5  34166  289.67 0854.47
2009/04/23 16:05:53.9    -113   -178     79    212    226 212.5  21.3  34150  289.41 0854.47
2009/04/23 16:05:54.0     158    -36    110    163    196 102.8  37.6  34150  289.40 0854.47
2009/04/23 16:05:54.1      72    -96    186    121    221 143.0  64.4  34164  289.65 0854.47
2009/04/23 16:05:54.2      31    -65    103     73    126 154.5  61.1  34178  289.87 0854.47
2009/04/23 16:05:54.3      26    -91     72     95    119 164.0  41.2  34166  289.67 0854.47
2009/04/23 16:05:54.4      72     72     45    103    112  45.0  25.1  34170  289.75 0854.47
2009/04/23 16:05:54.5     157    100     11    187    188  57.6   3.6  34158  289.55 0854.47
2009/04/23 16:05:54.6     136    118     63    181    192  49.1  19.4  34158  289.55 0854.47
2009/04/23 16:05:54.7     249    -35     93    252    268  98.0  21.0  34160  289.58 0854.47
2009/04/23 16:05:54.8     244    -37     87    247    262  98.8  19.4  34162  289.61 0854.47
2009/04/23 16:05:54.9     198    -15    144    199    245  94.4  39.7  34162  289.60 0854.47
2009/04/23 16:05:55.0     227      3     33    228    231  89.1   8.2  34182  289.96 0854.47
2009/04/23 16:05:55.1     219    -34     43    222    227  99.0  11.0  34190  290.09 0854.47
2009/04/23 16:05:55.2     184   -105     42    213    218 119.8  11.1  34170  289.74 0854.47
2009/04/23 16:05:55.3     226   -139     19    266    267 121.6   4.2  34164  289.63 0854.48
2009/04/23 16:05:55.4     164   -104     74    195    208 122.4  21.5  34158  289.53 0854.48
2009/04/23 16:05:55.5     275   -151     75    314    323 118.9  13.6  34162  289.59 0854.48
2009/04/23 16:05:55.6     179   -185     85    258    272 135.9  18.4  34152  289.44 0854.48
2009/04/23 16:05:55.7     155   -176     92    235    252 138.6  22.3  34154  289.46 0854.48
2009/04/23 16:05:55.8      64   -209    125    219    252 163.0  32.4  34158  289.53 0854.48
2009/04/23 16:05:55.9     -39   -193    113    198    227 191.6  32.1  34162  289.60 0854.48
2009/04/23 16:05:56.0     -21   -149    150    151    212 188.0  50.0  34170  289.74 0854.48
2009/04/23 16:05:56.1      16    -49    124     52    134 161.5  76.1  34180  289.91 0854.48
2009/04/23 16:05:56.2      95   -275    177    291    340 160.9  34.3  34168  289.70 0854.48
2009/04/23 16:05:56.3     -14    -30    162     34    165 205.4  88.5  34184  289.97 0854.48
2009/04/23 16:05:56.4     -41   -335    214    338    400 187.1  35.5  34164  289.64 0854.48
2009/04/23 16:05:56.5     -38   -412    163    414    444 185.4  22.7  34158  289.55 0854.48
2009/04/23 16:05:56.6      57   -371    233    376    442 171.2  34.8  34168  289.72 0854.48
2009/04/23 16:05:56.7      62   -324    210    330    391 169.1  35.5  34160  289.57 0854.48
2009/04/23 16:05:56.8      -4   -275    119    276    300 181.0  24.9  34166  289.66 0854.48
2009/04/23 16:05:56.9      -2   -180    154    181    237 180.7  44.8  34172  289.77 0854.48
2009/04/23 16:05:57.0      68   -159    181    174    251 156.8  51.2  34168  289.72 0854.48
2009/04/23 16:05:57.1     179   -273     12    327    328 146.6   2.2  34162  289.59 0854.48
2009/04/23 16:05:57.2     205   -265     53    336    341 142.3   9.0  34162  289.59 0854.48
2009/04/23 16:05:57.3      91   -229    169    247    299 158.2  37.6  34160  289.58 0854.44
2009/04/23 16:05:57.4      21   -280    234    281    365 175.5  44.0  34162  289.60 0854.44
2009/04/23 16:05:57.5      30   -237    254    239    348 172.7  52.1  34170  289.73 0854.44
2009/04/23 16:05:57.7     182   -189    173    263    314 136.1  36.5  34172  289.78 0854.44
2009/04/23 16:05:57.8      93   -152    180    179    253 148.6  50.1  34178  289.87 0854.44
2009/04/23 16:05:57.9       2   -144     87    145    169 179.1  34.0  34170  289.74 0854.44
2009/04/23 16:05:58.0      73   -287    200    297    358 165.7  37.3  34162  289.60 0854.44
2009/04/23 16:05:58.1     -24   -311    209    313    376 184.5  37.0  34168  289.72 0854.44
2009/04/23 16:05:58.2      65   -241    245    250    350 164.9  49.7  34184  289.97 0854.44
2009/04/23 16:05:58.3      21    -49    175     54    183 156.4  82.3  34188  290.06 0854.44
2009/04/23 16:05:58.4     128   -162    122    207    240 141.7  33.4  34170  289.74 0854.44
2009/04/23 16:05:58.5     120   -202    123    236    266 149.3  29.5  34168  289.71 0854.44
2009/04/23 16:05:58.6      85   -204    138    222    261 157.3  35.2  34164  289.64 0854.44
2009/04/23 16:05:58.7     100   -213    142    236    275 154.7  33.7  34170  289.73 0854.44
2009/04/23 16:05:58.8     122   -186    149    223    268 146.6  36.7  34170  289.75 0854.44
2009/04/23 16:05:58.9     132   -111    140    173    222 130.2  43.5  34174  289.80 0854.44
2009/04/23 16:05:59.0     141   -118     64    185    196 130.0  19.2  34170  289.75 0854.44
2009/04/23 16:05:59.1     161    -90    -66    185    197 119.3 -19.7  34168  289.72 0854.44
2009/04/23 16:05:59.2      87   -114    -28    144    147 142.6 -11.3  34170  289.74 0854.44
2009/04/23 16:05:59.3      85   -134     18    160    162 147.5   6.5  34168  289.72 0854.40
2009/04/23 16:05:59.4      47   -118      4    128    129 158.2   1.8  34168  289.70 0854.40
2009/04/23 16:05:59.5     119    -76    -11    142    143 122.4  -4.6  34164  289.65 0854.40
2009/04/23 16:05:59.6     144   -148     45    207    212 135.7  12.4  34170  289.75 0854.40
2009/04/23 16:05:59.7      46   -141    -11    149    150 161.7  -4.6  34170  289.74 0854.40
2009/04/23 16:05:59.8     -21   -123     47    125    133 189.7  21.0  34162  289.62 0854.40
2009/04/23 16:05:59.9     122    -82      7    148    149 124.1   2.9  34164  289.65 0854.40
2009/04/23 16:06:00.0      70    -85    -14    111    112 140.4  -7.3  34160  289.58 0854.40
2009/04/23 16:06:00.1     132    -49    -33    141    145 110.4 -13.3  34170  289.74 0854.40
2009/04/23 16:06:00.2     113     -7     46    114    122  93.9  23.0  34174  289.80 0854.40
2009/04/23 16:06:00.3      36      0     36     37     51  90.8  50.0  34178  289.89 0854.40
2009/04/23 16:06:00.4       8      2     32      9     33  71.6  82.8  34184  289.99 0854.40
2009/04/23 16:06:00.5      25      8     59     27     64  71.8  73.1  34178  289.87 0854.40
2009/04/23 16:06:00.6      35     19     79     40     88  61.1  71.9  34172  289.77 0854.40
2009/04/23 16:06:00.7    -112    -81     90    139    165 234.0  35.7  34168  289.72 0854.40
2009/04/23 16:06:00.8    -170   -109    173    203    266 237.4  44.8  34170  289.73 0854.40
2009/04/23 16:06:00.9     -41   -168     82    173    191 193.8  27.1  34164  289.65 0854.40
2009/04/23 16:06:01.0      47    -56    100     74    124 140.4  60.0  34176  289.85 0854.40
2009/04/23 16:06:01.1      34    -72      8     80     81 154.7   5.9  34166  289.67 0854.40
2009/04/23 16:06:01.2      35      0      1     36     37  89.2   2.8  34172  289.77 0854.40
2009/04/23 16:06:01.3      82      8     -9     83     84  84.3  -6.2  34166  289.69 0854.38
2009/04/23 16:06:01.4     136     28     18    139    141  78.1   7.5  34168  289.72 0854.38
2009/04/23 16:06:01.5     196     28     26    199    201  81.6   7.5  34172  289.77 0854.38
2009/04/23 16:06:01.6     181      7     97    182    206  87.6  30.1  34174  289.80 0854.38
2009/04/23 16:06:01.7     160    138     66    212    223  49.3  17.3  34172  289.77 0854.38
2009/04/23 16:06:01.8     196    146     84    245    260  53.4  18.9  34188  290.03 0854.38
2009/04/23 16:06:01.9     183    108    130    213    249  59.3  34.4  34188  290.05 0854.38
2009/04/23 16:06:02.0     127     68    183    145    233  61.6  57.5  34188  290.06 0854.38
2009/04/23 16:06:02.1      43     36    108     57    122  50.5  70.4  34198  290.21 0854.38
2009/04/23 16:06:02.2      67     13    137     69    153  78.5  71.4  34194  290.14 0854.38
2009/04/23 16:06:02.3     176     83    119    195    228  64.6  34.4  34180  289.91 0854.38
2009/04/23 16:06:02.4     200    -13    211    201    291  93.9  51.4  34172  289.78 0854.38
2009/04/23 16:06:02.5     106   -119    156    160    223 138.5  49.8  34180  289.92 0854.38
2009/04/23 16:06:02.6     173   -109     93    205    225 122.2  26.4  34176  289.84 0854.38
2009/04/23 16:06:02.7     239   -166     -5    292    293 124.9  -1.2  34172  289.76 0854.38
2009/04/23 16:06:02.8     304   -125     -7    329    330 112.4  -1.4  34166  289.69 0854.38
2009/04/23 16:06:02.9     255    -67     38    264    267 104.8   8.2  34168  289.71 0854.38
2009/04/23 16:06:03.0     228   -107     77    253    265 115.2  17.1  34172  289.78 0854.38
2009/04/23 16:06:03.1     160    -96     22    187    189 121.1   6.9  34172  289.77 0854.38
2009/04/23 16:06:03.2     152    -51    -19    161    163 108.6  -6.7  34172  289.79 0854.38
2009/04/23 16:06:03.3     121    -21      6    123    124 100.1   2.8  34172  289.79 0854.38
2009/04/23 16:06:03.4      89     18     32     91     97  78.1  19.4  34182  289.96 0854.38
2009/04/23 16:06:03.5      62     69     42     93    102  41.9  25.7  34206  290.36 0854.38
2009/04/23 16:06:03.6     152     87     49    176    183  60.2  15.8  34246  291.03 0854.38
2009/04/23 16:06:03.7      58    110     39    125    132  28.1  17.4  34272  291.47 0854.38
2009/04/23 16:06:03.8      62     65     76     90    117  43.7  44.8  34238  290.91 0854.38
2009/04/23 16:06:03.9      83     60     54    103    116  54.1  29.8  34210  290.41 0854.38
2009/04/23 16:06:04.0     -33    106     54    112    124 342.6  27.8  34230  290.77 0854.38
2009/04/23 16:06:04.1     -24    143     19    146    148 350.2   7.5  34252  291.15 0854.38
2009/04/23 16:06:04.2    -102    136     25    171    173 323.0   8.5  34252  291.15 0854.38
2009/04/23 16:06:04.3    -106    166     48    198    204 327.5  13.7  34230  290.75 0854.38
2009/04/23 16:06:04.4     -95    159     63    186    197 329.0  18.9  34234  290.84 0854.38
2009/04/23 16:06:04.5    -219    154     15    268    269 305.1   3.3  34258  291.24 0854.38
2009/04/23 16:06:04.6    -234    193    -19    304    305 309.5  -3.7  34242  290.97 0854.38
2009/04/23 16:06:04.7    -237    145     43    279    283 301.5   8.8  34214  290.49 0854.38
2009/04/23 16:06:04.8    -246    189    -11    311    312 307.5  -2.1  34210  290.41 0854.38
2009/04/23 16:06:04.9    -208    194    -79    285    296 313.1 -15.5  34194  290.15 0854.38
2009/04/23 16:06:05.0    -128    229    -51    263    269 330.8 -11.1  34190  290.09 0854.38
2009/04/23 16:06:05.1    -147    224    -49    269    274 326.6 -10.5  34202  290.29 0854.38
2009/04/23 16:06:05.2     -55    199    -70    207    218 344.4 -23.3  34190  290.08 0854.38
2009/04/23 16:06:05.3     -52    188     93    196    216 344.6  27.1  34202  290.28 0854.36
2009/04/23 16:06:05.4      64    148     96    162    188  23.6  33.7  34196  290.18 0854.36
2009/04/23 16:06:05.5      82    175     98    194    217  25.2  29.1  34196  290.19 0854.36
2009/04/23 16:06:05.6      94    160    126    186    224  30.5  37.4  34198  290.21 0854.36
2009/04/23 16:06:05.7     258    106     60    280    287  67.6  12.1  34178  289.88 0854.36
2009/04/23 16:06:05.8     162    133    -74    210    222  50.5 -24.4  34192  290.11 0854.36
2009/04/23 16:06:05.9     136    109    -62    175    185  51.4 -24.0  34248  291.08 0854.36
2009/04/23 16:06:06.0       7     67     30     68     74   6.2  25.1  34246  291.04 0854.36
2009/04/23 16:06:06.1     -18      0     55     19     58 270.0  81.2  34244  290.99 0854.36
2009/04/23 16:06:06.2     -12     24     41     27     49 332.8  63.6  34226  290.69 0854.36
2009/04/23 16:06:06.3      54     25     64     60     87  64.6  51.2  34194  290.14 0854.36
2009/04/23 16:06:06.4     163     50    131    171    215  72.7  41.6  34204  290.31 0854.36
2009/04/23 16:06:06.5     167      1    143    168    220  89.4  44.8  34252  291.15 0854.36
2009/04/23 16:06:06.6     171     46    146    178    230  74.7  43.7  34322  292.34 0854.36
2009/04/23 16:06:06.7     246     26    113    248    272  83.9  26.2  34322  292.33 0854.36
2009/04/23 16:06:06.8     286     40     36    289    292  82.0   7.2  34234  290.83 0854.36
2009/04/23 16:06:06.9     264     91     54    280    286  71.0  11.0  34218  290.54 0854.36
2009/04/23 16:06:07.0     300    191    -54    356    361  57.5  -8.7  34178  289.89 0854.36
2009/04/23 16:06:07.1     339    169     11    379    380  63.5   1.8  34178  289.87 0854.36
2009/04/23 16:06:07.2     359     47   -130    363    386  82.4 -19.7  34192  290.13 0854.36
2009/04/23 16:06:07.3     246     85     60    261    268  71.0  13.1  34194  290.15 0854.35
2009/04/23 16:06:07.4     203    123     75    238    250  58.7  17.7  34200  290.26 0854.35
2009/04/23 16:06:07.5     151     98     60    181    191  56.9  18.4  34202  290.28 0854.35
2009/04/23 16:06:07.6     189    120     70    225    236  57.5  17.3  34206  290.35 0854.35
2009/04/23 16:06:07.7     193    100     55    218    225  62.5  14.3  34206  290.35 0854.35
2009/04/23 16:06:07.8     258     78     63    270    278  73.2  13.1  34186  290.00 0854.35
2009/04/23 16:06:07.9     245    111     79    270    282  65.6  16.4  34220  290.59 0854.35
2009/04/23 16:06:08.0     278     83     40    291    294  73.4   8.0  34180  289.92 0854.35
2009/04/23 16:06:08.1     293     91     26    307    309  72.7   4.9  34126  289.00 0854.35
2009/04/23 16:06:08.2     285     82     46    297    301  73.8   8.8  34122  288.93 0854.35
2009/04/23 16:06:08.3     298     70     66    307    315  76.8  12.2  34130  289.07 0854.35
2009/04/23 16:06:08.4     307     66    110    315    334  77.9  19.3  34218  290.54 0854.35
2009/04/23 16:06:08.5     305     43    123    309    332  81.9  23.0  34282  291.63 0854.35
2009/04/23 16:06:08.6     248     59     44    256    260  76.5   9.9  34208  290.39 0854.35
2009/04/23 16:06:08.7     264     23    137    266    299  85.0  29.3  34242  290.97 0854.35
2009/04/23 16:06:08.8     245     17    171    246    299  85.9  38.4  34234  290.82 0854.35
2009/04/23 16:06:08.9     348    139     88    375    386  68.2  13.2  34178  289.87 0854.35
2009/04/23 16:06:09.0     438    188      2    477    478  66.7   0.3  34254  291.17 0854.35
2009/04/23 16:06:09.1     363    117      3    382    383  72.1   0.5  34266  291.37 0854.35
2009/04/23 16:06:09.2     495     19     28    496    497  87.8   3.3  34246  291.02 0854.35
2009/04/23 16:06:09.3     405    -20     98    406    418  92.9  13.6  34236  290.87 0854.35
2009/04/23 16:06:09.4     425     58    135    429    450  82.2  17.5  34216  290.51 0854.35
2009/04/23 16:06:09.5     423     96    157    434    462  77.2  19.9  34206  290.34 0854.35
2009/04/23 16:06:09.6     321     63    214    328    391  78.9  36.4  34200  290.25 0854.35
2009/04/23 16:06:09.7     317     76    120    327    348  76.5  21.0  34238  290.88 0854.35
2009/04/23 16:06:09.8     262      3    187    263    322  89.2  39.0  34228  290.71 0854.35
2009/04/23 16:06:09.9     398     56    139    403    427  82.0  19.1  34248  291.07 0854.35
2009/04/23 16:06:10.0     362     34    172    364    402  84.5  27.1  34278  291.56 0854.35
2009/04/23 16:06:10.1     369    168     95    406    418  65.5  13.3  34280  291.60 0854.35
2009/04/23 16:06:10.2     376    167    137    412    435  66.1  18.4  34302  291.98 0854.35
2009/04/23 16:06:10.3     337    120    136    358    382  70.3  21.8  34332  292.51 0854.38
2009/04/23 16:06:10.4     368    128    165    390    423  70.7  24.3  34336  292.57 0854.38
2009/04/23 16:06:10.5     407     30     19    409    410  85.7   2.8  34250  291.09 0854.38
2009/04/23 16:06:10.6     454     42    125    457    474  84.7  15.3  34240  290.93 0854.38
2009/04/23 16:06:10.7     392    118    153    410    437  73.2  21.4  34304  292.03 0854.38
2009/04/23 16:06:10.8     418     46    120    421    438  83.7  15.9  34254  291.18 0854.38
2009/04/23 16:06:10.9     389     57     92    394    405  81.7  13.2  34228  290.71 0854.38
2009/04/23 16:06:11.0     401    100    129    414    434  75.9  17.3  34230  290.75 0854.38
2009/04/23 16:06:11.1     398     80    118    406    424  78.6  16.3  34200  290.24 0854.38
2009/04/23 16:06:11.2     381    105    148    396    422  74.6  21.5  34252  291.12 0854.38
2009/04/23 16:06:11.3     366     49    132    370    392  82.3  20.6  34262  291.32 0854.38
2009/04/23 16:06:11.4     312    135    123    340    361  66.6  20.7  34238  290.88 0854.38
2009/04/23 16:06:11.5     279    143    100    314    330  62.9  17.8  34236  290.87 0854.38
2009/04/23 16:06:11.6     300    152     96    337    351  63.0  16.0  34270  291.44 0854.38
2009/04/23 16:06:11.7     285    121     99    310    326  66.9  17.8  34254  291.16 0854.38
2009/04/23 16:06:11.8     316    100    113    332    351  72.3  18.8  34238  290.91 0854.38
2009/04/23 16:06:11.9     276     74    129    286    313  74.9  25.9  34218  290.54 0854.38
2009/04/23 16:06:12.0     278     22     61    279    286  85.4  12.4  34210  290.41 0854.38
2009/04/23 16:06:12.1     297     50     39    302    305  80.3   7.5  34200  290.26 0854.38
2009/04/23 16:06:12.2     271     -1      5    272    273  90.4   1.2  34200  290.24 0854.38
2009/04/23 16:06:12.3     260     -8     75    261    272  91.9  16.0  34194  290.15 0854.41
2009/04/23 16:06:12.4     265     -7    124    266    293  91.7  27.1  34192  290.10 0854.41
2009/04/23 16:06:12.5     167     -5    153    168    227  91.7  47.1  34196  290.19 0854.41
2009/04/23 16:06:12.6     200     28    195    203    281  82.0  49.0  34194  290.15 0854.41
2009/04/23 16:06:12.7     264     73    238    275    363  74.5  45.4  34208  290.38 0854.41
2009/04/23 16:06:12.8     232     14    182    233    295  86.5  41.7  34190  290.07 0854.41
2009/04/23 16:06:12.9     164     58    193    175    260  70.3  53.2  34204  290.31 0854.41
2009/04/23 16:06:13.0     -45     42    183     62    193 313.1  81.2  34222  290.64 0854.41
2009/04/23 16:06:13.1     -93     94     44    133    141 315.5  18.4  34212  290.47 0854.41
2009/04/23 16:06:13.2     -91     94     -2    131    132 315.9  -1.3  34216  290.53 0854.41
2009/04/23 16:06:13.3    -104    132    -60    169    180 321.7 -19.7  34238  290.91 0854.41
2009/04/23 16:06:13.4    -122    -13    -50    123    132 263.9 -27.4  34214  290.50 0854.41
2009/04/23 16:06:13.5    -153    -68    -64    168    179 246.0 -26.1  34210  290.43 0854.41
2009/04/23 16:06:13.6    -167    -32    -69    171    184 259.0 -27.4  34196  290.19 0854.41
2009/04/23 16:06:13.7    -138    -50    -97    147    176 250.1 -40.9  34178  289.89 0854.41
2009/04/23 16:06:13.8    -120   -145    -68    189    200 219.7 -24.8  34138  289.21 0854.41
2009/04/23 16:06:13.9    -113   -153   -132    191    232 216.5 -42.0  34138  289.21 0854.41
2009/04/23 16:06:14.0     -67   -216    -80    227    241 197.4 -19.6  34138  289.20 0854.41
2009/04/23 16:06:14.1     -63   -229    -56    238    245 195.4 -13.4  34140  289.22 0854.41
2009/04/23 16:06:14.2      -5   -213    -36    214    218 181.4  -9.6  34142  289.26 0854.41
2009/04/23 16:06:14.3     -66   -196    -34    208    211 198.7  -9.3  34144  289.31 0854.43
2009/04/23 16:06:14.4     -55   -202    -37    210    214 195.2 -10.1  34146  289.35 0854.43
2009/04/23 16:06:14.5     -63   -134    -35    149    154 205.4 -13.4  34172  289.79 0854.43
2009/04/23 16:06:14.6     -44   -131    -42    139    145 198.7 -21.8  34164  289.65 0854.43
2009/04/23 16:06:14.7     -22   -172    -55    174    183 187.6 -17.6  34156  289.52 0854.43
2009/04/23 16:06:14.8      24   -206    -15    208    209 173.3  -4.4  34150  289.41 0854.43
2009/04/23 16:06:14.9      19   -214    -11    215    216 174.9  -3.1  34166  289.69 0854.43
2009/04/23 16:06:15.0      45   -177    -36    183    187 165.7 -11.1  34166  289.67 0854.43
2009/04/23 16:06:15.1      49   -172    -64    180    191 164.0 -24.4  34162  289.62 0854.43
2009/04/23 16:06:15.2      -4   -144    -63    145    158 181.8 -29.3  34166  289.69 0854.43
2009/04/23 16:06:15.3     -70    -94    -64    118    134 216.5 -35.7  34166  289.67 0854.43
2009/04/23 16:06:15.4     -90    -91     45    129    137 224.5  19.2  34168  289.72 0854.43
2009/04/23 16:06:15.5    -161    -12    -25    162    165 265.4  -9.0  34162  289.62 0854.43
2009/04/23 16:06:15.6    -244    -32    -84    247    260 262.5 -23.3  34148  289.37 0854.43
2009/04/23 16:06:15.7    -219     -6   -148    220    265 268.3 -41.4  34140  289.22 0854.43
2009/04/23 16:06:15.8    -191     -3   -155    192    246 269.0 -47.7  34174  289.80 0854.43
2009/04/23 16:06:15.9    -215    -41   -199    219    295 259.2 -51.4  34162  289.61 0854.43
2009/04/23 16:06:16.0    -283    -71   -243    292    379 255.9 -48.4  34172  289.79 0854.43
2009/04/23 16:06:16.1    -393    -44   -238    396    462 263.5 -38.2  34174  289.80 0854.43
2009/04/23 16:06:16.2    -471    -65   -137    476    495 262.1 -20.8  34188  290.06 0854.43
2009/04/23 16:06:16.3    -396    -97    -88    408    418 256.2 -12.3  34184  289.97 0854.44
2009/04/23 16:06:16.4    -330   -182    -45    377    380 241.1  -6.9  34164  289.65 0854.44
2009/04/23 16:06:16.5    -381   -159   -134    414    436 247.3 -17.9  34212  290.44 0854.44
2009/04/23 16:06:16.6    -408   -214   -140    461    482 242.3 -16.9  34148  289.37 0854.44
2009/04/23 16:06:16.7    -313   -216    -21    381    382 235.4  -3.2  34178  289.86 0854.44
2009/04/23 16:06:16.8    -356   -139   -111    383    399 248.7 -16.2  34142  289.25 0854.44
2009/04/23 16:06:16.9    -241   -118    -82    269    281 243.8 -21.8  34150  289.39 0854.44
2009/04/23 16:06:17.0    -266    -23     11    268    269 265.0   2.5  34182  289.93 0854.44
2009/04/23 16:06:17.1    -214   -200    103    294    312 226.9  19.4  34184  289.98 0854.44
2009/04/23 16:06:17.2    -200   -188     13    275    276 226.8   2.9  34182  289.93 0854.44
2009/04/23 16:06:17.3    -244   -171    -35    299    302 234.9  -6.7  34184  289.98 0854.44
2009/04/23 16:06:17.4    -191   -184     -1    266    267 226.0  -0.3  34178  289.86 0854.44
2009/04/23 16:06:17.5    -237   -161    -36    287    290 235.8  -7.2  34176  289.85 0854.44
2009/04/23 16:06:17.6    -175   -214   -120    277    301 219.2 -29.5  34170  289.73 0854.44
2009/04/23 16:06:17.7    -103    -83    -22    133    135 231.4  -9.4  34158  289.55 0854.44
2009/04/23 16:06:17.8    -171   -188     99    255    273 222.3  22.1  34164  289.63 0854.44
2009/04/23 16:06:17.9    -102   -260     16    280    281 201.6   3.3  34166  289.68 0854.44
2009/04/23 16:06:18.0     -45   -219     -8    224    225 191.8  -2.1  34168  289.70 0854.44
2009/04/23 16:06:18.1     -25   -205    -24    207    209 187.1  -6.9  34166  289.67 0854.44
2009/04/23 16:06:18.2     -16   -216    -11    217    218 184.4  -3.1  34166  289.69 0854.44
2009/04/23 16:06:18.3       0   -251    102    252    271 179.8  23.1  34166  289.68 0854.46
2009/04/23 16:06:18.4     -39   -339     52    342    346 186.6   8.7  34166  289.67 0854.46
2009/04/23 16:06:18.5      43   -297    -70    301    310 171.8 -13.1  34164  289.63 0854.46
2009/04/23 16:06:18.6     103   -306    -42    324    327 161.3  -7.5  34158  289.54 0854.46
2009/04/23 16:06:18.7      90   -310     -4    323    324 163.7  -0.7  34160  289.56 0854.46
2009/04/23 16:06:18.8      25   -335     42    336    339 175.6   7.2  34176  289.84 0854.46
2009/04/23 16:06:18.9      68   -367     19    374    375 169.5   3.0  34184  289.98 0854.46
2009/04/23 16:06:19.0      64   -336     10    343    344 169.2   1.7  34184  289.98 0854.46
2009/04/23 16:06:19.1      84   -325     -1    336    337 165.5  -0.2  34172  289.79 0854.46
2009/04/23 16:06:19.2     112   -353     50    371    375 162.4   7.8  34174  289.81 0854.46
2009/04/23 16:06:19.3     130   -409     29    430    431 162.3   3.9  34178  289.88 0854.46
2009/04/23 16:06:19.4      80   -371     73    380    388 167.7  11.0  34182  289.93 0854.46
2009/04/23 16:06:19.6     146   -264     38    302    305 151.0   7.2  34180  289.90 0854.46
2009/04/23 16:06:19.6     184   -213    135    282    312 139.2  27.4  34188  290.03 0854.46
2009/04/23 16:06:19.7     182   -280    118    335    356 147.0  19.4  34198  290.23 0854.46
2009/04/23 16:06:19.8     138   -264    152    298    334 152.4  29.2  34222  290.63 0854.46
2009/04/23 16:06:19.9     165   -207    195    265    329 141.5  40.1  34216  290.53 0854.46
2009/04/23 16:06:20.0     163   -293    211    336    396 150.8  35.1  34204  290.33 0854.46
2009/04/23 16:06:20.1      86   -266    112    280    301 162.1  23.0  34182  289.93 0854.46
2009/04/23 16:06:20.2      49   -176    124    183    221 164.2  37.4  34198  290.23 0854.46
2009/04/23 16:06:20.3      92    -85    133    126    183 132.7  51.6  34222  290.62 0854.46
2009/04/23 16:06:20.4      77    -63    134    100    167 129.5  59.2  34236  290.86 0854.46
2009/04/23 16:06:20.5      75    -10    121     76    142  97.9  64.7  34218  290.57 0854.46
2009/04/23 16:06:20.6     132    -78    140    154    208 120.7  47.1  34184  289.99 0854.46
2009/04/23 16:06:20.8      65    -21    158     69    172 108.2  75.0  34194  290.16 0854.46
2009/04/23 16:06:20.8     129    -27    159    132    206 101.9  56.3  34184  289.99 0854.46
2009/04/23 16:06:20.9      95    -55    142    111    180 120.2  58.2  34182  289.96 0854.46
2009/04/23 16:06:21.0     -28      2    141     29    143 274.4  89.0  34204  290.33 0854.46
2009/04/23 16:06:21.1     -14     -9    190     17    190 237.6  90.0  34210  290.43 0854.46
2009/04/23 16:06:21.2    -101   -115    207    154    258 221.4  59.8  34208  290.38 0854.46
2009/04/23 16:06:21.3       0   -104    170    105    199 180.4  65.4  34194  290.16 0854.46
2009/04/23 16:06:21.4      27   -113    162    117    199 166.6  60.6  34192  290.11 0854.46
2009/04/23 16:06:21.5       5   -113    135    114    176 177.3  55.6  34188  290.06 0854.46
2009/04/23 16:06:21.6      -6   -148    122    149    192 182.6  43.7  34184  289.99 0854.46
2009/04/23 16:06:21.7       4    -96    150     97    178 177.3  64.4  34190  290.09 0854.46
2009/04/23 16:06:21.8     -91   -111    144    144    203 219.2  50.1  34184  289.97 0854.46
2009/04/23 16:06:22.0     -82   -142    118    165    202 210.1  39.1  34174  289.82 0854.46
2009/04/23 16:06:22.0     -47   -178    125    185    223 194.9  37.3  34178  289.89 0854.46
2009/04/23 16:06:22.1     -88   -179    157    200    254 206.3  42.2  34180  289.92 0854.46
2009/04/23 16:06:22.2     -43   -166    162    172    236 194.5  48.2  34188  290.04 0854.46
2009/04/23 16:06:22.3      62   -131    123    146    190 154.7  44.1  34184  289.97 0854.47
2009/04/23 16:06:22.4     111   -222    -37    249    252 153.5  -8.6  34176  289.83 0854.47
2009/04/23 16:06:22.5     107   -185     -4    214    215 149.9  -1.3  34188  290.04 0854.47
2009/04/23 16:06:22.6      78   -131    112    153    189 149.3  39.7  34184  289.97 0854.47
2009/04/23 16:06:22.7     115   -114    167    163    233 134.7  50.4  34190  290.08 0854.47
2009/04/23 16:06:22.8      83      2    159     84    179  88.3  70.0  34196  290.18 0854.47
2009/04/23 16:06:22.9      10     20     73     23     76  27.2  80.7  34194  290.14 0854.47
2009/04/23 16:06:23.0      99    -53    101    113    151 118.4  46.4  34178  289.87 0854.47
2009/04/23 16:06:23.2     108   -133    140    172    221 141.0  43.7  34176  289.84 0854.47
2009/04/23 16:06:23.2     236   -209     90    316    329 131.4  16.0  34174  289.80 0854.47
2009/04/23 16:06:23.3     250   -100    107    270    290 111.8  23.0  34178  289.86 0854.47
2009/04/23 16:06:23.4      33    -40    111     53    123 140.4  72.9  34188  290.06 0854.47
2009/04/23 16:06:23.5      48    -53    104     72    126 137.7  62.6  34184  289.97 0854.47
2009/04/23 16:06:23.7      11     56     84     58    102  11.6  61.5  34202  290.30 0854.47
2009/04/23 16:06:23.7      45    -45     99     65    118 135.0  63.6  34194  290.14 0854.47
2009/04/23 16:06:23.8     176    -79     76    194    208 114.2  22.5  34176  289.84 0854.47
2009/04/23 16:06:23.9      57    -47     92     75    118 129.5  56.4  34178  289.89 0854.47
2009/04/23 16:06:24.0      36   -185    157    189    245 168.9  43.8  34184  289.97 0854.47
2009/04/23 16:06:24.1     102   -216    141    239    277 154.7  33.4  34180  289.90 0854.47
2009/04/23 16:06:24.2      25    -30    148     40    153 140.4  84.8  34206  290.36 0854.47
2009/04/23 16:06:24.3      30    -96    137    101    170 162.6  60.0  34202  290.28 0854.46
2009/04/23 16:06:24.4      52    -33    173     62    183 122.4  79.9  34226  290.69 0854.46
2009/04/23 16:06:24.5       8    -12     98     15     99 147.4  90.0  34220  290.58 0854.46
2009/04/23 16:06:24.6      64    -40     86     76    114 122.4  53.7  34214  290.48 0854.46
2009/04/23 16:06:24.7      15    -76     92     78    120 168.4  55.4  34210  290.41 0854.46
2009/04/23 16:06:24.8       2    -34     98     35    104 175.6  80.7  34212  290.47 0854.46
2009/04/23 16:06:24.9      87    -63     92    108    141 125.9  44.8  34218  290.57 0854.46
2009/04/23 16:06:25.0      10   -128    144    129    193 175.5  53.5  34212  290.47 0854.46
2009/04/23 16:06:25.1     -76   -172    129    189    228 203.8  37.6  34202  290.30 0854.46
2009/04/23 16:06:25.2      20     27     94     34     99  36.1  79.7  34242  290.98 0854.46
2009/04/23 16:06:25.3     -22     67    121     71    140 341.5  66.8  34266  291.38 0854.46
2009/04/23 16:06:25.5      85    -92     90    126    154 137.2  39.5  34274  291.50 0854.46
2009/04/23 16:06:25.6     148    -77     72    167    181 117.5  24.6  34272  291.49 0854.46
2009/04/23 16:06:25.7     208    -84     46    225    230 112.0  11.6  34276  291.55 0854.46
2009/04/23 16:06:25.8     159    -54    -52    168    175 108.8 -22.8  34300  291.96 0854.46
2009/04/23 16:06:25.9      96    -98    -12    138    139 135.5  -5.1  34274  291.50 0854.46
2009/04/23 16:06:26.0       4   -133    134    134    189 178.2  50.1  34208  290.40 0854.46
2009/04/23 16:06:26.1     -24   -106    124    109    165 192.9  54.3  34226  290.69 0854.46
2009/04/23 16:06:26.2      -6   -145    156    146    213 182.7  52.0  34210  290.43 0854.46
2009/04/23 16:06:26.3     -67   -192    122    204    237 199.2  33.7  34204  290.33 0854.45
2009/04/23 16:06:26.4    -148   -119     86    191    209 231.1  25.9  34216  290.53 0854.45
2009/04/23 16:06:26.5      51    -12    104     53    116 104.2  71.4  34228  290.72 0854.45
2009/04/23 16:06:26.6      21     25    110     33    114  39.7  82.3  34270  291.45 0854.45
2009/04/23 16:06:26.7      76    -19    127     79    149 104.2  64.7  34310  292.13 0854.45
2009/04/23 16:06:26.8      97     -8     77     98    124  95.2  41.7  34296  291.89 0854.45
2009/04/23 16:06:26.9     -31    -31     15     44     47 225.0  19.4  34270  291.45 0854.45
2009/04/23 16:06:27.0     -53   -122     48    134    142 203.7  20.4  34216  290.52 0854.45
2009/04/23 16:06:27.1     -52    -94     59    108    123 208.9  31.3  34212  290.45 0854.45
2009/04/23 16:06:27.2     -42    -97     48    106    116 203.6  26.6  34214  290.50 0854.45
2009/04/23 16:06:27.3     -81    -73    109    110    154 227.8  50.5  34230  290.77 0854.45
2009/04/23 16:06:27.4     -59    -67    126     90    154 221.4  60.6  34226  290.70 0854.45
2009/04/23 16:06:27.5     -18    -68     85     71    110 195.1  56.3  34230  290.75 0854.45
2009/04/23 16:06:27.6       0    -73     82     74    110 180.0  53.3  34238  290.89 0854.45
2009/04/23 16:06:27.7      -2    -35     45     36     57 184.4  56.4  34224  290.65 0854.45
2009/04/23 16:06:27.8      39    -43     45     59     74 137.7  41.7  34216  290.53 0854.45
2009/04/23 16:06:27.9      24    -44     58     51     77 151.0  54.3  34210  290.43 0854.45
2009/04/23 16:06:28.0      20    -75     54     78     94 164.9  37.6  34200  290.26 0854.45
2009/04/23 16:06:28.1       6   -145     62    146    158 177.3  24.3  34200  290.26 0854.45
2009/04/23 16:06:28.2     -28   -179      3    182    183 188.9   1.2  34208  290.40 0854.45
2009/04/23 16:06:28.3     -61   -119     -5    134    135 207.2  -2.2  34214  290.50 0854.44
2009/04/23 16:06:28.4     -73    -92    -18    118    120 218.7  -8.8  34212  290.45 0854.44
2009/04/23 16:06:28.5     -97    -73    -35    122    127 232.7 -16.0  34212  290.47 0854.44
2009/04/23 16:06:28.6    -105    -70    -38    127    133 236.3 -16.6  34230  290.75 0854.44
2009/04/23 16:06:28.7     -89    -67    -52    112    123 233.1 -31.0  34230  290.77 0854.44
2009/04/23 16:06:28.8     -44    -57    -50     73     88 217.8 -42.0  34234  290.82 0854.44
2009/04/23 16:06:28.9       5    -79    -56     80     97 176.4 -42.4  34224  290.65 0854.44
2009/04/23 16:06:29.0      24    -81    -32     85     90 163.5 -25.9  34226  290.70 0854.44
2009/04/23 16:06:29.1      79     -4     11     80     81  93.5   8.5  34232  290.81 0854.44
2009/04/23 16:06:29.2     127     11     -4    128    129  84.8  -1.8  34236  290.87 0854.44
2009/04/23 16:06:29.3     204      4    -18    205    206  88.7  -5.2  34234  290.82 0854.44
2009/04/23 16:06:29.4     127      1    -95    128    159  89.1 -44.8  34240  290.94 0854.44
2009/04/23 16:06:29.5     154    -33    -55    158    167 102.4 -23.8  34282  291.66 0854.44
2009/04/23 16:06:29.6      91     28      8     96     97  72.7   4.9  34328  292.44 0854.44
2009/04/23 16:06:29.7     126     21     56    128    139  80.4  25.1  34318  292.27 0854.44
2009/04/23 16:06:29.8     198     19     85    199    216  84.3  24.6  34306  292.05 0854.44
2009/04/23 16:06:29.9     181     22     49    183    190  83.0  15.2  34284  291.69 0854.44
2009/04/23 16:06:30.0     156     23     19    158    160  81.6   6.9  34282  291.66 0854.44
2009/04/23 16:06:30.1     144     -4     -3    145    146  91.7  -1.3  34292  291.81 0854.44
2009/04/23 16:06:30.2     179      0     32    180    183  89.9  10.3  34268  291.42 0854.44
2009/04/23 16:06:30.3     147     20     51    149    158  82.0  19.2  34274  291.50 0854.44
2009/04/23 16:06:30.4      98      7     47     99    109  85.6  27.2  34298  291.93 0854.44
2009/04/23 16:06:30.5     100    -10     49    101    112  96.1  27.3  34304  292.01 0854.44
2009/04/23 16:06:30.6      60    -49     31     78     83 129.5  22.0  34300  291.95 0854.44
2009/04/23 16:06:30.7      55    -41     27     69     74 126.9  22.0  34298  291.91 0854.44
2009/04/23 16:06:30.8      50    -55     26     75     80 137.7  19.4  34286  291.72 0854.44
2009/04/23 16:06:30.9      44    -85     29     96    101 152.4  16.8  34298  291.91 0854.44
2009/04/23 16:06:31.0      61   -140     66    153    166 156.4  24.9  34332  292.51 0854.44
2009/04/23 16:06:31.1      61   -208     52    218    225 163.5  13.5  34322  292.32 0854.44
2009/04/23 16:06:31.2      15   -203    -62    204    214 175.5 -17.0  34256  291.21 0854.44
2009/04/23 16:06:31.3      82   -252     16    265    266 162.0   3.6  34288  291.75 0854.45
2009/04/23 16:06:31.4      -4   -216    117    217    246 181.1  30.6  34324  292.35 0854.45
2009/04/23 16:06:31.5      11   -143    150    144    207 175.6  51.2  34328  292.42 0854.45
2009/04/23 16:06:31.6       7    -91    137     92    165 175.5  63.2  34328  292.42 0854.45
2009/04/23 16:06:31.7       9   -170    194    171    258 176.9  54.2  34272  291.46 0854.45
2009/04/23 16:06:31.8      -2   -163    242    164    292 180.9  62.7  34244  290.99 0854.45
2009/04/23 16:06:31.9      -4   -188    227    189    295 181.4  56.3  34236  290.87 0854.45
2009/04/23 16:06:32.0      24   -229    216    231    316 173.8  47.9  34238  290.88 0854.45
2009/04/23 16:06:32.1     -32   -293    178    295    344 186.3  34.1  34244  291.00 0854.45
2009/04/23 16:06:32.2     -24   -310    195    312    367 184.5  35.1  34246  291.03 0854.45
2009/04/23 16:06:32.3       4   -207    233    208    312 178.9  53.6  34232  290.80 0854.45
2009/04/23 16:06:32.4      -4   -157    168    158    230 181.8  52.1  34224  290.67 0854.45
2009/04/23 16:06:32.5     -79   -275    222    287    362 196.0  41.7  34208  290.37 0854.45
2009/04/23 16:06:32.6     -18   -148    237    150    280 187.1  64.7  34212  290.44 0854.45
2009/04/23 16:06:32.7     -20    -66    222     70    232 196.9  81.6  34214  290.48 0854.45
2009/04/23 16:06:32.8      15     75    145     77    164  11.6  69.8  34226  290.70 0854.45
2009/04/23 16:06:32.9     -50     36    188     62    197 306.0  81.0  34230  290.77 0854.45
2009/04/23 16:06:33.0       0     -7    129      8    129 182.7  90.0  34234  290.84 0854.45
2009/04/23 16:06:33.1      32     50     97     60    114  32.6  64.7  34234  290.84 0854.45
2009/04/23 16:06:33.2     -46     -6     36     47     59 262.1  41.7  34226  290.69 0854.45
2009/04/23 16:06:33.3     -63     85     -5    106    107 323.5  -3.1  34246  291.04 0854.43
2009/04/23 16:06:33.4       5      0     54      6     54  85.6  90.0  34240  290.92 0854.43
2009/04/23 16:06:33.5     -17    -44     99     48    110 200.9  72.8  34236  290.87 0854.43
2009/04/23 16:06:33.6     -50      3     81     51     95 273.5  64.7  34238  290.91 0854.43
2009/04/23 16:06:33.7     -71    138     61    156    167 332.9  22.3  34224  290.65 0854.43
2009/04/23 16:06:33.8    -133    187    -20    230    231 324.4  -5.2  34256  291.20 0854.43
2009/04/23 16:06:33.9    -149    195     26    246    248 322.6   6.1  34228  290.73 0854.43
2009/04/23 16:06:34.0    -133    180    -10    225    226 323.5  -2.6  34242  290.96 0854.43
2009/04/23 16:06:34.1    -158     50     97    166    192 287.7  33.1  34236  290.87 0854.43
2009/04/23 16:06:34.2    -151     96     28    180    183 302.5   8.8  34274  291.52 0854.43
2009/04/23 16:06:34.3     -54    179    -56    188    197 343.1 -16.6  34270  291.45 0854.43
2009/04/23 16:06:34.4       0    262    -87    263    277   0.1 -23.8  34272  291.46 0854.43
2009/04/23 16:06:34.5    -156    116     38    195    199 306.6  11.1  34266  291.38 0854.43
2009/04/23 16:06:34.6     -30    214     42    217    222 352.0  11.1  34268  291.40 0854.43
2009/04/23 16:06:34.7     -82    242    -51    256    262 341.3 -11.3  34284  291.67 0854.43
2009/04/23 16:06:34.8    -156    214      2    266    267 323.9   0.5  34268  291.41 0854.43
2009/04/23 16:06:34.9    -146    237    159    279    321 328.3  32.4  34274  291.50 0854.43
2009/04/23 16:06:35.0    -119    277    127    302    327 336.8  24.1  34272  291.46 0854.43
2009/04/23 16:06:35.1      27    312     17    314    315   5.1   3.2  34268  291.41 0854.43
2009/04/23 16:06:35.2       0    257     38    258    261   0.0   8.5  34272  291.48 0854.43
2009/04/23 16:06:35.3      -7    347     43    348    351 358.8   7.1  34268  291.39 0854.38
2009/04/23 16:06:35.4     105    317    -26    335    337  18.4  -4.6  34298  291.90 0854.38
2009/04/23 16:06:35.5      39    277    162    280    323   8.1  32.7  34318  292.24 0854.38
2009/04/23 16:06:35.6      11    271    103    272    290   2.5  21.5  34320  292.30 0854.38
2009/04/23 16:06:35.7      54    304    -39    309    312  10.2  -7.2  34292  291.82 0854.38
2009/04/23 16:06:35.8     146    320    -45    353    356  24.6  -7.3  34314  292.19 0854.38
2009/04/23 16:06:35.9     249    278    -11    374    375  41.8  -1.7  34354  292.87 0854.38
2009/04/23 16:06:36.0     374    310     24    486    487  50.4   2.9  34346  292.72 0854.38
2009/04/23 16:06:36.1     294    335     53    446    450  41.3   6.9  34346  292.74 0854.38
2009/04/23 16:06:36.2     267    393    162    476    503  34.2  18.8  34348  292.77 0854.38
2009/04/23 16:06:36.3     245    443    -83    507    514  29.0  -9.3  34292  291.83 0854.38
2009/04/23 16:06:36.4     299    356    -42    466    468  40.0  -5.2  34290  291.78 0854.38
2009/04/23 16:06:36.5     324    313    -60    451    455  46.0  -7.6  34236  290.87 0854.38
2009/04/23 16:06:36.6     438    255    -19    507    508  59.8  -2.2  34226  290.68 0854.38
2009/04/23 16:06:36.7     565    345    155    663    681  58.6  13.2  34236  290.85 0854.38
2009/04/23 16:06:36.8     453    321    229    556    601  54.6  23.6  34242  290.98 0854.38
2009/04/23 16:06:36.9     228    223    314    320    448  45.6  49.7  34252  291.12 0854.38
2009/04/23 16:06:37.0      57    169    232    179    293  18.7  58.5  34232  290.78 0854.38
2009/04/23 16:06:37.1     -16    211    136    212    251 355.6  35.6  34262  291.29 0854.38
2009/04/23 16:06:37.2     -70    196    150    209    257 340.4  39.3  34250  291.09 0854.38
2009/04/23 16:06:37.3     189     73    194    203    280  68.7  48.7  34208  290.39 0854.36
2009/04/23 16:06:37.4      14    160    244    161    292   5.3  63.6  34258  291.24 0854.36
2009/04/23 16:06:37.5      83    -78    -89    115    145 133.1 -46.1  34236  290.86 0854.36
2009/04/23 16:06:37.6    -199    311   -104    370    385 327.3 -15.8  34158  289.55 0854.36
2009/04/23 16:06:37.7     -65    277    207    285    352 346.7  39.7  34172  289.77 0854.36
2009/04/23 16:06:37.8     -10   -161    180    162    242 183.6  53.3  34206  290.36 0854.36
2009/04/23 16:06:37.9      -2   -106    153    107    186 181.4  61.5  34228  290.74 0854.36
2009/04/23 16:06:38.0     -77   -377    174    385    422 191.6  26.2  34218  290.56 0854.36
2009/04/23 16:06:38.1    -480   -458    101    664    672 226.3   8.7  34202  290.29 0854.36
2009/04/23 16:06:38.2    -648   -607   -176    888    906 226.9 -11.2  34214  290.48 0854.36
2009/04/23 16:06:38.3    -559   -555   -162    788    805 225.2 -11.7  34148  289.37 0854.36
2009/04/23 16:06:38.4    -499   -438   -172    665    687 228.7 -14.5  34110  288.72 0854.36
2009/04/23 16:06:38.5    -339   -446   -154    561    582 217.2 -15.4  34174  289.81 0854.36
2009/04/23 16:06:38.6    -308   -482   -234    573    618 212.6 -27.9  34236  290.85 0854.36
2009/04/23 16:06:38.7     -68   -512    -16    517    518 187.6  -1.8  34182  289.93 0854.36
2009/04/23 16:06:38.8       0   -473    129    474    492 180.0  15.3  34242  290.96 0854.36
2009/04/23 16:06:38.9     -68   -474     84    479    487 188.2  10.0  34252  291.12 0854.36
2009/04/23 16:06:39.0      -7   -318     68    319    327 181.4  12.1  34210  290.42 0854.36
2009/04/23 16:06:39.1       4   -314    170    315    357 179.1  30.7  34220  290.60 0854.36
2009/04/23 16:06:39.2     276   -313     90    418    428 138.6  12.2  34194  290.14 0854.36
2009/04/23 16:06:39.3     220   -309    130    380    402 144.6  18.9  34192  290.10 0854.37
2009/04/23 16:06:39.4     141   -410    159    434    462 161.0  21.0  34174  289.82 0854.37
2009/04/23 16:06:39.5      92   -455    104    465    477 168.5  12.6  34188  290.03 0854.37
2009/04/23 16:06:39.6     143   -460      7    482    483 162.7   0.9  34176  289.83 0854.37
2009/04/23 16:06:39.7      58   -409     73    414    421 171.9  10.1  34182  289.94 0854.37
2009/04/23 16:06:39.8      -7   -431     29    432    433 181.0   3.9  34204  290.31 0854.37
2009/04/23 16:06:39.9     175   -402     71    439    445 156.5   9.2  34192  290.12 0854.37
2009/04/23 16:06:40.0      55   -317    161    322    360 170.0  28.6  34230  290.77 0854.37
2009/04/23 16:06:40.1      -7   -271    156    272    313 181.6  32.4  34234  290.83 0854.37
2009/04/23 16:06:40.2    -142   -367    116    394    411 201.2  16.5  34244  290.99 0854.37
2009/04/23 16:06:40.3     -17   -337     63    338    344 182.9  10.6  34238  290.88 0854.37
2009/04/23 16:06:40.4     -72   -354    -37    362    364 191.6  -5.9  34232  290.81 0854.37
2009/04/23 16:06:40.5     -18   -394    144    395    420 182.7  20.8  34260  291.26 0854.37
2009/04/23 16:06:40.6    -137   -325    230    353    421 203.0  36.0  34258  291.25 0854.37
2009/04/23 16:06:40.7     -61   -298    180    305    354 191.6  33.4  34268  291.39 0854.37
2009/04/23 16:06:40.8    -130   -256    204    288    352 207.0  39.0  34248  291.06 0854.37
2009/04/23 16:06:40.9    -195   -270     86    334    346 215.9  14.5  34174  289.82 0854.37
2009/04/23 16:06:41.0    -138   -289     15    321    322 205.5   2.8  34190  290.07 0854.37
2009/04/23 16:06:41.1    -284   -284    -37    402    404 225.0  -5.3  34124  288.95 0854.37
2009/04/23 16:06:41.2    -291   -291   -139    412    434 225.0 -23.6  34076  288.14 0854.37
2009/04/23 16:06:41.3    -436   -314   -252    538    594 234.3 -31.5  34098  288.53 0854.34
2009/04/23 16:06:41.4    -546   -239   -177    597    622 246.4 -21.5  34128  289.03 0854.34
2009/04/23 16:06:41.5    -294   -395     14    493    494 216.6   1.7  34190  290.08 0854.34
2009/04/23 16:06:41.6    -228   -459      7    513    514 206.4   0.8  34162  289.62 0854.34
2009/04/23 16:06:41.7    -300   -616     34    686    687 206.0   2.9  34202  290.29 0854.34
2009/04/23 16:06:41.8    -127   -736     47    748    750 189.8   3.6  34138  289.19 0854.34
2009/04/23 16:06:41.9    -110   -592    123    603    616 190.6  11.6  34166  289.66 0854.34
2009/04/23 16:06:42.0    -331   -497    -80    598    604 213.7  -7.7  34114  288.78 0854.34
2009/04/23 16:06:42.1    -390   -335    -46    515    518 229.4  -5.2  34120  288.91 0854.34
2009/04/23 16:06:42.2    -446   -321   -153    550    570 234.3 -20.2  34116  288.82 0854.34
2009/04/23 16:06:42.3    -212   -158   -148    265    303 233.2 -35.8  34116  288.81 0854.34
2009/04/23 16:06:42.4    -125   -253   -226    283    362 206.3 -47.1  34120  288.88 0854.34
2009/04/23 16:06:42.5     212   -437    145    486    508 154.1  16.6  34146  289.32 0854.34
2009/04/23 16:06:42.6      47   -396    193    399    443 173.1  27.7  34162  289.60 0854.34
2009/04/23 16:06:42.7      62   -352    189    358    404 170.0  30.2  34208  290.40 0854.34
2009/04/23 16:06:42.8    -149   -423    105    449    462 199.4  13.2  34202  290.29 0854.34
2009/04/23 16:06:42.9    -179   -427    100    464    475 202.7  12.2  34202  290.30 0854.34
2009/04/23 16:06:43.0    -219   -398    125    455    473 208.9  15.4  34180  289.91 0854.34
2009/04/23 16:06:43.1    -196   -283     76    345    354 214.8  12.5  34162  289.62 0854.34
2009/04/23 16:06:43.2    -335   -392    -41    517    519 220.5  -4.6  34192  290.12 0854.34
2009/04/23 16:06:43.3    -449   -270   -137    524    542 239.0 -14.7  34204  290.31 0854.36
2009/04/23 16:06:43.4    -464    -86   -101    472    483 259.4 -12.2  34188  290.06 0854.36
2009/04/23 16:06:43.5    -546   -160    166    570    594 253.6  16.3  34156  289.49 0854.36
2009/04/23 16:06:43.6    -409    -88     82    419    428 257.8  11.1  34132  289.09 0854.36
2009/04/23 16:06:43.7     -92    -69     53    116    127 233.1  26.2  34128  289.02 0854.36
2009/04/23 16:06:43.8     120    -52    136    132    189 113.6  50.7  34158  289.55 0854.36
2009/04/23 16:06:43.9     148   -214     71    261    271 145.3  15.2  34140  289.22 0854.36
2009/04/23 16:06:44.0      49   -299      8    304    305 170.7   1.6  34136  289.17 0854.36
2009/04/23 16:06:44.1      14   -310    -68    311    319 177.3 -12.4  34146  289.32 0854.36
2009/04/23 16:06:44.2      67   -248    -92    257    274 164.9 -19.7  34142  289.27 0854.36
2009/04/23 16:06:44.3      70   -223     -4    234    235 162.4  -1.2  34144  289.31 0854.36
2009/04/23 16:06:44.4      60   -181    120    191    225 161.5  35.5  34132  289.11 0854.36
2009/04/23 16:06:44.5     -66   -119    126    137    186 209.0  47.5  34150  289.40 0854.36
2009/04/23 16:06:44.6     -17    -52    117     55    129 198.7  72.9  34148  289.38 0854.36
2009/04/23 16:06:44.7    -121    -26    155    124    198 257.6  57.5  34170  289.74 0854.36
2009/04/23 16:06:44.8       7    -91    199     92    219 175.5  73.5  34164  289.65 0854.36
2009/04/23 16:06:44.9     -84    -85    206    120    238 224.5  67.2  34172  289.79 0854.36
2009/04/23 16:06:45.0    -209   -208    213    296    364 225.1  39.3  34152  289.45 0854.36
2009/04/23 16:06:45.1    -179   -333    219    379    437 208.3  32.8  34150  289.41 0854.36
2009/04/23 16:06:45.2    -210   -309    262    374    456 214.3  38.5  34142  289.27 0854.36
2009/04/23 16:06:45.3     -66   -354    281    361    457 190.6  41.7  34152  289.43 0854.38
2009/04/23 16:06:45.4      88   -149    208    174    271 149.3  56.1  34160  289.56 0854.38
2009/04/23 16:06:45.5      55   -199    162    207    262 164.4  42.0  34146  289.34 0854.38
2009/04/23 16:06:45.6     -69     83    173    109    204 320.3  64.7  34150  289.41 0854.38
2009/04/23 16:06:45.7      -2    116     78    117    140 358.6  37.0  34158  289.53 0854.38
2009/04/23 16:06:45.8      54     97      6    112    113  29.0   3.3  34152  289.45 0854.38
2009/04/23 16:06:45.9      80    214   -161    229    279  20.5 -43.0  34146  289.34 0854.38
2009/04/23 16:06:46.0     126    241   -204    272    340  27.6 -45.0  34148  289.36 0854.38
2009/04/23 16:06:46.1     166    126   -219    209    302  52.9 -56.0  34148  289.36 0854.38
2009/04/23 16:06:46.2     243     51   -102    249    269  78.1 -27.5  34140  289.22 0854.38
2009/04/23 16:06:46.3     298    -81    -90    309    321 105.3 -21.1  34138  289.20 0854.38
2009/04/23 16:06:46.4     229   -201   -121    306    329 131.3 -27.1  34142  289.25 0854.38
2009/04/23 16:06:46.5     313   -233    -98    391    404 126.6 -14.1  34142  289.26 0854.38
2009/04/23 16:06:46.6     472   -357    -32    593    594 127.1  -3.2  34136  289.15 0854.38
2009/04/23 16:06:46.7     264   -354    -99    442    454 143.3 -12.7  34130  289.07 0854.38
2009/04/23 16:06:46.8     426    107    -56    440    444  75.9  -7.3  34134  289.12 0854.38
2009/04/23 16:06:46.9      86    251    106    266    286  18.9  23.0  34140  289.22 0854.38
2009/04/23 16:06:47.0     307    265    111    406    421  49.2  15.3  34128  289.04 0854.38
2009/04/23 16:06:47.1     293    158     25    334    335  61.6   4.4  34132  289.11 0854.38
2009/04/23 16:06:47.2     535    233     76    584    589  66.5   7.5  34112  288.76 0854.38
2009/04/23 16:06:47.3     947     68    137    950    960  85.9   8.2  34116  288.84 0854.38
2009/04/23 16:06:47.4     681   -196   -441    709    834 106.1 -39.3  34130  289.07 0854.38
2009/04/23 16:06:47.5    1065    -39    -44   1066   1067  92.1  -2.4  34112  288.76 0854.38
2009/04/23 16:06:47.6     714   -364   -313    802    860 117.0 -26.9  34142  289.26 0854.38
2009/04/23 16:06:47.7     801   -306   -260    858    896 111.0 -21.7  34128  289.03 0854.38
2009/04/23 16:06:47.8     512   -277     25    583    584 118.4   2.5  34126  288.98 0854.38
2009/04/23 16:06:47.9     714   -268    208    763    792 110.6  15.3  34116  288.83 0854.38
2009/04/23 16:06:48.0     214    -13    263    215    339  93.5  56.5  34112  288.75 0854.38
2009/04/23 16:06:48.1     224    -56     49    231    237 104.2  12.0  34130  289.07 0854.38
2009/04/23 16:06:48.2     541     91   -184    549    580  80.4 -18.6  34146  289.32 0854.38
2009/04/23 16:06:48.3     308    105   -103    326    341  71.2 -22.8  34158  289.54 0854.38
2009/04/23 16:06:48.4     347    190    -35    396    398  61.2  -5.2  34172  289.77 0854.38
2009/04/23 16:06:48.5     407    364    -24    547    548  48.2  -2.6  34164  289.65 0854.38
2009/04/23 16:06:48.6     494    352     75    607    612  54.5   7.1  34144  289.29 0854.38
2009/04/23 16:06:48.7     664    190    -47    691    693  74.0  -3.9  34152  289.43 0854.38
2009/04/23 16:06:48.8     753    198    -76    779    783  75.2  -5.6  34134  289.13 0854.38
2009/04/23 16:06:48.9     567    298      9    641    642  62.2   0.8  34130  289.06 0854.38
2009/04/23 16:06:49.0     695    414    121    810    820  59.2   8.5  34128  289.04 0854.38
2009/04/23 16:06:49.1     740    392    245    838    874  62.1  16.3  34130  289.07 0854.38
2009/04/23 16:06:49.2     705    362    291    793    844  62.8  21.1  34126  288.98 0854.38
2009/04/23 16:06:49.3     660    190    -61    687    690  73.9  -5.1  34156  289.49 0854.37
2009/04/23 16:06:49.4     802    350    130    876    886  66.4   8.5  34138  289.20 0854.37
2009/04/23 16:06:49.5     905    333   -178    965    982  69.8 -10.5  34146  289.35 0854.37
2009/04/23 16:06:49.6     687    337    148    766    781  63.9  11.0  34128  289.02 0854.37
2009/04/23 16:06:49.7     770    371    199    855    878  64.2  13.1  34140  289.23 0854.37
2009/04/23 16:06:49.8     611    346    169    703    724  60.5  13.6  34140  289.22 0854.37
2009/04/23 16:06:49.9     563    341    146    659    676  58.8  12.5  34128  289.04 0854.37
2009/04/23 16:06:50.0     452    307    175    547    575  55.8  17.8  34142  289.26 0854.37
2009/04/23 16:06:50.1     530    472     75    711    716  48.3   6.1  34150  289.39 0854.37
2009/04/23 16:06:50.2     498    492     35    701    702  45.4   2.9  34212  290.47 0854.37
2009/04/23 16:06:50.3     465    472    101    663    671  44.6   8.7  34208  290.39 0854.37
2009/04/23 16:06:50.4     527    445     86    691    697  49.8   7.1  34260  291.28 0854.37
2009/04/23 16:06:50.5     437    362    219    568    608  50.4  22.2  34282  291.66 0854.37
2009/04/23 16:06:50.6     528    371    109    646    656  54.9   9.6  34224  290.67 0854.37
2009/04/23 16:06:50.7     415    404    228    580    623  45.8  22.5  34256  291.21 0854.37
2009/04/23 16:06:50.8     636    360    247    732    773  60.5  18.7  34260  291.26 0854.37
2009/04/23 16:06:50.9     793    327    162    858    874  67.6  10.7  34184  289.99 0854.37
2009/04/23 16:06:51.0     515    427    262    670    719  50.3  22.4  34266  291.37 0854.37
2009/04/23 16:06:51.1     602    312    103    678    686  62.6   8.7  34140  289.22 0854.37
2009/04/23 16:06:51.2     507    231    196    558    592  65.5  19.4  34130  289.07 0854.37
2009/04/23 16:06:51.3     777    395    178    872    891  63.0  11.6  34132  289.10 0854.38
2009/04/23 16:06:51.4     757    407    155    860    874  61.7  10.2  34192  290.10 0854.38
2009/04/23 16:06:51.5     766    405    224    867    896  62.1  14.5  34190  290.08 0854.38
2009/04/23 16:06:51.6     753    375    281    842    888  63.5  18.5  34248  291.06 0854.38
2009/04/23 16:06:51.7     833    352    315    905    959  67.1  19.2  34182  289.93 0854.38
2009/04/23 16:06:51.8     851    340    350    917    981  68.2  22.0  34176  289.84 0854.38
2009/04/23 16:06:51.9     810    359    511    887   1023  66.1  32.6  34168  289.70 0854.38
2009/04/23 16:06:52.0     880    195    457    902   1011  77.5  28.9  34178  289.86 0854.38
2009/04/23 16:06:52.1     762     50    340    764    836  86.2  25.6  34212  290.47 0854.38
2009/04/23 16:06:52.2     677     84    514    683    854  82.9  40.7  34208  290.39 0854.40
2009/04/23 16:06:52.3     578     89    523    585    784  81.2  46.4  34246  291.03 0854.40
2009/04/23 16:06:52.4     749     98    418    756    863  82.5  31.4  34222  290.62 0854.40
2009/04/23 16:06:52.5     576      8    343    577    671  89.2  33.5  34272  291.47 0854.40
2009/04/23 16:06:52.6     635      9    428    636    766  89.1  37.2  34254  291.18 0854.40
2009/04/23 16:06:52.7     671    100    241    679    720  81.5  20.3  34214  290.50 0854.40
2009/04/23 16:06:52.8     619    219    252    657    703  70.5  22.1  34168  289.70 0854.40
2009/04/23 16:06:52.9     311   -206    316    374    489 123.6  44.5  34214  290.48 0854.40
2009/04/23 16:06:53.0     329   -214    239    393    459 123.1  34.3  34208  290.39 0854.40
2009/04/23 16:06:53.1     353   -110    175    370    409 107.3  27.1  34224  290.67 0854.40
2009/04/23 16:06:53.3     294   -222    211    369    425 127.0  32.4  34170  289.75 0854.40
2009/04/23 16:06:53.4     276   -249    248    372    447 132.1  36.7  34166  289.68 0854.40
2009/04/23 16:06:53.5     201   -243    253    316    404 140.3  42.8  34172  289.79 0854.40
2009/04/23 16:06:53.6     183   -292    249    345    425 147.9  39.5  34162  289.62 0854.40
2009/04/23 16:06:53.7     259   -316    172    409    443 140.6  24.2  34174  289.82 0854.40
2009/04/23 16:06:53.8     210   -355    285    413    501 149.4  38.0  34166  289.69 0854.40
2009/04/23 16:06:53.9     424   -305    280    523    593 125.7  30.3  34172  289.78 0854.40
2009/04/23 16:06:54.0     489   -268    330    558    648 118.8  33.4  34194  290.15 0854.40
2009/04/23 16:06:54.1     474   -253    338    538    635 118.1  35.1  34190  290.08 0854.40
2009/04/23 16:06:54.2     393   -339    335    520    618 130.8  35.6  34158  289.54 0854.40
2009/04/23 16:06:54.3     265   -403    387    483    618 146.7  42.8  34166  289.66 0854.40
2009/04/23 16:06:54.4     152   -386    430    416    598 158.4  51.2  34182  289.94 0854.40
2009/04/23 16:06:54.5      72   -362    301    370    476 168.7  43.3  34168  289.70 0854.40
2009/04/23 16:06:54.6     158   -318    244    356    431 153.5  37.7  34172  289.78 0854.40
2009/04/23 16:06:54.7     198   -197    287    280    400 134.9  50.7  34210  290.42 0854.40
2009/04/23 16:06:54.8     257   -451    371    520    638 150.3  39.1  34196  290.17 0854.40
2009/04/23 16:06:54.9     122   -533    326    547    636 167.1  33.6  34222  290.63 0854.40
2009/04/23 16:06:55.0     -55   -611    182    614    641 185.2  16.5  34198  290.21 0854.40
2009/04/23 16:06:55.1     -83   -528    170    535    562 189.0  17.7  34234  290.82 0854.40
2009/04/23 16:06:55.2      21   -519    338    520    620 177.7  36.0  34204  290.32 0854.40
2009/04/23 16:06:55.3     -63   -350    215    356    415 190.3  34.0  34202  290.28 0854.40
2009/04/23 16:06:55.4    -166   -220    168    276    323 217.0  34.3  34202  290.27 0854.40
2009/04/23 16:06:55.5     -95   -393    110    405    420 193.6  15.2  34218  290.56 0854.40
2009/04/23 16:06:55.6      34   -399    248    401    471 175.0  34.5  34216  290.51 0854.40
2009/04/23 16:06:55.7    -106   -382    321    397    510 195.5  43.1  34202  290.29 0854.40
2009/04/23 16:06:55.8     115   -157    210    196    287 143.7  52.2  34202  290.27 0854.40
2009/04/23 16:06:55.9      32   -118    147    123    191 164.9  56.1  34200  290.26 0854.40
2009/04/23 16:06:56.0     -23     -7    177     25    178 251.6  90.0  34228  290.72 0854.40
2009/04/23 16:06:56.1     -37     40    115     55    127 316.8  72.9  34242  290.98 0854.40
2009/04/23 16:06:56.2    -104    -94     56    141    151 227.8  23.0  34204  290.33 0854.40
2009/04/23 16:06:56.3    -123    -30     51    127    136 256.3  23.0  34186  290.01 0854.40
2009/04/23 16:06:56.4     -51    -80     58     95    111 212.6  35.0  34198  290.21 0854.40
2009/04/23 16:06:56.5     -39    -72     77     83    113 208.5  48.0  34220  290.60 0854.40
2009/04/23 16:06:56.6     -49   -104     53    116    127 205.3  26.2  34214  290.50 0854.40
2009/04/23 16:06:56.7    -209   -142    147    253    292 235.8  32.9  34236  290.85 0854.40
2009/04/23 16:06:56.8    -134     -8    263    135    295 266.5  70.8  34242  290.95 0854.40
2009/04/23 16:06:56.9    -170    -50    164    178    242 253.6  47.7  34228  290.74 0854.40
2009/04/23 16:06:57.0    -103   -226    247    249    350 204.5  50.0  34238  290.90 0854.40
2009/04/23 16:06:57.1    -150   -236    202    280    345 212.5  39.5  34240  290.92 0854.40
2009/04/23 16:06:57.2    -160   -242    148    291    326 213.4  29.1  34226  290.70 0854.40
2009/04/23 16:06:57.3    -176   -182    161    254    300 223.9  35.5  34234  290.82 0854.40
2009/04/23 16:06:57.4    -244   -241    150    344    375 225.4  25.1  34214  290.50 0854.40
2009/04/23 16:06:57.5    -247    -81     92    260    275 251.8  20.2  34220  290.59 0854.40
2009/04/23 16:06:57.6    -195   -100     77    220    234 242.7  19.4  34230  290.77 0854.40
2009/04/23 16:06:57.7    -132   -132    124    188    225 225.0  36.3  34214  290.50 0854.40
2009/04/23 16:06:57.8    -107   -128    159    168    231 219.9  48.2  34228  290.72 0854.40
2009/04/23 16:06:57.9    -111    -32    104    116    155 253.6  46.9  34258  291.25 0854.40
2009/04/23 16:06:58.0    -108     67     80    128    150 302.0  35.5  34240  290.94 0854.40
2009/04/23 16:06:58.1    -133     73     77    152    170 298.8  28.7  34228  290.74 0854.40
2009/04/23 16:06:58.2    -174     18     61    175    186 276.1  19.2  34226  290.70 0854.40
2009/04/23 16:06:58.3     112     84    125    141    188  53.1  46.4  34262  291.30 0854.40
2009/04/23 16:06:58.4     201    128    199    239    311  57.6  43.8  34290  291.77 0854.40
2009/04/23 16:06:58.5     126     64    144    142    202  62.9  50.1  34278  291.59 0854.40
2009/04/23 16:06:58.6      32     30    107     45    116  46.9  76.1  34302  291.98 0854.40
2009/04/23 16:06:58.7     -13     56    142     58    153 346.6  77.0  34294  291.84 0854.40
2009/04/23 16:06:58.8     -87     26    122     91    152 286.8  60.0  34286  291.71 0854.40
2009/04/23 16:06:58.9      89     15     72     91    116  80.3  42.7  34306  292.06 0854.40
2009/04/23 16:06:59.0      24    -27     65     37     74 138.6  67.7  34310  292.12 0854.40
2009/04/23 16:06:59.1      30    -12     42     33     53 111.7  56.4  34312  292.17 0854.40
2009/04/23 16:06:59.2     138     -3    133    139    192  91.3  49.0  34314  292.20 0854.40
2009/04/23 16:06:59.3     188    -29    129    191    230  98.8  37.4  34296  291.89 0854.40
2009/04/23 16:06:59.4     149    -27    106    152    185 100.6  38.4  34280  291.62 0854.40
2009/04/23 16:06:59.5      94     13    108     95    143  82.1  54.2  34288  291.74 0854.40
2009/04/23 16:06:59.6     204     43     85    209    225  78.1  23.1  34280  291.60 0854.40
2009/04/23 16:06:59.7     159     22     99    161    189  82.0  35.0  34290  291.79 0854.40
2009/04/23 16:06:59.8      88     30     96     94    134  70.9  50.1  34292  291.81 0854.40
2009/04/23 16:06:59.9      70     24     56     75     93  70.9  40.7  34306  292.06 0854.40
2009/04/23 16:07:00.0      55     22     61     60     85  68.3  49.7  34304  292.03 0854.40
2009/04/23 16:07:00.1     107     44     70    116    135  67.4  34.4  34312  292.15 0854.40
2009/04/23 16:07:00.2       1    -16    105     17    106 175.5  90.0  34322  292.34 0854.40
2009/04/23 16:07:00.3    -111   -124     70    167    181 221.9  23.8  34310  292.12 0854.40
2009/04/23 16:07:00.4     -58     57     55     82     98 314.4  37.0  34310  292.12 0854.40
2009/04/23 16:07:00.5      39    117     62    124    138  18.7  28.7  34278  291.57 0854.40
2009/04/23 16:07:00.6     -68    -25    -14     73     75 250.0 -11.5  34266  291.37 0854.40
2009/04/23 16:07:00.7     -73    -92     93    118    150 218.7  42.7  34286  291.72 0854.40
2009/04/23 16:07:00.8      22    -67     88     71    113 161.7  56.4  34248  291.06 0854.40
2009/04/23 16:07:00.9     -13     -8     75     16     76 237.6  89.0  34246  291.03 0854.40
2009/04/23 16:07:01.0     109    -12    147    110    183  96.6  59.8  34236  290.86 0854.40
2009/04/23 16:07:01.1      16     25    139     30    142  32.5  89.0  34246  291.04 0854.40
2009/04/23 16:07:01.2      88    129     54    157    167  34.3  19.2  34234  290.84 0854.40
2009/04/23 16:07:01.3      24    142     52    145    154   9.8  20.0  34234  290.82 0854.40
2009/04/23 16:07:01.4      50    141     21    150    152  19.6   8.0  34234  290.84 0854.40
2009/04/23 16:07:01.5       8    106    -13    107    108   4.5  -7.3  34228  290.74 0854.40
2009/04/23 16:07:01.6      -5     71     33     72     79 355.5  25.7  34226  290.70 0854.40
2009/04/23 16:07:01.7      25     51     32     57     65  26.3  31.4  34222  290.62 0854.40
2009/04/23 16:07:01.8       1     59      5     60     61   1.8   4.9  34228  290.74 0854.40
2009/04/23 16:07:01.9     -37     77    -24     86     89 334.1 -20.7  34230  290.77 0854.40
2009/04/23 16:07:02.0      -1     77     22     78     82 359.1  15.8  34230  290.77 0854.40
2009/04/23 16:07:02.1      38     85     58     94    110  24.5  35.5  34228  290.72 0854.40
2009/04/23 16:07:02.2      20     72     99     75    124  16.0  59.0  34230  290.77 0854.40
2009/04/23 16:07:02.3     -63     62     74     89    115 314.6  43.8  34232  290.79 0854.41
2009/04/23 16:07:02.4     -45     35     83     58    101 307.8  61.5  34228  290.74 0854.41
2009/04/23 16:07:02.5       3     30     72     31     78   6.2  76.1  34226  290.69 0854.41
2009/04/23 16:07:02.6      37     12     80     39     89  71.8  72.8  34222  290.62 0854.41
2009/04/23 16:07:02.7     -85   -110    138    140    196 217.8  49.9  34194  290.16 0854.41
2009/04/23 16:07:02.8    -123   -156    124    199    234 218.3  35.5  34206  290.35 0854.41
2009/04/23 16:07:02.9    -140   -140     83    198    214 225.0  23.8  34198  290.23 0854.41
2009/04/23 16:07:03.0    -138   -140     76    197    211 224.5  22.0  34200  290.26 0854.41
2009/04/23 16:07:03.1    -165   -112     17    200    201 235.8   5.0  34202  290.28 0854.41
2009/04/23 16:07:03.2    -177   -101     90    204    222 240.2  25.2  34214  290.48 0854.41
2009/04/23 16:07:03.3    -161   -151     21    222    224 226.8   5.4  34204  290.33 0854.41
2009/04/23 16:07:03.4    -167   -222    -30    278    280 217.0  -6.2  34176  289.85 0854.41
2009/04/23 16:07:03.5    -187   -239    -17    304    305 218.1  -3.3  34168  289.70 0854.41
2009/04/23 16:07:03.6    -152   -296    -43    333    336 207.2  -7.5  34178  289.89 0854.41
2009/04/23 16:07:03.7     -82   -337    -34    348    350 193.8  -5.6  34164  289.65 0854.41
2009/04/23 16:07:03.8       3   -335     44    336    339 179.4   7.5  34182  289.96 0854.41
2009/04/23 16:07:03.9      30   -303     59    305    311 174.2  11.0  34178  289.86 0854.41
2009/04/23 16:07:04.0     132   -273    205    304    366 154.1  37.3  34172  289.77 0854.41
2009/04/23 16:07:04.1      97   -358     74    372    380 164.8  11.3  34162  289.62 0854.41
2009/04/23 16:07:04.2      96   -336    101    350    365 164.0  16.1  34170  289.74 0854.41
2009/04/23 16:07:04.3       9   -309    101    310    327 178.2  18.1  34170  289.73 0854.43
2009/04/23 16:07:04.4      62   -306     79    313    323 168.5  14.2  34162  289.59 0854.43
2009/04/23 16:07:04.5      62   -376     15    382    383 170.6   2.3  34164  289.64 0854.43
2009/04/23 16:07:04.6       8   -259    -66    260    269 178.2 -14.3  34162  289.59 0854.43
2009/04/23 16:07:04.7     -30   -388    -42    390    393 184.5  -6.2  34150  289.40 0854.43
2009/04/23 16:07:04.8     -37   -475     23    477    478 184.5   2.8  34152  289.45 0854.43
2009/04/23 16:07:04.9    -101   -395     55    408    412 194.4   7.8  34158  289.53 0854.43
2009/04/23 16:07:05.0     -51   -398     29    402    404 187.4   4.2  34158  289.53 0854.43
2009/04/23 16:07:05.1      12   -359     47    360    364 178.0   7.4  34158  289.54 0854.43
2009/04/23 16:07:05.2      74   -381     25    389    390 168.9   3.7  34160  289.57 0854.43
2009/04/23 16:07:05.3      26   -352     61    353    359 175.8   9.9  34162  289.60 0854.43
2009/04/23 16:07:05.4      -5   -300    106    301    320 181.0  19.4  34176  289.83 0854.43
2009/04/23 16:07:05.5     -13   -305    110    306    325 182.5  20.6  34150  289.39 0854.43
2009/04/23 16:07:05.6     -23   -279     88    281    295 184.9  17.4  34154  289.46 0854.43
2009/04/23 16:07:05.7     -88   -295     60    309    315 196.7  11.1  34150  289.39 0854.43
2009/04/23 16:07:05.8    -134   -243     25    278    280 208.9   5.2  34152  289.42 0854.43
2009/04/23 16:07:05.9     -80   -233     34    247    250 199.1   8.0  34152  289.42 0854.43
2009/04/23 16:07:06.0    -126   -260    -16    289    290 205.9  -3.3  34148  289.37 0854.43
2009/04/23 16:07:06.1    -152   -319    105    354    370 205.5  16.6  34164  289.65 0854.43
2009/04/23 16:07:06.2    -276   -437    -20    517    518 212.3  -2.2  34166  289.69 0854.43
2009/04/23 16:07:06.3    -295   -248    -96    386    398 230.0 -14.1  34160  289.57 0854.42
2009/04/23 16:07:06.4    -339    -68    -15    346    347 258.6  -2.6  34170  289.74 0854.42
2009/04/23 16:07:06.5    -517    -95    180    526    557 259.5  18.9  34190  290.09 0854.42
2009/04/23 16:07:06.6    -387   -159    229    419    477 247.7  31.3  34166  289.68 0854.42
2009/04/23 16:07:06.7    -186   -180    110    260    282 226.0  24.2  34166  289.68 0854.42
2009/04/23 16:07:06.8    -171    -44    125    177    216 255.6  38.8  34174  289.80 0854.42
2009/04/23 16:07:06.9    -215     58    151    223    269 285.3  37.4  34178  289.86 0854.42
2009/04/23 16:07:07.0    -330     87     26    342    344 284.8   4.5  34170  289.74 0854.42
2009/04/23 16:07:07.1    -253     97    124    272    298 291.1  26.2  34164  289.64 0854.42
2009/04/23 16:07:07.2    -164     66    -20    177    179 292.0  -6.7  34180  289.92 0854.42
2009/04/23 16:07:07.3    -156      2     41    157    163 270.9  14.7  34188  290.06 0854.42
2009/04/23 16:07:07.4    -153    -72     31    170    173 244.6  10.3  34180  289.92 0854.42
2009/04/23 16:07:07.5    -152   -114    -24    190    192 233.1  -7.2  34188  290.06 0854.42
2009/04/23 16:07:07.6    -121    -44    -53    129    139 250.0 -27.5  34186  290.02 0854.42
2009/04/23 16:07:07.7    -131    108    -51    171    179 309.5 -16.8  34194  290.14 0854.42
2009/04/23 16:07:07.8    -154    -38   -122    159    200 255.8 -46.0  34204  290.31 0854.42
2009/04/23 16:07:07.9    -179   -103    -64    207    217 240.0 -17.3  34184  289.97 0854.42
2009/04/23 16:07:08.0    -102   -123    -41    160    166 219.6 -14.5  34180  289.91 0854.42
2009/04/23 16:07:08.1    -107   -143     -6    179    180 216.7  -2.1  34174  289.82 0854.42
2009/04/23 16:07:08.2     -83   -163    -48    183    190 207.0 -14.7  34174  289.82 0854.42
2009/04/23 16:07:08.3       4   -199    -69    200    211 178.6 -23.6  34170  289.75 0854.43
2009/04/23 16:07:08.4     -51   -251    -66    257    266 191.5 -14.5  34170  289.75 0854.43
2009/04/23 16:07:08.5       3   -148    -52    149    159 178.6 -19.4  34168  289.70 0854.43
2009/04/23 16:07:08.6     -40   -102    -63    110    126 201.8 -36.8  34176  289.85 0854.43
2009/04/23 16:07:08.7     -28    -94    -95     99    137 196.5 -52.9  34180  289.91 0854.43
2009/04/23 16:07:08.8    -101    -23    -91    104    138 257.2 -50.2  34176  289.84 0854.43
2009/04/23 16:07:08.9    -248     38    -65    251    260 278.8 -14.5  34168  289.70 0854.43
2009/04/23 16:07:09.0    -277     -4    -80    278    290 269.1 -16.0  34174  289.81 0854.43
2009/04/23 16:07:09.1    -227   -159      3    278    279 234.9   0.7  34168  289.71 0854.43
2009/04/23 16:07:09.2     -72   -174      9    189    190 202.7   2.8  34172  289.77 0854.43
2009/04/23 16:07:09.3      37   -264     33    267    270 172.0   7.2  34166  289.66 0854.43
2009/04/23 16:07:09.4      81   -300    -21    311    312 164.8  -4.0  34162  289.59 0854.43
2009/04/23 16:07:09.5      76   -367    112    375    392 168.2  16.6  34162  289.60 0854.43
2009/04/23 16:07:09.6      43   -343     81    346    356 172.8  13.3  34162  289.60 0854.43
2009/04/23 16:07:09.7      43   -305    107    309    328 172.0  19.2  34158  289.54 0854.43
2009/04/23 16:07:09.8      13   -282    208    283    351 177.3  39.8  34164  289.65 0854.43
2009/04/23 16:07:09.9      -5   -306    191    307    361 181.0  35.0  34164  289.65 0854.43
2009/04/23 16:07:10.0     -14   -298    206    299    363 182.7  37.9  34194  290.16 0854.43
2009/04/23 16:07:10.1     -57   -395    211    400    452 188.3  30.1  34178  289.88 0854.43
2009/04/23 16:07:10.2     -14   -479    164    480    508 181.8  18.9  34208  290.40 0854.43
2009/04/23 16:07:10.3      75   -538    123    544    558 172.0  12.8  34178  289.89 0854.38
2009/04/23 16:07:10.4       9   -493    103    494    505 178.9  11.8  34162  289.62 0854.38
2009/04/23 16:07:10.5     -20   -401    208    402    452 182.9  29.4  34198  290.21 0854.38
2009/04/23 16:07:10.6      42   -342    190    345    393 172.9  31.3  34186  290.01 0854.38
2009/04/23 16:07:10.7      80   -570    173    576    602 172.0  16.8  34182  289.93 0854.38
2009/04/23 16:07:10.8      59   -566    138    570    587 174.0  13.7  34176  289.83 0854.38
2009/04/23 16:07:10.9      46   -462    145    465    488 174.2  17.3  34162  289.61 0854.38
2009/04/23 16:07:11.0     178   -414    190    451    489 156.7  24.2  34168  289.71 0854.38
2009/04/23 16:07:11.1     284   -511    153    585    605 150.9  14.7  34154  289.47 0854.38
2009/04/23 16:07:11.2     227   -412    179    471    503 151.1  21.8  34142  289.25 0854.38
2009/04/23 16:07:11.3     169   -373    130    410    431 155.6  17.7  34140  289.22 0854.38
2009/04/23 16:07:11.4      51   -371     81    375    384 172.1  12.3  34154  289.48 0854.38
2009/04/23 16:07:11.5       0   -391    102    392    406 180.0  14.6  34164  289.65 0854.38
2009/04/23 16:07:11.6    -121   -508    264    523    585 193.4  28.8  34180  289.92 0854.38
2009/04/23 16:07:11.7     -46   -536    238    539    589 185.0  25.2  34160  289.56 0854.38
2009/04/23 16:07:11.8      -7   -541    188    542    574 180.8  19.2  34160  289.58 0854.38
2009/04/23 16:07:11.9     -72   -501    320    507    599 188.2  35.5  34156  289.52 0854.38
2009/04/23 16:07:12.0     -10   -578    118    579    592 181.0  11.6  34162  289.59 0854.38
2009/04/23 16:07:12.1       9   -475     20    476    477 178.9   2.5  34154  289.47 0854.38
2009/04/23 16:07:12.2     -37   -361     56    363    368 185.9   8.9  34162  289.60 0854.38
2009/04/23 16:07:12.3    -254   -343   -152    427    454 216.5 -19.6  34174  289.82 0854.32
2009/04/23 16:07:12.4    -167   -295     -2    340    341 209.5  -0.4  34166  289.67 0854.32
2009/04/23 16:07:12.5    -207   -495    -43    537    539 202.7  -4.6  34168  289.70 0854.32
2009/04/23 16:07:12.6    -252   -472    -67    536    541 208.1  -7.2  34170  289.74 0854.32
2009/04/23 16:07:12.7    -230   -309    -70    386    393 216.7 -10.4  34180  289.91 0854.32
2009/04/23 16:07:12.8    -158   -173    -74    235    246 222.3 -22.8  34176  289.85 0854.32
2009/04/23 16:07:12.9    -286      4   -142    287    320 270.9 -32.6  34178  289.88 0854.32
2009/04/23 16:07:13.0    -100     92   -121    137    182 312.7 -50.8  34184  289.99 0854.32
2009/04/23 16:07:13.1    -157    207    -37    261    264 322.8  -8.2  34184  289.98 0854.32
2009/04/23 16:07:13.2     -45    170     65    176    187 345.1  21.0  34194  290.14 0854.32
2009/04/23 16:07:13.3      12    117    101    118    155   6.2  44.8  34190  290.08 0854.31
2009/04/23 16:07:13.4     -27     68     92     74    118 338.2  56.4  34190  290.08 0854.31
2009/04/23 16:07:13.5    -118     52     43    130    137 294.0  18.4  34188  290.04 0854.31
2009/04/23 16:07:13.6    -156     35    -32    160    164 282.8 -11.6  34186  290.01 0854.31
2009/04/23 16:07:13.7     -88     58     53    106    118 303.7  28.2  34184  289.99 0854.31
2009/04/23 16:07:13.8     -50     13    162     52    170 285.1  81.2  34200  290.26 0854.31
2009/04/23 16:07:13.9     -24    -87    174     91    196 195.6  70.6  34196  290.18 0854.31
2009/04/23 16:07:14.0      26   -243    202    245    317 173.8  43.6  34178  289.88 0854.31
2009/04/23 16:07:14.1      69   -250     26    260    262 164.6   5.9  34178  289.86 0854.31
2009/04/23 16:07:14.2     160    -76    -44    178    184 115.5 -13.9  34174  289.82 0854.31
2009/04/23 16:07:14.3      95    -92    -98    133    165 134.0 -44.3  34174  289.80 0854.31
2009/04/23 16:07:14.4     131     57    -79    143    163  66.5 -36.0  34170  289.75 0854.31
2009/04/23 16:07:14.5     165    110    -86    199    216  56.3 -29.3  34170  289.74 0854.31
2009/04/23 16:07:14.6      73    199    -11    213    214  20.3  -3.2  34170  289.74 0854.31
2009/04/23 16:07:14.7      19    256     55    257    263   4.4  12.2  34172  289.78 0854.31
2009/04/23 16:07:14.8      34    315     85    317    329   6.2  15.0  34166  289.66 0854.31
2009/04/23 16:07:14.9      84    324    161    335    371  14.6  27.4  34166  289.69 0854.31
2009/04/23 16:07:15.0     -10    342     73    343    351 358.2  12.1  34178  289.86 0854.31
2009/04/23 16:07:15.1      11    300     50    301    306   2.2   9.5  34174  289.80 0854.31
2009/04/23 16:07:15.2     -30    322     32    324    326 354.7   5.7  34178  289.86 0854.31
2009/04/23 16:07:15.3      -8    269    -36    270    273 358.2  -7.7  34178  289.88 0854.32
2009/04/23 16:07:15.4      17    209     10    210    211   4.7   2.9  34172  289.79 0854.32
2009/04/23 16:07:15.5      54    139     33    150    154  21.4  12.6  34170  289.75 0854.32
2009/04/23 16:07:15.6     161     90     36    185    189  60.7  11.1  34170  289.74 0854.32
2009/04/23 16:07:15.7     150     71    177    167    243  64.7  51.6  34164  289.63 0854.32
2009/04/23 16:07:15.8       0   -100    158    101    187 180.0  64.6  34186  290.02 0854.32
2009/04/23 16:07:15.9     187   -155     62    243    251 129.6  14.5  34170  289.73 0854.32
2009/04/23 16:07:16.0     151    -16    136    152    203  96.2  46.4  34162  289.62 0854.32
2009/04/23 16:07:16.1     -30    -99    150    104    182 196.9  62.1  34166  289.67 0854.32
2009/04/23 16:07:16.2     -13   -168    295    169    339 184.7  67.6  34162  289.59 0854.32
2009/04/23 16:07:16.3     110    -17    264    112    286  98.8  75.9  34172  289.78 0854.32
2009/04/23 16:07:16.4     342   -106    317    359    478 107.3  45.9  34168  289.70 0854.32
2009/04/23 16:07:16.5     376    -58    225    381    442  98.9  33.4  34164  289.63 0854.32
2009/04/23 16:07:16.6     393   -347    206    525    563 131.4  22.5  34156  289.51 0854.32
2009/04/23 16:07:16.7     415   -232    167    476    505 119.2  19.4  34156  289.49 0854.32
2009/04/23 16:07:16.8     281   -246    181    374    415 131.3  27.8  34162  289.60 0854.32
2009/04/23 16:07:16.9     346   -424    201    548    583 140.8  21.0  34150  289.41 0854.32
2009/04/23 16:07:17.0     260   -279    138    382    407 137.0  19.9  34154  289.47 0854.32
2009/04/23 16:07:17.1     116   -242    112    269    291 154.4  24.1  34156  289.49 0854.32
2009/04/23 16:07:17.2      93   -130    269    160    312 144.4  66.5  34166  289.68 0854.32
2009/04/23 16:07:17.3    -140   -246    268    284    390 209.6  48.0  34158  289.55 0854.32
2009/04/23 16:07:17.4    -138   -270    216    304    372 207.2  39.1  34152  289.45 0854.32
2009/04/23 16:07:17.5      76   -177    179    193    263 156.6  47.9  34168  289.70 0854.32
2009/04/23 16:07:17.6     124   -233    172    265    315 151.9  36.2  34154  289.47 0854.32
2009/04/23 16:07:17.7     -83   -275    263    288    390 196.9  47.1  34152  289.43 0854.32
2009/04/23 16:07:17.8     -98   -245    272    264    379 201.8  50.9  34154  289.48 0854.32
2009/04/23 16:07:17.9      -6    -50     98     51    110 187.1  70.8  34166  289.67 0854.32
2009/04/23 16:07:18.0      84   -192     99    210    232 156.4  27.1  34148  289.38 0854.32
2009/04/23 16:07:18.1     104   -218    220    242    327 154.5  47.0  34166  289.68 0854.32
2009/04/23 16:07:18.2      93    -40    172    102    199 113.5  66.8  34188  290.04 0854.32
2009/04/23 16:07:18.3      68   -192    203    204    287 160.4  50.0  34174  289.80 0854.32
2009/04/23 16:07:18.4      40   -323    288    326    434 172.8  45.9  34166  289.66 0854.32
2009/04/23 16:07:18.5     -54    -81    229     98    249 213.8  75.5  34194  290.16 0854.32
2009/04/23 16:07:18.6     -48   -269    272    274    386 190.2  50.0  34198  290.23 0854.32
2009/04/23 16:07:18.7     -58   -250    114    257    281 193.1  25.2  34196  290.17 0854.32
2009/04/23 16:07:18.8    -135    -69    -52    152    161 242.9 -18.9  34188  290.04 0854.32
2009/04/23 16:07:18.9    -273     67    148    282    318 283.9  30.0  34194  290.14 0854.32
2009/04/23 16:07:19.0    -345     -4    147    346    375 269.3  24.3  34194  290.15 0854.32
2009/04/23 16:07:19.1    -521     30    -81    522    529 273.4  -8.8  34152  289.43 0854.32
2009/04/23 16:07:19.2    -422    215    -81    474    482 297.0  -9.8  34140  289.22 0854.31
2009/04/23 16:07:19.3    -639    108   -265    649    701 279.6 -27.9  34128  289.02 0854.31
2009/04/23 16:07:19.4    -567   -133   -113    583    594 256.8 -11.0  34166  289.66 0854.31
2009/04/23 16:07:19.5    -555    -34    -94    557    565 266.5  -9.6  34154  289.46 0854.31
2009/04/23 16:07:19.6    -606     41   -157    608    628 273.9 -14.5  34164  289.64 0854.31
2009/04/23 16:07:19.7    -702   -100   -169    710    730 261.9 -13.4  34160  289.57 0854.31
2009/04/23 16:07:19.8    -471     54     -7    475    476 276.6  -0.9  34168  289.71 0854.31
2009/04/23 16:07:19.9    -388    -50    136    392    416 262.6  19.2  34170  289.73 0854.31
2009/04/23 16:07:20.0    -406    -43     11    409    410 263.9   1.6  34166  289.68 0854.31
2009/04/23 16:07:20.1    -472      0     31    473    475 270.0   3.8  34178  289.88 0854.31
2009/04/23 16:07:20.2    -508   -211    -50    551    554 247.4  -5.2  34134  289.13 0854.31
2009/04/23 16:07:20.3    -445   -128     94    464    474 254.0  11.6  34142  289.28 0854.31
2009/04/23 16:07:20.4    -302    -32     77    304    314 263.9  14.3  34140  289.22 0854.31
2009/04/23 16:07:20.5    -197     47     88    203    221 283.5  24.9  34168  289.70 0854.31
2009/04/23 16:07:20.6    -377    157    109    409    424 292.6  15.0  34186  290.02 0854.31
2009/04/23 16:07:20.8    -143    357     12    385    386 338.1   1.9  34182  289.94 0854.31
2009/04/23 16:07:20.9    -208    235     61    315    321 318.5  11.0  34178  289.86 0854.31
2009/04/23 16:07:21.0    -149    233    -82    277    290 327.3 -16.6  34180  289.92 0854.31
2009/04/23 16:07:21.1     -15    153     42    154    160 354.2  15.3  34188  290.06 0854.31
2009/04/23 16:07:21.2      80    163    111    182    213  26.1  34.4  34194  290.16 0854.31
2009/04/23 16:07:21.3     -48    180    174    187    255 344.9  47.9  34190  290.09 0854.30
2009/04/23 16:07:21.4    -100    250    223    270    350 338.1  43.7  34200  290.24 0854.30
2009/04/23 16:07:21.5     -13    334     70    335    343 357.8  11.8  34198  290.21 0854.30
2009/04/23 16:07:21.6      30    388     -7    390    391   4.5  -1.2  34188  290.03 0854.30
2009/04/23 16:07:21.7     152    169    180    228    290  41.9  42.4  34166  289.68 0854.30
2009/04/23 16:07:21.8     220    140    157    261    304  57.5  34.0  34182  289.95 0854.30
2009/04/23 16:07:21.9     158    -32    105    162    193 101.5  35.6  34180  289.92 0854.30
2009/04/23 16:07:22.0      33    -23     94     41    102 124.2  75.5  34184  289.97 0854.30
2009/04/23 16:07:22.1     -23     19     78     30     83 309.5  78.6  34198  290.23 0854.30
2009/04/23 16:07:22.2     134     68    155    151    216  63.0  50.9  34176  289.85 0854.30
2009/04/23 16:07:22.3      54     37    128     66    144  55.8  70.8  34186  290.01 0854.30
2009/04/23 16:07:22.4      44     70     98     83    128  32.1  55.8  34188  290.06 0854.30
2009/04/23 16:07:22.5      17    115     81    117    142   8.5  38.0  34184  289.99 0854.30
2009/04/23 16:07:22.6      24    121     97    124    157  11.6  42.2  34178  289.89 0854.30
2009/04/23 16:07:22.7      16     34     91     38     98  25.4  76.6  34188  290.04 0854.30
2009/04/23 16:07:22.8      85    -43     83     96    126 117.1  45.8  34196  290.18 0854.30
2009/04/23 16:07:22.9      24     52     99     58    114  25.3  66.8  34198  290.21 0854.30
2009/04/23 16:07:23.0     -38     -2     43     39     58 265.6  52.2  34196  290.18 0854.30
2009/04/23 16:07:23.1     -23    -17     39     29     48 234.0  59.4  34194  290.16 0854.30
2009/04/23 16:07:23.2     -29     45     49     54     72 327.4  47.9  34192  290.11 0854.30
2009/04/23 16:07:23.3      -5     69     92     70    115 355.6  59.0  34196  290.19 0854.32
2009/04/23 16:07:23.4     -44     15     72     47     85 289.1  64.1  34208  290.38 0854.32
2009/04/23 16:07:23.5     -60     66    113     90    144 318.1  57.5  34206  290.36 0854.32
2009/04/23 16:07:23.6    -148     53     90    158    181 290.0  32.4  34190  290.09 0854.32
2009/04/23 16:07:23.7    -105      1    117    106    157 270.8  53.3  34220  290.58 0854.32
2009/04/23 16:07:23.8     -73    -57    102     93    138 232.2  52.2  34228  290.72 0854.32
2009/04/23 16:07:23.9      10     13    110     17    111  36.1  90.0  34222  290.62 0854.32
2009/04/23 16:07:24.0      35     10    100     37    106  73.2  79.7  34210  290.41 0854.32
2009/04/23 16:07:24.1       8      8     94     12     94  43.2  90.0  34218  290.57 0854.32
2009/04/23 16:07:24.2      43     22    142     49    150  62.9  81.2  34206  290.36 0854.32
2009/04/23 16:07:24.3       0     59     76     60     96   0.0  57.5  34220  290.60 0854.32
2009/04/23 16:07:24.4      -5   -108    270    109    291 182.7  77.0  34208  290.37 0854.32
2009/04/23 16:07:24.5      10   -197    288    198    349 177.1  62.4  34198  290.22 0854.32
2009/04/23 16:07:24.6      17    -65    187     68    198 164.9  79.2  34200  290.26 0854.32
2009/04/23 16:07:24.7      52   -162    270    171    319 162.0  64.7  34214  290.49 0854.32
2009/04/23 16:07:24.8      28   -119    205    123    239 166.6  66.4  34180  289.92 0854.32
2009/04/23 16:07:24.9      35    -64    179     74    193 151.1  76.8  34212  290.47 0854.32
2009/04/23 16:07:25.0      -7   -154    273    155    313 182.7  68.1  34214  290.49 0854.32
2009/04/23 16:07:25.1     -77   -269    264    280    384 196.1  48.0  34208  290.37 0854.32
2009/04/23 16:07:25.2     -45   -224    281    229    362 191.5  56.6  34212  290.46 0854.32
2009/04/23 16:07:25.3     -51   -256    310    262    405 191.3  55.6  34204  290.32 0854.33
2009/04/23 16:07:25.4    -172   -270    253    321    408 212.6  42.3  34198  290.23 0854.33
2009/04/23 16:07:25.5    -218   -258    260    339    427 220.2  41.4  34208  290.40 0854.33
2009/04/23 16:07:25.6    -132   -459    235    478    532 196.1  28.1  34218  290.56 0854.33
2009/04/23 16:07:25.7     -36   -468    256    470    535 184.5  31.0  34186  290.00 0854.33
2009/04/23 16:07:25.8    -148   -505    213    527    568 196.4  23.1  34210  290.43 0854.33
2009/04/23 16:07:25.9      58   -499    276    503    573 173.3  31.3  34224  290.65 0854.33
2009/04/23 16:07:26.0      42   -483    282    485    561 174.9  32.9  34222  290.63 0854.33
2009/04/23 16:07:26.1     -11   -541    256    542    599 181.3  27.1  34194  290.15 0854.33
2009/04/23 16:07:26.2     -34   -493    179    495    527 184.0  19.9  34228  290.73 0854.33
2009/04/23 16:07:26.3      35   -457    102    459    471 175.5  12.6  34202  290.27 0854.33
2009/04/23 16:07:26.4     110   -530     85    542    549 168.2   9.0  34196  290.18 0854.33
2009/04/23 16:07:26.5      83   -374    258    384    462 167.5  37.2  34196  290.19 0854.33
2009/04/23 16:07:26.6      82   -333    243    344    421 166.1  38.7  34228  290.74 0854.33
2009/04/23 16:07:26.7      35   -333    147    335    365 173.9  25.2  34188  290.06 0854.33
2009/04/23 16:07:26.8      -9   -335    125    336    358 181.6  21.3  34164  289.64 0854.33
2009/04/23 16:07:26.9      43   -396     70    399    406 173.8  10.0  34170  289.75 0854.33
2009/04/23 16:07:27.0      63   -406    117    412    429 171.1  15.9  34180  289.90 0854.33
2009/04/23 16:07:27.1      31   -413     69    415    421 175.7   9.5  34184  289.97 0854.33
2009/04/23 16:07:27.2      20   -375     15    376    377 176.9   2.3  34192  290.11 0854.33
2009/04/23 16:07:27.3     285   -309     61    421    426 137.4   8.3  34200  290.26 0854.36
2009/04/23 16:07:27.4     113   -315    126    335    357 160.2  21.5  34188  290.04 0854.36
2009/04/23 16:07:27.5      97   -267    166    285    329 160.0  33.0  34208  290.39 0854.36
2009/04/23 16:07:27.6     116   -263    229    288    367 156.2  42.6  34224  290.67 0854.36
2009/04/23 16:07:27.7     158   -236    244    285    375 146.2  45.0  34172  289.79 0854.36
2009/04/23 16:07:27.8     212   -205    198    295    355 134.0  37.2  34174  289.81 0854.36
2009/04/23 16:07:27.9     108   -283    215    304    372 159.1  39.0  34172  289.77 0854.36
2009/04/23 16:07:28.0      88   -263    127    278    305 161.5  26.2  34174  289.80 0854.36
2009/04/23 16:07:28.1     172   -236    151    293    329 143.9  29.4  34152  289.42 0854.36
2009/04/23 16:07:28.2      60   -190    136    200    241 162.4  37.4  34160  289.57 0854.36
2009/04/23 16:07:28.3       2   -188    173    189    256 179.1  47.5  34158  289.53 0854.36
2009/04/23 16:07:28.4     -51   -165    175    173    246 197.4  50.2  34152  289.45 0854.36
2009/04/23 16:07:28.5    -106    -99    127    146    193 226.9  45.6  34156  289.50 0854.36
2009/04/23 16:07:28.6     -57   -170    156    180    238 198.5  45.4  34160  289.58 0854.36
2009/04/23 16:07:28.7    -131   -212    223    250    335 211.7  46.4  34168  289.71 0854.36
2009/04/23 16:07:28.8    -130   -219    216    255    334 210.8  44.5  34170  289.73 0854.36
2009/04/23 16:07:28.9    -118   -205    186    237    301 209.9  41.7  34168  289.70 0854.36
2009/04/23 16:07:29.0     -62    -43    237     76    248 234.9  81.7  34182  289.96 0854.36
2009/04/23 16:07:29.1      -7     17    177     19    178 338.2  90.0  34194  290.14 0854.36
2009/04/23 16:07:29.2     -55     40    157     69    171 306.0  74.8  34170  289.75 0854.36
2009/04/23 16:07:29.3      36      7    279     37    281  78.5  90.0  34170  289.75 0854.38
2009/04/23 16:07:29.4     -27     27    225     39    228 315.0  90.0  34182  289.96 0854.38
2009/04/23 16:07:29.5      82      3     98     83    128  87.4  55.8  34164  289.65 0854.38
2009/04/23 16:07:29.6     100    183     61    209    218  28.9  16.3  34154  289.46 0854.38
2009/04/23 16:07:29.7      66     53    214     85    230  51.4  77.1  34196  290.18 0854.38
2009/04/23 16:07:29.8       9    -79    105     80    132 172.9  58.5  34200  290.25 0854.38
2009/04/23 16:07:29.9      68    -13    112     70    132 101.4  64.7  34210  290.41 0854.38
2009/04/23 16:07:30.0     -49    -15     48     52     70 253.2  47.9  34210  290.43 0854.38
2009/04/23 16:07:30.1      49    -26    124     56    136 118.0  74.0  34200  290.25 0854.38
2009/04/23 16:07:30.2      88    -22    158     91    182 104.6  67.5  34184  289.97 0854.38
2009/04/23 16:07:30.3     231    -78    139    245    281 108.8  32.3  34178  289.86 0854.38
2009/04/23 16:07:30.4     197    -66     65    208    219 108.6  17.4  34188  290.04 0854.38
2009/04/23 16:07:30.5     154     42    163    160    228  74.5  50.4  34214  290.48 0854.38
2009/04/23 16:07:30.6     126    160    129    204    241  38.3  35.5  34244  291.01 0854.38
2009/04/23 16:07:30.7     103     59     67    119    136  60.2  31.9  34246  291.03 0854.38
2009/04/23 16:07:30.8     167    121     74    207    219  54.0  20.4  34278  291.57 0854.38
2009/04/23 16:07:30.9     136     82     56    159    169  58.9  19.6  34270  291.43 0854.38
2009/04/23 16:07:31.0     -43    -13    100     46    110 252.3  73.1  34248  291.08 0854.38
2009/04/23 16:07:31.1     -72   -170    189    185    264 202.9  50.7  34150  289.39 0854.38
2009/04/23 16:07:31.2    -172   -194     66    260    269 221.5  14.3  34152  289.42 0854.38
2009/04/23 16:07:31.3    -147   -218     82    264    277 214.1  17.3  34144  289.29 0854.38
2009/04/23 16:07:31.4    -171   -269    118    320    341 212.5  21.1  34142  289.26 0854.38
2009/04/23 16:07:31.5      -7   -357    145    358    386 181.2  23.1  34154  289.47 0854.38
2009/04/23 16:07:31.6     -31   -408     72    410    417 184.5  10.0  34156  289.51 0854.38
2009/04/23 16:07:31.7      -6   -381     55    382    387 181.0   8.2  34154  289.48 0854.38
2009/04/23 16:07:31.8      13   -341     22    342    343 177.7   3.8  34156  289.50 0854.38
2009/04/23 16:07:31.9       7   -438      7    439    440 179.0   1.0  34148  289.36 0854.38
2009/04/23 16:07:32.0     143   -353    147    381    408 157.9  22.1  34146  289.32 0854.38
2009/04/23 16:07:32.1       6   -365    247    366    441 179.0  37.4  34150  289.41 0854.38
2009/04/23 16:07:32.2      96   -289    -24    305    307 161.5  -4.6  34146  289.34 0854.38
2009/04/23 16:07:32.3      92   -195      0    216    217 154.6  -0.3  34150  289.40 0854.38
2009/04/23 16:07:32.4      31   -232    228    235    327 172.2  49.2  34198  290.22 0854.38
2009/04/23 16:07:32.5    -129   -298     63    325    332 203.5  11.0  34164  289.64 0854.38
2009/04/23 16:07:32.6     -76   -111     96    135    165 214.3  38.8  34178  289.87 0854.38
2009/04/23 16:07:32.7       2    -35    170     36    173 175.5  88.8  34214  290.48 0854.38
2009/04/23 16:07:32.8      88   -106    189    138    234 140.3  60.5  34236  290.86 0854.38
2009/04/23 16:07:32.9    -159   -188   -102    247    267 220.3 -28.0  34184  289.98 0854.38
2009/04/23 16:07:33.0    -229   -283    -85    365    375 219.0 -13.2  34174  289.81 0854.38
2009/04/23 16:07:33.1    -109   -184     60    215    224 210.7  15.6  34190  290.08 0854.38
2009/04/23 16:07:33.2    -103   -110     89    151    175 223.2  33.7  34190  290.08 0854.38
2009/04/23 16:07:33.3    -310    -21     66    311    319 266.1  12.1  34240  290.92 0854.40
2009/04/23 16:07:33.4    -483    -84    121    491    506 260.1  13.9  34280  291.61 0854.40
2009/04/23 16:07:33.5    -532   -108     11    543    544 258.5   1.2  34164  289.63 0854.40
2009/04/23 16:07:33.6    -599    -36   -191    601    631 266.5 -17.7  34128  289.03 0854.40
2009/04/23 16:07:33.7    -752    -21   -223    753    786 268.4 -16.5  34140  289.24 0854.40
2009/04/23 16:07:33.8    -747   -311    -15    810    811 247.4  -1.1  34168  289.72 0854.40
2009/04/23 16:07:33.9    -746    -94    -32    752    753 262.8  -2.5  34162  289.62 0854.40
2009/04/23 16:07:34.0    -460   -133     59    479    483 253.9   7.1  34166  289.69 0854.40
2009/04/23 16:07:34.1    -408   -179    -50    446    449 246.3  -6.5  34154  289.46 0854.40
2009/04/23 16:07:34.2    -579   -239    -34    627    629 247.6  -3.2  34174  289.82 0854.40
2009/04/23 16:07:34.3    -452   -219   -214    503    546 244.1 -28.9  34178  289.89 0854.39
2009/04/23 16:07:34.4    -479   -236    -80    535    542 243.7  -8.6  34192  290.13 0854.39
2009/04/23 16:07:34.5     -91   -285   -216    300    369 197.8 -43.7  34166  289.67 0854.39
2009/04/23 16:07:34.6     -33   -234   -190    237    303 188.1 -47.4  34168  289.70 0854.39
2009/04/23 16:07:34.7    -397   -373   -173    546    572 226.8 -22.8  34182  289.96 0854.39
2009/04/23 16:07:34.8    -265   -246   -181    362    404 227.1 -32.8  34146  289.33 0854.39
2009/04/23 16:07:34.9    -143   -370     50    397    401 201.2   7.2  34172  289.77 0854.39
2009/04/23 16:07:35.0     -84   -378     49    388    392 192.6   7.2  34178  289.89 0854.39
2009/04/23 16:07:35.1    -216   -467    -20    515    516 204.8  -2.2  34136  289.18 0854.39
2009/04/23 16:07:35.2    -196   -595   -208    627    661 198.3 -18.4  34126  288.98 0854.39
2009/04/23 16:07:35.3    -112   -531   -156    543    564 192.0 -20.8  34120  288.91 0854.39
2009/04/23 16:07:35.4     -13   -416   -298    417    512 181.8 -43.5  34108  288.68 0854.39
2009/04/23 16:07:35.5     -81   -474   -200    482    521 189.8 -28.3  34098  288.52 0854.39
2009/04/23 16:07:35.6    -128   -485   -232    502    553 194.8 -30.9  34106  288.65 0854.39
2009/04/23 16:07:35.7     -82   -484   -178    491    522 189.7 -25.2  34094  288.47 0854.39
2009/04/23 16:07:35.8     -96   -473   -144    483    505 191.5 -16.6  34102  288.59 0854.39
2009/04/23 16:07:35.9     -75   -492   -154    498    521 188.7 -22.2  34082  288.24 0854.39
2009/04/23 16:07:36.0     -60   -440   -251    445    510 187.8 -36.3  34094  288.47 0854.39
2009/04/23 16:07:36.1     -10   -361   -158    362    394 181.6 -29.5  34080  288.23 0854.39
2009/04/23 16:07:36.2    -292   -452   -108    539    550 212.9 -11.3  34126  288.99 0854.39
2009/04/23 16:07:36.3    -312   -466   -148    562    582 213.8 -14.8  34130  289.05 0854.40
2009/04/23 16:07:36.4    -168   -523   -100    550    560 197.8 -10.4  34130  289.07 0854.40
2009/04/23 16:07:36.5    -230   -416   -213    476    521 209.0 -30.1  34112  288.76 0854.40
2009/04/23 16:07:36.6    -447   -411   -272    608    666 227.4 -30.1  34114  288.79 0854.40
2009/04/23 16:07:36.7    -383   -368   -108    532    543 226.2 -11.5  34128  289.02 0854.40
2009/04/23 16:07:36.8    -150   -232   -206    277    345 213.0 -44.6  34116  288.81 0854.40
2009/04/23 16:07:36.9    -146   -357      4    386    387 202.3   0.7  34110  288.74 0854.40
2009/04/23 16:07:37.0    -224   -576    -24    619    620 201.3  -2.3  34128  289.03 0854.40
2009/04/23 16:07:37.1    -251   -480   -129    542    558 207.6 -13.4  34126  289.01 0854.40
2009/04/23 16:07:37.2    -277   -602   -263    663    713 204.7 -27.3  34116  288.83 0854.40
2009/04/23 16:07:37.3    -208   -514   -271    555    617 202.1 -32.3  34110  288.73 0854.40
2009/04/23 16:07:37.4    -148   -291   -290    327    437 207.0 -50.6  34120  288.89 0854.40
2009/04/23 16:07:37.5    -169   -138   -351    219    413 230.9 -69.5  34132  289.11 0854.40
2009/04/23 16:07:37.6    -274   -216   -348    350    493 231.7 -54.4  34116  288.82 0854.40
2009/04/23 16:07:37.7    -281   -237   -358    368    513 229.8 -53.7  34114  288.79 0854.40
2009/04/23 16:07:37.8    -209   -320   -201    383    432 213.1 -34.4  34114  288.80 0854.40
2009/04/23 16:07:37.9       0   -302   -122    303    326 180.0 -27.6  34118  288.85 0854.40
2009/04/23 16:07:38.0     -77   -377   -140    385    409 191.6 -25.3  34116  288.81 0854.40
2009/04/23 16:07:38.1      19   -311    -57    312    318 176.4 -10.5  34108  288.68 0854.40
2009/04/23 16:07:38.2      76   -378   -125    386    405 168.6 -23.0  34116  288.81 0854.40
2009/04/23 16:07:38.3      77   -353   -162    362    396 167.6 -30.1  34106  288.67 0854.42
2009/04/23 16:07:38.4     224   -142   -153    266    306 122.4 -36.8  34124  288.95 0854.42
2009/04/23 16:07:38.5     168   -115   -115    204    234 124.4 -36.3  34114  288.79 0854.42
2009/04/23 16:07:38.6     158    -26    -33    161    165  99.6 -11.6  34116  288.82 0854.42
2009/04/23 16:07:38.7     227     -3     93    228    246  90.9  23.4  34116  288.83 0854.42
2009/04/23 16:07:38.8     209   -127     86    245    260 121.3  19.4  34120  288.88 0854.42
2009/04/23 16:07:38.9     247   -139    133    284    313 119.5  26.9  34120  288.88 0854.42
2009/04/23 16:07:39.0     174   -224    223    284    361 142.2  42.1  34120  288.89 0854.42
2009/04/23 16:07:39.1     144   -118    259    187    319 129.5  60.7  34130  289.05 0854.42
2009/04/23 16:07:39.2     115     16    208    117    238  82.1  68.3  34136  289.16 0854.42
2009/04/23 16:07:39.3      66      9    221     67    230  82.1  82.5  34134  289.14 0854.42
2009/04/23 16:07:39.4     289    127    140    316    345  66.3  25.6  34126  288.98 0854.42
2009/04/23 16:07:39.5     318    158    167    356    393  63.6  27.0  34136  289.18 0854.42
2009/04/23 16:07:39.6     287     77    213    298    366  74.9  39.1  34120  288.88 0854.42
2009/04/23 16:07:39.7     344     88    215    356    415  75.6  34.0  34126  288.98 0854.42
2009/04/23 16:07:39.8     265    365    174    452    484  36.0  22.1  34124  288.95 0854.42
2009/04/23 16:07:39.9     279    261    -64    383    389  46.9  -9.6  34126  288.98 0854.42
2009/04/23 16:07:40.0     447      6   -115    448    463  89.2 -14.4  34130  289.05 0854.42
2009/04/23 16:07:40.1     436    -80   -132    444    464 100.5 -16.6  34148  289.36 0854.42
2009/04/23 16:07:40.2     390   -110    -81    406    415 105.8 -11.3  34154  289.46 0854.42
2009/04/23 16:07:40.3     433    -44     29    436    437  95.8   3.9  34134  289.12 0854.44
2009/04/23 16:07:40.4     463   -111    -26    477    478 103.5  -3.2  34136  289.18 0854.44
2009/04/23 16:07:40.5     405     -6   -141    406    429  90.9 -24.4  34136  289.16 0854.44
2009/04/23 16:07:40.6     319   -126   -129    344    367 111.6 -25.8  34144  289.30 0854.44
2009/04/23 16:07:40.7     260   -165    -94    308    323 122.4 -16.9  34146  289.32 0854.44
2009/04/23 16:07:40.8     223   -195      4    297    298 131.3   0.8  34140  289.22 0854.44
2009/04/23 16:07:40.9     235    -64    -70    244    253 105.3 -20.8  34140  289.22 0854.44
2009/04/23 16:07:41.0     170   -116     -8    207    208 124.4  -2.2  34140  289.24 0854.44
2009/04/23 16:07:41.1     156    -83    -58    177    187 118.0 -18.1  34136  289.18 0854.44
2009/04/23 16:07:41.2      82   -100     28    130    134 140.4  12.2  34140  289.23 0854.44
2009/04/23 16:07:41.3      96    -45     52    107    118 115.2  27.8  34140  289.23 0854.44
2009/04/23 16:07:41.4      94    -35     34    101    107 110.8  18.9  34142  289.28 0854.44
2009/04/23 16:07:41.5      71    -33     -2     79     80 115.4  -1.8  34142  289.28 0854.44
2009/04/23 16:07:41.6      63    -52    -32     82     88 129.6 -26.4  34142  289.26 0854.44
2009/04/23 16:07:41.7      33    -42    -36     54     64 141.3 -40.9  34142  289.28 0854.44
2009/04/23 16:07:41.8      91     10    -61     92    110  83.4 -40.4  34148  289.38 0854.44
2009/04/23 16:07:41.9      63     35     -4     73     74  61.1  -3.1  34150  289.41 0854.44
2009/04/23 16:07:42.0      47     26     33     54     63  61.1  34.4  34150  289.40 0854.44
2009/04/23 16:07:42.1     -50     41     66     65     92 309.5  49.7  34158  289.53 0854.44
2009/04/23 16:07:42.2     -24     73    101     78    127 341.3  58.4  34172  289.79 0854.44
2009/04/23 16:07:42.3     -45    -25    101     52    113 240.2  71.4  34176  289.85 0854.45
2009/04/23 16:07:42.4     -55     41     78     69    104 306.9  53.3  34178  289.87 0854.45
2009/04/23 16:07:42.5     -67     90     61    113    128 323.5  30.8  34168  289.70 0854.45
2009/04/23 16:07:42.6     -92     -2      7     93     94 268.3   4.4  34160  289.57 0854.45
2009/04/23 16:07:42.7     -80     -7    -17     81     83 264.8 -11.9  34152  289.45 0854.45
2009/04/23 16:07:42.8     -73     44     -2     86     87 301.5  -1.8  34150  289.40 0854.45
2009/04/23 16:07:42.9     -98     53     57    112    125 298.4  29.2  34154  289.46 0854.45
2009/04/23 16:07:43.0     -84     -6    -20     85     88 265.6 -13.4  34148  289.36 0854.45
2009/04/23 16:07:43.1    -132      8     87    133    158 273.5  36.5  34150  289.41 0854.45
2009/04/23 16:07:43.2    -116    -57     82    130    153 243.8  35.5  34154  289.46 0854.45
2009/04/23 16:07:43.3    -119    -70     92    139    166 239.4  36.5  34148  289.38 0854.45
2009/04/23 16:07:43.4      -9   -126     94    127    158 184.4  40.1  34144  289.30 0854.45
2009/04/23 16:07:43.5      34   -159    111    163    197 167.7  37.6  34142  289.28 0854.45
2009/04/23 16:07:43.6      27     22     86     36     93  50.5  76.1  34158  289.55 0854.45
2009/04/23 16:07:43.7     -75     34    121     83    146 294.8  62.1  34166  289.67 0854.45
2009/04/23 16:07:43.8    -152     56    151    163    222 290.2  47.9  34198  290.23 0854.45
2009/04/23 16:07:43.9    -119    155    103    196    221 322.6  29.8  34184  289.97 0854.45
2009/04/23 16:07:44.0     -68    132     51    149    158 332.8  18.9  34180  289.92 0854.45
2009/04/23 16:07:44.1    -172     81    132    191    232 295.4  37.6  34166  289.69 0854.45
2009/04/23 16:07:44.2    -200    150    151    251    292 306.9  33.7  34164  289.63 0854.45
2009/04/23 16:07:44.3    -138    128     61    189    199 312.7  17.9  34162  289.60 0854.45
2009/04/23 16:07:44.4     -62     85     70    106    127 324.0  36.5  34162  289.62 0854.45
2009/04/23 16:07:44.5      29    -20    120     36    125 124.2  82.7  34184  289.97 0854.45
2009/04/23 16:07:44.6      36    -67    107     77    131 151.9  60.5  34164  289.63 0854.45
2009/04/23 16:07:44.7       7    -67     80     68    104 173.8  55.4  34152  289.43 0854.45
2009/04/23 16:07:44.8      -2     37    112     38    118 355.5  80.7  34180  289.91 0854.45
2009/04/23 16:07:44.9       7     71     90     72    115   6.2  56.4  34170  289.74 0854.45
2009/04/23 16:07:45.0       2      2    105      3    105  45.0  90.0  34168  289.72 0854.45
2009/04/23 16:07:45.1      -3   -147    121    148    191 181.4  43.7  34152  289.45 0854.45
2009/04/23 16:07:45.2     -70   -150     88    166    187 205.2  30.3  34138  289.19 0854.45
2009/04/23 16:07:45.3     -40   -142    147    148    208 196.0  50.0  34150  289.40 0854.45
2009/04/23 16:07:45.4     -90    -16    103     92    138 259.9  53.7  34166  289.67 0854.45
2009/04/23 16:07:45.5    -202     50    106    209    234 283.9  29.1  34166  289.69 0854.45
2009/04/23 16:07:45.6    -114     46     69    124    141 292.2  31.4  34168  289.70 0854.45
2009/04/23 16:07:45.7    -139     14     73    140    157 276.1  29.5  34168  289.72 0854.45
2009/04/23 16:07:45.8    -132     37     76    138    157 285.9  31.4  34166  289.69 0854.45
2009/04/23 16:07:45.9    -156     11     58    157    167 274.4  21.0  34160  289.57 0854.45
2009/04/23 16:07:46.0    -101    -20     20    104    107 258.5  11.1  34160  289.57 0854.45
2009/04/23 16:07:46.1       0     54     50     55     74 359.1  47.9  34164  289.63 0854.45
2009/04/23 16:07:46.2      77    106      0    132    133  36.1  -0.3  34168  289.70 0854.45
2009/04/23 16:07:46.3      42    129      6    136    137  18.3   2.9  34170  289.75 0854.45
2009/04/23 16:07:46.4       1    132     -4    133    134   0.5  -1.8  34170  289.75 0854.45
2009/04/23 16:07:46.5     -42    125     -2    133    134 341.3  -1.2  34168  289.72 0854.45
2009/04/23 16:07:46.7      24    158      2    160    161   8.9   0.8  34170  289.75 0854.45
2009/04/23 16:07:46.7      82    147    136    169    216  29.2  43.3  34170  289.74 0854.45
2009/04/23 16:07:46.8     112    158     70    195    207  35.4  20.7  34164  289.65 0854.45
2009/04/23 16:07:46.9      61    152     43    164    170  21.9  14.7  34172  289.79 0854.45
2009/04/23 16:07:47.1      60    137      6    150    151  23.6   2.3  34176  289.85 0854.45
2009/04/23 16:07:47.1      44    122     51    130    139  20.1  22.5  34180  289.92 0854.45
2009/04/23 16:07:47.3       0    119     74    120    140 359.6  35.0  34186  290.01 0854.45
2009/04/23 16:07:47.4      -6     87     94     88    128 355.5  52.1  34190  290.08 0854.45
2009/04/23 16:07:47.5     -11     80     84     81    116 352.0  50.7  34184  289.99 0854.45
2009/04/23 16:07:47.6       3     52     80     53     95   3.6  64.1  34194  290.16 0854.45
2009/04/23 16:07:47.7     -13     88     65     89    110 351.5  39.7  34208  290.40 0854.45
2009/04/23 16:07:47.8      61     96     66    115    132  32.6  32.4  34208  290.40 0854.45
2009/04/23 16:07:47.9      81     36     76     89    117  66.0  44.8  34212  290.47 0854.45
2009/04/23 16:07:48.0     148    113     92    187    208  52.7  28.0  34216  290.53 0854.45
2009/04/23 16:07:48.1     140    112     87    180    199  51.4  27.4  34214  290.50 0854.45
2009/04/23 16:07:48.2      88     99     91    133    161  41.5  37.8  34218  290.57 0854.45
2009/04/23 16:07:48.3      41    124     65    131    146  18.3  27.8  34216  290.52 0854.45
2009/04/23 16:07:48.4     -20    168    141    170    220 353.1  43.8  34256  291.21 0854.45
2009/04/23 16:07:48.5      62    139     91    153    178  24.1  33.7  34264  291.35 0854.45
2009/04/23 16:07:48.6    -100    113    125    151    196 318.5  43.8  34276  291.54 0854.45
2009/04/23 16:07:48.7     -89    224    132    242    275 338.2  31.3  34270  291.43 0854.45
2009/04/23 16:07:48.8     -68    227    100    237    257 343.3  24.1  34278  291.56 0854.45
2009/04/23 16:07:48.9     -53    230    155    237    283 346.9  36.3  34298  291.90 0854.45
2009/04/23 16:07:49.0     -19    265    150    266    305 355.8  31.9  34272  291.48 0854.45
2009/04/23 16:07:49.1      48    364    136    368    392   7.6  21.3  34182  289.94 0854.45
2009/04/23 16:07:49.2      68    433    110    439    453   9.0  14.2  34156  289.51 0854.45
2009/04/23 16:07:49.3     -35    417     95    419    430 355.1  12.8  34178  289.88 0854.45
2009/04/23 16:07:49.4     -25    336    100    337    352 355.6  16.5  34208  290.37 0854.45
2009/04/23 16:07:49.5     -37    361     82    363    373 354.0  12.8  34158  289.54 0854.45
2009/04/23 16:07:49.6     -23    353    110    354    371 356.2  17.3  34154  289.48 0854.45
2009/04/23 16:07:49.7     -12    351    125    352    373 358.0  20.4  34156  289.50 0854.45
2009/04/23 16:07:49.8      11    374    135    375    399   1.7  19.9  34172  289.76 0854.45
2009/04/23 16:07:49.9     -31    403    127    405    425 355.5  17.5  34198  290.21 0854.45
2009/04/23 16:07:50.0     -32    378     60    380    385 355.1   9.0  34192  290.13 0854.45
2009/04/23 16:07:50.1     -24    363     70    364    371 356.1  11.0  34194  290.15 0854.45
2009/04/23 16:07:50.2       0    362    111    363    380   0.0  17.0  34188  290.06 0854.45
2009/04/23 16:07:50.3     -32    417     95    419    430 355.6  12.9  34186  290.00 0854.46
2009/04/23 16:07:50.4     -32    429     76    431    438 355.7  10.1  34174  289.82 0854.46
2009/04/23 16:07:50.5     -60    431     45    436    439 352.0   6.0  34200  290.24 0854.46
2009/04/23 16:07:50.6    -140    457   -105    479    491 343.0 -12.4  34192  290.13 0854.46
2009/04/23 16:07:50.7    -220    325   -156    393    422 325.8 -27.4  34252  291.14 0854.46
2009/04/23 16:07:50.8    -228    301    -90    378    389 322.8 -13.4  34174  289.81 0854.46
2009/04/23 16:07:50.9     -11    243    -22    244    246 357.4  -5.2  34258  291.24 0854.46
2009/04/23 16:07:51.0       3    372     67    373    380   0.5  10.2  34382  293.35 0854.46
2009/04/23 16:07:51.1      42    294    102    298    316   8.1  18.9  34356  292.91 0854.46
2009/04/23 16:07:51.2      88    246     63    262    270  19.8  13.7  34290  291.77 0854.46
2009/04/23 16:07:51.3     -77    290     23    301    302 345.1   4.4  34316  292.21 0854.46
2009/04/23 16:07:51.4     -69    220     -4    231    232 342.6  -1.2  34304  292.01 0854.46
2009/04/23 16:07:51.5      -4    201     55    202    210 358.6  15.3  34292  291.81 0854.46
2009/04/23 16:07:51.6     -99    184    -70    209    221 331.7 -18.7  34246  291.04 0854.46
2009/04/23 16:07:51.7     -63    142    -54    156    165 335.9 -23.8  34236  290.86 0854.46
2009/04/23 16:07:51.8       0    140    -75    141    159   0.0 -34.7  34226  290.70 0854.46
2009/04/23 16:07:51.9     106    135    -89    172    193  38.1 -33.9  34212  290.45 0854.46
2009/04/23 16:07:52.0     184    102    -97    211    232  60.9 -31.0  34258  291.23 0854.46
2009/04/23 16:07:52.1     292    111    -92    313    326  69.2 -21.2  34334  292.53 0854.46
2009/04/23 16:07:52.2     240     26    -97    242    260  83.6 -27.4  34296  291.89 0854.46
2009/04/23 16:07:52.3     290     63   -131    297    324  77.6 -30.0  34190  290.07 0854.43
2009/04/23 16:07:52.4     330    -61    -70    336    344 100.6 -11.9  34210  290.42 0854.43
2009/04/23 16:07:52.5     416    -18   -146    417    441  92.5 -24.4  34160  289.56 0854.43
2009/04/23 16:07:52.6     461    -82   -192    469    506 100.1 -27.9  34162  289.61 0854.43
2009/04/23 16:07:52.7     503   -167   -169    531    557 108.4 -22.8  34160  289.58 0854.43
2009/04/23 16:07:52.8     687    117    -58    697    700  80.3  -4.8  34164  289.64 0854.43
2009/04/23 16:07:52.9     962    114     54    969    971  83.2   3.2  34174  289.82 0854.43
2009/04/23 16:07:53.0     714    -17   -160    715    733  91.4 -12.7  34202  290.30 0854.43
2009/04/23 16:07:53.1     662     14    109    663    673  88.8   9.3  34272  291.48 0854.43
2009/04/23 16:07:53.2     682    -43    219    684    719  93.6  17.8  34274  291.51 0854.43
2009/04/23 16:07:53.3     629   -173    354    653    742 105.4  30.8  34258  291.22 0854.43
2009/04/23 16:07:53.4     751    -78    453    756    881  96.0  33.7  34220  290.60 0854.43
2009/04/23 16:07:53.5     662    -53    281    665    721  94.6  24.3  34266  291.37 0854.43
2009/04/23 16:07:53.6     480   -120    337    495    598 104.1  37.6  34300  291.94 0854.43
2009/04/23 16:07:53.7     416    -44    365    419    555  96.1  45.6  34256  291.20 0854.43
2009/04/23 16:07:53.8     515    -22    388    516    645  92.5  40.7  34256  291.21 0854.43
2009/04/23 16:07:53.9     409    -58    393    414    570  98.1  48.4  34246  291.03 0854.43
2009/04/23 16:07:54.0     386     82    295    395    493  77.9  40.4  34240  290.92 0854.43
2009/04/23 16:07:54.1     506    -37    372    508    629  94.3  39.8  34216  290.53 0854.43
2009/04/23 16:07:54.2     433    -29    232    434    492  93.9  30.5  34220  290.59 0854.43
2009/04/23 16:07:54.3     367    -84     96    377    390 102.9  14.3  34222  290.64 0854.43
2009/04/23 16:07:54.4     419   -150    -56    446    450 109.7  -7.2  34226  290.70 0854.43
2009/04/23 16:07:54.5     412   -171   -151    447    473 112.6 -18.7  34218  290.56 0854.43
2009/04/23 16:07:54.6     272     57     34    278    281  78.1   7.1  34216  290.51 0854.43
2009/04/23 16:07:54.7     355    -71     87    363    374 101.4  13.6  34214  290.49 0854.43
2009/04/23 16:07:54.8     319   -145    194    351    401 114.4  31.4  34248  291.08 0854.43
2009/04/23 16:07:54.9     252     84    179    266    320  71.6  37.0  34242  290.97 0854.43
2009/04/23 16:07:55.0     369     27    245    370    443  85.7  36.5  34236  290.87 0854.43
2009/04/23 16:07:55.1     319     54    296    324    438  80.4  47.1  34194  290.16 0854.43
2009/04/23 16:07:55.2     333     49    293    337    446  81.5  45.6  34234  290.82 0854.43
2009/04/23 16:07:55.3     316    -14    337    317    462  92.6  52.1  34254  291.16 0854.44
2009/04/23 16:07:55.4     233     41    354    237    426  79.9  63.3  34222  290.64 0854.44
2009/04/23 16:07:55.5     168    119    305    206    368  54.7  62.8  34234  290.83 0854.44
2009/04/23 16:07:55.6     276    137    369    309    481  63.6  56.0  34246  291.02 0854.44
2009/04/23 16:07:55.7     325    -81    277    336    435 104.1  43.7  34248  291.06 0854.44
2009/04/23 16:07:55.8     359     14    288    360    461  87.6  42.8  34260  291.28 0854.44
2009/04/23 16:07:55.9     374    -66    362    380    524 100.0  48.6  34250  291.10 0854.44
2009/04/23 16:07:56.0     238    -30    414    240    478  97.2  67.2  34244  290.99 0854.44
2009/04/23 16:07:56.1     271    104    310    291    425  68.9  52.1  34252  291.13 0854.44
2009/04/23 16:07:56.2     227    143    259    269    373  57.8  48.8  34244  291.01 0854.44
2009/04/23 16:07:56.3     181    139    281    229    362  52.5  56.6  34238  290.90 0854.44
2009/04/23 16:07:56.4     228     -3    287    229    367  90.9  57.5  34236  290.87 0854.44
2009/04/23 16:07:56.5       0    -25    194     26    195 179.1  90.0  34246  291.04 0854.44
2009/04/23 16:07:56.6     -41    -72    212     84    228 209.9  77.1  34246  291.04 0854.44
2009/04/23 16:07:56.7     -24    -51    222     57    229 205.3  85.4  34256  291.21 0854.44
2009/04/23 16:07:56.8    -103   -103    187    146    237 225.0  58.4  34238  290.89 0854.44
2009/04/23 16:07:56.9    -154    -94    157    181    239 238.5  45.6  34256  291.20 0854.44
2009/04/23 16:07:57.0      -3     32    158     33    161 353.8  88.8  34296  291.88 0854.44
2009/04/23 16:07:57.1      16    -22    147     28    149 143.9  89.6  34290  291.77 0854.44
2009/04/23 16:07:57.2      86      3    172     87    192  87.9  71.4  34282  291.64 0854.44
2009/04/23 16:07:57.3     135    -22    189    137    233  99.6  60.6  34260  291.26 0854.46
2009/04/23 16:07:57.4      76     24    190     80    206  72.3  75.9  34262  291.30 0854.46
2009/04/23 16:07:57.5      -1      8    119      9    119 350.3  90.0  34274  291.50 0854.46
2009/04/23 16:07:57.6      52      8    170     53    178  81.2  82.3  34270  291.43 0854.46
2009/04/23 16:07:57.7     185      3    191    186    266  89.0  50.9  34262  291.29 0854.46
2009/04/23 16:07:57.8     211      3    220    212    305  89.0  51.2  34266  291.36 0854.46
2009/04/23 16:07:57.9     272     18    155    273    313  86.1  32.1  34284  291.68 0854.46
2009/04/23 16:07:58.0     225     73    128    237    269  71.8  30.8  34314  292.19 0854.46
2009/04/23 16:07:58.1     138     14    149    139    203  83.9  52.1  34312  292.15 0854.46
2009/04/23 16:07:58.2     126    -62    159    141    212 116.2  54.0  34314  292.20 0854.46
2009/04/23 16:07:58.3      92     22     98     95    136  76.3  50.2  34310  292.13 0854.46
2009/04/23 16:07:58.4     -22    -27     89     36     96 219.7  77.1  34318  292.25 0854.46
2009/04/23 16:07:58.5     -23     67    167     71    181 340.8  75.9  34324  292.35 0854.46
2009/04/23 16:07:58.6      51     54    159     75    175  43.2  73.1  34310  292.12 0854.46
2009/04/23 16:07:58.7       8    106    138    107    174   4.5  58.5  34296  291.89 0854.46
2009/04/23 16:07:58.8      58     15    170     61    180  74.9  79.9  34304  292.01 0854.46
2009/04/23 16:07:58.9     -31     59    101     67    121 331.9  63.2  34300  291.95 0854.46
2009/04/23 16:07:59.0     -47     40    123     63    138 310.4  70.8  34300  291.95 0854.46
2009/04/23 16:07:59.1    -164    -41    153    170    228 255.8  46.9  34296  291.88 0854.46
2009/04/23 16:07:59.2     -55   -224    216    231    316 194.0  47.9  34270  291.43 0854.46
2009/04/23 16:07:59.3     -54   -322    268    327    422 189.6  43.7  34220  290.59 0854.48
2009/04/23 16:07:59.4    -109   -352    278    369    462 197.2  40.7  34204  290.31 0854.48
2009/04/23 16:07:59.5    -112   -350    240    368    439 197.8  36.2  34206  290.34 0854.48
2009/04/23 16:07:59.6    -164   -353    203    390    439 204.9  29.5  34200  290.24 0854.48
2009/04/23 16:07:59.7    -206   -340    133    398    420 211.3  18.5  34204  290.33 0854.48
2009/04/23 16:07:59.8    -177   -332    176    377    416 208.0  26.9  34202  290.29 0854.48
2009/04/23 16:07:59.9    -148   -232    140    276    309 212.5  29.1  34208  290.37 0854.48
2009/04/23 16:08:00.0     -17   -193    118    194    227 185.1  34.4  34210  290.43 0854.48
2009/04/23 16:08:00.1     -84   -172     11    192    193 206.1   3.3  34206  290.36 0854.48
2009/04/23 16:08:00.2     -34   -169     34    173    177 191.5  11.1  34212  290.47 0854.48
2009/04/23 16:08:00.3      -6   -172     61    173    184 182.0  19.6  34214  290.50 0854.48
2009/04/23 16:08:00.4     -55   -213    154    221    269 194.5  38.4  34232  290.80 0854.48
2009/04/23 16:08:00.5       0   -231    126    232    264 180.2  31.0  34244  291.00 0854.48
2009/04/23 16:08:00.6      42   -181    105    186    213 166.9  32.1  34226  290.70 0854.48
2009/04/23 16:08:00.7      65   -194    105    205    230 161.3  29.2  34232  290.81 0854.48
2009/04/23 16:08:00.8      12    -82     82     84    117 171.1  49.9  34250  291.09 0854.48
2009/04/23 16:08:00.9      43    -77     55     89    104 151.0  35.5  34276  291.54 0854.48
2009/04/23 16:08:01.0      35    -74     83     82    116 154.5  49.7  34286  291.71 0854.48
2009/04/23 16:08:01.1       6    -76    146     77    165 175.5  70.0  34264  291.35 0854.48
2009/04/23 16:08:01.2     -24    -91     89     95    130 194.7  48.0  34248  291.06 0854.48
2009/04/23 16:08:01.3      -6    -39     91     40     99 189.8  75.5  34254  291.16 0854.49
2009/04/23 16:08:01.4     -37     23     32     44     54 302.4  39.7  34260  291.28 0854.49
2009/04/23 16:08:01.5     -10    -18      8     21     22 209.0  21.0  34248  291.08 0854.49
2009/04/23 16:08:01.6     -33    -21      0     40     41 237.5  -0.3  34246  291.04 0854.49
2009/04/23 16:08:01.7      -1    -42      5     43     44 181.8   6.9  34244  291.01 0854.49
2009/04/23 16:08:01.8       0    -19     83     20     85 180.9  86.9  34228  290.74 0854.49
2009/04/23 16:08:01.9     -19    -31     30     37     47 212.5  43.7  34232  290.81 0854.49
2009/04/23 16:08:02.0      46    -68     34     83     89 145.7  23.0  34218  290.55 0854.49
2009/04/23 16:08:02.1      41   -152     58    158    168 164.9  21.0  34200  290.25 0854.49
2009/04/23 16:08:02.2      13   -200    110    201    229 176.2  31.3  34200  290.26 0854.49
2009/04/23 16:08:02.3    -105   -213     99    238    257 206.3  23.8  34206  290.34 0854.49
2009/04/23 16:08:02.4    -121   -231      3    261    262 207.6   0.8  34198  290.22 0854.49
2009/04/23 16:08:02.5    -120   -224     30    255    257 208.3   6.9  34202  290.27 0854.49
2009/04/23 16:08:02.6    -109   -240    -45    264    268 204.5  -9.8  34200  290.24 0854.49
2009/04/23 16:08:02.7     -56   -170   -108    180    209 198.3 -38.1  34200  290.25 0854.49
2009/04/23 16:08:02.8    -138   -169    -96    219    239 219.2 -29.5  34202  290.29 0854.49
2009/04/23 16:08:02.9     -51    -99     26    112    116 207.2  13.1  34198  290.21 0854.49
2009/04/23 16:08:03.0    -135    -16     16    137    139 263.0   6.9  34194  290.14 0854.49
2009/04/23 16:08:03.1     -96    -76      6    123    124 231.4   2.8  34196  290.18 0854.49
2009/04/23 16:08:03.2      61   -115    100    131    164 151.9  41.2  34198  290.21 0854.49
2009/04/23 16:08:03.3     155   -178    140    237    275 139.0  33.4  34170  289.75 0854.49
2009/04/23 16:08:03.4     113   -160    149    197    247 144.8  40.9  34128  289.04 0854.49
2009/04/23 16:08:03.5      51   -183    164    191    251 164.4  44.9  34154  289.46 0854.49
2009/04/23 16:08:03.6      -9   -217    127    218    252 182.6  33.1  34156  289.49 0854.49
2009/04/23 16:08:03.7    -134   -305     57    334    339 203.7   9.7  34152  289.45 0854.49
2009/04/23 16:08:03.8    -129   -318     21    344    345 202.1   3.6  34156  289.52 0854.49
2009/04/23 16:08:03.9     -78   -328    -20    338    339 193.5  -3.5  34158  289.55 0854.49
2009/04/23 16:08:04.0     172   -237     41    294    297 144.0   8.0  34168  289.71 0854.49
2009/04/23 16:08:04.1     139   -250     -1    287    288 151.0  -0.3  34178  289.88 0854.49
2009/04/23 16:08:04.2     208   -218     -5    302    303 136.3  -1.1  34162  289.61 0854.49
2009/04/23 16:08:04.3     240   -177     81    299    310 126.4  15.2  34164  289.64 0854.49
2009/04/23 16:08:04.4     125   -182     83    221    236 145.5  21.7  34152  289.43 0854.49
2009/04/23 16:08:04.5     177   -225     35    287    290 141.9   7.1  34146  289.32 0854.49
2009/04/23 16:08:04.6     279   -294     78    406    414 136.5  11.0  34152  289.43 0854.49
2009/04/23 16:08:04.7     183   -311     84    361    371 149.5  13.1  34142  289.28 0854.49
2009/04/23 16:08:04.8     112   -349     78    367    376 162.2  12.1  34162  289.60 0854.49
2009/04/23 16:08:04.9     116   -347    100    367    381 161.4  15.3  34158  289.54 0854.49
2009/04/23 16:08:05.0     151   -378     31    408    410 158.2   4.4  34158  289.55 0854.49
2009/04/23 16:08:05.1     129   -288     15    316    317 155.9   2.8  34160  289.56 0854.49
2009/04/23 16:08:05.2      50   -432    148    435    460 173.3  18.8  34158  289.53 0854.49
2009/04/23 16:08:05.3     116   -430    109    446    460 164.9  13.8  34152  289.43 0854.49
2009/04/23 16:08:05.4      67   -356    -65    363    369 169.3 -10.2  34152  289.42 0854.49
2009/04/23 16:08:05.5       4   -278      3    279    280 179.0   0.7  34152  289.42 0854.49
2009/04/23 16:08:05.6      28   -297     36    299    302 174.6   6.9  34152  289.42 0854.49
2009/04/23 16:08:05.7     -37   -205    120    209    241 190.2  32.4  34154  289.48 0854.49
2009/04/23 16:08:05.8     -48   -223    153    229    275 192.3  37.0  34160  289.56 0854.49
2009/04/23 16:08:05.9       7   -188    159    189    246 177.8  44.5  34158  289.55 0854.49
2009/04/23 16:08:06.0      46   -253    156    258    301 169.5  34.2  34158  289.53 0854.49
2009/04/23 16:08:06.1     -16   -172    150    173    228 185.3  45.4  34154  289.46 0854.49
2009/04/23 16:08:06.2      17   -170    192    171    257 174.0  53.7  34170  289.73 0854.49
2009/04/23 16:08:06.3      56   -206    224    214    309 164.8  51.2  34170  289.75 0854.49
2009/04/23 16:08:06.4      55   -441    310    445    542 172.8  38.3  34172  289.79 0854.49
2009/04/23 16:08:06.5      89   -530    256    538    595 170.4  27.3  34170  289.73 0854.49
2009/04/23 16:08:06.6     -49   -575    245    578    627 184.9  24.4  34182  289.95 0854.49
2009/04/23 16:08:06.7     -26   -411    332    412    529 183.6  43.0  34170  289.73 0854.49
2009/04/23 16:08:06.8       0   -309    201    310    369 179.9  35.7  34188  290.03 0854.49
2009/04/23 16:08:06.9    -189   -428    232    468    522 203.8  28.2  34178  289.88 0854.49
2009/04/23 16:08:07.0    -107   -352    331    369    495 196.9  46.6  34200  290.24 0854.49
2009/04/23 16:08:07.1     -14   -448    341    449    563 181.8  41.1  34150  289.41 0854.49
2009/04/23 16:08:07.2     106   -392    239    407    471 164.8  33.1  34156  289.49 0854.49
2009/04/23 16:08:07.3     -27   -445    155    446    473 183.5  19.2  34158  289.53 0854.46
2009/04/23 16:08:07.4     -52   -604     70    607    612 185.0   6.6  34148  289.36 0854.46
2009/04/23 16:08:07.5    -111   -511      4    524    525 192.3   0.5  34150  289.41 0854.46
2009/04/23 16:08:07.6    -236   -451     -7    510    511 207.7  -0.9  34154  289.47 0854.46
2009/04/23 16:08:07.7     -93   -441    138    451    472 192.0  17.1  34154  289.47 0854.46
2009/04/23 16:08:07.8     149   -334    110    366    383 155.9  16.8  34150  289.40 0854.46
2009/04/23 16:08:07.9      97   -360    111    374    391 164.9  16.6  34148  289.38 0854.46
2009/04/23 16:08:08.0     144   -306     64    339    346 154.7  10.8  34144  289.30 0854.46
2009/04/23 16:08:08.1     151   -231     97    277    293 146.8  20.0  34142  289.25 0854.46
2009/04/23 16:08:08.2      54   -174    139    183    229 162.6  41.2  34146  289.35 0854.46
2009/04/23 16:08:08.3    -107   -123     17    164    165 221.2   6.1  34152  289.45 0854.46
2009/04/23 16:08:08.4    -153    -31    -38    157    162 258.3 -13.7  34156  289.52 0854.46
2009/04/23 16:08:08.5    -136     12    -53    137    146 275.2 -26.4  34154  289.48 0854.46
2009/04/23 16:08:08.6    -113     82    -49    140    148 306.0 -23.8  34156  289.50 0854.46
2009/04/23 16:08:08.7    -157    153    -76    220    233 314.2 -19.1  34160  289.57 0854.46
2009/04/23 16:08:08.8    -156    137   -145    208    253 311.3 -42.8  34186  290.00 0854.46
2009/04/23 16:08:08.9     -47    203    -59    209    217 346.9 -20.2  34156  289.50 0854.46
2009/04/23 16:08:09.0     -65    152    -38    166    171 336.6 -13.2  34160  289.58 0854.46
2009/04/23 16:08:09.1     -55     45    -61     72     94 309.6 -49.2  34160  289.58 0854.46
2009/04/23 16:08:09.2      51    -32    -58     61     84 122.4 -53.4  34172  289.79 0854.46
2009/04/23 16:08:09.3     213   -200   -153    293    330 133.2 -34.2  34160  289.56 0854.49
2009/04/23 16:08:09.4     229   -196    -59    302    308 130.7 -11.1  34140  289.24 0854.49
2009/04/23 16:08:09.5     244   -148    -66    286    294 121.3 -13.2  34148  289.37 0854.49
2009/04/23 16:08:09.6     191    -82   -102    209    232 113.3 -31.8  34154  289.46 0854.49
2009/04/23 16:08:09.7     225   -107     12    250    251 115.5   2.9  34136  289.17 0854.49
2009/04/23 16:08:09.8     186   -155     69    243    253 129.8  16.0  34146  289.32 0854.49
2009/04/23 16:08:09.9     229   -122    166    260    308 118.0  35.6  34150  289.39 0854.49
2009/04/23 16:08:10.0     249    -21     34    250    253  95.0   7.8  34152  289.44 0854.49
2009/04/23 16:08:10.1     160    -60    104    172    200 110.6  34.0  34144  289.31 0854.49
2009/04/23 16:08:10.2      61      0    154     62    166  90.0  76.8  34160  289.58 0854.49
2009/04/23 16:08:10.3       9     53    112     54    124   9.8  72.4  34166  289.67 0854.49
2009/04/23 16:08:10.4     -11      8    113     14    113 306.0  90.0  34172  289.79 0854.49
2009/04/23 16:08:10.5     -14   -126    103    127    163 186.7  43.3  34148  289.36 0854.49
2009/04/23 16:08:10.6     -29   -110    117    114    163 195.2  50.7  34146  289.33 0854.49
2009/04/23 16:08:10.7      -9     18    115     21    116 332.8  90.0  34174  289.80 0854.49
2009/04/23 16:08:10.8     -79    -84    164    116    200 223.2  61.3  34164  289.65 0854.49
2009/04/23 16:08:10.9     -46    -70    155     84    176 213.4  69.3  34202  290.28 0854.49
2009/04/23 16:08:11.0    -129    -26     73    132    150 258.6  31.4  34198  290.21 0854.49
2009/04/23 16:08:11.1       5   -146     87    147    170 177.8  33.5  34174  289.82 0854.49
2009/04/23 16:08:11.2     -93   -244     99    262    280 200.9  21.5  34146  289.34 0854.49
2009/04/23 16:08:11.3     -76   -226    132    239    273 198.7  31.4  34150  289.41 0854.51
2009/04/23 16:08:11.4    -107   -132     94    171    195 219.0  31.4  34146  289.33 0854.51
2009/04/23 16:08:11.5    -142     57     98    154    182 291.8  35.5  34170  289.75 0854.51
2009/04/23 16:08:11.6    -158     12     72    159    174 274.4  26.2  34170  289.74 0854.51
2009/04/23 16:08:11.7    -188    -38      9    192    193 258.5   2.9  34174  289.80 0854.51
2009/04/23 16:08:11.8    -165   -122     28    206    208 233.6   7.8  34180  289.92 0854.51
2009/04/23 16:08:11.9    -236    -47     79    241    254 258.5  18.1  34176  289.85 0854.51
2009/04/23 16:08:12.0    -248     16     -9    249    250 273.9  -2.1  34160  289.56 0854.51
2009/04/23 16:08:12.1    -149    -30    -13    152    153 258.5  -5.1  34168  289.70 0854.51
2009/04/23 16:08:12.2    -162    -12     90    163    186 265.6  31.3  34168  289.70 0854.51
2009/04/23 16:08:12.3    -155    -54     76    165    181 250.7  26.4  34174  289.82 0854.51
2009/04/23 16:08:12.4    -124    -74     54    145    154 239.3  20.9  34184  289.97 0854.51
2009/04/23 16:08:12.5     -87   -101    -40    134    139 220.5 -21.7  34172  289.79 0854.51
2009/04/23 16:08:12.6     -76   -158     61    176    187 205.6  19.2  34196  290.18 0854.51
2009/04/23 16:08:12.7     -41   -169    118    175    211 193.8  37.3  34204  290.33 0854.51
2009/04/23 16:08:12.8     -39   -188    158    193    249 191.8  43.7  34210  290.41 0854.51
2009/04/23 16:08:12.9    -133   -262    218    294    366 207.0  40.2  34224  290.67 0854.51
2009/04/23 16:08:13.0    -121   -213    201    246    317 209.6  43.4  34212  290.44 0854.51
2009/04/23 16:08:13.1     -28   -317    112    319    339 185.2  19.4  34178  289.89 0854.51
2009/04/23 16:08:13.3      94   -281    151    297    333 161.5  29.1  34166  289.68 0854.51
2009/04/23 16:08:13.3      74   -179     96    194    216 157.5  28.2  34158  289.55 0854.48
2009/04/23 16:08:13.5      12   -133    150    134    201 174.7  53.7  34190  290.08 0854.48
2009/04/23 16:08:13.6     -80    -91    120    122    171 221.4  50.0  34218  290.57 0854.48
2009/04/23 16:08:13.7     -96   -173    157    198    252 209.0  42.7  34220  290.59 0854.48
2009/04/23 16:08:13.8     -80   -221    160    236    285 200.0  37.4  34200  290.24 0854.48
2009/04/23 16:08:13.9    -164   -256     85    305    317 212.6  15.7  34174  289.80 0854.48
2009/04/23 16:08:14.0    -108   -271      4    293    294 201.8   0.8  34168  289.70 0854.48
2009/04/23 16:08:14.1    -193   -231    251    302    392 219.9  44.0  34258  291.23 0854.48
2009/04/23 16:08:14.2    -113   -292    222    314    384 201.2  38.8  34218  290.54 0854.48
2009/04/23 16:08:14.3    -150   -454    284    479    556 198.3  33.5  34198  290.21 0854.48
2009/04/23 16:08:14.4    -170   -473    101    503    514 199.8  11.4  34178  289.86 0854.48
2009/04/23 16:08:14.5    -163   -391    122    424    442 202.7  16.0  34196  290.17 0854.48
2009/04/23 16:08:14.6    -185   -347    139    394    419 208.1  19.5  34198  290.21 0854.48
2009/04/23 16:08:14.7     -68   -340    357    347    497 191.3  50.9  34186  290.00 0854.48
2009/04/23 16:08:14.8    -213   -445    233    494    546 205.6  27.1  34178  289.89 0854.48
2009/04/23 16:08:14.9    -237   -504    118    558    571 205.2  12.0  34178  289.87 0854.48
2009/04/23 16:08:15.0    -157   -507    203    531    568 197.3  22.1  34202  290.28 0854.48
2009/04/23 16:08:15.1     106   -445    220    458    508 166.6  27.4  34192  290.13 0854.48
2009/04/23 16:08:15.2     106   -446    292    459    544 166.6  35.5  34160  289.56 0854.48
2009/04/23 16:08:15.3      69   -477    228    483    534 171.7  27.1  34190  290.08 0854.48
2009/04/23 16:08:15.4     120   -502    303    517    599 166.5  33.3  34212  290.46 0854.49
2009/04/23 16:08:15.5      32   -450    228    452    506 175.9  28.9  34208  290.37 0854.49
2009/04/23 16:08:15.6      -8   -441    175    442    475 181.2  22.8  34218  290.56 0854.49
2009/04/23 16:08:15.7       0   -462    145    463    486 180.0  17.4  34214  290.49 0854.49
2009/04/23 16:08:15.8     -75   -383    104    391    405 191.1  15.0  34188  290.03 0854.49
2009/04/23 16:08:15.9    -118   -261    122    287    311 204.3  24.3  34182  289.93 0854.49
2009/04/23 16:08:16.0    -121   -226    110    257    279 208.3  24.6  34168  289.71 0854.49
2009/04/23 16:08:16.1     -63   -376    197    382    429 189.6  29.3  34182  289.94 0854.49
2009/04/23 16:08:16.2     150   -409    329    436    546 159.8  40.7  34182  289.95 0854.49
2009/04/23 16:08:16.3     172   -282    171    331    372 148.6  29.4  34168  289.71 0854.49
2009/04/23 16:08:16.4     253   -194    328    319    457 127.5  50.9  34184  289.97 0854.50
2009/04/23 16:08:16.5     256   -532    281    591    654 154.2  27.3  34148  289.38 0854.50
2009/04/23 16:08:16.6     253   -358    237    439    498 144.8  30.8  34146  289.34 0854.50
2009/04/23 16:08:16.7     153   -308    249    345    425 153.5  39.5  34154  289.48 0854.50
2009/04/23 16:08:16.8     161   -391    201    423    468 157.6  27.3  34152  289.44 0854.50
2009/04/23 16:08:16.9     159   -492    281    518    589 162.1  30.8  34156  289.50 0854.50
2009/04/23 16:08:17.0       0   -443    218    444    494 179.9  28.2  34160  289.56 0854.50
2009/04/23 16:08:17.1     114   -375    196    393    439 163.1  28.4  34150  289.39 0854.50
2009/04/23 16:08:17.2      96   -321    232    336    408 163.3  37.8  34158  289.54 0854.50
2009/04/23 16:08:17.3      54   -433    254    437    505 172.9  32.9  34156  289.50 0854.50
2009/04/23 16:08:17.4      68   -438    199    444    486 171.2  25.8  34142  289.27 0854.50
2009/04/23 16:08:17.5      60   -397    173    402    437 171.3  24.8  34150  289.41 0854.50
2009/04/23 16:08:17.6    -148   -345     88    376    387 203.2  13.2  34152  289.42 0854.50
2009/04/23 16:08:17.7    -121   -303     42    327    330 201.9   7.5  34154  289.47 0854.50
2009/04/23 16:08:17.8      20   -159    -32    161    165 172.7 -11.3  34156  289.52 0854.50
2009/04/23 16:08:17.9      27   -102     80    106    132 164.9  41.6  34162  289.60 0854.50
2009/04/23 16:08:18.0     -14   -190    155    191    245 184.4  43.5  34162  289.60 0854.50
2009/04/23 16:08:18.1      74   -174     92    190    211 157.1  27.4  34156  289.52 0854.50
2009/04/23 16:08:18.2     260   -332     82    422    430 141.9  11.0  34154  289.48 0854.50
2009/04/23 16:08:18.3     181   -302     11    353    354 149.1   1.8  34152  289.42 0854.50
2009/04/23 16:08:18.4     190   -303    -19    358    359 147.9  -3.1  34150  289.40 0854.46
2009/04/23 16:08:18.5     124   -259    -47    288    292 154.4  -9.4  34156  289.49 0854.46
2009/04/23 16:08:18.6     121   -212      2    245    246 150.4   0.5  34148  289.37 0854.46
2009/04/23 16:08:18.7     295   -313    162    431    460 136.7  21.6  34150  289.39 0854.46
2009/04/23 16:08:18.8     131   -376    214    399    452 160.8  30.5  34150  289.39 0854.46
2009/04/23 16:08:18.9      73   -455    228    461    514 170.8  28.2  34152  289.45 0854.46
2009/04/23 16:08:19.0     148   -496    267    518    582 163.3  29.3  34142  289.28 0854.46
2009/04/23 16:08:19.1     156   -531    289    554    624 163.6  29.8  34148  289.37 0854.46
2009/04/23 16:08:19.2     110   -589    242    600    646 169.4  23.2  34152  289.45 0854.46
2009/04/23 16:08:19.3     184   -595    149    623    641 162.8  13.5  34148  289.37 0854.46
2009/04/23 16:08:19.4      47   -522    223    525    570 174.8  24.5  34146  289.33 0854.46
2009/04/23 16:08:19.5     -25   -416    313    417    521 183.5  40.7  34152  289.44 0854.46
2009/04/23 16:08:19.6       2   -406    239    407    471 179.7  33.1  34154  289.48 0854.46
2009/04/23 16:08:19.7      12   -379    186    380    423 178.1  28.0  34150  289.41 0854.46
2009/04/23 16:08:19.8       2   -425    189    426    466 179.7  25.3  34152  289.43 0854.46
2009/04/23 16:08:19.9      30   -478    115    479    493 176.4  13.5  34150  289.39 0854.46
2009/04/23 16:08:20.0     -27   -417    171    418    451 183.7  23.4  34150  289.41 0854.46
2009/04/23 16:08:20.1     -88   -367    121    378    398 193.6  17.8  34148  289.38 0854.46
2009/04/23 16:08:20.2     -49   -332    150    336    367 188.5  25.8  34152  289.42 0854.46
2009/04/23 16:08:20.3       0   -246    148    247    287 180.0  33.5  34154  289.46 0854.46
2009/04/23 16:08:20.4     -16   -147    132    148    198 186.2  46.4  34154  289.46 0854.40
2009/04/23 16:08:20.5     -11   -145     97    146    175 184.4  36.5  34154  289.46 0854.40
2009/04/23 16:08:20.6      63   -106    156    124    199 149.3  57.7  34166  289.67 0854.40
2009/04/23 16:08:20.7     121   -121    170    172    241 135.0  50.0  34166  289.67 0854.40
2009/04/23 16:08:20.8      67   -106    140    126    188 147.5  53.3  34166  289.67 0854.40
2009/04/23 16:08:20.9       3   -199    131    200    239 178.9  36.5  34158  289.53 0854.40
2009/04/23 16:08:21.0     -83   -159    110    180    210 207.6  34.4  34150  289.41 0854.40
2009/04/23 16:08:21.1    -150   -117    113    191    221 232.2  33.5  34160  289.58 0854.40
2009/04/23 16:08:21.2    -258   -156     53    302    307 238.7  10.1  34170  289.73 0854.40
2009/04/23 16:08:21.3    -269    -92    116    285    307 251.0  23.1  34182  289.93 0854.40
2009/04/23 16:08:21.4    -267    -97    132    285    314 250.0  26.5  34182  289.93 0854.40
2009/04/23 16:08:21.5    -325   -121     93    348    361 249.5  15.0  34194  290.15 0854.40
2009/04/23 16:08:21.6    -159   -157     54    224    231 225.3  13.7  34174  289.80 0854.40
2009/04/23 16:08:21.7    -239    -61    -18    247    248 255.6  -4.4  34176  289.83 0854.40
2009/04/23 16:08:21.8    -293   -146    -25    328    329 243.4  -4.4  34168  289.72 0854.40
2009/04/23 16:08:21.9    -371   -189    -28    417    418 242.9  -3.9  34162  289.60 0854.40
2009/04/23 16:08:22.0    -385   -166    -32    420    422 246.6  -4.4  34186  290.00 0854.40
2009/04/23 16:08:22.1    -370   -277    127    463    481 233.2  15.4  34188  290.03 0854.40
2009/04/23 16:08:22.2    -324   -237     86    402    412 233.8  12.1  34186  290.02 0854.40
2009/04/23 16:08:22.3    -326   -293    -61    439    444 228.1  -7.9  34162  289.60 0854.40
2009/04/23 16:08:22.4    -286   -230     14    368    369 231.1   2.2  34162  289.62 0854.35
2009/04/23 16:08:22.5    -363   -295    213    468    514 230.9  26.2  34198  290.23 0854.35
2009/04/23 16:08:22.6    -212   -344    113    405    421 211.7  15.6  34184  289.99 0854.35
2009/04/23 16:08:22.7    -195   -329    137    383    406 210.7  20.4  34204  290.33 0854.35
2009/04/23 16:08:22.8     -59   -267    203    274    341 192.5  40.0  34204  290.31 0854.35
2009/04/23 16:08:22.9    -222   -251    191    336    386 221.4  32.1  34184  289.99 0854.35
2009/04/23 16:08:23.0    -250   -323    148    409    434 217.8  20.9  34182  289.95 0854.35
2009/04/23 16:08:23.1    -438   -225     64    493    498 242.8   7.4  34208  290.39 0854.35
2009/04/23 16:08:23.2    -523   -265    -93    587    595 243.1  -9.0  34202  290.29 0854.35
2009/04/23 16:08:23.3    -534   -267     24    598    599 243.4   2.3  34212  290.46 0854.35
2009/04/23 16:08:23.4    -338   -278    166    438    468 230.5  21.7  34214  290.48 0854.35
2009/04/23 16:08:23.5    -285   -372    180    469    502 217.5  22.1  34214  290.49 0854.35
2009/04/23 16:08:23.6    -118   -320    230    342    412 200.3  37.3  34192  290.13 0854.35
2009/04/23 16:08:23.7    -166   -237    227    290    368 215.0  42.0  34222  290.62 0854.35
2009/04/23 16:08:23.8    -366   -239    131    438    458 236.9  16.6  34224  290.67 0854.35
2009/04/23 16:08:23.9    -307   -124    -59    332    338 248.0 -10.2  34198  290.21 0854.35
2009/04/23 16:08:24.0     202   -254    -21    325    326 141.5  -3.8  34186  290.00 0854.35
2009/04/23 16:08:24.1     -42   -209     75    214    227 191.6  19.4  34178  289.87 0854.35
2009/04/23 16:08:24.2       5    -73     41     74     84 175.5  31.9  34180  289.91 0854.35
2009/04/23 16:08:24.3     -42   -116    138    124    185 200.0  53.5  34198  290.21 0854.35
2009/04/23 16:08:24.4     -75    -69    130    103    165 227.3  57.7  34200  290.26 0854.34
2009/04/23 16:08:24.5    -136   -217    113    257    280 212.1  25.2  34196  290.19 0854.34
2009/04/23 16:08:24.6    -202   -177     52    269    275 228.7  11.1  34198  290.20 0854.34
2009/04/23 16:08:24.7    -164   -124     93    206    226 232.9  26.2  34222  290.64 0854.34
2009/04/23 16:08:24.8    -161   -127     10    206    207 231.6   2.9  34230  290.77 0854.34
2009/04/23 16:08:24.9    -149   -147      2    210    211 225.3   0.8  34224  290.65 0854.34
2009/04/23 16:08:25.0    -178   -153    -74    236    247 229.3 -22.5  34234  290.82 0854.34
2009/04/23 16:08:25.1    -140   -182   -139    230    268 217.6 -38.6  34236  290.87 0854.34
2009/04/23 16:08:25.2    -120   -188   -157    224    273 212.6 -42.9  34208  290.39 0854.34
2009/04/23 16:08:25.3     -85   -117    -42    145    150 216.1 -20.7  34202  290.28 0854.34
2009/04/23 16:08:25.4      43   -192     48    197    203 167.1  13.9  34210  290.43 0854.34
2009/04/23 16:08:25.5      -8   -267     52    268    274 181.8  11.1  34222  290.61 0854.34
2009/04/23 16:08:25.6     -62   -306     16    313    314 191.5   3.0  34210  290.41 0854.34
2009/04/23 16:08:25.7      38   -175     74    180    194 167.7  23.6  34202  290.30 0854.34
2009/04/23 16:08:25.8     133   -129     94    186    208 134.2  29.1  34200  290.26 0854.34
2009/04/23 16:08:25.9     104    -66    177    124    216 122.5  61.3  34206  290.36 0854.34
2009/04/23 16:08:26.0      11    -35    192     37    195 161.7  89.8  34206  290.35 0854.34
2009/04/23 16:08:26.1     -21    -15    151     27    153 234.0  90.0  34202  290.28 0854.34
2009/04/23 16:08:26.2       9      4    145     11    145  64.7  90.0  34210  290.41 0854.34
2009/04/23 16:08:26.3     109    -36    146    115    185 108.4  57.9  34186  290.02 0854.34
2009/04/23 16:08:26.4      21      0    134     22    135  90.0  90.0  34190  290.08 0854.36
2009/04/23 16:08:26.5     -20     45    123     50    132 335.5  77.1  34210  290.41 0854.36
2009/04/23 16:08:26.6     209    -35    198    213    290  99.7  47.9  34192  290.10 0854.36
2009/04/23 16:08:26.7     247     64    216    256    334  75.4  44.4  34162  289.59 0854.36
2009/04/23 16:08:26.8      90     47    191    102    216  62.0  69.8  34190  290.09 0854.36
2009/04/23 16:08:26.9      -7     24    108     26    111 343.1  86.9  34212  290.47 0854.36
2009/04/23 16:08:27.0     -51     60    113     79    137 319.5  61.5  34210  290.41 0854.36
2009/04/23 16:08:27.1     -37     76    108     85    137 333.7  57.9  34188  290.04 0854.36
2009/04/23 16:08:27.2      -2     37     98     38    105 355.6  77.6  34216  290.53 0854.36
2009/04/23 16:08:27.3      -2     92    127     93    157 358.6  60.3  34226  290.69 0854.36
2009/04/23 16:08:27.4      -5     92    104     93    139 356.9  53.3  34216  290.53 0854.36
2009/04/23 16:08:27.5     -38     94    105    102    146 338.1  50.7  34196  290.18 0854.36
2009/04/23 16:08:27.6     -12     62     58     64     86 348.4  47.5  34186  290.02 0854.36
2009/04/23 16:08:27.7     -45     54     85     71    110 320.3  56.3  34188  290.06 0854.36
2009/04/23 16:08:27.8      63     20     79     67    103  71.8  55.4  34202  290.28 0854.36
2009/04/23 16:08:27.9      41     16     98     45    107  68.3  73.5  34202  290.30 0854.36
2009/04/23 16:08:28.0      60     45    123     76    144  53.1  64.7  34212  290.47 0854.36
2009/04/23 16:08:28.1     205     25    132    207    245  82.8  35.5  34192  290.10 0854.36
2009/04/23 16:08:28.2      37     36    119     52    129  46.0  75.0  34208  290.40 0854.36
2009/04/23 16:08:28.3     -19     23    117     30    120 320.4  85.9  34216  290.53 0854.36
2009/04/23 16:08:28.4      -3      4    101      6    101 320.4  90.0  34218  290.55 0854.37
2009/04/23 16:08:28.5       8    -12    139     15    139 147.4  90.0  34222  290.64 0854.37
2009/04/23 16:08:28.6      50     60    148     79    167  39.7  69.8  34242  290.98 0854.37
2009/04/23 16:08:28.7      55     10    137     56    148  79.4  77.0  34256  291.21 0854.37
2009/04/23 16:08:28.8     -20    -45    102     50    113 203.6  72.4  34250  291.11 0854.37
2009/04/23 16:08:28.9     -35     64     91     74    117 331.0  56.4  34240  290.92 0854.37
2009/04/23 16:08:29.0     -79    -53    131     96    162 236.3  60.3  34240  290.94 0854.37
2009/04/23 16:08:29.1    -112    -60    140    128    189 241.6  52.7  34254  291.18 0854.37
2009/04/23 16:08:29.2     -35    -38     85     52     99 222.3  65.7  34232  290.79 0854.37
2009/04/23 16:08:29.3     -19     26    -33     33     46 323.9 -54.5  34212  290.45 0854.37
2009/04/23 16:08:29.4      86     -9    108     87    138  96.6  56.9  34198  290.21 0854.37
2009/04/23 16:08:29.5      75     43    101     87    133  60.2  54.3  34202  290.30 0854.37
2009/04/23 16:08:29.6      55     26    116     61    131  64.7  70.8  34210  290.41 0854.37
2009/04/23 16:08:29.7      10     28    111     30    114  20.0  84.8  34238  290.89 0854.37
2009/04/23 16:08:29.8     -20     -6    106     21    108 253.2  89.1  34218  290.55 0854.37
2009/04/23 16:08:29.9     134     86     83    160    180  57.1  29.5  34212  290.45 0854.37
2009/04/23 16:08:30.0     143     27    116    146    186  79.0  43.0  34216  290.53 0854.37
2009/04/23 16:08:30.1      51     37     86     64    107  54.1  60.0  34220  290.58 0854.37
2009/04/23 16:08:30.2      24      2     65     25     69  83.9  78.2  34234  290.82 0854.37
2009/04/23 16:08:30.3      31     31     51     45     68  45.0  52.2  34244  290.99 0854.38
2009/04/23 16:08:30.4      45     37     71     59     92  50.4  56.3  34242  290.96 0854.38
2009/04/23 16:08:30.5       2     33     73     34     80   4.5  73.5  34252  291.13 0854.38
2009/04/23 16:08:30.6     -14     42     65     45     79 341.5  62.1  34258  291.25 0854.38
2009/04/23 16:08:30.7       2     28     32     29     43   4.4  52.2  34252  291.13 0854.38
2009/04/23 16:08:30.8       6     44     48     45     65   8.9  52.1  34256  291.20 0854.38
2009/04/23 16:08:30.9     -53    -25     -9     59     60 244.6  -9.3  34276  291.54 0854.38
2009/04/23 16:08:31.0      16     82     38     84     92  11.6  26.2  34268  291.40 0854.38
2009/04/23 16:08:31.1      -8    154     57    155    165 356.9  20.7  34246  291.03 0854.38
2009/04/23 16:08:31.2      76     -5     87     77    116  94.3  53.7  34256  291.21 0854.38
2009/04/23 16:08:31.3     106     28    106    110    152  74.9  49.4  34262  291.32 0854.38
2009/04/23 16:08:31.4      89    101    176    135    221  41.4  58.5  34262  291.30 0854.38
2009/04/23 16:08:31.5      90     74    109    117    159  50.4  47.9  34264  291.33 0854.38
2009/04/23 16:08:31.6     103     35     86    110    139  70.9  41.7  34276  291.54 0854.38
2009/04/23 16:08:31.7     109     36    109    116    159  71.4  48.2  34296  291.88 0854.38
2009/04/23 16:08:31.8      -1     31    100     32    105 357.3  80.7  34312  292.15 0854.38
2009/04/23 16:08:31.9       7    110    100    111    149   4.0  46.9  34290  291.79 0854.38
2009/04/23 16:08:32.0      79    123     76    147    165  32.6  29.5  34298  291.93 0854.38
2009/04/23 16:08:32.1      62    120     59    136    148  27.2  25.1  34318  292.27 0854.38
2009/04/23 16:08:32.2     137    129    122    189    224  46.9  35.6  34330  292.47 0854.38
2009/04/23 16:08:32.3     182    178     42    255    259  45.6   9.3  34336  292.57 0854.41
2009/04/23 16:08:32.4      70    159     84    174    193  23.8  27.4  34334  292.52 0854.41
2009/04/23 16:08:32.5     108    212     65    238    247  27.0  15.3  34334  292.53 0854.41
2009/04/23 16:08:32.6      65    192     65    203    214  18.7  17.9  34306  292.06 0854.41
2009/04/23 16:08:32.7      80    199     -8    215    216  21.9  -2.3  34316  292.22 0854.41
2009/04/23 16:08:32.8      67    243    -65    253    262  15.6 -14.5  34282  291.65 0854.41
2009/04/23 16:08:32.9      43    348    -17    351    352   7.1  -2.8  34242  290.98 0854.41
2009/04/23 16:08:33.0     -36    346    -13    348    349 353.9  -2.3  34258  291.25 0854.41
2009/04/23 16:08:33.1       0    411     66    412    418 359.9   9.2  34336  292.57 0854.41
2009/04/23 16:08:33.2      66    383    122    389    408   9.9  17.5  34338  292.61 0854.41
2009/04/23 16:08:33.3      12    358     41    359    362   2.0   6.6  34294  291.85 0854.41
2009/04/23 16:08:33.4      15    329     84    330    341   2.7  14.3  34324  292.37 0854.41
2009/04/23 16:08:33.5      34    243    148    246    287   8.1  34.0  34342  292.65 0854.41
2009/04/23 16:08:33.6      88    167    157    190    246  27.9  43.8  34338  292.61 0854.41
2009/04/23 16:08:33.7      50    145    127    154    199  19.2  43.7  34354  292.86 0854.41
2009/04/23 16:08:33.8     207     90    112    227    253  66.4  28.2  34320  292.28 0854.41
2009/04/23 16:08:33.9     243     84     77    258    270  70.9  16.6  34378  293.27 0854.41
2009/04/23 16:08:34.0     306     99    169    322    363  72.1  29.8  34412  293.87 0854.41
2009/04/23 16:08:34.1     236    157    201    284    347  56.3  38.8  34360  292.98 0854.41
2009/04/23 16:08:34.2     279    392    165    482    510  35.4  18.9  34242  290.98 0854.41
2009/04/23 16:08:34.3     399    236    161    464    492  59.4  19.2  34314  292.19 0854.41
2009/04/23 16:08:34.4     319    332    112    461    475  43.8  13.7  34276  291.54 0854.43
2009/04/23 16:08:34.5     352    354     83    500    507  44.8   9.4  34240  290.93 0854.43
2009/04/23 16:08:34.6     182    484     15    518    519  20.6   1.7  34212  290.44 0854.43
2009/04/23 16:08:34.7      90    522     15    530    531   9.8   1.7  34206  290.36 0854.43
2009/04/23 16:08:34.8     152    356    -53    388    392  23.2  -7.9  34204  290.33 0854.43
2009/04/23 16:08:34.9     176    269   -102    322    338  33.2 -17.7  34240  290.93 0854.43
2009/04/23 16:08:35.0      25    146    -42    149    154   9.8 -20.7  34292  291.83 0854.43
2009/04/23 16:08:35.1    -105    316   -166    334    372 341.5 -32.8  34202  290.30 0854.43
2009/04/23 16:08:35.2    -111    234    -70    260    270 334.5 -15.2  34216  290.53 0854.43
2009/04/23 16:08:35.3     -80    191    -45    208    213 337.3 -12.4  34238  290.91 0854.43
2009/04/23 16:08:35.4    -142    283    -64    317    324 333.3 -11.6  34252  291.12 0854.43
2009/04/23 16:08:35.5     -43    305    -12    309    310 351.9  -2.2  34246  291.04 0854.43
2009/04/23 16:08:35.6     -35    361    -30    363    365 354.4  -4.9  34226  290.69 0854.43
2009/04/23 16:08:35.7      23    450   -110    451    465   3.0 -13.8  34186  290.00 0854.43
2009/04/23 16:08:35.8     224    338   -128    406    426  33.6 -17.6  34190  290.09 0854.43
2009/04/23 16:08:35.9     146    242   -111    283    303  31.2 -27.2  34184  289.98 0854.43
2009/04/23 16:08:36.0      96    289    -43    305    309  18.5  -8.1  34178  289.88 0854.43
2009/04/23 16:08:36.1    -158    415    -60    445    449 339.1  -7.7  34182  289.95 0854.43
2009/04/23 16:08:36.2     -53    579    -91    582    590 354.7  -8.9  34168  289.71 0854.43
2009/04/23 16:08:36.3    -156    620    -91    640    647 345.8  -8.1  34172  289.79 0854.43
2009/04/23 16:08:36.4     -13    520    -20    521    522 358.5  -2.2  34164  289.65 0854.44
2009/04/23 16:08:36.5      87    443    -58    452    456  11.2  -7.3  34172  289.78 0854.44
2009/04/23 16:08:36.6      64    427     -9    432    433   8.6  -1.3  34176  289.85 0854.44
2009/04/23 16:08:36.7     201    394     52    443    447  27.0   6.7  34172  289.78 0854.44
2009/04/23 16:08:36.8     214    452    116    501    515  25.3  13.1  34248  291.07 0854.44
2009/04/23 16:08:36.9     393    392    197    556    590  45.1  19.5  34332  292.50 0854.44
2009/04/23 16:08:37.0     395    328    288    514    589  50.3  31.7  34294  291.86 0854.44
2009/04/23 16:08:37.1     318    208    298    381    483  56.8  42.0  34306  292.06 0854.44
2009/04/23 16:08:37.2     257    237    110    350    367  47.3  17.5  34250  291.10 0854.44
2009/04/23 16:08:37.3     294    530     44    607    609  29.0   4.2  34226  290.68 0854.44
2009/04/23 16:08:37.5     398    652   -171    765    784  31.4 -12.6  34136  289.17 0854.45
2009/04/23 16:08:37.5     362    659    -51    752    754  28.8  -3.9  34146  289.34 0854.45
2009/04/23 16:08:37.6     289    565    -49    635    638  27.1  -4.5  34130  289.06 0854.45
2009/04/23 16:08:37.7     223    634    -61    673    676  19.4  -5.2  34118  288.87 0854.45
2009/04/23 16:08:37.8     155    611    -56    631    634  14.3  -5.1  34122  288.93 0854.45
2009/04/23 16:08:37.9     261    552    -39    611    613  25.3  -3.7  34104  288.64 0854.45
2009/04/23 16:08:38.0     262    564     35    622    623  24.9   3.3  34110  288.71 0854.45
2009/04/23 16:08:38.1     242    526     10    580    581  24.7   1.0  34114  288.78 0854.45
2009/04/23 16:08:38.2     200    557     52    593    596  19.8   5.1  34112  288.75 0854.45
2009/04/23 16:08:38.3     178    571    -51    599    602  17.3  -4.9  34124  288.95 0854.45
2009/04/23 16:08:38.4     108    439   -131    453    472  13.8 -16.2  34134  289.12 0854.45
2009/04/23 16:08:38.5      45    379   -106    382    397   6.8 -15.5  34136  289.15 0854.45
2009/04/23 16:08:38.6       7    385    -42    386    389   1.2  -6.3  34134  289.13 0854.45
2009/04/23 16:08:38.7       5    355    -41    356    359   0.9  -6.6  34130  289.08 0854.45
2009/04/23 16:08:38.8      12    270     94    271    287   2.7  19.2  34240  290.92 0854.45
2009/04/23 16:08:38.9     -30    277    107    279    298 353.7  22.0  34246  291.04 0854.45
2009/04/23 16:08:39.0     152    332     78    366    375  24.6  12.2  34244  291.00 0854.45
2009/04/23 16:08:39.1     247    262    -11    361    362  43.3  -1.8  34234  290.83 0854.45
2009/04/23 16:08:39.2     366    207     13    421    422  60.5   1.8  34158  289.53 0854.45
2009/04/23 16:08:39.3     359    260     87    444    453  54.1  11.1  34204  290.33 0854.45
2009/04/23 16:08:39.4     275    309     88    414    424  41.7  12.1  34258  291.23 0854.46
2009/04/23 16:08:39.6     290    322    105    434    447  42.0  13.7  34272  291.48 0854.46
2009/04/23 16:08:39.6     346    351     78    493    500  44.6   9.0  34274  291.51 0854.46
2009/04/23 16:08:39.8     289    469     16    551    552  31.6   1.7  34134  289.14 0854.46
2009/04/23 16:08:39.9     106    544    -94    555    563  11.1  -9.7  34118  288.87 0854.46
2009/04/23 16:08:40.0     178    563     -2    591    592  17.6  -0.3  34130  289.08 0854.46
2009/04/23 16:08:40.1      75    696     87    701    707   6.2   7.1  34168  289.72 0854.46
2009/04/23 16:08:40.2      80    697    172    702    723   6.6  13.8  34278  291.56 0854.46
2009/04/23 16:08:40.3      66    768     89    772    778   5.0   6.6  34264  291.34 0854.46
2009/04/23 16:08:40.4     296    495    293    578    648  30.9  28.9  34404  293.74 0854.46
2009/04/23 16:08:40.5     308    367    304    480    568  40.0  35.5  34304  292.01 0854.46
2009/04/23 16:08:40.6     259    304     20    400    401  40.5   2.9  34294  291.86 0854.46
2009/04/23 16:08:40.7     154    545    166    567    591  15.8  16.4  34298  291.90 0854.46
2009/04/23 16:08:40.8     406    368    201    548    583  47.8  21.0  34350  292.79 0854.46
2009/04/23 16:08:40.9     471    368     19    598    599  52.0   1.9  34332  292.48 0854.46
2009/04/23 16:08:41.0     313    858    179    914    932  20.1  11.1  34184  289.99 0854.46
2009/04/23 16:08:41.1     191    802    154    825    840  13.4  10.6  34130  289.08 0854.46
2009/04/23 16:08:41.2      85    743     94    748    754   6.6   7.2  34144  289.31 0854.46
2009/04/23 16:08:41.3     -27    737    -20    738    739 357.9  -1.6  34182  289.94 0854.46
2009/04/23 16:08:41.4      57    696    150    699    716   4.7  12.1  34134  289.13 0854.45
2009/04/23 16:08:41.5     214    644    113    679    689  18.4   9.5  34138  289.19 0854.45
2009/04/23 16:08:41.6     183    637    142    663    679  16.1  12.2  34136  289.17 0854.45
2009/04/23 16:08:41.7     130    610    127    624    638  12.1  11.6  34142  289.25 0854.45
2009/04/23 16:08:41.8     168    568    127    593    607  16.5  12.2  34142  289.27 0854.45
2009/04/23 16:08:41.9     195    589    109    621    631  18.3  10.0  34152  289.43 0854.45
2009/04/23 16:08:42.0     213    545    100    586    595  21.4   9.7  34140  289.24 0854.45
2009/04/23 16:08:42.1     131    641     58    655    658  11.6   5.1  34154  289.48 0854.45
2009/04/23 16:08:42.2     431    577    254    721    764  36.7  20.2  34304  292.01 0854.45
2009/04/23 16:08:42.3     373    599     71    706    710  31.9   5.8  34240  290.93 0854.45
2009/04/23 16:08:42.4     261    625     47    678    680  22.7   4.0  34146  289.34 0854.45
2009/04/23 16:08:42.5     310    513     66    600    604  31.1   6.4  34210  290.41 0854.45
2009/04/23 16:08:42.6     242    456    -11    517    518  28.0  -1.3  34168  289.71 0854.45
2009/04/23 16:08:42.7     248    465    -39    528    530  28.1  -4.2  34218  290.55 0854.45
2009/04/23 16:08:42.8     285    292    105    409    423  44.3  14.4  34242  290.95 0854.45
2009/04/23 16:08:42.9     338    359     64    494    499  43.3   7.5  34228  290.71 0854.45
2009/04/23 16:08:43.0     350    160    134    386    409  65.4  19.2  34240  290.93 0854.45
2009/04/23 16:08:43.1     292    144    132    326    351  63.7  23.2  34270  291.45 0854.45
2009/04/23 16:08:43.2     268    125    -60    297    303  64.9 -11.5  34262  291.29 0854.45
2009/04/23 16:08:43.3     337    228     16    407    408  55.9   2.4  34280  291.60 0854.45
2009/04/23 16:08:43.4     619    399     23    737    738  57.2   1.8  34252  291.14 0854.43
2009/04/23 16:08:43.5     486    406    -48    634    636  50.1  -4.4  34224  290.67 0854.43
2009/04/23 16:08:43.6     376    516     50    639    642  36.1   4.5  34222  290.62 0854.43
2009/04/23 16:08:43.7     273    529     71    596    601  27.3   6.9  34170  289.75 0854.43
2009/04/23 16:08:43.8     329    534    168    628    651  31.7  15.0  34300  291.96 0854.43
2009/04/23 16:08:43.9     245    561    214    613    649  23.6  20.0  34280  291.61 0854.43
2009/04/23 16:08:44.0     337    475    257    583    637  35.3  25.5  34344  292.70 0854.43
2009/04/23 16:08:44.1     269    468    187    541    573  29.9  19.1  34340  292.63 0854.43
2009/04/23 16:08:44.2     124    457    177    474    505  15.2  21.5  34192  290.10 0854.43
2009/04/23 16:08:44.3     132    442    196    462    501  16.6  24.5  34144  289.30 0854.43
2009/04/23 16:08:44.4     198    248    187    318    368  38.7  33.4  34198  290.21 0854.43
2009/04/23 16:08:44.5     290    231    219    371    430  51.5  33.4  34194  290.14 0854.43
2009/04/23 16:08:44.6     488    235    -39    542    544  64.2  -4.1  34258  291.25 0854.43
2009/04/23 16:08:44.7     478    397     20    622    623  50.3   1.9  34302  291.98 0854.43
2009/04/23 16:08:44.8     302    458     27    549    550  33.4   2.9  34258  291.23 0854.43
2009/04/23 16:08:44.9     266    404    114    485    499  33.4  13.2  34204  290.32 0854.43
2009/04/23 16:08:45.0     291    528     40    603    605  28.9   3.8  34134  289.14 0854.43
2009/04/23 16:08:45.1     342    515    141    619    636  33.6  12.9  34142  289.26 0854.43
2009/04/23 16:08:45.2     298    613    202    682    712  26.0  16.5  34138  289.20 0854.43
2009/04/23 16:08:45.3     177    616    137    641    656  16.0  12.1  34172  289.77 0854.43
2009/04/23 16:08:45.4     240    655     84    698    704  20.2   6.9  34222  290.62 0854.44
2009/04/23 16:08:45.5     185    556    206    586    622  18.4  19.4  34240  290.93 0854.44
2009/04/23 16:08:45.6     408    411    271    580    640  44.8  26.9  34270  291.45 0854.44
2009/04/23 16:08:45.7     375    400    129    549    564  43.2  13.2  34252  291.13 0854.44
2009/04/23 16:08:45.8     383    501    137    631    646  37.4  12.3  34240  290.93 0854.44
2009/04/23 16:08:45.9     379    713     83    808    813  28.0   5.9  34138  289.20 0854.44
2009/04/23 16:08:46.0     209    702    112    733    742  16.6   8.7  34126  289.01 0854.44
2009/04/23 16:08:46.1     261    695     36    743    744  20.6   2.8  34126  289.01 0854.44
2009/04/23 16:08:46.2     297    674     37    737    738  23.8   2.9  34120  288.90 0854.44
2009/04/23 16:08:46.3     335    659     86    740    746  27.0   6.7  34116  288.84 0854.44
2009/04/23 16:08:46.4     331    643    154    724    741  27.3  12.0  34122  288.94 0854.44
2009/04/23 16:08:46.5     322    650     76    726    731  26.4   6.0  34126  288.98 0854.44
2009/04/23 16:08:46.6     248    619    -45    668    670  21.9  -3.9  34128  289.02 0854.44
2009/04/23 16:08:46.7     400    764     33    863    864  27.7   2.2  34128  289.02 0854.44
2009/04/23 16:08:46.8     219    709      9    743    744  17.2   0.7  34134  289.14 0854.44
2009/04/23 16:08:46.9     307    547     39    628    630  29.3   3.6  34132  289.11 0854.44
2009/04/23 16:08:47.0     235    492    -18    546    547  25.6  -1.9  34132  289.09 0854.44
2009/04/23 16:08:47.1     185    526     70    558    563  19.4   7.2  34134  289.14 0854.44
2009/04/23 16:08:47.2     142    486     56    507    511  16.3   6.4  34130  289.08 0854.44
2009/04/23 16:08:47.3     163    509    105    535    546  17.8  11.1  34136  289.18 0854.44
2009/04/23 16:08:47.4     185    556     76    587    592  18.5   7.4  34136  289.15 0854.44
2009/04/23 16:08:47.5     156    681     83    699    704  12.9   6.8  34130  289.05 0854.44
2009/04/23 16:08:47.6     228    630     -2    671    672  20.0  -0.2  34128  289.02 0854.44
2009/04/23 16:08:47.7     249    570     62    623    627  23.6   5.7  34128  289.04 0854.44
2009/04/23 16:08:47.8     237    416    171    479    508  29.7  20.4  34128  289.03 0854.44
2009/04/23 16:08:47.9     139    719    210    733    763  11.0  16.0  34138  289.21 0854.44
2009/04/23 16:08:48.0      79    629     19    635    636   7.2   1.8  34136  289.16 0854.44
2009/04/23 16:08:48.1     300    684     47    748    750  23.7   3.6  34290  291.79 0854.44
2009/04/23 16:08:48.2     367    716     20    805    806  27.2   1.5  34290  291.79 0854.44
2009/04/23 16:08:48.3     522    429    183    676    701  50.6  15.1  34252  291.12 0854.44
2009/04/23 16:08:48.4     474    394    138    617    633  50.3  12.6  34248  291.06 0854.44
2009/04/23 16:08:48.5     304    332     29    451    452  42.5   3.7  34218  290.56 0854.44
2009/04/23 16:08:48.6     269    461     64    535    539  30.3   6.9  34152  289.43 0854.44
2009/04/23 16:08:48.7     281    509     17    582    583  28.9   1.7  34136  289.17 0854.44
2009/04/23 16:08:48.8     249    476     29    538    539  27.7   3.1  34140  289.24 0854.44
2009/04/23 16:08:48.9     233    399    -71    463    469  30.3  -8.7  34142  289.28 0854.44
2009/04/23 16:08:49.0     146    374     76    402    410  21.4  10.7  34144  289.29 0854.44
2009/04/23 16:08:49.1     129    353     21    376    377  20.1   3.3  34140  289.23 0854.44
2009/04/23 16:08:49.2     209    425     66    474    479  26.3   8.0  34148  289.37 0854.44
2009/04/23 16:08:49.3     324    443     22    550    551  36.2   2.4  34240  290.92 0854.44
2009/04/23 16:08:49.4     293    258     76    391    399  48.7  11.0  34254  291.17 0854.40
2009/04/23 16:08:49.5     300    330    139    447    469  42.3  17.3  34240  290.94 0854.40
2009/04/23 16:08:49.6     449    258    198    518    554  60.1  22.0  34306  292.05 0854.40
2009/04/23 16:08:49.7     484    299     74    570    575  58.3   7.4  34316  292.21 0854.40
2009/04/23 16:08:49.8     560    272    165    623    645  64.1  14.9  34294  291.84 0854.40
2009/04/23 16:08:49.9     316    475    -31    571    572  33.7  -3.2  34160  289.56 0854.40
2009/04/23 16:08:50.0     266    394     66    476    481  34.1   8.0  34144  289.30 0854.40
2009/04/23 16:08:50.1     348    443    169    564    589  38.1  16.7  34142  289.27 0854.40
2009/04/23 16:08:50.2     232    537     73    586    591  23.4   7.1  34146  289.32 0854.40
2009/04/23 16:08:50.3     413    399    101    575    584  46.0  10.0  34190  290.08 0854.40
2009/04/23 16:08:50.4     350    358    178    501    531  44.3  20.4  34298  291.93 0854.40
2009/04/23 16:08:50.5     314    423    123    528    543  36.6  13.1  34188  290.04 0854.40
2009/04/23 16:08:50.6     333    384     76    509    515  40.9   8.5  34150  289.40 0854.40
2009/04/23 16:08:50.7     342    368     60    503    507  42.9   6.9  34148  289.37 0854.40
2009/04/23 16:08:50.8     317    352    110    474    487  42.0  13.1  34156  289.52 0854.40
2009/04/23 16:08:50.9     306    337    125    456    474  42.2  15.4  34170  289.73 0854.40
2009/04/23 16:08:51.0     318    317    106    450    463  45.1  13.3  34154  289.48 0854.40
2009/04/23 16:08:51.1     298    296    123    421    439  45.2  16.3  34150  289.39 0854.40
2009/04/23 16:08:51.2     295    277     94    405    416  46.8  13.1  34180  289.92 0854.40
2009/04/23 16:08:51.3     247    245     91    349    361  45.2  14.7  34158  289.54 0854.40
2009/04/23 16:08:51.4     275    226     92    357    369  50.6  14.5  34158  289.55 0854.35
2009/04/23 16:08:51.5     288    197     61    350    356  55.6   9.9  34156  289.52 0854.35
2009/04/23 16:08:51.6     279    160     82    322    333  60.1  14.4  34158  289.54 0854.35
2009/04/23 16:08:51.7     230    136     71    268    278  59.4  15.0  34156  289.51 0854.35
2009/04/23 16:08:51.8     165    120     67    205    216  54.0  18.1  34208  290.38 0854.35
2009/04/23 16:08:51.9     123     41     -1    130    131  71.6  -0.7  34266  291.37 0854.35
2009/04/23 16:08:52.0     183    -16      1    184    185  95.2   0.5  34308  292.08 0854.35
2009/04/23 16:08:52.1     227     31     -5    230    231  82.1  -1.3  34276  291.54 0854.35
2009/04/23 16:08:52.2     129    -40     58    136    147 107.3  24.6  34294  291.84 0854.35
2009/04/23 16:08:52.3     169    -98    -23    196    198 120.0  -6.7  34300  291.96 0854.35
2009/04/23 16:08:52.4     115     82      3    142    143  54.5   1.2  34256  291.21 0854.35
2009/04/23 16:08:52.5     152     88     22    176    178  60.0   7.1  34286  291.72 0854.35
2009/04/23 16:08:52.6     127     42    110    134    173  71.6  43.7  34316  292.23 0854.35
2009/04/23 16:08:52.7     135   -153    104    205    229 138.5  29.1  34286  291.71 0854.35
2009/04/23 16:08:52.8     158   -157     60    223    232 134.8  15.2  34250  291.09 0854.35
2009/04/23 16:08:52.9     210   -160     95    265    282 127.3  19.9  34286  291.72 0854.35
2009/04/23 16:08:53.0     135     27    123    138    184  78.5  46.4  34280  291.60 0854.35
2009/04/23 16:08:53.1     114     19    175    116    209  80.3  63.6  34300  291.95 0854.35
2009/04/23 16:08:53.2     110     41    145    118    186  69.6  56.4  34300  291.96 0854.35
2009/04/23 16:08:53.3      26    -56    115     62    130 154.6  69.3  34294  291.86 0854.35
2009/04/23 16:08:53.4      50    -93    117    106    157 151.5  53.3  34268  291.42 0854.36
2009/04/23 16:08:53.5      68    -43    173     81    191 122.5  73.1  34290  291.77 0854.36
2009/04/23 16:08:53.6      43    -43    103     61    119 135.0  66.8  34280  291.62 0854.36
2009/04/23 16:08:53.7      30    -78     41     84     93 158.6  27.3  34248  291.08 0854.36
2009/04/23 16:08:53.8      59    -42     66     73     98 125.9  47.5  34236  290.86 0854.36
2009/04/23 16:08:53.9      76    -37     52     85     99 116.2  34.4  34236  290.86 0854.36
2009/04/23 16:08:54.0      19    -11     60     23     64 120.7  79.2  34246  291.04 0854.36
2009/04/23 16:08:54.1      -8     25     16     27     31 341.3  33.5  34256  291.20 0854.36
2009/04/23 16:08:54.2      30     57     43     65     77  28.1  35.6  34248  291.06 0854.36
2009/04/23 16:08:54.3      43     59     50     74     89  36.1  37.0  34266  291.37 0854.36
2009/04/23 16:08:54.4      30     10     90     32     95  70.0  80.7  34282  291.64 0854.36
2009/04/23 16:08:54.5      43     -5     40     44     59  97.0  47.9  34272  291.49 0854.36
2009/04/23 16:08:54.6      21    -32     29     39     48 145.7  40.7  34274  291.52 0854.36
2009/04/23 16:08:54.7      68     -2     66     69     95  91.7  49.0  34256  291.20 0854.36
2009/04/23 16:08:54.8      90    -48     77    103    128 118.0  40.7  34238  290.89 0854.36
2009/04/23 16:08:54.9     146      3    132    147    197  88.7  46.6  34212  290.47 0854.36
2009/04/23 16:08:55.0      81     13    114     83    141  80.3  60.5  34222  290.62 0854.36
2009/04/23 16:08:55.1      39     55     56     68     88  36.0  43.8  34236  290.87 0854.36
2009/04/23 16:08:55.2      85     15    110     87    140  79.4  57.9  34266  291.37 0854.36
2009/04/23 16:08:55.3     203     70     73    215    228  70.9  18.9  34262  291.32 0854.36
2009/04/23 16:08:55.4     192     88     49    212    218  65.4  13.1  34226  290.69 0854.35
2009/04/23 16:08:55.5     185     18     82    186    203  84.3  25.1  34218  290.55 0854.35
2009/04/23 16:08:55.6     174      9    126    175    215  87.0  39.5  34222  290.64 0854.35
2009/04/23 16:08:55.7      73    -53    131     91    159 126.4  61.8  34242  290.96 0854.35
2009/04/23 16:08:55.8      95    -93     85    134    158 134.4  35.5  34234  290.82 0854.35
2009/04/23 16:08:55.9      70    -71     41    100    108 135.5  23.0  34234  290.84 0854.35
2009/04/23 16:08:56.0      59    -24    118     64    134 112.6  68.9  34244  291.01 0854.35
2009/04/23 16:08:56.1      27   -251    140    253    289 173.8  31.4  34226  290.70 0854.35
2009/04/23 16:08:56.2      80   -195    241    211    320 157.7  54.3  34236  290.85 0854.35
2009/04/23 16:08:56.3      66    -70    244     97    262 136.8  77.1  34238  290.89 0854.35
2009/04/23 16:08:56.4     -45   -194    201    200    283 193.1  50.1  34242  290.95 0854.35
2009/04/23 16:08:56.5      92   -111    154    145    211 140.4  52.0  34250  291.11 0854.35
2009/04/23 16:08:56.6     233    -56    191    240    306 103.7  42.7  34200  290.24 0854.35
2009/04/23 16:08:56.7     229    -25    175    231    289  96.4  41.2  34194  290.15 0854.35
2009/04/23 16:08:56.8      65    -89    152    111    188 143.9  60.5  34220  290.58 0854.35
2009/04/23 16:08:56.9     -20   -122    143    124    189 189.7  55.0  34238  290.91 0854.35
2009/04/23 16:08:57.0     224      3    263    225    346  89.1  55.3  34228  290.73 0854.35
2009/04/23 16:08:57.1     405   -106    290    419    509 104.8  38.0  34218  290.56 0854.35
2009/04/23 16:08:57.2     338   -175    195    381    428 117.4  29.2  34230  290.75 0854.35
2009/04/23 16:08:57.3     142    -26    263    145    300 100.6  68.8  34238  290.88 0854.35
2009/04/23 16:08:57.4     153      0    205    154    256  90.0  59.6  34244  291.01 0854.35
2009/04/23 16:08:57.5     100    -68    148    122    191 124.2  56.3  34238  290.89 0854.35
2009/04/23 16:08:57.6     166    -55    176    175    248 108.4  50.1  34236  290.87 0854.35
2009/04/23 16:08:57.7     299     70    202    308    368  76.7  36.3  34268  291.42 0854.35
2009/04/23 16:08:57.8     277      7    152    278    316  88.5  31.0  34252  291.14 0854.35
2009/04/23 16:08:57.9     262    114    268    287    392  66.4  47.9  34224  290.67 0854.35
2009/04/23 16:08:58.0     327     90    326    340    471  74.5  48.7  34218  290.56 0854.35
2009/04/23 16:08:58.1     215      6    325    216    390  88.3  63.4  34208  290.37 0854.35
2009/04/23 16:08:58.2     156      0    242    157    288  90.0  64.4  34206  290.36 0854.35
2009/04/23 16:08:58.3     204    -40    258    208    331 101.2  57.0  34236  290.87 0854.35
2009/04/23 16:08:58.4     180     26    272    182    327  81.6  63.2  34248  291.05 0854.37
2009/04/23 16:08:58.5       2   -145    209    146    254 179.0  61.5  34240  290.92 0854.37
2009/04/23 16:08:58.6      68   -233    265    243    359 163.7  52.7  34214  290.49 0854.37
2009/04/23 16:08:58.7      68    -83    213    108    238 140.8  71.1  34238  290.91 0854.37
2009/04/23 16:08:58.8      81   -194    224    211    307 157.3  52.1  34232  290.78 0854.37
2009/04/23 16:08:58.9       1    -14    170     15    170 175.5  90.0  34250  291.11 0854.37
2009/04/23 16:08:59.0      56    -97    200    113    229 150.1  68.5  34238  290.91 0854.37
2009/04/23 16:08:59.1    -103   -145    238    179    297 215.4  59.4  34242  290.95 0854.37
2009/04/23 16:08:59.2     -13   -124    222    125    254 186.2  68.5  34234  290.84 0854.37
2009/04/23 16:08:59.3      -5     23    130     24    132 346.6  90.0  34234  290.84 0854.37
2009/04/23 16:08:59.4      42   -102    187    111    217 157.3  66.8  34244  290.99 0854.37
2009/04/23 16:08:59.5     -11     43    168     45    173 344.9  84.9  34266  291.38 0854.37
2009/04/23 16:08:59.6     -24     11    152     27    154 295.3  90.0  34268  291.42 0854.37
2009/04/23 16:08:59.7     -62    -39    129     74    148 237.5  67.7  34270  291.43 0854.37
2009/04/23 16:08:59.8      78    -23     57     82     99 106.8  38.6  34264  291.33 0854.37
2009/04/23 16:08:59.9       6     14     -4     16     17  25.4 -15.5  34260  291.26 0854.37
2009/04/23 16:09:00.0     -56     38     33     68     75 304.2  27.3  34262  291.32 0854.37
2009/04/23 16:09:00.1    -155      3     29    156    159 271.3  10.6  34260  291.26 0854.37
2009/04/23 16:09:00.2    -220   -109      5    246    247 243.6   1.2  34258  291.24 0854.37
2009/04/23 16:09:00.3      -4   -137    153    138    206 181.8  53.5  34254  291.18 0854.37
2009/04/23 16:09:00.4    -102   -185    161    212    266 208.9  41.2  34226  290.70 0854.38
2009/04/23 16:09:00.5    -120   -189    141    225    265 212.5  35.5  34234  290.83 0854.38
2009/04/23 16:09:00.6    -179   -114    109    213    239 237.5  29.3  34250  291.09 0854.38
2009/04/23 16:09:00.7     -82   -100    132    130    185 219.2  49.9  34272  291.49 0854.38
2009/04/23 16:09:00.8     -82   -100    131    130    184 219.6  49.9  34282  291.64 0854.38
2009/04/23 16:09:00.9     -90   -100    155    135    205 221.9  54.6  34272  291.49 0854.38
2009/04/23 16:09:01.0     -88    -58    107    106    150 236.3  50.1  34278  291.59 0854.38
2009/04/23 16:09:01.1    -148   -149     97    211    232 224.8  26.6  34270  291.43 0854.38
2009/04/23 16:09:01.2    -291   -116     92    314    328 248.3  16.3  34250  291.09 0854.38
2009/04/23 16:09:01.3    -323   -131     17    349    350 247.8   2.9  34244  291.00 0854.38
2009/04/23 16:09:01.4    -293   -105     32    312    314 250.3   5.9  34248  291.07 0854.38
2009/04/23 16:09:01.5    -256   -116    -19    282    283 245.6  -3.9  34236  290.87 0854.38
2009/04/23 16:09:01.6    -292   -127    -36    319    322 246.5  -6.6  34226  290.70 0854.38
2009/04/23 16:09:01.7    -298   -112    -48    319    323 249.4  -8.6  34238  290.88 0854.38
2009/04/23 16:09:01.8    -274   -180    -39    328    331 236.7  -6.9  34238  290.91 0854.38
2009/04/23 16:09:01.9    -250   -228     -1    339    340 227.7  -0.3  34226  290.69 0854.38
2009/04/23 16:09:02.0    -162   -210     98    266    283 217.6  21.0  34238  290.90 0854.38
2009/04/23 16:09:02.1    -232   -138     39    271    274 239.3   8.2  34236  290.87 0854.38
2009/04/23 16:09:02.2    -232    -27    -80    234    248 263.2 -18.9  34232  290.80 0854.38
2009/04/23 16:09:02.3    -158   -143   -101    214    236 228.0 -31.5  34244  291.01 0854.38
2009/04/23 16:09:02.4    -133   -174    -57    220    228 217.4 -14.5  34256  291.21 0854.41
2009/04/23 16:09:02.5    -218   -138     24    259    261 237.6   5.4  34254  291.16 0854.41
2009/04/23 16:09:02.6    -152   -152    -23    215    217 225.0  -6.2  34240  290.94 0854.41
2009/04/23 16:09:02.7    -185   -104    -77    213    226 240.5 -25.3  34242  290.98 0854.41
2009/04/23 16:09:02.8    -120    -94    -62    153    165 231.8 -27.4  34244  291.01 0854.41
2009/04/23 16:09:02.9    -154    -57    -32    165    169 249.4 -11.1  34244  291.01 0854.41
2009/04/23 16:09:03.0     -97   -230     58    250    257 202.8  13.2  34240  290.92 0854.41
2009/04/23 16:09:03.1     -35   -291     26    294    296 186.9   5.2  34242  290.95 0854.41
2009/04/23 16:09:03.2     -20   -260     -3    261    262 184.5  -0.7  34232  290.78 0854.41
2009/04/23 16:09:03.3       1   -329     54    330    335 179.8   9.4  34232  290.79 0854.41
2009/04/23 16:09:03.4      63   -297     57    304    310 168.0  10.6  34220  290.59 0854.41
2009/04/23 16:09:03.5      48   -280     24    285    287 170.2   4.9  34232  290.80 0854.41
2009/04/23 16:09:03.6      68   -325     33    333    335 168.1   5.7  34240  290.94 0854.41
2009/04/23 16:09:03.7     -44   -184    -68    190    202 193.4 -19.7  34238  290.89 0854.41
2009/04/23 16:09:03.8     -40   -200    -15    204    205 191.3  -4.4  34234  290.82 0854.41
2009/04/23 16:09:03.9    -124   -331     63    354    360 200.6  10.1  34222  290.64 0854.41
2009/04/23 16:09:04.0     -93   -317     85    331    342 196.4  14.4  34220  290.60 0854.41
2009/04/23 16:09:04.1      52   -257     95    263    280 168.5  19.9  34224  290.66 0854.41
2009/04/23 16:09:04.2      70   -293    112    302    322 166.4  21.3  34220  290.58 0854.41
2009/04/23 16:09:04.3     155   -342    -11    376    377 155.5  -1.7  34224  290.67 0854.41
2009/04/23 16:09:04.4     106   -329    -41    346    349 162.1  -6.9  34226  290.69 0854.43
2009/04/23 16:09:04.5       0   -291   -100    292    309 180.0 -18.9  34226  290.68 0854.43
2009/04/23 16:09:04.6       3   -227    -29    228    230 179.1  -7.3  34228  290.74 0854.43
2009/04/23 16:09:04.7      23   -165    -46    167    174 171.8 -15.5  34226  290.69 0854.43
2009/04/23 16:09:04.8      64   -147     -2    161    162 156.4  -0.7  34218  290.57 0854.43
2009/04/23 16:09:04.9      39   -288     51    291    296 172.2  10.1  34208  290.39 0854.43
2009/04/23 16:09:05.0      96   -344    144    358    385 164.4  23.1  34212  290.45 0854.43
2009/04/23 16:09:05.1      19   -334    190    335    385 176.6  32.0  34202  290.27 0854.43
2009/04/23 16:09:05.2      35   -299    185    302    354 173.3  34.3  34188  290.03 0854.43
2009/04/23 16:09:05.3      41   -292     99    295    312 172.0  18.6  34186  290.02 0854.43
2009/04/23 16:09:05.4      10   -345    113    346    365 178.2  18.1  34198  290.23 0854.43
2009/04/23 16:09:05.5     -69   -390    144    397    422 190.1  20.8  34208  290.39 0854.43
2009/04/23 16:09:05.6    -116   -336     77    356    365 199.2  12.3  34214  290.50 0854.43
2009/04/23 16:09:05.7    -136   -252    -30    287    289 208.3  -6.0  34214  290.48 0854.43
2009/04/23 16:09:05.8    -137   -203    -44    246    250 214.1 -10.3  34210  290.41 0854.43
2009/04/23 16:09:05.9    -186   -132    -63    229    238 234.5 -15.4  34182  289.95 0854.43
2009/04/23 16:09:06.1    -236   -116      7    264    265 243.8   1.7  34188  290.05 0854.43
2009/04/23 16:09:06.2    -270   -262     84    377    387 225.9  12.6  34184  289.98 0854.43
2009/04/23 16:09:06.3    -275   -261      0    380    381 226.4   0.1  34168  289.71 0854.43
2009/04/23 16:09:06.4    -137   -313    -47    342    346 203.7  -7.9  34172  289.77 0854.43
2009/04/23 16:09:06.5    -148   -177    -75    231    244 219.9 -18.1  34174  289.80 0854.46
2009/04/23 16:09:06.6    -116   -181    -27    216    218 212.7  -7.2  34166  289.69 0854.46
2009/04/23 16:09:06.7     -94   -115     53    149    159 219.2  19.6  34164  289.63 0854.46
2009/04/23 16:09:06.8    -102   -177    139    205    247 210.1  37.4  34190  290.07 0854.46
2009/04/23 16:09:06.9      -4   -135    193    136    236 181.8  61.5  34204  290.31 0854.46
2009/04/23 16:09:07.0     -16   -148    201    149    250 186.3  59.8  34212  290.45 0854.46
2009/04/23 16:09:07.1      33   -190    181    193    264 170.0  48.0  34210  290.41 0854.46
2009/04/23 16:09:07.2     118   -270    216    295    365 156.3  39.8  34198  290.20 0854.46
2009/04/23 16:09:07.3     146   -256    263    295    395 150.2  46.4  34198  290.20 0854.46
2009/04/23 16:09:07.4     299   -182    210    351    409 121.3  33.8  34200  290.25 0854.46
2009/04/23 16:09:07.5     332   -280    235    435    494 130.2  30.8  34178  289.86 0854.46
2009/04/23 16:09:07.6     527   -377    231    649    690 125.6  19.6  34174  289.82 0854.46
2009/04/23 16:09:07.7     517   -341    227    620    660 123.4  21.0  34152  289.45 0854.46
2009/04/23 16:09:07.8     572   -285    255    640    688 116.5  23.0  34180  289.92 0854.46
2009/04/23 16:09:07.9     467   -347     54    583    586 126.6   5.3  34186  290.02 0854.46
2009/04/23 16:09:08.0     318   -298    162    437    466 133.1  21.0  34142  289.26 0854.46
2009/04/23 16:09:08.1     393   -142     75    419    426 110.0  10.2  34178  289.88 0854.46
2009/04/23 16:09:08.2     438   -145     90    462    471 108.3  11.1  34154  289.47 0854.46
2009/04/23 16:09:08.3     312   -238    160    393    424 127.3  23.2  34158  289.55 0854.46
2009/04/23 16:09:08.4     398    -88     38    408    410 102.5   5.4  34170  289.75 0854.48
2009/04/23 16:09:08.5     281     -9     66    282    290  91.9  13.2  34168  289.71 0854.48
2009/04/23 16:09:08.6     327      9     10    328    329  88.3   1.9  34182  289.93 0854.48
2009/04/23 16:09:08.7     193    -40    -59    198    207 101.7 -16.6  34188  290.04 0854.48
2009/04/23 16:09:08.8      92    -98    -49    135    143 136.8 -25.3  34188  290.06 0854.48
2009/04/23 16:09:08.9      67   -138     -3    154    155 154.1  -1.3  34182  289.94 0854.48
2009/04/23 16:09:09.0     -93   -186     57    209    217 206.7  15.3  34186  290.02 0854.48
2009/04/23 16:09:09.1     -83    -94     55    126    137 221.4  25.1  34174  289.82 0854.48
2009/04/23 16:09:09.2    -241   -409     36    475    477 210.5   4.3  34162  289.59 0854.48
2009/04/23 16:09:09.3    -396   -480     41    623    625 219.5   3.8  34146  289.35 0854.48
2009/04/23 16:09:09.4    -528   -321    -88    618    625 238.7  -8.1  34146  289.33 0854.48
2009/04/23 16:09:09.5    -380   -350   -134    517    535 227.4 -14.5  34144  289.31 0854.48
2009/04/23 16:09:09.6      22   -356    -34    357    359 176.4  -5.6  34148  289.37 0854.48
2009/04/23 16:09:09.7     128   -278   -101    307    324 155.3 -18.3  34150  289.39 0854.48
2009/04/23 16:09:09.8     211   -225     -6    309    310 136.8  -1.2  34148  289.36 0854.48
2009/04/23 16:09:09.9     119   -307   -144    330    360 158.8 -29.5  34146  289.33 0854.48
2009/04/23 16:09:10.0     -62   -307    -49    314    318 191.5  -8.9  34150  289.41 0854.48
2009/04/23 16:09:10.1      22   -554    -94    555    563 177.7  -9.7  34150  289.40 0854.48
2009/04/23 16:09:10.2      19   -537    -56    538    541 177.9  -6.0  34152  289.43 0854.48
2009/04/23 16:09:10.3      -7   -453    -92    454    464 180.9 -11.6  34150  289.39 0854.48
2009/04/23 16:09:10.4      -5   -375   -119    376    395 180.9 -17.6  34142  289.25 0854.49
2009/04/23 16:09:10.5     -49   -563     23    566    567 185.0   2.4  34138  289.19 0854.49
2009/04/23 16:09:10.6     -76   -500     52    506    509 188.7   6.0  34136  289.18 0854.49
2009/04/23 16:09:10.7     -36   -570   -164    572    595 183.6 -20.8  34144  289.29 0854.49
2009/04/23 16:09:10.8      17   -567   -217    568    608 178.2 -26.4  34144  289.30 0854.49
2009/04/23 16:09:10.9      -4   -657   -126    658    671 180.4 -10.9  34138  289.19 0854.49
2009/04/23 16:09:11.0      72   -595   -211    600    637 173.0 -19.4  34142  289.26 0854.49
2009/04/23 16:09:11.1    -172   -553   -111    580    591 197.3 -10.9  34130  289.08 0854.49
2009/04/23 16:09:11.2      87   -513   -159    521    545 170.3 -17.0  34130  289.06 0854.49
2009/04/23 16:09:11.3      11   -435   -137    436    458 178.5 -17.5  34142  289.27 0854.49
2009/04/23 16:09:11.4       0   -333    -48    334    338 179.9  -8.2  34146  289.32 0854.49
2009/04/23 16:09:11.5     101   -431   -125    443    461 166.7 -15.8  34150  289.41 0854.49
2009/04/23 16:09:11.6     -12   -507    -40    508    510 181.4  -4.6  34142  289.27 0854.49
2009/04/23 16:09:11.7      37   -373    -28    375    376 174.2  -4.4  34148  289.38 0854.49
2009/04/23 16:09:11.8     -38   -406     -5    408    409 185.4  -0.7  34148  289.38 0854.49
2009/04/23 16:09:11.9    -124   -583     -7    597    598 192.0  -0.7  34160  289.58 0854.49
2009/04/23 16:09:12.0    -115   -517     -6    530    531 192.6  -0.7  34156  289.50 0854.49
2009/04/23 16:09:12.1     -83   -412     66    421    427 191.4   8.9  34154  289.48 0854.49
2009/04/23 16:09:12.2     -32   -412     99    414    426 184.5  13.6  34158  289.53 0854.49
2009/04/23 16:09:12.3     -69   -420     32    426    428 189.3   4.4  34154  289.46 0854.49
2009/04/23 16:09:12.4    -140   -459    -18    481    482 197.0  -2.2  34152  289.44 0854.43
2009/04/23 16:09:12.5    -145   -438   -118    462    478 198.3 -14.4  34156  289.49 0854.43
2009/04/23 16:09:12.6    -131   -409    -55    430    434 197.8  -7.3  34148  289.36 0854.43
2009/04/23 16:09:12.7    -183   -352    -35    397    399 207.5  -5.1  34158  289.54 0854.43
2009/04/23 16:09:12.8    -190   -271    -99    332    347 215.1 -16.6  34158  289.54 0854.43
2009/04/23 16:09:12.9     -77   -341   -115    350    368 192.8 -23.6  34152  289.45 0854.43
2009/04/23 16:09:13.0     -87   -275    -84    289    300 197.6 -21.0  34154  289.46 0854.43
2009/04/23 16:09:13.1     -33   -232    -55    235    242 188.1 -13.2  34154  289.46 0854.43
2009/04/23 16:09:13.2    -137   -334   -101    362    377 202.3 -15.7  34154  289.47 0854.43
2009/04/23 16:09:13.3      19   -295    -65    296    304 176.2 -12.4  34150  289.39 0854.43
2009/04/23 16:09:13.4     -64   -347      0    353    354 190.6   0.0  34156  289.50 0854.43
2009/04/23 16:09:13.5    -130   -288    112    316    335 204.3  20.3  34160  289.57 0854.43
2009/04/23 16:09:13.6    -214   -331    163    395    427 213.0  23.7  34156  289.49 0854.43
2009/04/23 16:09:13.7    -199   -337     92    392    403 210.5  13.3  34148  289.38 0854.43
2009/04/23 16:09:13.8    -197   -434    -74    477    483 204.5  -8.9  34152  289.44 0854.43
2009/04/23 16:09:13.9    -233   -583    -36    629    631 201.8  -3.3  34146  289.33 0854.43
2009/04/23 16:09:14.0    -241   -434     42    497    499 209.0   4.9  34152  289.44 0854.43
2009/04/23 16:09:14.1    -293   -471     15    555    556 211.9   1.6  34150  289.41 0854.43
2009/04/23 16:09:14.2    -267   -520     28    585    586 207.2   2.8  34154  289.46 0854.43
2009/04/23 16:09:14.3    -276   -554    -24    619    620 206.5  -2.2  34148  289.37 0854.43
2009/04/23 16:09:14.4    -266   -538   -137    601    617 206.3 -12.9  34146  289.34 0854.40
2009/04/23 16:09:14.5     -38   -606   -189    608    636 183.6 -22.3  34154  289.47 0854.40
2009/04/23 16:09:14.6     -10   -580    -60    581    585 181.0  -6.0  34156  289.52 0854.40
2009/04/23 16:09:14.7      24   -623    -74    624    629 177.8  -6.8  34152  289.43 0854.40
2009/04/23 16:09:14.8      -9   -617    -13    618    619 180.9  -1.3  34142  289.28 0854.40
2009/04/23 16:09:14.9     -29   -585   -106    586    596 182.9 -10.3  34152  289.44 0854.40
2009/04/23 16:09:15.0      61   -534   -188    538    569 173.4 -24.4  34150  289.41 0854.40
2009/04/23 16:09:15.1      66   -505   -257    510    571 172.5 -33.1  34152  289.45 0854.40
2009/04/23 16:09:15.2      87   -657   -124    663    675 172.4 -10.6  34152  289.44 0854.40
2009/04/23 16:09:15.3     152   -457    -81    482    489 161.6  -9.6  34150  289.40 0854.40
2009/04/23 16:09:15.4      73   -463    -42    469    471 171.0  -5.2  34146  289.34 0854.40
2009/04/23 16:09:15.5      53   -446    -66    450    455 173.1  -8.4  34148  289.36 0854.40
2009/04/23 16:09:15.6      49   -374   -124    378    398 172.4 -18.2  34148  289.37 0854.40
2009/04/23 16:09:15.7      34   -443    -68    445    451 175.5  -8.7  34146  289.34 0854.40
2009/04/23 16:09:15.8       8   -506    -19    507    508 179.0  -2.2  34156  289.49 0854.40
2009/04/23 16:09:15.9      -2   -567     70    568    573 180.3   7.1  34156  289.51 0854.40
2009/04/23 16:09:16.0      29   -436    -88    437    446 176.1 -11.5  34132  289.09 0854.40
2009/04/23 16:09:16.1     -58   -292    104    298    316 191.3  19.3  34142  289.25 0854.40
2009/04/23 16:09:16.2      88   -397    135    407    429 167.5  18.4  34156  289.49 0854.40
2009/04/23 16:09:16.3     104   -452     81    464    472 167.0   9.9  34126  289.01 0854.40
2009/04/23 16:09:16.4     131   -436    107    456    469 163.2  13.2  34124  288.95 0854.39
2009/04/23 16:09:16.5     112   -339    126    358    379 161.7  20.1  34122  288.93 0854.39
2009/04/23 16:09:16.6     137   -316    -26    345    346 156.6  -4.4  34136  289.16 0854.39
2009/04/23 16:09:16.7      28   -376   -107    377    393 175.6 -15.9  34134  289.13 0854.39
2009/04/23 16:09:16.8      40   -353    -47    356    360 173.4  -7.6  34108  288.69 0854.39
2009/04/23 16:09:16.9      49   -387     60    391    396 172.8   8.8  34122  288.94 0854.39
2009/04/23 16:09:17.0      37   -373     41    375    378 174.2   6.4  34126  288.99 0854.39
2009/04/23 16:09:17.1      59   -328     52    334    339 169.7   8.9  34140  289.23 0854.39
2009/04/23 16:09:17.2       4   -287     63    288    295 179.1  12.4  34120  288.90 0854.39
2009/04/23 16:09:17.3       8   -279     51    280    285 178.2  10.3  34126  288.98 0854.39
2009/04/23 16:09:17.4      16   -250     -7    251    252 176.2  -1.6  34146  289.32 0854.39
2009/04/23 16:09:17.5      27   -212     75    214    227 172.7  19.4  34142  289.26 0854.39
2009/04/23 16:09:17.6     165   -146     66    221    231 131.6  16.6  34146  289.35 0854.39
2009/04/23 16:09:17.7     176   -220     50    282    287 141.3  10.1  34126  288.98 0854.39
2009/04/23 16:09:17.8      91   -208     69    228    239 156.4  16.8  34128  289.03 0854.39
2009/04/23 16:09:17.9     103   -236     52    258    264 156.3  11.4  34122  288.92 0854.39
2009/04/23 16:09:18.0      41   -237     97    241    259 170.0  23.1  34112  288.76 0854.39
2009/04/23 16:09:18.1     -22   -293    143    294    326 184.5  27.8  34122  288.93 0854.39
2009/04/23 16:09:18.2      -7   -428    173    429    462 181.0  23.1  34130  289.05 0854.39
2009/04/23 16:09:18.3      -1   -370    113    371    389 180.2  17.0  34128  289.04 0854.39
2009/04/23 16:09:18.4     -76   -335     85    344    355 192.8  13.9  34130  289.08 0854.37
2009/04/23 16:09:18.5    -135   -344    -25    370    371 201.5  -3.9  34128  289.03 0854.37
2009/04/23 16:09:18.6      -7   -353    -60    354    360 181.2  -9.7  34122  288.94 0854.37
2009/04/23 16:09:18.7     -12   -265    -48    266    271 182.7 -10.3  34120  288.90 0854.37
2009/04/23 16:09:18.8     -22   -292    -53    293    298 184.5 -10.3  34120  288.88 0854.37
2009/04/23 16:09:18.9     -15   -326    -24    327    328 182.8  -4.2  34120  288.88 0854.37
2009/04/23 16:09:19.0     -30   -365    -17    367    368 184.8  -2.8  34116  288.82 0854.37
2009/04/23 16:09:19.1      -7   -382    -43    383    386 181.1  -6.5  34116  288.81 0854.37
2009/04/23 16:09:19.2     -55   -357    -37    362    364 188.9  -5.9  34116  288.82 0854.37
2009/04/23 16:09:19.3     -16   -295    -72    296    305 183.1 -13.7  34114  288.78 0854.37
2009/04/23 16:09:19.4       8   -272    -28    273    275 178.2  -6.0  34116  288.83 0854.37
2009/04/23 16:09:19.5       9   -245     -1    246    247 177.8  -0.3  34116  288.81 0854.37
2009/04/23 16:09:19.6      21   -275    -35    276    279 175.5  -7.3  34112  288.75 0854.37
2009/04/23 16:09:19.7      13   -279    -10    280    281 177.3  -2.2  34100  288.54 0854.37
2009/04/23 16:09:19.8      85   -255     23    269    271 161.5   5.0  34116  288.81 0854.37
2009/04/23 16:09:19.9      37   -283     13    286    287 172.4   2.8  34112  288.75 0854.37
2009/04/23 16:09:20.0     -23   -253      0    255    256 185.3   0.2  34108  288.70 0854.37
2009/04/23 16:09:20.1       0   -243     23    244    246 179.8   5.4  34108  288.68 0854.37
2009/04/23 16:09:20.2      24   -246     19    248    249 174.4   4.6  34104  288.63 0854.37
2009/04/23 16:09:20.3      19   -232     53    233    240 175.3  12.9  34110  288.71 0854.37
2009/04/23 16:09:20.4      42   -243     67    247    257 170.0  15.3  34106  288.65 0854.37
2009/04/23 16:09:20.5      72   -219     64    231    240 161.7  15.6  34116  288.81 0854.37
2009/04/23 16:09:20.6      63   -275     77    283    294 167.1  15.2  34114  288.78 0854.37
2009/04/23 16:09:20.7      50   -239     81    245    259 168.0  18.4  34122  288.92 0854.37
2009/04/23 16:09:20.8      24   -221     55    223    230 173.8  13.9  34114  288.79 0854.37
2009/04/23 16:09:20.9      96   -241     52    260    266 158.2  11.4  34110  288.71 0854.37
2009/04/23 16:09:21.0      64   -278    -24    286    288 166.9  -4.9  34114  288.80 0854.37
2009/04/23 16:09:21.1      48   -203    -58    209    217 166.6 -15.5  34116  288.84 0854.37
2009/04/23 16:09:21.2      27   -180    -84    183    201 171.3 -30.6  34116  288.82 0854.37
2009/04/23 16:09:21.3     -32   -190    -44    193    199 189.8 -12.9  34108  288.69 0854.37
2009/04/23 16:09:21.4       0   -189    -14    190    191 180.2  -4.4  34106  288.67 0854.38
2009/04/23 16:09:21.5     -76   -162     -5    180    181 205.2  -1.8  34106  288.67 0854.38
2009/04/23 16:09:21.6     -42   -135    -18    142    144 197.4  -7.3  34108  288.70 0854.38
2009/04/23 16:09:21.7       1   -129    -16    130    132 179.5  -7.3  34106  288.65 0854.38
2009/04/23 16:09:21.8      11   -170    -49    171    177 176.2 -20.7  34108  288.70 0854.38
2009/04/23 16:09:21.9     -12   -165    -35    166    170 184.4 -12.2  34108  288.69 0854.38
2009/04/23 16:09:22.0       7   -127    -35    128    133 176.9 -15.4  34108  288.70 0854.38
2009/04/23 16:09:22.1     -21   -122    -34    124    129 189.8 -15.5  34110  288.74 0854.38
2009/04/23 16:09:22.2     -51   -136    -78    146    165 200.5 -35.0  34110  288.74 0854.38
2009/04/23 16:09:22.3     -33    -90    -91     97    133 200.5 -52.9  34118  288.87 0854.38
2009/04/23 16:09:22.4       2    -78    -26     79     84 178.2 -18.7  34114  288.79 0854.38
2009/04/23 16:09:22.5     -27    -70     23     76     80 200.9  17.3  34116  288.82 0854.38
2009/04/23 16:09:22.6     -38   -103    -48    110    120 200.5 -29.5  34116  288.84 0854.38
2009/04/23 16:09:22.7     -88    -41    -48     98    109 244.8 -32.2  34118  288.86 0854.38
2009/04/23 16:09:22.8     -53     15     -7     56     57 285.9  -7.3  34118  288.87 0854.38
2009/04/23 16:09:22.9     -44      2      1     45     46 272.6   1.8  34120  288.91 0854.38
2009/04/23 16:09:23.0     -76     48     -3     91     92 302.4  -2.2  34132  289.11 0854.38
2009/04/23 16:09:23.1     -52      9     -9     53     54 280.6 -10.3  34130  289.06 0854.38
2009/04/23 16:09:23.2     -50     35     35     62     71 305.1  31.4  34126  289.01 0854.38
2009/04/23 16:09:23.3     -66     66     62     94    112 314.9  36.0  34126  289.01 0854.38
2009/04/23 16:09:23.4     -22     47     70     52     87 334.7  59.4  34132  289.09 0854.41
2009/04/23 16:09:23.5     -19     51     54     55     77 339.1  51.1  34132  289.11 0854.41
2009/04/23 16:09:23.6     -34     45     68     57     88 323.0  55.8  34134  289.13 0854.41
2009/04/23 16:09:23.7     -37     58     80     69    105 327.5  54.8  34142  289.28 0854.41
2009/04/23 16:09:23.8      -8     64     86     65    107 352.9  59.4  34148  289.36 0854.41
2009/04/23 16:09:23.9      14     70     62     72     95  11.6  45.4  34146  289.33 0854.41
2009/04/23 16:09:24.0      -7     66     67     67     94 353.8  50.1  34152  289.43 0854.41
2009/04/23 16:09:24.1      56     68     64     89    109  39.6  39.5  34146  289.33 0854.41
2009/04/23 16:09:24.2      84     67    102    108    148  51.4  48.0  34146  289.35 0854.41
2009/04/23 16:09:24.3     114     21    141    116    182  79.4  56.4  34166  289.69 0854.41
2009/04/23 16:09:24.4     142     57    121    154    195  68.2  42.2  34248  291.08 0854.41
2009/04/23 16:09:24.5     159    186    148    245    286  40.5  34.0  34310  292.11 0854.41
2009/04/23 16:09:24.6     205     85     98    223    243  67.4  25.1  34342  292.65 0854.41
2009/04/23 16:09:24.7     198    126     91    235    252  57.5  22.1  34392  293.51 0854.41
2009/04/23 16:09:24.8     155    112      0    192    193  54.0  -0.3  34394  293.55 0854.41
2009/04/23 16:09:24.9      82    145     85    167    187  29.6  29.1  34296  291.89 0854.41
2009/04/23 16:09:25.0      -9    217     59    218    227 357.5  15.3  34284  291.67 0854.41
2009/04/23 16:09:25.1       8    241     79    242    255   2.0  18.1  34236  290.85 0854.41
2009/04/23 16:09:25.2      45    322     76    326    335   8.1  13.3  34192  290.13 0854.41
2009/04/23 16:09:25.3      88    331      2    343    344  14.9   0.5  34194  290.15 0854.41
2009/04/23 16:09:25.4     144    325     64    356    362  23.9  10.2  34228  290.74 0854.44
2009/04/23 16:09:25.5     -19    367     51    368    372 357.0   7.9  34194  290.15 0854.44
2009/04/23 16:09:25.6     -23    298    -20    299    300 355.5  -3.9  34194  290.14 0854.44
2009/04/23 16:09:25.7     -25    320    -61    322    328 355.5 -10.9  34214  290.49 0854.44
2009/04/23 16:09:25.8     -59    401    -15    406    407 351.5  -2.2  34234  290.84 0854.44
2009/04/23 16:09:25.9     -41    443     14    446    447 354.7   1.9  34232  290.80 0854.44
2009/04/23 16:09:26.0     -55    381     55    386    391 351.8   8.2  34232  290.81 0854.44
2009/04/23 16:09:26.1      30    428     83    430    439   4.0  11.0  34234  290.84 0854.44
2009/04/23 16:09:26.2      98    398     58    411    416  13.9   8.1  34300  291.94 0854.44
2009/04/23 16:09:26.3     396    262    -42    475    477  56.5  -5.1  34260  291.27 0854.44
2009/04/23 16:09:26.4     270    326   -104    424    437  39.6 -13.8  34224  290.67 0854.44
2009/04/23 16:09:26.5     261    303    -88    401    411  40.8 -12.4  34242  290.95 0854.44
2009/04/23 16:09:26.6     146    294     85    329    340  26.5  14.5  34242  290.96 0854.44
2009/04/23 16:09:26.7       8    204    -23    205    207   2.5  -6.5  34226  290.69 0854.44
2009/04/23 16:09:26.8      20    213   -127    215    249   5.6 -37.9  34228  290.71 0854.44
2009/04/23 16:09:26.9     -28    320   -201    322    379 354.9 -39.6  34168  289.71 0854.44
2009/04/23 16:09:27.0    -218    273   -277    350    446 321.4 -46.8  34198  290.21 0854.44
2009/04/23 16:09:27.1    -186    264   -234    324    399 324.8 -43.9  34196  290.18 0854.44
2009/04/23 16:09:27.2    -141     33    -44    145    151 283.3 -21.7  34180  289.92 0854.44
2009/04/23 16:09:27.3    -115    196    -48    228    234 329.5 -11.9  34188  290.04 0854.44
2009/04/23 16:09:27.4     -90    351    -56    363    368 345.6  -8.8  34192  290.11 0854.45
2009/04/23 16:09:27.5      50    401   -100    405    418   7.2 -13.9  34190  290.09 0854.45
2009/04/23 16:09:27.6      37    446   -146    448    472   4.9 -18.0  34192  290.12 0854.45
2009/04/23 16:09:27.7      59    353   -132    359    382   9.6 -25.4  34190  290.08 0854.45
2009/04/23 16:09:27.8      66    311     36    319    322  12.0   6.5  34196  290.19 0854.45
2009/04/23 16:09:27.9     107    338     33    355    357  17.6   5.3  34200  290.25 0854.45
2009/04/23 16:09:28.0     102    245    -13    266    267  22.7  -2.8  34198  290.22 0854.45
2009/04/23 16:09:28.1     204    189     -5    279    280  47.1  -1.1  34210  290.41 0854.45
2009/04/23 16:09:28.2     110    107     -3    154    155  46.0  -1.2  34216  290.53 0854.45
2009/04/23 16:09:28.3     -69    243     12    253    254 344.0   2.8  34214  290.48 0854.45
2009/04/23 16:09:28.4    -103    128     76    165    181 321.3  26.4  34210  290.41 0854.45
2009/04/23 16:09:28.5     110    232    174    257    310  25.4  37.3  34198  290.20 0854.45
2009/04/23 16:09:28.6      20    243    193    244    311   4.9  42.7  34208  290.37 0854.45
2009/04/23 16:09:28.7      30    241    124    243    272   7.1  29.2  34226  290.68 0854.45
2009/04/23 16:09:28.8      45    234    102    239    259  10.9  24.3  34244  290.99 0854.45
2009/04/23 16:09:28.9      98    366     73    379    387  15.1  11.0  34252  291.13 0854.45
2009/04/23 16:09:29.0      78    360     23    369    370  12.3   3.6  34248  291.06 0854.45
2009/04/23 16:09:29.1      53    343     26    348    349   8.8   4.3  34258  291.22 0854.45
2009/04/23 16:09:29.2      -6    344     22    345    346 359.0   3.8  34272  291.47 0854.45
2009/04/23 16:09:29.3     -40    323      2    326    327 352.9   0.4  34264  291.34 0854.45
2009/04/23 16:09:29.4     -88    272    -11    286    287 342.1  -2.2  34264  291.34 0854.42
2009/04/23 16:09:29.5     -60    238     57    246    253 345.7  13.2  34286  291.72 0854.42
2009/04/23 16:09:29.6     -26    233     68    235    245 353.5  16.3  34314  292.19 0854.42
2009/04/23 16:09:29.7     146    127    135    194    236  49.1  38.4  34244  291.01 0854.42
2009/04/23 16:09:29.8     121    190    139    226    265  32.6  34.5  34262  291.29 0854.42
2009/04/23 16:09:29.9      79    172    158    190    247  24.7  43.8  34316  292.23 0854.42
2009/04/23 16:09:30.0     133    115    107    177    206  49.1  34.2  34302  292.00 0854.42
2009/04/23 16:09:30.1     101    143     90    176    197  35.4  29.3  34264  291.35 0854.42
2009/04/23 16:09:30.2      93    212    144    232    273  23.7  34.8  34344  292.70 0854.42
2009/04/23 16:09:30.3     142    265     85    301    313  28.3  15.8  34320  292.30 0854.42
2009/04/23 16:09:30.4     161    291     65    333    340  29.0  11.1  34274  291.51 0854.42
2009/04/23 16:09:30.5     267    381    -18    466    467  35.1  -2.2  34322  292.33 0854.42
2009/04/23 16:09:30.6     356    295    -30    463    465  50.4  -3.8  34296  291.87 0854.42
2009/04/23 16:09:30.7     236    367    103    437    449  32.8  13.3  34224  290.67 0854.42
2009/04/23 16:09:30.8     141    378     45    404    407  20.5   6.4  34184  289.99 0854.42
2009/04/23 16:09:30.9     155    356     12    389    390  23.6   1.9  34184  289.98 0854.42
2009/04/23 16:09:31.0     287    436     68    523    528  33.4   7.4  34200  290.26 0854.42
2009/04/23 16:09:31.1     331    281     95    435    446  49.6  12.4  34254  291.16 0854.42
2009/04/23 16:09:31.2     339    268     41    433    436  51.6   5.5  34296  291.89 0854.42
2009/04/23 16:09:31.3     288    240     96    376    389  50.2  14.3  34328  292.42 0854.42
2009/04/23 16:09:31.4     167    461     81    491    498  20.0   9.4  34192  290.10 0854.40
2009/04/23 16:09:31.5     178    404     -8    442    443  23.8  -1.2  34226  290.70 0854.40
2009/04/23 16:09:31.6     253    273    -12    373    374  42.8  -1.9  34252  291.13 0854.40
2009/04/23 16:09:31.7     424    374    125    566    580  48.6  12.5  34228  290.73 0854.40
2009/04/23 16:09:31.8     538    353    129    644    657  56.7  11.3  34232  290.81 0854.40
2009/04/23 16:09:31.9     656    356    149    747    762  61.5  11.3  34318  292.25 0854.40
2009/04/23 16:09:32.0     627    235    173    670    693  69.4  14.5  34244  291.00 0854.40
2009/04/23 16:09:32.1     644    266     46    698    700  67.5   3.8  34362  292.99 0854.40
2009/04/23 16:09:32.2     458    158    118    485    500  71.0  13.7  34386  293.40 0854.40
2009/04/23 16:09:32.3     469    205    139    513    532  66.4  15.2  34352  292.85 0854.40
2009/04/23 16:09:32.4     554    251     20    609    610  65.6   1.9  34210  290.41 0854.40
2009/04/23 16:09:32.5     433    247   -100    499    509  60.3 -11.3  34202  290.29 0854.40
2009/04/23 16:09:32.6     312    368    -15    483    484  40.3  -1.9  34192  290.12 0854.40
2009/04/23 16:09:32.7     408    312    -43    514    517  52.6  -4.9  34174  289.81 0854.40
2009/04/23 16:09:32.8     395    323    -53    511    514  50.7  -6.0  34176  289.83 0854.40
2009/04/23 16:09:32.9     395    310    -54    503    507  51.9  -6.2  34170  289.73 0854.40
2009/04/23 16:09:33.0     274    284   -140    395    420  44.0 -19.6  34176  289.83 0854.40
2009/04/23 16:09:33.1     326    363    -51    488    491  41.9  -6.0  34172  289.78 0854.40
2009/04/23 16:09:33.3     429    206     36    477    479  64.3   4.3  34208  290.37 0854.40
2009/04/23 16:09:33.4     419    275      7    502    503  56.7   0.8  34188  290.05 0854.40
2009/04/23 16:09:33.5     383    220     13    442    443  60.1   1.7  34202  290.28 0854.42
2009/04/23 16:09:33.6     313    312     -3    442    443  45.1  -0.5  34188  290.04 0854.42
2009/04/23 16:09:33.7     177    477     25    510    511  20.4   2.9  34170  289.74 0854.42
2009/04/23 16:09:33.8     312    489    164    581    604  32.6  15.8  34288  291.73 0854.42
2009/04/23 16:09:33.9     444    451    115    633    644  44.5  10.4  34172  289.76 0854.42
2009/04/23 16:09:34.0     295    472    -24    557    558  32.0  -2.5  34162  289.62 0854.42
2009/04/23 16:09:34.1     345    350    120    492    507  44.5  13.8  34152  289.42 0854.42
2009/04/23 16:09:34.2     439    362     71    570    575  50.5   7.1  34242  290.95 0854.42
2009/04/23 16:09:34.3     504    341    234    609    652  55.9  22.2  34238  290.91 0854.42
2009/04/23 16:09:34.4     526    496    262    724    771  46.7  19.9  34248  291.06 0854.42
2009/04/23 16:09:34.5     412    309    298    515    595  53.1  32.8  34320  292.29 0854.42
2009/04/23 16:09:34.6     394    293     99    492    502  53.4  11.4  34178  289.88 0854.42
2009/04/23 16:09:34.7     361    295    206    467    510  50.7  25.2  34222  290.62 0854.42
2009/04/23 16:09:34.8     393    380    191    547    579  46.0  20.0  34176  289.83 0854.42
2009/04/23 16:09:34.9     400    330    189    519    552  50.5  20.9  34182  289.96 0854.42
2009/04/23 16:09:35.0     339    458     90    571    579  36.5   9.0  34176  289.83 0854.42
2009/04/23 16:09:35.1     329    410     -2    526    527  38.8  -0.3  34170  289.74 0854.42
2009/04/23 16:09:35.2     238    316    -57    396    401  37.0  -8.3  34176  289.84 0854.42
2009/04/23 16:09:35.3     246    234    -45    340    343  46.4  -7.6  34170  289.74 0854.42
2009/04/23 16:09:35.4     237    262    -56    354    359  42.1  -9.1  34182  289.94 0854.46
2009/04/23 16:09:35.5     338    318    -43    465    468  46.8  -5.4  34182  289.95 0854.46
2009/04/23 16:09:35.6     342    303    -52    458    461  48.5  -6.5  34192  290.12 0854.46
2009/04/23 16:09:35.7     177    175    -42    249    253  45.3  -9.8  34180  289.92 0854.46
2009/04/23 16:09:35.8     159    139   -120    212    243  48.9 -36.7  34194  290.15 0854.46
2009/04/23 16:09:35.9     131     57    -51    144    153  66.4 -19.7  34188  290.04 0854.46
2009/04/23 16:09:36.0      81     -1      5     82     83  91.3   3.8  34184  289.97 0854.46
2009/04/23 16:09:36.1     113    -18     45    115    123  99.2  22.5  34178  289.89 0854.46
2009/04/23 16:09:36.2     142    -37      9    147    148 104.6   3.8  34180  289.92 0854.46
2009/04/23 16:09:36.3     126      0     43    127    135  90.4  18.9  34174  289.82 0854.46
2009/04/23 16:09:36.4      59     26     75     65     99  65.6  54.8  34190  290.09 0854.46
2009/04/23 16:09:36.5      -7    -32     74     33     81 193.4  74.5  34212  290.45 0854.46
2009/04/23 16:09:36.6      59    -22     38     64     74 110.8  35.5  34194  290.16 0854.46
2009/04/23 16:09:36.7     182      2     -4    183    184  89.2  -1.3  34184  289.97 0854.46
2009/04/23 16:09:36.8     178   -139   -112    226    252 128.0 -32.6  34184  289.98 0854.46
2009/04/23 16:09:36.9     258    -67     54    267    273 104.6  11.6  34182  289.95 0854.46
2009/04/23 16:09:37.0     221     44     41    226    230  78.5  10.3  34168  289.70 0854.46
2009/04/23 16:09:37.1     137     43     12    144    145  72.3   5.0  34176  289.85 0854.46
2009/04/23 16:09:37.2      29      0      2     30     31  90.0   4.9  34174  289.82 0854.46
2009/04/23 16:09:37.3     -96     54     75    111    133 299.3  37.0  34182  289.96 0854.46
2009/04/23 16:09:37.4     -27    139    -79    142    162 348.9 -35.8  34172  289.79 0854.47
2009/04/23 16:09:37.5     -61    227     63    236    245 344.8  15.0  34176  289.83 0854.47
2009/04/23 16:09:37.6     -26    344     99    345    359 355.7  16.0  34178  289.86 0854.47
2009/04/23 16:09:37.7     -67    408     36    414    416 350.6   5.0  34180  289.90 0854.47
2009/04/23 16:09:37.8    -110    302     -1    322    323 340.0  -0.2  34176  289.83 0854.47
2009/04/23 16:09:37.9     -78    223     24    237    239 340.6   6.0  34182  289.93 0854.47
2009/04/23 16:09:38.0    -113    233    -18    259    260 334.1  -4.1  34180  289.92 0854.47
2009/04/23 16:09:38.1     -51    252     -5    258    259 348.4  -1.3  34186  290.00 0854.47
2009/04/23 16:09:38.2      70    157    -55    172    180  24.1 -23.0  34186  290.02 0854.47
2009/04/23 16:09:38.3      45    170    -75    177    192  15.1 -28.7  34180  289.91 0854.47
2009/04/23 16:09:38.4     -71    375    -70    382    389 349.2 -10.5  34182  289.93 0854.47
2009/04/23 16:09:38.5     -52    457    -89    461    470 353.4 -11.0  34192  290.12 0854.47
2009/04/23 16:09:38.6     -71    359    -50    366    370 348.8  -7.9  34198  290.20 0854.47
2009/04/23 16:09:38.7    -244    414    -65    481    486 329.4  -7.7  34188  290.03 0854.47
2009/04/23 16:09:38.8    -176    302     20    350    351 329.7   3.3  34182  289.96 0854.47
2009/04/23 16:09:38.9    -219    317     19    386    387 325.3   2.9  34188  290.03 0854.47
2009/04/23 16:09:39.0    -170    423     -2    457    458 338.1  -0.3  34194  290.14 0854.47
2009/04/23 16:09:39.1    -257    404    -15    480    481 327.5  -1.8  34196  290.17 0854.47
2009/04/23 16:09:39.2    -194    482    -61    520    524 338.1  -6.7  34192  290.11 0854.47
2009/04/23 16:09:39.3    -237    474    -34    531    533 333.4  -3.7  34200  290.24 0854.47
2009/04/23 16:09:39.4    -248    138    -30    284    286 299.1  -6.1  34178  289.88 0854.46
2009/04/23 16:09:39.5    -210    309    259    374    454 325.8  38.0  34202  290.29 0854.46
2009/04/23 16:09:39.6    -184    503    264    536    597 339.9  28.2  34198  290.20 0854.46
2009/04/23 16:09:39.7    -393    438     87    589    596 318.1   8.5  34148  289.37 0854.46
2009/04/23 16:09:39.8    -473    347    -11    588    589 306.3  -1.2  34146  289.32 0854.46
2009/04/23 16:09:39.9    -499    339    -26    604    605 304.2  -2.5  34116  288.83 0854.46
2009/04/23 16:09:40.0    -529    413    -36    672    674 308.0  -3.1  34100  288.56 0854.46
2009/04/23 16:09:40.1    -487    338    -23    593    594 304.8  -2.3  34102  288.59 0854.46
2009/04/23 16:09:40.2    -433    229   -174    491    522 297.9 -19.6  34104  288.64 0854.46
2009/04/23 16:09:40.3    -402    353   -145    536    556 311.3 -15.2  34116  288.84 0854.46
2009/04/23 16:09:40.4    -347    377   -183    513    545 317.3 -19.7  34118  288.85 0854.47
2009/04/23 16:09:40.5    -377    325   -172    498    527 310.8 -19.1  34126  289.00 0854.47
2009/04/23 16:09:40.6    -362    210   -239    419    482 300.1 -36.7  34128  289.02 0854.47
2009/04/23 16:09:40.7    -436    287   -163    523    547 303.4 -22.3  34124  288.97 0854.47
2009/04/23 16:09:40.8    -358    362   -133    510    528 315.4 -14.6  34118  288.87 0854.47
2009/04/23 16:09:40.9    -411    321   -185    522    554 308.0 -19.5  34120  288.91 0854.47
2009/04/23 16:09:41.0    -376    273   -156    465    491 306.0 -18.6  34116  288.84 0854.47
2009/04/23 16:09:41.1    -373    280   -167    467    497 306.9 -19.7  34124  288.95 0854.47
2009/04/23 16:09:41.2    -271    180   -155    326    360 303.7 -31.6  34130  289.08 0854.47
2009/04/23 16:09:41.3    -182    284   -160    338    373 327.4 -31.6  34156  289.50 0854.47
2009/04/23 16:09:41.4    -171    208   -215    270    345 320.6 -47.1  34274  291.51 0854.47
2009/04/23 16:09:41.5    -275    178      5    328    329 303.0   1.0  34254  291.17 0854.47
2009/04/23 16:09:41.6    -228    243    -60    334    340 316.8 -10.3  34208  290.38 0854.47
2009/04/23 16:09:41.7    -210    123   -152    244    287 300.4 -39.6  34142  289.25 0854.47
2009/04/23 16:09:41.8    -169     43   -189    175    257 284.4 -56.6  34142  289.27 0854.47
2009/04/23 16:09:41.9     -58    -14   -122     60    135 255.8 -76.8  34144  289.31 0854.47
2009/04/23 16:09:42.0     -12    -48    -89     50    102 194.3 -73.2  34142  289.26 0854.47
2009/04/23 16:09:42.1     -18     -6   -127     20    128 251.6 -90.0  34144  289.30 0854.47
2009/04/23 16:09:42.2      37   -109   -167    116    203 161.3 -66.8  34158  289.55 0854.47
2009/04/23 16:09:42.3      -3   -204   -228    205    306 180.9 -57.9  34184  289.98 0854.47
2009/04/23 16:09:42.4    -149   -189   -222    241    327 218.3 -51.9  34206  290.34 0854.47
2009/04/23 16:09:42.5    -229   -282   -245    364    438 219.1 -41.6  34236  290.87 0854.47
2009/04/23 16:09:42.6    -138   -142   -290    199    351 224.1 -66.9  34184  289.97 0854.47
2009/04/23 16:09:42.7     -15   -211   -194    212    287 184.2 -51.9  34198  290.22 0854.47
2009/04/23 16:09:42.8     144   -162    -86    217    233 138.3 -27.2  34188  290.04 0854.47
2009/04/23 16:09:42.9     196   -142    -77    243    254 126.0 -22.8  34166  289.66 0854.47
2009/04/23 16:09:43.0      30    142   -165    146    220  12.0 -58.6  34170  289.75 0854.47
2009/04/23 16:09:43.1     109    251    -81    274    286  23.6 -16.6  34178  289.88 0854.47
2009/04/23 16:09:43.2     161    256   -175    303    349  32.3 -37.2  34186  290.01 0854.47
2009/04/23 16:09:43.3     162    272   -152    317    351  30.8 -31.8  34184  289.99 0854.47
2009/04/23 16:09:43.4     259    230   -108    347    363  48.5 -22.2  34182  289.93 0854.47
2009/04/23 16:09:43.5     205    224    -59    304    310  42.4 -11.0  34172  289.78 0854.47
2009/04/23 16:09:43.6     189    177    -36    259    262  46.9  -8.0  34186  290.00 0854.47
2009/04/23 16:09:43.7     109    171     98    204    226  32.6  27.3  34186  290.01 0854.47
2009/04/23 16:09:43.8      73    114    165    136    213  32.5  56.4  34180  289.91 0854.47
2009/04/23 16:09:43.9     170     67    230    183    293  68.3  57.5  34180  289.90 0854.47
2009/04/23 16:09:44.0      39    179    209    184    278  12.5  54.2  34190  290.07 0854.47
2009/04/23 16:09:44.1     112    354    111    372    389  17.5  16.7  34162  289.62 0854.47
2009/04/23 16:09:44.2      95    292     -6    308    309  18.0  -1.3  34166  289.68 0854.47
2009/04/23 16:09:44.3      39    241    -78    245    257   9.3 -22.8  34170  289.75 0854.47
2009/04/23 16:09:44.4      69    188   -146    201    248  20.3 -44.1  34178  289.88 0854.44
2009/04/23 16:09:44.5      28    140   -187    143    235  11.6 -63.1  34180  289.92 0854.44
2009/04/23 16:09:44.6      53     64   -133     84    157  39.6 -69.3  34186  290.01 0854.44
2009/04/23 16:09:44.7    -170     55   -170    179    246 287.9 -52.9  34176  289.84 0854.44
2009/04/23 16:09:44.8    -255    255   -116    362    380 315.0 -23.0  34172  289.79 0854.44
2009/04/23 16:09:44.9    -213    228    -99    313    329 317.0 -17.5  34178  289.88 0854.44
2009/04/23 16:09:45.0    -119    114     57    165    175 313.8  19.2  34184  289.97 0854.44
2009/04/23 16:09:45.1      45     55    130     72    148  39.7  68.8  34188  290.04 0854.44
2009/04/23 16:09:45.2      98     64     85    118    145  56.7  39.5  34186  290.02 0854.44
2009/04/23 16:09:45.3     224     94      3    244    245  67.2   0.8  34174  289.81 0854.44
2009/04/23 16:09:45.4     249     54    -14    255    256  77.6  -3.1  34176  289.83 0854.44
2009/04/23 16:09:45.5     272     40     51    275    280  81.6  10.6  34176  289.83 0854.44
2009/04/23 16:09:45.6     282    153    -16    321    322  61.5  -3.0  34174  289.80 0854.44
2009/04/23 16:09:45.7     327     14    -56    328    333  87.5  -9.8  34178  289.87 0854.44
2009/04/23 16:09:45.8     256     15    -51    257    263  86.5 -11.3  34182  289.95 0854.44
2009/04/23 16:09:45.9     281    145    -87    317    329  62.6 -15.5  34172  289.78 0854.44
2009/04/23 16:09:46.0     200    202     11    285    286  44.8   2.3  34196  290.19 0854.44
2009/04/23 16:09:46.1     285    204   -123    351    373  54.3 -19.4  34202  290.28 0854.44
2009/04/23 16:09:46.2     138    167     11    217    218  39.6   3.1  34202  290.28 0854.44
2009/04/23 16:09:46.3       2    137    -38    138    144   1.0 -15.5  34204  290.31 0854.44
2009/04/23 16:09:46.4    -103    297    -89    315    327 340.8 -20.5  34178  289.88 0854.44
2009/04/23 16:09:46.5      -3    243    -33    244    247 359.3  -7.7  34194  290.15 0854.44
2009/04/23 16:09:46.6     -45    173     35    179    183 345.3  11.1  34196  290.18 0854.44
2009/04/23 16:09:46.7    -104    150     -2    183    184 325.3  -0.7  34192  290.11 0854.44
2009/04/23 16:09:46.8      68    117     21    136    138  30.3   9.0  34204  290.31 0854.44
2009/04/23 16:09:46.9      49     59     80     77    111  39.6  51.2  34206  290.36 0854.44
2009/04/23 16:09:47.0     214    218     99    306    322  44.5  17.9  34200  290.24 0854.44
2009/04/23 16:09:47.1     154    396     86    426    435  21.3  11.5  34194  290.16 0854.44
2009/04/23 16:09:47.2     140    460     60    482    486  17.0   7.1  34192  290.13 0854.44
2009/04/23 16:09:47.3      85    419     67    428    434  11.6   9.0  34198  290.21 0854.44
2009/04/23 16:09:47.4      98    422     87    434    443  13.2  11.4  34194  290.14 0854.44
2009/04/23 16:09:47.5     143    389    107    415    429  20.2  14.5  34198  290.22 0854.44
2009/04/23 16:09:47.6      63    387     95    393    405   9.3  13.7  34204  290.33 0854.44
2009/04/23 16:09:47.7     -15    332    165    333    371 357.4  28.4  34202  290.30 0854.44
2009/04/23 16:09:47.8      18    290     91    291    306   3.6  17.4  34202  290.29 0854.44
2009/04/23 16:09:47.9      -8    297     22    298    299 358.4   4.2  34198  290.22 0854.44
2009/04/23 16:09:48.0      11    396     -8    397    398   1.6  -1.3  34208  290.37 0854.44
2009/04/23 16:09:48.1     -87    360     35    371    373 346.4   5.5  34220  290.59 0854.44
2009/04/23 16:09:48.2    -136    320    121    348    369 337.0  19.2  34222  290.64 0854.44
2009/04/23 16:09:48.3     -97    295     92    311    325 341.7  16.5  34228  290.73 0854.44
2009/04/23 16:09:48.4     -93    273     75    289    299 341.1  14.7  34244  290.99 0854.43
2009/04/23 16:09:48.5     -72    306    140    315    344 346.7  25.7  34264  291.34 0854.43
2009/04/23 16:09:48.6    -184    288    152    343    375 327.4  25.3  34252  291.13 0854.43
2009/04/23 16:09:48.7    -139    324    133    353    377 336.8  21.6  34264  291.35 0854.43
2009/04/23 16:09:48.8     -36    191    143    195    241 349.1  39.7  34264  291.35 0854.43
2009/04/23 16:09:48.9     -15    256    141    257    293 356.6  31.3  34210  290.41 0854.43
2009/04/23 16:09:49.0      28    195     92    198    218   8.2  27.1  34220  290.60 0854.43
2009/04/23 16:09:49.1     126    164     59    208    217  37.6  15.8  34240  290.94 0854.43
2009/04/23 16:09:49.2     103    180     34    208    211  29.9   9.3  34254  291.18 0854.43
2009/04/23 16:09:49.3      74    210      3    223    224  19.4   0.8  34222  290.64 0854.43
2009/04/23 16:09:49.4      36    338    106    341    358   6.2  17.3  34218  290.54 0854.43
2009/04/23 16:09:49.5    -105    240    136    263    296 336.3  29.3  34254  291.17 0854.43
2009/04/23 16:09:49.6    -177    266      0    320    321 326.4   0.1  34266  291.38 0854.43
2009/04/23 16:09:49.7    -143    269     -1    305    306 332.0  -0.3  34286  291.70 0854.43
2009/04/23 16:09:49.8    -113    243    -58    268    275 335.1 -12.4  34302  291.99 0854.43
2009/04/23 16:09:49.9    -179    230   -160    292    332 322.2 -35.7  34200  290.24 0854.43
2009/04/23 16:09:50.0    -123    272   -230    299    377 335.7 -45.9  34218  290.57 0854.43
2009/04/23 16:09:50.1      15    326      2    327    328   2.7   0.5  34298  291.90 0854.43
2009/04/23 16:09:50.2      -4    279    -66    280    288 359.1 -13.3  34306  292.04 0854.43
2009/04/23 16:09:50.3     -34    217     11    220    221 351.1   2.9  34298  291.91 0854.43
2009/04/23 16:09:50.4     -63    191     60    202    211 341.7  16.8  34310  292.12 0854.40
2009/04/23 16:09:50.5     -43    278    100    282    299 351.1  20.2  34338  292.60 0854.40
2009/04/23 16:09:50.6       0    238     -9    239    240 359.8  -2.2  34334  292.52 0854.40
2009/04/23 16:09:50.7     -48    343    -29    347    349 351.9  -4.9  34338  292.61 0854.40
2009/04/23 16:09:50.8     -26    340    -13    341    342 355.6  -2.2  34308  292.08 0854.40
2009/04/23 16:09:50.9     -12    408    -27    409    410 358.2  -3.9  34296  291.87 0854.40
2009/04/23 16:09:51.0     -64    392     -4    398    399 350.7  -0.6  34264  291.35 0854.40
2009/04/23 16:09:51.1      -9    349     13    350    351 358.5   2.2  34262  291.32 0854.40
2009/04/23 16:09:51.2     160    237     55    287    293  34.1  11.0  34326  292.40 0854.40
2009/04/23 16:09:51.3     131    170    -19    215    216  37.6  -5.2  34224  290.67 0854.40
2009/04/23 16:09:51.4     131     62    -18    145    147  64.7  -7.2  34222  290.62 0854.40
2009/04/23 16:09:51.5      77    -73   -146    107    181 133.2 -64.9  34216  290.52 0854.40
2009/04/23 16:09:51.6       7     -4   -123      9    123 122.4 -90.0  34232  290.79 0854.40
2009/04/23 16:09:51.7     117     57    -96    131    162  63.8 -44.3  34222  290.64 0854.40
2009/04/23 16:09:51.8     260     52    -77    266    276  78.5 -20.8  34220  290.58 0854.40
2009/04/23 16:09:51.9     254     81    -76    267    278  72.3 -16.0  34244  290.99 0854.40
2009/04/23 16:09:52.0     277    186   -197    335    388  56.1 -37.8  34258  291.25 0854.40
2009/04/23 16:09:52.1     336    222    -16    403    404  56.5  -2.3  34222  290.63 0854.40
2009/04/23 16:09:52.2     123    270    117    297    319  24.5  22.5  34252  291.14 0854.40
2009/04/23 16:09:52.3     -32    234    181    237    298 352.0  41.4  34262  291.29 0854.40
2009/04/23 16:09:52.4     -38    220    133    224    260 350.0  33.5  34282  291.65 0854.39
2009/04/23 16:09:52.5     -76    210     83    224    238 340.0  21.0  34276  291.55 0854.39
2009/04/23 16:09:52.6     -84    185    103    204    228 335.5  28.7  34276  291.55 0854.39
2009/04/23 16:09:52.7     -84    115    127    143    191 323.9  46.4  34298  291.91 0854.39
2009/04/23 16:09:52.8     -49    120    139    130    190 337.7  52.2  34308  292.08 0854.39
2009/04/23 16:09:52.9     -47    152     85    160    181 342.6  30.3  34308  292.08 0854.39
2009/04/23 16:09:53.0     -59    125    129    139    189 334.5  47.9  34302  292.00 0854.39
2009/04/23 16:09:53.1     -84    115    108    143    179 323.9  40.7  34318  292.27 0854.39
2009/04/23 16:09:53.2     -51     63     79     82    113 320.8  49.4  34330  292.47 0854.39
2009/04/23 16:09:53.3     -39     26     70     48     84 304.2  62.6  34336  292.58 0854.39
2009/04/23 16:09:53.4      -4    -30     88     31     93 188.0  80.7  34342  292.66 0854.39
2009/04/23 16:09:53.5     122      9    149    123    193  85.7  56.4  34340  292.63 0854.39
2009/04/23 16:09:53.6     143    139    193    200    277  46.0  49.0  34336  292.55 0854.39
2009/04/23 16:09:53.7     139     95    189    169    253  55.4  53.3  34328  292.44 0854.39
2009/04/23 16:09:53.8     275    130    196    305    362  64.6  35.6  34302  291.98 0854.39
2009/04/23 16:09:53.9     315    135    246    343    422  66.7  39.3  34292  291.81 0854.39
2009/04/23 16:09:54.0     309    125    105    334    351  67.9  17.4  34284  291.68 0854.39
2009/04/23 16:09:54.1     255    107    -87    277    291  67.2 -17.5  34268  291.39 0854.39
2009/04/23 16:09:54.2     285    266     12    391    392  47.0   1.8  34274  291.52 0854.39
2009/04/23 16:09:54.3     201    113    -10    231    232  60.7  -2.6  34248  291.06 0854.39
2009/04/23 16:09:54.4     204     67     27    215    217  71.6   7.2  34270  291.43 0854.39
2009/04/23 16:09:54.5     218      9     42    219    224  87.5  11.0  34290  291.77 0854.39
2009/04/23 16:09:54.6     137     19      9    139    140  82.0   3.8  34296  291.89 0854.39
2009/04/23 16:09:54.7     114     -8    -41    115    122  94.4 -24.8  34248  291.06 0854.39
2009/04/23 16:09:54.8     113    -61    -44    129    136 118.4 -23.3  34256  291.21 0854.39
2009/04/23 16:09:54.9     107      0    -72    108    129  90.0 -41.4  34276  291.55 0854.39
2009/04/23 16:09:55.0     127    -25    -16    130    132 101.5  -7.3  34278  291.57 0854.39
2009/04/23 16:09:55.1     124     17    -40    126    133  82.1 -17.6  34274  291.52 0854.39
2009/04/23 16:09:55.2     110     44    -37    119    124  68.2 -22.8  34286  291.71 0854.39
2009/04/23 16:09:55.3      39     77     -7     87     88  26.7  -5.2  34286  291.72 0854.39
2009/04/23 16:09:55.4      60    -24     17     65     68 111.7  15.2  34296  291.88 0854.39
2009/04/23 16:09:55.5     124   -128    112    179    211 135.9  35.2  34280  291.62 0854.39
2009/04/23 16:09:55.6      93    -71    129    118    174 127.3  53.0  34278  291.57 0854.39
2009/04/23 16:09:55.7     -15   -143    192    144    240 186.2  59.4  34284  291.69 0854.39
2009/04/23 16:09:55.8    -123    -53    174    135    220 246.5  58.5  34290  291.77 0854.39
2009/04/23 16:09:55.9       0    -85     95     86    128 180.0  53.3  34282  291.64 0854.39
2009/04/23 16:09:56.0      54    -80    121     97    155 145.7  56.4  34288  291.76 0854.39
2009/04/23 16:09:56.1       0    -82    111     83    138 180.4  60.0  34282  291.66 0854.39
2009/04/23 16:09:56.2       0    -81    185     82    202 180.0  74.9  34290  291.77 0854.39
2009/04/23 16:09:56.3     -53   -132    166    143    219 201.9  55.0  34292  291.81 0854.39
2009/04/23 16:09:56.4     -79   -124    184    148    236 212.5  57.1  34302  291.98 0854.40
2009/04/23 16:09:56.5    -112   -176    157    209    261 212.5  40.6  34308  292.07 0854.40
2009/04/23 16:09:56.6    -178   -167    115    245    270 226.9  27.1  34318  292.26 0854.40
2009/04/23 16:09:56.7    -163   -159    130    228    262 225.8  32.4  34308  292.07 0854.40
2009/04/23 16:09:56.8    -191   -175    108    260    281 227.6  23.8  34294  291.84 0854.40
2009/04/23 16:09:56.9    -146   -128    121    195    229 228.7  35.2  34288  291.76 0854.40
2009/04/23 16:09:57.0     -87   -136     82    162    181 212.5  28.7  34290  291.79 0854.40
2009/04/23 16:09:57.1      -8   -112    102    113    152 184.4  46.9  34294  291.84 0854.40
2009/04/23 16:09:57.2      21    -88     58     91    107 166.6  35.5  34286  291.72 0854.40
2009/04/23 16:09:57.3      38    -48     90     62    109 142.2  62.1  34286  291.72 0854.40
2009/04/23 16:09:57.4     -59    -99    134    116    177 210.7  54.6  34276  291.55 0854.40
2009/04/23 16:09:57.5    -163   -163    189    231    298 225.0  43.7  34282  291.65 0854.40
2009/04/23 16:09:57.6    -114   -160    109    197    225 215.4  31.4  34288  291.74 0854.40
2009/04/23 16:09:57.7      15   -156    143    157    212 174.2  47.5  34280  291.62 0854.40
2009/04/23 16:09:57.8     -67   -226    148    236    278 196.5  35.2  34278  291.56 0854.40
2009/04/23 16:09:57.9     -48   -249    105    254    274 191.1  23.8  34236  290.87 0854.40
2009/04/23 16:09:58.0       0   -154    131    155    202 180.4  44.8  34240  290.94 0854.40
2009/04/23 16:09:58.1       7    -45    159     46    165 170.2  83.3  34250  291.09 0854.40
2009/04/23 16:09:58.2     -19   -109    159    111    193 190.2  61.8  34284  291.67 0854.40
2009/04/23 16:09:58.3      -8    -57    120     58    133 188.9  72.8  34286  291.71 0854.40
2009/04/23 16:09:58.4      -6     25     68     26     72 346.6  78.2  34286  291.72 0854.42
2009/04/23 16:09:58.5      33     71     76     79    109  25.4  49.0  34268  291.42 0854.42
2009/04/23 16:09:58.6      33    -12     73     36     81 110.0  71.9  34268  291.40 0854.42
2009/04/23 16:09:58.7      -4    -34     59     35     68 188.0  65.7  34274  291.52 0854.42
2009/04/23 16:09:58.8     -72     24     40     76     85 288.6  30.3  34282  291.64 0854.42
2009/04/23 16:09:58.9    -225      7     -8    226    227 271.9  -2.1  34266  291.37 0854.42
2009/04/23 16:09:59.0    -270     76     38    281    284 285.9   7.8  34264  291.34 0854.42
2009/04/23 16:09:59.1    -307     31      4    309    310 275.9   0.8  34260  291.27 0854.42
2009/04/23 16:09:59.2    -360     56     71    365    373 278.9  11.1  34258  291.22 0854.42
2009/04/23 16:09:59.3    -359    -35     25    361    362 264.3   4.0  34266  291.37 0854.42
2009/04/23 16:09:59.4    -342     -8     -4    343    344 268.6  -0.7  34238  290.91 0854.42
2009/04/23 16:09:59.5    -289     75     -9    299    300 284.6  -1.8  34240  290.93 0854.42
2009/04/23 16:09:59.6    -116     75     35    139    144 302.9  14.3  34242  290.96 0854.42
2009/04/23 16:09:59.7       7    -10    107     13    107 143.9  90.0  34274  291.50 0854.42
2009/04/23 16:09:59.8      41     21     75     47     88  62.9  64.7  34270  291.43 0854.42
2009/04/23 16:09:59.9      65    110    144    128    192  30.7  53.7  34266  291.37 0854.42
2009/04/23 16:10:00.0      87     74    149    115    188  49.6  58.5  34264  291.33 0854.42
2009/04/23 16:10:00.1      52     68    140     86    164  37.8  65.4  34272  291.47 0854.42
2009/04/23 16:10:00.2     121     57    170    134    216  64.6  57.7  34264  291.33 0854.42
2009/04/23 16:10:00.3     170    148    145    226    268  48.9  35.6  34262  291.29 0854.42
2009/04/23 16:10:00.4     147    135    128    200    237  47.3  35.6  34260  291.26 0854.41
2009/04/23 16:10:00.5     187    199    117    274    297  43.2  24.3  34252  291.14 0854.41
2009/04/23 16:10:00.6     112    258     -8    282    283  23.6  -1.8  34244  290.99 0854.41
2009/04/23 16:10:00.8      57    283    -83    289    301  11.6 -16.0  34234  290.83 0854.41
2009/04/23 16:10:00.8      49    286    -50    291    296   9.7  -9.8  34232  290.78 0854.41
2009/04/23 16:10:00.9      51    297    -65    302    310   9.8 -12.3  34228  290.73 0854.41
2009/04/23 16:10:01.1     103    285    -44    304    308  20.0  -8.4  34230  290.75 0854.41
2009/04/23 16:10:01.2     120    254    -20    281    282  25.3  -4.1  34232  290.78 0854.41
2009/04/23 16:10:01.3     157    221    -29    272    274  35.4  -6.2  34240  290.92 0854.41
2009/04/23 16:10:01.4     125    196    -41    233    237  32.6 -10.1  34238  290.88 0854.42
2009/04/23 16:10:01.5     231    237    -34    332    334  44.3  -5.9  34238  290.89 0854.42
2009/04/23 16:10:01.6     215    215     38    305    308  45.0   7.1  34228  290.73 0854.42
2009/04/23 16:10:01.7     163    124    100    206    228  52.7  27.4  34234  290.82 0854.42
2009/04/23 16:10:01.8     161     73    123    177    215  65.6  38.6  34234  290.82 0854.42
2009/04/23 16:10:01.9     198     86    176    217    279  66.4  43.3  34238  290.88 0854.42
2009/04/23 16:10:02.0     173    304     45    350    353  29.6   7.4  34222  290.64 0854.42
2009/04/23 16:10:02.1     255    272    -60    374    379  43.1  -9.1  34210  290.42 0854.42
2009/04/23 16:10:02.2     271    289    -15    397    398  43.2  -2.2  34238  290.91 0854.42
2009/04/23 16:10:02.3     200    282     36    346    348  35.4   6.1  34234  290.83 0854.42
2009/04/23 16:10:02.4     117    172    -17    209    210  34.3  -4.9  34238  290.89 0854.42
2009/04/23 16:10:02.5     223    122     59    255    262  61.4  13.2  34256  291.19 0854.42
2009/04/23 16:10:02.6     188    154     52    244    250  50.7  12.0  34240  290.92 0854.42
2009/04/23 16:10:02.7     202     81      6    218    219  68.2   1.8  34242  290.96 0854.42
2009/04/23 16:10:02.8     140    101    -56    173    183  54.0 -18.1  34230  290.75 0854.42
2009/04/23 16:10:02.9     109     90    -23    142    144  50.4  -9.3  34244  290.99 0854.42
2009/04/23 16:10:03.0      85    100    -12    132    133  40.5  -5.2  34238  290.91 0854.42
2009/04/23 16:10:03.1     120    177    -27    215    217  34.2  -7.3  34250  291.11 0854.42
2009/04/23 16:10:03.2     140    229    -49    269    274  31.4 -10.5  34252  291.14 0854.42
2009/04/23 16:10:03.3     134     89    -49    162    169  56.3 -21.7  34250  291.09 0854.42
2009/04/23 16:10:03.4     114    180     10    214    215  32.3   2.9  34240  290.92 0854.42
2009/04/23 16:10:03.5     150    243     30    286    288  31.6   6.1  34234  290.83 0854.42
2009/04/23 16:10:03.6     102    227     39    250    254  24.3   8.9  34228  290.73 0854.42
2009/04/23 16:10:03.7     125    193     33    231    234  33.0   8.2  34232  290.81 0854.42
2009/04/23 16:10:03.8     119     74     79    141    161  58.0  31.9  34236  290.87 0854.42
2009/04/23 16:10:03.9     117    -12     41    118    126  96.2  19.4  34224  290.67 0854.42
2009/04/23 16:10:04.0     108      1    -34    109    115  89.2 -17.6  34222  290.64 0854.42
2009/04/23 16:10:04.1      61     84    -65    104    122  36.0 -39.4  34230  290.77 0854.42
2009/04/23 16:10:04.2       8    153    -66    154    167   3.1 -29.0  34216  290.53 0854.42
2009/04/23 16:10:04.3      35    115    -48    121    130  16.9 -26.9  34228  290.72 0854.42
2009/04/23 16:10:04.4      91     91    -41    129    136  45.0 -17.6  34224  290.67 0854.42
2009/04/23 16:10:04.5     107     59    -20    123    125  61.1  -9.4  34216  290.53 0854.42
2009/04/23 16:10:04.6      80    -29    -26     86     89 110.4 -22.3  34222  290.62 0854.42
2009/04/23 16:10:04.7      59     49    -19     77     80  50.4 -13.9  34216  290.52 0854.42
2009/04/23 16:10:04.8      85      3     16     86     88  87.4  10.6  34212  290.45 0854.42
2009/04/23 16:10:04.9      76     24     33     80     86  72.3  23.0  34212  290.47 0854.42
2009/04/23 16:10:05.0     100     33     34    106    112  71.8  17.9  34208  290.40 0854.42
2009/04/23 16:10:05.1     114     27     62    118    133  76.7  29.8  34218  290.55 0854.42
2009/04/23 16:10:05.2     101     33     78    107    132  71.8  39.7  34224  290.65 0854.42
2009/04/23 16:10:05.3     104     14    101    106    146  82.0  48.5  34228  290.74 0854.42
2009/04/23 16:10:05.4      16     -3    113     17    114 101.5  90.0  34250  291.09 0854.43
2009/04/23 16:10:05.5       4    -23     86     24     89 170.2  83.9  34248  291.08 0854.43
2009/04/23 16:10:05.6      18     -7     71     20     73 111.7  83.9  34238  290.89 0854.43
2009/04/23 16:10:05.7      84    -36     26     92     96 113.1  16.3  34226  290.69 0854.43
2009/04/23 16:10:05.8      43    -35     64     56     85 129.5  54.3  34228  290.74 0854.43
2009/04/23 16:10:05.9      79    -33     70     86    110 112.6  43.7  34236  290.87 0854.43
2009/04/23 16:10:06.0      62      1     47     63     78  88.3  41.2  34248  291.06 0854.43
2009/04/23 16:10:06.1      -8     -8     31     12     33 226.9  81.2  34262  291.30 0854.43
2009/04/23 16:10:06.2      34    -26     56     44     71 127.8  56.4  34250  291.11 0854.43
2009/04/23 16:10:06.3     104    -23    138    107    174 102.8  58.5  34240  290.94 0854.43
2009/04/23 16:10:06.4      89    -33    115     95    149 110.4  56.4  34252  291.13 0854.43
2009/04/23 16:10:06.5      81      0    141     82    163  89.6  67.2  34250  291.11 0854.43
2009/04/23 16:10:06.6     140    -10    108    141    177  94.3  41.4  34238  290.89 0854.43
2009/04/23 16:10:06.7      60     -3    124     61    138  93.5  72.8  34246  291.04 0854.43
2009/04/23 16:10:06.8      80     19    126     83    150  76.7  64.1  34244  291.01 0854.43
2009/04/23 16:10:06.9      62     17    113     65    130  74.1  67.2  34246  291.03 0854.43
2009/04/23 16:10:07.0       2     -7     72      8     72 161.3  90.0  34258  291.23 0854.43
2009/04/23 16:10:07.1      10    -69    107     70    127 171.1  64.1  34250  291.11 0854.43
2009/04/23 16:10:07.2      30    -81    194     87    212 159.5  74.5  34236  290.87 0854.43
2009/04/23 16:10:07.3     -13     21    102     25    105 327.5  86.4  34244  291.01 0854.43
2009/04/23 16:10:07.4       9      9    152     14    152  45.0  90.0  34260  291.28 0854.45
2009/04/23 16:10:07.5     -12      8     95     15     96 302.5  90.0  34260  291.26 0854.45
2009/04/23 16:10:07.6       1     86    100     87    132   0.9  54.3  34256  291.21 0854.45
2009/04/23 16:10:07.7     -40    -36     76     54     93 227.8  61.1  34256  291.20 0854.45
2009/04/23 16:10:07.8      21    -38     48     44     65 150.1  52.2  34254  291.18 0854.45
2009/04/23 16:10:07.9      -3     -8     91      9     91 205.4  90.0  34264  291.33 0854.45
2009/04/23 16:10:08.0      33      2     20     34     39  85.6  33.5  34250  291.11 0854.45
2009/04/23 16:10:08.1     -33     29     52     44     68 311.3  55.4  34256  291.21 0854.45
2009/04/23 16:10:08.2      -3    107    106    108    151 358.2  50.0  34242  290.98 0854.45
2009/04/23 16:10:08.3     -18     92    106     94    141 348.4  53.7  34248  291.06 0854.45
2009/04/23 16:10:08.4     -21    -17     90     28     94 230.5  81.2  34254  291.16 0854.45
2009/04/23 16:10:08.5       9    -27    107     29    110 160.0  84.9  34240  290.94 0854.45
2009/04/23 16:10:08.6     -44    -19     84     49     97 246.5  66.8  34254  291.18 0854.45
2009/04/23 16:10:08.7      57     12    108     59    123  77.6  68.9  34264  291.33 0854.45
2009/04/23 16:10:08.8      75     16    116     77    139  77.6  63.6  34270  291.45 0854.45
2009/04/23 16:10:08.9     103     43    101    112    150  66.9  46.9  34278  291.57 0854.45
2009/04/23 16:10:09.0      85    134     88    160    182  32.5  31.4  34270  291.43 0854.45
2009/04/23 16:10:09.1      31     31     78     45     90  45.0  67.2  34250  291.09 0854.45
2009/04/23 16:10:09.2       7    -32     42     33     53 166.6  56.4  34260  291.28 0854.45
2009/04/23 16:10:09.3      -3    -35     40     36     53 186.2  52.2  34268  291.40 0854.45
2009/04/23 16:10:09.4      50   -100     53    113    124 153.3  27.1  34220  290.58 0854.46
2009/04/23 16:10:09.5     121   -106     98    162    189 131.3  34.2  34214  290.48 0854.46
2009/04/23 16:10:09.6      63   -129     90    144    169 153.7  35.2  34222  290.64 0854.46
2009/04/23 16:10:09.7      55    -64     80     85    116 139.0  48.5  34232  290.81 0854.46
2009/04/23 16:10:09.8      51    -62     70     81    107 140.4  45.4  34238  290.89 0854.46
2009/04/23 16:10:09.9      18    -66     44     69     81 164.9  35.5  34254  291.18 0854.46
2009/04/23 16:10:10.0      58    -65     -3     88     89 138.1  -2.2  34234  290.84 0854.46
2009/04/23 16:10:10.1     137    -27    -56    140    150 101.4 -27.4  34234  290.82 0854.46
2009/04/23 16:10:10.2     233     54    -17    240    241  76.8  -4.1  34274  291.50 0854.46
2009/04/23 16:10:10.3     197     16     69    198    210  85.2  19.4  34280  291.60 0854.46
2009/04/23 16:10:10.4     157    -47    200    164    258 106.8  56.4  34248  291.06 0854.46
2009/04/23 16:10:10.5      -8      8    157     12    157 316.8  90.0  34268  291.42 0854.46
2009/04/23 16:10:10.6     -21    -40    150     46    156 207.2  82.5  34252  291.13 0854.46
2009/04/23 16:10:10.7     -27    -32    174     43    179 220.5  86.2  34240  290.94 0854.46
2009/04/23 16:10:10.8     -69   -117    222    136    260 210.7  65.6  34226  290.70 0854.46
2009/04/23 16:10:10.9    -109   -144    214    181    280 217.2  55.4  34234  290.83 0854.46
2009/04/23 16:10:11.0     -68   -124    192    142    238 209.0  59.8  34224  290.67 0854.46
2009/04/23 16:10:11.1     -75   -224    215    237    319 198.7  47.0  34224  290.65 0854.46
2009/04/23 16:10:11.2     -86   -248    265    263    373 199.2  50.2  34258  291.22 0854.46
2009/04/23 16:10:11.3    -112   -223    260    250    360 206.7  51.2  34224  290.65 0854.46
2009/04/23 16:10:11.4     -97   -265    247    283    375 200.1  45.7  34218  290.54 0854.47
2009/04/23 16:10:11.5     -92   -339    212    352    410 195.2  34.0  34220  290.59 0854.47
2009/04/23 16:10:11.6    -115   -311    192    332    383 200.4  32.8  34220  290.60 0854.47
2009/04/23 16:10:11.7     -92   -242    173    260    312 200.9  36.7  34238  290.90 0854.47
2009/04/23 16:10:11.8     -82   -274    148    287    322 196.7  29.3  34288  291.75 0854.47
2009/04/23 16:10:11.9      -7   -182    267    183    323 182.5  62.4  34308  292.09 0854.47
2009/04/23 16:10:12.0      -6   -156    224    157    273 182.2  61.7  34306  292.04 0854.47
2009/04/23 16:10:12.1     -62   -220    239    229    331 195.8  51.4  34260  291.27 0854.47
2009/04/23 16:10:12.2     -50   -241    209    247    323 191.8  44.5  34222  290.63 0854.47
2009/04/23 16:10:12.3    -112   -193    208    224    305 210.1  47.9  34248  291.05 0854.47
2009/04/23 16:10:12.4    -103   -216    221    240    326 205.5  47.5  34226  290.68 0854.47
2009/04/23 16:10:12.5    -122   -150    228    194    299 219.0  55.4  34234  290.82 0854.47
2009/04/23 16:10:12.6     -92   -151    198    178    266 211.4  53.3  34234  290.82 0854.47
2009/04/23 16:10:12.7    -198   -148    189    248    311 233.1  41.2  34260  291.26 0854.47
2009/04/23 16:10:12.8    -138   -216    159    257    302 212.6  35.0  34250  291.09 0854.47
2009/04/23 16:10:12.9    -219   -290    138    364    389 217.1  21.8  34244  291.01 0854.47
2009/04/23 16:10:13.0    -166   -402     93    436    446 202.5  12.1  34230  290.77 0854.47
2009/04/23 16:10:13.1    -196   -445     50    487    490 203.8   5.9  34218  290.57 0854.47
2009/04/23 16:10:13.2    -207   -436     51    483    486 205.4   6.1  34228  290.71 0854.47
2009/04/23 16:10:13.3    -280   -349    -91    448    458 218.7 -11.5  34222  290.63 0854.47
2009/04/23 16:10:13.4    -221   -141     92    263    279 237.5  19.4  34246  291.04 0854.45
2009/04/23 16:10:13.5    -190    -95    145    213    257 243.4  37.6  34258  291.22 0854.45
2009/04/23 16:10:13.6     -24   -100    -31    103    107 193.8 -22.3  34288  291.74 0854.45
2009/04/23 16:10:13.7      31   -115     30    120    124 164.8  14.3  34286  291.72 0854.45
2009/04/23 16:10:13.8      -7    -42    135     43    141 190.7  81.2  34286  291.72 0854.45
2009/04/23 16:10:13.9      28     -7     81     29     86 105.1  80.2  34262  291.30 0854.45
2009/04/23 16:10:14.0       5   -163     84    164    184 178.2  29.3  34198  290.21 0854.45
2009/04/23 16:10:14.1      10   -100    116    101    153 174.2  54.3  34202  290.30 0854.45
2009/04/23 16:10:14.2    -106   -255     29    277    279 202.7   6.0  34208  290.37 0854.45
2009/04/23 16:10:14.3    -219   -224    -94    314    327 224.3 -21.6  34196  290.17 0854.45
2009/04/23 16:10:14.4    -227   -557     72    602    607 202.2   6.9  34194  290.14 0854.45
2009/04/23 16:10:14.5    -254   -576    220    630    667 203.8  20.1  34170  289.74 0854.45
2009/04/23 16:10:14.6    -194   -475    196    514    550 202.2  22.0  34188  290.06 0854.45
2009/04/23 16:10:14.7    -253   -300    245    393    463 220.1  35.1  34204  290.33 0854.45
2009/04/23 16:10:14.8    -233   -128    301    267    402 241.2  54.0  34208  290.40 0854.45
2009/04/23 16:10:14.9    -330   -129     90    355    367 248.6  14.3  34216  290.52 0854.45
2009/04/23 16:10:15.0    -341   -147    116    372    390 246.7  17.4  34206  290.35 0854.45
2009/04/23 16:10:15.1    -342   -267    102    435    447 232.0  13.2  34200  290.26 0854.45
2009/04/23 16:10:15.2    -433   -196     11    476    477 245.6   1.4  34222  290.62 0854.45
2009/04/23 16:10:15.3    -488   -259    110    553    564 242.0  11.3  34210  290.41 0854.45
2009/04/23 16:10:15.4    -775   -110   -231    783    816 261.9 -21.2  34136  289.16 0854.43
2009/04/23 16:10:15.5    -555   -503   -206    750    779 227.8 -15.4  34230  290.77 0854.43
2009/04/23 16:10:15.6    -552   -379   -186    670    696 235.5 -15.5  34190  290.07 0854.43
2009/04/23 16:10:15.7    -800   -270   -406    845    937 251.3 -31.9  34112  288.75 0854.43
2009/04/23 16:10:15.8    -720   -577   -187    923    942 231.3 -11.5  34152  289.42 0854.43
2009/04/23 16:10:15.9    -624   -405   -237    745    781 237.0 -22.8  34098  288.53 0854.43
2009/04/23 16:10:16.0    -785   -223   -349    817    888 254.1 -29.0  34090  288.39 0854.43
2009/04/23 16:10:16.1    -832   -146   -496    846    980 260.0 -37.5  34082  288.24 0854.43
2009/04/23 16:10:16.2    -767   -192   -507    791    939 255.9 -40.1  34080  288.23 0854.43
2009/04/23 16:10:16.3    -800   -247   -504    838    977 252.8 -38.2  34092  288.41 0854.43
2009/04/23 16:10:16.4    -670   -313   -499    740    892 244.9 -41.7  34084  288.29 0854.43
2009/04/23 16:10:16.5    -738   -293   -552    795    967 248.3 -42.5  34092  288.43 0854.43
2009/04/23 16:10:16.6    -944   -372   -313   1015   1062 248.5 -22.1  34114  288.78 0854.43
2009/04/23 16:10:16.7    -614   -445   -254    759    800 234.0 -23.6  34124  288.95 0854.43
2009/04/23 16:10:16.8    -633   -225   -522    672    850 250.4 -46.1  34094  288.47 0854.43
2009/04/23 16:10:16.9    -430   -137   -556    452    716 252.3 -61.3  34098  288.52 0854.43
2009/04/23 16:10:17.0    -591   -347   -338    686    764 239.6 -32.6  34136  289.16 0854.43
2009/04/23 16:10:17.1    -542   -225   -296    587    657 247.4 -33.1  34132  289.09 0854.43
2009/04/23 16:10:17.2    -305   -334   -252    453    518 222.4 -35.8  34134  289.12 0854.43
2009/04/23 16:10:17.3    -159   -492    -93    518    527 197.9 -10.3  34138  289.19 0854.43
2009/04/23 16:10:17.4     -85   -431   -146    440    463 191.2 -23.8  34138  289.19 0854.42
2009/04/23 16:10:17.5     -69   -162   -209    177    273 203.2 -59.8  34134  289.12 0854.42
2009/04/23 16:10:17.6     -89   -335   -225    347    413 195.0 -40.4  34132  289.11 0854.42
2009/04/23 16:10:17.7      -7   -218   -214    219    306 182.0 -54.2  34138  289.19 0854.42
2009/04/23 16:10:17.8     -45    -13   -110     48    120 253.2 -79.4  34152  289.43 0854.42
2009/04/23 16:10:17.9      57   -294    -20    300    301 168.9  -3.9  34130  289.05 0854.42
2009/04/23 16:10:18.0      24   -320    121    321    343 175.6  21.7  34140  289.23 0854.42
2009/04/23 16:10:18.1     174   -366    121    406    424 154.5  16.7  34144  289.31 0854.42
2009/04/23 16:10:18.2     143   -477    -85    498    506 163.3  -9.7  34140  289.22 0854.42
2009/04/23 16:10:18.3     223   -339   -141    407    430 146.6 -24.3  34130  289.07 0854.42
2009/04/23 16:10:18.4     142   -492   -182    513    544 163.9 -24.7  34134  289.13 0854.42
2009/04/23 16:10:18.5     115   -344    -74    363    371 161.4 -11.6  34126  289.01 0854.42
2009/04/23 16:10:18.6     -38   -247     31    251    253 188.9   7.1  34130  289.05 0854.42
2009/04/23 16:10:18.7     -65   -112     35    130    135 210.3  15.3  34134  289.14 0854.42
2009/04/23 16:10:18.8     -79    -45     28     92     97 240.2  16.8  34142  289.28 0854.42
2009/04/23 16:10:18.9      52   -156    118    165    202 161.5  39.1  34138  289.21 0854.42
2009/04/23 16:10:19.0     174   -363    114    403    419 154.3  15.8  34116  288.82 0854.42
2009/04/23 16:10:19.1     197   -324    266    380    463 148.7  38.5  34132  289.11 0854.42
2009/04/23 16:10:19.2     182   -299    263    351    438 148.7  40.6  34154  289.46 0854.42
2009/04/23 16:10:19.3     242   -259    214    355    414 136.9  34.0  34146  289.35 0854.42
2009/04/23 16:10:19.4     200   -345    256    399    474 149.9  35.7  34156  289.51 0854.39
2009/04/23 16:10:19.5      71   -416    156    423    450 170.3  21.0  34148  289.36 0854.39
2009/04/23 16:10:19.6     148   -437    187    462    498 161.2  23.2  34156  289.50 0854.39
2009/04/23 16:10:19.7     107   -371    266    387    469 163.9  37.8  34132  289.11 0854.39
2009/04/23 16:10:19.8     -28   -326    365    328    490 185.0  53.5  34150  289.39 0854.39
2009/04/23 16:10:19.9     164    -77    207    182    275 115.2  54.3  34172  289.78 0854.39
2009/04/23 16:10:20.0     -19   -215    238    216    321 185.1  53.2  34166  289.68 0854.39
2009/04/23 16:10:20.1      96   -282     93    299    314 161.1  17.3  34214  290.48 0854.39
2009/04/23 16:10:20.2      33   -439    111    441    455 175.6  14.2  34158  289.53 0854.39
2009/04/23 16:10:20.3     148   -373     10    402    403 158.3   1.5  34152  289.45 0854.39
2009/04/23 16:10:20.4      40   -285      2    288    289 172.0   0.5  34134  289.12 0854.39
2009/04/23 16:10:20.5     141   -270    106    305    323 152.4  19.2  34146  289.32 0854.39
2009/04/23 16:10:20.6      92   -268    156    284    324 160.9  31.0  34140  289.24 0854.39
2009/04/23 16:10:20.7      76   -303    168    313    355 165.8  30.6  34148  289.38 0854.39
2009/04/23 16:10:20.8     132   -194    239    235    335 145.8  50.6  34176  289.83 0854.39
2009/04/23 16:10:20.9     100   -271    137    289    319 159.7  27.2  34152  289.44 0854.39
2009/04/23 16:10:21.0     105   -164    108    195    222 147.4  31.4  34158  289.55 0854.39
2009/04/23 16:10:21.1      93   -271    139    287    318 160.9  27.8  34156  289.49 0854.39
2009/04/23 16:10:21.2      80   -241    152    255    296 161.5  33.5  34154  289.46 0854.39
2009/04/23 16:10:21.3     126   -132     10    183    184 136.3   3.1  34154  289.48 0854.39
2009/04/23 16:10:21.4     183   -123      1    221    222 124.0   0.5  34166  289.67 0854.39
2009/04/23 16:10:21.5     155   -156     27    221    223 135.2   7.1  34156  289.52 0854.39
2009/04/23 16:10:21.6     149   -121     36    193    197 129.1  10.8  34166  289.67 0854.39
2009/04/23 16:10:21.7      -9   -188    110    189    218 182.9  32.9  34136  289.16 0854.39
2009/04/23 16:10:21.8     -47    -88    -52    100    112 208.1 -33.7  34128  289.04 0854.39
2009/04/23 16:10:21.9    -162     75    -52    179    186 294.8 -20.7  34152  289.43 0854.39
2009/04/23 16:10:22.0    -177    229     51    290    295 322.2  10.0  34164  289.63 0854.39
2009/04/23 16:10:22.1    -243    148     44    285    289 301.3   8.8  34158  289.54 0854.39
2009/04/23 16:10:22.2    -225     90     -7    243    244 292.0  -1.8  34162  289.61 0854.39
2009/04/23 16:10:22.3    -264     84     65    278    286 287.7  13.2  34202  290.29 0854.39
2009/04/23 16:10:22.4    -359     15    184    360    404 272.5  29.2  34210  290.42 0854.38
2009/04/23 16:10:22.5    -168      0     65    169    181 270.1  22.3  34214  290.50 0854.38
2009/04/23 16:10:22.6     -71    -76    104    105    147 223.2  50.0  34198  290.23 0854.38
2009/04/23 16:10:22.7    -127     42     54    134    144 288.4  23.0  34220  290.60 0854.38
2009/04/23 16:10:22.8    -148     85     48    171    178 300.0  15.8  34244  291.01 0854.38
2009/04/23 16:10:22.9      14    182     82    183    200   4.5  25.7  34230  290.77 0854.38
2009/04/23 16:10:23.0     -45    222    121    227    257 348.5  30.3  34222  290.63 0854.38
2009/04/23 16:10:23.1       9    299    123    300    324   1.8  23.6  34202  290.29 0854.38
2009/04/23 16:10:23.2     -81    234     77    248    260 340.8  17.4  34208  290.39 0854.38
2009/04/23 16:10:23.3     -32    246     71    249    260 352.4  16.0  34190  290.09 0854.38
2009/04/23 16:10:23.4       2    165     57    166    176   0.9  18.9  34200  290.25 0854.38
2009/04/23 16:10:23.5     126    192     80    230    244  33.4  19.2  34214  290.48 0854.38
2009/04/23 16:10:23.6      67    168     53    182    190  21.8  16.3  34244  291.01 0854.38
2009/04/23 16:10:23.7     212    212     64    300    307  45.0  12.2  34306  292.06 0854.38
2009/04/23 16:10:23.8     188    189     13    267    268  44.9   2.9  34304  292.01 0854.38
2009/04/23 16:10:23.9     136    154     87    206    223  41.5  23.8  34286  291.72 0854.38
2009/04/23 16:10:24.0     154    171    108    231    255  41.9  27.0  34322  292.33 0854.38
2009/04/23 16:10:24.1     176    113    115    210    239  57.4  31.0  34322  292.34 0854.38
2009/04/23 16:10:24.2      89     95     98    131    163  43.2  40.4  34308  292.10 0854.38
2009/04/23 16:10:24.3      32     16    100     37    106  62.9  79.7  34304  292.03 0854.38
2009/04/23 16:10:24.4     -66     42    100     79    127 302.5  57.5  34282  291.66 0854.38
2009/04/23 16:10:24.5     -52     41    123     67    140 307.8  68.9  34300  291.96 0854.38
2009/04/23 16:10:24.6      88     20    144     91    170  76.7  64.7  34360  292.98 0854.38
2009/04/23 16:10:24.7     194     23    158    196    251  83.0  43.3  34376  293.25 0854.38
2009/04/23 16:10:24.8     214     54    150    221    267  75.6  37.4  34334  292.53 0854.38
2009/04/23 16:10:24.9     219     72    149    231    274  71.6  35.7  34300  291.94 0854.38
2009/04/23 16:10:25.0     231     56    121    238    266  76.3  29.1  34258  291.22 0854.38
2009/04/23 16:10:25.1     280     85    153    293    330  73.1  29.8  34304  292.02 0854.38
2009/04/23 16:10:25.2     223     75    234    236    332  71.4  50.0  34360  292.96 0854.38
2009/04/23 16:10:25.3     194     73    234    208    313  69.2  53.7  34372  293.16 0854.38
2009/04/23 16:10:25.4     264    124    213    292    361  64.8  39.7  34308  292.08 0854.38
2009/04/23 16:10:25.5     108    -19    215    110    241 100.1  71.0  34378  293.29 0854.38
2009/04/23 16:10:25.6     193     20    303    195    360  84.1  64.6  34286  291.70 0854.38
2009/04/23 16:10:25.7      66    -19    217     69    227 106.8  81.6  34256  291.20 0854.38
2009/04/23 16:10:25.8      19    -51    140     55    150 159.1  77.1  34262  291.30 0854.38
2009/04/23 16:10:25.9       6    -63    249     64    257 173.8  85.6  34258  291.23 0854.38
2009/04/23 16:10:26.0      29   -128    301    132    328 167.1  74.9  34166  289.68 0854.38
2009/04/23 16:10:26.1      40   -432    367    435    569 174.7  44.4  34146  289.35 0854.38
2009/04/23 16:10:26.2     136   -406    418    429    598 161.4  49.2  34162  289.60 0854.38
2009/04/23 16:10:26.3     -81   -357    348    367    505 192.8  48.4  34154  289.46 0854.38
2009/04/23 16:10:26.4     -17   -241    303    242    387 184.2  57.3  34152  289.43 0854.40
2009/04/23 16:10:26.5     -79   -365    395    374    543 192.3  51.9  34142  289.25 0854.40
2009/04/23 16:10:26.6      -5   -313    409    314    515 181.0  58.7  34148  289.36 0854.40
2009/04/23 16:10:26.7     -13   -179    410    180    447 184.4  74.9  34182  289.93 0854.40
2009/04/23 16:10:26.8    -111    -30    311    116    331 254.9  78.8  34184  289.98 0854.40
2009/04/23 16:10:26.9     -25   -226    335    228    405 186.5  62.7  34142  289.25 0854.40
2009/04/23 16:10:27.0     -33   -247    301    250    391 187.6  56.3  34144  289.30 0854.40
2009/04/23 16:10:27.1     133   -280    206    311    373 154.5  36.7  34160  289.57 0854.40
2009/04/23 16:10:27.2      57   -210    239    218    323 164.6  53.0  34164  289.63 0854.40
2009/04/23 16:10:27.3       6    -80    244     81    257 175.1  80.7  34162  289.60 0854.40
2009/04/23 16:10:27.4      27    100    155    104    186  15.1  63.4  34182  289.96 0854.40
2009/04/23 16:10:27.5       7   -149    246    150    288 177.3  65.7  34156  289.51 0854.40
2009/04/23 16:10:27.6      13   -297    216    298    368 177.3  39.7  34146  289.33 0854.40
2009/04/23 16:10:27.7      37   -262    219    265    343 171.8  43.8  34140  289.24 0854.40
2009/04/23 16:10:27.8       2   -158    186    159    244 179.1  55.4  34146  289.33 0854.40
2009/04/23 16:10:27.9      23   -104    132    107    169 167.1  56.6  34162  289.60 0854.40
2009/04/23 16:10:28.0     -46   -227    162    232    282 191.6  38.4  34146  289.34 0854.40
2009/04/23 16:10:28.1      16   -215    144    216    259 175.5  36.7  34158  289.54 0854.40
2009/04/23 16:10:28.2      91   -220     39    239    243 157.5   9.3  34156  289.49 0854.40
2009/04/23 16:10:28.3    -103   -228    228    251    339 204.3  47.0  34132  289.10 0854.41
2009/04/23 16:10:28.4     -82   -211    213    227    311 201.4  48.0  34132  289.09 0854.41
2009/04/23 16:10:28.5    -127   -283    178    311    358 204.1  32.4  34138  289.20 0854.41
2009/04/23 16:10:28.6    -156   -297    -22    336    337 207.7  -3.9  34140  289.23 0854.41
2009/04/23 16:10:28.7      10   -132    -65    133    148 175.6 -31.7  34138  289.19 0854.41
2009/04/23 16:10:28.9      51    -42   -134     67    149 129.5 -76.3  34150  289.41 0854.41
2009/04/23 16:10:29.0      75    -25    -38     80     88 108.6 -31.6  34164  289.65 0854.41
2009/04/23 16:10:29.1     142    -43     52    149    158 106.8  19.4  34164  289.63 0854.41
2009/04/23 16:10:29.2     244     33     -3    247    248  82.1  -0.7  34256  291.19 0854.41
2009/04/23 16:10:29.3     163     90    -81    187    203  61.1 -29.5  34226  290.70 0854.41
2009/04/23 16:10:29.4     191     42    -75    196    209  77.4 -26.1  34206  290.36 0854.41
2009/04/23 16:10:29.5       0    194     84    195    212   0.0  24.9  34198  290.23 0854.41
2009/04/23 16:10:29.6     -46     97     67    108    127 334.5  35.5  34218  290.55 0854.41
2009/04/23 16:10:29.7      16    101     84    103    132   9.3  43.7  34210  290.41 0854.41
2009/04/23 16:10:29.8       7    123     59    124    137   3.6  27.2  34178  289.87 0854.41
2009/04/23 16:10:29.9     -88     29     64     93    112 288.2  38.0  34162  289.62 0854.41
2009/04/23 16:10:30.0    -192    -51    129    199    237 255.0  36.3  34162  289.60 0854.41
2009/04/23 16:10:30.1    -175    -34     67    179    191 258.8  21.5  34170  289.75 0854.41
2009/04/23 16:10:30.2    -117     -9     46    118    126 265.6  22.0  34172  289.77 0854.41
2009/04/23 16:10:30.3    -117    -56     43    131    139 244.2  18.4  34168  289.70 0854.41
2009/04/23 16:10:30.4    -188    -66     87    200    218 250.5  25.1  34180  289.91 0854.41
2009/04/23 16:10:30.5    -153   -126     52    199    206 230.4  14.7  34174  289.80 0854.41
2009/04/23 16:10:30.6     187     41    252    192    316  77.6  59.0  34174  289.80 0854.41
2009/04/23 16:10:30.7      78      7    205     79    219  84.8  77.8  34180  289.91 0854.41
2009/04/23 16:10:30.8     161    -26    203    164    260  99.2  56.9  34184  289.98 0854.41
2009/04/23 16:10:30.9      22   -109    156    112    192 168.5  60.8  34174  289.80 0854.41
2009/04/23 16:10:31.0      48   -101    143    112    181 154.5  57.9  34164  289.65 0854.41
2009/04/23 16:10:31.1      66   -104    203    124    237 147.4  65.7  34170  289.75 0854.41
2009/04/23 16:10:31.2      40    -87    189     97    212 155.1  70.8  34172  289.77 0854.41
2009/04/23 16:10:31.3     -35    -74     91     82    122 205.5  53.3  34188  290.06 0854.41
2009/04/23 16:10:31.4     -13    -93    197     94    218 188.0  72.8  34186  290.02 0854.41
2009/04/23 16:10:31.5      29   -147    216    150    262 168.5  61.8  34192  290.13 0854.41
2009/04/23 16:10:31.6    -198    -73    168    212    270 249.6  42.7  34210  290.41 0854.41
2009/04/23 16:10:31.7    -122   -102    137    160    210 230.0  44.8  34208  290.40 0854.41
2009/04/23 16:10:31.8    -150   -131    119    200    232 228.7  33.7  34246  291.03 0854.41
2009/04/23 16:10:31.9    -130   -211    106    249    270 211.7  24.3  34232  290.80 0854.41
2009/04/23 16:10:32.0     -59   -193    175    203    268 197.2  44.9  34206  290.34 0854.41
2009/04/23 16:10:32.1     -41   -191    154    196    249 192.3  42.4  34232  290.80 0854.41
2009/04/23 16:10:32.2     -10   -199     65    200    211 182.9  18.1  34232  290.79 0854.41
2009/04/23 16:10:32.3     -74   -181     98    196    219 202.5  28.7  34224  290.67 0854.41
2009/04/23 16:10:32.4     -62    -78     42    100    108 218.7  24.1  34230  290.75 0854.40
2009/04/23 16:10:32.5     -87   -177    124    198    233 206.3  35.5  34244  291.01 0854.40
2009/04/23 16:10:32.6    -172   -173     14    245    246 224.9   3.3  34274  291.50 0854.40
2009/04/23 16:10:32.7    -164   -225     77    279    290 216.1  15.6  34268  291.39 0854.40
2009/04/23 16:10:32.8    -221   -207     71    304    313 226.9  13.3  34252  291.12 0854.40
2009/04/23 16:10:32.9    -200   -188     64    275    283 226.8  13.1  34254  291.17 0854.40
2009/04/23 16:10:33.0    -211   -252    173    329    371 219.9  30.0  34212  290.45 0854.40
2009/04/23 16:10:33.1     -95   -287    215    303    371 198.5  39.0  34230  290.77 0854.40
2009/04/23 16:10:33.2     -81   -191    184    208    277 203.2  45.9  34236  290.87 0854.40
2009/04/23 16:10:33.3     -79   -163    162    182    243 205.9  46.2  34232  290.79 0854.40
2009/04/23 16:10:33.4      21    -59    122     63    137 160.0  70.8  34248  291.06 0854.40
2009/04/23 16:10:33.5      66    -92     99    114    150 144.4  45.4  34266  291.38 0854.40
2009/04/23 16:10:33.6      29   -147     97    150    178 168.5  35.7  34224  290.65 0854.40
2009/04/23 16:10:33.7      40    -64     95     76    121 147.4  57.5  34216  290.53 0854.40
2009/04/23 16:10:33.8      45    -75     95     88    129 148.8  52.2  34218  290.55 0854.40
2009/04/23 16:10:33.9     -24   -230     91    232    249 186.0  22.3  34210  290.41 0854.40
2009/04/23 16:10:34.0     -55   -268    122    274    299 191.8  25.3  34194  290.15 0854.40
2009/04/23 16:10:34.1      12   -158    117    159    197 175.5  39.9  34202  290.28 0854.40
2009/04/23 16:10:34.2       1   -143     33    144    148 179.5  13.2  34210  290.43 0854.40
2009/04/23 16:10:34.3      34    -84    -47     91    102 157.7 -33.7  34214  290.50 0854.40
2009/04/23 16:10:34.4      63    -59    -32     87     92 133.6 -24.8  34214  290.48 0854.41
2009/04/23 16:10:34.5     133     66    -44    149    156  63.4 -16.6  34194  290.14 0854.41
2009/04/23 16:10:34.6     187     74    -62    202    211  68.3 -22.1  34164  289.63 0854.41
2009/04/23 16:10:34.7     210    209    -48    297    302  45.2  -9.3  34146  289.34 0854.41
2009/04/23 16:10:34.8     156    180     -6    239    240  41.0  -1.6  34184  289.98 0854.41
2009/04/23 16:10:34.9     135    166    -65    215    225  39.2 -17.0  34158  289.55 0854.41
2009/04/23 16:10:35.0      90    148   -141    174    223  31.2 -47.9  34146  289.33 0854.41
2009/04/23 16:10:35.1     112     22      4    115    116  78.6   2.3  34190  290.09 0854.41
2009/04/23 16:10:35.2      75     38     46     85     96  62.9  30.8  34236  290.87 0854.41
2009/04/23 16:10:35.3     205    118     16    237    238  60.0   3.9  34212  290.46 0854.41
2009/04/23 16:10:35.4     323    130     71    349    357  68.0  11.5  34212  290.45 0854.41
2009/04/23 16:10:35.5     317     88    154    330    364  74.5  27.0  34242  290.98 0854.41
2009/04/23 16:10:35.6     313    148    172    347    387  64.6  28.2  34196  290.18 0854.41
2009/04/23 16:10:35.7     221    123    171    253    305  60.9  37.4  34212  290.44 0854.41
2009/04/23 16:10:35.8     201    141    163    246    295  54.9  36.5  34226  290.68 0854.41
2009/04/23 16:10:35.9     179    119    174    216    277  56.3  43.0  34170  289.73 0854.41
2009/04/23 16:10:36.0      97     88    207    132    245  47.8  64.7  34188  290.04 0854.41
2009/04/23 16:10:36.1      43     58    148     73    165  36.1  71.9  34196  290.19 0854.41
2009/04/23 16:10:36.2     226    117     62    255    263  62.5  13.7  34150  289.39 0854.41
2009/04/23 16:10:36.3     234    135      1    271    272  60.0   0.2  34150  289.41 0854.41
2009/04/23 16:10:36.4     204     27     71    206    219  82.3  19.2  34142  289.28 0854.41
2009/04/23 16:10:36.5     175      3    151    176    231  88.7  45.1  34208  290.38 0854.41
2009/04/23 16:10:36.6      65    -51    117     84    144 128.2  60.6  34232  290.79 0854.41
2009/04/23 16:10:36.7     -15    107    135    109    173 352.0  56.9  34224  290.65 0854.41
2009/04/23 16:10:36.8      21     38    141     44    147  29.9  82.3  34214  290.48 0854.41
2009/04/23 16:10:36.9      59     63    190     87    208  42.8  73.8  34188  290.04 0854.41
2009/04/23 16:10:37.0     111     12    223    112    249  83.4  71.7  34152  289.43 0854.41
2009/04/23 16:10:37.1     -32     11    146     35    150 290.0  86.9  34200  290.25 0854.41
2009/04/23 16:10:37.2    -116   -159    171    198    261 216.1  45.4  34222  290.61 0854.41
2009/04/23 16:10:37.3    -103   -118     81    157    176 221.0  29.3  34248  291.08 0854.41
2009/04/23 16:10:37.4     -58   -121     68    135    151 205.9  28.2  34212  290.47 0854.41
2009/04/23 16:10:37.5     108   -125    111    166    199 139.2  37.0  34176  289.85 0854.41
2009/04/23 16:10:37.6     195   -146    195    244    312 126.9  42.8  34180  289.92 0854.41
2009/04/23 16:10:37.7     297   -146     90    331    344 116.2  15.2  34178  289.89 0854.41
2009/04/23 16:10:37.8     169   -277    113    325    345 148.6  19.2  34216  290.52 0854.41
2009/04/23 16:10:37.9      35   -396    226    398    457 174.8  32.3  34250  291.11 0854.41
2009/04/23 16:10:38.0      80   -268    264    280    384 163.3  48.0  34208  290.37 0854.41
2009/04/23 16:10:38.1     -56   -403    224    408    465 188.0  31.3  34236  290.85 0854.41
2009/04/23 16:10:38.2     -24   -310    251    312    400 184.5  42.9  34214  290.50 0854.41
2009/04/23 16:10:38.3     -28   -391    264    392    472 184.1  37.2  34194  290.16 0854.41
2009/04/23 16:10:38.4      14   -411    272    412    493 178.0  36.5  34212  290.45 0854.41
2009/04/23 16:10:38.5      17   -371    232    372    438 177.3  35.1  34244  290.99 0854.41
2009/04/23 16:10:38.6    -105   -330    193    347    397 197.7  31.5  34248  291.05 0854.41
2009/04/23 16:10:38.7     -26   -358    229    359    425 184.2  35.6  34196  290.17 0854.41
2009/04/23 16:10:38.8       7   -315    203    316    375 178.6  35.6  34232  290.79 0854.41
2009/04/23 16:10:38.9      31   -285    235    287    370 173.8  43.6  34212  290.47 0854.41
2009/04/23 16:10:39.0      17   -364    291    365    466 177.3  42.7  34198  290.21 0854.41
2009/04/23 16:10:39.1      18   -316    290    317    429 176.6  47.0  34192  290.13 0854.41
2009/04/23 16:10:39.2      59   -294    314    300    434 168.5  51.4  34196  290.18 0854.41
2009/04/23 16:10:39.3      -6   -348    403    349    533 181.1  54.8  34230  290.76 0854.41
2009/04/23 16:10:39.4     -69   -350    448    357    572 191.2  57.5  34252  291.13 0854.41
2009/04/23 16:10:39.5    -107   -253    445    275    523 202.9  65.4  34254  291.18 0854.41
2009/04/23 16:10:39.6    -235   -283    336    369    499 219.7  47.0  34268  291.40 0854.41
2009/04/23 16:10:39.7    -101    -64    240    120    268 237.5  71.9  34222  290.64 0854.41
2009/04/23 16:10:39.8     -29     90    201     95    222 341.7  73.1  34212  290.47 0854.41
2009/04/23 16:10:39.9    -131     -5    206    132    244 267.4  64.6  34196  290.18 0854.41
2009/04/23 16:10:40.0    -308   -143    202    340    395 245.0  33.5  34172  289.77 0854.41
2009/04/23 16:10:40.1    -602    -35   -111    604    615 266.6 -10.5  34128  289.02 0854.41
2009/04/23 16:10:40.2    -691   -119   -173    702    724 260.2 -13.9  34130  289.05 0854.41
2009/04/23 16:10:40.3    -382    149    -96    411    423 291.4 -13.2  34140  289.24 0854.41
2009/04/23 16:10:40.4    -410    114     59    426    431 285.6   8.0  34166  289.68 0854.42
2009/04/23 16:10:40.5    -404    -39     60    406    411 264.4   8.5  34188  290.04 0854.42
2009/04/23 16:10:40.6    -171    -94     76    196    210 241.2  22.3  34182  289.96 0854.42
2009/04/23 16:10:40.7     -98     -4    109     99    147 267.4  52.7  34184  289.99 0854.42
2009/04/23 16:10:40.8    -321    121      4    344    345 290.7   0.8  34182  289.94 0854.42
2009/04/23 16:10:40.9    -352   -118     23    372    373 251.4   3.6  34206  290.35 0854.42
2009/04/23 16:10:41.0    -337    -27    -42    339    342 265.3  -7.2  34208  290.38 0854.42
2009/04/23 16:10:41.1    -291     -5    -59    292    298 269.0 -11.5  34208  290.39 0854.42
2009/04/23 16:10:41.2    -587   -112   -168    598    622 259.1 -15.7  34146  289.32 0854.42
2009/04/23 16:10:41.3    -562   -226    -40    606    608 248.1  -3.8  34174  289.81 0854.42
2009/04/23 16:10:41.4    -431   -253    199    500    538 239.6  23.0  34186  290.02 0854.42
2009/04/23 16:10:41.5    -447   -162    168    476    505 250.1  19.5  34196  290.17 0854.42
2009/04/23 16:10:41.6    -337    -58    196    343    395 260.1  32.3  34184  289.98 0854.42
2009/04/23 16:10:41.7    -336   -200    248    392    463 239.3  35.5  34156  289.49 0854.42
2009/04/23 16:10:41.8    -302   -166    174    345    386 241.2  28.7  34164  289.65 0854.42
2009/04/23 16:10:41.9    -157   -206    220    260    340 217.4  44.5  34158  289.53 0854.42
2009/04/23 16:10:42.0    -148   -314    140    348    375 205.2  23.1  34154  289.47 0854.42
2009/04/23 16:10:42.1     -69   -199    186    211    281 199.2  45.9  34170  289.73 0854.42
2009/04/23 16:10:42.2     107   -107    -82    152    172 134.9 -35.2  34164  289.63 0854.42
2009/04/23 16:10:42.3      77     89     -7    118    119  41.0  -3.7  34166  289.69 0854.42
2009/04/23 16:10:42.4      -1     51     62     52     80 358.2  55.4  34160  289.58 0854.39
2009/04/23 16:10:42.5    -105   -137     -6    173    174 217.6  -2.2  34158  289.55 0854.39
2009/04/23 16:10:42.6     -54   -213     82    220    234 194.3  21.3  34156  289.52 0854.39
2009/04/23 16:10:42.7     -73   -309     16    318    319 193.4   2.9  34166  289.66 0854.39
2009/04/23 16:10:42.8     -36   -238     63    241    250 188.7  14.7  34160  289.58 0854.39
2009/04/23 16:10:42.9    -140   -218     12    260    261 212.7   2.8  34164  289.63 0854.39
2009/04/23 16:10:43.0    -242   -120     32    271    273 243.6   6.9  34162  289.59 0854.39
2009/04/23 16:10:43.1    -262    -63     24    270    272 256.3   5.2  34164  289.64 0854.39
2009/04/23 16:10:43.2    -248    -76      8    260    261 252.9   1.8  34166  289.66 0854.39
2009/04/23 16:10:43.3    -232     17     60    233    241 274.4  14.5  34154  289.47 0854.39
2009/04/23 16:10:43.4    -232    -60    139    240    277 255.4  32.7  34190  290.07 0854.39
2009/04/23 16:10:43.5    -217     44    109    222    247 281.7  28.2  34192  290.12 0854.39
2009/04/23 16:10:43.6    -197    -39     74    201    214 258.6  20.9  34172  289.79 0854.39
2009/04/23 16:10:43.7    -114    -57     72    128    146 243.4  31.4  34164  289.63 0854.39
2009/04/23 16:10:43.8     -80    -71     50    108    119 228.2  27.1  34160  289.58 0854.39
2009/04/23 16:10:43.9    -101   -114     57    153    163 221.4  21.3  34156  289.52 0854.39
2009/04/23 16:10:44.0     -96    -96     70    136    152 225.0  29.3  34160  289.57 0854.39
2009/04/23 16:10:44.1     -80    -35     57     88    104 246.0  35.6  34162  289.62 0854.39
2009/04/23 16:10:44.2     -77    -18     88     80    118 256.7  52.7  34168  289.70 0854.39
2009/04/23 16:10:44.3     -62    -33     52     71     88 242.0  39.7  34170  289.74 0854.39
2009/04/23 16:10:44.4     -27     -9     47     29     55 251.4  64.7  34170  289.75 0854.39
2009/04/23 16:10:44.5     -13    -23     27     27     38 210.7  50.1  34174  289.82 0854.39
2009/04/23 16:10:44.6     -18    -28     -1     34     35 212.5  -2.2  34180  289.92 0854.39
2009/04/23 16:10:44.7      -8    -25      0     27     28 198.3  -1.3  34184  289.97 0854.39
2009/04/23 16:10:44.8       0    -49    -10     50     51 180.9 -11.3  34180  289.92 0854.39
2009/04/23 16:10:44.9      14    -74    -24     76     80 169.3 -18.1  34164  289.63 0854.39
2009/04/23 16:10:45.0      67    -92      5    115    116 143.9   2.9  34164  289.63 0854.39
2009/04/23 16:10:45.1      50    -73      7     89     90 145.3   4.9  34164  289.63 0854.39
2009/04/23 16:10:45.2     -13   -100      5    101    102 187.6   2.9  34166  289.69 0854.39
2009/04/23 16:10:45.3     -14    -69     -2     71     72 191.5  -2.2  34172  289.79 0854.39
2009/04/23 16:10:45.4      32    -38    -13     50     52 139.5 -14.5  34174  289.80 0854.37
2009/04/23 16:10:45.5      34     -3    -33     35     48  96.1 -54.4  34174  289.80 0854.37
2009/04/23 16:10:45.6      57      4    -16     58     61  85.6 -15.4  34186  290.01 0854.37
2009/04/23 16:10:45.7      13      4     23     14     26  71.4  64.7  34194  290.14 0854.37
2009/04/23 16:10:45.8       2     11     48     12     49  11.6  85.9  34216  290.52 0854.37
2009/04/23 16:10:45.9      11      0     39     12     40  90.8  82.8  34220  290.58 0854.37
2009/04/23 16:10:46.0      81      0    108     82    135  90.0  58.5  34216  290.52 0854.37
2009/04/23 16:10:46.1     156    -11    116    157    195  94.3  39.9  34188  290.06 0854.37
2009/04/23 16:10:46.2     156      2    150    157    217  89.1  48.5  34200  290.25 0854.37
2009/04/23 16:10:46.3     134     28    108    137    174  78.1  42.4  34196  290.18 0854.37
2009/04/23 16:10:46.4     154     46     30    161    164  73.2  10.6  34190  290.09 0854.37
2009/04/23 16:10:46.5     148     13     45    149    156  84.8  16.8  34200  290.25 0854.37
2009/04/23 16:10:46.6     106     27     21    110    113  75.4  11.1  34198  290.23 0854.37
2009/04/23 16:10:46.7     107      8     12    108    109  85.7   6.5  34196  290.18 0854.37
2009/04/23 16:10:46.8      96      7    -15     97     99  85.6  -8.8  34196  290.18 0854.37
2009/04/23 16:10:46.9      77     15    -14     79     81  78.6 -10.3  34196  290.18 0854.37
2009/04/23 16:10:47.0      81     21    -18     84     87  75.4 -12.4  34188  290.06 0854.37
2009/04/23 16:10:47.1      58     12      0     60     61  77.6   0.8  34194  290.14 0854.37
2009/04/23 16:10:47.2      49      9     -1     50     51  79.4  -2.2  34196  290.19 0854.37
2009/04/23 16:10:47.3      21     15     23     26     34  54.0  47.9  34210  290.41 0854.37
2009/04/23 16:10:47.4      37     36     31     52     60  46.0  33.5  34208  290.38 0854.35
2009/04/23 16:10:47.5      54     49     -2     74     75  47.8  -2.2  34210  290.41 0854.35
2009/04/23 16:10:47.6      49     50     20     71     74  44.1  16.3  34206  290.35 0854.35
2009/04/23 16:10:47.7      62     61     32     88     93  45.4  20.0  34204  290.31 0854.35
2009/04/23 16:10:47.8      58     59     21     83     86  44.5  14.3  34196  290.19 0854.35
2009/04/23 16:10:47.9      46     42     21     63     67  47.8  18.9  34200  290.26 0854.35
2009/04/23 16:10:48.0      11    -37     61     39     72 163.1  64.6  34228  290.74 0854.35
2009/04/23 16:10:48.1     -32    -64     90     72    115 207.2  56.4  34226  290.70 0854.35
2009/04/23 16:10:48.2     -98    -46     62    109    125 244.7  32.4  34216  290.53 0854.35
2009/04/23 16:10:48.3    -139    -85     10    164    165 238.5   3.6  34202  290.30 0854.35
2009/04/23 16:10:48.4    -107    -79     20    134    136 233.6   8.5  34198  290.21 0854.35
2009/04/23 16:10:48.5     -89    -11      2     90     91 262.5   1.8  34202  290.28 0854.35
2009/04/23 16:10:48.6     -77    -37      5     86     87 244.2   3.8  34190  290.09 0854.35
2009/04/23 16:10:48.7     -67    -53      2     86     87 231.8   1.8  34194  290.14 0854.35
2009/04/23 16:10:48.8     -39    -39     12     56     58 225.1  12.2  34198  290.21 0854.35
2009/04/23 16:10:48.9      15    -45     10     48     50 161.3  12.2  34194  290.16 0854.35
2009/04/23 16:10:49.0      50    -79     41     94    102 147.4  24.6  34186  290.02 0854.35
2009/04/23 16:10:49.1      42    -29    106     52    118 125.1  72.4  34200  290.25 0854.35
2009/04/23 16:10:49.2     -56    -73     99     93    135 217.4  51.6  34214  290.48 0854.35
2009/04/23 16:10:49.3     -32   -136    166    140    217 193.3  55.6  34188  290.06 0854.35
2009/04/23 16:10:49.4     -24   -211    224    213    309 186.5  51.6  34198  290.20 0854.35
2009/04/23 16:10:49.5      19   -276    216    277    351 176.0  41.7  34180  289.91 0854.35
2009/04/23 16:10:49.6     -44   -424    175    427    461 186.0  23.5  34164  289.65 0854.35
2009/04/23 16:10:49.8     -11   -428    155    429    456 181.5  20.8  34164  289.63 0854.35
2009/04/23 16:10:49.8       4   -409     79    410    418 179.4  11.0  34164  289.63 0854.35
2009/04/23 16:10:49.9      32   -419    130    421    441 175.5  17.2  34170  289.73 0854.35
2009/04/23 16:10:50.0      31   -439    151    441    467 175.9  18.9  34172  289.77 0854.35
2009/04/23 16:10:50.1      49   -358    125    362    384 172.2  19.1  34162  289.60 0854.35
2009/04/23 16:10:50.2     159   -336    101    372    386 154.7  15.3  34170  289.74 0854.35
2009/04/23 16:10:50.3      46   -227    231    232    327 168.5  50.1  34182  289.93 0854.35
2009/04/23 16:10:50.4      36   -124    208    130    245 163.5  64.9  34210  290.43 0854.35
2009/04/23 16:10:50.5      57   -159    176    170    244 160.2  51.2  34222  290.64 0854.35
2009/04/23 16:10:50.6      59   -192    230    202    306 162.8  54.3  34226  290.70 0854.35
2009/04/23 16:10:50.7    -113   -176    181    210    277 212.7  45.4  34174  289.80 0854.35
2009/04/23 16:10:50.8      -2   -132    174    133    219 181.0  58.7  34234  290.82 0854.35
2009/04/23 16:10:51.0     -43    -27    119     52    129 237.5  75.0  34236  290.87 0854.35
2009/04/23 16:10:51.0     -61    -62    119     88    148 224.7  60.5  34224  290.65 0854.35
2009/04/23 16:10:51.1     -58    -70    -43     91    100 219.7 -31.6  34206  290.36 0854.35
2009/04/23 16:10:51.2     -86      7    -42     87     96 275.2 -31.7  34212  290.47 0854.35
2009/04/23 16:10:51.3     -71    -24     82     76    111 250.9  52.2  34214  290.50 0854.35
2009/04/23 16:10:51.4      34    -72    122     80    145 154.7  64.1  34232  290.79 0854.35
2009/04/23 16:10:51.5     -35    -89    122     96    155 201.4  57.5  34216  290.52 0854.35
2009/04/23 16:10:51.6     -48   -134    123    143    188 200.0  44.8  34218  290.55 0854.35
2009/04/23 16:10:51.7     -75    -71    103    104    146 226.8  50.0  34216  290.53 0854.35
2009/04/23 16:10:51.8    -147    -94    113    175    208 237.4  35.7  34232  290.81 0854.35
2009/04/23 16:10:51.9    -158     31     68    162    175 281.4  24.1  34238  290.89 0854.35
2009/04/23 16:10:52.0    -131    130    -43    185    190 314.9 -13.2  34234  290.84 0854.35
2009/04/23 16:10:52.1     -43    152    -34    159    163 344.0 -12.4  34206  290.35 0854.35
2009/04/23 16:10:52.2     -16    207     73    208    221 355.5  19.4  34206  290.36 0854.35
2009/04/23 16:10:52.3     -42    158    110    164    197 344.9  37.3  34194  290.14 0854.35
2009/04/23 16:10:52.4     131    117    195    176    262  48.2  53.3  34186  290.00 0854.35
2009/04/23 16:10:52.5     231    179    202    293    355  52.2  37.8  34188  290.04 0854.35
2009/04/23 16:10:52.6     209    162    181    265    320  52.2  37.6  34190  290.09 0854.35
2009/04/23 16:10:52.7     222    146    222    266    346  56.7  44.0  34196  290.17 0854.35
2009/04/23 16:10:52.8     126     72    255    146    293  60.2  67.7  34214  290.49 0854.35
2009/04/23 16:10:52.9      84     33    175     91    197  68.3  70.6  34212  290.47 0854.35
2009/04/23 16:10:53.0       2   -218    236    219    321 179.3  52.3  34252  291.14 0854.35
2009/04/23 16:10:53.1      74     16    246     76    257  77.6  82.5  34218  290.55 0854.35
2009/04/23 16:10:53.2      17     -4    227     18    227 105.1  90.0  34240  290.92 0854.35
2009/04/23 16:10:53.3     -92     51    114    106    155 298.9  52.2  34234  290.84 0854.35
2009/04/23 16:10:53.4    -178      4    110    179    210 271.5  34.8  34242  290.96 0854.35
2009/04/23 16:10:53.5     -14     25    122     29    125 331.0  86.9  34240  290.94 0854.35
2009/04/23 16:10:53.6     107    -57    110    122    164 118.0  46.9  34196  290.19 0854.35
2009/04/23 16:10:53.7     127     49     -8    137    138  68.7  -3.7  34192  290.11 0854.35
2009/04/23 16:10:53.8     197    109      3    226    227  61.1   0.8  34186  290.02 0854.35
2009/04/23 16:10:53.9     227    168     57    283    289  53.4  11.4  34192  290.12 0854.35
2009/04/23 16:10:54.0     174    139     85    223    238  51.4  22.0  34182  289.93 0854.35
2009/04/23 16:10:54.1     155     86    174    178    248  60.9  49.8  34196  290.18 0854.35
2009/04/23 16:10:54.2     333    124     90    356    368  69.6  14.3  34186  290.01 0854.35
2009/04/23 16:10:54.3     334    211    143    396    422  57.7  19.9  34186  290.00 0854.35
2009/04/23 16:10:54.4     317     36     93    320    334  83.5  16.3  34192  290.13 0854.35
2009/04/23 16:10:54.5     188    121     -8    224    225  57.1  -2.1  34186  290.01 0854.35
2009/04/23 16:10:54.6     137     21    124    139    186  81.2  46.4  34196  290.19 0854.35
2009/04/23 16:10:54.7     223     10     94    224    242  87.2  24.1  34212  290.44 0854.35
2009/04/23 16:10:54.8     182     15     60    183    193  85.2  18.1  34208  290.38 0854.35
2009/04/23 16:10:54.9     252     97     48    271    276  68.9  10.1  34202  290.29 0854.35
2009/04/23 16:10:55.0     229    155      0    277    278  55.9   0.0  34208  290.37 0854.35
2009/04/23 16:10:55.1     206    131     32    245    248  57.4   7.5  34208  290.39 0854.35
2009/04/23 16:10:55.2     152     95     40    180    185  58.0  12.6  34222  290.62 0854.35
2009/04/23 16:10:55.3      58     66     77     89    117  41.4  45.8  34232  290.81 0854.36
2009/04/23 16:10:55.4      53     65     22     84     87  39.2  14.7  34232  290.79 0854.36
2009/04/23 16:10:55.5     -62    -39     36     74     82 237.6  27.8  34226  290.70 0854.36
2009/04/23 16:10:55.6    -137    -61    -12    151    152 246.0  -4.6  34234  290.84 0854.36
2009/04/23 16:10:55.8    -131     47     74    140    158 290.0  30.3  34272  291.49 0854.36
2009/04/23 16:10:55.8    -129     76    -10    150    151 300.6  -4.1  34262  291.30 0854.36
2009/04/23 16:10:56.0    -224    -65     -8    234    235 253.8  -2.1  34238  290.88 0854.36
2009/04/23 16:10:56.1    -340   -159      3    376    377 245.0   0.5  34230  290.77 0854.36
2009/04/23 16:10:56.2    -280    -35    -63    283    291 262.8 -12.6  34248  291.05 0854.36
2009/04/23 16:10:56.3    -249    -27    -74    251    262 263.8 -16.6  34250  291.09 0854.36
2009/04/23 16:10:56.4    -364     20    -78    365    374 273.3 -12.2  34194  290.15 0854.36
2009/04/23 16:10:56.5    -499    -31    -70    501    507 266.4  -8.0  34210  290.42 0854.36
2009/04/23 16:10:56.6    -305     31    -43    307    311 275.9  -8.1  34214  290.49 0854.36
2009/04/23 16:10:56.7    -218     51     78    224    238 283.3  19.2  34236  290.87 0854.36
2009/04/23 16:10:56.8    -320    110     81    339    349 289.0  13.6  34238  290.89 0854.36
2009/04/23 16:10:56.9    -292    106    -96    311    326 290.0 -17.2  34226  290.70 0854.36
2009/04/23 16:10:57.0    -313     34    -35    315    318 276.2  -6.5  34228  290.73 0854.36
2009/04/23 16:10:57.1    -249    -51    -40    255    259 258.3  -9.0  34262  291.31 0854.36
2009/04/23 16:10:57.2    -261    -91   -100    277    294 250.7 -25.3  34232  290.78 0854.36
2009/04/23 16:10:57.3    -205   -197    148    285    321 226.2  29.6  34270  291.43 0854.36
2009/04/23 16:10:57.4    -112     -4    198    113    227 267.9  68.1  34276  291.54 0854.36
2009/04/23 16:10:57.5    -148    -96    132    177    220 237.1  40.4  34272  291.47 0854.36
2009/04/23 16:10:57.6    -219    -37    164    223    276 260.3  39.7  34320  292.28 0854.36
2009/04/23 16:10:57.7    -214     84    140    231    270 291.5  34.2  34320  292.30 0854.36
2009/04/23 16:10:57.8    -154    327    -56    362    367 334.7  -8.8  34308  292.10 0854.36
2009/04/23 16:10:57.9    -192    330   -121    383    401 329.8 -22.8  34220  290.59 0854.36
2009/04/23 16:10:58.0     -47    288   -160    292    332 350.7 -35.7  34218  290.56 0854.36
2009/04/23 16:10:58.1     232    336    -26    409    410  34.6  -3.7  34230  290.75 0854.36
2009/04/23 16:10:58.2     268    266    -97    378    391  45.2 -14.4  34174  289.82 0854.36
2009/04/23 16:10:58.3     109    231    -50    256    261  25.2 -11.1  34186  290.02 0854.36
2009/04/23 16:10:58.4     106    277   -149    297    332  21.0 -33.0  34162  289.61 0854.36
2009/04/23 16:10:58.5     292    356    -42    461    464  39.4  -5.3  34180  289.90 0854.36
2009/04/23 16:10:58.6     366    225     20    430    431  58.4   2.8  34156  289.49 0854.36
2009/04/23 16:10:58.7     457    112    204    471    513  76.2  25.0  34208  290.37 0854.36
2009/04/23 16:10:58.8     369     76    317    377    492  78.3  44.3  34306  292.06 0854.36
2009/04/23 16:10:58.9     238     32    397    241    464  82.3  66.0  34348  292.76 0854.36
2009/04/23 16:10:59.0     322     74    338    331    473  77.0  50.7  34300  291.96 0854.36
2009/04/23 16:10:59.1     -83     68    339    108    355 309.1  81.9  34338  292.60 0854.36
2009/04/23 16:10:59.2    -200     35    217    204    297 279.9  52.1  34314  292.19 0854.36
2009/04/23 16:10:59.3     345      0    167    346    384  90.0  27.3  34194  290.16 0854.36
2009/04/23 16:10:59.4     274     -7     88    275    289  91.5  17.9  34192  290.12 0854.36
2009/04/23 16:10:59.5     205     19     86    206    223  84.5  23.6  34182  289.94 0854.36
2009/04/23 16:10:59.6     211    -27     55    213    221  97.5  14.5  34198  290.21 0854.36
2009/04/23 16:10:59.7     172    -88      1    194    195 117.1   0.5  34208  290.38 0854.36
2009/04/23 16:10:59.8     211   -134    -22    250    252 122.4  -5.1  34214  290.48 0854.36
2009/04/23 16:10:59.9     412   -124    229    431    488 106.8  30.3  34200  290.25 0854.36
2009/04/23 16:11:00.0     287    -77    181    298    348 105.0  34.2  34226  290.69 0854.36
2009/04/23 16:11:00.1     425   -145    472    450    652 108.8  51.6  34252  291.12 0854.36
2009/04/23 16:11:00.2     328   -297    381    443    584 132.2  45.2  34254  291.18 0854.36
2009/04/23 16:11:00.3       8   -255    305    256    398 178.0  55.8  34272  291.49 0854.36
2009/04/23 16:11:00.4       5   -311    314    312    442 179.0  50.1  34262  291.29 0854.36
2009/04/23 16:11:00.5      26   -342    261    344    431 175.5  41.1  34244  290.99 0854.36
2009/04/23 16:11:00.6     -28   -199    249    202    320 188.0  56.9  34244  290.99 0854.36
2009/04/23 16:11:00.7      80    -49    170     95    194 121.5  68.5  34242  290.98 0854.36
2009/04/23 16:11:00.8       2    -35    156     36    160 175.5  87.3  34224  290.67 0854.36
2009/04/23 16:11:00.9     -46   -127    265    136    297 200.0  70.8  34256  291.21 0854.36
2009/04/23 16:11:01.0    -155   -106    195    189    271 235.6  50.9  34262  291.29 0854.36
2009/04/23 16:11:01.1    -356    -96    129    369    392 254.8  19.3  34268  291.42 0854.36
2009/04/23 16:11:01.2    -228   -253    214    341    402 222.1  35.2  34230  290.77 0854.36
2009/04/23 16:11:01.3    -543      0    -21    544    545 270.0  -2.2  34256  291.20 0854.36
2009/04/23 16:11:01.4    -307   -287     66    421    427 227.0   8.9  34216  290.53 0854.37
2009/04/23 16:11:01.5      67   -163    236    177    295 157.5  59.4  34246  291.02 0854.37
2009/04/23 16:11:01.6     -21   -217    163    219    273 185.6  40.4  34230  290.75 0854.37
2009/04/23 16:11:01.7    -232   -461    318    517    606 206.8  34.5  34228  290.73 0854.37
2009/04/23 16:11:01.8    -421   -462     69    626    630 222.3   6.4  34248  291.05 0854.37
2009/04/23 16:11:01.9    -243   -369    -31    442    444 213.4  -4.1  34276  291.55 0854.37
2009/04/23 16:11:02.0    -387   -365     50    533    536 226.7   5.4  34240  290.94 0854.37
2009/04/23 16:11:02.1    -362   -249   -116    440    456 235.4 -14.8  34208  290.39 0854.37
2009/04/23 16:11:02.2    -239   -346    134    421    442 214.6  17.7  34228  290.73 0854.37
2009/04/23 16:11:02.3    -227   -414    248    473    534 208.7  29.9  34236  290.86 0854.37
2009/04/23 16:11:02.4    -364   -156    -45    397    400 246.8  -6.6  34220  290.60 0854.37
2009/04/23 16:11:02.5    -306   -164   -129    348    371 241.9 -25.5  34204  290.32 0854.37
2009/04/23 16:11:02.6    -197   -377    -34    426    428 207.6  -4.6  34252  291.12 0854.37
2009/04/23 16:11:02.7    -183   -201    -98    273    291 222.3 -19.7  34250  291.10 0854.37
2009/04/23 16:11:02.8    -357   -256   -139    440    462 234.4 -17.5  34228  290.72 0854.37
2009/04/23 16:11:02.9    -227   -247   -116    336    356 222.6 -19.1  34238  290.88 0854.37
2009/04/23 16:11:03.0    -275   -318     -1    421    422 220.9  -0.3  34240  290.92 0854.37
2009/04/23 16:11:03.1    -332   -284     64    437    442 229.5   8.3  34240  290.92 0854.37
2009/04/23 16:11:03.2    -408    -83    -37    417    419 258.5  -5.1  34256  291.19 0854.37
2009/04/23 16:11:03.3    -226    -17    -30    227    230 265.7  -7.7  34254  291.18 0854.37
2009/04/23 16:11:03.4    -328   -130   -120    353    372 248.3 -23.6  34238  290.89 0854.37
2009/04/23 16:11:03.5    -290    -78    -67    301    309 254.9 -12.6  34218  290.54 0854.37
2009/04/23 16:11:03.6    -367   -320    -10    488    489 228.9  -1.3  34232  290.78 0854.37
2009/04/23 16:11:03.7    -415   -332    -38    532    534 231.4  -4.1  34218  290.57 0854.37
2009/04/23 16:11:03.8    -221   -208     11    304    305 226.8   2.1  34210  290.42 0854.37
2009/04/23 16:11:03.9    -201   -208     51    290    295 224.1  10.1  34216  290.53 0854.37
2009/04/23 16:11:04.0    -172   -237     14    294    295 216.0   2.9  34212  290.46 0854.37
2009/04/23 16:11:04.1     -72   -310    -77    319    329 193.1 -13.7  34204  290.31 0854.37
2009/04/23 16:11:04.2     -25   -270    -88    272    286 185.3 -17.9  34206  290.34 0854.37
2009/04/23 16:11:04.3     -25   -249    -52    251    257 185.8 -11.9  34206  290.36 0854.37
2009/04/23 16:11:04.4     -12   -185    -60    186    196 183.8 -17.9  34216  290.53 0854.38
2009/04/23 16:11:04.5      73   -215    -11    228    229 161.3  -2.8  34202  290.30 0854.38
2009/04/23 16:11:04.6      68   -164    -22    178    180 157.5  -7.3  34204  290.31 0854.38
2009/04/23 16:11:04.7     114    -37    -21    120    122 108.2 -10.3  34212  290.47 0854.38
2009/04/23 16:11:04.8     123     15     78    124    146  83.0  35.5  34218  290.55 0854.38
2009/04/23 16:11:04.9     110      0     72    111    132  90.0  35.6  34220  290.60 0854.38
2009/04/23 16:11:05.0     -37    -58     56     70     89 212.6  43.3  34208  290.38 0854.38
2009/04/23 16:11:05.1      -9    -42     31     44     53 192.5  38.6  34206  290.35 0854.38
2009/04/23 16:11:05.2      29    104     32    109    114  15.6  16.8  34210  290.43 0854.38
2009/04/23 16:11:05.3      37      0     15     38     40  90.0  22.0  34208  290.40 0854.38
2009/04/23 16:11:05.4     -21    -61     39     65     75 199.2  35.5  34202  290.28 0854.38
2009/04/23 16:11:05.5      68     -5     52     69     86  94.4  40.7  34206  290.36 0854.38
2009/04/23 16:11:05.6      40     64     21     76     80  32.5  15.8  34212  290.45 0854.38
2009/04/23 16:11:05.7    -152    153    -14    217    218 315.2  -3.7  34210  290.41 0854.38
2009/04/23 16:11:05.8    -138     89    -22    165    167 302.9  -7.7  34234  290.82 0854.38
2009/04/23 16:11:05.9      27     56    -12     63     65  25.4 -11.5  34226  290.70 0854.38
2009/04/23 16:11:06.0     154    172    191    232    300  41.9  43.7  34228  290.71 0854.38
2009/04/23 16:11:06.1     214    119    208    245    321  60.9  44.8  34220  290.59 0854.38
2009/04/23 16:11:06.2     263    178    263    318    412  55.8  43.7  34250  291.10 0854.38
2009/04/23 16:11:06.3     176    178    213    251    329  44.5  44.7  34262  291.29 0854.38
2009/04/23 16:11:06.4     251    308    207    398    448  39.1  29.5  34244  291.01 0854.38
2009/04/23 16:11:06.5     251    375    116    452    467  33.8  14.4  34234  290.84 0854.38
2009/04/23 16:11:06.6     193    330     26    383    384  30.4   4.0  34258  291.23 0854.38
2009/04/23 16:11:06.7     144    282     80    317    328  27.1  14.3  34308  292.09 0854.38
2009/04/23 16:11:06.8      40    260     75    264    275   8.9  16.0  34288  291.75 0854.38
2009/04/23 16:11:06.9      45    396    101    399    412   6.5  14.3  34332  292.50 0854.38
2009/04/23 16:11:07.0       5    427     92    428    438   0.7  12.2  34332  292.49 0854.38
2009/04/23 16:11:07.1      -7    488     23    489    490 359.1   2.8  34300  291.95 0854.38
2009/04/23 16:11:07.2     -50    501     66    504    509 354.2   7.5  34292  291.80 0854.38
2009/04/23 16:11:07.3     -49    453     56    456    460 353.8   7.1  34268  291.41 0854.38
2009/04/23 16:11:07.4     -22    492    124    493    509 357.4  14.2  34268  291.42 0854.38
2009/04/23 16:11:07.5      91    476    131    485    503  10.9  15.1  34296  291.87 0854.38
2009/04/23 16:11:07.6     -38    504    108    506    518 355.6  12.1  34266  291.36 0854.38
2009/04/23 16:11:07.7     448    266    201    522    559  59.3  22.1  34296  291.89 0854.38
2009/04/23 16:11:07.8     357    275     51    451    454  52.4   6.5  34250  291.09 0854.38
2009/04/23 16:11:07.9     467    239    255    525    583  62.8  27.8  34308  292.10 0854.38
2009/04/23 16:11:08.0     441    202    321    486    582  65.4  36.5  34286  291.71 0854.38
2009/04/23 16:11:08.1     384    244    267    456    528  57.5  32.9  34188  290.05 0854.38
2009/04/23 16:11:08.2     409    525    139    666    681  37.9  11.8  34186  290.00 0854.38
2009/04/23 16:11:08.3     357    534     39    643    645  33.8   3.5  34178  289.86 0854.38
2009/04/23 16:11:08.4     241    552    -23    603    604  23.6  -2.2  34178  289.88 0854.38
2009/04/23 16:11:08.5     270    476     16    548    549  29.6   1.7  34198  290.23 0854.38
2009/04/23 16:11:08.6     274    298    161    405    435  42.6  23.0  34230  290.75 0854.38
2009/04/23 16:11:08.7     170     78      3    188    189  65.4   1.0  34192  290.11 0854.38
2009/04/23 16:11:08.8      -6     76      3     77     78 355.5   2.9  34212  290.45 0854.38
2009/04/23 16:11:08.9     192    152    -40    245    249  51.6  -9.3  34208  290.39 0854.38
2009/04/23 16:11:09.0     404    234    165    468    497  59.9  19.5  34234  290.83 0854.38
2009/04/23 16:11:09.1     523    133    189    540    572  75.7  20.0  34162  289.62 0854.38
2009/04/23 16:11:09.2     276    114     14    299    300  67.6   2.8  34174  289.81 0854.38
2009/04/23 16:11:09.3     401   -179   -163    440    469 114.1 -25.7  34158  289.53 0854.38
2009/04/23 16:11:09.4     418    -77   -127    426    445 100.5 -16.7  34176  289.85 0854.38
2009/04/23 16:11:09.5     579     99   -107    588    598  80.3 -10.4  34156  289.51 0854.38
2009/04/23 16:11:09.6     255     66   -303    264    401  75.4 -59.0  34168  289.72 0854.38
2009/04/23 16:11:09.7     263     39   -297    266    398  81.4 -58.0  34142  289.26 0854.38
2009/04/23 16:11:09.8     427    262   -310    502    590  58.5 -38.9  34126  289.01 0854.38
2009/04/23 16:11:09.9     584    232   -150    629    647  68.3 -13.4  34136  289.18 0854.38
2009/04/23 16:11:10.0     462    227   -162    515    541  63.8 -17.5  34144  289.31 0854.38
2009/04/23 16:11:10.1     638    211   -131    672    685  71.7 -11.1  34120  288.90 0854.38
2009/04/23 16:11:10.2     583    292    -37    652    654  63.4  -3.3  34158  289.53 0854.38
2009/04/23 16:11:10.3     472   -150   -198    496    534 107.7 -27.4  34186  290.01 0854.38
2009/04/23 16:11:10.4     399   -120    234    417    478 106.8  31.9  34240  290.92 0854.38
2009/04/23 16:11:10.5     328   -172    146    371    398 117.8  22.5  34258  291.23 0854.38
2009/04/23 16:11:10.6     147   -119    173    190    256 128.9  47.1  34268  291.41 0854.38
2009/04/23 16:11:10.7     197    -46    -33    203    206 103.3  -9.3  34220  290.58 0854.38
2009/04/23 16:11:10.8     138    -31     63    142    155 102.8  25.2  34202  290.28 0854.38
2009/04/23 16:11:10.9     100   -131   -118    166    203 142.6 -43.2  34196  290.19 0854.38
2009/04/23 16:11:11.0      44   -257    -52    261    267 170.2 -11.3  34188  290.03 0854.38
2009/04/23 16:11:11.1     164   -169    -65    236    245 135.9 -15.4  34176  289.83 0854.38
2009/04/23 16:11:11.2     159   -143    -73    215    228 132.0 -18.7  34174  289.80 0854.38
2009/04/23 16:11:11.3     161   -192      7    251    252 140.1   1.7  34166  289.68 0854.38
2009/04/23 16:11:11.4     238   -172    -49    294    299 125.9  -9.6  34180  289.92 0854.38
2009/04/23 16:11:11.5     223   -370     59    433    437 148.9   7.8  34210  290.41 0854.38
2009/04/23 16:11:11.6     181   -198    173    269    319 137.6  35.7  34266  291.38 0854.38
2009/04/23 16:11:11.7     152    -89    197    177    264 120.2  53.5  34236  290.87 0854.38
2009/04/23 16:11:11.8     209   -132    152    248    290 122.4  34.5  34254  291.16 0854.38
2009/04/23 16:11:11.9     181    -22    192    183    265  97.0  51.4  34276  291.53 0854.38
2009/04/23 16:11:12.0     164    -44    151    170    227 105.1  46.2  34232  290.79 0854.38
2009/04/23 16:11:12.1     110    -47    112    120    164 113.5  48.2  34224  290.65 0854.38
2009/04/23 16:11:12.2     109     35    142    115    182  71.8  56.6  34280  291.62 0854.38
2009/04/23 16:11:12.3       9     76    125     77    146   7.1  64.7  34260  291.28 0854.38
2009/04/23 16:11:12.4      -7    203     87    204    221 357.8  24.3  34194  290.16 0854.37
2009/04/23 16:11:12.5     -35    149     40    154    160 346.6  14.7  34202  290.28 0854.37
2009/04/23 16:11:12.6     -36    176     84    180    198 348.4  27.0  34220  290.60 0854.37
2009/04/23 16:11:12.7     -79    262    118    274    298 343.1  25.1  34224  290.65 0854.37
2009/04/23 16:11:12.8    -133    241    129    276    304 331.0  27.1  34258  291.22 0854.37
2009/04/23 16:11:12.9    -288    214     15    360    361 306.6   2.5  34228  290.71 0854.37
2009/04/23 16:11:13.0    -223    209      3    306    307 313.2   0.7  34236  290.85 0854.37
2009/04/23 16:11:13.1    -167    202     47    263    268 320.3  10.1  34252  291.12 0854.37
2009/04/23 16:11:13.2    -151    215     95    263    280 324.9  19.9  34256  291.19 0854.37
2009/04/23 16:11:13.3     -91    137    131    165    210 326.2  42.7  34228  290.72 0854.37
2009/04/23 16:11:13.4     -95    216    102    237    258 336.2  24.6  34248  291.05 0854.37
2009/04/23 16:11:13.5     -14    452     23    453    454 358.2   2.9  34220  290.58 0854.37
2009/04/23 16:11:13.6    -141    347    -57    375    380 337.8  -8.7  34130  289.06 0854.37
2009/04/23 16:11:13.7    -127    353   -127    376    396 340.1 -23.7  34178  289.89 0854.37
2009/04/23 16:11:13.8     -71    323     19    331    332 347.5   3.3  34190  290.08 0854.37
2009/04/23 16:11:13.9     -59    288     40    295    298 348.4   7.8  34220  290.58 0854.37
2009/04/23 16:11:14.0     -60    356     17    362    363 350.4   2.8  34290  291.79 0854.37
2009/04/23 16:11:14.1     -31    220    112    223    249 352.0  28.5  34290  291.77 0854.37
2009/04/23 16:11:14.2    -135    287     54    318    323 334.7   9.7  34224  290.65 0854.37
2009/04/23 16:11:14.3    -197    217    -48    294    299 317.7  -9.4  34220  290.58 0854.37
2009/04/23 16:11:14.4    -195    124    -81    232    246 302.4 -19.4  34220  290.58 0854.39
2009/04/23 16:11:14.5    -117    161     23    200    202 324.0   6.7  34224  290.67 0854.39
2009/04/23 16:11:14.6     -17    170     86    171    191 354.2  28.5  34300  291.95 0854.39
2009/04/23 16:11:14.7      39    220    167    224    279  10.2  40.6  34318  292.24 0854.39
2009/04/23 16:11:14.8     119    119    120    169    207  44.8  38.8  34308  292.08 0854.39
2009/04/23 16:11:14.9     118    121    120    170    208  44.3  38.8  34288  291.74 0854.39
2009/04/23 16:11:15.0      24    145    147    148    208   9.7  50.0  34306  292.05 0854.39
2009/04/23 16:11:15.1     126    199    191    236    303  32.5  43.5  34296  291.87 0854.39
2009/04/23 16:11:15.2      96    208    194    230    300  24.7  44.5  34296  291.87 0854.39
2009/04/23 16:11:15.3      64    272     67    280    288  13.4  13.5  34288  291.73 0854.39
2009/04/23 16:11:15.4     156    177    121    237    266  41.4  29.1  34280  291.61 0854.39
2009/04/23 16:11:15.5      50     90    130    104    166  29.0  56.9  34280  291.60 0854.39
2009/04/23 16:11:15.6     194    115    146    226    269  59.3  35.6  34290  291.78 0854.39
2009/04/23 16:11:15.7     201     81    120    217    247  68.0  31.4  34306  292.04 0854.39
2009/04/23 16:11:15.8     163     61    128    175    216  69.4  39.7  34324  292.35 0854.39
2009/04/23 16:11:15.9     164     38     82    169    187  77.0  27.3  34310  292.13 0854.39
2009/04/23 16:11:16.0     127     34     82    132    155  74.9  35.5  34312  292.17 0854.39
2009/04/23 16:11:16.1      43     39    113     59    127  47.8  70.8  34318  292.27 0854.39
2009/04/23 16:11:16.2     153     16    163    154    224  83.9  52.0  34316  292.22 0854.39
2009/04/23 16:11:16.3      93    -70    121    117    168 127.3  50.9  34318  292.27 0854.39
2009/04/23 16:11:16.4     124    -79    164    148    220 122.4  53.3  34300  291.96 0854.39
2009/04/23 16:11:16.5      -4   -165    180    166    244 181.6  52.7  34294  291.86 0854.39
2009/04/23 16:11:16.6     -31    -94    113    100    150 198.3  54.2  34302  291.98 0854.39
2009/04/23 16:11:16.7      67    -13     83     69    107 101.4  56.3  34310  292.13 0854.39
2009/04/23 16:11:16.8      48    -74     77     89    117 146.6  45.8  34312  292.17 0854.39
2009/04/23 16:11:16.9     161   -119    119    201    233 126.4  33.5  34322  292.34 0854.39
2009/04/23 16:11:17.0     192   -161     56    251    258 130.0  12.6  34308  292.09 0854.39
2009/04/23 16:11:17.1     193   -108     81    222    236 119.3  20.9  34302  291.98 0854.39
2009/04/23 16:11:17.2     155    -71    129    171    214 114.8  40.9  34308  292.08 0854.39
2009/04/23 16:11:17.3     140    -27    118    143    185 101.0  43.7  34308  292.08 0854.39
2009/04/23 16:11:17.4     137    -40    115    143    183 106.4  43.0  34302  291.98 0854.39
2009/04/23 16:11:17.5      20    -65    153     69    167 163.1  74.2  34318  292.27 0854.39
2009/04/23 16:11:17.6     -33   -123    204    128    240 195.1  64.7  34308  292.08 0854.39
2009/04/23 16:11:17.7      31   -226    181    229    291 172.2  42.4  34284  291.68 0854.39
2009/04/23 16:11:17.8      17   -168     78    169    186 174.2  26.6  34294  291.84 0854.39
2009/04/23 16:11:17.9    -131   -139    100    192    216 223.2  29.5  34300  291.96 0854.39
2009/04/23 16:11:18.0     -83   -166    116    186    219 206.7  35.2  34312  292.15 0854.39
2009/04/23 16:11:18.1     -81   -147     72    169    183 209.0  24.1  34310  292.12 0854.39
2009/04/23 16:11:18.2    -144   -153     89    211    229 223.2  24.3  34338  292.59 0854.39
2009/04/23 16:11:18.3    -209   -132    -66    248    257 237.8 -15.0  34296  291.87 0854.39
2009/04/23 16:11:18.4    -182   -159    -21    242    243 228.9  -5.1  34272  291.46 0854.38
2009/04/23 16:11:18.5    -104   -127     53    165    174 219.2  17.9  34268  291.42 0854.38
2009/04/23 16:11:18.6    -123     -9     42    124    132 265.6  18.9  34284  291.69 0854.38
2009/04/23 16:11:18.7    -123    136     65    184    196 317.7  19.4  34264  291.35 0854.38
2009/04/23 16:11:18.8    -101     86     48    133    141 310.4  20.9  34276  291.55 0854.38
2009/04/23 16:11:18.9    -140      6     -3    141    142 272.6  -1.3  34298  291.93 0854.38
2009/04/23 16:11:19.0     -66    -61     58     91    107 227.3  35.5  34306  292.06 0854.38
2009/04/23 16:11:19.1    -110    -46     64    120    136 247.4  30.3  34306  292.05 0854.38
2009/04/23 16:11:19.2     -79   -111     -4    137    138 215.2  -1.8  34294  291.84 0854.38
2009/04/23 16:11:19.3    -142   -117     17    185    186 230.5   5.4  34304  292.01 0854.38
2009/04/23 16:11:19.4    -137   -148      1    202    203 222.8   0.5  34286  291.71 0854.38
2009/04/23 16:11:19.5    -170    -47      1    177    178 254.3   0.5  34278  291.59 0854.38
2009/04/23 16:11:19.6    -144    -82     15    167    168 240.2   5.4  34280  291.60 0854.38
2009/04/23 16:11:19.7    -185    -90     37    206    210 244.0  10.3  34280  291.60 0854.38
2009/04/23 16:11:19.8    -229     17    -68    230    240 274.4 -16.5  34294  291.85 0854.38
2009/04/23 16:11:19.9    -300    -35     -6    303    304 263.2  -1.3  34274  291.50 0854.38
2009/04/23 16:11:20.0    -281    -92     41    296    299 251.8   8.0  34262  291.31 0854.38
2009/04/23 16:11:20.1    -218    -84     10    234    235 248.7   2.5  34254  291.17 0854.38
2009/04/23 16:11:20.2    -134   -141     -7    195    196 223.4  -2.2  34258  291.23 0854.38
2009/04/23 16:11:20.3    -165    -95      0    191    192 240.0   0.0  34262  291.32 0854.38
2009/04/23 16:11:20.4     -88    -49     19    101    103 240.7  11.1  34266  291.37 0854.32
2009/04/23 16:11:20.5     -33     92     54     99    112 340.0  31.3  34226  290.70 0854.32
2009/04/23 16:11:20.6     -63   -136     55    150    159 204.9  20.7  34256  291.21 0854.32
2009/04/23 16:11:20.7    -113   -155     -7    193    194 216.1  -2.2  34250  291.09 0854.32
2009/04/23 16:11:20.8     -91    -77     60    120    134 230.0  28.7  34262  291.32 0854.32
2009/04/23 16:11:20.9    -139    -31    127    143    191 257.2  46.4  34276  291.55 0854.32
2009/04/23 16:11:21.0    -159    -10    115    160    197 266.1  39.3  34278  291.59 0854.32
2009/04/23 16:11:21.1    -194     28     67    197    209 278.4  18.9  34278  291.59 0854.32
2009/04/23 16:11:21.2    -230     13    -13    231    232 273.3  -3.3  34266  291.38 0854.32
2009/04/23 16:11:21.3    -196     -3     40    197    202 269.0  11.6  34270  291.43 0854.32
2009/04/23 16:11:21.4    -216    -19      8    217    218 264.8   2.1  34278  291.59 0854.32
2009/04/23 16:11:21.5    -186    -25    -16    188    189 262.1  -4.9  34272  291.49 0854.32
2009/04/23 16:11:21.6    -212   -110    -15    240    241 242.5  -3.7  34280  291.60 0854.32
2009/04/23 16:11:21.7    -124   -103     27    162    165 230.4   9.5  34284  291.69 0854.32
2009/04/23 16:11:21.8    -103   -103      4    147    148 225.0   1.8  34278  291.57 0854.32
2009/04/23 16:11:21.9    -119    -77      8    142    143 237.1   3.3  34278  291.57 0854.32
2009/04/23 16:11:22.1     -91    -91     30    129    133 225.0  13.2  34278  291.59 0854.32
2009/04/23 16:11:22.1    -107   -105     18    151    153 225.6   6.9  34270  291.43 0854.32
2009/04/23 16:11:22.3     -80   -149      2    170    171 208.3   0.8  34254  291.18 0854.32
2009/04/23 16:11:22.4       2   -146     28    147    150 179.1  11.0  34244  290.99 0854.32
2009/04/23 16:11:22.5     -32   -200     10    203    204 189.3   2.9  34234  290.84 0854.32
2009/04/23 16:11:22.6     -53   -188     53    196    204 195.8  15.3  34228  290.74 0854.32
2009/04/23 16:11:22.7     -82   -254    -10    268    269 198.0  -2.2  34230  290.76 0854.32
2009/04/23 16:11:22.8     -76   -228    -69    241    251 198.5 -16.0  34234  290.83 0854.32
2009/04/23 16:11:22.9     -83   -195    -35    213    216 203.2  -9.3  34228  290.74 0854.32
2009/04/23 16:11:23.0    -111   -235     -1    261    262 205.3  -0.3  34222  290.61 0854.32
2009/04/23 16:11:23.1     -73   -229     62    241    249 197.8  14.5  34220  290.58 0854.32
2009/04/23 16:11:23.2     -87   -182     54    202    210 205.6  15.0  34228  290.72 0854.32
2009/04/23 16:11:23.3     -98   -177     55    203    211 209.0  15.3  34230  290.75 0854.32
2009/04/23 16:11:23.4     -91   -203     51    223    229 204.3  12.9  34218  290.57 0854.32
2009/04/23 16:11:23.5     -93   -160     -2    186    187 210.1  -0.7  34220  290.58 0854.32
2009/04/23 16:11:23.6    -117   -125     24    172    174 223.0   8.2  34224  290.67 0854.32
2009/04/23 16:11:23.7     -98   -104     24    144    146 223.3   9.5  34222  290.62 0854.32
2009/04/23 16:11:23.8     -91   -162     38    186    190 209.4  11.6  34218  290.55 0854.32
2009/04/23 16:11:23.9    -101   -185     47    212    218 208.7  12.6  34214  290.50 0854.32
2009/04/23 16:11:24.0    -144   -151     -8    209    210 223.7  -2.2  34210  290.43 0854.32
2009/04/23 16:11:24.1    -128   -156     70    203    216 219.4  19.2  34220  290.60 0854.32
2009/04/23 16:11:24.2    -162   -147     -2    219    220 227.8  -0.7  34212  290.45 0854.32
2009/04/23 16:11:24.3     -84    -84     31    119    124 225.1  14.7  34202  290.30 0854.32
2009/04/23 16:11:24.4    -107    -97     54    145    154 227.8  20.9  34254  291.16 0854.34
2009/04/23 16:11:24.5     -65   -161     70    174    187 202.1  23.0  34242  290.98 0854.34
2009/04/23 16:11:24.6    -119   -154     58    195    204 217.8  16.8  34216  290.53 0854.34
2009/04/23 16:11:24.7    -119   -157    -60    198    206 217.2 -21.7  34194  290.16 0854.34
2009/04/23 16:11:24.8    -110   -117    -54    161    169 223.2 -23.6  34188  290.06 0854.34
2009/04/23 16:11:24.9    -136   -100    -68    169    182 233.6 -27.4  34166  289.69 0854.34
2009/04/23 16:11:25.0     -93   -112    -69    146    161 219.7 -31.4  34224  290.67 0854.34
2009/04/23 16:11:25.1     -19   -188   -108    189    217 185.8 -36.5  34214  290.48 0854.34
2009/04/23 16:11:25.2     -39   -260    -33    263    266 188.7  -7.3  34230  290.75 0854.34
2009/04/23 16:11:25.3     -34   -199    -11    203    204 189.8  -3.1  34234  290.82 0854.34
2009/04/23 16:11:25.4     -25   -183    -39    185    190 188.0 -11.9  34232  290.81 0854.36
2009/04/23 16:11:25.5     -23   -196    -40    198    203 186.7 -11.6  34226  290.70 0854.36
2009/04/23 16:11:25.6     -68   -169    -36    183    187 202.1 -11.1  34216  290.53 0854.36
2009/04/23 16:11:25.7    -103   -145    -18    179    180 215.4  -6.0  34236  290.87 0854.36
2009/04/23 16:11:25.8    -101   -146     11    178    179 214.7   3.6  34234  290.82 0854.36
2009/04/23 16:11:25.9    -160   -160    -55    227    234 225.0 -13.7  34224  290.65 0854.36
2009/04/23 16:11:26.0     -80   -232    -13    246    247 199.2  -3.1  34218  290.54 0854.36
2009/04/23 16:11:26.1    -118   -247     -2    274    275 205.6  -0.5  34214  290.49 0854.36
2009/04/23 16:11:26.2    -241   -264   -108    358    373 222.3 -21.7  34184  289.98 0854.36
2009/04/23 16:11:26.3    -189   -231   -116    299    320 219.2 -26.7  34172  289.78 0854.36
2009/04/23 16:11:26.4    -288   -137   -114    320    340 244.5 -19.7  34162  289.62 0854.36
2009/04/23 16:11:26.5       7   -227   -182    228    291 178.2 -47.1  34168  289.70 0854.36
2009/04/23 16:11:26.6      15   -278      3    279    280 176.9   0.8  34188  290.03 0854.36
2009/04/23 16:11:26.7      48   -236     79    241    254 168.4  18.1  34202  290.27 0854.36
2009/04/23 16:11:26.8     -53   -234     87    241    256 192.9  20.7  34224  290.65 0854.36
2009/04/23 16:11:26.9     -77   -176    115    193    224 203.6  33.7  34208  290.40 0854.36
2009/04/23 16:11:27.0     -53   -148     32    158    162 200.0  11.6  34204  290.33 0854.36
2009/04/23 16:11:27.1     -14   -135     61    136    149 186.2  25.7  34198  290.23 0854.36
2009/04/23 16:11:27.2     -30   -128     92    132    160 193.4  38.4  34202  290.30 0854.36
2009/04/23 16:11:27.3      -7   -118     97    119    153 183.6  43.7  34214  290.48 0854.36
2009/04/23 16:11:27.4      -3   -188     94    189    211 181.1  28.2  34176  289.84 0854.36
2009/04/23 16:11:27.5     -19   -197    115    198    228 185.6  32.9  34138  289.21 0854.36
2009/04/23 16:11:27.6      32   -145    173    149    228 167.5  55.0  34170  289.74 0854.36
2009/04/23 16:11:27.7     -37   -214    120    218    248 189.8  31.4  34168  289.71 0854.36
2009/04/23 16:11:27.8    -122   -192     40    228    232 212.6  10.1  34154  289.46 0854.36
2009/04/23 16:11:27.9    -139   -282      6    315    316 206.3   1.1  34150  289.41 0854.36
2009/04/23 16:11:28.0    -134   -251     55    285    291 208.1  11.0  34162  289.61 0854.36
2009/04/23 16:11:28.1     -77   -183     54    199    207 202.9  15.3  34158  289.53 0854.36
2009/04/23 16:11:28.2    -113    -99     37    151    156 228.7  13.9  34160  289.58 0854.36
2009/04/23 16:11:28.3    -135   -123     41    183    188 227.6  12.6  34162  289.60 0854.36
2009/04/23 16:11:28.4    -131   -156     72    204    217 220.1  19.4  34184  289.97 0854.36
2009/04/23 16:11:28.5    -168   -119     17    206    207 234.7   4.9  34186  290.01 0854.36
2009/04/23 16:11:28.6    -147   -160     38    218    222 222.5  10.1  34200  290.26 0854.36
2009/04/23 16:11:28.7    -103   -103     45    146    153 225.1  17.3  34196  290.19 0854.36
2009/04/23 16:11:28.8    -162   -119     89    202    220 233.8  25.2  34204  290.33 0854.36
2009/04/23 16:11:28.9    -244   -192    102    311    328 231.8  18.1  34196  290.17 0854.36
2009/04/23 16:11:29.0    -228   -175    136    288    318 232.5  27.1  34210  290.42 0854.36
2009/04/23 16:11:29.1    -170      8    151    171    228 272.8  45.9  34210  290.43 0854.36
2009/04/23 16:11:29.2    -121   -120    127    171    213 225.3  40.1  34198  290.21 0854.36
2009/04/23 16:11:29.3    -134    -63    158    149    217 244.6  52.1  34194  290.16 0854.36
2009/04/23 16:11:29.4     -94    106    134    142    195 318.5  48.2  34174  289.82 0854.37
2009/04/23 16:11:29.5     -71    116    170    137    218 328.4  56.9  34194  290.14 0854.37
2009/04/23 16:11:29.6     -59    122    160    136    209 334.1  55.6  34226  290.70 0854.37
2009/04/23 16:11:29.7     -95    186     65    210    220 332.8  17.3  34280  291.62 0854.37
2009/04/23 16:11:29.8    -177    161     87    240    255 312.2  20.9  34260  291.26 0854.37
2009/04/23 16:11:29.9    -128    128    145    182    232 315.1  42.7  34264  291.33 0854.37
2009/04/23 16:11:30.0    -115     83    131    142    193 305.9  47.9  34262  291.32 0854.37
2009/04/23 16:11:30.1      84     60    148    104    180  54.5  61.3  34342  292.66 0854.37
2009/04/23 16:11:30.2      25    151    134    154    204   9.7  45.8  34374  293.21 0854.37
2009/04/23 16:11:30.3      17    159    148    160    217   6.3  47.9  34310  292.12 0854.37
2009/04/23 16:11:30.4     147    309    198    343    396  25.5  32.6  34286  291.71 0854.37
2009/04/23 16:11:30.5     193    354     61    404    409  28.6   8.7  34244  290.99 0854.37
2009/04/23 16:11:30.6      87    371    -84    382    392  13.3 -12.5  34224  290.66 0854.37
2009/04/23 16:11:30.7     119    273     -6    299    300  23.6  -1.2  34252  291.14 0854.37
2009/04/23 16:11:30.8     178    205     83    272    285  41.0  17.1  34306  292.06 0854.37
2009/04/23 16:11:30.9     334    263    117    426    442  51.8  15.4  34304  292.01 0854.37
2009/04/23 16:11:31.0     225    218     32    314    316  45.8   5.9  34304  292.02 0854.37
2009/04/23 16:11:31.1     -32    138     97    142    171 346.7  37.6  34302  292.00 0854.37
2009/04/23 16:11:31.2      87    240     96    256    273  20.0  21.3  34288  291.75 0854.37
2009/04/23 16:11:31.3     191    383     15    428    429  26.5   2.1  34280  291.60 0854.37
2009/04/23 16:11:31.4     279    533    107    602    612  27.6  10.1  34292  291.82 0854.38
2009/04/23 16:11:31.5     351    373    148    513    534  43.3  16.1  34284  291.67 0854.38
2009/04/23 16:11:31.6     178    405    -24    443    444  23.7  -3.1  34246  291.02 0854.38
2009/04/23 16:11:31.7     186    351     16    398    399  27.9   2.4  34212  290.47 0854.38
2009/04/23 16:11:31.8     345    275     29    442    443  51.5   3.8  34296  291.89 0854.38
2009/04/23 16:11:31.9     279    284     41    399    402  44.5   5.9  34284  291.68 0854.38
2009/04/23 16:11:32.0     261    248     23    361    362  46.4   3.8  34272  291.49 0854.38
2009/04/23 16:11:32.1     202    354     72    408    415  29.7  10.0  34216  290.53 0854.38
2009/04/23 16:11:32.2     234    316    154    394    423  36.6  22.5  34208  290.39 0854.38
2009/04/23 16:11:32.3     338    343    -32    482    484  44.6  -3.8  34166  289.69 0854.38
2009/04/23 16:11:32.4     391    331    -28    513    514  49.8  -3.2  34182  289.96 0854.38
2009/04/23 16:11:32.5     304    304   -101    431    443  45.0 -13.3  34192  290.11 0854.38
2009/04/23 16:11:32.6     228    324    -97    397    409  35.2 -13.8  34204  290.33 0854.38
2009/04/23 16:11:32.7     357    230    -53    426    430  57.2  -7.2  34200  290.26 0854.38
2009/04/23 16:11:32.8     381    257    -25    460    461  55.9  -3.2  34186  290.00 0854.38
2009/04/23 16:11:32.9     215    421     69    473    479  27.1   8.3  34166  289.67 0854.38
2009/04/23 16:11:33.0     307    297    117    428    444  45.9  15.3  34156  289.51 0854.38
2009/04/23 16:11:33.1     226    301     19    377    378  37.0   2.9  34172  289.76 0854.38
2009/04/23 16:11:33.2     311    407    153    513    536  37.4  16.7  34152  289.45 0854.38
2009/04/23 16:11:33.3     256    305    139    399    423  40.1  19.3  34146  289.34 0854.38
2009/04/23 16:11:33.4     160    395    134    427    448  22.1  17.4  34158  289.55 0854.38
2009/04/23 16:11:33.5     143    363    127    391    412  21.6  18.0  34180  289.92 0854.38
2009/04/23 16:11:33.6     112    336    105    355    371  18.4  16.5  34174  289.81 0854.38
2009/04/23 16:11:33.7      75    232    128    244    275  18.0  29.8  34156  289.51 0854.38
2009/04/23 16:11:33.8     133    282    126    313    337  25.3  23.0  34156  289.50 0854.38
2009/04/23 16:11:33.9     237    263     33    355    357  42.0   5.5  34158  289.54 0854.38
2009/04/23 16:11:34.0     219    247    -79    331    341  41.5 -13.4  34160  289.57 0854.38
2009/04/23 16:11:34.1     355    274    -23    449    450  52.3  -3.0  34180  289.92 0854.38
2009/04/23 16:11:34.2     203    269    -76    338    347  37.1 -12.7  34174  289.82 0854.38
2009/04/23 16:11:34.3     106    243   -127    266    294  23.6 -31.7  34158  289.54 0854.38
2009/04/23 16:11:34.4     -49    315    -91    319    331 351.1 -20.7  34136  289.15 0854.38
2009/04/23 16:11:34.5    -135    303    -28    332    334 335.9  -4.9  34130  289.08 0854.38
2009/04/23 16:11:34.6     -88    161   -225    184    290 331.1 -60.8  34126  289.00 0854.38
2009/04/23 16:11:34.7    -308    209   -225    373    435 304.2 -38.2  34122  288.92 0854.38
2009/04/23 16:11:34.8    -254    162   -120    302    324 302.5 -27.3  34122  288.92 0854.38
2009/04/23 16:11:34.9    -213     49   -205    219    299 283.0 -52.4  34126  288.98 0854.38
2009/04/23 16:11:35.0    -258      3   -197    259    325 270.8 -45.6  34122  288.93 0854.38
2009/04/23 16:11:35.1    -197    -30   -208    200    288 261.2 -55.6  34126  288.98 0854.38
2009/04/23 16:11:35.2    -125    -49   -172    135    218 248.7 -62.6  34126  289.01 0854.38
2009/04/23 16:11:35.3    -128    -38   -171    134    217 253.2 -62.3  34134  289.13 0854.38
2009/04/23 16:11:35.4     -50    -42   -144     66    158 230.4 -78.4  34134  289.13 0854.36
2009/04/23 16:11:35.5    -120    -97   -175    155    233 230.9 -58.6  34132  289.11 0854.36
2009/04/23 16:11:35.6     -53   -161   -161    170    234 198.5 -53.1  34132  289.09 0854.36
2009/04/23 16:11:35.7    -106   -108   -110    152    187 224.5 -44.1  34144  289.30 0854.36
2009/04/23 16:11:35.8     -82    -31    -91     88    126 249.2 -55.1  34152  289.43 0854.36
2009/04/23 16:11:35.9     -16    -49   -109     52    120 198.3 -77.3  34138  289.19 0854.36
2009/04/23 16:11:36.0      -9    -65    -99     66    118 188.1 -67.6  34140  289.23 0854.36
2009/04/23 16:11:36.1      15   -109    -83    111    138 172.0 -44.5  34134  289.14 0854.36
2009/04/23 16:11:36.2     -52    -82    -35     98    105 212.5 -19.7  34120  288.91 0854.36
2009/04/23 16:11:36.3     -42    -92     -4    102    103 204.5  -2.2  34134  289.14 0854.36
2009/04/23 16:11:36.4     -42    -29    -25     52     57 234.9 -31.6  34152  289.45 0854.36
2009/04/23 16:11:36.5      -7   -128     55    129    140 183.1  24.6  34146  289.33 0854.36
2009/04/23 16:11:36.6     -10    -91     80     92    121 186.7  45.8  34146  289.35 0854.36
2009/04/23 16:11:36.7     -29    -53    104     61    120 209.0  66.8  34154  289.46 0854.36
2009/04/23 16:11:36.8    -123     -7    201    124    236 266.5  65.6  34160  289.57 0854.36
2009/04/23 16:11:36.9      16    -50    154     53    162 162.2  80.7  34160  289.57 0854.36
2009/04/23 16:11:37.0     -61     27    171     67    183 294.4  77.6  34156  289.52 0854.36
2009/04/23 16:11:37.1     -42    125    110    132    171 341.3  44.1  34152  289.43 0854.36
2009/04/23 16:11:37.2     -74      9    122     75    143 277.0  65.1  34158  289.55 0854.36
2009/04/23 16:11:37.3      29     48    120     57    132  31.6  73.1  34152  289.43 0854.36
2009/04/23 16:11:37.4      67    155    112    169    202  23.4  36.5  34158  289.55 0854.37
2009/04/23 16:11:37.5      -1    126     87    127    153 359.5  37.6  34168  289.72 0854.37
2009/04/23 16:11:37.6     -75    143     58    162    172 332.4  20.2  34162  289.60 0854.37
2009/04/23 16:11:37.7    -109    102    112    150    187 313.2  40.4  34158  289.55 0854.37
2009/04/23 16:11:37.8      -7     -3    121      8    121 244.7  90.0  34162  289.60 0854.37
2009/04/23 16:11:37.9     -37     21      0     43     44 299.8  -0.3  34166  289.67 0854.37
2009/04/23 16:11:38.0     119      9     67    120    137  85.6  31.4  34160  289.58 0854.37
2009/04/23 16:11:38.1     -14     22    114     27    117 327.5  86.9  34166  289.67 0854.37
2009/04/23 16:11:38.2    -139    114    139    180    227 309.3  41.7  34166  289.67 0854.37
2009/04/23 16:11:38.3    -161    158    -78    226    239 314.4 -24.3  34156  289.49 0854.37
2009/04/23 16:11:38.4     -18    166    -74    168    183 353.7 -29.5  34156  289.50 0854.37
2009/04/23 16:11:38.5     140     65     93    155    180  65.2  34.0  34160  289.58 0854.37
2009/04/23 16:11:38.6      76     84    105    114    154  41.9  47.9  34164  289.63 0854.37
2009/04/23 16:11:38.7      71    178     86    192    210  21.8  25.9  34150  289.40 0854.37
2009/04/23 16:11:38.8      58    214     97    222    242  15.4  25.1  34158  289.54 0854.37
2009/04/23 16:11:38.9      77    161     62    179    190  25.6  19.2  34158  289.53 0854.37
2009/04/23 16:11:39.0     260    114     90    284    299  66.3  17.7  34162  289.59 0854.37
2009/04/23 16:11:39.1     133     27    135    136    191  78.5  50.2  34176  289.85 0854.37
2009/04/23 16:11:39.2     239    123    106    270    290  62.7  22.8  34166  289.68 0854.37
2009/04/23 16:11:39.3      94     92     84    132    156  45.6  35.5  34166  289.67 0854.37
2009/04/23 16:11:39.4       0     75    -86     76    114   0.0 -58.1  34164  289.65 0854.37
2009/04/23 16:11:39.5      16     12   -104     21    106  52.2 -90.0  34172  289.77 0854.37
2009/04/23 16:11:39.6       6      6    -63      9     63  45.0 -90.0  34178  289.87 0854.37
2009/04/23 16:11:39.7      -1    -39    -26     40     47 182.6 -40.0  34176  289.84 0854.37
2009/04/23 16:11:39.8     -18   -115     53    117    128 188.9  26.2  34176  289.85 0854.37
2009/04/23 16:11:39.9      12    -86    158     87    180 171.5  68.9  34182  289.96 0854.37
2009/04/23 16:11:40.0     -23   -113    103    116    155 191.6  45.9  34184  289.97 0854.37
2009/04/23 16:11:40.1     -88   -113    120    144    187 217.8  43.8  34178  289.89 0854.37
2009/04/23 16:11:40.2       1    -60    129     61    142 178.2  73.1  34182  289.94 0854.37
2009/04/23 16:11:40.3    -147      0     53    148    157 270.0  20.4  34182  289.94 0854.37
2009/04/23 16:11:40.4      -3    -40    127     41    133 185.3  80.7  34174  289.80 0854.37
2009/04/23 16:11:40.5      13   -111    114    112    159 173.3  50.1  34168  289.72 0854.37
2009/04/23 16:11:40.6     108   -147    162    183    244 143.5  46.2  34158  289.55 0854.37
2009/04/23 16:11:40.7      93    -93    161    132    208 134.9  56.4  34160  289.58 0854.37
2009/04/23 16:11:40.8       1    -64     95     65    115 179.1  62.6  34174  289.80 0854.37
2009/04/23 16:11:40.9     -25   -146    118    149    190 189.7  42.7  34162  289.60 0854.37
2009/04/23 16:11:41.0       3     47    134     48    142   4.5  79.7  34178  289.87 0854.37
2009/04/23 16:11:41.1     -27     33    113     43    120 320.4  78.2  34192  290.11 0854.37
2009/04/23 16:11:41.2    -127    -32    107    131    169 255.8  43.7  34184  289.97 0854.37
2009/04/23 16:11:41.3       7    -99    120    100    156 175.6  55.8  34180  289.92 0854.37
2009/04/23 16:11:41.4    -165     55     56    175    184 288.6  17.9  34188  290.04 0854.39
2009/04/23 16:11:41.5    -159     64    186    172    253 292.2  52.2  34194  290.14 0854.39
2009/04/23 16:11:41.6    -178    184    175    257    310 315.9  37.4  34200  290.24 0854.39
2009/04/23 16:11:41.7    -168    114    107    204    230 304.2  29.8  34198  290.21 0854.39
2009/04/23 16:11:41.8     -32    163    117    167    203 348.9  38.4  34212  290.45 0854.39
2009/04/23 16:11:41.9      97     -2    152     98    180  91.3  64.4  34194  290.16 0854.39
2009/04/23 16:11:42.0     -82   -120    107    146    181 214.3  39.7  34194  290.14 0854.39
2009/04/23 16:11:42.1     -33    -98    157    104    188 198.7  63.6  34218  290.57 0854.39
2009/04/23 16:11:42.2    -158     74    108    175    205 295.2  34.8  34206  290.36 0854.39
2009/04/23 16:11:42.3    -121     28     75    125    145 283.2  34.0  34204  290.31 0854.39
2009/04/23 16:11:42.4      -2    170    132    171    216 359.0  41.7  34194  290.16 0854.39
2009/04/23 16:11:42.5     -17    191    153    192    245 354.9  42.7  34192  290.11 0854.39
2009/04/23 16:11:42.6      21     55    170     59    179  20.9  80.7  34212  290.47 0854.39
2009/04/23 16:11:42.7     -47     47    195     67    206 314.9  81.0  34212  290.45 0854.39
2009/04/23 16:11:42.8     -78    -33    162     85    182 246.9  70.0  34192  290.11 0854.39
2009/04/23 16:11:42.9     -73    -77    118    107    159 223.7  53.0  34180  289.92 0854.39
2009/04/23 16:11:43.0     -93   -129     87    160    182 216.0  31.0  34180  289.91 0854.39
2009/04/23 16:11:43.1    -203    -65     64    214    224 252.1  16.8  34170  289.75 0854.39
2009/04/23 16:11:43.2    -257    152     93    299    314 300.6  17.3  34210  290.42 0854.39
2009/04/23 16:11:43.3    -177    119    103    214    237 304.1  27.3  34220  290.58 0854.39
2009/04/23 16:11:43.4     -87    138      4    164    165 327.7   1.6  34202  290.28 0854.42
2009/04/23 16:11:43.5      73    120    134    141    194  31.6  48.7  34208  290.38 0854.42
2009/04/23 16:11:43.6    -136    142    101    197    221 316.3  29.3  34234  290.82 0854.42
2009/04/23 16:11:43.7      58    165    123    176    214  19.6  38.0  34204  290.31 0854.42
2009/04/23 16:11:43.8      34    143    175    148    229  13.4  56.1  34210  290.43 0854.42
2009/04/23 16:11:43.9    -105    147    215    182    281 324.4  55.4  34246  291.04 0854.42
2009/04/23 16:11:44.0     -24    171    136    173    220 352.0  42.2  34244  291.01 0854.42
2009/04/23 16:11:44.1    -152    151    210    215    300 314.9  49.8  34244  290.99 0854.42
2009/04/23 16:11:44.2    -211    205    179    295    345 314.2  34.2  34268  291.42 0854.42
2009/04/23 16:11:44.3    -233    -21     88    234    250 264.8  21.5  34238  290.88 0854.42
2009/04/23 16:11:44.4    -296      4    123    297    321 270.9  23.8  34250  291.09 0854.42
2009/04/23 16:11:44.5    -304    -21    122    305    328 265.9  22.9  34248  291.05 0854.42
2009/04/23 16:11:44.6    -232     73    108    244    266 287.5  25.3  34268  291.39 0854.42
2009/04/23 16:11:44.7    -268     33     74    271    281 277.2  15.3  34316  292.21 0854.42
2009/04/23 16:11:44.8    -245    -60    127    253    283 256.1  28.7  34248  291.05 0854.42
2009/04/23 16:11:44.9    -260     80     76    273    284 287.1  15.6  34272  291.48 0854.42
2009/04/23 16:11:45.0    -149     60    243    161    291 292.2  63.6  34250  291.09 0854.42
2009/04/23 16:11:45.1    -143    105    143    178    228 306.2  43.3  34252  291.15 0854.42
2009/04/23 16:11:45.2     -95     80     84    125    150 310.0  37.0  34258  291.23 0854.42
2009/04/23 16:11:45.3      74      6      3     75     76  84.8   2.8  34248  291.06 0854.42
2009/04/23 16:11:45.4      95     21    -28     98    103  77.2 -16.0  34184  289.99 0854.46
2009/04/23 16:11:45.5      72     73     48    103    113  44.5  27.1  34194  290.14 0854.46
2009/04/23 16:11:45.6      28     35    -20     46     50  38.7 -30.6  34202  290.30 0854.46
2009/04/23 16:11:45.7      27    -69     11     75     76 158.2   9.0  34220  290.58 0854.46
2009/04/23 16:11:45.8     -58   -145     99    157    185 201.9  35.5  34180  289.92 0854.46
2009/04/23 16:11:45.9     111     -8     88    112    142  94.3  42.2  34174  289.82 0854.46
2009/04/23 16:11:46.0      85     -7     76     86    114  94.8  46.4  34184  289.99 0854.46
2009/04/23 16:11:46.1      40      0     95     41    103  90.8  75.5  34200  290.25 0854.46
2009/04/23 16:11:46.2     -10     71     61     72     94 352.0  44.8  34194  290.16 0854.46
2009/04/23 16:11:46.3     -79     99    114    127    170 321.3  46.6  34194  290.14 0854.46
2009/04/23 16:11:46.4     -64     30     90     71    114 295.3  57.5  34194  290.16 0854.46
2009/04/23 16:11:46.5     -11   -127    188    128    227 185.3  62.6  34186  290.02 0854.46
2009/04/23 16:11:46.6     -69   -206    167    218    274 198.7  41.6  34194  290.14 0854.46
2009/04/23 16:11:46.7     -98   -185    118    210    240 207.9  32.1  34186  290.01 0854.46
2009/04/23 16:11:46.8     -43   -173    173    179    248 194.0  49.2  34218  290.57 0854.46
2009/04/23 16:11:46.9      -9   -126    163    127    206 184.4  58.2  34208  290.40 0854.46
2009/04/23 16:11:47.0     -43     36     52     57     77 309.5  47.9  34238  290.89 0854.46
2009/04/23 16:11:47.1     -68    -68     71     97    120 225.0  39.7  34238  290.91 0854.46
2009/04/23 16:11:47.2     -34     -6    123     35    127 258.5  83.9  34262  291.32 0854.46
2009/04/23 16:11:47.3       0      0     98      1     98 350.3  90.0  34264  291.35 0854.46
2009/04/23 16:11:47.4     -26      0    106     27    109 270.0  85.4  34268  291.40 0854.46
2009/04/23 16:11:47.5      -1    -52     73     53     90 181.8  60.5  34254  291.18 0854.46
2009/04/23 16:11:47.6     -15     32    104     36    110 334.5  81.2  34260  291.26 0854.46
2009/04/23 16:11:47.7      -8     89      9     90     91 354.7   5.9  34236  290.86 0854.46
2009/04/23 16:11:47.8      37     18      2     42     43  63.8   2.9  34254  291.18 0854.46
2009/04/23 16:11:47.9      32     97     54    103    116  18.3  29.8  34286  291.71 0854.46
2009/04/23 16:11:48.0       6     87     57     88    104   4.5  35.6  34296  291.88 0854.46
2009/04/23 16:11:48.1      23    191     30    193    196   7.1   8.8  34300  291.95 0854.46
2009/04/23 16:11:48.2     -58     96     61    113    128 328.8  30.8  34274  291.52 0854.46
2009/04/23 16:11:48.3    -195     18     79    196    211 275.5  23.0  34264  291.33 0854.46
2009/04/23 16:11:48.4    -196     79     75    212    226 292.0  19.6  34318  292.27 0854.46
2009/04/23 16:11:48.6     -84     31     82     90    121 290.8  47.5  34278  291.59 0854.46
2009/04/23 16:11:48.7    -222      0     96    223    242 270.0  24.6  34320  292.28 0854.46
2009/04/23 16:11:48.8    -242     69    137    252    286 285.9  31.0  34350  292.79 0854.46
2009/04/23 16:11:48.9    -212     76    132    226    261 289.7  33.1  34336  292.55 0854.46
2009/04/23 16:11:49.0    -205    240    112    316    335 319.5  20.3  34324  292.37 0854.46
2009/04/23 16:11:49.1    -136    240      0    277    278 330.4   0.0  34232  290.78 0854.46
2009/04/23 16:11:49.2     -60    223    -29    232    234 344.9  -7.2  34238  290.88 0854.46
2009/04/23 16:11:49.3     -31    212    -51    215    222 351.5 -13.4  34242  290.96 0854.46
2009/04/23 16:11:49.4     -31    151     12    155    156 348.4   4.6  34296  291.88 0854.46
2009/04/23 16:11:49.5     -95     31     35    100    107 288.2  19.4  34282  291.66 0854.46
2009/04/23 16:11:49.6    -213     39    109    217    242 280.4  28.7  34274  291.51 0854.46
2009/04/23 16:11:49.7    -293     38     58    296    302 277.5  11.1  34290  291.77 0854.46
2009/04/23 16:11:49.8    -222     64     82    232    247 286.2  19.4  34266  291.38 0854.46
2009/04/23 16:11:49.9    -202    111     59    231    239 298.9  14.5  34264  291.34 0854.46
2009/04/23 16:11:50.0    -126    128     22    180    182 315.5   7.2  34266  291.38 0854.46
2009/04/23 16:11:50.1     -78    155     23    174    176 333.0   7.8  34270  291.43 0854.46
2009/04/23 16:11:50.2      -7    111      5    112    113 356.4   2.9  34272  291.47 0854.46
2009/04/23 16:11:50.3     -51    120     14    131    132 336.8   6.5  34258  291.23 0854.46
2009/04/23 16:11:50.4     -28    143      2    146    147 348.9   0.8  34276  291.54 0854.39
2009/04/23 16:11:50.5      46    103     35    113    119  24.1  17.3  34274  291.52 0854.39
2009/04/23 16:11:50.6      40     63     32     75     81  32.6  24.1  34292  291.81 0854.39
2009/04/23 16:11:50.7      89     42    122     99    157  64.6  56.9  34328  292.42 0854.39
2009/04/23 16:11:50.8     156    -25     56    159    169  99.2  19.4  34370  293.15 0854.39
2009/04/23 16:11:50.9     110    -17    100    112    150  98.8  46.4  34358  292.95 0854.39
2009/04/23 16:11:51.0      89    -11     68     90    112  97.5  41.2  34352  292.85 0854.39
2009/04/23 16:11:51.1     -62    -91     41    111    118 214.3  21.0  34332  292.49 0854.39
2009/04/23 16:11:51.2     -42    -67     70     80    106 212.5  46.4  34320  292.29 0854.39
2009/04/23 16:11:51.3      14    -70     69     72     99 168.4  49.0  34358  292.93 0854.39
2009/04/23 16:11:51.4      66     -5     59     67     89  94.4  46.4  34382  293.34 0854.39
2009/04/23 16:11:51.5      86     36     49     94    106  67.4  29.8  34376  293.24 0854.39
2009/04/23 16:11:51.6      64     40     18     76     79  57.6  13.2  34398  293.62 0854.39
2009/04/23 16:11:51.7      62     39      3     74     75  57.5   2.9  34386  293.41 0854.39
2009/04/23 16:11:51.8      48     15     -4     51     52  72.3  -5.2  34376  293.26 0854.39
2009/04/23 16:11:51.9      -2     -7     13      8     15 198.5  64.7  34380  293.31 0854.39
2009/04/23 16:11:52.0      -3    -21     16     22     27 189.8  39.7  34378  293.29 0854.39
2009/04/23 16:11:52.1      -8    -25     19     27     33 198.7  39.7  34380  293.31 0854.39
2009/04/23 16:11:52.2      -6    -40     13     41     44 188.9  18.4  34378  293.27 0854.39
2009/04/23 16:11:52.3     -41    -45     -2     62     63 222.3  -2.2  34362  293.00 0854.39
2009/04/23 16:11:52.4     -50    -39      2     64     65 232.2   1.8  34340  292.64 0854.27
2009/04/23 16:11:52.5     -96    -27    -31    100    104 254.1 -22.8  34306  292.06 0854.27
2009/04/23 16:11:52.6     -91    -14    -11     93     94 260.8  -7.3  34306  292.06 0854.27
2009/04/23 16:11:52.7     -61    -23      8     66     67 249.2   6.9  34306  292.06 0854.27
2009/04/23 16:11:52.8     -51    -10      7     53     54 258.6   8.0  34308  292.10 0854.27
2009/04/23 16:11:52.9     -36    -20    -12     42     43 241.1 -21.7  34308  292.10 0854.27
2009/04/23 16:11:53.0     -23    -15     -3     28     29 237.5  -7.2  34310  292.13 0854.27
2009/04/23 16:11:53.1     -20    -32     15     38     40 212.5  22.0  34294  291.86 0854.27
2009/04/23 16:11:53.2     -42    -26     -6     50     51 238.5  -7.3  34282  291.64 0854.27
2009/04/23 16:11:53.3     -77    -27    -20     82     85 250.5 -13.9  34290  291.77 0854.27
2009/04/23 16:11:53.4     -66    -38     15     77     79 240.2  11.1  34260  291.26 0854.27
2009/04/23 16:11:53.5    -108    -44      2    117    118 247.8   1.2  34238  290.89 0854.27
2009/04/23 16:11:53.6     -99    -32     -3    105    106 251.8  -1.8  34222  290.64 0854.27
2009/04/23 16:11:53.7     -88    -29     32     93     99 251.8  18.9  34218  290.57 0854.27
2009/04/23 16:11:53.8     -71     -7     24     72     77 263.9  18.9  34204  290.33 0854.27
2009/04/23 16:11:53.9     -84    -36     -7     92     93 246.9  -4.6  34214  290.48 0854.27
2009/04/23 16:11:54.0     -87    -30     18     93     95 250.9  11.1  34226  290.70 0854.27
2009/04/23 16:11:54.1     -82     -3     32     83     88 267.4  21.5  34214  290.50 0854.27
2009/04/23 16:11:54.2     -82    -17     31     84     89 258.1  20.4  34172  289.79 0854.27
2009/04/23 16:11:54.3    -113     -6      5    114    115 266.5   2.9  34160  289.57 0854.27
2009/04/23 16:11:54.4    -100    -26     25    104    108 255.0  13.7  34154  289.48 0854.30
2009/04/23 16:11:54.5    -104    -21     37    107    114 258.5  19.4  34164  289.63 0854.30
2009/04/23 16:11:54.6    -117    -23     43    120    127 258.5  20.0  34182  289.96 0854.30
2009/04/23 16:11:54.7    -123    -24     51    126    135 258.6  23.0  34182  289.96 0854.30
2009/04/23 16:11:54.8    -131    -14     49    132    140 263.8  21.0  34200  290.26 0854.30
2009/04/23 16:11:54.9    -148     -2     52    149    157 269.1  20.0  34208  290.40 0854.30
2009/04/23 16:11:55.0    -140     14     38    141    147 276.1  15.3  34208  290.38 0854.30
2009/04/23 16:11:55.1    -128     24     48    131    139 280.6  20.9  34224  290.67 0854.30
2009/04/23 16:11:55.2    -147      6     56    148    158 272.6  21.7  34202  290.28 0854.30
2009/04/23 16:11:55.3    -162    -27     40    165    170 260.3  13.7  34184  289.99 0854.30
2009/04/23 16:11:55.4    -129    -72     18    148    150 240.7   7.1  34196  290.18 0854.30
2009/04/23 16:11:55.5    -146    -25     52    149    159 260.3  19.4  34182  289.94 0854.30
2009/04/23 16:11:55.6    -182     30    -45    185    191 279.5 -13.9  34144  289.31 0854.30
2009/04/23 16:11:55.7    -224    -43   -123    229    259 259.0 -35.0  34146  289.32 0854.30
2009/04/23 16:11:55.8    -251   -114    -76    276    287 245.6 -15.5  34148  289.36 0854.30
2009/04/23 16:11:55.9    -322     -9   -106    323    339 268.3 -23.5  34178  289.87 0854.30
2009/04/23 16:11:56.0    -161    -42    -65    167    179 255.2 -26.9  34168  289.72 0854.30
2009/04/23 16:11:56.1     -49    -10    -33     51     60 257.6 -40.0  34176  289.84 0854.30
2009/04/23 16:11:56.2      19      7      7     21     23  70.0  18.9  34182  289.94 0854.30
2009/04/23 16:11:56.3     -27     27     20     39     43 315.0  28.2  34182  289.96 0854.30
2009/04/23 16:11:56.4     -44     91     38    102    108 334.1  21.0  34192  290.13 0854.33
2009/04/23 16:11:56.5     -52    157     57    166    176 341.5  19.2  34180  289.91 0854.33
2009/04/23 16:11:56.6    -167    179     33    245    248 317.0   7.8  34176  289.83 0854.33
2009/04/23 16:11:56.7    -190    158     91    248    264 309.6  20.9  34182  289.93 0854.33
2009/04/23 16:11:56.8    -192    118    140    226    265 301.5  35.0  34190  290.07 0854.33
2009/04/23 16:11:56.9    -116    123    126    170    211 316.6  40.1  34204  290.31 0854.33
2009/04/23 16:11:57.0     -35    142    116    147    187 346.2  42.7  34208  290.40 0854.33
2009/04/23 16:11:57.1    -117     83     63    144    157 305.5  25.1  34196  290.19 0854.33
2009/04/23 16:11:57.2     -54     91     45    106    115 329.3  24.1  34196  290.19 0854.33
2009/04/23 16:11:57.3     -75     49     41     90     98 303.3  26.2  34194  290.16 0854.33
2009/04/23 16:11:57.4     -56     46     35     73     80 309.5  27.8  34190  290.09 0854.33
2009/04/23 16:11:57.5     -17     48     29     52     59 340.0  31.4  34194  290.16 0854.33
2009/04/23 16:11:57.6      16     42     21     45     49  20.9  27.2  34208  290.40 0854.33
2009/04/23 16:11:57.7      24     30     23     39     45  39.6  34.4  34210  290.43 0854.33
2009/04/23 16:11:57.8      38     12     18     40     43  72.3  25.1  34204  290.31 0854.33
2009/04/23 16:11:57.9      37     -2      1     38     39  94.4   2.9  34204  290.31 0854.33
2009/04/23 16:11:58.0      39    -13     -2     42     43 109.1  -3.1  34204  290.31 0854.33
2009/04/23 16:11:58.1      26    -31      5     41     42 139.5   6.9  34196  290.19 0854.33
2009/04/23 16:11:58.2      24    -36     18     44     47 145.7  23.0  34198  290.21 0854.33
2009/04/23 16:11:58.3     -15    -64     42     66     78 193.4  35.5  34200  290.25 0854.33
2009/04/23 16:11:58.4     -21    -47     50     52     72 204.5  50.0  34206  290.35 0854.35
2009/04/23 16:11:58.5      66     34     38     75     84  62.9  28.7  34256  291.20 0854.35
2009/04/23 16:11:58.6      68     48     94     84    126  54.9  53.3  34314  292.18 0854.35
2009/04/23 16:11:58.7      45     23     65     51     82  62.9  57.5  34324  292.35 0854.35
2009/04/23 16:11:58.8      25     28     24     38     44  41.4  35.5  34310  292.13 0854.35
2009/04/23 16:11:58.9    -110     48     36    121    127 293.6  16.8  34276  291.55 0854.35
2009/04/23 16:11:59.0     -38     70     18     80     83 331.5  12.6  34312  292.15 0854.35
2009/04/23 16:11:59.1     -98     59     40    115    122 301.1  19.2  34302  291.98 0854.35
2009/04/23 16:11:59.2     -92     27     74     96    121 286.4  41.7  34292  291.81 0854.35
2009/04/23 16:11:59.3     -53     86     78    102    128 328.4  41.6  34292  291.83 0854.35
2009/04/23 16:11:59.4      -8    135     48    136    145 356.4  19.4  34280  291.62 0854.35
2009/04/23 16:11:59.5     -26     69     31     74     80 339.1  24.1  34296  291.89 0854.35
2009/04/23 16:11:59.6     -67     17     43     70     82 284.2  34.4  34314  292.20 0854.35
2009/04/23 16:11:59.7       5     16     63     17     65  18.7  84.9  34332  292.51 0854.35
2009/04/23 16:11:59.8      36     23     77     43     88  57.6  68.8  34350  292.81 0854.35
2009/04/23 16:11:59.9       0     51     81     52     96   0.9  64.6  34332  292.51 0854.35
2009/04/23 16:12:00.0     -27     34     62     44     76 321.3  60.6  34344  292.71 0854.35
2009/04/23 16:12:00.1      59     56     65     82    104  46.9  42.7  34292  291.81 0854.35
2009/04/23 16:12:00.2      48     40     64     63     89  50.4  49.7  34276  291.54 0854.35
2009/04/23 16:12:00.3      12      8     68     15     69  57.6  89.0  34294  291.86 0854.35
2009/04/23 16:12:00.4     -23    -30     58     39     69 217.8  63.6  34342  292.66 0854.37
2009/04/23 16:12:00.5     -46     -3     39     47     61 265.6  43.8  34342  292.66 0854.37
2009/04/23 16:12:00.6       1      6     57      7     57  11.6  90.0  34350  292.81 0854.37
2009/04/23 16:12:00.7      11     27     44     30     53  21.8  62.6  34362  293.02 0854.37
2009/04/23 16:12:00.8      11     88     65     89    110   7.1  39.7  34372  293.19 0854.37
2009/04/23 16:12:00.9      17     48     61     52     80  20.0  55.4  34356  292.92 0854.37
2009/04/23 16:12:01.0     -37    -25      8     45     46 235.8  10.1  34346  292.75 0854.37
2009/04/23 16:12:01.1     -94     -1    -32     95    101 269.1 -19.1  34346  292.73 0854.37
2009/04/23 16:12:01.2    -127     55    -42    139    146 293.5 -17.0  34316  292.23 0854.37
2009/04/23 16:12:01.3    -115     72     -7    136    137 302.0  -3.1  34312  292.17 0854.37
2009/04/23 16:12:01.4    -136     82     32    159    163 301.1  11.6  34320  292.29 0854.37
2009/04/23 16:12:01.5    -132     80     69    155    169 301.1  25.9  34334  292.52 0854.37
2009/04/23 16:12:01.6    -113     71     82    134    157 302.4  34.4  34336  292.56 0854.37
2009/04/23 16:12:01.7     -78     66     81    103    131 310.0  42.7  34332  292.49 0854.37
2009/04/23 16:12:01.8     -43     91     94    101    137 334.6  47.9  34336  292.56 0854.37
2009/04/23 16:12:01.9     -23    112     57    115    128 348.4  28.2  34342  292.68 0854.37
2009/04/23 16:12:02.0      -7    116     61    117    131 356.4  29.3  34362  293.02 0854.37
2009/04/23 16:12:02.1     -10     85     85     86    120 352.9  50.0  34362  293.00 0854.37
2009/04/23 16:12:02.2     -48     46     97     67    117 314.0  62.1  34352  292.85 0854.37
2009/04/23 16:12:02.3     -55     37     83     67    106 304.2  56.4  34356  292.90 0854.37
2009/04/23 16:12:02.4     -15     31     96     35    102 332.8  79.7  34364  293.04 0854.39
2009/04/23 16:12:02.5     -86     13     92     88    127 278.8  51.2  34348  292.76 0854.39
2009/04/23 16:12:02.6     -87     48     72    100    123 299.3  39.5  34328  292.42 0854.39
2009/04/23 16:12:02.7    -110     52     42    122    130 295.4  18.9  34326  292.40 0854.39
2009/04/23 16:12:02.8    -153     50     94    162    187 288.2  32.9  34332  292.51 0854.39
2009/04/23 16:12:02.9    -152     26     -1    155    156 279.7  -0.5  34318  292.27 0854.39
2009/04/23 16:12:03.0    -110     63      1    127    128 299.8   0.8  34332  292.51 0854.39
2009/04/23 16:12:03.1     -90    -74     57    117    130 230.5  27.3  34340  292.63 0854.39
2009/04/23 16:12:03.2    -118     13     76    119    141 276.6  35.5  34324  292.37 0854.39
2009/04/23 16:12:03.3     -74    -13     74     76    106 259.4  50.0  34326  292.39 0854.39
2009/04/23 16:12:03.4     -45    -13    116     47    125 253.2  77.1  34336  292.56 0854.39
2009/04/23 16:12:03.5    -124     16     59    126    139 277.5  27.1  34268  291.40 0854.39
2009/04/23 16:12:03.6    -180    -30     47    183    190 260.5  14.5  34236  290.86 0854.39
2009/04/23 16:12:03.7    -185    -49    -38    192    196 255.2 -11.3  34246  291.03 0854.39
2009/04/23 16:12:03.8     -86    -32     97     92    133 249.2  51.2  34310  292.12 0854.39
2009/04/23 16:12:03.9     -80    -70    111    107    154 228.7  50.7  34306  292.05 0854.39
2009/04/23 16:12:04.0     -82    -61    122    103    159 233.1  55.6  34302  292.00 0854.39
2009/04/23 16:12:04.1     -33    -53    104     63    121 211.6  66.2  34310  292.12 0854.39
2009/04/23 16:12:04.2     -32    -68     81     76    111 205.5  52.1  34290  291.77 0854.39
2009/04/23 16:12:04.3     -14    -67     69     69     97 192.5  50.1  34310  292.12 0854.39
2009/04/23 16:12:04.4      25    -85     73     89    115 163.5  43.7  34360  292.98 0854.39
2009/04/23 16:12:04.5     121     -2     86    122    149  91.3  39.1  34358  292.95 0854.39
2009/04/23 16:12:04.6      99     39    115    107    157  68.2  52.2  34358  292.95 0854.39
2009/04/23 16:12:04.7     -10      0     68     11     68 270.0  90.0  34334  292.54 0854.39
2009/04/23 16:12:04.8      19     12     68     23     71  57.6  81.0  34312  292.17 0854.39
2009/04/23 16:12:04.9      -9    -63    112     64    128 188.9  67.7  34280  291.60 0854.39
2009/04/23 16:12:05.0      30    -91    167     97    193 161.5  67.0  34278  291.59 0854.39
2009/04/23 16:12:05.1       3      3     86      5     86  43.4  90.0  34306  292.06 0854.39
2009/04/23 16:12:05.2      16    -40    120     44    127 158.2  79.2  34320  292.29 0854.39
2009/04/23 16:12:05.3      10     44    114     46    122  13.4  77.1  34314  292.18 0854.39
2009/04/23 16:12:05.4      88    -13    138     90    164  98.8  64.1  34320  292.29 0854.39
2009/04/23 16:12:05.5      51    -24     84     57    101 115.2  62.6  34310  292.13 0854.39
2009/04/23 16:12:05.6     -32    -84    107     91    140 200.9  55.4  34310  292.13 0854.39
2009/04/23 16:12:05.7     -11    -96    131     97    163 187.1  60.0  34304  292.03 0854.39
2009/04/23 16:12:05.8     -17   -140    150    142    206 187.1  52.0  34274  291.52 0854.39
2009/04/23 16:12:05.9      16   -114    139    116    181 172.0  56.1  34268  291.40 0854.39
2009/04/23 16:12:06.0     -27    -39    106     48    116 214.3  73.5  34294  291.84 0854.39
2009/04/23 16:12:06.1       5    -91    128     92    157 176.4  60.8  34274  291.50 0854.39
2009/04/23 16:12:06.2      35   -151    136    156    206 166.7  45.8  34262  291.30 0854.39
2009/04/23 16:12:06.3      69   -171    162    185    245 158.1  45.8  34256  291.20 0854.39
2009/04/23 16:12:06.4      56   -101    144    116    184 150.6  56.9  34276  291.55 0854.41
2009/04/23 16:12:06.5      19   -283    141    284    317 176.0  28.4  34290  291.77 0854.41
2009/04/23 16:12:06.6      64   -189    164    200    258 161.3  43.7  34304  292.02 0854.41
2009/04/23 16:12:06.7       7    -92    181     93    203 175.5  70.8  34320  292.29 0854.41
2009/04/23 16:12:06.8      13   -122    141    123    187 173.8  54.6  34316  292.22 0854.41
2009/04/23 16:12:06.9      -7   -200    184    201    272 182.2  47.5  34282  291.63 0854.41
2009/04/23 16:12:07.0     -47   -211    146    217    261 192.7  37.0  34262  291.31 0854.41
2009/04/23 16:12:07.1     -71   -306    164    315    355 193.1  29.6  34276  291.54 0854.41
2009/04/23 16:12:07.2    -129   -326    191    351    399 201.6  31.0  34292  291.83 0854.41
2009/04/23 16:12:07.3     -81   -244    208    258    331 198.5  43.1  34310  292.13 0854.41
2009/04/23 16:12:07.4     -41   -155    162    161    228 195.1  50.1  34336  292.56 0854.45
2009/04/23 16:12:07.5     -11   -152    122    153    195 184.5  42.7  34358  292.93 0854.45
2009/04/23 16:12:07.6      38   -187    104    191    217 168.5  31.3  34356  292.90 0854.45
2009/04/23 16:12:07.7      52    -19    122     56    134 110.8  73.1  34346  292.73 0854.45
2009/04/23 16:12:07.8     114     -4     89    115    145  92.1  41.7  34362  293.02 0854.45
2009/04/23 16:12:07.9     206     48     72    212    225  76.8  18.9  34358  292.93 0854.45
2009/04/23 16:12:08.0     148    -30     52    151    160 101.5  19.2  34354  292.88 0854.45
2009/04/23 16:12:08.1     -13   -123     82    124    148 186.2  36.5  34354  292.86 0854.45
2009/04/23 16:12:08.2     134   -104     80    170    187 127.8  27.1  34344  292.69 0854.45
2009/04/23 16:12:08.3      93   -106     54    142    151 138.6  21.5  34342  292.68 0854.45
2009/04/23 16:12:08.4     242    -65     74    251    262 105.1  16.6  34326  292.40 0854.45
2009/04/23 16:12:08.5     274     59    -61    281    288  77.7 -12.4  34342  292.67 0854.45
2009/04/23 16:12:08.6     181      4    -28    182    185  88.7  -9.0  34350  292.80 0854.45
2009/04/23 16:12:08.7     129    -55     72    141    158 113.1  29.3  34338  292.59 0854.45
2009/04/23 16:12:08.8     101    -34    102    107    147 108.6  48.5  34334  292.52 0854.45
2009/04/23 16:12:08.9      42    -74    110     86    139 150.6  58.4  34344  292.71 0854.45
2009/04/23 16:12:09.0     122    -24    164    125    206 101.5  58.7  34350  292.81 0854.45
2009/04/23 16:12:09.1     208    -33     51    211    218  99.2  13.7  34360  292.98 0854.45
2009/04/23 16:12:09.2     320     20     86    321    333  86.4  15.0  34376  293.26 0854.45
2009/04/23 16:12:09.3     345    150    250    377    452  66.5  36.6  34358  292.95 0854.45
2009/04/23 16:12:09.4     371    118    222    390    448  72.3  32.3  34364  293.05 0854.46
2009/04/23 16:12:09.5     328     77    233    337    409  76.7  38.0  34378  293.28 0854.46
2009/04/23 16:12:09.6     339    150    253    371    449  66.1  37.6  34350  292.81 0854.46
2009/04/23 16:12:09.7     255    204    180    327    373  51.4  31.3  34314  292.20 0854.46
2009/04/23 16:12:09.8     224    197    177    299    347  48.7  33.5  34328  292.42 0854.46
2009/04/23 16:12:09.9     290    148    139    326    354  62.9  24.6  34308  292.07 0854.46
2009/04/23 16:12:10.0     312    168    114    355    373  61.7  17.8  34294  291.86 0854.46
2009/04/23 16:12:10.1     280    143    181    315    363  62.9  32.6  34302  291.97 0854.46
2009/04/23 16:12:10.2     378    102    144    392    417  74.9  21.0  34268  291.40 0854.46
2009/04/23 16:12:10.3     303    181    174    354    394  59.1  28.2  34280  291.62 0854.46
2009/04/23 16:12:10.4     296    155    217    335    399  62.3  36.0  34282  291.66 0854.46
2009/04/23 16:12:10.5     202    157    188    257    318  52.2  39.9  34278  291.56 0854.46
2009/04/23 16:12:10.6     143     83    171    166    238  60.0  50.9  34300  291.95 0854.46
2009/04/23 16:12:10.7     255     61    131    263    293  76.5  28.2  34280  291.61 0854.46
2009/04/23 16:12:10.8     230     75    164    243    293  71.8  37.4  34284  291.67 0854.46
2009/04/23 16:12:10.9     228     90    266    246    362  68.3  52.5  34300  291.96 0854.46
2009/04/23 16:12:11.0     156    189    110    246    269  39.6  25.9  34312  292.14 0854.46
2009/04/23 16:12:11.1     -71     35      5     80     81 296.2   3.8  34334  292.52 0854.46
2009/04/23 16:12:11.2    -168   -122     56    208    216 234.0  15.3  34308  292.10 0854.46
2009/04/23 16:12:11.3     -98   -145    118    176    211 214.1  37.0  34312  292.15 0854.46
2009/04/23 16:12:11.4     -39   -282    208    285    352 188.0  39.8  34222  290.62 0854.44
2009/04/23 16:12:11.5    -168   -211    106    270    290 218.5  22.8  34252  291.14 0854.44
2009/04/23 16:12:11.6    -105   -188     65    216    226 209.2  16.8  34234  290.82 0854.44
2009/04/23 16:12:11.7    -163   -123     10    205    206 232.9   2.8  34230  290.77 0854.44
2009/04/23 16:12:11.8     -95    -92    -14    133    134 226.0  -6.2  34236  290.86 0854.44
2009/04/23 16:12:11.9       1   -116    -23    117    120 179.1 -11.3  34212  290.47 0854.44
2009/04/23 16:12:12.0      44   -133     -5    141    142 161.5  -2.2  34208  290.38 0854.44
2009/04/23 16:12:12.1      74   -155    -41    172    177 154.4 -13.7  34218  290.57 0854.44
2009/04/23 16:12:12.2     121   -125    -16    175    176 135.9  -5.4  34214  290.50 0854.44
2009/04/23 16:12:12.3      80   -125    -45    149    156 147.5 -16.8  34214  290.48 0854.44
2009/04/23 16:12:12.4       0   -110    -30    111    116 180.4 -15.4  34218  290.57 0854.44
2009/04/23 16:12:12.5      -6    -96    -27     97    101 184.0 -15.5  34222  290.62 0854.44
2009/04/23 16:12:12.6       5   -120    -27    121    125 177.3 -12.9  34218  290.57 0854.44
2009/04/23 16:12:12.7      18    -92     61     94    112 168.9  35.6  34214  290.48 0854.44
2009/04/23 16:12:12.8      26   -229    151    231    275 173.3  36.5  34238  290.88 0854.44
2009/04/23 16:12:12.9      14   -236    110    237    261 176.4  26.6  34236  290.85 0854.44
2009/04/23 16:12:13.0     -75   -331     17    340    341 192.8   2.9  34218  290.57 0854.44
2009/04/23 16:12:13.1    -173   -309     27    355    356 209.3   4.4  34224  290.66 0854.44
2009/04/23 16:12:13.2    -284   -294   -118    409    425 224.0 -20.9  34216  290.51 0854.44
2009/04/23 16:12:13.3    -457   -252   -186    522    554 241.1 -24.8  34158  289.53 0854.44
2009/04/23 16:12:13.4    -301   -377    -61    483    487 218.6  -7.2  34202  290.29 0854.43
2009/04/23 16:12:13.5     -44   -371     73    374    382 186.8  11.1  34216  290.52 0854.43
2009/04/23 16:12:13.6    -118   -480     50    495    498 193.9   5.8  34218  290.57 0854.43
2009/04/23 16:12:13.7     -90   -451     60    460    464 191.4   7.5  34216  290.51 0854.43
2009/04/23 16:12:13.8     -52   -465     78    468    475 186.5   9.5  34214  290.49 0854.43
2009/04/23 16:12:13.9     -89   -357     48    368    372 194.1   7.5  34208  290.38 0854.43
2009/04/23 16:12:14.0     -39   -283     29    286    288 188.0   5.9  34208  290.37 0854.43
2009/04/23 16:12:14.1     -95   -367     39    380    383 194.5   6.0  34206  290.35 0854.43
2009/04/23 16:12:14.2    -114   -382     55    399    403 196.6   7.9  34212  290.47 0854.43
2009/04/23 16:12:14.4     -56   -436    170    440    471 187.4  22.3  34212  290.44 0854.43
2009/04/23 16:12:14.4     -63   -447    163    452    480 188.1  20.7  34216  290.51 0854.43
2009/04/23 16:12:14.6    -227   -333    -45    404    407 214.3  -6.5  34224  290.67 0854.43
2009/04/23 16:12:14.7    -227   -396     -9    457    458 209.9  -1.2  34220  290.60 0854.43
2009/04/23 16:12:14.7    -180   -421     23    459    460 203.2   2.9  34220  290.60 0854.43
2009/04/23 16:12:14.9    -128   -429     70    448    454 196.6   8.9  34218  290.55 0854.43
2009/04/23 16:12:15.0      -1   -445    -17    446    447 180.2  -2.2  34212  290.46 0854.43
2009/04/23 16:12:15.1      72   -439    107    445    458 170.7  13.5  34184  289.99 0854.43
2009/04/23 16:12:15.2    -173   -525    150    553    574 198.3  15.2  34172  289.77 0854.43
2009/04/23 16:12:15.3    -246   -505     74    562    567 206.0   7.6  34178  289.87 0854.43
2009/04/23 16:12:15.4    -233   -468    211    523    563 206.5  23.1  34166  289.68 0854.43
2009/04/23 16:12:15.5    -119   -387    141    406    429 197.2  20.0  34154  289.48 0854.42
2009/04/23 16:12:15.6    -113   -399     76    415    422 195.9  10.4  34156  289.51 0854.42
2009/04/23 16:12:15.7    -218   -319    -21    387    388 214.4  -3.1  34150  289.40 0854.42
2009/04/23 16:12:15.8     -74   -316    -23    325    326 193.3  -4.1  34164  289.63 0854.42
2009/04/23 16:12:15.9      74   -293     -1    303    304 165.8  -0.3  34156  289.51 0854.42
2009/04/23 16:12:16.0     -63   -212     14    222    223 196.5   3.8  34162  289.62 0854.42
2009/04/23 16:12:16.1    -224    -86    -99    241    260 248.9 -28.0  34160  289.58 0854.42
2009/04/23 16:12:16.2    -228    -73    -72    240    251 252.1 -16.8  34144  289.29 0854.42
2009/04/23 16:12:16.3    -214   -111    -37    242    245 242.5  -8.8  34146  289.32 0854.42
2009/04/23 16:12:16.4    -257    -74     52    268    273 254.0  11.0  34146  289.32 0854.42
2009/04/23 16:12:16.5    -442   -225    135    497    516 243.0  15.2  34162  289.62 0854.42
2009/04/23 16:12:16.6    -399   -339    272    524    590 229.6  29.5  34156  289.52 0854.42
2009/04/23 16:12:16.7    -193   -182     33    266    269 226.8   7.1  34148  289.37 0854.42
2009/04/23 16:12:16.8    -176   -420    162    456    483 202.7  20.4  34182  289.96 0854.42
2009/04/23 16:12:16.9    -152   -399     49    428    431 200.9   6.6  34178  289.87 0854.42
2009/04/23 16:12:17.0    -311   -261     79    407    415 230.0  11.0  34186  290.02 0854.42
2009/04/23 16:12:17.1    -331   -331     43    469    472 225.0   5.3  34188  290.03 0854.42
2009/04/23 16:12:17.2    -386   -499      9    631    632 217.7   0.9  34170  289.74 0854.42
2009/04/23 16:12:17.3    -375   -405      8    552    553 222.8   0.9  34174  289.82 0854.42
2009/04/23 16:12:17.4    -291   -280     -8    404    405 226.1  -1.2  34160  289.56 0854.42
2009/04/23 16:12:17.5     -63   -185    -35    196    200 198.9 -10.3  34150  289.40 0854.42
2009/04/23 16:12:17.6     -16   -242    106    243    265 183.8  25.1  34152  289.44 0854.42
2009/04/23 16:12:17.7    -126   -375    161    396    427 198.6  23.2  34142  289.26 0854.42
2009/04/23 16:12:17.8    -214   -382    166    438    468 209.3  21.7  34140  289.24 0854.42
2009/04/23 16:12:17.9    -160   -372    231    406    467 203.3  32.1  34146  289.34 0854.42
2009/04/23 16:12:18.0    -265   -292    115    395    412 222.2  16.3  34176  289.85 0854.42
2009/04/23 16:12:18.1      50   -480    132    483    501 174.0  15.3  34134  289.12 0854.42
2009/04/23 16:12:18.2      16   -677     41    678    680 178.6   3.5  34136  289.16 0854.42
2009/04/23 16:12:18.3     113   -660    196    670    699 170.2  16.3  34120  288.90 0854.42
2009/04/23 16:12:18.4       4   -523    189    524    557 179.5  20.6  34128  289.02 0854.42
2009/04/23 16:12:18.5    -202   -574    167    609    632 199.4  15.4  34138  289.21 0854.42
2009/04/23 16:12:18.6    -199   -514    260    552    610 201.2  27.1  34116  288.81 0854.42
2009/04/23 16:12:18.7      44   -343    151    346    377 172.7  25.1  34132  289.10 0854.42
2009/04/23 16:12:18.8     -41   -261     81    265    278 189.1  17.1  34134  289.14 0854.42
2009/04/23 16:12:18.9     152   -242     89    286    300 147.9  17.3  34150  289.39 0854.42
2009/04/23 16:12:19.0     137   -230    117    268    292 149.2  25.1  34148  289.36 0854.42
2009/04/23 16:12:19.1     171   -268     85    319    331 147.4  14.9  34142  289.25 0854.42
2009/04/23 16:12:19.2     -38   -103     21    111    114 200.5  11.1  34132  289.11 0854.42
2009/04/23 16:12:19.3      71    -16     68     73     99 103.3  48.0  34136  289.16 0854.42
2009/04/23 16:12:19.4     -21   -156     98    158    185 188.0  35.2  34138  289.19 0854.40
2009/04/23 16:12:19.5      60   -222    175    231    289 164.9  41.2  34132  289.10 0854.40
2009/04/23 16:12:19.6     -10   -231    245    232    337 182.7  51.9  34142  289.25 0854.40
2009/04/23 16:12:19.7    -155   -305    212    343    403 207.0  34.6  34126  288.99 0854.40
2009/04/23 16:12:19.8     -84   -415    171    424    457 191.6  23.1  34132  289.11 0854.40
2009/04/23 16:12:19.9    -138   -377    120    402    420 200.2  16.7  34130  289.07 0854.40
2009/04/23 16:12:20.0    -318   -580     34    662    663 208.8   3.0  34142  289.27 0854.40
2009/04/23 16:12:20.1    -378   -430    -12    573    574 221.3  -1.3  34132  289.10 0854.40
2009/04/23 16:12:20.2    -241   -393    186    461    497 211.5  23.1  34122  288.93 0854.40
2009/04/23 16:12:20.3    -199   -364    216    416    468 208.7  29.6  34138  289.21 0854.40
2009/04/23 16:12:20.4    -282   -628     73    689    693 204.2   6.1  34130  289.05 0854.40
2009/04/23 16:12:20.5    -363   -517    -30    633    634 215.1  -2.8  34132  289.09 0854.40
2009/04/23 16:12:20.6    -100   -428    267    440    514 193.2  34.0  34126  288.98 0854.40
2009/04/23 16:12:20.7    -305   -347     84    463    471 221.3  10.3  34130  289.06 0854.40
2009/04/23 16:12:20.8    -178   -506    -20    537    538 199.4  -2.2  34124  288.96 0854.40
2009/04/23 16:12:20.9     -43   -712    -59    714    717 183.5  -4.8  34132  289.10 0854.40
2009/04/23 16:12:21.0     -80   -736    -95    741    748 186.2  -7.4  34130  289.06 0854.40
2009/04/23 16:12:21.1     -22   -635    110    636    646 182.0   9.9  34130  289.08 0854.40
2009/04/23 16:12:21.2    -309   -455    110    551    562 214.2  11.3  34138  289.19 0854.40
2009/04/23 16:12:21.3    -442   -320    -17    546    547 234.1  -1.8  34124  288.97 0854.40
2009/04/23 16:12:21.4    -383   -634     20    741    742 211.1   1.6  34100  288.55 0854.40
2009/04/23 16:12:21.5    -390   -645    206    754    782 211.2  15.3  34128  289.02 0854.40
2009/04/23 16:12:21.6    -294   -650     64    714    717 204.3   5.2  34124  288.96 0854.40
2009/04/23 16:12:21.7    -320   -684      9    756    757 205.1   0.7  34118  288.87 0854.40
2009/04/23 16:12:21.8    -267   -605    231    662    702 203.9  19.3  34118  288.85 0854.40
2009/04/23 16:12:21.9    -272   -795    138    841    853 198.9   9.3  34120  288.90 0854.40
2009/04/23 16:12:22.0    -458   -697    129    835    845 213.3   8.8  34098  288.51 0854.40
2009/04/23 16:12:22.1    -376   -598    242    707    748 212.1  18.9  34106  288.65 0854.40
2009/04/23 16:12:22.2    -359   -584    273    686    738 211.6  23.0  34130  289.05 0854.40
2009/04/23 16:12:22.3    -491   -477    215    685    719 225.8  17.4  34116  288.83 0854.40
2009/04/23 16:12:22.4    -372   -448    275    583    644 219.7  27.1  34110  288.74 0854.40
2009/04/23 16:12:22.5    -250   -536    314    592    670 205.0  30.2  34126  289.01 0854.40
2009/04/23 16:12:22.6    -308   -474    224    566    608 213.0  23.0  34124  288.97 0854.40
2009/04/23 16:12:22.7    -229   -348    183    417    455 213.4  25.2  34124  288.97 0854.40
2009/04/23 16:12:22.8    -161   -516    175    541    569 197.4  17.9  34126  288.99 0854.40
2009/04/23 16:12:22.9    -283   -436   -149    520    542 213.0 -16.0  34116  288.82 0854.40
2009/04/23 16:12:23.0    -493   -121    -52    508    511 256.2  -5.9  34134  289.13 0854.40
2009/04/23 16:12:23.1    -418   -294    -79    512    519 234.9  -8.8  34126  289.00 0854.40
2009/04/23 16:12:23.2    -363   -275   -122    456    473 232.8 -15.0  34116  288.83 0854.40
2009/04/23 16:12:23.3    -159   -255     -5    301    302 211.9  -1.1  34124  288.97 0854.40
2009/04/23 16:12:23.4    -147   -395    -78    422    430 200.4 -10.5  34122  288.94 0854.39
2009/04/23 16:12:23.5    -211   -407   -127    459    477 207.4 -15.5  34116  288.83 0854.39
2009/04/23 16:12:23.6    -322   -218   -115    389    406 235.9 -16.5  34114  288.79 0854.39
2009/04/23 16:12:23.7    -271   -219   -110    349    366 231.1 -17.5  34118  288.86 0854.39
2009/04/23 16:12:23.8    -351   -130    112    375    392 249.7  16.6  34118  288.86 0854.39
2009/04/23 16:12:23.9    -377    -53    169    381    416 262.0  25.3  34136  289.16 0854.39
2009/04/23 16:12:24.0    -429   -137     25    451    452 252.2   3.2  34142  289.27 0854.39
2009/04/23 16:12:24.1       0   -214   -147    215    260 180.2 -42.0  34124  288.97 0854.39
2009/04/23 16:12:24.2       6   -258    -46    259    264 178.6 -10.1  34126  289.00 0854.39
2009/04/23 16:12:24.3       0   -193    -32    194    197 180.2  -9.4  34130  289.06 0854.39
2009/04/23 16:12:24.4      43   -264    -19    268    269 170.7  -4.1  34138  289.19 0854.39
2009/04/23 16:12:24.5       3   -165     53    166    175 178.9  17.9  34138  289.19 0854.39
2009/04/23 16:12:24.6     -34    -84    151     91    176 202.3  66.2  34160  289.58 0854.39
2009/04/23 16:12:24.7      26    -59     93     65    113 156.4  62.1  34176  289.85 0854.39
2009/04/23 16:12:24.8     -41   -104     82    113    139 201.8  39.7  34174  289.80 0854.39
2009/04/23 16:12:24.9     -17   -200     74    201    214 184.9  20.9  34152  289.43 0854.39
2009/04/23 16:12:25.0       2   -511    160    512    537 179.7  17.4  34130  289.07 0854.39
2009/04/23 16:12:25.1    -261   -373     -9    456    457 215.0  -1.2  34134  289.12 0854.39
2009/04/23 16:12:25.2     -60   -525     75    529    535 186.6   8.1  34150  289.40 0854.39
2009/04/23 16:12:25.3     -46   -611    168    613    636 184.4  15.4  34152  289.42 0854.39
2009/04/23 16:12:25.4       1   -588     92    589    597 179.9   8.9  34166  289.68 0854.37
2009/04/23 16:12:25.5     105   -476     -1    488    489 167.5  -0.2  34162  289.61 0854.37
2009/04/23 16:12:25.6     155   -368     99    400    413 157.1  13.9  34156  289.49 0854.37
2009/04/23 16:12:25.7     248   -305    112    394    410 140.9  15.9  34150  289.41 0854.37
2009/04/23 16:12:25.8     182   -424    261    462    530 156.8  31.9  34164  289.64 0854.37
2009/04/23 16:12:25.9     210   -490    171    534    561 156.8  17.8  34152  289.43 0854.37
2009/04/23 16:12:26.0     239   -404    206    470    513 149.4  25.2  34146  289.34 0854.37
2009/04/23 16:12:26.1     111   -298    196    319    374 159.5  34.4  34158  289.54 0854.37
2009/04/23 16:12:26.2      55   -396    176    401    437 172.0  25.2  34146  289.34 0854.37
2009/04/23 16:12:26.3      90   -440    225    450    503 168.3  28.5  34150  289.39 0854.37
2009/04/23 16:12:26.4      48   -341    168    345    383 172.0  27.7  34152  289.42 0854.37
2009/04/23 16:12:26.5      37   -216    198    220    295 170.2  46.9  34156  289.49 0854.37
2009/04/23 16:12:26.6      18   -275    230    276    359 176.2  44.1  34168  289.71 0854.37
2009/04/23 16:12:26.7      28   -227    206    229    308 172.9  46.9  34180  289.90 0854.37
2009/04/23 16:12:26.8      12   -127    191    128    229 174.2  63.2  34186  290.01 0854.37
2009/04/23 16:12:26.9     107   -141    109    178    208 142.8  34.4  34180  289.91 0854.37
2009/04/23 16:12:27.0     152    -11     37    153    158  94.3  13.7  34180  289.91 0854.37
2009/04/23 16:12:27.1      85    144     37    168    173  30.5  12.4  34192  290.11 0854.37
2009/04/23 16:12:27.2      43    128     66    136    151  18.7  27.3  34192  290.11 0854.37
2009/04/23 16:12:27.3      22     77     33     81     87  16.0  23.0  34192  290.13 0854.37
2009/04/23 16:12:27.4       0     15     16     16     22 357.3  50.1  34202  290.30 0854.37
2009/04/23 16:12:27.5     -27    -71    107     77    131 200.9  60.5  34194  290.14 0854.37
2009/04/23 16:12:27.6     -90   -102     76    137    156 221.4  31.6  34180  289.92 0854.37
2009/04/23 16:12:27.7    -137    -63    -47    151    159 245.2 -17.3  34184  289.97 0854.37
2009/04/23 16:12:27.8     -62      0   -125     63    139 270.9 -75.4  34190  290.08 0854.37
2009/04/23 16:12:27.9    -163     30     -6    166    167 280.6  -2.2  34154  289.48 0854.37
2009/04/23 16:12:28.0    -199     81    -77    215    228 292.2 -24.8  34134  289.14 0854.37
2009/04/23 16:12:28.1     -31    152   -112    156    192 348.4 -43.7  34134  289.14 0854.37
2009/04/23 16:12:28.2      31     31     -4     44     45  45.0  -5.2  34122  288.94 0854.37
2009/04/23 16:12:28.3     237     34     31    240    243  81.6   7.5  34118  288.87 0854.37
2009/04/23 16:12:28.4     113    148     66    187    199  37.4  19.6  34126  288.99 0854.38
2009/04/23 16:12:28.5     -31     84    230     90    246 339.5  77.6  34146  289.33 0854.38
2009/04/23 16:12:28.6     128     38    238    134    273  73.2  68.3  34146  289.34 0854.38
2009/04/23 16:12:28.7      25    168    106    170    200   8.7  35.0  34152  289.45 0854.38
2009/04/23 16:12:28.8     -25    242    103    244    264 354.0  24.2  34166  289.66 0854.38
2009/04/23 16:12:28.9      33    376      3    378    379   5.1   0.5  34154  289.48 0854.38
2009/04/23 16:12:29.0     -20    274     92    275    291 355.8  18.5  34178  289.88 0854.38
2009/04/23 16:12:29.1     -98    204     92    227    244 334.4  23.4  34160  289.58 0854.38
2009/04/23 16:12:29.2       0     73    118     74    139   0.0  64.7  34168  289.72 0854.38
2009/04/23 16:12:29.3      76    185    160    201    256  22.3  42.7  34142  289.27 0854.38
2009/04/23 16:12:29.4     220    100    306    242    390  65.4  57.8  34156  289.52 0854.38
2009/04/23 16:12:29.5     185    143    113    235    260  52.3  27.3  34138  289.19 0854.38
2009/04/23 16:12:29.6       3    221    -14    222    223   0.9  -3.7  34138  289.19 0854.38
2009/04/23 16:12:29.7     -18    238     -1    239    240 355.5  -0.3  34136  289.17 0854.38
2009/04/23 16:12:29.8     104    263     17    283    284  21.6   3.6  34128  289.03 0854.38
2009/04/23 16:12:29.9      91    171     83    194    211  28.1  24.6  34144  289.31 0854.38
2009/04/23 16:12:30.0     111    106    213    154    262  46.4  60.6  34148  289.37 0854.38
2009/04/23 16:12:30.1     101    229    -31    251    254  23.8  -7.2  34148  289.36 0854.38
2009/04/23 16:12:30.2     477    144    422    499    653  73.2  44.5  34136  289.17 0854.38
2009/04/23 16:12:30.3     432     24     13    433    434  86.8   1.8  34148  289.36 0854.38
2009/04/23 16:12:30.4     453     19      7    454    455  87.5   1.0  34140  289.22 0854.41
2009/04/23 16:12:30.5     486    102     -2    497    498  78.1  -0.3  34120  288.91 0854.41
2009/04/23 16:12:30.6     627     84     49    633    636  82.3   4.5  34130  289.06 0854.41
2009/04/23 16:12:30.7     555    159    316    578    658  74.0  31.0  34132  289.11 0854.41
2009/04/23 16:12:30.8     475      0    220    476    524  90.0  26.6  34126  289.01 0854.41
2009/04/23 16:12:30.9     443   -114    183    458    493 104.5  23.0  34126  288.98 0854.41
2009/04/23 16:12:31.0     505    141    280    525    595  74.4  30.3  34154  289.47 0854.41
2009/04/23 16:12:31.1     505    152    414    528    670  73.2  42.0  34140  289.23 0854.41
2009/04/23 16:12:31.2     363      7    316    364    482  88.8  45.4  34138  289.19 0854.41
2009/04/23 16:12:31.3     275    151    248    314    400  61.2  42.4  34136  289.16 0854.41
2009/04/23 16:12:31.4     264     78    301    276    408  73.4  52.9  34134  289.13 0854.41
2009/04/23 16:12:31.5     355    -49    346    359    498  97.9  49.0  34198  290.21 0854.41
2009/04/23 16:12:31.6     335     45    363    339    496  82.3  52.2  34164  289.65 0854.41
2009/04/23 16:12:31.7     277     26    232    279    362  84.5  43.8  34152  289.45 0854.41
2009/04/23 16:12:31.8     384     90    332    395    515  76.8  44.3  34152  289.45 0854.41
2009/04/23 16:12:31.9     374     63    373    380    532  80.4  49.4  34186  290.00 0854.41
2009/04/23 16:12:32.0     273     71    318    283    425  75.4  53.9  34202  290.30 0854.41
2009/04/23 16:12:32.1     221     13    233    222    321  86.5  51.5  34222  290.61 0854.41
2009/04/23 16:12:32.2     295    104    280    314    420  70.5  46.4  34204  290.33 0854.41
2009/04/23 16:12:32.3      34    101    263    107    283  18.7  77.0  34226  290.70 0854.41
2009/04/23 16:12:32.4     -70      8    245     71    255 277.0  83.8  34212  290.47 0854.45
2009/04/23 16:12:32.5     -17     36    213     40    216 334.5  90.0  34184  289.99 0854.45
2009/04/23 16:12:32.6      41    128    169    135    216  17.8  57.1  34188  290.06 0854.45
2009/04/23 16:12:32.7    -159    -71     58    175    185 246.0  18.6  34186  290.02 0854.45
2009/04/23 16:12:32.8      29     32    162     44    167  42.3  84.6  34186  290.01 0854.45
2009/04/23 16:12:32.9     180    120     59    217    225  56.3  15.3  34182  289.96 0854.45
2009/04/23 16:12:33.0     231    273    130    358    380  40.2  20.8  34222  290.64 0854.45
2009/04/23 16:12:33.1      73    335     94    344    357  12.4  15.4  34222  290.62 0854.45
2009/04/23 16:12:33.2       0    187    -61    188    197   0.0 -23.0  34186  290.02 0854.45
2009/04/23 16:12:33.3      -5    -25    -46     26     52 191.6 -72.1  34182  289.96 0854.45
2009/04/23 16:12:33.4      41    -84     77     94    121 154.1  43.7  34178  289.87 0854.45
2009/04/23 16:12:33.5      60    -48    104     77    129 128.6  60.0  34170  289.74 0854.45
2009/04/23 16:12:33.6      98      7    189     99    213  85.6  70.4  34180  289.91 0854.45
2009/04/23 16:12:33.7      48     48    184     69    196  45.1  78.6  34176  289.84 0854.45
2009/04/23 16:12:33.8     -96      7    100     97    139 274.4  50.7  34190  290.09 0854.45
2009/04/23 16:12:33.9    -137     49     21    146    148 289.9   8.5  34184  289.99 0854.45
2009/04/23 16:12:34.0    -144     65     12    159    160 294.4   4.4  34190  290.09 0854.45
2009/04/23 16:12:34.1     -91     31    -37     97    103 289.1 -25.9  34198  290.23 0854.45
2009/04/23 16:12:34.2     -72     19      0     75     76 285.1  -0.3  34200  290.25 0854.45
2009/04/23 16:12:34.3    -285     -4     14    286    287 269.0   2.9  34176  289.85 0854.45
2009/04/23 16:12:34.4    -225      5     11    226    227 271.5   2.8  34192  290.11 0854.43
2009/04/23 16:12:34.5    -162     27     30    165    168 279.7  10.6  34188  290.04 0854.43
2009/04/23 16:12:34.6    -108      7     79    109    134 273.9  39.7  34192  290.13 0854.43
2009/04/23 16:12:34.7     -57     -7     62     58     84 262.1  51.6  34198  290.21 0854.43
2009/04/23 16:12:34.8     -44    -72     61     85    104 211.6  39.5  34188  290.04 0854.43
2009/04/23 16:12:34.9    -105   -109     65    152    165 223.7  24.3  34190  290.08 0854.43
2009/04/23 16:12:35.0     -38   -147    141    152    207 194.7  47.9  34206  290.35 0854.43
2009/04/23 16:12:35.1     -44   -202    141    207    250 192.5  37.4  34180  289.90 0854.43
2009/04/23 16:12:35.2      46   -190    146    196    244 166.4  40.7  34184  289.99 0854.43
2009/04/23 16:12:35.3      49    -38    116     63    132 127.8  69.3  34204  290.31 0854.43
2009/04/23 16:12:35.4       1    -10    123     11    123 172.0  90.0  34200  290.26 0854.43
2009/04/23 16:12:35.5      -5    -56    166     57    175 185.3  81.2  34208  290.40 0854.43
2009/04/23 16:12:35.6      40    -49    214     64    223 140.4  82.8  34196  290.19 0854.43
2009/04/23 16:12:35.7     -82   -244    240    258    352 198.7  47.9  34162  289.59 0854.43
2009/04/23 16:12:35.8      -4   -163    335    164    372 181.6  72.2  34182  289.93 0854.43
2009/04/23 16:12:35.9     -49   -265    387    270    471 190.5  61.7  34166  289.66 0854.43
2009/04/23 16:12:36.0    -245   -386    263    458    528 212.4  32.4  34156  289.52 0854.43
2009/04/23 16:12:36.1    -377   -547    270    665    717 214.6  23.4  34172  289.76 0854.43
2009/04/23 16:12:36.2    -326   -535    208    627    661 211.4  18.4  34158  289.53 0854.43
2009/04/23 16:12:36.3     -79   -510    333    516    614 188.8  35.6  34196  290.17 0854.43
2009/04/23 16:12:36.4    -204   -415    372    463    593 206.2  42.8  34200  290.24 0854.39
2009/04/23 16:12:36.5    -138   -429    409    451    608 197.9  46.9  34188  290.04 0854.39
2009/04/23 16:12:36.6       6   -423    372    424    564 179.2  45.8  34156  289.51 0854.39
2009/04/23 16:12:36.7      67   -374    316    381    494 169.8  43.8  34174  289.80 0854.39
2009/04/23 16:12:36.8     149   -100    291    180    342 124.0  65.3  34200  290.26 0854.39
2009/04/23 16:12:36.9     158   -285    226    327    397 151.0  38.0  34130  289.06 0854.39
2009/04/23 16:12:37.0      42    128    111    135    174  18.3  43.7  34188  290.04 0854.39
2009/04/23 16:12:37.1     524     39    141    526    545  85.7  15.0  34182  289.96 0854.39
2009/04/23 16:12:37.2     660    329     54    738    740  63.5   4.2  34194  290.14 0854.39
2009/04/23 16:12:37.3     759    183     -5    781    782  76.4  -0.4  34222  290.64 0854.39
2009/04/23 16:12:37.4     709    -61    136    712    725  95.0  10.8  34232  290.78 0854.39
2009/04/23 16:12:37.5     672   -101     57    680    683  98.6   4.9  34238  290.89 0854.39
2009/04/23 16:12:37.6     454   -106    198    467    507 103.2  24.3  34206  290.34 0854.39
2009/04/23 16:12:37.7     -67   -330    120    337    357 191.6  20.3  34208  290.37 0854.39
2009/04/23 16:12:37.8    -158   -267    122    311    334 210.7  22.7  34206  290.34 0854.39
2009/04/23 16:12:37.9     -72   -198    119    211    242 200.1  32.1  34198  290.20 0854.39
2009/04/23 16:12:38.0      14   -180     40    181    186 175.3  12.6  34200  290.25 0854.39
2009/04/23 16:12:38.1      20   -179     -6    181    182 173.5  -2.1  34186  290.02 0854.39
2009/04/23 16:12:38.2    -167   -178     -9    245    246 223.2  -2.2  34194  290.14 0854.39
2009/04/23 16:12:38.3    -156   -123    187    199    273 231.8  48.0  34178  289.88 0854.39
2009/04/23 16:12:38.4    -108   -120    127    162    205 221.9  42.2  34184  289.99 0854.35
2009/04/23 16:12:38.5     -35     11   -119     37    124 288.2 -86.2  34194  290.16 0854.35
2009/04/23 16:12:38.6      83    100   -110    131    171  39.7 -48.7  34200  290.25 0854.35
2009/04/23 16:12:38.7      40    101    -58    109    123  21.9 -34.7  34200  290.25 0854.35
2009/04/23 16:12:38.8     -52      3     35     53     63 273.5  36.5  34190  290.09 0854.35
2009/04/23 16:12:38.9     -88     27    105     93    140 287.3  54.2  34180  289.92 0854.35
2009/04/23 16:12:39.0     -41    -80    113     90    144 207.2  57.5  34166  289.67 0854.35
2009/04/23 16:12:39.1     -41    -78    116     89    146 208.1  58.5  34172  289.77 0854.35
2009/04/23 16:12:39.2      35    -35     96     50    108 135.0  70.8  34190  290.09 0854.35
2009/04/23 16:12:39.3     -67    -72    106     99    145 223.2  52.1  34156  289.50 0854.35
2009/04/23 16:12:39.4    -135   -107     70    173    186 231.8  23.1  34150  289.40 0854.35
2009/04/23 16:12:39.5    -101   -171     75    199    212 210.5  21.3  34146  289.33 0854.35
2009/04/23 16:12:39.6     -74   -276     32    286    288 195.1   6.5  34146  289.32 0854.35
2009/04/23 16:12:39.7    -147   -254      3    294    295 210.1   0.7  34150  289.39 0854.35
2009/04/23 16:12:39.8    -132   -245     43    279    283 208.3   8.9  34150  289.41 0854.35
2009/04/23 16:12:39.9     -86   -230     62    246    254 200.5  14.2  34146  289.32 0854.35
2009/04/23 16:12:40.0    -213   -257    -95    335    348 219.6 -20.5  34154  289.48 0854.35
2009/04/23 16:12:40.1    -178   -253    180    310    358 215.1  32.9  34150  289.40 0854.35
2009/04/23 16:12:40.2     -16   -180    207    181    274 185.1  54.3  34168  289.71 0854.35
2009/04/23 16:12:40.3    -108   -325    319    343    468 198.5  47.9  34188  290.04 0854.35
2009/04/23 16:12:40.4    -185   -326     23    376    377 209.6   3.5  34150  289.40 0854.33
2009/04/23 16:12:40.5     -77   -289     58    300    306 195.1  11.0  34158  289.54 0854.33
2009/04/23 16:12:40.6     -45   -265    225    269    350 189.8  44.1  34226  290.70 0854.33
2009/04/23 16:12:40.7     -84   -239     91    254    269 199.4  20.2  34208  290.37 0854.33
2009/04/23 16:12:40.8     -29   -110     93    114    147 195.2  43.7  34202  290.30 0854.33
2009/04/23 16:12:40.9      78     17    148     81    168  77.2  69.1  34224  290.65 0854.33
2009/04/23 16:12:41.0     100     55    153    115    191  61.1  59.2  34208  290.38 0854.33
2009/04/23 16:12:41.1      72     43    115     85    143  58.9  60.5  34222  290.64 0854.33
2009/04/23 16:12:41.3     160    120     87    200    218  53.1  25.1  34190  290.08 0854.33
2009/04/23 16:12:41.3     238    141     38    277    280  59.4   8.0  34180  289.92 0854.33
2009/04/23 16:12:41.5     260     48    117    265    289  79.5  25.2  34190  290.09 0854.33
2009/04/23 16:12:41.6     250     93    113    267    289  69.6  24.3  34180  289.90 0854.33
2009/04/23 16:12:41.7     163    134    139    212    253  50.5  36.3  34224  290.66 0854.33
2009/04/23 16:12:41.8      70     47    137     85    161  56.3  65.4  34214  290.48 0854.33
2009/04/23 16:12:41.9     -11     54    108     56    121 348.4  70.8  34226  290.70 0854.33
2009/04/23 16:12:42.0     -38     84    116     93    148 335.5  56.9  34238  290.91 0854.33
2009/04/23 16:12:42.1     -41     42    116     59    130 315.8  71.0  34248  291.08 0854.33
2009/04/23 16:12:42.2     -32     73    117     80    141 336.4  62.6  34218  290.57 0854.33
2009/04/23 16:12:42.3     -65     25     59     70     91 291.7  44.3  34214  290.48 0854.33
2009/04/23 16:12:42.4     -36     -2     86     37     93 265.7  75.5  34218  290.55 0854.33
2009/04/23 16:12:42.5    -110    -75    157    134    206 235.9  55.4  34214  290.48 0854.37
2009/04/23 16:12:42.6    -146   -137    166    201    260 226.9  43.7  34192  290.10 0854.37
2009/04/23 16:12:42.7     -11   -167    148    168    223 183.8  45.9  34158  289.55 0854.37
2009/04/23 16:12:42.8       1   -115    180    116    214 179.1  64.6  34174  289.82 0854.37
2009/04/23 16:12:42.9     -27   -251    212    253    330 186.2  44.2  34148  289.37 0854.37
2009/04/23 16:12:43.0      15   -256    141    257    293 176.6  31.3  34154  289.47 0854.37
2009/04/23 16:12:43.1      21   -230    202    232    307 174.7  45.8  34156  289.51 0854.37
2009/04/23 16:12:43.2     -28   -283    191    285    343 185.8  37.2  34154  289.46 0854.37
2009/04/23 16:12:43.3     -15   -325    -21    326    327 182.7  -3.7  34112  288.75 0854.37
2009/04/23 16:12:43.4      57   -268     -5    275    276 168.0  -1.2  34118  288.85 0854.37
2009/04/23 16:12:43.5     -45   -298     98    302    318 188.7  18.1  34126  289.00 0854.37
2009/04/23 16:12:43.6     -74   -323     62    332    338 192.9  10.6  34126  288.98 0854.37
2009/04/23 16:12:43.7     -11   -350     41    351    354 181.9   6.7  34128  289.03 0854.37
2009/04/23 16:12:43.8      14   -301    126    302    327 177.3  23.9  34116  288.83 0854.37
2009/04/23 16:12:43.9     -87   -252     41    267    271 199.2   8.8  34118  288.85 0854.37
2009/04/23 16:12:44.0     -54   -229     90    236    252 193.3  22.0  34110  288.71 0854.37
2009/04/23 16:12:44.1     -21   -275     12    276    277 184.5   2.5  34112  288.75 0854.37
2009/04/23 16:12:44.2     -48   -311     -1    315    316 188.9  -0.3  34114  288.80 0854.37
2009/04/23 16:12:44.3      -3   -225    -53    226    233 181.0 -13.2  34118  288.87 0854.37
2009/04/23 16:12:44.4      88   -186    -31    206    209 154.7  -8.6  34116  288.82 0854.38
2009/04/23 16:12:44.5      51   -172    -21    180    182 163.5  -6.9  34114  288.80 0854.38
2009/04/23 16:12:44.6     -15   -117    107    119    160 187.6  46.6  34130  289.08 0854.38
2009/04/23 16:12:44.7    -125   -259    154    288    326 205.9  30.5  34136  289.15 0854.38
2009/04/23 16:12:44.8    -186   -293    203    348    402 212.4  32.9  34126  288.99 0854.38
2009/04/23 16:12:44.9    -236   -288     96    373    386 219.4  14.5  34122  288.93 0854.38
2009/04/23 16:12:45.0    -132   -272     70    303    312 205.9  13.1  34130  289.07 0854.38
2009/04/23 16:12:45.1     -30   -146    109    150    185 191.6  39.7  34148  289.36 0854.38
2009/04/23 16:12:45.2     -97   -108     57    146    156 221.9  22.5  34138  289.21 0854.38
2009/04/23 16:12:45.3     -25    -64    -25     69     73 201.8 -23.3  34142  289.26 0854.38
2009/04/23 16:12:45.4      -3    -31     22     32     38 186.2  37.6  34138  289.21 0854.38
2009/04/23 16:12:45.5     -88     81     87    120    148 312.7  39.7  34146  289.35 0854.38
2009/04/23 16:12:45.6    -244    134    153    279    318 298.9  31.3  34160  289.56 0854.38
2009/04/23 16:12:45.7    -174    143    117    226    254 309.5  29.3  34180  289.90 0854.38
2009/04/23 16:12:45.8    -168    114    141    204    247 304.2  37.8  34172  289.78 0854.38
2009/04/23 16:12:45.9    -161     45    134    168    214 285.7  43.0  34188  290.06 0854.38
2009/04/23 16:12:46.0    -115    100    105    153    185 310.9  37.8  34192  290.13 0854.38
2009/04/23 16:12:46.1      25    101     80    105    132  13.8  41.6  34210  290.43 0854.38
2009/04/23 16:12:46.2     -14    190    131    191    231 355.5  37.6  34176  289.84 0854.38
2009/04/23 16:12:46.3       6    133     74    134    153   2.7  31.4  34160  289.58 0854.38
2009/04/23 16:12:46.4    -106     61     87    123    150 300.2  39.1  34172  289.77 0854.36
2009/04/23 16:12:46.5     -77     37     59     86    104 295.8  37.6  34180  289.92 0854.36
2009/04/23 16:12:46.6     -94     92    -16    132    134 314.4  -7.2  34174  289.80 0854.36
2009/04/23 16:12:46.7      94    275     53    291    296  18.9  10.3  34174  289.80 0854.36
2009/04/23 16:12:46.8      56    319    118    324    344  10.0  20.8  34278  291.59 0854.36
2009/04/23 16:12:46.9      19    354    131    355    378   3.1  21.1  34292  291.81 0854.36
2009/04/23 16:12:47.0     -43    319     75    322    331 352.2  13.1  34286  291.70 0854.36
2009/04/23 16:12:47.1      33    233    201    236    309   8.1  44.8  34284  291.67 0854.36
2009/04/23 16:12:47.2     100    110    180    149    233  42.3  56.4  34238  290.89 0854.36
2009/04/23 16:12:47.3     -67    -92    198    114    228 216.1  67.5  34242  290.96 0854.36
2009/04/23 16:12:47.4     -62    -59    198     86    215 226.4  75.0  34198  290.23 0854.36
2009/04/23 16:12:47.5      67      7    137     68    152  83.9  72.4  34222  290.64 0854.36
2009/04/23 16:12:47.6    -149    -36     99    154    183 256.3  35.6  34178  289.87 0854.36
2009/04/23 16:12:47.7     251    147    126    291    317  59.6  24.9  34182  289.93 0854.36
2009/04/23 16:12:47.8     178     49    251    185    311  74.5  60.1  34194  290.14 0854.36
2009/04/23 16:12:47.9     -19    -60    166     64    177 197.8  77.8  34202  290.30 0854.36
2009/04/23 16:12:48.0     160    -86    234    182    296 118.2  58.4  34196  290.19 0854.36
2009/04/23 16:12:48.1     150    -60    261    162    307 111.8  65.1  34196  290.17 0854.36
2009/04/23 16:12:48.2     206    -45    271    211    343 102.4  58.2  34164  289.63 0854.36
2009/04/23 16:12:48.3     145    -92    175    172    245 122.5  50.4  34168  289.72 0854.36
2009/04/23 16:12:48.4       0     92    130     93    159 359.5  61.1  34166  289.69 0854.39
2009/04/23 16:12:48.5      73    -17    142     76    161 103.3  69.6  34166  289.69 0854.39
2009/04/23 16:12:48.6       0    -87    136     88    161 180.5  64.4  34166  289.69 0854.39
2009/04/23 16:12:48.7     -38   -156    190    161    249 193.8  55.6  34150  289.40 0854.39
2009/04/23 16:12:48.8     -10   -132    165    133    211 184.4  56.6  34158  289.55 0854.39
2009/04/23 16:12:48.9    -119   -156    280    197    342 217.4  61.5  34176  289.85 0854.39
2009/04/23 16:12:49.0    -312   -162     78    352    361 242.6  12.6  34182  289.93 0854.39
2009/04/23 16:12:49.1    -288    -99     19    305    306 250.9   3.6  34188  290.05 0854.39
2009/04/23 16:12:49.2    -129   -123     29    179    182 226.2   9.3  34138  289.19 0854.39
2009/04/23 16:12:49.3     -24   -141     -7    144    145 189.7  -3.1  34116  288.84 0854.39
2009/04/23 16:12:49.4     134   -113     18    176    177 130.0   5.9  34130  289.06 0854.41
2009/04/23 16:12:49.5     206    -64    -49    216    222 107.3 -12.9  34134  289.13 0854.41
2009/04/23 16:12:49.6     154   -256    -38    299    302 149.0  -7.3  34142  289.25 0854.41
2009/04/23 16:12:49.7     155   -277    134    318    345 150.8  24.2  34130  289.08 0854.41
2009/04/23 16:12:49.8      78   -358    122    367    387 167.7  18.4  34106  288.67 0854.41
2009/04/23 16:12:49.9      41   -365    231    368    434 173.5  35.2  34118  288.85 0854.41
2009/04/23 16:12:50.0    -135   -319    118    347    367 203.0  18.9  34122  288.93 0854.41
2009/04/23 16:12:50.1    -114   -286     82    309    320 201.8  14.9  34118  288.85 0854.41
2009/04/23 16:12:50.2    -151   -280    110    319    338 208.4  19.1  34112  288.76 0854.41
2009/04/23 16:12:50.3     -69   -209     97    221    241 198.3  25.1  34118  288.85 0854.41
2009/04/23 16:12:50.4     -66   -212     73    223    235 197.4  18.1  34118  288.86 0854.41
2009/04/23 16:12:50.5      24   -284     18    286    287 175.1   3.6  34116  288.83 0854.41
2009/04/23 16:12:50.6      58   -305    110    311    331 169.1  19.6  34124  288.95 0854.41
2009/04/23 16:12:50.7      66   -324    238    331    407 168.4  39.3  34126  288.99 0854.41
2009/04/23 16:12:50.8     -40   -231    164    235    286 190.0  38.4  34132  289.09 0854.41
2009/04/23 16:12:50.9     -23   -328    123    329    351 184.0  21.5  34130  289.06 0854.41
2009/04/23 16:12:51.0    -136   -461    130    481    499 196.5  15.1  34128  289.03 0854.41
2009/04/23 16:12:51.1    -115   -372      6    390    391 197.3   0.9  34120  288.91 0854.41
2009/04/23 16:12:51.2       5   -144    170    145    223 177.8  55.4  34124  288.96 0854.41
2009/04/23 16:12:51.3      17    -53    140     56    150 161.3  77.1  34148  289.36 0854.41
2009/04/23 16:12:51.4     -41     44     92     61    110 316.8  64.1  34160  289.57 0854.43
2009/04/23 16:12:51.5     -43      0     76     44     87 270.0  67.2  34164  289.65 0854.43
2009/04/23 16:12:51.6      13    -25    125     29    128 152.8  87.0  34136  289.18 0854.43
2009/04/23 16:12:51.7       0    -13    135     14    135 180.9  90.0  34154  289.46 0854.43
2009/04/23 16:12:51.8      -5     41    123     42    129 352.0  81.2  34154  289.48 0854.43
2009/04/23 16:12:51.9     -32   -193    155    196    249 189.6  42.7  34126  289.00 0854.43
2009/04/23 16:12:52.0      54   -267    141    273    307 168.4  29.3  34118  288.87 0854.43
2009/04/23 16:12:52.1     130   -235    165    269    315 151.0  34.4  34118  288.87 0854.43
2009/04/23 16:12:52.2      79   -194     50    210    216 157.7  13.5  34114  288.80 0854.43
2009/04/23 16:12:52.3     132   -214     49    252    257 148.4  11.0  34114  288.78 0854.43
2009/04/23 16:12:52.4       9   -297    172    298    344 178.2  32.7  34120  288.88 0854.43
2009/04/23 16:12:52.5     -62   -229    180    238    298 195.2  40.9  34120  288.88 0854.43
2009/04/23 16:12:52.6     -49   -210    152    216    264 193.1  38.6  34116  288.83 0854.43
2009/04/23 16:12:52.7     103   -183    146    211    256 150.6  38.0  34116  288.83 0854.43
2009/04/23 16:12:52.8     352   -297    251    461    524 130.2  30.9  34108  288.68 0854.43
2009/04/23 16:12:52.9     375   -241    208    446    492 122.8  26.9  34104  288.62 0854.43
2009/04/23 16:12:53.0     186   -258    180    319    366 144.2  31.9  34102  288.59 0854.43
2009/04/23 16:12:53.1     178   -253    129    310    335 144.8  23.8  34106  288.65 0854.43
2009/04/23 16:12:53.2     161   -288     94    331    345 150.8  15.9  34126  289.01 0854.43
2009/04/23 16:12:53.3     204   -260     74    331    340 141.9  12.6  34122  288.93 0854.43
2009/04/23 16:12:53.4      39   -398    125    400    420 174.3  17.4  34136  289.16 0854.43
2009/04/23 16:12:53.5      56   -278    115    284    306 168.4  23.1  34132  289.10 0854.43
2009/04/23 16:12:53.6      44   -214    163    219    273 168.2  40.4  34130  289.05 0854.43
2009/04/23 16:12:53.7      91   -270    181    286    338 161.3  35.5  34108  288.68 0854.43
2009/04/23 16:12:53.8     139   -223    118    263    288 148.1  25.9  34108  288.70 0854.43
2009/04/23 16:12:53.9      11   -138     69    139    155 175.1  28.2  34112  288.77 0854.43
2009/04/23 16:12:54.0      13    -81     34     83     89 170.7  23.0  34124  288.97 0854.43
2009/04/23 16:12:54.1      13    -47     13     49     51 164.0  15.3  34124  288.97 0854.43
2009/04/23 16:12:54.2      66    -65    -12     94     95 134.6  -7.3  34126  289.01 0854.43
2009/04/23 16:12:54.3      46   -141    -42    149    154 161.7 -20.7  34130  289.06 0854.43
2009/04/23 16:12:54.4     -28   -133    -45    136    143 192.0 -23.8  34134  289.13 0854.43
2009/04/23 16:12:54.5      22   -106    -21    109    112 168.0 -10.9  34124  288.97 0854.43
2009/04/23 16:12:54.6     -19    -48     82     52     97 201.8  64.7  34134  289.13 0854.43
2009/04/23 16:12:54.7      -4    -39     -2     40     41 186.2  -4.1  34138  289.19 0854.43
2009/04/23 16:12:54.8       2    -28     -3     29     30 175.5  -7.3  34142  289.26 0854.43
2009/04/23 16:12:54.9       4     23     18     24     30   9.8  41.7  34154  289.46 0854.43
2009/04/23 16:12:55.0      42     56     19     71     74  37.0  15.3  34154  289.48 0854.43
2009/04/23 16:12:55.1     111    -48     10    122    123 113.5   4.9  34138  289.19 0854.43
2009/04/23 16:12:55.2     153    -51     90    162    185 108.6  31.4  34122  288.94 0854.43
2009/04/23 16:12:55.3     213   -234    111    317    337 137.6  19.4  34126  288.98 0854.43
2009/04/23 16:12:55.4     274   -410     76    494    500 146.3   8.8  34114  288.78 0854.43
2009/04/23 16:12:55.5     351   -436    -21    560    561 141.2  -2.2  34118  288.87 0854.43
2009/04/23 16:12:55.6     429   -308    -24    529    530 125.7  -2.6  34108  288.70 0854.43
2009/04/23 16:12:55.7     462   -279    -68    540    545 121.1  -7.2  34094  288.47 0854.43
2009/04/23 16:12:55.8     393   -238     23    460    461 121.2   2.9  34094  288.46 0854.43
2009/04/23 16:12:55.9     359   -211     82    417    426 120.4  11.1  34100  288.55 0854.43
2009/04/23 16:12:56.0     310    -78     87    320    332 104.2  15.3  34112  288.76 0854.43
2009/04/23 16:12:56.1     238    -78     89    251    267 108.2  19.6  34112  288.76 0854.43
2009/04/23 16:12:56.2     153   -364    126    395    415 157.2  17.8  34126  288.99 0854.43
2009/04/23 16:12:56.3     -16   -296    111    297    317 183.1  21.5  34126  288.98 0854.43
2009/04/23 16:12:56.4     189   -193    136    271    303 135.7  28.5  34128  289.03 0854.43
2009/04/23 16:12:56.5     147   -367    185    396    437 158.2  27.0  34092  288.41 0854.43
2009/04/23 16:12:56.6      77   -258    372    270    459 163.3  60.5  34118  288.85 0854.43
2009/04/23 16:12:56.7     300      0    210    301    367  90.0  38.3  34112  288.76 0854.43
2009/04/23 16:12:56.8     318      0   -102    319    334  90.0 -22.8  34116  288.84 0854.43
2009/04/23 16:12:56.9     292     -4    -87    293    306  90.8 -16.6  34122  288.92 0854.43
2009/04/23 16:12:57.0     191    -22    -16    193    194  96.8  -4.9  34122  288.94 0854.43
2009/04/23 16:12:57.1     154   -100    -24    184    186 123.1  -7.5  34128  289.02 0854.43
2009/04/23 16:12:57.2     145    -58     62    157    168 111.7  22.5  34130  289.06 0854.43
2009/04/23 16:12:57.3     104    -41     99    113    150 111.7  45.8  34136  289.16 0854.43
2009/04/23 16:12:57.4       6    -46    103     47    113 172.0  73.5  34128  289.02 0854.45
2009/04/23 16:12:57.5      68   -125    149    143    206 151.5  51.2  34134  289.14 0854.45
2009/04/23 16:12:57.6     -44   -146    174    153    231 196.9  54.3  34130  289.06 0854.45
2009/04/23 16:12:57.7      46    -86    125     98    158 151.9  58.2  34134  289.14 0854.45
2009/04/23 16:12:57.8     118   -144    214    187    284 140.8  54.3  34126  289.00 0854.45
2009/04/23 16:12:57.9     279    -45    104    283    301  99.2  20.9  34126  288.98 0854.45
2009/04/23 16:12:58.0     337    -96    -44    351    354 105.9  -7.2  34126  288.99 0854.45
2009/04/23 16:12:58.1     220    -79    -46    235    240 109.9 -11.1  34126  288.98 0854.45
2009/04/23 16:12:58.2     132    -55   -124    144    190 112.6 -49.5  34126  289.01 0854.45
2009/04/23 16:12:58.3      69    -69   -136     98    167 135.0 -65.2  34130  289.08 0854.45
2009/04/23 16:12:58.4      91   -185   -197    207    285 153.7 -52.9  34124  288.97 0854.45
2009/04/23 16:12:58.5      -6   -388    -46    389    392 181.0  -6.8  34112  288.77 0854.45
2009/04/23 16:12:58.6      80   -306    -98    317    331 165.3 -22.3  34116  288.81 0854.45
2009/04/23 16:12:58.7     155   -302    -65    340    347 152.8 -10.9  34116  288.81 0854.45
2009/04/23 16:12:58.8     111   -306     65    326    333 160.0  11.3  34114  288.79 0854.45
2009/04/23 16:12:58.9      57   -281    102    287    304 168.4  20.2  34118  288.85 0854.45
2009/04/23 16:12:59.0      77   -212     96    226    245 160.0  24.6  34120  288.90 0854.45
2009/04/23 16:12:59.1     150   -206     65    256    265 143.9  14.3  34124  288.95 0854.45
2009/04/23 16:12:59.2     240    -55    103    247    267 103.0  24.1  34118  288.87 0854.45
2009/04/23 16:12:59.3     244      0     63    245    254  90.0  14.5  34124  288.97 0854.45
2009/04/23 16:12:59.4     183     55    -25    192    194  73.2  -7.7  34122  288.92 0854.45
2009/04/23 16:12:59.5     157     83    -55    178    187  62.0 -17.3  34124  288.97 0854.45
2009/04/23 16:12:59.6      25   -100    -14    104    105 165.7  -7.7  34122  288.92 0854.45
2009/04/23 16:12:59.7      11   -209     18    210    211 176.9   5.0  34120  288.89 0854.45
2009/04/23 16:12:59.8     -12   -134     39    135    141 185.3  16.3  34120  288.89 0854.45
2009/04/23 16:12:59.9     -84   -298    -17    310    311 195.8  -3.2  34116  288.81 0854.45
2009/04/23 16:13:00.0     231   -419     87    479    487 151.1  10.3  34110  288.73 0854.45
2009/04/23 16:13:00.1     282   -399    -10    489    490 144.7  -1.3  34116  288.81 0854.45
2009/04/23 16:13:00.2     291   -296     35    416    418 135.5   4.9  34118  288.87 0854.45
2009/04/23 16:13:00.3      17   -251    183    252    311 176.0  39.5  34118  288.87 0854.45
2009/04/23 16:13:00.4     -18   -244    152    245    288 184.4  35.0  34126  289.00 0854.45
2009/04/23 16:13:00.5      80   -234     82    248    262 161.1  18.4  34126  289.00 0854.45
2009/04/23 16:13:00.6     114   -318    118    339    360 160.2  19.2  34122  288.93 0854.45
2009/04/23 16:13:00.7      86   -266    106    280    299 162.1  21.7  34122  288.93 0854.45
2009/04/23 16:13:00.8      55   -306     28    311    313 169.8   5.3  34126  288.98 0854.45
2009/04/23 16:13:00.9      72   -328     62    336    342 167.6  10.6  34126  288.99 0854.45
2009/04/23 16:13:01.0      68   -225     61    236    244 163.1  14.7  34124  288.97 0854.45
2009/04/23 16:13:01.1      73   -148    107    166    197 153.7  35.7  34126  289.01 0854.45
2009/04/23 16:13:01.2      16   -275    192    276    336 176.5  38.4  34118  288.85 0854.45
2009/04/23 16:13:01.3      10   -240    207    241    317 177.4  45.1  34124  288.95 0854.45
2009/04/23 16:13:01.4     221   -114    138    249    284 117.3  31.4  34128  289.02 0854.43
2009/04/23 16:13:01.5     242   -208     89    320    333 130.7  15.6  34128  289.03 0854.43
2009/04/23 16:13:01.6     223   -190    123    294    318 130.4  23.9  34132  289.10 0854.43
2009/04/23 16:13:01.7     201   -128    202    239    312 122.5  44.5  34136  289.15 0854.43
2009/04/23 16:13:01.8     214    -56    123    222    253 104.6  31.4  34130  289.07 0854.43
2009/04/23 16:13:01.9     262    -69    214    271    345 104.8  42.4  34128  289.03 0854.43
2009/04/23 16:13:02.0     326     50    -51    330    335  81.2  -8.9  34124  288.96 0854.43
2009/04/23 16:13:02.1     322     -2     61    323    329  90.4  10.7  34132  289.09 0854.43
2009/04/23 16:13:02.2     118    -83    150    145    208 125.1  50.9  34126  289.01 0854.43
2009/04/23 16:13:02.3      43   -131    106    139    174 161.7  41.2  34138  289.19 0854.43
2009/04/23 16:13:02.4     136   -162      0    212    213 139.9   0.2  34134  289.13 0854.43
2009/04/23 16:13:02.5     346   -128      5    369    370 110.3   0.9  34130  289.06 0854.43
2009/04/23 16:13:02.6     311   -116    -32    333    335 110.5  -5.6  34140  289.23 0854.43
2009/04/23 16:13:02.7     196    171    -94    261    277  48.9 -25.3  34154  289.46 0854.43
2009/04/23 16:13:02.8     118    157     17    197    198  37.0   5.0  34156  289.50 0854.43
2009/04/23 16:13:02.9      78    107     45    133    141  36.1  18.9  34154  289.48 0854.43
2009/04/23 16:13:03.0      -1     62     65     63     90 358.2  50.7  34162  289.60 0854.43
2009/04/23 16:13:03.1      -8     26     74     28     79 343.1  78.6  34160  289.58 0854.43
2009/04/23 16:13:03.2     -27    -17     63     32     70 237.6  71.9  34154  289.48 0854.43
2009/04/23 16:13:03.3     -29   -154    150    157    217 190.7  48.5  34128  289.02 0854.43
2009/04/23 16:13:03.5       8   -101    128    102    163 175.1  57.5  34124  288.97 0854.43
2009/04/23 16:13:03.5      32   -182    147    185    236 170.0  42.7  34132  289.09 0854.43
2009/04/23 16:13:03.6      35   -198    160    202    257 169.8  42.7  34134  289.12 0854.43
2009/04/23 16:13:03.7      42   -166    139    172    221 165.7  43.5  34128  289.04 0854.43
2009/04/23 16:13:03.8     104   -387    168    401    434 164.9  24.1  34130  289.07 0854.43
2009/04/23 16:13:03.9      94   -227    158    246    292 157.5  35.6  34124  288.97 0854.43
2009/04/23 16:13:04.0     196   -184    124    270    297 133.2  26.4  34128  289.03 0854.43
2009/04/23 16:13:04.1     323    -87    140    335    363 105.2  23.9  34130  289.08 0854.43
2009/04/23 16:13:04.2     267    -81    108    280    300 106.9  22.1  34132  289.09 0854.43
2009/04/23 16:13:04.3     251     -7     18    252    253  91.7   4.2  34132  289.10 0854.43
2009/04/23 16:13:04.4     202      0    -11    203    204  90.1  -3.1  34134  289.13 0854.43
2009/04/23 16:13:04.5     307     42    104    310    328  82.1  18.6  34140  289.22 0854.43
2009/04/23 16:13:04.7     231    -17    160    232    281  94.4  37.6  34138  289.19 0854.43
2009/04/23 16:13:04.7     260     79     95    272    288  72.9  20.0  34142  289.27 0854.43
2009/04/23 16:13:04.8     101    -27    129    105    166 105.1  56.4  34142  289.28 0854.43
2009/04/23 16:13:04.9      16    -46    150     49    157 160.0  81.6  34156  289.52 0854.43
2009/04/23 16:13:05.0      79    -18    111     82    138 103.3  60.0  34142  289.28 0854.43
2009/04/23 16:13:05.1     143     19    114    145    184  82.1  42.2  34144  289.31 0854.43
2009/04/23 16:13:05.2     227     32    177    230    290  82.0  41.6  34142  289.25 0854.43
2009/04/23 16:13:05.3     233     36     77    236    249  81.2  18.1  34142  289.25 0854.43
2009/04/23 16:13:05.4     203     31      2    206    207  81.2   0.7  34144  289.31 0854.46
2009/04/23 16:13:05.5     167     55     54    177    186  71.6  17.1  34146  289.35 0854.46
2009/04/23 16:13:05.6     134     36     72    139    156  74.9  29.3  34140  289.24 0854.46
2009/04/23 16:13:05.7     140     10     94    141    169  85.7  36.7  34140  289.23 0854.46
2009/04/23 16:13:05.8     112     32     49    117    126  74.1  23.6  34150  289.41 0854.46
2009/04/23 16:13:05.9     130     83     24    155    157  57.6   8.8  34156  289.52 0854.46
2009/04/23 16:13:06.0     129    118     49    176    183  47.6  15.6  34184  289.97 0854.46
2009/04/23 16:13:06.1     177     83      9    196    197  64.7   2.9  34204  290.31 0854.46
2009/04/23 16:13:06.2     121    100     56    158    167  50.4  20.2  34210  290.43 0854.46
2009/04/23 16:13:06.3     101     61     69    119    137  58.9  32.9  34196  290.19 0854.46
2009/04/23 16:13:06.4     -42     37     73     57     92 311.3  57.5  34180  289.92 0854.46
2009/04/23 16:13:06.5     145    137    122    200    234  46.7  34.8  34154  289.48 0854.46
2009/04/23 16:13:06.6     -47     -5    140     48    148 263.0  81.2  34162  289.62 0854.46
2009/04/23 16:13:06.7      71    109    177    131    220  33.0  60.0  34156  289.50 0854.46
2009/04/23 16:13:06.8      57     36    178     68    190  57.6  78.2  34176  289.84 0854.46
2009/04/23 16:13:06.9    -165     -4     72    166    180 268.3  24.9  34160  289.57 0854.46
2009/04/23 16:13:07.0    -219    -78     89    233    249 250.3  22.0  34144  289.31 0854.46
2009/04/23 16:13:07.1    -263    -17    148    264    302 266.1  31.6  34144  289.31 0854.46
2009/04/23 16:13:07.2     -79   -160    107    179    208 206.3  33.7  34148  289.38 0854.46
2009/04/23 16:13:07.3    -133     18     35    135    140 277.9  14.7  34146  289.33 0854.46
2009/04/23 16:13:07.4    -143    146     -9    205    206 315.5  -2.6  34158  289.53 0854.47
2009/04/23 16:13:07.5     -34    183    -60    187    197 349.3 -17.9  34162  289.60 0854.47
2009/04/23 16:13:07.6     -73    255   -209    266    338 344.0 -46.6  34182  289.93 0854.47
2009/04/23 16:13:07.7      70    293   -175    302    349  13.4 -37.1  34180  289.91 0854.47
2009/04/23 16:13:07.8     144    310    -73    343    351  25.0 -12.2  34178  289.86 0854.47
2009/04/23 16:13:07.9       0    220    -86    221    237 359.8 -26.7  34172  289.77 0854.47
2009/04/23 16:13:08.0      11    129     30    130    134   4.9  13.2  34180  289.91 0854.47
2009/04/23 16:13:08.1     147    119    -34    190    194  51.1 -10.3  34160  289.57 0854.47
2009/04/23 16:13:08.2     198    101     74    223    235  62.9  18.4  34156  289.52 0854.47
2009/04/23 16:13:08.3     155    107     82    189    206  55.4  25.1  34162  289.60 0854.47
2009/04/23 16:13:08.4      76     73    111    106    153  46.4  51.2  34168  289.70 0854.47
2009/04/23 16:13:08.5      47     88     86    100    131  28.1  45.4  34174  289.82 0854.47
2009/04/23 16:13:08.6      33     83     67     90    112  21.8  40.1  34180  289.91 0854.47
2009/04/23 16:13:08.7       0     -9     76     10     76 179.1  90.0  34192  290.11 0854.47
2009/04/23 16:13:08.9     -42    -14     41     45     60 250.9  47.9  34188  290.06 0854.47
2009/04/23 16:13:09.0     -97    -58     39    114    121 238.9  18.9  34172  289.79 0854.47
2009/04/23 16:13:09.1     -74   -117     18    139    141 212.6   7.5  34162  289.60 0854.47
2009/04/23 16:13:09.2     -74   -160      9    177    178 204.7   3.1  34156  289.52 0854.47
2009/04/23 16:13:09.3     -41   -168      8    174    175 193.8   2.9  34156  289.50 0854.47
2009/04/23 16:13:09.4     -33   -146     50    150    159 192.9  18.6  34158  289.55 0854.47
2009/04/23 16:13:09.5     -15    -77     54     79     95 191.6  37.0  34162  289.60 0854.48
2009/04/23 16:13:09.6     -10    -66     49     67     83 188.9  40.1  34162  289.62 0854.48
2009/04/23 16:13:09.7       0    -27     52     28     59 180.9  68.9  34166  289.69 0854.48
2009/04/23 16:13:09.8     -14    -36     31     39     49 201.8  43.7  34172  289.77 0854.48
2009/04/23 16:13:09.9      15    -31     18     35     39 152.8  27.3  34180  289.92 0854.48
2009/04/23 16:13:10.0      26    -36     15     45     48 143.9  19.2  34174  289.80 0854.48
2009/04/23 16:13:10.1      55     -5     40     56     68  96.1  39.5  34176  289.84 0854.48
2009/04/23 16:13:10.2      61    -24     44     66     79 111.7  37.0  34174  289.80 0854.48
2009/04/23 16:13:10.3      62    -79     24    101    104 141.7  13.7  34168  289.70 0854.48
2009/04/23 16:13:10.4      70    -85      5    111    112 140.4   2.9  34166  289.67 0854.48
2009/04/23 16:13:10.5      82   -120    -18    146    148 145.7  -7.2  34162  289.62 0854.46
2009/04/23 16:13:10.6      87   -123     -8    151    152 144.8  -3.2  34162  289.62 0854.46
2009/04/23 16:13:10.7      11   -150    -33    151    155 175.5 -12.4  34158  289.55 0854.46
2009/04/23 16:13:10.8       2   -189    -15    190    191 179.3  -4.6  34156  289.50 0854.46
2009/04/23 16:13:10.9      33   -150    -41    154    160 167.5 -15.2  34154  289.46 0854.46
2009/04/23 16:13:11.0      24   -192    -90    194    213 172.7 -31.4  34152  289.43 0854.46
2009/04/23 16:13:11.1     -32   -136    -91    140    166 193.3 -40.4  34156  289.52 0854.46
2009/04/23 16:13:11.2     -27   -166    -95    169    193 189.3 -36.3  34164  289.63 0854.46
2009/04/23 16:13:11.3     -24   -109    -56    112    125 192.5 -33.1  34168  289.72 0854.46
2009/04/23 16:13:11.4      -3    -42    -68     43     80 185.3 -69.1  34174  289.82 0854.46
2009/04/23 16:13:11.5       0      0    -62      1     62 350.3 -90.0  34178  289.89 0854.46
2009/04/23 16:13:11.6      79    -74    -47    109    118 133.1 -29.5  34170  289.74 0854.46
2009/04/23 16:13:11.7     103    -83      0    133    134 128.6   0.2  34160  289.58 0854.46
2009/04/23 16:13:11.8      75    -71     65    104    122 133.1  35.0  34160  289.58 0854.46
2009/04/23 16:13:11.9      66    -73     78     99    126 137.7  42.2  34154  289.46 0854.46
2009/04/23 16:13:12.0      40   -100     97    108    145 158.2  46.9  34152  289.43 0854.46
2009/04/23 16:13:12.1     118   -110     95    162    187 133.1  33.1  34154  289.46 0854.46
2009/04/23 16:13:12.2     108    -78     56    134    145 125.9  23.6  34142  289.26 0854.46
2009/04/23 16:13:12.3      80    -88      1    120    121 137.7   0.8  34144  289.30 0854.46
2009/04/23 16:13:12.4      55   -121    -19    133    135 155.5  -8.2  34150  289.40 0854.46
2009/04/23 16:13:12.5      60    -79    -27    100    104 143.0 -15.4  34154  289.48 0854.45
2009/04/23 16:13:12.6     126   -193      0    231    232 146.8   0.2  34148  289.36 0854.45
2009/04/23 16:13:12.7     187   -171     33    254    257 132.4   7.5  34150  289.41 0854.45
2009/04/23 16:13:12.8     275   -350     29    446    447 141.9   3.8  34150  289.39 0854.45
2009/04/23 16:13:12.9     133   -230    -43    266    270 149.9  -9.3  34154  289.47 0854.45
2009/04/23 16:13:13.0     -24   -349    -31    350    352 184.0  -5.1  34152  289.43 0854.45
2009/04/23 16:13:13.1     -85   -352    199    363    413 193.6  31.3  34146  289.32 0854.45
2009/04/23 16:13:13.2      13   -293    173    294    341 177.3  33.3  34142  289.27 0854.45
2009/04/23 16:13:13.3     -14   -335    122    336    357 182.5  20.9  34146  289.33 0854.45
2009/04/23 16:13:13.4     -89   -282    217    296    367 197.6  39.8  34158  289.54 0854.45
2009/04/23 16:13:13.5    -121   -298    134    322    348 202.1  23.9  34158  289.54 0854.45
2009/04/23 16:13:13.6    -132   -277    103    307    324 205.5  18.6  34164  289.64 0854.45
2009/04/23 16:13:13.7     -98   -260     35    279    282 200.7   7.2  34162  289.61 0854.45
2009/04/23 16:13:13.8      -8   -235      0    236    237 182.0   0.2  34160  289.58 0854.45
2009/04/23 16:13:13.9      46   -241    -44    246    251 169.1 -10.3  34158  289.53 0854.45
2009/04/23 16:13:14.0     142   -277    -51    312    317 152.8  -9.3  34162  289.61 0854.45
2009/04/23 16:13:14.1     148   -214    -92    261    277 145.3 -19.4  34162  289.59 0854.45
2009/04/23 16:13:14.2     140   -229    -34    269    272 148.6  -7.3  34156  289.51 0854.45
2009/04/23 16:13:14.3     131   -234     77    269    280 150.8  16.0  34150  289.39 0854.45
2009/04/23 16:13:14.4      42   -299    108    303    321 172.0  20.2  34154  289.47 0854.41
2009/04/23 16:13:14.5     -45   -201    167    207    265 192.7  43.5  34160  289.56 0854.41
2009/04/23 16:13:14.6      47   -129    150    138    203 160.0  52.2  34160  289.57 0854.41
2009/04/23 16:13:14.7      85   -195    119    213    243 156.4  31.9  34150  289.39 0854.41
2009/04/23 16:13:14.8      60   -218    154    227    274 164.4  37.4  34148  289.37 0854.41
2009/04/23 16:13:14.9      24   -180     42    182    187 172.2  13.2  34146  289.35 0854.41
2009/04/23 16:13:15.0      13   -166    -54    167    175 175.5 -23.6  34152  289.43 0854.41
2009/04/23 16:13:15.1     -16   -190    -31    191    194 184.9  -9.3  34148  289.38 0854.41
2009/04/23 16:13:15.2      57    -97    -17    113    115 149.3  -8.8  34148  289.36 0854.41
2009/04/23 16:13:15.3      56    -77     54     96    110 143.9  31.9  34150  289.41 0854.41
2009/04/23 16:13:15.4     112   -115     63    161    172 135.9  22.3  34150  289.41 0854.41
2009/04/23 16:13:15.5      33   -140     67    144    158 166.7  26.6  34152  289.45 0854.41
2009/04/23 16:13:15.6      56    -53     93     78    121 133.1  55.8  34166  289.67 0854.41
2009/04/23 16:13:15.7      38    -39    120     55    132 135.8  73.5  34180  289.92 0854.41
2009/04/23 16:13:15.8     127     -9    188    128    227  94.4  62.6  34170  289.74 0854.41
2009/04/23 16:13:15.9     -54   -173    214    182    280 197.6  55.4  34162  289.61 0854.41
2009/04/23 16:13:16.0     -38   -277    306    280    414 188.0  52.9  34154  289.48 0854.41
2009/04/23 16:13:16.1      34    -54    160     65    172 147.5  77.1  34162  289.62 0854.41
2009/04/23 16:13:16.2     149   -212    252    260    362 144.8  49.1  34156  289.52 0854.41
2009/04/23 16:13:16.3     239   -273    238    363    434 138.8  36.5  34156  289.49 0854.41
2009/04/23 16:13:16.4     285   -172     86    334    346 121.1  14.5  34154  289.47 0854.40
2009/04/23 16:13:16.5     337     92    133    350    374  74.7  21.8  34182  289.93 0854.40
2009/04/23 16:13:16.6     279      8    106    280    299  88.3  21.7  34164  289.63 0854.40
2009/04/23 16:13:16.7     226   -235     80    327    337 136.1  13.8  34148  289.38 0854.40
2009/04/23 16:13:16.8     251   -299    107    391    406 140.0  15.4  34152  289.42 0854.40
2009/04/23 16:13:16.9      38   -221    157    225    274 170.2  38.5  34154  289.47 0854.40
2009/04/23 16:13:17.0      75   -176     63    192    203 156.8  18.1  34152  289.43 0854.40
2009/04/23 16:13:17.1      28   -126     45    130    138 167.5  19.4  34156  289.52 0854.40
2009/04/23 16:13:17.2      40   -102     21    110    113 158.2  11.1  34152  289.43 0854.40
2009/04/23 16:13:17.3      67   -124    -16    142    143 151.5  -6.7  34152  289.43 0854.40
2009/04/23 16:13:17.4      94    -78    -17    123    125 129.6  -8.2  34150  289.41 0854.40
2009/04/23 16:13:17.5      66   -219    -28    229    231 163.1  -7.2  34150  289.41 0854.40
2009/04/23 16:13:17.6       9   -254    -37    255    258 177.8  -8.3  34148  289.37 0854.40
2009/04/23 16:13:17.7      70   -231    -49    242    248 163.0 -11.6  34152  289.42 0854.40
2009/04/23 16:13:17.8     150   -146    -53    210    217 134.2 -14.3  34150  289.41 0854.40
2009/04/23 16:13:17.9     165    -96    -59    191    201 120.2 -17.3  34154  289.46 0854.40
2009/04/23 16:13:18.0     167    -61    -17    179    180 110.2  -5.6  34156  289.50 0854.40
2009/04/23 16:13:18.1     248    -30    -55    250    257  97.0 -12.4  34152  289.42 0854.40
2009/04/23 16:13:18.2     291    -68     -2    299    300 103.2  -0.5  34154  289.46 0854.40
2009/04/23 16:13:18.3     267    -53     43    273    277 101.4   9.0  34156  289.51 0854.40
2009/04/23 16:13:18.4     290    -30    122    292    316  96.1  24.1  34156  289.51 0854.40
2009/04/23 16:13:18.5     303    -61    108    310    329 101.5  19.3  34160  289.58 0854.40
2009/04/23 16:13:18.6     284    -37    138    287    318  97.5  27.7  34162  289.61 0854.40
2009/04/23 16:13:18.7     210    -99     88    233    249 115.4  21.5  34164  289.63 0854.40
2009/04/23 16:13:18.8     107   -340    197    357    407 162.4  31.4  34152  289.45 0854.40
2009/04/23 16:13:18.9      51   -342    214    346    406 171.5  34.8  34172  289.79 0854.40
2009/04/23 16:13:19.0      52   -296    191    301    356 170.0  35.5  34156  289.52 0854.40
2009/04/23 16:13:19.1      61   -158    107    170    200 158.8  35.2  34158  289.55 0854.40
2009/04/23 16:13:19.2     206   -294    140    360    386 144.9  22.5  34166  289.67 0854.40
2009/04/23 16:13:19.3      59   -264    117    271    295 167.3  25.1  34156  289.49 0854.40
2009/04/23 16:13:19.4     164   -211     42    268    272 142.2   9.0  34160  289.56 0854.40
2009/04/23 16:13:19.5     339     36     -1    341    342  83.9  -0.2  34162  289.59 0854.40
2009/04/23 16:13:19.6     241     85     64    256    264  70.5  14.2  34176  289.83 0854.40
2009/04/23 16:13:19.7     185     30     81    188    204  80.5  24.9  34194  290.14 0854.40
2009/04/23 16:13:19.8     199    101    -28    224    226  63.1  -7.2  34176  289.85 0854.40
2009/04/23 16:13:19.9     165     54    -13    174    175  71.6  -4.4  34172  289.79 0854.40
2009/04/23 16:13:20.0     200     56     38    208    212  74.3  10.6  34208  290.38 0854.40
2009/04/23 16:13:20.1     118    124     72    172    186  43.7  24.1  34230  290.75 0854.40
2009/04/23 16:13:20.2      26     26     77     37     85  45.0  72.4  34232  290.81 0854.40
2009/04/23 16:13:20.3      59    -38     95     71    118 122.5  59.4  34210  290.43 0854.40
2009/04/23 16:13:20.4      -8    -60    100     61    117 188.0  65.1  34204  290.31 0854.43
2009/04/23 16:13:20.5     -45     21    111     50    121 295.3  74.5  34220  290.58 0854.43
2009/04/23 16:13:20.6    -143     39    156    149    215 285.5  52.0  34204  290.33 0854.43
2009/04/23 16:13:20.7      83     78    115    115    162  46.9  50.1  34192  290.11 0854.43
2009/04/23 16:13:20.8     118    -97     -3    154    155 129.5  -1.2  34192  290.11 0854.43
2009/04/23 16:13:20.9      -2    -36    101     37    107 184.5  79.7  34188  290.06 0854.43
2009/04/23 16:13:21.0     -28   -166    142    169    220 189.6  44.1  34170  289.74 0854.43
2009/04/23 16:13:21.1      -1    -53    108     54    120 181.8  71.4  34190  290.08 0854.43
2009/04/23 16:13:21.2      30    -38     52     49     71 142.2  52.1  34188  290.06 0854.43
2009/04/23 16:13:21.3      32    -97     93    103    138 161.5  47.5  34192  290.11 0854.43
2009/04/23 16:13:21.4     127    -34    134    132    188 105.0  50.1  34202  290.28 0854.43
2009/04/23 16:13:21.5      18    -54    120     57    132 161.5  73.1  34198  290.21 0854.43
2009/04/23 16:13:21.6      10   -128    161    129    206 175.5  56.9  34176  289.85 0854.43
2009/04/23 16:13:21.7     -19    -64    164     67    177 196.9  76.8  34182  289.96 0854.43
2009/04/23 16:13:21.8      14    -39    154     42    159 160.0  84.4  34188  290.06 0854.43
2009/04/23 16:13:21.9     -78    -10    101     79    128 262.1  57.9  34186  290.01 0854.43
2009/04/23 16:13:22.0      34     53     29     64     70  32.5  27.1  34186  290.02 0854.43
2009/04/23 16:13:22.1      19    -47     43     51     66 157.3  44.8  34186  290.01 0854.43
2009/04/23 16:13:22.2      59    -92     70    110    130 147.5  35.5  34184  289.97 0854.43
2009/04/23 16:13:22.3     -18   -111    103    113    152 189.3  47.9  34178  289.89 0854.43
2009/04/23 16:13:22.4     -44   -170     79    176    192 194.7  25.9  34168  289.70 0854.47
2009/04/23 16:13:22.5     -14   -146    168    147    223 185.8  54.3  34172  289.79 0854.47
2009/04/23 16:13:22.6     -66   -167    115    180    213 201.8  35.6  34168  289.70 0854.47
2009/04/23 16:13:22.7      10    -54    122     55    133 169.3  74.5  34184  289.99 0854.47
2009/04/23 16:13:22.8      16     27     85     32     90  30.7  78.6  34202  290.28 0854.47
2009/04/23 16:13:22.9     -54     45    153     71    168 309.5  73.2  34208  290.38 0854.47
2009/04/23 16:13:23.0       1     17    118     18    119   4.5  90.0  34210  290.43 0854.47
2009/04/23 16:13:23.1      -1    113    101    114    152 359.1  45.9  34198  290.23 0854.47
2009/04/23 16:13:23.2    -149    114     61    188    198 307.5  18.1  34200  290.26 0854.47
2009/04/23 16:13:23.3    -125     82     71    150    165 303.3  27.0  34198  290.21 0854.47
2009/04/23 16:13:23.4    -213      3     41    214    219 270.9  11.0  34186  290.01 0854.47
2009/04/23 16:13:23.5    -241     20     -9    242    243 274.8  -2.2  34172  289.76 0854.47
2009/04/23 16:13:23.6    -196    111    -51    226    232 299.5 -12.9  34174  289.82 0854.47
2009/04/23 16:13:23.7    -133     -3    -53    134    144 268.3 -27.4  34172  289.79 0854.47
2009/04/23 16:13:23.8    -196      8    -65    197    207 272.6 -23.8  34176  289.84 0854.47
2009/04/23 16:13:23.9     -78     23    -80     82    114 286.4 -54.9  34172  289.77 0854.47
2009/04/23 16:13:24.0     -16     24    -71     30     77 325.7 -81.4  34168  289.72 0854.47
2009/04/23 16:13:24.1      57     23    -73     62     95  67.4 -60.2  34164  289.63 0854.47
2009/04/23 16:13:24.2      18     45    -89     49    101  22.7 -73.2  34166  289.67 0854.47
2009/04/23 16:13:24.3      95    -20    -44     98    107 101.9 -30.6  34204  290.33 0854.47
2009/04/23 16:13:24.4     119     28    -55    123    134  76.7 -30.1  34242  290.96 0854.49
2009/04/23 16:13:24.5      92     32    -64     98    117  70.5 -40.0  34248  291.08 0854.49
2009/04/23 16:13:24.6     107      7     -7    108    109  86.1  -4.1  34258  291.25 0854.49
2009/04/23 16:13:24.7     104     -7    -13    105    106  94.3  -7.2  34248  291.06 0854.49
2009/04/23 16:13:24.8     139    -76      0    159    160 118.9   0.0  34218  290.57 0854.49
2009/04/23 16:13:24.9     114    -92     94    147    174 129.1  35.6  34210  290.41 0854.49
2009/04/23 16:13:25.0     104    -59     94    120    152 119.8  42.7  34202  290.30 0854.49
2009/04/23 16:13:25.1      78    -19     69     81    106 104.2  44.8  34210  290.43 0854.49
2009/04/23 16:13:25.2     106     34     42    112    119  71.8  21.0  34210  290.43 0854.49
2009/04/23 16:13:25.3      85     41     35     95    101  63.8  21.0  34206  290.36 0854.49
2009/04/23 16:13:25.4      40     -1      7     41     42  91.7  10.1  34204  290.31 0854.49
2009/04/23 16:13:25.5      30      0    -13     31     33  90.8 -27.4  34206  290.35 0854.49
2009/04/23 16:13:25.6      -7     -8    -28     11     30 219.6 -83.6  34214  290.50 0854.49
2009/04/23 16:13:25.7     -39     25    -34     47     58 302.5 -44.1  34222  290.64 0854.49
2009/04/23 16:13:25.8    -153     28    -51    156    165 280.6 -18.3  34222  290.62 0854.49
2009/04/23 16:13:25.9    -184     30    -50    187    194 279.5 -15.0  34220  290.58 0854.49
2009/04/23 16:13:26.0    -188     90    -74    209    222 295.8 -19.6  34220  290.60 0854.49
2009/04/23 16:13:26.1    -195     47    -61    201    210 283.7 -22.1  34206  290.36 0854.49
2009/04/23 16:13:26.2    -197     98     11    221    222 296.6   2.9  34216  290.52 0854.49
2009/04/23 16:13:26.3    -244     90    -23    261    263 290.2  -5.2  34224  290.65 0854.49
2009/04/23 16:13:26.4    -217     58    -28    225    227 285.1  -7.3  34222  290.64 0854.51
2009/04/23 16:13:26.5    -205     83     55    222    229 292.0  13.9  34214  290.48 0854.51
2009/04/23 16:13:26.6    -229     55     83    236    251 283.7  19.4  34214  290.48 0854.51
2009/04/23 16:13:26.7    -218     76     97    231    250 289.3  24.2  34216  290.51 0854.51
2009/04/23 16:13:26.8    -148    193     20    244    245 322.4   4.9  34218  290.56 0854.51
2009/04/23 16:13:26.9    -169    120    -13    208    209 305.3  -3.7  34222  290.62 0854.51
2009/04/23 16:13:27.0    -179    127     -6    220    221 305.5  -1.8  34220  290.58 0854.51
2009/04/23 16:13:27.1     -67    153     17    168    169 336.2   6.1  34220  290.58 0854.51
2009/04/23 16:13:27.2     -32     96     69    102    123 341.5  37.4  34214  290.50 0854.51
2009/04/23 16:13:27.3      87    104    118    136    180  40.1  45.6  34222  290.64 0854.51
2009/04/23 16:13:27.4     132     62    112    147    184  64.7  40.9  34218  290.57 0854.51
2009/04/23 16:13:27.5      31    -39    160     50    167 141.3  82.0  34224  290.65 0854.51
2009/04/23 16:13:27.6      23    -45     98     51    110 152.8  70.8  34214  290.50 0854.51
2009/04/23 16:13:27.7      -6    -78     92     79    121 184.5  54.8  34224  290.67 0854.51
2009/04/23 16:13:27.8     -51    -63     65     82    104 219.2  42.7  34220  290.60 0854.51
2009/04/23 16:13:27.9     -42    -55     26     70     74 217.0  20.0  34210  290.43 0854.51
2009/04/23 16:13:28.0    -109    -56    112    123    166 242.5  47.1  34208  290.40 0854.51
2009/04/23 16:13:28.1    -118    -60     68    133    149 242.9  29.2  34200  290.26 0854.51
2009/04/23 16:13:28.2      -4   -199    178    200    267 181.4  46.4  34200  290.24 0854.51
2009/04/23 16:13:28.3      -3   -242     90    243    259 180.9  21.0  34204  290.31 0854.51
2009/04/23 16:13:28.4     -26   -242    132    244    277 186.2  30.8  34208  290.39 0854.50
2009/04/23 16:13:28.5      73   -132    139    151    205 151.0  47.5  34232  290.81 0854.50
2009/04/23 16:13:28.6     140    -42    177    147    230 106.8  56.3  34238  290.91 0854.50
2009/04/23 16:13:28.7     161      4    167    162    232  88.3  50.7  34240  290.94 0854.50
2009/04/23 16:13:28.8     134    -91    152    162    222 124.2  48.0  34244  291.01 0854.50
2009/04/23 16:13:28.9      91    -43    124    101    159 115.3  56.9  34232  290.81 0854.50
2009/04/23 16:13:29.0       0    -94    107     95    143 179.5  53.7  34230  290.77 0854.50
2009/04/23 16:13:29.1      14   -132     96    133    164 173.8  39.3  34208  290.40 0854.50
2009/04/23 16:13:29.2     -24   -118    126    121    174 191.6  50.9  34200  290.26 0854.50
2009/04/23 16:13:29.3     -56   -116     98    130    162 205.9  40.7  34196  290.18 0854.50
2009/04/23 16:13:29.4     -58   -104    116    120    166 209.4  49.2  34204  290.31 0854.50
2009/04/23 16:13:29.5    -101    -67     88    122    150 236.3  39.7  34194  290.16 0854.50
2009/04/23 16:13:29.6     -58    -72    101     93    137 218.7  52.2  34192  290.11 0854.50
2009/04/23 16:13:29.7     -65    -74    121     99    156 221.4  56.4  34190  290.09 0854.50
2009/04/23 16:13:29.8    -144    -96    164    174    239 236.3  48.5  34192  290.11 0854.50
2009/04/23 16:13:29.9    -203    -32     71    206    219 261.0  19.2  34220  290.58 0854.50
2009/04/23 16:13:30.0    -124    -79     60    148    159 237.6  23.4  34194  290.16 0854.50
2009/04/23 16:13:30.1    -123    -77     58    146    157 238.0  22.8  34208  290.38 0854.50
2009/04/23 16:13:30.2    -111     33     90    116    146 286.8  42.2  34216  290.52 0854.50
2009/04/23 16:13:30.3    -124     52     36    135    140 293.1  15.2  34210  290.41 0854.50
2009/04/23 16:13:30.4     -60    124     -7    138    139 334.1  -3.1  34238  290.91 0854.48
2009/04/23 16:13:30.5     -52    194     82    202    218 344.9  23.1  34254  291.18 0854.48
2009/04/23 16:13:30.6      50    105     33    117    122  25.4  15.8  34252  291.15 0854.48
2009/04/23 16:13:30.7     120     76     93    143    170  57.6  36.0  34288  291.76 0854.48
2009/04/23 16:13:30.8     112    151    107    189    217  36.5  31.9  34276  291.55 0854.48
2009/04/23 16:13:30.9      93    174     17    198    199  28.3   5.2  34280  291.62 0854.48
2009/04/23 16:13:31.0     135    137      8    193    194  44.5   2.5  34284  291.69 0854.48
2009/04/23 16:13:31.1     112    147      6    186    187  37.4   2.1  34280  291.62 0854.48
2009/04/23 16:13:31.2     187    118    -45    222    227  57.6 -11.6  34332  292.49 0854.48
2009/04/23 16:13:31.3     163    105    -54    195    202  57.1 -20.0  34298  291.91 0854.48
2009/04/23 16:13:31.4     106     31    -32    111    116  73.6 -16.0  34276  291.55 0854.47
2009/04/23 16:13:31.5     167     46     17    174    175  74.5   5.9  34262  291.30 0854.47
2009/04/23 16:13:31.6     261     59     -5    268    269  77.2  -1.2  34250  291.10 0854.47
2009/04/23 16:13:31.7     228     76     12    241    242  71.4   2.9  34220  290.59 0854.47
2009/04/23 16:13:31.8     241     63     90    250    266  75.4  19.9  34220  290.59 0854.47
2009/04/23 16:13:31.9     101     27     89    105    137  74.9  44.8  34242  290.96 0854.47
2009/04/23 16:13:32.0      54      4    125     55    136  85.7  74.9  34252  291.15 0854.47
2009/04/23 16:13:32.1      48     45     58     67     88  46.8  45.4  34250  291.11 0854.47
2009/04/23 16:13:32.2     -18     55     90     58    107 341.5  64.6  34270  291.45 0854.47
2009/04/23 16:13:32.3     -49     60    129     78    150 320.3  66.2  34286  291.71 0854.47
2009/04/23 16:13:32.4      63     73    145     97    174  41.0  63.4  34228  290.74 0854.47
2009/04/23 16:13:32.5      65    102    170    122    209  32.6  60.8  34264  291.35 0854.47
2009/04/23 16:13:32.6     -69    -14    167     71    181 258.6  75.9  34232  290.79 0854.47
2009/04/23 16:13:32.7     165   -143    140    219    259 130.9  35.6  34234  290.82 0854.47
2009/04/23 16:13:32.8     313    -75     71    322    330 103.5  12.5  34226  290.68 0854.47
2009/04/23 16:13:32.9     249    -45    179    254    310 100.4  38.6  34260  291.27 0854.47
2009/04/23 16:13:33.0     253   -204    186    326    375 128.9  32.3  34268  291.39 0854.47
2009/04/23 16:13:33.1     184    -87    189    204    278 115.3  47.9  34272  291.48 0854.47
2009/04/23 16:13:33.2     142   -112    118    182    216 128.2  35.7  34238  290.89 0854.47
2009/04/23 16:13:33.3     106   -133     67    171    183 141.5  22.5  34214  290.48 0854.47
2009/04/23 16:13:33.4      94   -129     63    160    171 143.9  22.5  34190  290.09 0854.46
2009/04/23 16:13:33.5     120   -105     40    160    166 131.3  14.3  34184  289.99 0854.46
2009/04/23 16:13:33.6     123    -78     57    146    156 122.4  22.5  34190  290.09 0854.46
2009/04/23 16:13:33.7     121   -121     49    172    179 134.9  16.0  34204  290.33 0854.46
2009/04/23 16:13:33.8      83    -83     63    118    133 135.0  30.3  34218  290.57 0854.46
2009/04/23 16:13:33.9      43    -14     59     46     74 108.2  57.5  34216  290.52 0854.46
2009/04/23 16:13:34.0      54    -57     27     79     84 136.8  19.2  34230  290.77 0854.46
2009/04/23 16:13:34.1      31     31     31     45     54  45.0  37.6  34214  290.48 0854.46
2009/04/23 16:13:34.2      31    101    -31    106    110  17.4 -21.2  34206  290.35 0854.46
2009/04/23 16:13:34.3      41     85     67     95    116  25.9  38.6  34202  290.28 0854.46
2009/04/23 16:13:34.4      68    121     62    139    152  29.4  25.7  34204  290.33 0854.46
2009/04/23 16:13:34.5       0    128     18    129    131   0.0   8.0  34208  290.40 0854.46
2009/04/23 16:13:34.6     -25    141     18    144    146 349.8   7.1  34216  290.53 0854.46
2009/04/23 16:13:34.7     -33     87     51     94    106 339.1  31.3  34208  290.40 0854.46
2009/04/23 16:13:34.8     -43     80     67     92    113 331.5  39.7  34232  290.81 0854.46
2009/04/23 16:13:34.9      36     50     55     62     82  36.1  46.4  34242  290.98 0854.46
2009/04/23 16:13:35.0     -70    104     38    126    132 325.8  16.8  34240  290.92 0854.46
2009/04/23 16:13:35.1     -22     42     32     48     57 331.9  35.6  34236  290.87 0854.46
2009/04/23 16:13:35.2      55     22     61     60     85  68.3  49.7  34238  290.89 0854.46
2009/04/23 16:13:35.3      18     34     59     39     70  29.0  64.6  34242  290.96 0854.46
2009/04/23 16:13:35.4       6     88     81     89    120   4.0  47.5  34238  290.89 0854.45
2009/04/23 16:13:35.5     -50     73     41     89     97 325.3  26.6  34240  290.94 0854.45
2009/04/23 16:13:35.6    -111     86     33    141    145 307.8  13.2  34246  291.04 0854.45
2009/04/23 16:13:35.7    -207     32     -4    210    211 279.0  -1.3  34234  290.84 0854.45
2009/04/23 16:13:35.8    -200      0     22    201    203 270.0   6.5  34226  290.70 0854.45
2009/04/23 16:13:35.9    -151     40     74    157    173 285.1  27.1  34214  290.50 0854.45
2009/04/23 16:13:36.0    -170     -7     35    171    175 267.6  11.6  34220  290.60 0854.45
2009/04/23 16:13:36.1    -143    -69     40    159    165 244.2  14.3  34226  290.69 0854.45
2009/04/23 16:13:36.2    -168    -26    106    171    201 261.0  34.8  34210  290.43 0854.45
2009/04/23 16:13:36.3    -162     -1     89    163    185 269.6  31.0  34206  290.35 0854.45
2009/04/23 16:13:36.4    -202     40     64    207    217 281.4  17.3  34200  290.26 0854.45
2009/04/23 16:13:36.5    -234     64     -9    243    244 285.3  -2.2  34212  290.46 0854.45
2009/04/23 16:13:36.7    -223     30    -41    226    230 277.7 -10.4  34220  290.58 0854.45
2009/04/23 16:13:36.8    -226     18    -74    227    238 274.6 -23.0  34226  290.70 0854.45
2009/04/23 16:13:36.9    -221    -16    -82    222    236 265.7 -25.7  34222  290.64 0854.45
2009/04/23 16:13:37.0    -141    -36    -82    146    167 255.4 -36.3  34218  290.57 0854.45
2009/04/23 16:13:37.1    -135    -59    -58    148    158 246.5 -26.9  34216  290.52 0854.45
2009/04/23 16:13:37.2    -194     -2    -61    195    205 269.4 -17.6  34206  290.36 0854.45
2009/04/23 16:13:37.3    -234     30   -115    236    262 277.5 -32.4  34198  290.22 0854.45
2009/04/23 16:13:37.4    -276     58   -127    283    310 281.9 -30.3  34210  290.42 0854.45
2009/04/23 16:13:37.5    -227    -46     13    232    233 258.6   3.3  34214  290.48 0854.45
2009/04/23 16:13:37.6    -101    -93    106    138    174 227.3  41.4  34220  290.60 0854.45
2009/04/23 16:13:37.7     -23    -66    154     70    169 199.2  73.8  34228  290.72 0854.45
2009/04/23 16:13:37.8     -14     27     96     31    100 332.8  81.2  34236  290.87 0854.45
2009/04/23 16:13:37.9      70     23     93     74    118  71.4  57.9  34216  290.53 0854.45
2009/04/23 16:13:38.0      26     16    108     31    112  57.6  83.9  34232  290.79 0854.45
2009/04/23 16:13:38.1       6     53    151     54    160   7.1  79.9  34218  290.57 0854.45
2009/04/23 16:13:38.2     150     79    263    170    313  62.0  64.1  34178  289.86 0854.45
2009/04/23 16:13:38.3     140     66    171    156    231  64.6  52.7  34196  290.19 0854.45
2009/04/23 16:13:38.4     128    137    155    188    243  43.0  43.7  34184  289.99 0854.45
2009/04/23 16:13:38.5     139    124    135    187    230  48.4  39.5  34164  289.65 0854.45
2009/04/23 16:13:38.6     110    158    139    193    237  35.0  39.5  34174  289.82 0854.45
2009/04/23 16:13:38.7     112    169    142    204    248  33.6  38.4  34146  289.32 0854.45
2009/04/23 16:13:38.8      16    141    148    142    205   6.7  50.9  34186  290.02 0854.45
2009/04/23 16:13:38.9      62    252    161    260    305  14.0  35.0  34204  290.32 0854.45
2009/04/23 16:13:39.0      -3    314    141    315    345 359.3  25.9  34288  291.74 0854.45
2009/04/23 16:13:39.1      34    265    162    268    313   7.3  34.1  34188  290.05 0854.45
2009/04/23 16:13:39.2     -30    248    100    250    269 352.9  23.0  34256  291.19 0854.45
2009/04/23 16:13:39.3     -34    259     88    262    277 352.4  18.6  34274  291.50 0854.45
2009/04/23 16:13:39.4      17    225     79    226    240   4.4  19.4  34268  291.39 0854.45
2009/04/23 16:13:39.5      69    178    100    191    215  21.2  29.5  34242  290.96 0854.45
2009/04/23 16:13:39.6     107    225    127    250    280  25.5  29.2  34270  291.44 0854.45
2009/04/23 16:13:39.7      58    217     83    225    239  15.1  21.0  34272  291.46 0854.45
2009/04/23 16:13:39.8     100    211    109    234    258  25.4  27.0  34252  291.12 0854.45
2009/04/23 16:13:39.9      64    194    119    205    237  18.5  32.9  34284  291.69 0854.45
2009/04/23 16:13:40.0      31    174    107    177    206  10.2  34.2  34270  291.45 0854.45
2009/04/23 16:13:40.1     -14    212    -38    213    217 356.2 -10.1  34264  291.35 0854.45
2009/04/23 16:13:40.2     -28    253     -9    255    256 353.5  -2.2  34240  290.92 0854.45
2009/04/23 16:13:40.3     -75    249    -62    261    269 343.1 -13.4  34166  289.66 0854.45
2009/04/23 16:13:40.4     -68    244    -35    254    257 344.4  -8.0  34178  289.86 0854.45
2009/04/23 16:13:40.5     -88    232     16    249    250 339.1   3.8  34168  289.71 0854.45
2009/04/23 16:13:40.6     -67    226     -2    236    237 343.3  -0.7  34168  289.70 0854.45
2009/04/23 16:13:40.7    -110    257     60    280    287 336.8  12.2  34200  290.26 0854.45
2009/04/23 16:13:40.8    -189    291      4    348    349 326.9   0.8  34248  291.05 0854.45
2009/04/23 16:13:40.9    -174    256    -17    310    311 325.8  -3.3  34248  291.07 0854.45
2009/04/23 16:13:41.0     -70    240     71    251    261 343.7  15.8  34262  291.31 0854.45
2009/04/23 16:13:41.1     -66    253      5    262    263 345.3   1.2  34266  291.38 0854.45
2009/04/23 16:13:41.2    -215    208    -49    300    305 314.0  -9.4  34208  290.37 0854.45
2009/04/23 16:13:41.3    -228    171    -85    286    299 306.9 -16.6  34202  290.27 0854.45
2009/04/23 16:13:41.4    -200    116    -71    232    242 300.0 -21.8  34128  289.02 0854.46
2009/04/23 16:13:41.5    -137     86    -86    162    183 302.2 -35.0  34128  289.04 0854.46
2009/04/23 16:13:41.6     -81     47    -73     94    119 300.2 -46.1  34142  289.28 0854.46
2009/04/23 16:13:41.7     -59     59    -23     84     87 315.0 -20.2  34192  290.13 0854.46
2009/04/23 16:13:41.8     -49     59    -27     77     81 320.4 -24.4  34200  290.25 0854.46
2009/04/23 16:13:41.9       0     34    -94     35    100   0.9 -83.6  34240  290.94 0854.46
2009/04/23 16:13:42.0      50     53    -40     74     84  43.3 -35.8  34238  290.91 0854.46
2009/04/23 16:13:42.1     110      1     -3    111    112  89.2  -1.8  34216  290.52 0854.46
2009/04/23 16:13:42.2     185     36     44    189    195  78.8  13.2  34282  291.64 0854.46
2009/04/23 16:13:42.3     175     60     64    186    197  70.9  19.2  34348  292.76 0854.46
2009/04/23 16:13:42.4     149     48    122    157    198  71.8  41.7  34340  292.63 0854.46
2009/04/23 16:13:42.5     144    124    105    191    217  49.3  31.4  34320  292.30 0854.46
2009/04/23 16:13:42.6     111    117     79    162    180  43.3  27.8  34314  292.20 0854.46
2009/04/23 16:13:42.7     196     54    127    204    240  74.5  34.8  34336  292.56 0854.46
2009/04/23 16:13:42.8     188     81    128    205    241  66.5  35.2  34336  292.58 0854.46
2009/04/23 16:13:42.9     108    124     89    165    187  41.2  30.8  34332  292.51 0854.46
2009/04/23 16:13:43.0     129    118     -6    176    177  47.6  -2.2  34324  292.35 0854.46
2009/04/23 16:13:43.1     107    151     -1    186    187  35.2  -0.5  34288  291.74 0854.46
2009/04/23 16:13:43.2     131    149     15    199    200  41.4   4.6  34278  291.57 0854.46
2009/04/23 16:13:43.3      74    198     31    212    215  20.7   8.5  34224  290.67 0854.46
2009/04/23 16:13:43.4      48    171     11    178    179  15.8   3.6  34228  290.74 0854.45
2009/04/23 16:13:43.5       0    182     39    183    188   0.0  12.2  34234  290.82 0854.45
2009/04/23 16:13:43.6     -41     78     41     89     97 331.9  26.6  34206  290.36 0854.45
2009/04/23 16:13:43.7      24     73     65     77    100  18.3  44.3  34210  290.43 0854.45
2009/04/23 16:13:43.8      43     45     68     63     92  44.1  52.2  34218  290.57 0854.45
2009/04/23 16:13:43.9      76     60     60     98    114  51.8  35.5  34208  290.40 0854.45
2009/04/23 16:13:44.0     115     53     66    127    143  65.2  29.3  34224  290.67 0854.45
2009/04/23 16:13:44.1     198     15     42    199    204  85.4  12.0  34254  291.18 0854.45
2009/04/23 16:13:44.2     165     61     13    177    178  69.6   4.4  34220  290.60 0854.45
2009/04/23 16:13:44.3     148     -5    -96    149    177  92.1 -40.1  34292  291.81 0854.45
2009/04/23 16:13:44.4     127     54    152    139    205  66.9  53.0  34266  291.38 0854.45
2009/04/23 16:13:44.5     118    175    145    212    256  34.1  37.6  34218  290.54 0854.45
2009/04/23 16:13:44.6     285    169     52    332    337  59.3   9.0  34188  290.03 0854.45
2009/04/23 16:13:44.7     303    139    -60    334    340  65.3 -10.2  34172  289.77 0854.45
2009/04/23 16:13:44.8     261    118    -43    287    291  65.6  -8.6  34150  289.41 0854.45
2009/04/23 16:13:44.9     304    136     13    334    335  65.9   2.4  34212  290.45 0854.45
2009/04/23 16:13:45.0     443    165    -40    474    476  69.5  -4.9  34192  290.10 0854.45
2009/04/23 16:13:45.1     404    132    -10    426    427  71.8  -1.4  34200  290.26 0854.45
2009/04/23 16:13:45.2     270    109    213    292    361  68.0  39.7  34244  291.00 0854.45
2009/04/23 16:13:45.3     238    141    146    277    313  59.4  30.0  34244  291.00 0854.45
2009/04/23 16:13:45.4     259     89     97    275    291  71.0  20.0  34200  290.26 0854.46
2009/04/23 16:13:45.5     368    162     30    403    405  66.3   4.3  34204  290.31 0854.46
2009/04/23 16:13:45.6     407    185     44    448    451  65.6   5.7  34160  289.58 0854.46
2009/04/23 16:13:45.7     335    182    -20    382    383  61.4  -3.1  34162  289.60 0854.46
2009/04/23 16:13:45.8     245    146     24    286    288  59.3   4.9  34160  289.56 0854.46
2009/04/23 16:13:45.9     258    231     57    347    352  48.1   9.3  34138  289.21 0854.46
2009/04/23 16:13:46.0     232    204     35    310    313  48.7   6.5  34140  289.24 0854.46
2009/04/23 16:13:46.1     224    185    102    291    308  50.5  20.0  34140  289.24 0854.46
2009/04/23 16:13:46.2     186    149    122    239    268  51.4  29.2  34136  289.17 0854.46
2009/04/23 16:13:46.3     213    135     69    253    263  57.5  15.3  34140  289.24 0854.46
2009/04/23 16:13:46.4     124    183    118    222    251  34.2  30.3  34150  289.39 0854.46
2009/04/23 16:13:46.5      17    136    108    138    175   7.1  42.2  34164  289.63 0854.46
2009/04/23 16:13:46.6      14     60     83     62    103  13.4  59.4  34152  289.43 0854.46
2009/04/23 16:13:46.7      22     17     50     29     57  52.2  66.8  34148  289.36 0854.46
2009/04/23 16:13:46.8      16     46     61     49     78  20.0  56.4  34156  289.50 0854.46
2009/04/23 16:13:46.9      29     59     49     66     82  26.3  40.7  34154  289.46 0854.46
2009/04/23 16:13:47.0      15     79     17     81     83  10.7  12.2  34152  289.43 0854.46
2009/04/23 16:13:47.1      -1     64      3     65     66 359.1   2.9  34154  289.46 0854.46
2009/04/23 16:13:47.2      31     80     29     86     91  21.4  18.9  34158  289.53 0854.46
2009/04/23 16:13:47.3       5     69     24     70     75   4.4  18.9  34162  289.60 0854.46
2009/04/23 16:13:47.4      -4     61    -17     62     65 355.5 -15.4  34160  289.57 0854.48
2009/04/23 16:13:47.5      -4     23    -38     24     44 350.2 -69.1  34164  289.65 0854.48
2009/04/23 16:13:47.6      22     -7    -31     24     39 108.6 -60.8  34176  289.84 0854.48
2009/04/23 16:13:47.7      30     -2    -30     31     43  94.3 -54.4  34172  289.79 0854.48
2009/04/23 16:13:47.8      41      6    -11     42     44  81.2 -14.5  34166  289.67 0854.48
2009/04/23 16:13:47.9      39     11    -48     41     63  73.2 -59.8  34188  290.04 0854.48
2009/04/23 16:13:48.0      53     48    -56     72     91  47.8 -46.6  34208  290.40 0854.48
2009/04/23 16:13:48.1      87     44    -55     98    112  62.9 -35.8  34208  290.38 0854.48
2009/04/23 16:13:48.2      75     37    -55     84    100  63.8 -40.4  34220  290.60 0854.48
2009/04/23 16:13:48.3     102     33    -24    108    111  71.8 -12.9  34200  290.25 0854.48
2009/04/23 16:13:48.4     108     32    -32    113    117  73.2 -20.7  34198  290.21 0854.48
2009/04/23 16:13:48.5      95     62    -27    114    118  56.7 -13.4  34194  290.16 0854.48
2009/04/23 16:13:48.6     148     30    -41    151    157  78.5 -15.5  34206  290.35 0854.48
2009/04/23 16:13:48.7     117      9      9    118    119  85.2   4.4  34214  290.48 0854.48
2009/04/23 16:13:48.8     138     -6    -27    139    142  92.6 -11.3  34204  290.33 0854.48
2009/04/23 16:13:48.9     130    -36    -24    135    138 105.5 -10.3  34204  290.33 0854.48
2009/04/23 16:13:49.0     110    -46     77    120    142 112.6  35.6  34198  290.23 0854.48
2009/04/23 16:13:49.1     111   -122     20    165    167 137.7   7.2  34210  290.43 0854.48
2009/04/23 16:13:49.2      82   -102    -20    132    134 141.3  -8.8  34212  290.47 0854.48
2009/04/23 16:13:49.3      91    -57      5    108    109 122.4   2.9  34212  290.45 0854.48
2009/04/23 16:13:49.4     130    -30     58    134    146 103.3  25.1  34206  290.35 0854.46
2009/04/23 16:13:49.5     183     36      8    187    188  78.8   2.5  34190  290.09 0854.46
2009/04/23 16:13:49.6     186     62     61    197    207  71.6  17.3  34170  289.75 0854.46
2009/04/23 16:13:49.7     213    100     27    236    238  64.8   6.7  34152  289.42 0854.46
2009/04/23 16:13:49.8     223     59     23    231    233  75.0   5.9  34148  289.38 0854.46
2009/04/23 16:13:49.9     232     31     50    235    241  82.3  12.0  34176  289.83 0854.46
2009/04/23 16:13:50.0     230     46     64    235    244  78.5  15.3  34196  290.17 0854.46
2009/04/23 16:13:50.1     224     73     69    236    247  71.8  16.4  34178  289.88 0854.46
2009/04/23 16:13:50.2     241     90     19    258    259  69.4   4.2  34140  289.24 0854.46
2009/04/23 16:13:50.3     204    168    -33    265    268  50.5  -7.2  34146  289.34 0854.46
2009/04/23 16:13:50.4     218    129    -47    254    259  59.3 -10.5  34164  289.64 0854.46
2009/04/23 16:13:50.5     184     99    -26    210    212  61.6  -7.2  34174  289.80 0854.46
2009/04/23 16:13:50.6     147    102     -5    180    181  55.1  -1.8  34154  289.48 0854.46
2009/04/23 16:13:50.7     197     97    -57    220    228  63.8 -14.7  34194  290.14 0854.46
2009/04/23 16:13:50.8     152     54    -43    162    168  70.5 -15.0  34174  289.82 0854.46
2009/04/23 16:13:50.9     145     70    -18    162    164  64.0  -6.5  34144  289.30 0854.46
2009/04/23 16:13:51.0     165     71     -7    180    181  66.7  -2.2  34148  289.36 0854.46
2009/04/23 16:13:51.1     203     74     39    217    221  69.8  10.3  34158  289.53 0854.46
2009/04/23 16:13:51.2     176    113     42    210    215  57.1  11.4  34180  289.91 0854.46
2009/04/23 16:13:51.3     160    124     43    203    208  52.2  12.2  34188  290.04 0854.46
2009/04/23 16:13:51.4     144     91     37    171    176  57.8  12.4  34172  289.79 0854.44
2009/04/23 16:13:51.5     113    146     14    185    186  37.8   4.6  34154  289.46 0854.44
2009/04/23 16:13:51.6     109    172      2    204    205  32.5   0.8  34154  289.48 0854.44
2009/04/23 16:13:51.7     114    152     15    191    192  37.0   4.6  34152  289.45 0854.44
2009/04/23 16:13:51.8      58    149     10    161    162  21.4   3.8  34152  289.43 0854.44
2009/04/23 16:13:51.9      13    130     -5    131    132   5.8  -2.2  34178  289.87 0854.44
2009/04/23 16:13:52.0      59    109     19    125    127  28.5   9.0  34162  289.62 0854.44
2009/04/23 16:13:52.1     -34    114     -4    120    121 343.1  -2.2  34190  290.08 0854.44
2009/04/23 16:13:52.2     -64    148    -28    162    165 336.4 -10.1  34216  290.53 0854.44
2009/04/23 16:13:52.3       9    133    -26    134    137   4.0 -11.3  34222  290.64 0854.44
2009/04/23 16:13:52.4       6    122     -4    123    124   3.1  -2.2  34226  290.70 0854.41
2009/04/23 16:13:52.5      44    111    -31    120    124  21.9 -14.5  34212  290.47 0854.41
2009/04/23 16:13:52.6      75    189    -24    204    206  21.8  -6.7  34178  289.87 0854.41
2009/04/23 16:13:52.7      66    194    -58    206    214  18.9 -20.7  34180  289.92 0854.41
2009/04/23 16:13:52.8      59    185    -65    195    205  17.8 -23.6  34156  289.50 0854.41
2009/04/23 16:13:52.9     103    161    -75    192    206  32.5 -26.9  34150  289.41 0854.41
2009/04/23 16:13:53.0      -1    122    -83    123    148 359.5 -41.8  34188  290.06 0854.41
2009/04/23 16:13:53.1       0    112    -67    113    131 359.6 -37.9  34166  289.67 0854.41
2009/04/23 16:13:53.2      52     10     -3     54     55  78.5  -4.1  34162  289.60 0854.41
2009/04/23 16:13:53.3      98      1     21     99    102  89.1  12.2  34182  289.94 0854.41
2009/04/23 16:13:53.4      83     -3     44     84     94  92.1  29.8  34190  290.08 0854.41
2009/04/23 16:13:53.5     132      3     95    133    163  88.3  39.1  34286  291.72 0854.41
2009/04/23 16:13:53.6     138     25     48    141    150  79.4  18.9  34274  291.50 0854.41
2009/04/23 16:13:53.7     137     13     10    138    139  84.3   4.4  34270  291.43 0854.41
2009/04/23 16:13:53.8      67     20     74     70    101  73.2  51.6  34302  291.98 0854.41
2009/04/23 16:13:53.9      42     -1     98     43    107  92.6  75.5  34316  292.23 0854.41
2009/04/23 16:13:54.0      71     14     93     73    118  78.5  57.9  34294  291.86 0854.41
2009/04/23 16:13:54.1     103     43     81    112    138  66.9  39.5  34308  292.10 0854.41
2009/04/23 16:13:54.2      84     27     70     89    113  72.3  42.7  34328  292.42 0854.41
2009/04/23 16:13:54.3      68     37     39     78     87  61.1  28.2  34292  291.83 0854.41
2009/04/23 16:13:54.4      30      0     20     31     36  90.8  35.5  34278  291.57 0854.38
2009/04/23 16:13:54.5      10     -9     53     14     54 133.1  84.9  34284  291.69 0854.38
2009/04/23 16:13:54.6      71     23     65     75     99  71.4  45.4  34260  291.28 0854.38
2009/04/23 16:13:54.7      53     27     42     60     73  62.9  39.5  34270  291.45 0854.38
2009/04/23 16:13:54.8      92      8     44     93    102  84.8  27.1  34272  291.47 0854.38
2009/04/23 16:13:54.9     104      4     83    105    133  87.4  42.7  34282  291.64 0854.38
2009/04/23 16:13:55.0      66      5     92     67    113  85.7  60.5  34280  291.60 0854.38
2009/04/23 16:13:55.1      74     16     92     76    119  77.6  56.4  34260  291.28 0854.38
2009/04/23 16:13:55.2      38     38    115     55    127  45.0  72.9  34270  291.45 0854.38
2009/04/23 16:13:55.3     -15     45     73     48     87 341.5  64.1  34294  291.86 0854.38
2009/04/23 16:13:55.4      23     59     54     64     83  21.9  45.4  34268  291.40 0854.38
2009/04/23 16:13:55.5      28     50     41     58     71  29.9  39.5  34286  291.72 0854.38
2009/04/23 16:13:55.6     -33    -10     53     35     63 251.8  63.6  34290  291.77 0854.38
2009/04/23 16:13:55.7     -60    -72     63     94    113 219.7  36.5  34282  291.66 0854.38
2009/04/23 16:13:55.8     -69   -102     90    124    153 214.3  39.7  34276  291.54 0854.38
2009/04/23 16:13:55.9     -49   -118    141    129    191 202.7  52.7  34278  291.59 0854.38
2009/04/23 16:13:56.0     -10   -134    158    135    207 184.4  55.4  34232  290.81 0854.38
2009/04/23 16:13:56.1      31   -115    177    120    213 164.9  62.8  34222  290.64 0854.38
2009/04/23 16:13:56.2       0    -31    142     32    145 180.9  87.5  34238  290.89 0854.38
2009/04/23 16:13:56.3      -2    118    202    119    234 358.6  66.8  34240  290.94 0854.38
2009/04/23 16:13:56.4     -18     66    176     69    189 344.9  77.6  34218  290.57 0854.30
2009/04/23 16:13:56.5     106   -174    106    205    230 148.6  29.3  34166  289.67 0854.30
2009/04/23 16:13:56.6     111   -179     63    211    221 148.1  16.6  34170  289.75 0854.30
2009/04/23 16:13:56.7      69   -236     75    246    258 163.7  17.1  34186  290.00 0854.30
2009/04/23 16:13:56.8       4   -270     73    271    281 179.1  15.2  34212  290.44 0854.30
2009/04/23 16:13:56.9     -16   -285    100    286    302 183.4  20.0  34224  290.66 0854.30
2009/04/23 16:13:57.0      10   -362    137    363    387 178.3  21.6  34178  289.86 0854.30
2009/04/23 16:13:57.1      17   -381    150    382    410 177.4  22.8  34198  290.23 0854.30
2009/04/23 16:13:57.2     -16   -358     83    359    369 182.7  13.1  34194  290.16 0854.30
2009/04/23 16:13:57.3       9   -330    119    331    351 178.3  20.6  34178  289.89 0854.30
2009/04/23 16:13:57.4    -109   -343    185    360    404 197.7  29.3  34218  290.55 0854.30
2009/04/23 16:13:57.5    -212   -370    204    427    473 209.8  27.3  34192  290.12 0854.30
2009/04/23 16:13:57.6    -135   -409     84    431    440 198.3  11.1  34182  289.95 0854.30
2009/04/23 16:13:57.7     -38   -418    145    420    445 185.3  19.1  34152  289.43 0854.30
2009/04/23 16:13:57.8     -75   -445    144    452    475 189.6  17.7  34160  289.56 0854.30
2009/04/23 16:13:57.9     -47   -382    125    385    405 187.1  18.0  34168  289.72 0854.30
2009/04/23 16:13:58.0       4   -431    141    432    455 179.4  18.1  34160  289.56 0854.30
2009/04/23 16:13:58.1      39   -413     77    415    423 174.6  10.6  34170  289.73 0854.30
2009/04/23 16:13:58.2    -105   -320     40    337    340 198.3   6.9  34244  291.00 0854.30
2009/04/23 16:13:58.3     -26   -257     19    259    260 186.0   4.4  34184  289.98 0854.30
2009/04/23 16:13:58.4     -44   -284     77    288    299 188.9  15.0  34176  289.85 0854.28
2009/04/23 16:13:58.5     -39   -272     87    275    289 188.2  17.7  34196  290.19 0854.28
2009/04/23 16:13:58.6     -55   -199     83    207    223 195.6  23.0  34200  290.25 0854.28
2009/04/23 16:13:58.7     -16   -144     48    145    153 186.7  18.4  34196  290.18 0854.28
2009/04/23 16:13:58.8     -27    -92     70     96    118 196.5  39.7  34192  290.13 0854.28
2009/04/23 16:13:58.9     -63    -98     -4    117    118 212.6  -2.2  34208  290.40 0854.28
2009/04/23 16:13:59.0     -68   -149    -53    164    173 204.5 -18.1  34216  290.52 0854.28
2009/04/23 16:13:59.1    -131   -161    -57    208    216 219.2 -15.4  34184  289.97 0854.28
2009/04/23 16:13:59.2    -147   -145     18    207    208 225.3   5.2  34192  290.13 0854.28
2009/04/23 16:13:59.3    -105   -158     29    190    193 213.6   8.8  34192  290.11 0854.28
2009/04/23 16:13:59.4     -11   -170      8    171    172 184.0   2.9  34190  290.08 0854.28
2009/04/23 16:13:59.5      94   -106     63    142    155 138.5  25.2  34200  290.25 0854.28
2009/04/23 16:13:59.6      83    -80     74    116    137 134.0  35.6  34200  290.25 0854.28
2009/04/23 16:13:59.7     130    -35     85    135    159 105.1  35.2  34220  290.58 0854.28
2009/04/23 16:13:59.8     141     52     89    151    175  69.6  33.7  34292  291.83 0854.28
2009/04/23 16:13:59.9      65     79    130    103    165  39.6  57.7  34282  291.64 0854.28
2009/04/23 16:14:00.0      60     25    124     66    140  67.4  69.3  34262  291.32 0854.28
2009/04/23 16:14:00.1      49      6     89     50    102  83.0  68.8  34250  291.11 0854.28
2009/04/23 16:14:00.2      75    -54     39     93    100 126.0  24.1  34228  290.74 0854.28
2009/04/23 16:14:00.3      98    -13     27     99    103  97.9  15.3  34224  290.67 0854.28
2009/04/23 16:14:00.4      71     -3     55     72     90  92.6  41.7  34240  290.92 0854.30
2009/04/23 16:14:00.5      79     34     49     87     99  66.5  31.9  34220  290.60 0854.30
2009/04/23 16:14:00.6      46     27     18     54     58  59.3  18.9  34224  290.67 0854.30
2009/04/23 16:14:00.7       1     15      9     16     18   4.5  31.4  34228  290.74 0854.30
2009/04/23 16:14:00.8      -2     66    -22     67     71 358.2 -18.7  34214  290.48 0854.30
2009/04/23 16:14:00.9      -8     57    -23     58     62 351.1 -27.4  34206  290.36 0854.30
2009/04/23 16:14:01.0     -19     23      0     31     32 320.4  -1.3  34210  290.41 0854.30
2009/04/23 16:14:01.1     -21      3     -7     22     23 279.7 -23.8  34210  290.43 0854.30
2009/04/23 16:14:01.2     -39     -8     -2     40     41 257.6  -3.1  34234  290.82 0854.30
2009/04/23 16:14:01.3      10     31     -7     33     34  18.3 -13.4  34252  291.15 0854.30
2009/04/23 16:14:01.4      42     31    -17     53     56  54.0 -18.7  34310  292.12 0854.30
2009/04/23 16:14:01.5      43     22    -22     49     53  62.9 -29.5  34314  292.20 0854.30
2009/04/23 16:14:01.6      19     23      1     30     31  39.7   2.9  34308  292.08 0854.30
2009/04/23 16:14:01.7     -36     78      8     87     88 335.1   5.4  34304  292.03 0854.30
2009/04/23 16:14:01.8     -84     60      6    104    105 305.5   3.8  34310  292.12 0854.30
2009/04/23 16:14:01.9    -114     53     -1    126    127 295.2  -0.7  34304  292.03 0854.30
2009/04/23 16:14:02.0     -75     46     35     88     94 301.5  22.0  34292  291.83 0854.30
2009/04/23 16:14:02.1     -40    -39     39     57     69 225.9  37.6  34292  291.83 0854.30
2009/04/23 16:14:02.2      -8    -73     43     74     85 186.2  32.9  34300  291.96 0854.30
2009/04/23 16:14:02.3      -3    -57     37     58     68 183.6  35.5  34308  292.10 0854.30
2009/04/23 16:14:02.4     -39    -63     70     75    102 211.6  48.0  34326  292.40 0854.33
2009/04/23 16:14:02.5       8     11     66     14     67  36.1  89.0  34328  292.44 0854.33
2009/04/23 16:14:02.6     -23      4     15     24     28 279.7  35.5  34312  292.17 0854.33
2009/04/23 16:14:02.7      14      1     73     15     74  85.6  89.0  34308  292.08 0854.33
2009/04/23 16:14:02.8     -43     23     35     49     60 298.0  39.7  34296  291.88 0854.33
2009/04/23 16:14:02.9       4    -44     87     45     97 173.8  70.8  34268  291.42 0854.33
2009/04/23 16:14:03.0       0   -199    116    200    231 180.0  33.1  34228  290.72 0854.33
2009/04/23 16:14:03.1      98   -127     88    161    183 142.1  31.3  34224  290.65 0854.33
2009/04/23 16:14:03.2      93   -255     28    272    274 160.0   5.9  34158  289.54 0854.33
2009/04/23 16:14:03.3       7   -244    148    245    286 178.2  34.0  34136  289.15 0854.33
2009/04/23 16:14:03.4      39   -289    161    292    333 172.2  31.3  34160  289.56 0854.33
2009/04/23 16:14:03.5     115   -303    132    325    350 159.1  23.2  34160  289.57 0854.33
2009/04/23 16:14:03.6      74   -244    159    256    301 163.1  35.2  34158  289.54 0854.33
2009/04/23 16:14:03.7      36   -119    123    125    175 163.1  50.2  34176  289.85 0854.33
2009/04/23 16:14:03.8      61   -230    143    239    278 165.1  33.5  34170  289.73 0854.33
2009/04/23 16:14:03.9     -38   -228    119    232    260 189.6  29.3  34174  289.80 0854.33
2009/04/23 16:14:04.0     -67   -298     82    306    317 192.7  15.0  34164  289.64 0854.33
2009/04/23 16:14:04.2      -1   -336     76    337    346 180.2  12.8  34150  289.40 0854.33
2009/04/23 16:14:04.3     -22   -357     39    358    361 183.6   6.4  34136  289.15 0854.33
2009/04/23 16:14:04.3      -9   -337     72    338    346 181.6  12.1  34140  289.23 0854.33
2009/04/23 16:14:04.5       2   -259     37    260    263 179.5   8.2  34134  289.14 0854.36
2009/04/23 16:14:04.6      14   -226    -14    227    228 176.4  -3.7  34150  289.40 0854.36
2009/04/23 16:14:04.7      88   -167    -58    190    199 152.1 -17.0  34168  289.72 0854.36
2009/04/23 16:14:04.8      28   -225    -29    227    229 172.7  -7.3  34146  289.33 0854.36
2009/04/23 16:14:04.9     -75   -246     31    258    260 197.0   6.9  34142  289.27 0854.36
2009/04/23 16:14:05.0    -118   -264      6    290    291 204.1   1.2  34152  289.44 0854.36
2009/04/23 16:14:05.1      -4   -291     42    292    296 180.9   8.2  34128  289.03 0854.36
2009/04/23 16:14:05.2      -4   -241     96    242    260 181.0  23.0  34130  289.07 0854.36
2009/04/23 16:14:05.3     -90   -236      3    253    254 200.9   0.8  34138  289.20 0854.36
2009/04/23 16:14:05.4     -87   -204      6    222    223 203.2   1.8  34144  289.31 0854.36
2009/04/23 16:14:05.5      -2   -176    -31    177    180 180.7 -10.1  34146  289.33 0854.36
2009/04/23 16:14:05.6      43   -134    -54    141    150 162.2 -26.4  34148  289.36 0854.36
2009/04/23 16:14:05.7      41    -86    -25     96    100 154.6 -14.5  34146  289.33 0854.36
2009/04/23 16:14:05.8      57    -74     15     94     96 142.2   9.0  34144  289.30 0854.36
2009/04/23 16:14:05.9      45    -40     32     61     68 131.3  29.3  34144  289.30 0854.36
2009/04/23 16:14:06.0      36    -22     75     43     86 121.5  67.2  34144  289.31 0854.36
2009/04/23 16:14:06.1      23      9     74     25     78  68.3  81.0  34168  289.70 0854.36
2009/04/23 16:14:06.2       6     26     71     27     75  13.4  79.2  34182  289.94 0854.36
2009/04/23 16:14:06.3      20    -45    102     50    113 156.4  72.4  34160  289.57 0854.36
2009/04/23 16:14:06.4      76    -11    123     77    145  98.8  64.7  34162  289.60 0854.36
2009/04/23 16:14:06.5      77    -61    120     99    155 128.2  56.4  34152  289.45 0854.38
2009/04/23 16:14:06.6      90     -1     94     91    130  90.8  50.7  34152  289.45 0854.38
2009/04/23 16:14:06.7      87    -31     91     93    130 109.5  50.0  34150  289.40 0854.38
2009/04/23 16:14:06.8      94    -38     71    102    124 112.2  37.6  34148  289.36 0854.38
2009/04/23 16:14:06.9      81    -22     80     85    116 105.5  48.5  34152  289.45 0854.38
2009/04/23 16:14:07.0      38    -42     85     57    102 137.7  63.2  34156  289.50 0854.38
2009/04/23 16:14:07.1      18     18     55     26     60  45.0  72.9  34174  289.82 0854.38
2009/04/23 16:14:07.2      32     20     77     38     85  57.6  71.9  34174  289.82 0854.38
2009/04/23 16:14:07.3      23     24     74     34     81  43.4  74.0  34172  289.79 0854.38
2009/04/23 16:14:07.4      60      3    107     61    123  86.5  67.2  34176  289.84 0854.38
2009/04/23 16:14:07.5      65    -18     92     68    114 105.9  60.5  34168  289.70 0854.38
2009/04/23 16:14:07.6      14     42     77     45     89  19.2  66.8  34194  290.14 0854.38
2009/04/23 16:14:07.7       0    -18     63     19     65 182.7  81.8  34184  289.99 0854.38
2009/04/23 16:14:07.8      16     15     65     23     68  46.9  81.2  34188  290.06 0854.38
2009/04/23 16:14:07.9      10     16     63     20     66  32.5  80.7  34184  289.97 0854.38
2009/04/23 16:14:08.0      34     -6     63     35     72 101.5  68.8  34172  289.79 0854.38
2009/04/23 16:14:08.1      22    -27     51     36     62 140.3  60.6  34180  289.92 0854.38
2009/04/23 16:14:08.2      -8     -3     61      9     61 244.7  90.0  34186  290.02 0854.38
2009/04/23 16:14:08.3      14     -3     63     15     64 105.1  86.9  34192  290.11 0854.38
2009/04/23 16:14:08.4      -1     -2     52      3     52 212.5  90.0  34192  290.13 0854.38
2009/04/23 16:14:08.5       6      0     48      7     48  85.6  90.0  34190  290.09 0854.41
2009/04/23 16:14:08.6       9      5     47     11     48  57.6  85.9  34188  290.06 0854.41
2009/04/23 16:14:08.7     -28     13     52     31     60 295.2  66.8  34180  289.91 0854.41
2009/04/23 16:14:08.8      -9      0     44     10     45 270.0  88.0  34180  289.91 0854.41
2009/04/23 16:14:08.9      63    -35     47     73     86 118.9  35.6  34166  289.67 0854.41
2009/04/23 16:14:09.0      84    -21     61     87    106 104.2  38.6  34180  289.92 0854.41
2009/04/23 16:14:09.1      73    -43     46     86     97 120.7  30.3  34162  289.60 0854.41
2009/04/23 16:14:09.2      80    -66     12    104    105 129.5   6.9  34154  289.46 0854.41
2009/04/23 16:14:09.3      63    -92    -33    112    116 145.7 -21.7  34150  289.40 0854.41
2009/04/23 16:14:09.4      63    -78     -2    101    102 140.8  -1.3  34150  289.41 0854.41
2009/04/23 16:14:09.5      53    -68     -4     87     88 141.7  -3.1  34154  289.48 0854.41
2009/04/23 16:14:09.6      61    -50    -11     80     81 129.5  -8.2  34156  289.50 0854.41
2009/04/23 16:14:09.7      32    -30     25     45     51 133.1  31.4  34156  289.50 0854.41
2009/04/23 16:14:09.8      22    -22     15     32     35 135.0  27.2  34158  289.53 0854.41
2009/04/23 16:14:09.9      23    -32     16     40     43 143.9  22.0  34170  289.74 0854.41
2009/04/23 16:14:10.0      -1    -14     28     15     31 184.5  70.8  34176  289.84 0854.41
2009/04/23 16:14:10.1     -55    -32     44     64     77 239.3  37.6  34170  289.74 0854.41
2009/04/23 16:14:10.2     -47    -41     35     63     72 228.7  31.4  34162  289.60 0854.41
2009/04/23 16:14:10.3     -27    -39     41     48     63 214.3  44.8  34158  289.53 0854.41
2009/04/23 16:14:10.4     -31    -32     42     45     61 224.2  47.9  34164  289.63 0854.42
2009/04/23 16:14:10.5     -15    -56     63     59     86 195.1  51.6  34168  289.72 0854.42
2009/04/23 16:14:10.6      40    -73     67     84    107 151.0  43.3  34170  289.75 0854.42
2009/04/23 16:14:10.7       0   -128    122    129    177 180.0  48.2  34164  289.65 0854.42
2009/04/23 16:14:10.8      19   -118     72    120    139 170.7  33.5  34160  289.57 0854.42
2009/04/23 16:14:10.9       6    -98     21     99    102 176.4  12.2  34152  289.45 0854.42
2009/04/23 16:14:11.0      43   -145     18    152    154 163.5   6.9  34150  289.41 0854.42
2009/04/23 16:14:11.1     139   -141      0    199    200 135.5  -0.3  34156  289.52 0854.42
2009/04/23 16:14:11.2     115    -75     41    138    145 123.3  16.8  34158  289.55 0854.42
2009/04/23 16:14:11.3      98    -76     43    125    133 127.8  19.2  34162  289.62 0854.42
2009/04/23 16:14:11.4     104    -51     45    116    124 116.2  21.5  34166  289.67 0854.42
2009/04/23 16:14:11.5      98    -17     61    100    117 100.1  35.0  34188  290.04 0854.42
2009/04/23 16:14:11.6     145    -27    123    148    192 100.6  43.8  34254  291.16 0854.42
2009/04/23 16:14:11.7     101      0    105    102    146  90.0  50.7  34292  291.81 0854.42
2009/04/23 16:14:11.8     103      0    100    104    144  90.0  49.4  34278  291.57 0854.42
2009/04/23 16:14:11.9      -8      2     83      9     83 288.2  90.0  34314  292.18 0854.42
2009/04/23 16:14:12.0     -33    -52     76     62     98 212.6  56.4  34292  291.83 0854.42
2009/04/23 16:14:12.1      14   -200     92    201    221 176.0  26.4  34156  289.52 0854.42
2009/04/23 16:14:12.2      74   -219     80    232    246 161.3  19.2  34152  289.44 0854.42
2009/04/23 16:14:12.3      75   -227     70    240    251 161.7  16.4  34160  289.56 0854.42
2009/04/23 16:14:12.4      92   -211     63    231    240 156.4  15.3  34160  289.56 0854.40
2009/04/23 16:14:12.5      41   -151     71    157    172 164.8  26.2  34158  289.55 0854.40
2009/04/23 16:14:12.6      11   -131     80    132    154 175.1  35.0  34164  289.63 0854.40
2009/04/23 16:14:12.7      16    -85    115     87    144 169.3  59.4  34200  290.25 0854.40
2009/04/23 16:14:12.8     -20   -150    142    152    208 187.6  48.0  34200  290.26 0854.40
2009/04/23 16:14:12.9       2   -126    139    127    188 179.0  52.7  34192  290.11 0854.40
2009/04/23 16:14:13.0       8   -195    155    196    249 177.5  42.7  34206  290.36 0854.40
2009/04/23 16:14:13.1      17    -52    139     55    149 161.7  77.1  34224  290.67 0854.40
2009/04/23 16:14:13.2      43    -75    181     87    200 150.1  72.7  34210  290.43 0854.40
2009/04/23 16:14:13.3      87    -93    145    128    193 136.8  54.0  34208  290.40 0854.40
2009/04/23 16:14:13.4     105    -62    130    123    178 120.7  52.0  34194  290.16 0854.41
2009/04/23 16:14:13.5     175    -45    186    181    259 104.6  50.9  34174  289.81 0854.41
2009/04/23 16:14:13.6     180    -81    194    198    277 114.4  49.8  34168  289.71 0854.41
2009/04/23 16:14:13.7      31    -28     96     43    105 132.2  74.5  34184  289.97 0854.41
2009/04/23 16:14:13.8      45   -101     69    111    130 155.9  35.5  34170  289.74 0854.41
2009/04/23 16:14:13.9      52   -117     58    129    141 155.9  25.7  34160  289.57 0854.41
2009/04/23 16:14:14.0      90    -79     41    120    127 131.3  18.9  34158  289.53 0854.41
2009/04/23 16:14:14.1      98    -98     42    139    146 134.9  16.8  34156  289.52 0854.41
2009/04/23 16:14:14.2      72   -112     56    134    145 147.4  23.6  34156  289.52 0854.41
2009/04/23 16:14:14.3      68    -64     32     94    100 133.1  18.9  34158  289.53 0854.41
2009/04/23 16:14:14.4      69    -43      4     82     83 122.4   3.3  34160  289.57 0854.41
2009/04/23 16:14:14.5      40   -115     28    122    126 160.8  13.2  34152  289.43 0854.41
2009/04/23 16:14:14.6      63    -87      5    108    109 144.0   2.9  34152  289.45 0854.41
2009/04/23 16:14:14.7      44   -119     -7    128    129 159.5  -3.2  34148  289.36 0854.41
2009/04/23 16:14:14.8      41   -139     16    146    147 163.5   6.5  34150  289.41 0854.41
2009/04/23 16:14:14.9      37   -122     26    128    131 163.0  11.6  34154  289.48 0854.41
2009/04/23 16:14:15.0      20   -110     25    112    115 169.3  12.6  34152  289.45 0854.41
2009/04/23 16:14:15.1     -23   -101     22    104    107 192.9  12.2  34152  289.43 0854.41
2009/04/23 16:14:15.2     -25    -90     22     94     97 195.6  13.7  34156  289.52 0854.41
2009/04/23 16:14:15.3     -19    -89     18     92     94 192.5  11.1  34154  289.48 0854.41
2009/04/23 16:14:15.4      -5    -79     -3     80     81 184.0  -2.2  34164  289.65 0854.42
2009/04/23 16:14:15.5       3    -55      8     56     57 176.4   9.0  34186  290.01 0854.42
2009/04/23 16:14:15.6      24    -18      1     31     32 127.8   2.9  34184  289.99 0854.42
2009/04/23 16:14:15.7      12     -8      8     15     17 126.0  31.4  34190  290.08 0854.42
2009/04/23 16:14:15.8       6     -7      3     10     11 140.4  19.2  34186  290.02 0854.42
2009/04/23 16:14:15.9      -3    -21     22     22     31 189.8  50.1  34188  290.04 0854.42
2009/04/23 16:14:16.0     -19    -51     37     55     66 200.9  36.5  34176  289.85 0854.42
2009/04/23 16:14:16.1       0    -25     37     26     45 180.9  62.6  34190  290.09 0854.42
2009/04/23 16:14:16.2      14    -18     19     24     30 142.2  43.7  34194  290.16 0854.42
2009/04/23 16:14:16.3      21    -46     35     51     61 154.6  38.6  34188  290.06 0854.42
2009/04/23 16:14:16.4      18     -5     31     19     36 108.2  64.7  34198  290.21 0854.42
2009/04/23 16:14:16.5       7     19     27     21     34  20.0  56.4  34200  290.26 0854.42
2009/04/23 16:14:16.6      -7     -3     19      8     20 244.7  77.1  34196  290.18 0854.42
2009/04/23 16:14:16.7     -33      0     -1     34     35 270.9  -2.2  34196  290.19 0854.42
2009/04/23 16:14:16.8     -18      3    -16     19     24 281.5 -50.2  34214  290.50 0854.42
2009/04/23 16:14:16.9       4     14    -30     15     33  18.5 -77.3  34234  290.84 0854.42
2009/04/23 16:14:17.0       1     27    -26     28     38   2.7 -56.4  34238  290.91 0854.42
2009/04/23 16:14:17.1       0     16      0     17     18 357.3  -2.2  34230  290.77 0854.42
2009/04/23 16:14:17.2      -1     16     18     17     24 355.5  48.2  34228  290.72 0854.42
2009/04/23 16:14:17.3       5     25     39     26     46  11.6  63.6  34214  290.50 0854.42
2009/04/23 16:14:17.4     -12     25     28     28     39 334.6  50.1  34214  290.50 0854.40
2009/04/23 16:14:17.5      32     -9     58     34     67 106.8  66.8  34200  290.25 0854.40
2009/04/23 16:14:17.6      60    -24     65     65     91 111.7  50.1  34196  290.18 0854.40
2009/04/23 16:14:17.7       3    -48     85     49     98 176.4  67.2  34198  290.21 0854.40
2009/04/23 16:14:17.8     -38    -87    119     95    152 203.6  56.4  34176  289.85 0854.40
2009/04/23 16:14:17.9     -43   -172    138    178    225 194.3  41.7  34168  289.72 0854.40
2009/04/23 16:14:18.0      -4   -179    193    180    263 181.4  52.1  34186  290.02 0854.40
2009/04/23 16:14:18.1      12    -92    156     93    181 172.4  66.8  34194  290.16 0854.40
2009/04/23 16:14:18.2       2    -85    132     86    157 178.6  63.9  34202  290.30 0854.40
2009/04/23 16:14:18.3     -74   -111    166    134    213 213.8  56.9  34182  289.96 0854.40
2009/04/23 16:14:18.4     -78   -196    196    212    288 201.8  47.9  34192  290.10 0854.40
2009/04/23 16:14:18.5     -61   -183    167    194    255 198.5  45.1  34200  290.26 0854.40
2009/04/23 16:14:18.6     -72   -161    128    177    218 204.3  39.5  34200  290.25 0854.40
2009/04/23 16:14:18.7    -114   -127     94    172    196 221.9  31.0  34204  290.31 0854.40
2009/04/23 16:14:18.8    -130   -147    101    197    221 221.4  29.3  34236  290.87 0854.40
2009/04/23 16:14:18.9    -149   -110     56    186    195 233.6  16.8  34262  291.30 0854.40
2009/04/23 16:14:19.0    -177   -125     51    217    223 234.7  13.2  34266  291.37 0854.40
2009/04/23 16:14:19.1    -136   -112     88    177    197 230.7  28.2  34220  290.60 0854.40
2009/04/23 16:14:19.2     -80   -125    123    149    193 212.6  43.7  34208  290.40 0854.40
2009/04/23 16:14:19.3    -177    -32     -8    180    181 259.6  -2.8  34282  291.66 0854.40
2009/04/23 16:14:19.4    -178    -28     30    181    184 260.8   9.5  34296  291.88 0854.39
2009/04/23 16:14:19.5    -188     32     43    191    196 279.7  12.9  34288  291.74 0854.39
2009/04/23 16:14:19.6    -183     31     44    186    192 279.9  13.5  34234  290.84 0854.39
2009/04/23 16:14:19.7    -176     54     66    185    196 287.1  20.2  34272  291.49 0854.39
2009/04/23 16:14:19.8     -79     31     99     86    131 291.7  54.3  34264  291.35 0854.39
2009/04/23 16:14:19.9    -124     67     98    142    172 298.4  37.8  34244  291.01 0854.39
2009/04/23 16:14:20.0     -57    111     91    125    154 332.8  39.7  34284  291.67 0854.39
2009/04/23 16:14:20.1    -103    108     57    150    160 316.3  21.5  34290  291.79 0854.39
2009/04/23 16:14:20.2     -28     77     94     83    125 340.0  54.2  34324  292.35 0854.39
2009/04/23 16:14:20.3     -20     86     89     89    125 346.6  50.1  34316  292.23 0854.39
2009/04/23 16:14:20.4      -2    172    114    173    207 359.1  36.3  34320  292.29 0854.39
2009/04/23 16:14:20.5     -25    201    123    203    237 352.7  34.2  34346  292.75 0854.39
2009/04/23 16:14:20.6      17    193    129    194    232   5.1  36.5  34356  292.92 0854.39
2009/04/23 16:14:20.7     -22    211    161    213    267 354.0  40.7  34348  292.76 0854.39
2009/04/23 16:14:20.8     -94    217    202    237    311 336.6  44.8  34340  292.64 0854.39
2009/04/23 16:14:20.9     -84    217     98    233    252 338.8  24.1  34340  292.62 0854.39
2009/04/23 16:14:21.0     -58    207     93    216    235 344.2  24.9  34384  293.38 0854.39
2009/04/23 16:14:21.1     -49    220     52    226    233 347.3  13.1  34378  293.29 0854.39
2009/04/23 16:14:21.2     -51    221      6    227    228 346.9   1.6  34348  292.78 0854.39
2009/04/23 16:14:21.3     -58    169    -50    179    185 340.8 -20.2  34328  292.44 0854.39
2009/04/23 16:14:21.4       0    132     -5    133    134   0.0  -2.2  34346  292.75 0854.39
2009/04/23 16:14:21.5      20     88    -11     91     92  12.9  -7.3  34348  292.76 0854.39
2009/04/23 16:14:21.6      25     79     25     84     88  17.8  16.8  34362  293.02 0854.39
2009/04/23 16:14:21.7      55    130     39    142    148  23.2  15.3  34362  293.02 0854.39
2009/04/23 16:14:21.8     -77    122     78    145    164 327.5  30.6  34370  293.14 0854.39
2009/04/23 16:14:21.9     -81    136    112    159    194 329.3  38.6  34382  293.36 0854.39
2009/04/23 16:14:22.0     -92    210    111    230    255 336.3  27.3  34340  292.62 0854.39
2009/04/23 16:14:22.1     -70    214     78    226    240 341.7  19.2  34300  291.96 0854.39
2009/04/23 16:14:22.2      15    207    107    208    233   4.2  29.3  34366  293.07 0854.39
2009/04/23 16:14:22.3     -24    182    108    184    213 352.4  33.5  34350  292.81 0854.39
2009/04/23 16:14:22.4     -28    203     57    206    214 352.0  15.6  34308  292.10 0854.39
2009/04/23 16:14:22.5     -31    225     82    228    242 352.0  20.7  34284  291.68 0854.39
2009/04/23 16:14:22.6     -72    205     59    218    227 340.6  15.3  34260  291.28 0854.39
2009/04/23 16:14:22.7     -24    248     87    250    265 354.4  19.2  34280  291.60 0854.39
2009/04/23 16:14:22.8     -13    246     66    247    256 356.9  15.0  34284  291.67 0854.39
2009/04/23 16:14:22.9       8    225      7    226    227   2.2   1.8  34296  291.88 0854.39
2009/04/23 16:14:23.0     -86    288     22    301    302 343.3   4.2  34260  291.27 0854.39
2009/04/23 16:14:23.1    -143    320    -13    351    352 335.8  -2.2  34242  290.96 0854.39
2009/04/23 16:14:23.2     -90    323     17    336    337 344.3   3.0  34264  291.35 0854.39
2009/04/23 16:14:23.3     -86    285     19    298    299 343.1   3.8  34262  291.29 0854.39
2009/04/23 16:14:23.4    -122    258     -5    286    287 334.7  -1.2  34292  291.82 0854.39
2009/04/23 16:14:23.5    -139    233     13    272    273 329.2   2.9  34284  291.67 0854.39
2009/04/23 16:14:23.6     -84    212    -21    229    231 338.4  -5.4  34296  291.89 0854.39
2009/04/23 16:14:23.7     -33    257     -8    260    261 352.7  -1.8  34300  291.96 0854.39
2009/04/23 16:14:23.8     -42    247      5    251    252 350.2   1.2  34330  292.47 0854.39
2009/04/23 16:14:23.9     -18    212     33    213    216 354.9   8.8  34390  293.50 0854.39
2009/04/23 16:14:24.0      -2    157     89    158    181 359.0  31.6  34364  293.04 0854.39
2009/04/23 16:14:24.1      16    215     98    216    237   4.5  26.2  34346  292.75 0854.39
2009/04/23 16:14:24.2     103    213     24    237    239  25.9   5.9  34324  292.36 0854.39
2009/04/23 16:14:24.3      93    169     53    194    202  28.9  15.3  34320  292.29 0854.39
2009/04/23 16:14:24.4     114    113     69    161    175  45.2  24.6  34326  292.40 0854.39
2009/04/23 16:14:24.5     143     91     83    170    189  57.4  27.4  34332  292.51 0854.39
2009/04/23 16:14:24.6     182     61     17    193    194  71.4   5.2  34360  292.98 0854.39
2009/04/23 16:14:24.7     104     80    102    132    166  52.3  42.0  34366  293.09 0854.39
2009/04/23 16:14:24.8     157     87    137    180    226  60.9  41.4  34380  293.33 0854.39
2009/04/23 16:14:24.9     208    102    114    232    258  63.8  28.2  34356  292.91 0854.39
2009/04/23 16:14:25.0     303    101    111    320    339  71.6  19.2  34340  292.63 0854.39
2009/04/23 16:14:25.1     229    145    125    272    299  57.6  26.4  34320  292.30 0854.39
2009/04/23 16:14:25.2     229    126    106    262    282  61.1  23.1  34282  291.65 0854.39
2009/04/23 16:14:25.3     193     47     58    199    208  76.1  16.3  34224  290.67 0854.39
2009/04/23 16:14:25.4     174    177     91    249    265  44.5  21.0  34278  291.58 0854.41
2009/04/23 16:14:25.5     152    284     87    323    335  28.1  15.1  34260  291.27 0854.41
2009/04/23 16:14:25.6     161    252     58    300    306  32.5  11.1  34232  290.80 0854.41
2009/04/23 16:14:25.7     171    227     40    285    288  37.0   8.0  34228  290.71 0854.41
2009/04/23 16:14:25.8     169    218     17    276    277  37.8   3.6  34220  290.58 0854.41
2009/04/23 16:14:25.9     154    211     -2    262    263  36.1  -0.5  34210  290.42 0854.41
2009/04/23 16:14:26.0     156    197     35    252    255  38.5   8.0  34214  290.49 0854.41
2009/04/23 16:14:26.1     268    198     43    334    337  53.5   7.5  34262  291.32 0854.41
2009/04/23 16:14:26.2     239    206     37    316    319  49.3   6.7  34246  291.04 0854.41
2009/04/23 16:14:26.3     216    189    -11    288    289  48.9  -2.2  34182  289.93 0854.41
2009/04/23 16:14:26.4     221    146    -27    266    268  56.5  -6.0  34162  289.59 0854.41
2009/04/23 16:14:26.5     311    126    -58    336    342  67.9  -9.8  34158  289.55 0854.41
2009/04/23 16:14:26.6     293    150   -107    330    348  62.8 -18.0  34168  289.71 0854.41
2009/04/23 16:14:26.7     392    135    -72    415    422  70.9  -9.9  34136  289.16 0854.41
2009/04/23 16:14:26.8     413    148   -142    440    463  70.2 -17.9  34138  289.19 0854.41
2009/04/23 16:14:26.9     456     66    -44    461    464  81.7  -5.5  34160  289.56 0854.41
2009/04/23 16:14:27.0     403    144    -54    429    433  70.3  -7.2  34136  289.17 0854.41
2009/04/23 16:14:27.1     398    174    -39    435    437  66.4  -5.2  34148  289.36 0854.41
2009/04/23 16:14:27.2     326    199     10    383    384  58.6   1.6  34144  289.30 0854.41
2009/04/23 16:14:27.3     359    194     42    409    412  61.6   5.9  34146  289.34 0854.41
2009/04/23 16:14:27.4     342    188     -7    391    392  61.1  -1.1  34172  289.79 0854.40
2009/04/23 16:14:27.5     414    171     52    449    453  67.5   6.7  34182  289.94 0854.40
2009/04/23 16:14:27.6     462    154     61    488    492  71.5   7.2  34182  289.93 0854.40
2009/04/23 16:14:27.7     450    105     -4    463    464  76.8  -0.6  34180  289.92 0854.40
2009/04/23 16:14:27.8     369    213    -16    427    428  60.0  -2.2  34170  289.73 0854.40
2009/04/23 16:14:27.9     358    249     -1    437    438  55.2  -0.2  34166  289.68 0854.40
2009/04/23 16:14:28.0     410    174     21    446    447  67.0   2.8  34176  289.83 0854.40
2009/04/23 16:14:28.1     299    285     39    414    416  46.4   5.4  34168  289.70 0854.40
2009/04/23 16:14:28.2     328    287     52    436    440  48.8   6.8  34160  289.58 0854.40
2009/04/23 16:14:28.3     230    222     16    320    321  46.0   2.9  34160  289.56 0854.40
2009/04/23 16:14:28.4     199    281     79    345    354  35.4  12.9  34158  289.54 0854.40
2009/04/23 16:14:28.5     133    264     30    296    298  26.7   5.9  34166  289.68 0854.40
2009/04/23 16:14:28.6     170    234     56    290    296  36.0  11.0  34150  289.41 0854.40
2009/04/23 16:14:28.7     214    190     56    287    293  48.4  11.1  34148  289.37 0854.40
2009/04/23 16:14:28.8     220    191     35    292    295  49.1   6.9  34148  289.36 0854.40
2009/04/23 16:14:28.9     225    172    -18    284    285  52.7  -3.7  34150  289.41 0854.40
2009/04/23 16:14:29.0     182    119    -43    218    223  56.9 -11.3  34144  289.30 0854.40
2009/04/23 16:14:29.1     137    189     24    234    236  36.1   6.0  34136  289.15 0854.40
2009/04/23 16:14:29.2     139    191     -6    237    238  36.1  -1.6  34138  289.20 0854.40
2009/04/23 16:14:29.3     185    158    -33    244    247  49.5  -7.7  34138  289.19 0854.40
2009/04/23 16:14:29.4     166    188    -71    252    262  41.4 -15.8  34134  289.14 0854.38
2009/04/23 16:14:29.5     207    123    -37    241    244  59.3  -8.8  34132  289.10 0854.38
2009/04/23 16:14:29.6     233    123    -27    264    266  62.0  -6.0  34122  288.93 0854.38
2009/04/23 16:14:29.7     215    133    -23    254    256  58.2  -5.2  34142  289.25 0854.38
2009/04/23 16:14:29.8     242    121    -10    271    272  63.4  -2.3  34132  289.09 0854.38
2009/04/23 16:14:29.9     236     93      2    254    255  68.3   0.5  34124  288.97 0854.38
2009/04/23 16:14:30.0     246     49      4    251    252  78.6   1.0  34120  288.90 0854.38
2009/04/23 16:14:30.1     247     53     -9    253    254  77.7  -2.2  34116  288.81 0854.38
2009/04/23 16:14:30.2     232     76     -5    245    246  71.8  -1.3  34116  288.81 0854.38
2009/04/23 16:14:30.3     232     81     -1    246    247  70.7  -0.3  34114  288.80 0854.38
2009/04/23 16:14:30.4     211     97     19    233    234  65.2   4.9  34122  288.92 0854.38
2009/04/23 16:14:30.5     203    100     11    227    228  63.6   2.8  34120  288.91 0854.38
2009/04/23 16:14:30.6     215     77     23    229    231  70.3   5.9  34116  288.84 0854.38
2009/04/23 16:14:30.7     199     68     25    211    213  70.9   6.9  34124  288.97 0854.38
2009/04/23 16:14:30.9     239     90     70    256    266  69.2  15.3  34180  289.92 0854.38
2009/04/23 16:14:31.0     255     63     61    263    271  76.1  13.1  34240  290.92 0854.38
2009/04/23 16:14:31.1     251     98     73    270    280  68.7  15.3  34248  291.07 0854.38
2009/04/23 16:14:31.2     316     87     88    328    340  74.6  15.1  34202  290.27 0854.38
2009/04/23 16:14:31.3     299     98     99    315    331  71.8  17.5  34176  289.83 0854.38
2009/04/23 16:14:31.4     268     75     95    279    295  74.3  18.9  34208  290.39 0854.38
2009/04/23 16:14:31.5     293     87     72    306    315  73.4  13.2  34238  290.90 0854.36
2009/04/23 16:14:31.6     354    109     32    371    373  72.8   5.0  34272  291.47 0854.36
2009/04/23 16:14:31.7     338     93    102    351    366  74.5  16.3  34244  291.01 0854.36
2009/04/23 16:14:31.8     306     74    146    315    347  76.3  26.9  34270  291.44 0854.36
2009/04/23 16:14:31.9     205   -112    116    234    261 118.6  28.2  34270  291.43 0854.36
2009/04/23 16:14:32.0     161    -73    123    177    215 114.4  38.6  34276  291.55 0854.36
2009/04/23 16:14:32.1     162    -50     81    170    188 107.3  27.3  34274  291.50 0854.36
2009/04/23 16:14:32.2     186    -50    109    193    221 105.3  31.9  34294  291.86 0854.36
2009/04/23 16:14:32.3     178    -13     82    179    196  94.3  26.2  34292  291.81 0854.36
2009/04/23 16:14:32.4     172    -41    111    177    208 103.5  35.5  34276  291.54 0854.36
2009/04/23 16:14:32.5     200     15    152    201    252  85.7  40.7  34298  291.90 0854.36
2009/04/23 16:14:32.6     242     69    134    252    285  74.1  30.2  34308  292.07 0854.36
2009/04/23 16:14:32.7     175     51    183    183    258  73.6  50.1  34344  292.69 0854.36
2009/04/23 16:14:32.8     214     50    206    220    301  76.8  48.0  34356  292.91 0854.36
2009/04/23 16:14:32.9     177     16    200    178    267  84.8  53.7  34330  292.45 0854.36
2009/04/23 16:14:33.0     236     67    152    246    289  74.0  34.8  34196  290.17 0854.36
2009/04/23 16:14:33.1     258     90    142    274    308  70.7  29.3  34206  290.34 0854.36
2009/04/23 16:14:33.2     252    114    131    277    306  65.6  27.1  34222  290.63 0854.36
2009/04/23 16:14:33.3     240     68    135    250    284  74.1  30.6  34298  291.92 0854.36
2009/04/23 16:14:33.4     237     33    100    240    260  82.1  24.1  34270  291.43 0854.36
2009/04/23 16:14:33.5     208     41    109    213    239  78.8  29.3  34260  291.28 0854.33
2009/04/23 16:14:33.6     210    109     96    237    255  62.5  23.1  34184  289.97 0854.33
2009/04/23 16:14:33.7     211    127     89    247    262  58.9  20.7  34296  291.87 0854.33
2009/04/23 16:14:33.8     230    146    103    273    291  57.6  21.5  34248  291.05 0854.33
2009/04/23 16:14:33.9     209    109    105    236    258  62.5  25.3  34210  290.42 0854.33
2009/04/23 16:14:34.0     253    116    135    279    309  65.4  27.3  34252  291.12 0854.33
2009/04/23 16:14:34.1     283     13    118    284    307  87.2  23.8  34222  290.61 0854.33
2009/04/23 16:14:34.2     229     10    123    230    260  87.4  30.3  34224  290.66 0854.33
2009/04/23 16:14:34.3     186    -15     66    187    199  94.8  19.4  34214  290.48 0854.33
2009/04/23 16:14:34.4     213      9     51    214    221  87.4  13.5  34230  290.75 0854.33
2009/04/23 16:14:34.5     213     13     13    214    215  86.5   3.6  34226  290.69 0854.31
2009/04/23 16:14:34.6     193     61    -11    203    204  72.3  -3.1  34222  290.64 0854.31
2009/04/23 16:14:34.7     177    110     25    209    211  58.0   6.9  34246  291.04 0854.31
2009/04/23 16:14:34.8     156     42     69    162    176  74.7  24.3  34266  291.38 0854.31
2009/04/23 16:14:34.9     140     10    125    141    188  85.6  46.4  34280  291.62 0854.31
2009/04/23 16:14:35.0     161      0     90    162    185  90.0  31.4  34236  290.86 0854.31
2009/04/23 16:14:35.1     183     31    114    186    218  80.3  34.4  34242  290.98 0854.31
2009/04/23 16:14:35.2     148     36    107    153    186  76.3  38.6  34264  291.35 0854.31
2009/04/23 16:14:35.3     170     40    116    175    209  76.7  36.5  34282  291.66 0854.31
2009/04/23 16:14:35.4     169     58    146    179    230  70.9  43.7  34302  291.98 0854.31
2009/04/23 16:14:35.5     179     87    135    200    241  64.0  37.3  34292  291.83 0854.31
2009/04/23 16:14:35.6     247    103    156    268    310  67.2  33.1  34320  292.28 0854.31
2009/04/23 16:14:35.7     212    127    147    248    288  59.1  33.5  34290  291.78 0854.31
2009/04/23 16:14:35.8     211     86    141    228    268  67.8  34.8  34302  291.99 0854.31
2009/04/23 16:14:35.9     155    112    102    192    217  54.0  30.6  34234  290.82 0854.31
2009/04/23 16:14:36.0     118    110    121    162    202  46.9  40.4  34220  290.60 0854.31
2009/04/23 16:14:36.1     118    139    113    183    215  40.3  35.0  34182  289.94 0854.31
2009/04/23 16:14:36.2     165    127    104    209    233  52.3  28.2  34192  290.11 0854.31
2009/04/23 16:14:36.3     162    119     83    202    218  53.6  23.1  34202  290.30 0854.31
2009/04/23 16:14:36.4     142     81     84    164    184  60.2  29.3  34244  290.99 0854.29
2009/04/23 16:14:36.5     151     86    128    175    216  60.2  39.7  34248  291.06 0854.29
2009/04/23 16:14:36.6      30     55    105     63    122  29.0  66.7  34258  291.25 0854.29
2009/04/23 16:14:36.7     149    148     95    211    231  45.1  25.9  34244  290.99 0854.29
2009/04/23 16:14:36.8      94    206    106    227    250  24.5  27.0  34150  289.41 0854.29
2009/04/23 16:14:36.9      75    222     76    235    248  18.7  17.9  34150  289.41 0854.29
2009/04/23 16:14:37.0     144    139     29    201    204  46.0   8.2  34198  290.23 0854.29
2009/04/23 16:14:37.1     113    120     53    166    175  43.2  17.7  34200  290.26 0854.29
2009/04/23 16:14:37.2      62     93     73    113    134  33.8  35.6  34206  290.35 0854.29
2009/04/23 16:14:37.3      16    139     25    140    143   6.7  10.1  34192  290.11 0854.29
2009/04/23 16:14:37.4      37    152     -6    157    158  13.8  -2.3  34220  290.60 0854.29
2009/04/23 16:14:37.5      42    126     21    133    135  18.5   9.0  34222  290.64 0854.29
2009/04/23 16:14:37.6      99    128     -6    163    164  37.8  -2.2  34216  290.53 0854.29
2009/04/23 16:14:37.7     152    124     50    197    204  50.7  14.3  34210  290.43 0854.29
2009/04/23 16:14:37.8     151    171     56    229    236  41.4  13.9  34170  289.75 0854.29
2009/04/23 16:14:37.9     102    243     31    264    266  22.9   6.9  34174  289.80 0854.29
2009/04/23 16:14:38.0      61    225     28    234    236  15.2   6.9  34220  290.59 0854.29
2009/04/23 16:14:38.1      48    237     34    243    246  11.6   8.0  34208  290.39 0854.29
2009/04/23 16:14:38.2     143    165      0    219    220  41.0   0.0  34178  289.89 0854.29
2009/04/23 16:14:38.3      92    168      4    192    193  28.9   1.2  34166  289.67 0854.29
2009/04/23 16:14:38.4      73    149     30    166    169  26.1  10.3  34152  289.43 0854.29
2009/04/23 16:14:38.5     124    147    -30    193    196  40.1  -8.8  34176  289.84 0854.29
2009/04/23 16:14:38.6      94    179      1    203    204  27.9   0.5  34172  289.79 0854.29
2009/04/23 16:14:38.7     133    163     48    211    217  39.2  12.9  34204  290.31 0854.29
2009/04/23 16:14:38.8     154    128     41    201    206  50.4  11.6  34254  291.16 0854.29
2009/04/23 16:14:38.9     130    163     19    209    210  38.5   5.4  34280  291.62 0854.29
2009/04/23 16:14:39.0     104    204     -4    230    231  27.0  -1.1  34244  290.99 0854.29
2009/04/23 16:14:39.1     157    216     18    268    269  36.1   3.9  34286  291.72 0854.29
2009/04/23 16:14:39.2     199    172     46    264    269  49.1   9.9  34348  292.76 0854.29
2009/04/23 16:14:39.3      64    194     10    205    206  18.5   2.9  34218  290.55 0854.29
2009/04/23 16:14:39.4     103    124      2    162    163  39.6   1.0  34254  291.16 0854.29
2009/04/23 16:14:39.5      46     98    -22    109    112  25.3 -11.3  34240  290.94 0854.29
2009/04/23 16:14:39.6     -33    102    -51    108    119 342.2 -31.6  34202  290.30 0854.29
2009/04/23 16:14:39.7      16     87    -43     89     98  10.7 -32.2  34182  289.96 0854.29
2009/04/23 16:14:39.8      50     93    -41    106    113  28.5 -26.4  34182  289.94 0854.29
2009/04/23 16:14:39.9      91     85    -47    125    133  46.9 -25.4  34174  289.80 0854.29
2009/04/23 16:14:40.0     116    123    -13    170    171  43.4  -4.6  34168  289.72 0854.29
2009/04/23 16:14:40.1     103    103     -1    146    147  45.1  -0.7  34194  290.14 0854.29
2009/04/23 16:14:40.2     128     86     -3    155    156  55.9  -1.3  34170  289.74 0854.29
2009/04/23 16:14:40.3     136     75     -8    156    157  61.2  -3.3  34156  289.50 0854.29
2009/04/23 16:14:40.4     171     81     10    190    191  64.7   3.1  34164  289.63 0854.30
2009/04/23 16:14:40.5     160     65      1    173    174  67.8   0.5  34158  289.55 0854.30
2009/04/23 16:14:40.6     152     75     32    170    174  63.8  10.8  34156  289.50 0854.30
2009/04/23 16:14:40.7     126     80     29    150    153  57.6  11.1  34154  289.48 0854.30
2009/04/23 16:14:40.8     114     72     -7    135    136  57.6  -3.1  34156  289.50 0854.30
2009/04/23 16:14:40.9     122     67    -43    140    146  61.1 -21.8  34170  289.75 0854.30
2009/04/23 16:14:41.0     137     86    -44    162    167  57.8 -20.0  34174  289.80 0854.30
2009/04/23 16:14:41.1     148     89    -50    174    182  58.9 -16.0  34170  289.74 0854.30
2009/04/23 16:14:41.2     133    108    -53    172    179  50.7 -22.3  34180  289.91 0854.30
2009/04/23 16:14:41.3     121     91    -22    152    154  53.1  -8.2  34176  289.85 0854.30
2009/04/23 16:14:41.4     131    133    -66    187    198  44.5 -24.6  34186  290.02 0854.30
2009/04/23 16:14:41.5     129     77    -31    151    155  59.3 -11.9  34172  289.77 0854.30
2009/04/23 16:14:41.6     171     57      5    181    182  71.6   1.6  34168  289.70 0854.30
2009/04/23 16:14:41.7     160     48    -25    168    170  73.4  -8.6  34176  289.85 0854.30
2009/04/23 16:14:41.8     189     60     59    199    208  72.3  16.6  34176  289.85 0854.30
2009/04/23 16:14:41.9     156    162    -50    225    231  43.9 -12.6  34182  289.96 0854.30
2009/04/23 16:14:42.0     170    113    -62    205    215  56.5 -16.8  34184  289.97 0854.30
2009/04/23 16:14:42.1     228    112    -90    255    270  63.8 -24.4  34168  289.71 0854.30
2009/04/23 16:14:42.2     161    123    -85    203    220  52.7 -28.5  34184  289.99 0854.30
2009/04/23 16:14:42.3     150    154    -73    216    229  44.3 -18.7  34188  290.04 0854.30
2009/04/23 16:14:42.4     257    147    -43    297    301  60.2  -8.2  34186  290.00 0854.31
2009/04/23 16:14:42.5     228    162    -77    280    291  54.5 -15.4  34188  290.03 0854.31
2009/04/23 16:14:42.6     221     80     59    236    244  70.1  14.2  34186  290.02 0854.31
2009/04/23 16:14:42.7     178    169    -58    246    253  46.4 -13.4  34196  290.17 0854.31
2009/04/23 16:14:42.8     172    141    -46    223    228  50.5 -11.9  34204  290.31 0854.31
2009/04/23 16:14:42.9     201    201     21    285    286  44.9   4.2  34184  289.97 0854.31
2009/04/23 16:14:43.0     258    198     43    326    329  52.5   7.6  34184  289.98 0854.31
2009/04/23 16:14:43.1     225    169    -40    282    285  53.2  -8.3  34198  290.20 0854.31
2009/04/23 16:14:43.2     244    117    -75    271    281  64.2 -20.2  34200  290.24 0854.31
2009/04/23 16:14:43.3     225     67    -64    235    243  73.2 -20.0  34208  290.37 0854.31
2009/04/23 16:14:43.4     121      9    -46    122    130  85.7 -25.9  34208  290.40 0854.31
2009/04/23 16:14:43.5      68     45    -86     82    118  56.7 -55.6  34208  290.40 0854.31
2009/04/23 16:14:43.6      71     42    -52     83     97  58.9 -39.9  34210  290.41 0854.31
2009/04/23 16:14:43.7      54     91    -45    106    115  30.7 -28.5  34206  290.35 0854.31
2009/04/23 16:14:43.8     116     96    -44    151    158  50.4 -16.4  34188  290.04 0854.31
2009/04/23 16:14:43.9     153     50    -69    162    176  71.8 -28.7  34192  290.11 0854.31
2009/04/23 16:14:44.0     122     62    -76    138    157  63.0 -35.8  34204  290.33 0854.31
2009/04/23 16:14:44.1     133    107    -62    171    181  51.1 -25.1  34202  290.28 0854.31
2009/04/23 16:14:44.2     165     60    -60    176    187  69.8 -18.9  34194  290.16 0854.31
2009/04/23 16:14:44.3     186     72    -18    200    201  68.7  -5.2  34214  290.48 0854.31
2009/04/23 16:14:44.4     171     64     17    183    184  69.4   5.4  34230  290.75 0854.33
2009/04/23 16:14:44.5     146     76     61    165    175  62.5  21.3  34200  290.26 0854.33
2009/04/23 16:14:44.6      48    142      2    150    151  18.7   0.8  34198  290.21 0854.33
2009/04/23 16:14:44.7     152    126      4    198    199  50.4   1.2  34198  290.21 0854.33
2009/04/23 16:14:44.8     206    104     42    232    236  63.1  10.3  34160  289.56 0854.33
2009/04/23 16:14:44.9     255     64     56    263    270  75.8  12.2  34176  289.85 0854.33
2009/04/23 16:14:45.0     229     69    121    240    268  73.2  28.5  34192  290.12 0854.33
2009/04/23 16:14:45.1     174     99    132    201    240  60.5  36.5  34160  289.58 0854.33
2009/04/23 16:14:45.2     132     57     65    145    158  66.5  25.9  34166  289.67 0854.33
2009/04/23 16:14:45.3     104     17     41    106    113  80.3  22.0  34176  289.85 0854.33
2009/04/23 16:14:45.4      84     26     70     89    113  72.7  42.7  34196  290.19 0854.33
2009/04/23 16:14:45.5      45     48     84     67    107  43.2  56.9  34202  290.28 0854.33
2009/04/23 16:14:45.6      49     52     39     72     81  43.2  30.8  34194  290.14 0854.33
2009/04/23 16:14:45.7      64     63    -31     90     96  45.4 -19.1  34204  290.31 0854.33
2009/04/23 16:14:45.8      96     61    -11    114    115  57.5  -5.6  34198  290.23 0854.33
2009/04/23 16:14:45.9     105     45      5    115    116  66.9   2.8  34200  290.25 0854.33
2009/04/23 16:14:46.0     104     41     20    112    114  68.3  10.1  34202  290.28 0854.33
2009/04/23 16:14:46.1     109     35     31    115    120  71.8  15.3  34200  290.25 0854.33
2009/04/23 16:14:46.2     110     57     11    125    126  62.5   5.4  34198  290.23 0854.33
2009/04/23 16:14:46.3     103     73     15    127    128  54.5   6.9  34198  290.23 0854.33
2009/04/23 16:14:46.4     113     35     14    119    120  72.7   6.9  34198  290.23 0854.34
2009/04/23 16:14:46.5     118     36      1    124    125  73.1   0.8  34198  290.21 0854.34
2009/04/23 16:14:46.6     137     15    -27    138    141  83.4 -11.3  34198  290.21 0854.34
2009/04/23 16:14:46.7     128     -4    -11    129    130  92.1  -5.1  34194  290.16 0854.34
2009/04/23 16:14:46.8     151     11      7    152    153  85.6   2.8  34174  289.80 0854.34
2009/04/23 16:14:46.9     201     31      2    204    205  81.0   0.8  34164  289.65 0854.34
2009/04/23 16:14:47.0     224     63    -38    233    237  74.3  -9.3  34186  290.02 0854.34
2009/04/23 16:14:47.1     132     57     39    144    150  66.5  15.3  34190  290.08 0854.34
2009/04/23 16:14:47.2     118     39    107    125    164  71.8  45.1  34222  290.62 0854.34
2009/04/23 16:14:47.3     128     16     93    130    159  82.5  39.1  34190  290.09 0854.34
2009/04/23 16:14:47.4     178     36    195    182    266  78.5  52.2  34278  291.58 0854.34
2009/04/23 16:14:47.5     130     35    206    135    246  74.9  63.9  34250  291.09 0854.34
2009/04/23 16:14:47.6     161     26    220    164    274  80.8  59.6  34228  290.73 0854.34
2009/04/23 16:14:47.7      42      8    118     43    125  78.5  79.7  34260  291.26 0854.34
2009/04/23 16:14:47.8     155     31    147    159    216  78.5  47.9  34164  289.65 0854.34
2009/04/23 16:14:47.9     114    -40    139    121    184 109.5  54.6  34198  290.23 0854.34
2009/04/23 16:14:48.0     144    -57    122    156    198 111.8  42.0  34194  290.16 0854.34
2009/04/23 16:14:48.1      44    -48    124     66    140 137.7  69.3  34212  290.45 0854.34
2009/04/23 16:14:48.2      80    -67    124    105    162 130.0  55.4  34214  290.50 0854.34
2009/04/23 16:14:48.3      27    -25     64     38     74 133.1  64.7  34224  290.67 0854.34
2009/04/23 16:14:48.4      86    -97     72    130    148 138.6  31.4  34210  290.41 0854.35
2009/04/23 16:14:48.5      -5   -124    116    125    170 182.7  47.7  34210  290.41 0854.35
2009/04/23 16:14:48.6      50   -186     96    193    215 164.8  28.2  34204  290.33 0854.35
2009/04/23 16:14:48.7      46   -205     95    211    231 167.3  25.9  34198  290.21 0854.35
2009/04/23 16:14:48.8      -5   -212    113    213    241 181.4  30.2  34196  290.19 0854.35
2009/04/23 16:14:48.9      -3   -236    104    237    258 180.9  25.2  34198  290.22 0854.35
2009/04/23 16:14:49.0     -12   -332    150    333    365 182.2  25.9  34206  290.35 0854.35
2009/04/23 16:14:49.1     -36   -314    112    317    337 186.6  19.5  34214  290.49 0854.35
2009/04/23 16:14:49.2     -57   -303    107    309    328 190.7  19.2  34208  290.39 0854.35
2009/04/23 16:14:49.3     -48   -249    122    254    281 191.1  27.4  34206  290.34 0854.35
2009/04/23 16:14:49.4     -10   -236    108    237    260 182.6  26.2  34210  290.42 0854.35
2009/04/23 16:14:49.5       0   -244     43    245    249 180.2  10.0  34202  290.27 0854.35
2009/04/23 16:14:49.6      50   -251    -60    256    263 168.7 -13.3  34194  290.15 0854.35
2009/04/23 16:14:49.7      31   -255    -33    257    260 172.9  -7.3  34192  290.12 0854.35
2009/04/23 16:14:49.8      41   -245    -32    249    252 170.3  -7.3  34188  290.05 0854.35
2009/04/23 16:14:49.9      72   -225    -21    237    238 162.2  -5.2  34172  289.76 0854.35
2009/04/23 16:14:50.0     -14   -236     26    237    239 183.6   6.5  34202  290.27 0854.35
2009/04/23 16:14:50.1      51   -249    -14    255    256 168.4  -3.1  34182  289.95 0854.35
2009/04/23 16:14:50.2      50   -248    -40    254    258 168.5  -9.0  34192  290.10 0854.35
2009/04/23 16:14:50.3      14   -255    -10    256    257 176.9  -2.2  34210  290.42 0854.35
2009/04/23 16:14:50.4      23   -246    -35    248    251 174.6  -8.2  34190  290.09 0854.36
2009/04/23 16:14:50.5      27   -229    -38    231    235 173.1  -9.3  34188  290.05 0854.36
2009/04/23 16:14:50.6      34   -228    -66    231    240 171.5 -20.7  34194  290.14 0854.36
2009/04/23 16:14:50.7       2   -230    -55    231    238 179.3 -13.4  34186  290.00 0854.36
2009/04/23 16:14:50.8     -20   -235    -34    236    239 185.1  -8.2  34186  290.02 0854.36
2009/04/23 16:14:50.9      14   -212    -38    213    217 176.2 -10.3  34166  289.69 0854.36
2009/04/23 16:14:51.0       6   -199    -57    200    207 178.2 -20.7  34160  289.58 0854.36
2009/04/23 16:14:51.1       0   -210    -58    211    219 180.2 -15.5  34174  289.82 0854.36
2009/04/23 16:14:51.2      -2   -189    -60    190    200 180.7 -17.5  34188  290.04 0854.36
2009/04/23 16:14:51.3      -4   -165    -61    166    176 181.6 -25.7  34224  290.65 0854.36
2009/04/23 16:14:51.4     -54   -148    -44    158    165 200.1 -15.5  34236  290.86 0854.36
2009/04/23 16:14:51.5     -46   -126    -39    135    140 200.1 -20.7  34226  290.69 0854.36
2009/04/23 16:14:51.6     -60   -109    -68    125    142 209.0 -35.7  34218  290.57 0854.36
2009/04/23 16:14:51.7    -101   -158    -13    188    189 212.7  -4.1  34204  290.33 0854.36
2009/04/23 16:14:51.8    -161   -160    -18    228    229 225.1  -4.6  34220  290.58 0854.36
2009/04/23 16:14:51.9    -204   -176     32    270    272 229.1   6.9  34228  290.71 0854.36
2009/04/23 16:14:52.0    -243   -154    -49    288    293 237.6  -9.8  34174  289.80 0854.36
2009/04/23 16:14:52.1    -215   -136    -77    255    266 237.5 -21.7  34136  289.17 0854.36
2009/04/23 16:14:52.2    -191   -137    -71    236    246 234.3 -21.7  34138  289.19 0854.36
2009/04/23 16:14:52.3    -206   -169    -84    267    281 230.7 -17.6  34132  289.10 0854.36
2009/04/23 16:14:52.4    -226   -199    -78    302    312 228.7 -14.5  34134  289.12 0854.36
2009/04/23 16:14:52.5    -194   -138    -76    239    250 234.5 -22.9  34134  289.14 0854.36
2009/04/23 16:14:52.6    -199   -135   -136    241    276 235.8 -36.3  34134  289.12 0854.36
2009/04/23 16:14:52.7    -182   -150    -87    236    251 230.5 -25.4  34134  289.14 0854.36
2009/04/23 16:14:52.8    -205   -156    -42    258    262 232.7  -9.4  34132  289.10 0854.36
2009/04/23 16:14:52.9    -194   -127    -35    233    236 236.7  -8.6  34156  289.49 0854.36
2009/04/23 16:14:53.0    -217   -119    -55    248    255 241.2 -12.6  34150  289.41 0854.36
2009/04/23 16:14:53.1    -197   -125    -64    234    243 237.5 -15.5  34140  289.22 0854.36
2009/04/23 16:14:53.2    -178   -138    -77    226    239 232.3 -18.9  34136  289.15 0854.36
2009/04/23 16:14:53.3    -171    -97    -56    197    205 240.5 -16.0  34136  289.16 0854.36
2009/04/23 16:14:53.4    -198    -86    -77    216    230 246.5 -19.7  34138  289.19 0854.36
2009/04/23 16:14:53.5    -187   -113    -65    219    229 238.9 -16.6  34144  289.30 0854.36
2009/04/23 16:14:53.6    -206    -86    -73    224    236 247.2 -18.1  34154  289.48 0854.36
2009/04/23 16:14:53.7    -214    -74    -80    227    241 250.9 -19.4  34142  289.25 0854.36
2009/04/23 16:14:53.8    -239    -84    -32    254    257 250.5  -7.2  34144  289.29 0854.36
2009/04/23 16:14:53.9    -227    -57    -76    235    248 255.8 -17.9  34146  289.34 0854.36
2009/04/23 16:14:54.0    -241    -80    -73    255    265 251.6 -20.7  34136  289.17 0854.36
2009/04/23 16:14:54.1    -208    -55    -74    216    229 255.0 -18.9  34140  289.23 0854.36
2009/04/23 16:14:54.2    -198    -80    -53    214    221 247.8 -13.9  34146  289.35 0854.36
2009/04/23 16:14:54.3    -228    -82    -41    243    247 250.1  -9.6  34134  289.14 0854.36
2009/04/23 16:14:54.4    -222    -77    -52    236    242 250.7 -12.6  34142  289.25 0854.38
2009/04/23 16:14:54.5    -221    -46    -44    226    231 258.1 -11.1  34160  289.57 0854.38
2009/04/23 16:14:54.6    -174    -74     -7    190    191 246.9  -2.2  34202  290.30 0854.38
2009/04/23 16:14:54.7    -156    -93     46    182    188 239.1  14.3  34208  290.38 0854.38
2009/04/23 16:14:54.8    -194    -49    -68    201    212 255.6 -23.3  34154  289.46 0854.38
2009/04/23 16:14:54.9    -200     -2    -76    201    214 269.2 -25.7  34152  289.43 0854.38
2009/04/23 16:14:55.0    -167    -21    -80    169    186 262.5 -31.5  34144  289.30 0854.38
2009/04/23 16:14:55.1    -158     -2   -111    159    193 269.1 -42.8  34140  289.24 0854.38
2009/04/23 16:14:55.2    -138     10    -58    139    150 274.3 -28.0  34168  289.70 0854.38
2009/04/23 16:14:55.3    -139    -18    -32    141    145 262.5 -12.9  34194  290.14 0854.38
2009/04/23 16:14:55.4    -137    -48    -18    146    148 250.5  -7.2  34202  290.28 0854.40
2009/04/23 16:14:55.5    -148    -69     35    164    168 244.8  12.2  34182  289.96 0854.40
2009/04/23 16:14:55.6    -136    -80     54    158    168 239.4  18.9  34168  289.70 0854.40
2009/04/23 16:14:55.7    -114    -57      1    128    129 243.4   0.8  34184  289.97 0854.40
2009/04/23 16:14:55.8     -95    -46    -13    106    107 243.8  -7.2  34190  290.08 0854.40
2009/04/23 16:14:55.9     -74    -44    -34     87     93 239.3 -26.4  34186  290.01 0854.40
2009/04/23 16:14:56.0    -204    -75      6    218    219 249.8   1.8  34198  290.21 0854.40
2009/04/23 16:14:56.1    -222    -69    -43    233    237 252.7 -10.5  34186  290.00 0854.40
2009/04/23 16:14:56.2    -218   -127     -9    253    254 239.8  -2.2  34156  289.49 0854.40
2009/04/23 16:14:56.3    -220   -101    -53    243    249 245.4 -12.4  34148  289.37 0854.40
2009/04/23 16:14:56.4    -192    -74    -78    206    220 248.9 -25.9  34148  289.38 0854.40
2009/04/23 16:14:56.5    -155    -63    -50    168    176 247.8 -16.8  34146  289.33 0854.40
2009/04/23 16:14:56.6    -166    -39    -61    171    181 256.5 -24.8  34146  289.35 0854.40
2009/04/23 16:14:56.7    -152    -16    -65    153    166 263.8 -29.0  34144  289.31 0854.40
2009/04/23 16:14:56.9    -163    -22    -77    165    182 262.3 -31.4  34146  289.35 0854.40
2009/04/23 16:14:56.9    -143    -37    -75    148    165 255.4 -33.5  34148  289.38 0854.40
2009/04/23 16:14:57.1    -131    -67    -65    148    161 243.0 -29.5  34154  289.46 0854.40
2009/04/23 16:14:57.1    -149    -48    -79    157    175 251.8 -33.1  34150  289.40 0854.40
2009/04/23 16:14:57.2    -156    -55    -80    166    184 250.5 -31.8  34150  289.40 0854.40
2009/04/23 16:14:57.3    -143    -68    -82    159    178 244.6 -33.9  34150  289.41 0854.40
2009/04/23 16:14:57.5    -109    -19    -98    111    148 259.9 -50.3  34150  289.40 0854.43
2009/04/23 16:14:57.6     -94    -67    -63    116    132 234.5 -35.2  34152  289.45 0854.43
2009/04/23 16:14:57.7     -83    -78    -78    115    138 226.9 -42.0  34150  289.40 0854.43
2009/04/23 16:14:57.8     -96    -72    -81    120    144 233.1 -41.4  34150  289.40 0854.43
2009/04/23 16:14:57.9     -87    -80    -78    119    142 227.3 -40.4  34150  289.41 0854.43
2009/04/23 16:14:58.0     -96    -73    -72    121    140 232.7 -37.9  34168  289.70 0854.43
2009/04/23 16:14:58.1     -84    -61    -64    105    122 234.0 -38.4  34176  289.85 0854.43
2009/04/23 16:14:58.2     -69    -22    -53     73     90 251.8 -44.1  34182  289.94 0854.43
2009/04/23 16:14:58.3     -54    -38    -24     67     71 234.9 -23.3  34176  289.85 0854.43
2009/04/23 16:14:58.4    -134    -42    -31    141    145 252.3 -12.4  34170  289.75 0854.43
2009/04/23 16:14:58.5    -131    -67    -26    148    151 243.0 -10.3  34176  289.84 0854.43
2009/04/23 16:14:58.6    -141    -56    -34    152    156 248.2 -12.9  34172  289.77 0854.43
2009/04/23 16:14:58.7    -180    -84    -18    199    200 244.9  -5.4  34172  289.79 0854.43
2009/04/23 16:14:58.8    -211    -99    -55    234    241 244.8 -13.3  34158  289.54 0854.43
2009/04/23 16:14:58.9    -206    -33   -114    209    238 260.8 -35.4  34148  289.36 0854.43
2009/04/23 16:14:59.0    -187    -98    -67    212    222 242.2 -22.5  34156  289.50 0854.43
2009/04/23 16:14:59.1    -108   -115    -44    158    165 223.2 -15.5  34150  289.41 0854.43
2009/04/23 16:14:59.2     -88   -121    -13    150    151 216.1  -5.2  34152  289.45 0854.43
2009/04/23 16:14:59.3     -79   -133     11    155    156 210.8   4.2  34156  289.50 0854.43
2009/04/23 16:14:59.4     -88   -141      3    167    168 211.9   1.2  34156  289.50 0854.43
2009/04/23 16:14:59.5    -157    -60    -53    169    177 249.2 -22.5  34172  289.79 0854.45
2009/04/23 16:14:59.6    -206    -23    -75    208    221 263.6 -24.8  34144  289.30 0854.45
2009/04/23 16:14:59.7    -168    -23    -80    170    187 261.9 -31.5  34152  289.43 0854.45
2009/04/23 16:14:59.8    -198    -97    -95    221    240 243.8 -29.3  34184  289.97 0854.45
2009/04/23 16:14:59.9    -113   -113   -120    160    200 225.0 -45.1  34182  289.94 0854.45
2009/04/23 16:15:00.0    -108   -132    -99    171    197 219.2 -37.3  34178  289.89 0854.45
2009/04/23 16:15:00.1     -78   -132    -89    154    177 210.7 -37.1  34174  289.82 0854.45
2009/04/23 16:15:00.2    -127   -127    -85    180    199 224.9 -31.5  34170  289.74 0854.45
2009/04/23 16:15:00.3     -77   -121    -61    144    156 212.6 -28.5  34152  289.45 0854.45
2009/04/23 16:15:00.4    -101   -213    -57    236    243 205.4 -13.7  34146  289.34 0854.45
2009/04/23 16:15:00.5     -72   -175    -80    190    206 202.5 -28.7  34148  289.36 0854.45
2009/04/23 16:15:00.6     -86   -166    -82    187    204 207.4 -29.5  34148  289.36 0854.45
2009/04/23 16:15:00.7    -101   -178    -79    205    219 209.6 -26.7  34166  289.67 0854.45
2009/04/23 16:15:00.8     -72   -171   -107    186    214 202.9 -37.1  34182  289.96 0854.45
2009/04/23 16:15:00.9     -57   -179   -109    189    218 197.8 -37.1  34174  289.80 0854.45
2009/04/23 16:15:01.0     -65   -173   -113    186    217 200.7 -38.6  34168  289.72 0854.45
2009/04/23 16:15:01.1     -27   -146   -153    149    213 190.7 -54.8  34166  289.69 0854.45
2009/04/23 16:15:01.2     -77   -176   -115    193    224 203.6 -38.1  34158  289.53 0854.45
2009/04/23 16:15:01.3     -85   -191    -99    210    232 204.1 -31.5  34154  289.48 0854.45
2009/04/23 16:15:01.4     -11   -188    -63    189    199 183.6 -23.6  34156  289.50 0854.45
2009/04/23 16:15:01.5     -29   -164    -83    167    186 190.0 -32.4  34154  289.46 0854.45
2009/04/23 16:15:01.6     -20   -191    -85    193    210 186.2 -29.6  34160  289.57 0854.45
2009/04/23 16:15:01.7     -14   -177   -117    178    213 184.7 -40.4  34158  289.55 0854.45
2009/04/23 16:15:01.8       0   -192   -102    193    218 180.0 -34.5  34152  289.45 0854.45
2009/04/23 16:15:01.9      13   -178    -83    179    197 175.5 -31.0  34152  289.43 0854.45
2009/04/23 16:15:02.0       9   -180    -52    181    188 177.1 -20.7  34148  289.36 0854.45
2009/04/23 16:15:02.1      14   -168    -57    169    178 175.1 -23.6  34152  289.43 0854.45
2009/04/23 16:15:02.2      26   -176    -61    178    189 171.5 -18.9  34150  289.41 0854.45
2009/04/23 16:15:02.3      29   -199    -43    202    207 171.5 -12.2  34152  289.45 0854.45
2009/04/23 16:15:02.4      18   -188    -52    189    197 174.4 -15.4  34150  289.40 0854.45
2009/04/23 16:15:02.5      27   -194    -25    196    198 172.0  -7.5  34152  289.43 0854.45
2009/04/23 16:15:02.6     -26   -191    -61    193    203 188.0 -17.5  34150  289.41 0854.45
2009/04/23 16:15:02.7     -33   -176    -52    180    187 190.7 -21.0  34152  289.43 0854.45
2009/04/23 16:15:02.8     -47   -169    -72    176    190 195.6 -27.8  34148  289.38 0854.45
2009/04/23 16:15:02.9     -29   -143    -62    146    158 191.5 -28.7  34152  289.43 0854.45
2009/04/23 16:15:03.0     -29   -132    -42    136    142 192.5 -22.3  34148  289.38 0854.45
2009/04/23 16:15:03.1     -35   -133    -54    138    148 195.1 -27.4  34150  289.40 0854.45
2009/04/23 16:15:03.2     -18   -117    -59    119    132 188.9 -32.2  34158  289.53 0854.45
2009/04/23 16:15:03.3      24    -88    -78     92    120 164.9 -49.2  34162  289.60 0854.45
2009/04/23 16:15:03.4      47   -102    -84    113    140 155.1 -44.5  34166  289.69 0854.45
2009/04/23 16:15:03.5      18    -78    -95     81    124 167.1 -59.2  34178  289.87 0854.45
2009/04/23 16:15:03.6      25   -106    -98    109    146 166.6 -51.3  34166  289.67 0854.45
2009/04/23 16:15:03.7       6   -145    -84    146    168 177.3 -37.1  34156  289.52 0854.45
2009/04/23 16:15:03.8       8   -176    -52    177    184 177.1 -21.2  34160  289.58 0854.45
2009/04/23 16:15:03.9      27   -197    -67    199    209 172.2 -23.3  34156  289.52 0854.45
2009/04/23 16:15:04.0      77   -165    -34    183    187 154.8 -10.5  34160  289.58 0854.45
2009/04/23 16:15:04.1      68   -174    -41    187    192 158.6 -12.4  34162  289.62 0854.45
2009/04/23 16:15:04.2      57   -204    -55    213    220 164.2 -14.5  34162  289.62 0854.45
2009/04/23 16:15:04.3      75   -210    -25    224    226 160.2  -6.5  34160  289.57 0854.45
2009/04/23 16:15:04.4      59   -230     -9    238    239 165.5  -2.2  34162  289.61 0854.45
2009/04/23 16:15:04.5      67   -211    -48    222    228 162.2 -12.4  34152  289.43 0854.45
2009/04/23 16:15:04.6      45   -253    -33    258    261 169.8  -7.3  34158  289.53 0854.45
2009/04/23 16:15:04.7      47   -276    -52    281    286 170.2 -10.5  34158  289.53 0854.45
2009/04/23 16:15:04.8      45   -255    -66    260    269 170.0 -14.4  34166  289.68 0854.45
2009/04/23 16:15:04.9      46   -268    -71    273    283 170.2 -14.7  34170  289.73 0854.45
2009/04/23 16:15:05.0      41   -293    -89    296    309 172.0 -21.7  34170  289.75 0854.45
2009/04/23 16:15:05.1      68   -292    -94    300    314 166.7 -22.4  34180  289.90 0854.45
2009/04/23 16:15:05.2      67   -267    -92    276    290 165.8 -23.6  34170  289.73 0854.45
2009/04/23 16:15:05.3      81   -266   -104    279    297 163.1 -25.7  34180  289.90 0854.45
2009/04/23 16:15:05.4      77   -285   -122    296    320 164.9 -28.1  34178  289.86 0854.47
2009/04/23 16:15:05.5     102   -289   -113    307    327 160.4 -25.5  34170  289.75 0854.47
2009/04/23 16:15:05.6      73   -287    -86    297    309 165.7 -21.0  34170  289.75 0854.47
2009/04/23 16:15:05.7      92   -245    -63    262    270 159.3 -13.7  34180  289.90 0854.47
2009/04/23 16:15:05.8     153   -276    -86    316    327 151.0 -20.0  34180  289.92 0854.47
2009/04/23 16:15:05.9     148   -218    -67    264    273 145.7 -14.3  34178  289.88 0854.47
2009/04/23 16:15:06.0     131   -219    -55    256    262 149.2 -12.2  34168  289.71 0854.47
2009/04/23 16:15:06.1     138   -217    -93    258    274 147.5 -25.1  34170  289.75 0854.47
2009/04/23 16:15:06.2     139   -207    -74    250    261 146.2 -16.5  34168  289.70 0854.47
2009/04/23 16:15:06.3     144   -222   -100    265    283 147.0 -25.9  34166  289.68 0854.47
2009/04/23 16:15:06.4     145   -177    -79    230    244 140.6 -19.1  34170  289.73 0854.47
2009/04/23 16:15:06.5     156   -207    -39    260    263 143.0  -8.6  34172  289.78 0854.47
2009/04/23 16:15:06.6     168   -188     -5    253    254 138.3  -1.3  34168  289.71 0854.47
2009/04/23 16:15:06.7     150   -180     28    235    237 140.1   6.9  34168  289.70 0854.47
2009/04/23 16:15:06.8     176   -165     66    242    251 133.1  15.3  34168  289.71 0854.47
2009/04/23 16:15:06.9     144   -156     96    213    233 137.2  26.2  34164  289.65 0854.47
2009/04/23 16:15:07.0     119   -196     85    230    245 148.6  21.0  34174  289.80 0854.47
2009/04/23 16:15:07.1     128   -182    109    223    248 144.8  28.0  34172  289.76 0854.47
2009/04/23 16:15:07.2     112   -227     93    254    270 153.7  20.9  34170  289.75 0854.47
2009/04/23 16:15:07.3     101   -214    117    237    264 154.7  28.2  34170  289.75 0854.47
2009/04/23 16:15:07.4     121   -262     78    289    300 155.1  15.2  34166  289.66 0854.50
2009/04/23 16:15:07.5     129   -267     81    297    308 154.1  15.3  34162  289.61 0854.50
2009/04/23 16:15:07.6     124   -273    100    301    318 155.5  18.4  34166  289.66 0854.50
2009/04/23 16:15:07.7     102   -294     68    312    320 160.8  12.3  34162  289.61 0854.50
2009/04/23 16:15:07.8      80   -241     95    255    272 161.5  21.3  34168  289.70 0854.50
2009/04/23 16:15:07.9      77   -282     51    293    298 164.6   9.9  34170  289.75 0854.50
2009/04/23 16:15:08.0      95   -249     42    267    271 159.1   9.0  34168  289.71 0854.50
2009/04/23 16:15:08.1      91   -232     26    250    252 158.6   6.0  34168  289.70 0854.50
2009/04/23 16:15:08.2      85   -221     29    238    240 158.8   7.1  34168  289.70 0854.50
2009/04/23 16:15:08.3      79   -199    111    215    241 158.4  29.5  34170  289.73 0854.50
2009/04/23 16:15:08.4      80   -180     68    198    210 155.9  18.9  34166  289.67 0854.50
2009/04/23 16:15:08.5      49   -202     64    208    218 166.2  17.3  34166  289.67 0854.50
2009/04/23 16:15:08.6      41   -185     68    190    201 167.3  20.7  34166  289.67 0854.50
2009/04/23 16:15:08.7      44   -231     47    236    241 169.1  11.4  34164  289.63 0854.50
2009/04/23 16:15:08.8     141   -196    -52    242    248 144.2 -12.2  34170  289.73 0854.50
2009/04/23 16:15:08.9      40   -232     -1    236    237 170.2  -0.3  34166  289.66 0854.50
2009/04/23 16:15:09.0      -4   -181     48    182    189 181.4  15.0  34166  289.67 0854.50
2009/04/23 16:15:09.1       7   -209     15    210    211 178.0   4.2  34176  289.85 0854.50
2009/04/23 16:15:09.2     -11   -209     10    210    211 183.1   2.8  34178  289.89 0854.50
2009/04/23 16:15:09.3      -8   -164    -15    165    166 182.9  -5.4  34180  289.92 0854.50
2009/04/23 16:15:09.4      24   -194     -9    196    197 172.9  -2.8  34180  289.91 0854.49
2009/04/23 16:15:09.5       6   -194     -7    195    196 178.0  -2.2  34182  289.94 0854.49
2009/04/23 16:15:09.6     -20   -162      0    164    165 187.1   0.0  34182  289.96 0854.49
2009/04/23 16:15:09.7       6   -181      3    182    183 178.0   1.0  34182  289.94 0854.49
2009/04/23 16:15:09.8     -22   -153    -32    155    159 188.5 -11.9  34184  289.97 0854.49
2009/04/23 16:15:09.9     -73   -108    -20    131    133 214.3  -8.8  34188  290.06 0854.49
2009/04/23 16:15:10.0     -69   -101    -21    123    125 214.3  -9.8  34190  290.08 0854.49
2009/04/23 16:15:10.1     -60   -125      0    139    140 205.9  -0.3  34188  290.04 0854.49
2009/04/23 16:15:10.2     -65    -78    -13    102    103 219.7  -7.3  34196  290.19 0854.49
2009/04/23 16:15:10.3      -1   -101    -10    102    103 180.9  -5.6  34194  290.14 0854.49
2009/04/23 16:15:10.4     -30   -128     49    132    140 193.4  21.0  34200  290.25 0854.49
2009/04/23 16:15:10.5     -22   -108     38    111    118 191.6  18.9  34202  290.30 0854.49
2009/04/23 16:15:10.6     -16    -98     46    100    110 189.8  27.1  34206  290.36 0854.49
2009/04/23 16:15:10.7      -6    -85     51     86     99 184.4  33.5  34202  290.30 0854.49
2009/04/23 16:15:10.8     -15    -68     53     70     87 192.5  41.2  34200  290.26 0854.49
2009/04/23 16:15:10.9     -12    -86     56     87    103 188.5  35.6  34198  290.23 0854.49
2009/04/23 16:15:11.0      -1    -96     66     97    117 180.9  37.0  34192  290.13 0854.49
2009/04/23 16:15:11.1     -14    -99     57    101    115 188.1  31.9  34192  290.13 0854.49
2009/04/23 16:15:11.2     -17   -123     65    125    140 188.0  29.3  34196  290.19 0854.49
2009/04/23 16:15:11.3     -26   -100     70    104    125 194.7  37.4  34224  290.65 0854.49
2009/04/23 16:15:11.4     -12    -62     82     64    104 191.6  57.9  34232  290.79 0854.47
2009/04/23 16:15:11.5      -5    -53     61     54     81 185.3  53.7  34234  290.82 0854.47
2009/04/23 16:15:11.6      42    -55     62     70     93 142.2  46.4  34226  290.69 0854.47
2009/04/23 16:15:11.7      27    -54     58     61     84 152.8  49.0  34212  290.47 0854.47
2009/04/23 16:15:11.8      41    -55     67     69     96 143.0  50.0  34210  290.43 0854.47
2009/04/23 16:15:11.9       0    -71     91     72    116 180.0  57.5  34204  290.31 0854.47
2009/04/23 16:15:12.0      49    -19     74     53     91 111.7  61.1  34210  290.41 0854.47
2009/04/23 16:15:12.1      38    -51     61     64     88 143.0  49.4  34214  290.50 0854.47
2009/04/23 16:15:12.2      -5    -65     84     66    106 184.4  57.5  34196  290.19 0854.47
2009/04/23 16:15:12.3      -5    -86     99     87    131 183.6  54.3  34190  290.09 0854.47
2009/04/23 16:15:12.4     -14   -110     94    111    145 187.6  44.3  34184  289.99 0854.47
2009/04/23 16:15:12.5     -15   -112    100    114    151 188.0  45.8  34192  290.13 0854.47
2009/04/23 16:15:12.6     -19   -118     96    120    153 189.3  43.3  34204  290.33 0854.47
2009/04/23 16:15:12.7     -16   -115     85    117    144 188.0  39.7  34192  290.13 0854.47
2009/04/23 16:15:12.8       9    -96     76     97    123 174.2  42.2  34186  290.02 0854.47
2009/04/23 16:15:12.9      10    -99     77    100    126 173.8  41.6  34190  290.08 0854.47
2009/04/23 16:15:13.0      14   -101     74    103    126 172.0  39.5  34186  290.01 0854.47
2009/04/23 16:15:13.1       8   -105     84    106    135 175.5  42.7  34184  289.99 0854.47
2009/04/23 16:15:13.2       0   -110     74    111    133 180.4  36.5  34192  290.13 0854.47
2009/04/23 16:15:13.3      -1   -107     57    108    122 180.9  29.8  34188  290.04 0854.47
2009/04/23 16:15:13.4      52   -110     44    122    129 154.5  20.4  34182  289.94 0854.45
2009/04/23 16:15:13.5      78   -107     25    133    136 143.9  11.0  34176  289.84 0854.45
2009/04/23 16:15:13.6     114    -94     56    149    159 129.5  21.5  34164  289.63 0854.45
2009/04/23 16:15:13.7      88   -121     78    150    169 143.9  29.5  34170  289.75 0854.45
2009/04/23 16:15:13.8     117   -110     87    161    183 133.1  31.0  34184  289.97 0854.45
2009/04/23 16:15:13.9     109   -116     91    160    184 136.7  32.1  34184  289.97 0854.45
2009/04/23 16:15:14.0      88   -122     90    151    175 144.0  34.0  34192  290.13 0854.45
2009/04/23 16:15:14.1      87   -138     87    164    185 147.9  30.1  34188  290.06 0854.45
2009/04/23 16:15:14.2      88   -158     91    181    202 150.8  29.1  34178  289.87 0854.45
2009/04/23 16:15:14.3      75   -155    103    173    201 154.1  33.7  34174  289.82 0854.45
2009/04/23 16:15:14.4      91   -133     81    162    181 145.7  28.5  34176  289.84 0854.45
2009/04/23 16:15:14.5     111   -133     83    174    192 140.1  27.2  34174  289.82 0854.45
2009/04/23 16:15:14.6     108   -138     56    176    185 141.9  17.9  34182  289.94 0854.45
2009/04/23 16:15:14.7      90   -133     46    161    168 145.7  16.0  34182  289.94 0854.45
2009/04/23 16:15:14.8     105   -149     44    183    189 144.6  13.7  34184  289.99 0854.45
2009/04/23 16:15:14.9     136   -114     63    178    188 130.0  20.0  34190  290.09 0854.45
2009/04/23 16:15:15.0     120   -135     67    181    193 138.3  21.0  34196  290.18 0854.45
2009/04/23 16:15:15.1     164   -123     29    206    209 126.9   8.2  34194  290.14 0854.45
2009/04/23 16:15:15.2     147   -159      3    217    218 137.2   0.8  34186  290.01 0854.45
2009/04/23 16:15:15.3     162   -157     18    226    227 134.2   4.6  34194  290.14 0854.45
2009/04/23 16:15:15.4     162   -137     17    213    214 130.2   4.6  34196  290.18 0854.46
2009/04/23 16:15:15.5     141   -132     23    194    196 133.1   6.9  34184  289.99 0854.46
2009/04/23 16:15:15.6     122   -123     65    174    185 135.2  21.0  34182  289.94 0854.46
2009/04/23 16:15:15.7     114    -95     29    149    152 129.6  11.1  34192  290.11 0854.46
2009/04/23 16:15:15.8     109    -79     16    135    136 125.9   6.9  34190  290.09 0854.46
2009/04/23 16:15:15.9     104    -78     -5    131    132 126.9  -2.2  34208  290.40 0854.46
2009/04/23 16:15:16.0      92   -109     -7    143    144 139.9  -3.1  34214  290.48 0854.46
2009/04/23 16:15:16.1      59   -145    -15    157    158 157.7  -5.6  34210  290.43 0854.46
2009/04/23 16:15:16.2      45   -128      6    136    137 160.4   2.9  34208  290.40 0854.46
2009/04/23 16:15:16.3      36   -138     54    143    152 165.3  21.0  34212  290.45 0854.46
2009/04/23 16:15:16.4      -6   -145     85    146    168 182.6  32.9  34214  290.48 0854.46
2009/04/23 16:15:16.5     -17   -211    137    212    252 184.9  35.6  34190  290.07 0854.46
2009/04/23 16:15:16.6     -91   -262     81    278    290 199.2  16.3  34186  290.00 0854.46
2009/04/23 16:15:16.7    -105   -269    151    290    326 201.4  29.6  34180  289.92 0854.46
2009/04/23 16:15:16.8     -18   -299    164    300    341 183.6  31.0  34204  290.32 0854.46
2009/04/23 16:15:16.9     103   -237    221    259    340 156.4  45.0  34206  290.34 0854.46
2009/04/23 16:15:17.0     103   -209    169    234    288 153.7  39.5  34202  290.29 0854.46
2009/04/23 16:15:17.1      79   -133    167    155    227 149.3  52.2  34210  290.43 0854.46
2009/04/23 16:15:17.2      62   -361    154    367    398 170.2  24.1  34214  290.49 0854.46
2009/04/23 16:15:17.3     132   -333     83    359    369 158.4  13.1  34214  290.49 0854.46
2009/04/23 16:15:17.4     130   -321     33    347    349 157.9   5.5  34214  290.49 0854.46
2009/04/23 16:15:17.5     103   -424     38    437    439 166.3   5.0  34212  290.44 0854.46
2009/04/23 16:15:17.6      55   -326    101    331    347 170.4  17.1  34204  290.33 0854.46
2009/04/23 16:15:17.7     139   -299    110    330    349 155.1  18.5  34212  290.47 0854.46
2009/04/23 16:15:17.8     121   -265    109    292    311 155.5  21.0  34216  290.53 0854.46
2009/04/23 16:15:17.9     162   -247    129    296    322 146.6  25.0  34212  290.44 0854.46
2009/04/23 16:15:18.0     150   -194     47    246    251 142.2  11.0  34218  290.56 0854.46
2009/04/23 16:15:18.1     117   -133     78    178    194 138.8  25.3  34214  290.50 0854.46
2009/04/23 16:15:18.2     134   -211    176    251    306 147.5  38.5  34212  290.46 0854.46
2009/04/23 16:15:18.3     125   -305    177    330    374 157.7  30.7  34202  290.30 0854.46
2009/04/23 16:15:18.4      78   -337    154    347    379 166.9  25.3  34182  289.94 0854.45
2009/04/23 16:15:18.5       1   -304    158    305    343 179.8  29.4  34190  290.08 0854.45
2009/04/23 16:15:18.6       0   -320    185    321    370 179.9  32.7  34192  290.13 0854.45
2009/04/23 16:15:18.7     126   -341    174    364    403 159.6  27.3  34172  289.79 0854.45
2009/04/23 16:15:18.8     150   -271    123    310    333 151.0  22.9  34186  290.02 0854.45
2009/04/23 16:15:18.9     105   -265    100    286    302 158.4  20.0  34176  289.83 0854.45
2009/04/23 16:15:19.0      77   -334    123    343    364 167.0  20.6  34184  289.99 0854.45
2009/04/23 16:15:19.1      24   -330     73    331    340 175.8  12.5  34192  290.11 0854.45
2009/04/23 16:15:19.2      -9   -309     48    310    314 181.8   8.8  34196  290.19 0854.45
2009/04/23 16:15:19.3     106   -314     92    332    345 161.3  15.6  34204  290.32 0854.45
2009/04/23 16:15:19.4     146   -355     50    384    388 157.6   7.4  34214  290.49 0854.45
2009/04/23 16:15:19.5     155   -328     17    363    364 154.7   2.8  34214  290.49 0854.45
2009/04/23 16:15:19.6      68   -351    -10    358    359 169.0  -1.6  34214  290.49 0854.45
2009/04/23 16:15:19.7     118   -396     41    414    417 163.3   5.7  34212  290.44 0854.45
2009/04/23 16:15:19.8     140   -444     73    466    472 162.4   9.0  34212  290.44 0854.45
2009/04/23 16:15:19.9      76   -375     -8    383    384 168.4  -1.3  34202  290.30 0854.45
2009/04/23 16:15:20.0     162   -344    -21    381    382 154.7  -3.3  34204  290.32 0854.45
2009/04/23 16:15:20.1     189   -355    -16    403    404 152.0  -2.3  34200  290.26 0854.45
2009/04/23 16:15:20.2     216   -342     40    405    407 147.7   5.7  34202  290.29 0854.45
2009/04/23 16:15:20.3     176   -368     23    409    410 154.4   3.2  34202  290.29 0854.45
2009/04/23 16:15:20.4     207   -348     34    405    407 149.3   4.9  34192  290.12 0854.45
2009/04/23 16:15:20.5     216   -376     87    434    443 150.1  11.3  34206  290.34 0854.45
2009/04/23 16:15:20.6     209   -371    148    427    453 150.6  19.2  34184  289.97 0854.45
2009/04/23 16:15:20.7     221   -366    231    428    486 148.9  30.7  34162  289.61 0854.45
2009/04/23 16:15:20.8     167   -377    269    413    492 156.1  36.2  34160  289.56 0854.45
2009/04/23 16:15:20.9      87   -366    257    377    456 166.6  37.6  34158  289.55 0854.45
2009/04/23 16:15:21.0      64   -420    269    425    502 171.3  35.5  34146  289.35 0854.45
2009/04/23 16:15:21.1     180   -494    296    527    604 159.9  31.7  34152  289.42 0854.45
2009/04/23 16:15:21.2     139   -489    350    509    617 164.1  37.8  34156  289.49 0854.45
2009/04/23 16:15:21.3      44   -431    422    434    605 174.1  49.2  34148  289.36 0854.45
2009/04/23 16:15:21.4     177   -363    299    404    502 154.0  40.1  34192  290.13 0854.45
2009/04/23 16:15:21.5     -37   -361    319    363    483 185.9  45.8  34166  289.66 0854.45
2009/04/23 16:15:21.6    -128   -338    325    362    486 200.8  46.5  34176  289.83 0854.45
2009/04/23 16:15:21.7     -28   -215    176    217    279 187.6  43.3  34204  290.31 0854.45
2009/04/23 16:15:21.8     -20   -181    204    183    274 186.5  53.7  34196  290.17 0854.45
2009/04/23 16:15:21.9     -16   -219    207    220    302 184.2  48.0  34182  289.93 0854.45
2009/04/23 16:15:22.0       3   -192    208    193    283 179.1  52.2  34172  289.76 0854.45
2009/04/23 16:15:22.1    -102   -337    247    353    430 196.9  38.5  34162  289.60 0854.45
2009/04/23 16:15:22.2     -93   -328    261    342    430 195.9  41.3  34170  289.73 0854.45
2009/04/23 16:15:22.3      -8   -216    257    217    336 182.2  55.6  34180  289.92 0854.45
2009/04/23 16:15:22.4     -12   -123    192    124    228 185.8  64.6  34178  289.87 0854.44
2009/04/23 16:15:22.5      -5    -23    103     24    105 193.4  87.5  34202  290.30 0854.44
2009/04/23 16:15:22.6       9     28    158     30    160  18.7  89.8  34212  290.45 0854.44
2009/04/23 16:15:22.7     109    -68    199    129    237 122.0  63.9  34208  290.40 0854.44
2009/04/23 16:15:22.8     167     -2    185    168    249  91.0  53.3  34192  290.13 0854.44
2009/04/23 16:15:22.9     185    -67    131    197    236 110.0  36.7  34186  290.01 0854.44
2009/04/23 16:15:23.0     115     -3    130    116    174  91.7  53.7  34186  290.02 0854.44
2009/04/23 16:15:23.1      57     54     97     79    125  46.8  56.4  34192  290.11 0854.44
2009/04/23 16:15:23.2     -33    -40     75     53     91 219.6  61.1  34206  290.35 0854.44
2009/04/23 16:15:23.4     -26     27     24     38     44 316.6  35.5  34208  290.40 0854.44
2009/04/23 16:15:23.5      35    -21     -1     42     43 121.5  -2.2  34198  290.21 0854.44
2009/04/23 16:15:23.6      88    -49      2    102    103 119.3   1.2  34176  289.84 0854.44
2009/04/23 16:15:23.7      74    -42     60     86    104 119.8  38.6  34176  289.84 0854.44
2009/04/23 16:15:23.8     -47      2     72     48     86 272.6  63.6  34202  290.28 0854.44
2009/04/23 16:15:23.9     -72    -42     87     84    120 239.3  51.2  34186  290.02 0854.44
2009/04/23 16:15:24.0     -38    -24     95     45    105 237.6  72.9  34178  289.87 0854.44
2009/04/23 16:15:24.1     -40     33     75     52     91 309.5  62.1  34186  290.01 0854.44
2009/04/23 16:15:24.2     -65      4    142     66    156 273.5  73.5  34186  290.01 0854.44
2009/04/23 16:15:24.3     -85      3    170     86    190 272.6  71.4  34180  289.92 0854.44
2009/04/23 16:15:24.4      25    -21    222     33    224 129.6  90.0  34188  290.04 0854.44
2009/04/23 16:15:24.5      52      1    201     53    207  88.3  84.9  34176  289.84 0854.43
2009/04/23 16:15:24.6     103     -7    189    104    215  93.9  68.9  34174  289.82 0854.43
2009/04/23 16:15:24.7      16     11    185     20    186  54.0  90.0  34184  289.97 0854.43
2009/04/23 16:15:24.8     -32    -31     77     45     89 225.9  66.8  34192  290.13 0854.43
2009/04/23 16:15:24.9     112     39    115    119    165  70.5  49.2  34180  289.91 0854.43
2009/04/23 16:15:25.0     -15     -7     50     17     52 244.7  81.0  34188  290.06 0854.43
2009/04/23 16:15:25.1     142      7    126    143    190  87.0  45.8  34176  289.85 0854.43
2009/04/23 16:15:25.2       1     13    110     14    110   4.5  90.0  34194  290.14 0854.43
2009/04/23 16:15:25.3       6     34    129     35    133  11.5  84.8  34198  290.23 0854.43
2009/04/23 16:15:25.4      70     -5    147     71    163  94.3  72.4  34192  290.11 0854.43
2009/04/23 16:15:25.5       4     60     89     61    107   4.4  62.6  34216  290.53 0854.43
2009/04/23 16:15:25.6      90    -69    135    114    176 127.8  55.6  34196  290.19 0854.43
2009/04/23 16:15:25.7     102    -97    106    141    176 133.6  40.7  34180  289.91 0854.43
2009/04/23 16:15:25.8      63    -96    103    116    155 146.6  45.9  34174  289.80 0854.43
2009/04/23 16:15:25.9      98    -71     85    122    148 126.0  38.0  34174  289.82 0854.43
2009/04/23 16:15:26.0      48    -63     49     80     93 143.0  35.0  34174  289.82 0854.43
2009/04/23 16:15:26.1      64    -17    -18     67     70 105.1 -15.4  34172  289.79 0854.43
2009/04/23 16:15:26.2     -55     55     24     79     83 315.0  17.3  34178  289.87 0854.43
2009/04/23 16:15:26.3    -186     46     -7    192    193 284.2  -2.2  34192  290.11 0854.43
2009/04/23 16:15:26.4    -131     41    -26    138    141 287.3 -10.9  34176  289.85 0854.43
2009/04/23 16:15:26.5     -52     43    -40     68     78 309.5 -37.9  34140  289.23 0854.42
2009/04/23 16:15:26.6     -79     46    -27     92     95 300.7 -21.2  34138  289.19 0854.42
2009/04/23 16:15:26.7    -161    -36    -80    165    183 257.4 -32.2  34168  289.70 0854.42
2009/04/23 16:15:26.8     -77    -10    -72     78    106 262.1 -52.3  34166  289.69 0854.42
2009/04/23 16:15:26.9     -18     82    -29     84     88 347.5 -23.3  34158  289.53 0854.42
2009/04/23 16:15:27.0      55    126    -48    138    147  23.7 -19.1  34160  289.57 0854.42
2009/04/23 16:15:27.1      46    110     -7    120    121  22.7  -3.7  34168  289.70 0854.42
2009/04/23 16:15:27.2      14    109     26    110    114   7.6  13.7  34176  289.85 0854.42
2009/04/23 16:15:27.3      -7    220     20    221    222 358.0   5.2  34208  290.38 0854.42
2009/04/23 16:15:27.4      82    249    -23    263    265  18.3  -5.2  34192  290.12 0854.42
2009/04/23 16:15:27.5      88    197    -46    216    222  24.1 -12.2  34198  290.21 0854.42
2009/04/23 16:15:27.6      77    100    121    127    175  37.4  48.7  34208  290.38 0854.42
2009/04/23 16:15:27.7      58     65    108     88    139  41.4  56.4  34212  290.45 0854.42
2009/04/23 16:15:27.8      16     16    108     24    110  45.0  88.5  34218  290.57 0854.42
2009/04/23 16:15:27.9       0     26    113     27    116 359.1  86.9  34216  290.52 0854.42
2009/04/23 16:15:28.0      -2     32     95     33    100 355.5  80.7  34198  290.23 0854.42
2009/04/23 16:15:28.1     -37     83     62     92    110 335.9  37.0  34196  290.18 0854.42
2009/04/23 16:15:28.2     -58    148     79    160    178 338.6  28.2  34184  289.97 0854.42
2009/04/23 16:15:28.3     -56     73     86     93    126 322.6  47.9  34198  290.23 0854.42
2009/04/23 16:15:28.4     -50    103     94    115    148 334.1  43.7  34196  290.19 0854.42
2009/04/23 16:15:28.5     -33     98     72    104    126 341.3  37.6  34202  290.30 0854.40
2009/04/23 16:15:28.6      35    -23    102     43    110 123.3  76.1  34192  290.13 0854.40
2009/04/23 16:15:28.7      14     26     83     30     88  29.0  80.2  34200  290.25 0854.40
2009/04/23 16:15:28.8      46     21     72     51     88  64.6  61.5  34190  290.08 0854.40
2009/04/23 16:15:28.9      36    -46     76     59     96 142.2  57.9  34188  290.06 0854.40
2009/04/23 16:15:29.0     -21    -15     60     27     65 234.0  74.0  34196  290.19 0854.40
2009/04/23 16:15:29.1      35     49    143     61    155  35.2  75.5  34194  290.14 0854.40
2009/04/23 16:15:29.2      64    -24     84     69    108 110.8  56.4  34196  290.18 0854.40
2009/04/23 16:15:29.3      82    -34     87     89    124 112.6  50.0  34204  290.33 0854.40
2009/04/23 16:15:29.4     135     73    106    154    186  61.6  37.8  34258  291.25 0854.40
2009/04/23 16:15:29.5      97     94     94    136    165  46.0  38.0  34266  291.37 0854.40
2009/04/23 16:15:29.6       2     48     99     49    110   2.7  72.4  34272  291.49 0854.40
2009/04/23 16:15:29.7     -11     56    107     58    121 348.4  69.3  34276  291.54 0854.40
2009/04/23 16:15:29.8      23     26    118     35    123  41.4  82.8  34234  290.82 0854.40
2009/04/23 16:15:29.9      27     31     64     42     76  40.5  64.6  34202  290.30 0854.40
2009/04/23 16:15:30.0       4    -23     45     24     51 170.2  69.8  34178  289.89 0854.40
2009/04/23 16:15:30.1     -31    -44     72     54     90 215.2  59.0  34172  289.79 0854.40
2009/04/23 16:15:30.2       0     -3     42      4     42 175.5  90.0  34186  290.02 0854.40
2009/04/23 16:15:30.3      23    -28     47     37     59 140.4  57.5  34186  290.02 0854.40
2009/04/23 16:15:30.4     -30    -57     47     65     80 208.1  39.7  34202  290.28 0854.40
2009/04/23 16:15:30.5      38    -27     36     47     59 126.0  41.7  34210  290.43 0854.40
2009/04/23 16:15:30.6     113     45     52    122    132  68.2  24.6  34256  291.21 0854.40
2009/04/23 16:15:30.7     154     88     29    178    181  60.2   9.5  34332  292.49 0854.40
2009/04/23 16:15:30.8     138    141     95    198    219  44.3  27.3  34286  291.71 0854.40
2009/04/23 16:15:30.9     260     82    101    273    291  72.5  21.0  34290  291.78 0854.40
2009/04/23 16:15:31.0     102     48    148    114    186  64.6  58.2  34332  292.49 0854.40
2009/04/23 16:15:31.1      94     21    142     97    171  77.2  62.6  34370  293.14 0854.40
2009/04/23 16:15:31.2      65      4     80     66    103  86.5  56.3  34354  292.88 0854.40
2009/04/23 16:15:31.3     158     57     31    169    172  70.0  10.6  34308  292.08 0854.40
2009/04/23 16:15:31.4      55    147     88    158    180  20.5  31.4  34330  292.46 0854.40
2009/04/23 16:15:31.5     138     73     66    157    170  62.0  24.1  34338  292.61 0854.40
2009/04/23 16:15:31.6     208     96     85    230    245  65.2  21.0  34374  293.22 0854.40
2009/04/23 16:15:31.7     265     94    125    282    308  70.5  25.3  34370  293.15 0854.40
2009/04/23 16:15:31.8     295    162    156    337    371  61.1  26.6  34304  292.02 0854.40
2009/04/23 16:15:31.9     344    137     37    371    373  68.2   5.8  34318  292.25 0854.40
2009/04/23 16:15:32.0     231    190    166    300    342  50.5  31.4  34334  292.53 0854.40
2009/04/23 16:15:32.1     266     62    146    274    310  76.7  30.3  34352  292.82 0854.40
2009/04/23 16:15:32.2     189     41    175    194    261  77.6  46.9  34326  292.40 0854.40
2009/04/23 16:15:32.3     257    163    163    305    345  57.5  30.6  34310  292.12 0854.40
2009/04/23 16:15:32.4     390    198    166    438    468  63.1  21.7  34288  291.74 0854.40
2009/04/23 16:15:32.5     434    197    144    477    499  65.6  16.8  34272  291.49 0854.40
2009/04/23 16:15:32.6     408    194    160    453    480  64.5  20.3  34262  291.30 0854.40
2009/04/23 16:15:32.7     406    281    139    494    514  55.3  15.8  34238  290.91 0854.40
2009/04/23 16:15:32.8     529    210    139    570    587  68.3  13.8  34244  291.00 0854.40
2009/04/23 16:15:32.9     542    212     75    583    588  68.6   7.4  34202  290.27 0854.40
2009/04/23 16:15:33.0     503    277     84    575    582  61.1   8.3  34186  290.02 0854.40
2009/04/23 16:15:33.1     531    248    208    587    622  65.0  20.2  34254  291.17 0854.40
2009/04/23 16:15:33.2     527    154    214    550    590  73.7  22.4  34214  290.49 0854.40
2009/04/23 16:15:33.3     405    107    236    420    481  75.1  31.9  34252  291.14 0854.40
2009/04/23 16:15:33.4     449    137    203    470    511  73.0  24.9  34218  290.56 0854.40
2009/04/23 16:15:33.5     340    122    159    362    395  70.2  25.2  34228  290.74 0854.40
2009/04/23 16:15:33.6     305    164    201    347    401  61.7  32.7  34260  291.27 0854.40
2009/04/23 16:15:33.7     241     37    232    244    336  81.2  48.5  34250  291.10 0854.40
2009/04/23 16:15:33.8     324    108    160    342    377  71.5  27.1  34232  290.79 0854.40
2009/04/23 16:15:33.9     325     63    168    332    372  78.9  29.1  34238  290.91 0854.40
2009/04/23 16:15:34.0     306     72    190    315    367  76.7  34.0  34240  290.93 0854.40
2009/04/23 16:15:34.1     238     91    199    255    323  69.1  42.1  34268  291.39 0854.40
2009/04/23 16:15:34.2     263     23    226    265    348  84.8  44.7  34242  290.97 0854.40
2009/04/23 16:15:34.3     366    121    233    386    450  71.6  33.8  34288  291.74 0854.40
2009/04/23 16:15:34.4     364    121    179    384    423  71.6  27.0  34274  291.50 0854.38
2009/04/23 16:15:34.5     186    -12    227    187    294  93.7  56.4  34250  291.09 0854.38
2009/04/23 16:15:34.6      75    -73    145    105    179 134.4  60.5  34256  291.20 0854.38
2009/04/23 16:15:34.7      34   -103    146    109    182 161.7  59.8  34274  291.50 0854.38
2009/04/23 16:15:34.8     109     22    142    112    180  78.5  57.7  34278  291.59 0854.38
2009/04/23 16:15:34.9      45    -25    103     52    115 118.9  71.9  34290  291.77 0854.38
2009/04/23 16:15:35.0      18    -63    127     66    143 164.0  70.8  34286  291.72 0854.38
2009/04/23 16:15:35.1      77   -100    148    127    195 142.6  55.4  34274  291.50 0854.38
2009/04/23 16:15:35.2      22     14    141     27    143  57.6  89.6  34296  291.88 0854.38
2009/04/23 16:15:35.3      20     21     84     30     89  43.2  80.2  34276  291.55 0854.38
2009/04/23 16:15:35.4     -32    -63    115     71    135 207.2  64.7  34260  291.28 0854.38
2009/04/23 16:15:35.5     -42   -105    146    114    185 201.8  58.2  34272  291.47 0854.38
2009/04/23 16:15:35.6     -20   -150    173    152    230 187.6  54.3  34288  291.76 0854.38
2009/04/23 16:15:35.7      12   -160    164    161    229 175.6  50.2  34290  291.77 0854.38
2009/04/23 16:15:35.8       2   -152     50    153    161 179.0  18.1  34282  291.66 0854.38
2009/04/23 16:15:35.9      13   -130     57    131    142 174.2  25.1  34266  291.37 0854.38
2009/04/23 16:15:36.0      17   -137     75    139    157 172.9  30.8  34242  290.96 0854.38
2009/04/23 16:15:36.1      22    -67    121     71    140 161.5  66.8  34286  291.72 0854.38
2009/04/23 16:15:36.2     -53    -79     39     96    103 213.8  23.0  34250  291.09 0854.38
2009/04/23 16:15:36.3     -14   -145     22    146    148 185.8   8.9  34258  291.23 0854.38
2009/04/23 16:15:36.4      61    -56     59     83    101 132.7  39.5  34276  291.54 0854.38
2009/04/23 16:15:36.5      94      0     -3     95     96  90.0  -2.2  34272  291.47 0854.38
2009/04/23 16:15:36.6      75     63     -5     99    100  50.0  -3.2  34272  291.47 0854.38
2009/04/23 16:15:36.7      54      6     34     55     64  83.0  35.5  34258  291.25 0854.38
2009/04/23 16:15:36.8      86     -7     43     87     97  95.2  27.8  34238  290.89 0854.38
2009/04/23 16:15:36.9     110     10     58    111    125  84.8  29.8  34252  291.13 0854.38
2009/04/23 16:15:37.0     151      6    104    152    184  87.4  37.6  34252  291.13 0854.38
2009/04/23 16:15:37.1     154     82     82    175    193  61.8  27.1  34240  290.94 0854.38
2009/04/23 16:15:37.2     137     94    105    167    197  55.4  35.5  34228  290.72 0854.38
2009/04/23 16:15:37.3     123    149     15    194    195  39.6   4.6  34242  290.96 0854.38
2009/04/23 16:15:37.4     201    159    122    257    284  51.6  27.2  34266  291.36 0854.37
2009/04/23 16:15:37.5     173     83     61    193    203  64.2  17.7  34232  290.81 0854.37
2009/04/23 16:15:37.6     148     21     51    150    159  81.6  18.9  34226  290.69 0854.37
2009/04/23 16:15:37.7     220     -3     44    221    226  90.9  11.4  34230  290.77 0854.37
2009/04/23 16:15:37.8     188     14     40    189    194  85.7  12.2  34228  290.72 0854.37
2009/04/23 16:15:37.9     218     16     76    219    232  85.7  19.2  34222  290.62 0854.37
2009/04/23 16:15:38.0     255    -35     92    258    273  97.9  20.4  34220  290.58 0854.37
2009/04/23 16:15:38.1     313    -23     48    314    318  94.3   8.7  34218  290.54 0854.37
2009/04/23 16:15:38.2     367      3     28    368    370  89.5   4.5  34208  290.40 0854.37
2009/04/23 16:15:38.3     370    -40     61    373    379  96.3   9.3  34244  291.00 0854.37
2009/04/23 16:15:38.4     379     41    113    382    399  83.8  16.5  34246  291.03 0854.37
2009/04/23 16:15:38.5     395     82     41    404    407  78.2   5.9  34284  291.67 0854.37
2009/04/23 16:15:38.6     471     76     19    478    479  80.8   2.3  34212  290.44 0854.37
2009/04/23 16:15:38.7     463     77      7    470    471  80.6   0.9  34202  290.27 0854.37
2009/04/23 16:15:38.8     419    102     57    432    436  76.3   7.6  34218  290.56 0854.37
2009/04/23 16:15:38.9     451     77    137    458    479  80.2  16.7  34282  291.63 0854.37
2009/04/23 16:15:39.0     477    115     71    491    497  76.4   8.3  34222  290.61 0854.37
2009/04/23 16:15:39.1     405     25    126    406    426  86.4  17.3  34222  290.61 0854.37
2009/04/23 16:15:39.2     356     18     63    357    363  87.0  10.0  34248  291.06 0854.37
2009/04/23 16:15:39.3     376     58     82    381    390  81.2  12.2  34352  292.83 0854.37
2009/04/23 16:15:39.4     446     85     79    455    462  79.1   9.9  34354  292.86 0854.36
2009/04/23 16:15:39.5     405     95    145    417    442  76.7  19.2  34330  292.45 0854.36
2009/04/23 16:15:39.6     409     83    157    418    446  78.5  21.4  34332  292.49 0854.36
2009/04/23 16:15:39.7     392    103    104    406    420  75.2  14.4  34306  292.04 0854.36
2009/04/23 16:15:39.8     464    109     67    477    482  76.7   8.1  34300  291.95 0854.36
2009/04/23 16:15:39.9     509    119     78    523    529  76.8   8.5  34296  291.88 0854.36
2009/04/23 16:15:40.0     352    194     68    403    409  61.1   9.7  34314  292.20 0854.36
2009/04/23 16:15:40.1     380    124     -2    400    401  71.8  -0.4  34284  291.69 0854.36
2009/04/23 16:15:40.2     289    135    194    320    374  64.9  34.1  34298  291.91 0854.36
2009/04/23 16:15:40.3     346    123    139    368    393  70.4  21.7  34274  291.52 0854.36
2009/04/23 16:15:40.4     308     23     76    309    319  85.6  13.8  34248  291.07 0854.36
2009/04/23 16:15:40.5     352     26     90    353    365  85.7  14.3  34250  291.11 0854.36
2009/04/23 16:15:40.6     354    117    142    373    399  71.7  21.8  34238  290.88 0854.36
2009/04/23 16:15:40.7     303    104     86    321    333  71.0  15.0  34328  292.41 0854.36
2009/04/23 16:15:40.8     269    107     48    290    295  68.2   9.5  34346  292.74 0854.36
2009/04/23 16:15:40.9     227    104     67    250    259  65.4  15.0  34326  292.40 0854.36
2009/04/23 16:15:41.0     235     89     84    252    266  69.2  18.5  34292  291.82 0854.36
2009/04/23 16:15:41.1     300    126    123    326    348  67.2  21.6  34306  292.05 0854.36
2009/04/23 16:15:41.2     308    103     54    325    330  71.4   9.5  34272  291.46 0854.36
2009/04/23 16:15:41.3     416     93     51    427    431  77.3   6.9  34230  290.77 0854.36
2009/04/23 16:15:41.4     290     57    148    296    330  78.8  28.6  34264  291.33 0854.35
2009/04/23 16:15:41.5     188    -14     16    189    190  94.3   4.9  34214  290.50 0854.35
2009/04/23 16:15:41.6     222     39     45    226    231  79.9  11.4  34214  290.50 0854.35
2009/04/23 16:15:41.7     215     34    -12    218    219  81.0  -3.2  34232  290.79 0854.35
2009/04/23 16:15:41.8     163     11    -44    164    170  86.1 -15.0  34214  290.48 0854.35
2009/04/23 16:15:41.9     154     14     -3    155    156  84.8  -1.3  34234  290.82 0854.35
2009/04/23 16:15:42.0     219    -37      8    223    224  99.7   2.1  34208  290.40 0854.35
2009/04/23 16:15:42.1     277     21     93    278    294  85.6  18.5  34226  290.70 0854.35
2009/04/23 16:15:42.2     309     84     75    321    330  74.8  13.3  34256  291.21 0854.35
2009/04/23 16:15:42.3     271     55     43    277    281  78.5   9.0  34240  290.92 0854.35
2009/04/23 16:15:42.4     221     27      6    223    224  82.8   1.6  34234  290.84 0854.35
2009/04/23 16:15:42.5     186    109     86    216    232  59.6  23.0  34234  290.84 0854.35
2009/04/23 16:15:42.6     172    214    116    275    298  38.8  24.1  34226  290.70 0854.35
2009/04/23 16:15:42.7     151    132    186    201    273  48.7  47.9  34228  290.71 0854.35
2009/04/23 16:15:42.8     103    247    201    268    335  22.7  40.7  34248  291.07 0854.35
2009/04/23 16:15:42.9      46     -1    113     47    122  91.7  76.6  34228  290.74 0854.35
2009/04/23 16:15:43.0     133     -4    159    134    207  92.1  55.8  34228  290.74 0854.35
2009/04/23 16:15:43.1     142    105     76    177    192  53.4  24.6  34222  290.62 0854.35
2009/04/23 16:15:43.2     147    108     73    183    197  53.6  23.0  34202  290.28 0854.35
2009/04/23 16:15:43.3      32     40    141     52    150  38.7  79.2  34248  291.08 0854.35
2009/04/23 16:15:43.4      15     24    105     29    108  32.6  84.4  34292  291.81 0854.35
2009/04/23 16:15:43.5      11      9    126     15    126  50.5  90.0  34288  291.74 0854.35
2009/04/23 16:15:43.6     -67    124    137    142    197 331.5  49.0  34250  291.09 0854.35
2009/04/23 16:15:43.7     -63    189     36    200    204 341.5  10.3  34218  290.57 0854.35
2009/04/23 16:15:43.8     -68    143     59    159    169 334.5  21.0  34228  290.74 0854.35
2009/04/23 16:15:43.9     -47    118    132    128    183 338.2  50.7  34214  290.50 0854.35
2009/04/23 16:15:44.0     -75    146    131    165    210 332.6  42.7  34202  290.30 0854.35
2009/04/23 16:15:44.1    -141    160     90    214    232 318.5  24.1  34224  290.65 0854.35
2009/04/23 16:15:44.2     -21    150     54    152    162 352.0  19.6  34220  290.60 0854.35
2009/04/23 16:15:44.3     -55    138     48    149    157 338.1  18.1  34234  290.82 0854.35
2009/04/23 16:15:44.4     -67    200     85    212    228 341.3  23.0  34236  290.87 0854.35
2009/04/23 16:15:44.5    -117    246     15    273    274 334.5   3.3  34268  291.41 0854.35
2009/04/23 16:15:44.6    -120    138     60    183    193 319.0  18.4  34232  290.79 0854.35
2009/04/23 16:15:44.7     -66    199    122    210    242 341.5  32.9  34212  290.44 0854.35
2009/04/23 16:15:44.8     -48    211    117    217    246 347.1  30.6  34176  289.83 0854.35
2009/04/23 16:15:44.9     -91    214     63    233    242 336.8  15.2  34148  289.36 0854.35
2009/04/23 16:15:45.0    -118    180      7    216    217 326.8   2.1  34172  289.77 0854.35
2009/04/23 16:15:45.1    -166    200      5    260    261 320.3   1.2  34232  290.80 0854.35
2009/04/23 16:15:45.2    -137    201      9    244    245 325.7   2.1  34214  290.48 0854.35
2009/04/23 16:15:45.3    -204    191    -11    280    281 313.2  -2.3  34216  290.51 0854.35
2009/04/23 16:15:45.4    -143    200     16    247    248 324.4   3.8  34158  289.53 0854.35
2009/04/23 16:15:45.5    -116    127     -1    173    174 317.5  -0.5  34212  290.45 0854.35
2009/04/23 16:15:45.6     -34     82    -10     89     90 337.3  -6.7  34226  290.70 0854.35
2009/04/23 16:15:45.7     -40    101    -39    109    115 338.2 -24.4  34196  290.19 0854.35
2009/04/23 16:15:45.8      10    132    -53    133    143   4.5 -27.4  34184  289.97 0854.35
2009/04/23 16:15:45.9      41    153     20    159    161  15.2   7.2  34178  289.89 0854.35
2009/04/23 16:15:46.0      58    110     56    125    136  28.1  25.7  34184  289.97 0854.35
2009/04/23 16:15:46.1      36    120     45    126    133  17.0  20.0  34192  290.11 0854.35
2009/04/23 16:15:46.2      51    202    -71    209    221  14.3 -18.9  34194  290.16 0854.35
2009/04/23 16:15:46.3     -12    162    -95    163    188 355.5 -37.3  34226  290.70 0854.35
2009/04/23 16:15:46.4      -9    104     94    105    140 354.7  46.4  34202  290.30 0854.35
2009/04/23 16:15:46.5      60     56    117     83    143  46.9  61.1  34208  290.40 0854.35
2009/04/23 16:15:46.6      43    198     81    203    218  12.5  23.0  34300  291.96 0854.35
2009/04/23 16:15:46.7      34    191     87    195    213  10.2  25.7  34292  291.83 0854.35
2009/04/23 16:15:46.8      94    236    118    255    280  21.8  26.4  34276  291.53 0854.35
2009/04/23 16:15:46.9      65    302     26    310    312  12.3   4.9  34284  291.68 0854.35
2009/04/23 16:15:47.0     110    333     51    351    355  18.4   8.3  34244  291.01 0854.35
2009/04/23 16:15:47.1     145    221    -24    265    267  33.4  -5.2  34272  291.46 0854.35
2009/04/23 16:15:47.2      22    219     41    221    225   6.0  10.6  34278  291.59 0854.35
2009/04/23 16:15:47.3     156    -51     25    165    167 108.2   8.8  34244  290.99 0854.35
2009/04/23 16:15:47.4      46     52    -57     70     90  41.4 -48.1  34264  291.33 0854.36
2009/04/23 16:15:47.5      52     28    -29     60     66  61.2 -31.6  34274  291.52 0854.36
2009/04/23 16:15:47.6     147     25    -59    150    161  80.3 -26.9  34232  290.81 0854.36
2009/04/23 16:15:47.7       7     92     -8     93     94   4.5  -5.2  34256  291.21 0854.36
2009/04/23 16:15:47.8     -45    103     18    113    115 336.4   9.5  34340  292.64 0854.36
2009/04/23 16:15:47.9      53      6     -8     54     55  83.0  -9.3  34314  292.18 0854.36
2009/04/23 16:15:48.0     164    -75    -65    181    193 114.6 -19.7  34234  290.84 0854.36
2009/04/23 16:15:48.1     170   -116    -53    206    213 124.4 -14.5  34238  290.89 0854.36
2009/04/23 16:15:48.2     119   -133      7    179    180 138.3   2.5  34246  291.03 0854.36
2009/04/23 16:15:48.3     121    -52    -36    132    138 113.5 -15.5  34216  290.53 0854.36
2009/04/23 16:15:48.4     184      2    -81    185    201  89.2 -29.5  34174  289.80 0854.36
2009/04/23 16:15:48.5     196     43    -70    201    212  77.6 -23.8  34170  289.75 0854.36
2009/04/23 16:15:48.6     166     17    -75    167    183  84.1 -30.1  34170  289.75 0854.36
2009/04/23 16:15:48.7     158    -12    -24    159    161  94.4  -8.6  34156  289.50 0854.36
2009/04/23 16:15:48.9     136      0     17    137    139  89.6   7.1  34166  289.69 0854.36
2009/04/23 16:15:48.9     175    -26    -14    177    178  98.6  -4.6  34164  289.65 0854.36
2009/04/23 16:15:49.0     189    -39    -58    194    203 101.7 -16.8  34160  289.57 0854.36
2009/04/23 16:15:49.1     177     15    -10    178    179  85.0  -3.3  34174  289.80 0854.36
2009/04/23 16:15:49.2     168     10    -24    169    171  86.3  -8.2  34170  289.74 0854.36
2009/04/23 16:15:49.3     132     22     -5    134    135  80.3  -2.2  34172  289.77 0854.36
2009/04/23 16:15:49.5     131     24    -32    134    138  79.4 -13.4  34176  289.84 0854.36
2009/04/23 16:15:49.6     122     28     67    126    142  76.7  30.3  34176  289.84 0854.36
2009/04/23 16:15:49.6     128     56    -12    140    141  66.4  -5.2  34178  289.87 0854.36
2009/04/23 16:15:49.7     199     52    -18    206    207  75.2  -5.2  34180  289.92 0854.36
2009/04/23 16:15:49.9     186     26    -22    188    190  82.0  -6.7  34186  290.02 0854.36
2009/04/23 16:15:50.0     143     56    -15    154    155  68.3  -5.6  34182  289.94 0854.36
2009/04/23 16:15:50.0     149     21      7    151    152  81.6   2.9  34184  289.99 0854.36
2009/04/23 16:15:50.2     114      3     69    115    134  88.3  34.4  34190  290.08 0854.36
2009/04/23 16:15:50.3     107     51     92    119    150  64.6  41.7  34186  290.02 0854.36
2009/04/23 16:15:50.4     135     31     92    139    166  76.7  36.5  34186  290.02 0854.36
2009/04/23 16:15:50.5     212     58     77    220    234  74.7  19.4  34180  289.91 0854.36
2009/04/23 16:15:50.6     213     68     88    224    240  72.1  22.5  34192  290.12 0854.36
2009/04/23 16:15:50.7     218     48     97    224    244  77.4  24.9  34194  290.15 0854.36
2009/04/23 16:15:50.8     218     51     80    224    237  76.7  20.4  34186  290.00 0854.36
2009/04/23 16:15:50.9     240     29    101    242    262  83.0  23.8  34210  290.41 0854.36
2009/04/23 16:15:51.0     204     60    108    213    238  73.4  29.1  34240  290.94 0854.36
2009/04/23 16:15:51.1     153     41    133    159    207  74.9  44.1  34238  290.91 0854.36
2009/04/23 16:15:51.2     209     64    182    219    284  72.9  43.8  34244  291.00 0854.36
2009/04/23 16:15:51.3     194     14    115    195    226  85.6  33.5  34214  290.48 0854.36
2009/04/23 16:15:51.4     160     40     89    166    188  75.8  30.6  34240  290.94 0854.36
2009/04/23 16:15:51.5     180     58     59    190    200  72.1  17.3  34202  290.28 0854.36
2009/04/23 16:15:51.6     162     49     79    170    187  73.2  27.0  34204  290.31 0854.36
2009/04/23 16:15:51.7     125     42     36    132    137  71.4  15.3  34190  290.09 0854.36
2009/04/23 16:15:51.8     110     29     38    114    121  74.9  18.4  34202  290.30 0854.36
2009/04/23 16:15:51.9     115     17     63    117    132  81.6  31.3  34204  290.31 0854.36
2009/04/23 16:15:52.0     129     24     70    132    149  79.4  30.3  34190  290.09 0854.36
2009/04/23 16:15:52.1     133     91     91    162    185  55.6  31.6  34188  290.06 0854.36
2009/04/23 16:15:52.2     208     73     77    221    235  70.5  19.2  34182  289.96 0854.36
2009/04/23 16:15:52.3     203     47    103    209    233  77.0  28.0  34188  290.06 0854.36
2009/04/23 16:15:52.4     135     34    126    140    188  75.8  46.9  34222  290.64 0854.36
2009/04/23 16:15:52.5     189     67    164    201    259  70.5  43.7  34304  292.02 0854.36
2009/04/23 16:15:52.6     136     94    132    166    212  55.1  43.0  34288  291.74 0854.36
2009/04/23 16:15:52.7     181    110    143    212    255  58.7  37.3  34270  291.43 0854.36
2009/04/23 16:15:52.8     123     68    168    141    219  61.1  56.1  34306  292.05 0854.36
2009/04/23 16:15:52.9      93     67    149    115    188  54.0  58.5  34304  292.01 0854.36
2009/04/23 16:15:53.0      52     38    144     65    157  54.1  74.5  34306  292.05 0854.36
2009/04/23 16:15:53.1     135     41    159    142    213  73.2  53.7  34260  291.28 0854.36
2009/04/23 16:15:53.2      63    100    139    119    182  32.5  55.0  34244  290.99 0854.36
2009/04/23 16:15:53.3      26     23    149     35    153  48.7  86.9  34278  291.57 0854.36
2009/04/23 16:15:53.4     110     60    198    126    234  61.2  64.7  34262  291.32 0854.36
2009/04/23 16:15:53.5     145     41    210    151    258  74.1  60.6  34250  291.09 0854.37
2009/04/23 16:15:53.6     166     -5    170    167    238  91.9  50.4  34196  290.18 0854.37
2009/04/23 16:15:53.7     144    -16    151    145    209  96.6  50.9  34182  289.94 0854.37
2009/04/23 16:15:53.8     195     92    105    216    240  64.6  27.8  34192  290.12 0854.37
2009/04/23 16:15:53.9     189     93     59    211    220  63.6  15.6  34194  290.16 0854.37
2009/04/23 16:15:54.0     203     41     40    208    212  78.6  11.0  34216  290.52 0854.37
2009/04/23 16:15:54.1     148     94     62    176    186  57.4  20.2  34240  290.92 0854.37
2009/04/23 16:15:54.2     177    151    100    233    253  49.6  24.3  34300  291.94 0854.37
2009/04/23 16:15:54.3     254    111    123    278    303  66.3  25.3  34262  291.29 0854.37
2009/04/23 16:15:54.4     246    156    113    292    313  57.6  22.2  34248  291.05 0854.37
2009/04/23 16:15:54.5     248    153     62    292    299  58.2  12.2  34210  290.41 0854.37
2009/04/23 16:15:54.6     196    124     63    233    242  57.6  15.3  34170  289.73 0854.37
2009/04/23 16:15:54.7     193    122     67    229    239  57.6  16.3  34210  290.41 0854.37
2009/04/23 16:15:54.8     177    145     62    230    239  50.7  15.2  34212  290.46 0854.37
2009/04/23 16:15:54.9     196     55     87    204    221  74.3  24.3  34202  290.28 0854.37
2009/04/23 16:15:55.0     179     37    138    183    229  78.1  40.9  34208  290.40 0854.37
2009/04/23 16:15:55.1      99     39    159    107    191  68.2  63.4  34230  290.75 0854.37
2009/04/23 16:15:55.2      23    -15     97     28    100 122.5  84.4  34232  290.79 0854.37
2009/04/23 16:15:55.3      83     22    109     86    138  74.9  57.9  34232  290.81 0854.37
2009/04/23 16:15:55.4       5    -67     74     68    100 175.5  52.2  34230  290.75 0854.37
2009/04/23 16:15:55.5      86    -46     92     98    134 118.4  48.5  34230  290.75 0854.37
2009/04/23 16:15:55.6     142    -78    101    163    191 118.9  35.5  34202  290.30 0854.37
2009/04/23 16:15:55.7     117    -54    111    129    170 114.8  45.1  34222  290.64 0854.37
2009/04/23 16:15:55.8     119    -76    105    142    176 122.5  40.1  34218  290.57 0854.37
2009/04/23 16:15:55.9       8    -25     71     27     75 161.3  79.2  34246  291.03 0854.37
2009/04/23 16:15:56.0     -17    -17     54     25     59 225.0  74.0  34250  291.11 0854.37
2009/04/23 16:15:56.1      -7      6     90     10     90 313.1  90.0  34282  291.64 0854.37
2009/04/23 16:15:56.2      -4    -14     98     15     99 198.5  90.0  34282  291.66 0854.37
2009/04/23 16:15:56.3      78     49    139     93    167  57.6  63.2  34312  292.17 0854.37
2009/04/23 16:15:56.4     121     36    113    127    169  73.1  46.4  34292  291.83 0854.37
2009/04/23 16:15:56.5      95    -13    117     96    151  97.9  56.4  34284  291.69 0854.37
2009/04/23 16:15:56.6      63     15    110     65    127  75.8  66.8  34306  292.06 0854.37
2009/04/23 16:15:56.7       1     23    105     24    107   4.5  88.0  34308  292.08 0854.37
2009/04/23 16:15:56.8     -21    -38     67     44     80 209.9  63.6  34302  292.00 0854.37
2009/04/23 16:15:56.9     -42    -74     62     86    106 209.4  39.5  34270  291.45 0854.37
2009/04/23 16:15:57.0    -127    -75     23    148    150 239.3   8.9  34284  291.69 0854.37
2009/04/23 16:15:57.1      -8    -47     -3     48     49 190.7  -4.1  34274  291.50 0854.37
2009/04/23 16:15:57.2      37      0     56     38     67  90.0  62.6  34272  291.47 0854.37
2009/04/23 16:15:57.3      59    -12     44     61     75 101.5  39.5  34274  291.52 0854.37
2009/04/23 16:15:57.4      87     21     27     90     95  76.3  16.8  34284  291.67 0854.39
2009/04/23 16:15:57.5      65     -9     37     66     75  97.9  31.4  34252  291.15 0854.39
2009/04/23 16:15:57.6       0    -27     39     28     48 180.9  61.5  34256  291.21 0854.39
2009/04/23 16:15:57.7     -30      2     24     31     39 274.4  43.7  34238  290.89 0854.39
2009/04/23 16:15:57.8     -33     40     23     52     56 320.4  25.1  34238  290.91 0854.39
2009/04/23 16:15:57.9      59     56     38     82     90  46.4  27.1  34320  292.30 0854.39
2009/04/23 16:15:58.0      76     69     54    103    116  47.8  29.8  34252  291.13 0854.39
2009/04/23 16:15:58.1     111     87     69    142    157  51.8  27.8  34228  290.74 0854.39
2009/04/23 16:15:58.2     120     59     97    134    165  63.8  39.3  34234  290.84 0854.39
2009/04/23 16:15:58.3     106     58    121    121    171  61.2  50.1  34244  291.01 0854.39
2009/04/23 16:15:58.4      88     39    100     97    139  66.0  50.7  34242  290.96 0854.39
2009/04/23 16:15:58.5      20     21     91     30     95  43.2  80.7  34276  291.54 0854.39
2009/04/23 16:15:58.6     -51    -34     63     62     88 236.7  49.7  34284  291.67 0854.39
2009/04/23 16:15:58.7     -52    -52     86     74    113 225.0  54.8  34264  291.33 0854.39
2009/04/23 16:15:58.8     -78    -37     59     87    105 244.2  37.0  34248  291.06 0854.39
2009/04/23 16:15:58.9     -88     18     47     90    101 281.9  29.8  34266  291.38 0854.39
2009/04/23 16:15:59.0     -53     29     31     61     68 298.9  28.2  34280  291.62 0854.39
2009/04/23 16:15:59.1     -27     12     19     30     35 295.2  35.5  34276  291.54 0854.39
2009/04/23 16:15:59.2       9    100     23    101    104   5.3  13.2  34266  291.38 0854.39
2009/04/23 16:15:59.3     -55     97     -4    112    113 330.1  -2.2  34298  291.93 0854.39
2009/04/23 16:15:59.4     -91    125    -19    155    157 323.9  -7.2  34302  292.00 0854.39
2009/04/23 16:15:59.5    -143     62      4    157    158 293.6   1.8  34256  291.21 0854.39
2009/04/23 16:15:59.6    -138    134     63    193    204 314.0  18.1  34250  291.11 0854.39
2009/04/23 16:15:59.7    -167    110     17    201    202 303.5   5.0  34280  291.60 0854.39
2009/04/23 16:15:59.8    -184     85     25    203    205 294.8   7.1  34282  291.66 0854.39
2009/04/23 16:15:59.9    -217     72      0    229    230 288.4   0.2  34278  291.57 0854.39
2009/04/23 16:16:00.0    -227     66     82    237    252 286.2  19.2  34288  291.75 0854.39
2009/04/23 16:16:00.1    -215    -27     29    217    219 262.8   7.8  34304  292.01 0854.39
2009/04/23 16:16:00.2    -208     49      7    214    215 283.3   2.1  34282  291.64 0854.39
2009/04/23 16:16:00.3    -180     10     54    181    190 273.3  16.8  34260  291.28 0854.39
2009/04/23 16:16:00.4    -117    -94     98    151    180 231.4  36.0  34234  290.84 0854.39
2009/04/23 16:16:00.5     -58    -18     62     61     86 252.3  49.7  34246  291.04 0854.39
2009/04/23 16:16:00.6     -25    -19     76     32     82 232.2  76.1  34286  291.72 0854.39
2009/04/23 16:16:00.7       5    -77     66     78    102 175.6  44.8  34288  291.74 0854.39
2009/04/23 16:16:00.8       0   -154     77    155    173 180.4  28.5  34272  291.49 0854.39
2009/04/23 16:16:00.9      22   -298    144    299    331 175.6  27.4  34286  291.70 0854.39
2009/04/23 16:16:01.0     -37   -266    146    269    306 188.0  31.0  34288  291.75 0854.39
2009/04/23 16:16:01.1      -3   -215    160    216    268 180.9  40.1  34256  291.19 0854.39
2009/04/23 16:16:01.2     -51   -214    129    221    255 193.4  32.9  34272  291.48 0854.39
2009/04/23 16:16:01.3     -44   -219    118    224    253 191.6  30.3  34290  291.77 0854.39
2009/04/23 16:16:01.4     -49   -216     82    222    236 192.9  21.3  34290  291.79 0854.39
2009/04/23 16:16:01.5     -70   -160     61    175    186 203.6  19.4  34300  291.95 0854.39
2009/04/23 16:16:01.6    -122   -174     55    213    220 215.0  14.5  34282  291.64 0854.39
2009/04/23 16:16:01.7     -65   -132     74    148    165 206.3  28.7  34284  291.67 0854.39
2009/04/23 16:16:01.8     -69   -125    125    143    189 209.0  45.6  34288  291.76 0854.39
2009/04/23 16:16:01.9    -128    -93     93    159    184 234.1  33.1  34266  291.37 0854.39
2009/04/23 16:16:02.0     -95    -38     54    103    116 247.8  29.8  34272  291.49 0854.39
2009/04/23 16:16:02.1     -19    -54     75     58     94 199.2  58.5  34284  291.69 0854.39
2009/04/23 16:16:02.2     -32     -4     98     33    103 262.1  81.0  34300  291.95 0854.39
2009/04/23 16:16:02.3     -18    -45    101     49    112 201.8  72.8  34296  291.89 0854.39
2009/04/23 16:16:02.4      -7    -84    130     85    155 185.3  64.6  34300  291.96 0854.38
2009/04/23 16:16:02.5     -23   -118     83    121    146 191.1  38.0  34296  291.88 0854.38
2009/04/23 16:16:02.6     -86   -135     95    161    186 212.6  33.5  34290  291.77 0854.38
2009/04/23 16:16:02.7    -104   -200    114    226    253 207.4  28.7  34284  291.68 0854.38
2009/04/23 16:16:02.8    -104   -284     74    303    313 200.1  13.8  34252  291.14 0854.38
2009/04/23 16:16:02.9     -68   -286     81    294    306 193.4  15.4  34244  290.99 0854.38
2009/04/23 16:16:03.0     -71   -270     93    280    296 194.9  18.5  34244  291.00 0854.38
2009/04/23 16:16:03.1     -43   -265     83    269    282 189.3  17.3  34248  291.07 0854.38
2009/04/23 16:16:03.2     -66   -250     92    259    275 194.9  19.6  34234  290.83 0854.38
2009/04/23 16:16:03.3     -91   -254    122    271    297 199.8  25.9  34250  291.09 0854.38
2009/04/23 16:16:03.4    -109   -258    128    281    308 202.9  26.2  34260  291.27 0854.38
2009/04/23 16:16:03.5     -88   -290    103    304    322 197.0  18.8  34238  290.90 0854.38
2009/04/23 16:16:03.6     -76   -249    129    261    291 197.0  28.2  34272  291.46 0854.38
2009/04/23 16:16:03.7     -47   -312    129    316    341 188.7  23.4  34256  291.20 0854.38
2009/04/23 16:16:03.8      33   -359    143    361    388 174.7  22.9  34216  290.52 0854.38
2009/04/23 16:16:03.9     -13   -395    114    396    413 181.9  16.1  34210  290.43 0854.38
2009/04/23 16:16:04.0      28   -414    147    415    441 176.1  19.6  34250  291.11 0854.38
2009/04/23 16:16:04.1      24   -393    106    394    409 176.4  15.1  34254  291.18 0854.38
2009/04/23 16:16:04.2      39   -354    158    357    390 173.7  25.2  34270  291.45 0854.38
2009/04/23 16:16:04.3     -15   -330    208    331    390 182.6  35.1  34268  291.39 0854.38
2009/04/23 16:16:04.4      16   -266    242    267    360 176.4  46.9  34268  291.40 0854.39
2009/04/23 16:16:04.5     -22   -237    231    239    332 185.3  49.1  34278  291.58 0854.39
2009/04/23 16:16:04.6      20   -200    192    202    278 174.2  48.7  34256  291.21 0854.39
2009/04/23 16:16:04.7      60   -302    180    309    357 168.7  32.9  34222  290.64 0854.39
2009/04/23 16:16:04.8     140   -252    146    289    323 151.0  28.7  34226  290.68 0854.39
2009/04/23 16:16:04.9      19   -239     53    240    246 175.3  12.6  34214  290.49 0854.39
2009/04/23 16:16:05.0     -13   -247     53    248    254 183.1  12.2  34196  290.17 0854.39
2009/04/23 16:16:05.1      61   -231    136    240    275 165.1  32.1  34190  290.07 0854.39
2009/04/23 16:16:05.2      77   -170     82    187    204 155.5  25.1  34186  290.02 0854.39
2009/04/23 16:16:05.3      10   -203     98    204    226 177.1  27.3  34184  289.99 0854.39
2009/04/23 16:16:05.4     -82   -206     83    222    237 201.9  21.5  34202  290.29 0854.39
2009/04/23 16:16:05.5    -123   -242     58    272    279 207.0  12.2  34202  290.27 0854.39
2009/04/23 16:16:05.6    -164   -241     71    292    301 214.3  13.7  34196  290.17 0854.39
2009/04/23 16:16:05.7    -142   -239     65    279    287 210.8  13.1  34202  290.27 0854.39
2009/04/23 16:16:05.8    -132   -237     73    272    282 209.2  15.2  34184  289.97 0854.39
2009/04/23 16:16:05.9    -122   -219     12    251    252 209.2   2.8  34198  290.22 0854.39
2009/04/23 16:16:06.0     -62   -238     -9    247    248 194.7  -2.2  34206  290.36 0854.39
2009/04/23 16:16:06.1       7   -313      9    314    315 178.6   1.8  34206  290.36 0854.39
2009/04/23 16:16:06.2      58   -176     82    186    203 161.7  25.1  34212  290.45 0854.39
2009/04/23 16:16:06.3     149   -117    161    190    249 128.2  44.5  34222  290.64 0854.39
2009/04/23 16:16:06.4     185    -90    146    206    252 116.0  38.6  34238  290.90 0854.39
2009/04/23 16:16:06.5      47    -72    186     87    205 147.0  73.1  34258  291.23 0854.39
2009/04/23 16:16:06.6      94    -30    147     99    177 107.7  62.8  34232  290.81 0854.39
2009/04/23 16:16:06.7      37     -7    136     38    141 101.5  84.8  34246  291.04 0854.39
2009/04/23 16:16:06.8      28    -33    112     44    120 139.5  77.1  34242  290.98 0854.39
2009/04/23 16:16:06.9     -27    -83    112     88    142 198.5  57.9  34222  290.64 0854.39
2009/04/23 16:16:07.0     -79   -168    126    186    224 205.4  37.4  34184  289.99 0854.39
2009/04/23 16:16:07.1     -38   -182    155    187    242 192.0  43.8  34194  290.14 0854.39
2009/04/23 16:16:07.2      32    -98    123    104    161 161.7  55.6  34208  290.38 0854.39
2009/04/23 16:16:07.3      99    -99    131    141    192 134.9  47.9  34216  290.52 0854.39
2009/04/23 16:16:07.4      49    -57     85     76    114 139.5  53.3  34234  290.82 0854.39
2009/04/23 16:16:07.5      36   -144     75    149    166 165.7  28.5  34206  290.36 0854.39
2009/04/23 16:16:07.6      29   -137     56    141    151 168.0  23.0  34186  290.01 0854.39
2009/04/23 16:16:07.7      31   -137     57    141    152 167.1  23.0  34186  290.02 0854.39
2009/04/23 16:16:07.8     -14   -108     82    109    136 187.6  40.7  34196  290.19 0854.39
2009/04/23 16:16:07.9      19   -137    109    139    176 171.9  42.4  34190  290.08 0854.39
2009/04/23 16:16:08.0      14   -199    156    200    253 175.8  42.0  34196  290.19 0854.39
2009/04/23 16:16:08.1      -6   -173    129    174    216 182.0  40.1  34188  290.04 0854.39
2009/04/23 16:16:08.2      -6   -148    126    149    195 182.6  44.3  34182  289.96 0854.39
2009/04/23 16:16:08.3      40   -184    177    189    258 167.5  48.0  34188  290.05 0854.39
2009/04/23 16:16:08.4      58    -94    115    111    159 148.4  50.9  34194  290.14 0854.39
2009/04/23 16:16:08.5      74   -145    156    164    226 152.8  48.2  34186  290.02 0854.39
2009/04/23 16:16:08.6      36   -108    150    115    189 161.3  58.7  34206  290.35 0854.39
2009/04/23 16:16:08.7      65    -89    127    111    168 144.0  54.3  34206  290.35 0854.39
2009/04/23 16:16:08.8     103    -86    129    135    186 129.6  48.7  34198  290.21 0854.39
2009/04/23 16:16:08.9      99    -53    107    113    155 118.4  48.7  34208  290.38 0854.39
2009/04/23 16:16:09.0     103    -88    153    136    204 130.4  54.0  34202  290.28 0854.39
2009/04/23 16:16:09.1       3    -57    116     58    129 176.4  71.4  34210  290.41 0854.39
2009/04/23 16:16:09.2      -5   -200    157    201    255 181.6  42.0  34188  290.05 0854.39
2009/04/23 16:16:09.3     -24   -148    137    151    203 189.3  47.5  34186  290.01 0854.39
2009/04/23 16:16:09.4      -5   -126    110    127    168 182.6  45.4  34192  290.11 0854.39
2009/04/23 16:16:09.5      -9    -90     94     91    130 186.2  50.7  34190  290.08 0854.39
2009/04/23 16:16:09.6     -82   -145    153    167    226 209.4  47.7  34182  289.96 0854.39
2009/04/23 16:16:09.7    -122   -114     58    168    178 226.9  19.2  34178  289.87 0854.39
2009/04/23 16:16:09.8      -1    -77    114     78    138 180.9  62.6  34194  290.16 0854.39
2009/04/23 16:16:09.9      -1    -34    114     35    119 182.6  82.7  34206  290.36 0854.39
2009/04/23 16:16:10.0       6    -29     96     30    100 168.4  81.8  34192  290.13 0854.39
2009/04/23 16:16:10.1      25    -20    104     33    109 129.5  81.2  34186  290.02 0854.39
2009/04/23 16:16:10.2      28     19    107     34    112  55.8  81.2  34200  290.26 0854.39
2009/04/23 16:16:10.3      29    -20     90     36     96 124.2  77.6  34196  290.19 0854.39
2009/04/23 16:16:10.4       2     32     78     33     84   4.5  76.6  34204  290.31 0854.40
2009/04/23 16:16:10.5     -15    -45    102     48    112 198.7  73.1  34218  290.57 0854.40
2009/04/23 16:16:10.6      67      7    125     68    142  83.9  68.9  34214  290.48 0854.40
2009/04/23 16:16:10.7      -3     21     84     22     86 350.2  84.9  34216  290.52 0854.40
2009/04/23 16:16:10.8      13    -65    150     67    164 168.4  74.5  34204  290.31 0854.40
2009/04/23 16:16:10.9      84     -5    125     85    151  93.9  62.6  34204  290.31 0854.40
2009/04/23 16:16:11.0       2     52    132     53    142   2.7  77.1  34214  290.48 0854.40
2009/04/23 16:16:11.1     -25     67     63     72     95 339.1  45.8  34208  290.38 0854.40
2009/04/23 16:16:11.2     -27     95     82     99    128 344.0  43.8  34198  290.23 0854.40
2009/04/23 16:16:11.3     -42     64     61     77     98 326.6  43.3  34198  290.23 0854.40
2009/04/23 16:16:11.4    -149     19     29    151    154 277.5  11.1  34178  289.89 0854.40
2009/04/23 16:16:11.5      -5     45     90     46    101 352.9  70.8  34172  289.77 0854.40
2009/04/23 16:16:11.6      47     83    137     96    167  29.4  61.5  34192  290.11 0854.40
2009/04/23 16:16:11.7       2    104     84    105    134   1.4  43.3  34196  290.18 0854.40
2009/04/23 16:16:11.8     -23      4    102     24    104 279.7  86.9  34192  290.11 0854.40
2009/04/23 16:16:11.9      45    -74    104     87    135 148.8  56.3  34180  289.91 0854.40
2009/04/23 16:16:12.0      81   -142     68    164    177 150.1  23.6  34168  289.72 0854.40
2009/04/23 16:16:12.1      87   -179     98    200    222 154.1  28.0  34162  289.60 0854.40
2009/04/23 16:16:12.2      84   -203    148    220    265 157.5  37.0  34146  289.34 0854.40
2009/04/23 16:16:12.3      62   -200    168    210    268 162.8  43.0  34148  289.37 0854.40
2009/04/23 16:16:12.4      15   -174    168    175    242 174.9  49.0  34148  289.38 0854.40
2009/04/23 16:16:12.5      86   -210    189    228    296 157.7  43.8  34140  289.22 0854.40
2009/04/23 16:16:12.6      48   -227    156    233    280 168.0  37.0  34130  289.07 0854.40
2009/04/23 16:16:12.7      44   -175    106    181    209 165.7  33.1  34134  289.13 0854.40
2009/04/23 16:16:12.8      57   -152     83    163    182 159.5  29.3  34138  289.19 0854.40
2009/04/23 16:16:12.9      82   -173    112    192    222 154.7  33.1  34144  289.30 0854.40
2009/04/23 16:16:13.0      51   -163    118    171    207 162.4  37.8  34152  289.43 0854.40
2009/04/23 16:16:13.1      69    -34    138     77    158 116.2  68.5  34174  289.80 0854.40
2009/04/23 16:16:13.2     118     46    207    127    242  68.7  65.6  34178  289.87 0854.40
2009/04/23 16:16:13.3      85   -119    184    147    235 144.4  57.5  34182  289.96 0854.40
2009/04/23 16:16:13.4     115    -63    200    132    239 118.9  63.6  34210  290.41 0854.40
2009/04/23 16:16:13.5     163   -134    191    212    285 129.5  46.6  34164  289.63 0854.40
2009/04/23 16:16:13.6     155   -122    156    198    252 128.2  42.4  34154  289.47 0854.40
2009/04/23 16:16:13.7      99   -172    139    199    242 150.1  38.4  34150  289.41 0854.40
2009/04/23 16:16:13.8     118   -162    131    201    239 143.9  36.5  34148  289.38 0854.40
2009/04/23 16:16:13.9     112   -134    126    175    215 140.1  39.5  34152  289.43 0854.40
2009/04/23 16:16:14.0      99   -208    102    231    252 154.4  25.2  34144  289.29 0854.40
2009/04/23 16:16:14.1      38   -194    117    198    229 168.9  33.5  34150  289.40 0854.40
2009/04/23 16:16:14.2       3   -190    113    191    221 179.0  33.5  34150  289.40 0854.40
2009/04/23 16:16:14.3     -13   -181     95    182    205 184.4  29.5  34150  289.40 0854.40
2009/04/23 16:16:14.4      15   -166     85    167    187 174.7  29.1  34150  289.41 0854.40
2009/04/23 16:16:14.5      32   -191     66    194    206 170.4  18.9  34146  289.33 0854.40
2009/04/23 16:16:14.6      -5   -167     72    168    182 181.8  24.3  34146  289.35 0854.40
2009/04/23 16:16:14.7     -32   -169     61    173    184 190.9  19.6  34142  289.28 0854.40
2009/04/23 16:16:14.8     -63   -170    111    182    213 200.5  34.4  34136  289.18 0854.40
2009/04/23 16:16:14.9     -87   -137     82    163    182 212.5  28.5  34140  289.24 0854.40
2009/04/23 16:16:15.0     -92   -119    118    151    191 217.8  42.2  34136  289.18 0854.40
2009/04/23 16:16:15.1    -112   -123    104    167    196 222.3  35.0  34136  289.18 0854.40
2009/04/23 16:16:15.2    -136   -116     73    179    193 229.6  23.1  34136  289.16 0854.40
2009/04/23 16:16:15.3    -139   -179    124    227    258 217.8  31.3  34164  289.64 0854.40
2009/04/23 16:16:15.4     -87   -206    120    224    254 202.9  30.3  34144  289.31 0854.40
2009/04/23 16:16:15.5     -86   -209    109    227    251 202.5  27.3  34152  289.42 0854.40
2009/04/23 16:16:15.6     -66   -199    119    210    241 198.5  32.3  34156  289.52 0854.40
2009/04/23 16:16:15.7     -85   -201     56    219    227 202.9  14.5  34138  289.21 0854.40
2009/04/23 16:16:15.8     -58   -215     71    223    235 195.2  17.7  34148  289.36 0854.40
2009/04/23 16:16:15.9     -42   -198    120    203    235 192.0  33.1  34158  289.53 0854.40
2009/04/23 16:16:16.0     -87   -206     98    224    244 202.9  25.2  34142  289.25 0854.40
2009/04/23 16:16:16.1     -51   -162     93    170    193 197.6  31.3  34148  289.36 0854.40
2009/04/23 16:16:16.2     -19   -174    107    176    205 186.2  34.2  34156  289.50 0854.40
2009/04/23 16:16:16.3     -18   -111     90    113    144 189.3  42.7  34160  289.57 0854.40
2009/04/23 16:16:16.4      -8    -78     93     79    122 186.2  54.8  34172  289.79 0854.41
2009/04/23 16:16:16.6      -5    -20     48     21     52 195.1  75.0  34186  290.01 0854.41
2009/04/23 16:16:16.7     -14    -43     84     46     95 198.5  68.8  34186  290.02 0854.41
2009/04/23 16:16:16.7     -22      3     65     23     68 279.7  81.2  34196  290.19 0854.41
2009/04/23 16:16:16.9     -27    -67     86     73    112 201.8  55.8  34196  290.18 0854.41
2009/04/23 16:16:17.0     -29    -43     28     53     59 214.3  30.3  34172  289.77 0854.41
2009/04/23 16:16:17.1     -51    -51    -14     73     75 225.1 -11.3  34154  289.46 0854.41
2009/04/23 16:16:17.2     -73    -37    -13     82     84 242.9  -9.3  34154  289.48 0854.41
2009/04/23 16:16:17.3     -71    -59    -30     93     97 230.0 -23.8  34150  289.41 0854.41
2009/04/23 16:16:17.4    -111    -30     27    116    120 254.9  13.2  34164  289.63 0854.41
2009/04/23 16:16:17.5     -48     -3    -44     49     65 265.7 -52.3  34166  289.69 0854.41
2009/04/23 16:16:17.6    -191    -40     -8    196    197 258.1  -2.6  34220  290.60 0854.41
2009/04/23 16:16:17.7    -239     -9    -79    240    252 267.6 -23.8  34184  289.97 0854.41
2009/04/23 16:16:17.8    -185    134    -70    229    240 306.0 -17.0  34194  290.15 0854.41
2009/04/23 16:16:17.9    -219     69     21    230    232 287.7   5.4  34230  290.75 0854.41
2009/04/23 16:16:18.0    -182     57     46    191    197 287.5  13.5  34234  290.82 0854.41
2009/04/23 16:16:18.1    -160    117     73    199    211 306.2  21.0  34222  290.64 0854.41
2009/04/23 16:16:18.2    -206    162     56    263    270 308.2  12.2  34214  290.48 0854.41
2009/04/23 16:16:18.3    -205    111    -13    234    235 298.4  -3.2  34204  290.31 0854.41
2009/04/23 16:16:18.4     -62    113     35    130    135 331.1  15.3  34222  290.64 0854.41
2009/04/23 16:16:18.5     -14     76     30     78     83 349.3  21.5  34236  290.86 0854.40
2009/04/23 16:16:18.6      15     90     56     92    107   9.8  35.0  34264  291.35 0854.40
2009/04/23 16:16:18.7     -51    129     47    139    147 338.2  18.9  34256  291.21 0854.40
2009/04/23 16:16:18.8    -181     85    -42    201    206 295.2 -11.9  34208  290.38 0854.40
2009/04/23 16:16:18.9    -175     64     35    187    191 290.2  10.8  34202  290.30 0854.40
2009/04/23 16:16:19.0    -147    166     56    222    230 318.5  14.3  34230  290.75 0854.40
2009/04/23 16:16:19.1    -157    147     27    216    218 313.1   7.2  34250  291.11 0854.40
2009/04/23 16:16:19.2    -123    193     37    230    234 327.4   9.3  34262  291.30 0854.40
2009/04/23 16:16:19.3    -117    177      2    213    214 326.6   0.7  34256  291.20 0854.40
2009/04/23 16:16:19.4     -78    153     97    172    197 332.8  31.9  34272  291.49 0854.40
2009/04/23 16:16:19.5     -12     61     65     63     90 348.4  50.7  34272  291.47 0854.41
2009/04/23 16:16:19.6     -87    131     83    158    178 326.2  30.1  34294  291.84 0854.41
2009/04/23 16:16:19.7    -199     93     -6    220    221 295.2  -1.8  34230  290.75 0854.41
2009/04/23 16:16:19.8    -198     98    -19    222    223 296.4  -5.1  34232  290.81 0854.41
2009/04/23 16:16:19.9    -242     49    -22    247    249 281.5  -5.2  34220  290.59 0854.41
2009/04/23 16:16:20.0    -195     65     55    206    214 288.4  15.0  34262  291.30 0854.41
2009/04/23 16:16:20.1    -288      1      2    289    290 270.4   0.5  34244  291.00 0854.41
2009/04/23 16:16:20.2    -293    -60     27    300    302 258.3   5.2  34260  291.26 0854.41
2009/04/23 16:16:20.3    -165    -90    105    189    216 241.4  31.4  34282  291.64 0854.41
2009/04/23 16:16:20.4    -211    -80    124    226    257 249.2  31.3  34322  292.33 0854.41
2009/04/23 16:16:20.5    -165   -110     44    199    204 236.3  12.6  34300  291.96 0854.41
2009/04/23 16:16:20.6    -156   -105     35    189    193 236.0  10.6  34276  291.54 0854.41
2009/04/23 16:16:20.7    -104   -151    -23    184    186 214.7  -7.3  34240  290.94 0854.41
2009/04/23 16:16:20.8      -7   -132     39    133    139 183.1  16.3  34272  291.47 0854.41
2009/04/23 16:16:20.9     -56   -141     66    153    166 201.9  24.9  34272  291.47 0854.41
2009/04/23 16:16:21.0     -71   -115     65    136    150 211.6  27.2  34256  291.20 0854.41
2009/04/23 16:16:21.1    -101   -120     69    157    171 220.1  25.3  34226  290.70 0854.41
2009/04/23 16:16:21.2     -77   -125     73    147    164 211.6  28.5  34248  291.06 0854.41
2009/04/23 16:16:21.3    -103   -106     32    149    153 224.1  12.2  34282  291.66 0854.41
2009/04/23 16:16:21.4     -98   -164      9    192    193 211.0   2.9  34294  291.84 0854.41
2009/04/23 16:16:21.5      -4   -182     76    183    198 181.4  23.6  34290  291.79 0854.41
2009/04/23 16:16:21.6       8   -205     82    206    221 177.5  23.0  34276  291.55 0854.41
2009/04/23 16:16:21.7     -54   -208     23    216    218 194.7   6.1  34276  291.55 0854.41
2009/04/23 16:16:21.8     -78   -195     32    211    214 201.9   8.8  34302  292.00 0854.41
2009/04/23 16:16:21.9     -83   -199     16    216    217 202.7   4.4  34306  292.06 0854.41
2009/04/23 16:16:22.0    -114   -203     37    234    237 209.4   9.0  34278  291.58 0854.41
2009/04/23 16:16:22.1    -105   -223    109    247    269 205.4  25.3  34246  291.02 0854.41
2009/04/23 16:16:22.2    -107   -251     34    274    277 203.2   7.1  34218  290.56 0854.41
2009/04/23 16:16:22.3    -108   -221     47    247    252 206.1  10.8  34204  290.32 0854.41
2009/04/23 16:16:22.4     -85   -179     -5    199    200 205.5  -1.6  34178  289.87 0854.41
2009/04/23 16:16:22.5    -114   -240    -66    266    275 205.5 -13.9  34144  289.31 0854.41
2009/04/23 16:16:22.6    -163   -264    -68    311    319 211.6 -12.4  34142  289.27 0854.41
2009/04/23 16:16:22.7    -155   -239     -6    286    287 213.0  -1.3  34202  290.29 0854.41
2009/04/23 16:16:22.8    -119   -182     48    218    224 213.4  12.4  34186  290.02 0854.41
2009/04/23 16:16:22.9    -227   -109     21    253    254 244.2   4.9  34238  290.88 0854.41
2009/04/23 16:16:23.0    -240   -186    -21    304    305 232.2  -4.1  34244  291.00 0854.41
2009/04/23 16:16:23.1    -244   -185     74    307    316 232.9  13.6  34242  290.97 0854.41
2009/04/23 16:16:23.2    -329   -148    125    361    383 245.7  19.2  34238  290.88 0854.41
2009/04/23 16:16:23.3    -291   -160    114    333    353 241.1  18.9  34250  291.11 0854.41
2009/04/23 16:16:23.4    -254   -190    159    318    355 233.1  28.5  34212  290.45 0854.41
2009/04/23 16:16:23.5    -184   -179    218    258    337 225.8  44.4  34214  290.48 0854.41
2009/04/23 16:16:23.6    -345   -182     74    391    399 242.1  10.8  34208  290.40 0854.41
2009/04/23 16:16:23.7    -148   -214    170    261    311 214.7  35.6  34194  290.15 0854.41
2009/04/23 16:16:23.8    -191   -157    161    248    295 230.7  35.7  34188  290.03 0854.41
2009/04/23 16:16:23.9    -100   -187     71    213    225 208.1  18.5  34196  290.19 0854.41
2009/04/23 16:16:24.0     -88   -192    189    212    284 204.7  45.9  34154  289.46 0854.41
2009/04/23 16:16:24.1    -116   -165    160    202    257 215.2  42.7  34162  289.61 0854.41
2009/04/23 16:16:24.2     -50   -193    138    200    242 194.7  37.8  34170  289.75 0854.41
2009/04/23 16:16:24.3     -41   -244    198    248    317 189.7  42.7  34180  289.92 0854.41
2009/04/23 16:16:24.4     -16   -211    187    212    282 184.5  45.9  34188  290.05 0854.41
2009/04/23 16:16:24.5     -40   -173    164    178    242 193.1  47.7  34188  290.04 0854.41
2009/04/23 16:16:24.6     -21   -168    198    170    260 187.1  55.0  34180  289.90 0854.41
2009/04/23 16:16:24.7     -32   -167    188    171    254 190.9  52.7  34168  289.72 0854.41
2009/04/23 16:16:24.8     -31   -151    157    155    220 191.6  50.1  34170  289.74 0854.41
2009/04/23 16:16:24.9      -1   -118    155    119    195 180.5  58.5  34176  289.84 0854.41
2009/04/23 16:16:25.0     -25   -164    176    167    242 188.9  51.4  34176  289.85 0854.41
2009/04/23 16:16:25.1     -38   -169    160    174    236 192.7  47.5  34184  289.99 0854.41
2009/04/23 16:16:25.2     -13   -172    164    173    238 184.5  48.5  34182  289.94 0854.41
2009/04/23 16:16:25.3     -66   -180    154    192    246 200.3  43.0  34176  289.85 0854.41
2009/04/23 16:16:25.4     -56   -140    158    151    218 201.8  51.6  34176  289.84 0854.40
2009/04/23 16:16:25.5     -50   -138    197    147    245 200.0  59.4  34174  289.82 0854.40
2009/04/23 16:16:25.6     -22   -123    195    125    231 190.2  64.6  34186  290.02 0854.40
2009/04/23 16:16:25.7     -54   -179    190    188    267 196.9  50.1  34174  289.81 0854.40
2009/04/23 16:16:25.8     -68   -204    157    216    267 198.5  39.7  34170  289.75 0854.40
2009/04/23 16:16:25.9     -33   -184    201    188    275 190.2  52.2  34180  289.90 0854.40
2009/04/23 16:16:26.0     -96   -269    152    286    323 199.8  30.2  34176  289.83 0854.40
2009/04/23 16:16:26.1     -79   -276    167    288    332 196.1  32.8  34166  289.66 0854.40
2009/04/23 16:16:26.2     -44   -276    158    280    321 189.1  32.1  34148  289.37 0854.40
2009/04/23 16:16:26.3      -8   -281    195    282    342 181.8  37.9  34152  289.44 0854.40
2009/04/23 16:16:26.4       8   -258    140    259    294 178.2  30.8  34150  289.41 0854.40
2009/04/23 16:16:26.5      97   -243     97    262    279 158.1  21.0  34148  289.36 0854.40
2009/04/23 16:16:26.6     173   -247     73    302    311 145.0  13.7  34148  289.37 0854.40
2009/04/23 16:16:26.7     150   -271     73    311    320 151.0  13.2  34146  289.34 0854.40
2009/04/23 16:16:26.8     165   -219     28    275    277 143.0   5.9  34148  289.36 0854.40
2009/04/23 16:16:26.9     166   -208     91    267    283 141.5  18.9  34144  289.31 0854.40
2009/04/23 16:16:27.0     117   -161     71    200    212 144.0  20.2  34146  289.35 0854.40
2009/04/23 16:16:27.1     105   -166     52    197    204 147.5  15.0  34150  289.41 0854.40
2009/04/23 16:16:27.2      46   -141    108    149    184 161.7  39.5  34150  289.41 0854.40
2009/04/23 16:16:27.3      75   -153     91    171    193 153.9  30.6  34152  289.43 0854.40
2009/04/23 16:16:27.4     113    -89     48    145    153 128.2  18.4  34150  289.41 0854.41
2009/04/23 16:16:27.5      97    -79     49    126    135 129.1  21.5  34154  289.46 0854.41
2009/04/23 16:16:27.6     104    -67     15    124    125 122.9   7.1  34158  289.53 0854.41
2009/04/23 16:16:27.7      94    -93     31    133    137 134.9  13.2  34154  289.48 0854.41
2009/04/23 16:16:27.8     104   -135     62    171    181 142.2  20.7  34150  289.41 0854.41
2009/04/23 16:16:27.9      74   -105     98    129    162 144.8  41.2  34154  289.46 0854.41
2009/04/23 16:16:28.0      -4   -185    137    186    231 181.4  39.9  34158  289.55 0854.41
2009/04/23 16:16:28.1     -20   -181    163    183    245 186.5  46.2  34166  289.67 0854.41
2009/04/23 16:16:28.2      26   -170    112    173    206 171.1  35.7  34164  289.63 0854.41
2009/04/23 16:16:28.3      11   -179    112    180    212 176.4  35.5  34160  289.57 0854.41
2009/04/23 16:16:28.4      29   -192     65    195    206 171.3  18.6  34160  289.58 0854.41
2009/04/23 16:16:28.5      22   -202     56    204    212 173.7  15.6  34162  289.60 0854.41
2009/04/23 16:16:28.6     -15   -195     11    196    197 184.5   3.3  34160  289.57 0854.41
2009/04/23 16:16:28.7      -9   -200    -30    201    204 182.6  -8.6  34156  289.52 0854.41
2009/04/23 16:16:28.8     -55   -158    -36    168    172 199.2 -12.2  34156  289.52 0854.41
2009/04/23 16:16:28.9     -20   -163    -47    165    171 187.1 -20.7  34158  289.53 0854.41
2009/04/23 16:16:29.0      18   -179    -23    180    182 174.2  -7.3  34158  289.53 0854.41
2009/04/23 16:16:29.1     -15   -131    -62    132    145 186.7 -31.5  34158  289.55 0854.41
2009/04/23 16:16:29.2     -93   -151    -96    178    202 211.6 -35.4  34162  289.60 0854.41
2009/04/23 16:16:29.3    -164   -197   -119    257    283 219.7 -31.4  34166  289.68 0854.41
2009/04/23 16:16:29.4    -174   -272    -95    323    336 212.6 -21.2  34154  289.47 0854.41
2009/04/23 16:16:29.5    -112   -236    -72    262    272 205.5 -15.4  34152  289.44 0854.41
2009/04/23 16:16:29.6     -61   -302    -28    309    311 191.5  -5.2  34154  289.47 0854.41
2009/04/23 16:16:29.7     -16   -274      1    275    276 183.4   0.2  34158  289.53 0854.41
2009/04/23 16:16:29.8     -39   -335    -19    338    339 186.7  -3.3  34160  289.57 0854.41
2009/04/23 16:16:29.9     -51   -303    -22    308    309 189.7  -4.1  34162  289.61 0854.41
2009/04/23 16:16:30.0    -101   -247    -82    267    279 202.3 -21.8  34166  289.66 0854.41
2009/04/23 16:16:30.1    -184   -281   -101    337    352 213.2 -16.8  34158  289.55 0854.41
2009/04/23 16:16:30.2    -216   -280   -124    354    376 217.6 -19.3  34148  289.37 0854.41
2009/04/23 16:16:30.3    -162   -207   -104    264    283 218.1 -27.2  34134  289.14 0854.41
2009/04/23 16:16:30.4    -129   -175   -121    218    249 216.3 -35.8  34116  288.81 0854.41
2009/04/23 16:16:30.5     -70   -343   -127    351    373 191.7 -25.3  34130  289.06 0854.41
2009/04/23 16:16:30.6     -72   -322   -110    331    348 192.6 -23.8  34136  289.16 0854.41
2009/04/23 16:16:30.7     -31   -348    -19    350    351 185.2  -3.1  34138  289.21 0854.41
2009/04/23 16:16:30.8     -14   -272    -35    273    276 183.1  -7.3  34140  289.24 0854.41
2009/04/23 16:16:30.9     -32   -277    -90    279    294 186.7 -17.9  34138  289.19 0854.41
2009/04/23 16:16:31.0     -20   -242    -90    243    259 184.9 -25.4  34140  289.24 0854.41
2009/04/23 16:16:31.1     -31   -223    -65    226    236 188.0 -16.0  34136  289.18 0854.41
2009/04/23 16:16:31.2      66   -231    -52    241    247 164.0 -12.2  34138  289.20 0854.41
2009/04/23 16:16:31.3      25   -195    -48    197    203 172.7 -13.9  34144  289.31 0854.41
2009/04/23 16:16:31.4      10   -217    -42    218    223 177.3 -11.1  34144  289.31 0854.42
2009/04/23 16:16:31.5     -29   -218    -31    220    223 187.6  -8.2  34140  289.24 0854.42
2009/04/23 16:16:31.6     -27   -335    -20    337    338 184.7  -3.5  34136  289.15 0854.42
2009/04/23 16:16:31.7     -50   -351    -13    355    356 188.1  -2.2  34100  288.54 0854.42
2009/04/23 16:16:31.8     -78   -347     -6    356    357 192.7  -1.1  34080  288.22 0854.42
2009/04/23 16:16:31.9     -63   -356    -37    362    364 190.1  -5.9  34080  288.22 0854.42
2009/04/23 16:16:32.0     -20   -396    -93    397    408 182.9 -13.3  34080  288.23 0854.42
2009/04/23 16:16:32.1     -29   -378   -128    380    402 184.5 -18.6  34082  288.25 0854.42
2009/04/23 16:16:32.2     -65   -376   -118    382    399 189.9 -22.3  34092  288.42 0854.42
2009/04/23 16:16:32.3    -101   -446    -83    458    466 192.8 -10.3  34100  288.56 0854.42
2009/04/23 16:16:32.4    -126   -386     45    407    410 198.1   6.4  34106  288.67 0854.42
2009/04/23 16:16:32.5    -107   -320     59    338    344 198.5   9.9  34100  288.57 0854.42
2009/04/23 16:16:32.6     -78   -244     63    257    265 197.8  13.9  34118  288.85 0854.42
2009/04/23 16:16:32.7     -15   -259     96    260    277 183.5  21.0  34134  289.12 0854.42
2009/04/23 16:16:32.8     -41   -252     87    256    271 189.3  18.9  34140  289.24 0854.42
2009/04/23 16:16:32.9    -100   -223     67    245    255 204.1  15.3  34120  288.88 0854.42
2009/04/23 16:16:33.0     -94   -169     86    194    212 209.2  25.3  34128  289.02 0854.42
2009/04/23 16:16:33.1     -60   -222     49    231    237 195.2  12.2  34130  289.05 0854.42
2009/04/23 16:16:33.2     -62   -253     31    261    263 193.8   6.9  34120  288.90 0854.42
2009/04/23 16:16:33.3     -58   -267    -10    274    275 192.3  -2.2  34100  288.54 0854.42
2009/04/23 16:16:33.4     -71   -234     19    245    246 197.0   4.6  34112  288.76 0854.41
2009/04/23 16:16:33.5     -48   -266     -3    271    272 190.2  -0.7  34090  288.37 0854.41
2009/04/23 16:16:33.6     -42   -274    -26    278    280 188.9  -5.4  34098  288.53 0854.41
2009/04/23 16:16:33.7     -60   -254    -57    262    269 193.4 -12.4  34106  288.65 0854.41
2009/04/23 16:16:33.8     -35   -240    -30    243    245 188.5  -7.2  34106  288.66 0854.41
2009/04/23 16:16:33.9     -24   -213    -11    215    216 186.5  -3.1  34108  288.69 0854.41
2009/04/23 16:16:34.0     -74   -207    -21    221    223 199.8  -5.6  34102  288.60 0854.41
2009/04/23 16:16:34.1     -68   -185    -25    198    200 200.3  -7.3  34100  288.57 0854.41
2009/04/23 16:16:34.2     -48   -138     23    147    149 199.2   9.0  34100  288.57 0854.41
2009/04/23 16:16:34.3     -55   -126     16    138    140 203.6   6.9  34104  288.62 0854.41
2009/04/23 16:16:34.4       9   -128     35    129    134 176.0  15.3  34102  288.60 0854.41
2009/04/23 16:16:34.5       0   -136     46    137    145 180.4  18.9  34106  288.65 0854.41
2009/04/23 16:16:34.6     -24   -146     28    148    151 189.3  11.0  34110  288.74 0854.41
2009/04/23 16:16:34.7      -8   -133     58    134    146 183.6  25.1  34118  288.86 0854.41
2009/04/23 16:16:34.8       8   -127     49    128    137 176.0  21.5  34118  288.86 0854.41
2009/04/23 16:16:34.9      12   -126      8    127    128 174.2   3.8  34112  288.75 0854.41
2009/04/23 16:16:35.0      37   -166     51    171    179 167.3  16.6  34110  288.72 0854.41
2009/04/23 16:16:35.1      25   -126     -5    129    130 168.4  -2.2  34108  288.70 0854.41
2009/04/23 16:16:35.2      15   -106      5    108    109 171.5   2.8  34116  288.84 0854.41
2009/04/23 16:16:35.3      28   -159     74    162    178 169.8  26.2  34124  288.96 0854.41
2009/04/23 16:16:35.4       7   -149    100    150    180 177.3  37.0  34122  288.94 0854.42
2009/04/23 16:16:35.5      89   -141    108    167    198 147.7  35.7  34130  289.08 0854.42
2009/04/23 16:16:35.6     101   -153     98    184    208 146.4  30.3  34128  289.04 0854.42
2009/04/23 16:16:35.7     -17   -124     90    126    154 188.1  39.5  34124  288.96 0854.42
2009/04/23 16:16:35.8      -1   -160     -2    161    162 180.7  -0.7  34120  288.89 0854.42
2009/04/23 16:16:35.9     -40   -151    -26    157    160 195.1  -9.6  34108  288.69 0854.42
2009/04/23 16:16:36.0     -29   -162     12    165    166 190.2   4.2  34122  288.92 0854.42
2009/04/23 16:16:36.1     -31   -152     21    156    158 191.5   7.8  34116  288.84 0854.42
2009/04/23 16:16:36.2     -31   -131     36    135    140 193.4  15.2  34112  288.75 0854.42
2009/04/23 16:16:36.3     -42   -125     31    132    136 198.7  13.2  34120  288.89 0854.42
2009/04/23 16:16:36.4     -47   -115     15    125    126 202.3   7.1  34122  288.94 0854.42
2009/04/23 16:16:36.5     -43   -127    -17    135    137 198.7  -7.3  34114  288.80 0854.42
2009/04/23 16:16:36.6     -44   -116    -39    125    132 200.9 -17.5  34116  288.82 0854.42
2009/04/23 16:16:36.7     -40   -100    -13    108    109 201.8  -7.3  34114  288.79 0854.42
2009/04/23 16:16:36.8     -19   -129    -26    131    134 188.5 -11.3  34110  288.74 0854.42
2009/04/23 16:16:36.9     -44   -132    -47    140    148 198.7 -18.7  34112  288.75 0854.42
2009/04/23 16:16:37.0     -78   -133    -29    155    158 210.3 -10.9  34108  288.70 0854.42
2009/04/23 16:16:37.1     -88   -129     -9    157    158 214.3  -3.3  34110  288.74 0854.42
2009/04/23 16:16:37.2     -96   -124    -42    158    164 217.8 -15.0  34108  288.70 0854.42
2009/04/23 16:16:37.3     -94   -126    -24    158    160 216.5  -8.8  34104  288.64 0854.42
2009/04/23 16:16:37.4     -87   -105     32    137    141 219.7  13.2  34114  288.79 0854.41
2009/04/23 16:16:37.5    -113    -89      8    145    146 231.8   3.3  34112  288.75 0854.41
2009/04/23 16:16:37.6    -113   -109     -1    158    159 226.0  -0.7  34108  288.70 0854.41
2009/04/23 16:16:37.7     -49   -150      0    159    160 198.3   0.2  34110  288.74 0854.41
2009/04/23 16:16:37.8     -39   -148     38    154    159 195.1  13.9  34110  288.74 0854.41
2009/04/23 16:16:37.9     -10   -138      6    139    140 184.4   2.8  34112  288.77 0854.41
2009/04/23 16:16:38.0     -32   -154     -6    158    159 192.0  -2.2  34108  288.70 0854.41
2009/04/23 16:16:38.1     -63   -196     13    206    207 197.8   3.8  34106  288.67 0854.41
2009/04/23 16:16:38.2     -53   -205    -12    212    213 194.5  -3.3  34108  288.70 0854.41
2009/04/23 16:16:38.3     -73   -185     -4    200    201 201.6  -1.3  34110  288.72 0854.41
2009/04/23 16:16:38.4    -105   -147    -21    181    183 215.6  -6.9  34108  288.69 0854.41
2009/04/23 16:16:38.5    -117   -133    -50    178    185 221.2 -15.8  34108  288.70 0854.41
2009/04/23 16:16:38.6    -103   -110    -71    151    166 223.2 -31.5  34104  288.64 0854.41
2009/04/23 16:16:38.7     -94   -104    -53    141    150 221.9 -25.9  34102  288.58 0854.41
2009/04/23 16:16:38.8     -77   -113    -12    137    138 214.3  -5.2  34104  288.64 0854.41
2009/04/23 16:16:38.9     -75   -118     -7    141    142 212.5  -3.1  34102  288.60 0854.41
2009/04/23 16:16:39.0    -100   -120     -6    157    158 219.6  -2.2  34108  288.70 0854.41
2009/04/23 16:16:39.1    -123    -65    -38    140    146 242.0 -15.4  34112  288.77 0854.41
2009/04/23 16:16:39.2    -111    -52    -61    123    137 244.8 -32.6  34104  288.64 0854.41
2009/04/23 16:16:39.3    -112    -74    -95    135    165 236.7 -43.0  34110  288.72 0854.41
2009/04/23 16:16:39.4    -135    -86    -58    161    171 237.6 -24.6  34110  288.72 0854.41
2009/04/23 16:16:39.5    -141    -91    -31    168    171 237.1 -10.5  34108  288.70 0854.41
2009/04/23 16:16:39.6    -141   -104    -22    176    178 233.6  -7.3  34108  288.69 0854.41
2009/04/23 16:16:39.7    -144   -115    -22    185    187 231.4  -6.9  34104  288.64 0854.41
2009/04/23 16:16:39.8    -131    -89    -36    159    164 235.9 -12.9  34104  288.62 0854.41
2009/04/23 16:16:39.9    -128    -87    -40    155    161 235.8 -14.7  34106  288.65 0854.41
2009/04/23 16:16:40.0    -139    -94    -26    169    172 235.8  -9.0  34104  288.62 0854.41
2009/04/23 16:16:40.1    -127   -115    -40    172    177 227.8 -13.2  34104  288.64 0854.41
2009/04/23 16:16:40.2    -128   -115    -48    173    180 228.2 -15.5  34102  288.58 0854.41
2009/04/23 16:16:40.3    -139   -140    -26    198    200 224.8  -7.5  34100  288.55 0854.41
2009/04/23 16:16:40.4    -155   -146    -35    214    217 226.7  -9.3  34102  288.60 0854.42
2009/04/23 16:16:40.5    -176   -148    -29    231    233 230.0  -7.3  34108  288.69 0854.42
2009/04/23 16:16:40.6    -166   -159    -46    231    236 226.2 -11.3  34112  288.75 0854.42
2009/04/23 16:16:40.7    -161   -144    -48    217    223 228.2 -12.6  34112  288.75 0854.42
2009/04/23 16:16:40.8    -186   -134    -34    230    233 234.3  -8.6  34112  288.75 0854.42
2009/04/23 16:16:40.9    -195   -142    -48    242    247 233.8 -11.3  34110  288.71 0854.42
2009/04/23 16:16:41.0    -194   -124    -74    231    243 237.5 -17.9  34112  288.76 0854.42
2009/04/23 16:16:41.1    -175   -126    -61    216    224 234.3 -20.4  34110  288.74 0854.42
2009/04/23 16:16:41.2    -184    -91    -48    206    212 243.6 -13.2  34120  288.91 0854.42
2009/04/23 16:16:41.3    -167   -108    -43    200    205 237.1 -12.4  34122  288.92 0854.42
2009/04/23 16:16:41.4    -149   -136    -32    203    206 227.6  -9.0  34120  288.91 0854.42
2009/04/23 16:16:41.5    -179   -165    -27    244    246 227.3  -6.5  34126  288.98 0854.42
2009/04/23 16:16:41.6    -157   -160    -12    225    226 224.3  -3.1  34120  288.89 0854.42
2009/04/23 16:16:41.7    -177   -144    -29    229    231 230.9  -7.3  34118  288.87 0854.42
2009/04/23 16:16:41.8    -166   -137    -70    216    228 230.5 -17.9  34112  288.75 0854.42
2009/04/23 16:16:41.9    -182   -100    -64    208    218 241.1 -17.3  34120  288.91 0854.42
2009/04/23 16:16:42.0    -206   -124    -85    241    256 238.9 -19.4  34114  288.78 0854.42
2009/04/23 16:16:42.1    -164   -148   -105    222    245 228.0 -31.5  34114  288.80 0854.42
2009/04/23 16:16:42.2    -128   -110   -113    170    204 229.3 -41.1  34116  288.84 0854.42
2009/04/23 16:16:42.3    -100   -145    -24    177    179 214.5  -8.0  34112  288.77 0854.42
2009/04/23 16:16:42.4     -92   -172      5    196    197 208.1   1.6  34116  288.84 0854.43
2009/04/23 16:16:42.5     -52   -165    -57    174    184 197.6 -18.3  34118  288.86 0854.43
2009/04/23 16:16:42.6     -48   -157    -36    165    169 196.9 -12.4  34120  288.91 0854.43
2009/04/23 16:16:42.7     -43   -162    -34    168    172 195.1 -11.6  34120  288.89 0854.43
2009/04/23 16:16:42.8     -17   -157    -42    158    164 186.2 -15.2  34120  288.91 0854.43
2009/04/23 16:16:42.9     -52   -166    -67    175    187 197.4 -26.4  34116  288.84 0854.43
2009/04/23 16:16:43.0     -22   -160    -56    162    171 188.0 -23.8  34118  288.87 0854.43
2009/04/23 16:16:43.1       0   -108    -39    109    115 180.0 -24.4  34114  288.80 0854.43
2009/04/23 16:16:43.2     -23    -49     33     55     64 205.4  35.5  34118  288.86 0854.43
2009/04/23 16:16:43.3    -106    -69     43    127    135 236.7  18.9  34124  288.97 0854.43
2009/04/23 16:16:43.4    -108   -108    -19    153    155 225.0  -7.2  34122  288.92 0854.43
2009/04/23 16:16:43.5    -137    -89    -62    164    175 237.1 -25.7  34124  288.97 0854.43
2009/04/23 16:16:43.6    -107   -107    -70    152    167 225.1 -31.0  34120  288.91 0854.43
2009/04/23 16:16:43.7     -89   -143    -64    169    180 211.9 -25.9  34122  288.94 0854.43
2009/04/23 16:16:43.8     -57   -173    -65    183    195 198.3 -19.7  34122  288.94 0854.43
2009/04/23 16:16:43.9     -36   -170    -22    174    176 192.0  -7.5  34122  288.92 0854.43
2009/04/23 16:16:44.0     -16   -152     -8    153    154 186.3  -3.2  34124  288.96 0854.43
2009/04/23 16:16:44.1     -29   -141    -49    145    154 191.6 -18.7  34122  288.94 0854.43
2009/04/23 16:16:44.2     -37   -156    -23    161    163 193.4  -8.2  34130  289.06 0854.43
2009/04/23 16:16:44.3     -51   -164    -26    172    175 197.4  -8.8  34120  288.89 0854.43
2009/04/23 16:16:44.5     -44   -175     -6    181    182 194.3  -2.1  34132  289.09 0854.43
2009/04/23 16:16:44.6     -40   -172    -11    177    178 193.1  -3.7  34130  289.06 0854.43
2009/04/23 16:16:44.7     -38   -215      8    219    220 190.0   2.3  34148  289.38 0854.43
2009/04/23 16:16:44.8     -21   -199     -7    201    202 186.3  -2.1  34128  289.02 0854.43
2009/04/23 16:16:44.9      -2   -201     -4    202    203 180.7  -1.2  34152  289.45 0854.43
2009/04/23 16:16:45.0      21   -175     33    177    181 172.9  10.8  34152  289.43 0854.43
2009/04/23 16:16:45.1     -50   -185    -56    192    200 195.4 -21.5  34122  288.92 0854.43
2009/04/23 16:16:45.2     -62   -148    -13    161    162 202.7  -4.9  34120  288.89 0854.43
2009/04/23 16:16:45.3    -145   -114      9    185    186 231.8   2.9  34120  288.91 0854.43
2009/04/23 16:16:45.4    -118   -116      0    166    167 225.6  -0.3  34124  288.96 0854.43
2009/04/23 16:16:45.5     -98   -138     50    170    178 215.2  16.6  34136  289.16 0854.43
2009/04/23 16:16:45.6     -83   -114     68    142    157 216.1  27.4  34146  289.35 0854.43
2009/04/23 16:16:45.7     -83    -77    -66    114    131 227.3 -37.3  34152  289.43 0854.43
2009/04/23 16:16:45.8     -91   -110    -34    143    148 219.6 -13.4  34146  289.35 0854.43
2009/04/23 16:16:45.9    -146    -93    -53    174    181 237.6 -21.7  34148  289.38 0854.43
2009/04/23 16:16:46.0    -149    -87    -34    173    177 239.8 -11.3  34154  289.48 0854.43
2009/04/23 16:16:46.1    -125    -78      7    148    149 238.0   2.8  34156  289.50 0854.43
2009/04/23 16:16:46.2     -84    -83     16    119    121 225.4   8.0  34148  289.36 0854.43
2009/04/23 16:16:46.3     -62    -95     17    114    116 213.0   8.5  34148  289.38 0854.43
2009/04/23 16:16:46.4     -53    -94     47    109    118 209.4  25.1  34148  289.38 0854.43
2009/04/23 16:16:46.5     -72   -146     74    163    179 206.3  26.2  34148  289.36 0854.44
2009/04/23 16:16:46.6     -74   -126     84    147    169 210.7  32.4  34158  289.55 0854.44
2009/04/23 16:16:46.7     -91   -110     77    143    162 219.6  30.8  34162  289.62 0854.44
2009/04/23 16:16:46.8     -62    -83     72    104    126 217.0  37.6  34158  289.55 0854.44
2009/04/23 16:16:46.9     -25   -105     60    109    124 193.8  31.4  34158  289.53 0854.44
2009/04/23 16:16:47.0     -27    -54     54     61     81 207.2  46.4  34162  289.60 0854.44
2009/04/23 16:16:47.1     -48    -45     32     67     74 226.9  27.1  34162  289.60 0854.44
2009/04/23 16:16:47.2     -50     -9     60     51     78 259.4  54.8  34168  289.72 0854.44
2009/04/23 16:16:47.3     -61     15     43     63     76 284.2  36.5  34180  289.91 0854.44
2009/04/23 16:16:47.4     -92     15     45     94    104 279.7  27.3  34188  290.04 0854.44
2009/04/23 16:16:47.5    -108     22     66    111    129 281.5  33.5  34216  290.52 0854.44
2009/04/23 16:16:47.6    -101     10     59    102    117 276.1  32.4  34220  290.58 0854.44
2009/04/23 16:16:47.7    -137     29     52    141    150 281.9  20.9  34238  290.89 0854.44
2009/04/23 16:16:47.8    -156     -2     45    157    164 269.1  16.0  34192  290.11 0854.44
2009/04/23 16:16:47.9    -192     33     69    195    208 279.9  19.6  34216  290.53 0854.44
2009/04/23 16:16:48.0    -142     41     40    148    154 286.4  15.2  34224  290.67 0854.44
2009/04/23 16:16:48.1    -185      6      6    186    187 271.9   2.1  34200  290.25 0854.44
2009/04/23 16:16:48.2    -151     35     -8    156    157 283.3  -3.1  34182  289.94 0854.44
2009/04/23 16:16:48.3    -159     54     33    169    173 288.8  11.1  34234  290.84 0854.44
2009/04/23 16:16:48.4     -75     80     23    110    113 316.7  12.2  34264  291.35 0854.44
2009/04/23 16:16:48.5    -106     22     38    109    116 281.9  19.4  34270  291.45 0854.45
2009/04/23 16:16:48.6    -127    100     80    162    180 308.2  28.2  34256  291.21 0854.45
2009/04/23 16:16:48.7    -134     53     81    145    166 291.7  31.9  34254  291.18 0854.45
2009/04/23 16:16:48.8     -95     50     37    108    115 298.0  18.9  34248  291.08 0854.45
2009/04/23 16:16:48.9     -99     36     18    106    108 290.4  10.1  34250  291.09 0854.45
2009/04/23 16:16:49.0    -122     63     -9    138    139 297.5  -4.1  34246  291.04 0854.45
2009/04/23 16:16:49.1     -88     63     64    109    126 305.5  33.5  34250  291.11 0854.45
2009/04/23 16:16:49.2     -49     75     46     90    101 326.6  29.3  34252  291.15 0854.45
2009/04/23 16:16:49.3     -84    101     31    132    136 320.4  13.2  34244  290.99 0854.45
2009/04/23 16:16:49.4     -90     43     48    101    111 295.8  27.2  34244  290.99 0854.45
2009/04/23 16:16:49.5     -85     19      9     88     89 282.8   5.9  34244  291.01 0854.45
2009/04/23 16:16:49.6     -55     25     12     61     63 295.2  11.0  34244  290.99 0854.45
2009/04/23 16:16:49.7     -58     15     -2     61     62 285.1  -2.2  34240  290.94 0854.45
2009/04/23 16:16:49.8     -31     36     44     48     65 319.5  47.9  34244  291.01 0854.45
2009/04/23 16:16:49.9     -53     25     16     59     62 295.3  15.3  34244  290.99 0854.45
2009/04/23 16:16:50.0     -62     31     11     70     71 297.1   9.0  34242  290.96 0854.45
2009/04/23 16:16:50.1     -68     35      0     77     78 297.1  -0.3  34246  291.04 0854.45
2009/04/23 16:16:50.2     -24     41    -30     48     56 329.3 -39.9  34244  290.99 0854.45
2009/04/23 16:16:50.3       2     50    -13     51     53   2.7 -14.5  34242  290.96 0854.45
2009/04/23 16:16:50.4     -14     50     24     53     58 344.0  26.2  34240  290.92 0854.45
2009/04/23 16:16:50.5     -14     58     30     60     67 345.7  28.2  34244  291.01 0854.45
2009/04/23 16:16:50.6     -27     91     31     96    101 343.1  17.9  34230  290.77 0854.45
2009/04/23 16:16:50.7     -62     93    -34    112    118 326.2 -17.0  34200  290.26 0854.45
2009/04/23 16:16:50.8     -41     92    -19    101    103 335.9 -10.9  34202  290.30 0854.45
2009/04/23 16:16:50.9     -21     67    -27     71     75 342.2 -25.4  34204  290.31 0854.45
2009/04/23 16:16:51.0       8    106    -47    107    116   4.5 -29.5  34212  290.47 0854.45
2009/04/23 16:16:51.1      24     83    -32     87     92  16.0 -24.8  34216  290.52 0854.45
2009/04/23 16:16:51.2       4     89    -19     90     93   3.1 -12.4  34206  290.36 0854.45
2009/04/23 16:16:51.3      -7     93    -18     94     96 355.5 -11.3  34192  290.13 0854.45
2009/04/23 16:16:51.4     -52    119      6    130    131 336.4   2.9  34190  290.08 0854.45
2009/04/23 16:16:51.5     -60    116      8    131    132 332.4   3.8  34188  290.06 0854.45
2009/04/23 16:16:51.6     -63     93     23    113    116 325.7  11.6  34190  290.08 0854.45
2009/04/23 16:16:51.7     -66     83     20    107    109 321.7  10.6  34196  290.19 0854.45
2009/04/23 16:16:51.8     -73     77     29    107    111 316.8  15.2  34192  290.13 0854.45
2009/04/23 16:16:51.9     -72     72     33    103    109 315.0  17.9  34186  290.02 0854.45
2009/04/23 16:16:52.0     -79     84     20    116    118 316.7  10.1  34282  291.64 0854.45
2009/04/23 16:16:52.1    -100    126      7    162    163 321.5   2.5  34314  292.18 0854.45
2009/04/23 16:16:52.2     -43    130     -9    137    138 341.7  -4.1  34302  292.00 0854.45
2009/04/23 16:16:52.3     -90    109    -27    142    145 320.4 -10.9  34284  291.67 0854.45
2009/04/23 16:16:52.4     -75     72     18    105    107 314.0  10.1  34288  291.74 0854.45
2009/04/23 16:16:52.5     -77     70     32    105    110 312.2  17.3  34290  291.79 0854.45
2009/04/23 16:16:52.6     -70     59     28     92     97 310.0  16.8  34296  291.89 0854.45
2009/04/23 16:16:52.7     -73     48     24     88     92 303.7  15.3  34302  291.98 0854.45
2009/04/23 16:16:52.8     -43     43     21     62     66 314.9  19.4  34294  291.86 0854.45
2009/04/23 16:16:52.9     -29     59     45     66     79 333.7  37.6  34294  291.84 0854.45
2009/04/23 16:16:53.0     -22     50     41     55     68 336.4  41.7  34292  291.83 0854.45
2009/04/23 16:16:53.1     -22     47     38     53     65 334.6  39.5  34286  291.71 0854.45
2009/04/23 16:16:53.2     -27     56     34     63     71 334.6  31.3  34284  291.69 0854.45
2009/04/23 16:16:53.3     -21     54     45     59     74 338.2  41.7  34286  291.72 0854.45
2009/04/23 16:16:53.4     -19     51     54     55     77 339.1  51.1  34290  291.77 0854.45
2009/04/23 16:16:53.5     -36     56     13     67     69 327.4  11.1  34280  291.60 0854.45
2009/04/23 16:16:53.6     -26     45      4     53     54 330.1   4.9  34276  291.54 0854.45
2009/04/23 16:16:53.7     -31     38      8     50     51 320.4  10.1  34274  291.52 0854.45
2009/04/23 16:16:53.8     -12     45     12     47     49 344.0  15.3  34274  291.52 0854.45
2009/04/23 16:16:53.9     -34     34      4     49     50 315.0   4.9  34284  291.69 0854.45
2009/04/23 16:16:54.0     -39     31     20     51     54 308.6  21.0  34288  291.76 0854.45
2009/04/23 16:16:54.1     -30     59      8     67     68 332.8   6.9  34278  291.59 0854.45
2009/04/23 16:16:54.2      -8     46      2     47     48 349.3   2.9  34280  291.60 0854.45
2009/04/23 16:16:54.3       3     40    -12     41     43   4.5 -16.6  34280  291.62 0854.45
2009/04/23 16:16:54.4      -2     26      1     27     28 355.5   2.9  34276  291.55 0854.44
2009/04/23 16:16:54.5      -5     12     14     14     19 338.2  50.1  34276  291.55 0854.44
2009/04/23 16:16:54.6      -6     10     20     13     23 327.5  64.7  34286  291.71 0854.44
2009/04/23 16:16:54.7      -5      6     16      8     17 320.4  72.9  34288  291.76 0854.44
2009/04/23 16:16:54.8       6     -1     21      7     22 101.5  81.0  34310  292.12 0854.44
2009/04/23 16:16:54.9       9    -18     32     21     38 152.8  64.6  34316  292.22 0854.44
2009/04/23 16:16:55.0      57    -18     36     60     69 108.2  34.4  34306  292.05 0854.44
2009/04/23 16:16:55.1      80    -11     65     81    103  97.9  43.3  34324  292.35 0854.44
2009/04/23 16:16:55.2     103     21     88    106    137  78.6  43.8  34328  292.42 0854.44
2009/04/23 16:16:55.3     101     -1     76    102    127  90.9  41.2  34338  292.61 0854.44
2009/04/23 16:16:55.4     115      3     70    116    135  88.3  34.4  34344  292.69 0854.44
2009/04/23 16:16:55.5      94      4     98     95    136  87.0  50.2  34354  292.86 0854.44
2009/04/23 16:16:55.6      87     22     68     90    112  75.4  41.2  34366  293.07 0854.44
2009/04/23 16:16:55.7      14     -9     35     17     38 122.4  72.9  34362  293.00 0854.44
2009/04/23 16:16:55.8      48    -12     47     50     68 105.1  49.0  34376  293.24 0854.44
2009/04/23 16:16:55.9     106     54     70    120    138  62.9  33.4  34388  293.46 0854.44
2009/04/23 16:16:56.0     116     24     78    119    142  78.1  36.0  34408  293.79 0854.44
2009/04/23 16:16:56.1     101     62     74    119    140  58.5  35.5  34404  293.72 0854.44
2009/04/23 16:16:56.2     116     57    103    130    165  63.8  42.4  34430  294.16 0854.44
2009/04/23 16:16:56.3     147     67     81    162    181  65.4  28.5  34390  293.50 0854.44
2009/04/23 16:16:56.4     178     46     99    184    208  75.4  30.6  34374  293.22 0854.44
2009/04/23 16:16:56.5     204     57     83    212    227  74.3  22.8  34346  292.75 0854.44
2009/04/23 16:16:56.6     169     34     75    173    188  78.5  24.9  34380  293.33 0854.44
2009/04/23 16:16:56.7     163     -2     64    164    176  91.0  22.5  34400  293.65 0854.44
2009/04/23 16:16:56.8     129    -23     74    132    151 100.1  31.4  34416  293.92 0854.44
2009/04/23 16:16:56.9     103     -6     86    104    134  93.5  43.8  34414  293.91 0854.44
2009/04/23 16:16:57.0     107     30     85    112    140  74.1  41.2  34416  293.94 0854.44
2009/04/23 16:16:57.1     147     35     61    152    163  76.3  22.8  34408  293.79 0854.44
2009/04/23 16:16:57.2     154     52     32    163    167  71.2  11.1  34364  293.04 0854.44
2009/04/23 16:16:57.3     163     56     45    173    179  70.9  14.7  34350  292.81 0854.44
2009/04/23 16:16:57.4     142     63     35    156    161  66.0  12.9  34350  292.80 0854.44
2009/04/23 16:16:57.5     160     50     58    168    178  72.5  19.2  34366  293.07 0854.44
2009/04/23 16:16:57.6     156     49     65    164    176  72.5  22.8  34386  293.41 0854.44
2009/04/23 16:16:57.7     136     34     62    141    154  75.8  25.1  34418  293.96 0854.44
2009/04/23 16:16:57.8     144     48     53    152    162  71.4  19.4  34434  294.25 0854.44
2009/04/23 16:16:57.9     156     29     54    159    169  79.4  18.9  34420  293.99 0854.44
2009/04/23 16:16:58.0     120      5    103    121    158  87.4  44.8  34410  293.84 0854.44
2009/04/23 16:16:58.1     105     14    119    106    159  82.1  53.5  34400  293.67 0854.44
2009/04/23 16:16:58.2     112    -12     90    113    144  96.6  42.7  34380  293.31 0854.44
2009/04/23 16:16:58.3     105     -3    105    106    149  91.7  50.0  34400  293.65 0854.44
2009/04/23 16:16:58.4     146    -74     77    164    181 117.1  27.0  34298  291.91 0854.43
2009/04/23 16:16:58.5     127    -82     53    152    162 122.9  19.2  34300  291.96 0854.43
2009/04/23 16:16:58.6      92   -116    119    149    190 141.7  43.3  34302  292.00 0854.43
2009/04/23 16:16:58.7     105    -99     72    145    161 133.1  28.2  34308  292.08 0854.43
2009/04/23 16:16:58.8      58   -113     73    128    147 152.8  31.4  34312  292.17 0854.43
2009/04/23 16:16:58.9      41   -140    116    147    187 163.5  42.7  34346  292.75 0854.43
2009/04/23 16:16:59.0      62    -63     96     89    130 135.3  52.2  34360  292.98 0854.43
2009/04/23 16:16:59.1      35    -66     69     75    101 151.9  47.9  34356  292.92 0854.43
2009/04/23 16:16:59.2     117    -73     79    138    159 122.0  32.4  34350  292.80 0854.43
2009/04/23 16:16:59.3     209     15     70    210    222  85.7  18.6  34260  291.26 0854.43
2009/04/23 16:16:59.4     248     34     10    251    252  82.0   2.5  34268  291.41 0854.43
2009/04/23 16:16:59.5     203     42     27    208    210  78.1   7.5  34232  290.79 0854.43
2009/04/23 16:16:59.6     172     91     -7    195    196  62.0  -2.2  34224  290.65 0854.43
2009/04/23 16:16:59.7     187    112     16    219    220  59.1   4.2  34200  290.26 0854.43
2009/04/23 16:16:59.8     233     62     85    242    256  75.0  20.0  34244  290.99 0854.43
2009/04/23 16:16:59.9     261     57     83    268    281  77.6  17.3  34318  292.26 0854.43
2009/04/23 16:17:00.0     212    112     74    240    252  62.1  17.3  34314  292.19 0854.43
2009/04/23 16:17:00.1     199    121     84    234    249  58.7  19.9  34306  292.06 0854.43
2009/04/23 16:17:00.2     205    131    170    244    297  57.5  38.5  34320  292.28 0854.43
2009/04/23 16:17:00.3     198    126    110    235    259  57.5  27.1  34304  292.02 0854.43
2009/04/23 16:17:00.4     189    109    144    219    262  60.0  36.3  34320  292.30 0854.44
2009/04/23 16:17:00.5     194     92     99    216    237  64.5  26.2  34286  291.71 0854.44
2009/04/23 16:17:00.6     135     85     67    160    173  57.6  23.8  34270  291.43 0854.44
2009/04/23 16:17:00.7     142    107     63    179    190  52.9  19.4  34258  291.25 0854.44
2009/04/23 16:17:00.8     165    138      3    216    217  50.2   1.0  34332  292.51 0854.44
2009/04/23 16:17:00.9     168    136     18    217    218  51.1   5.0  34348  292.76 0854.44
2009/04/23 16:17:01.0     200    125     68    237    247  58.0  16.0  34324  292.35 0854.44
2009/04/23 16:17:01.1     199     53     96    206    227  75.0  27.1  34292  291.83 0854.44
2009/04/23 16:17:01.2     215    101     83    238    253  64.7  19.2  34274  291.50 0854.44
2009/04/23 16:17:01.3     148    153     40    214    218  44.1  10.6  34274  291.50 0854.44
2009/04/23 16:17:01.4     110    249     77    273    284  23.8  15.8  34296  291.89 0854.46
2009/04/23 16:17:01.5      98    128    205    162    261  37.4  57.7  34324  292.36 0854.46
2009/04/23 16:17:01.6     172    -11    164    173    238  93.7  48.5  34318  292.27 0854.46
2009/04/23 16:17:01.7      76    -73    104    106    148 134.0  50.0  34300  291.95 0854.46
2009/04/23 16:17:01.8     -23      0    134     24    136 270.8  90.0  34296  291.89 0854.46
2009/04/23 16:17:01.9    -120     52    172    132    216 293.6  58.7  34290  291.79 0854.46
2009/04/23 16:17:02.0    -206    -27    104    208    232 262.5  28.5  34280  291.60 0854.46
2009/04/23 16:17:02.1    -130     24    -13    133    134 280.6  -5.6  34268  291.40 0854.46
2009/04/23 16:17:02.2    -148    123     15    193    194 309.6   4.6  34262  291.30 0854.46
2009/04/23 16:17:02.3    -130     84     -6    155    156 302.9  -2.2  34262  291.32 0854.46
2009/04/23 16:17:02.4    -119     -2    -82    120    145 268.7 -42.0  34258  291.25 0854.46
2009/04/23 16:17:02.5     -52     43    -92     68    114 309.5 -64.9  34266  291.38 0854.46
2009/04/23 16:17:02.6     -34    -16   -129     38    134 244.6 -87.2  34262  291.32 0854.46
2009/04/23 16:17:02.7      33    -11    -93     35     99 108.6 -83.0  34274  291.50 0854.46
2009/04/23 16:17:02.8      77    -63    -20    100    103 129.6 -11.5  34272  291.47 0854.46
2009/04/23 16:17:02.9      46    -58    -32     75     81 141.3 -28.5  34274  291.50 0854.46
2009/04/23 16:17:03.0      30    -56     -7     64     65 151.9  -6.2  34268  291.42 0854.46
2009/04/23 16:17:03.1      96     18     78     98    125  79.0  42.7  34254  291.18 0854.46
2009/04/23 16:17:03.2      96     43     74    106    129  65.6  38.0  34270  291.45 0854.46
2009/04/23 16:17:03.3      84     79     49    116    125  46.9  24.1  34276  291.55 0854.46
2009/04/23 16:17:03.4     119     43    164    127    207  70.1  58.5  34342  292.66 0854.46
2009/04/23 16:17:03.5     164     25    180    166    244  81.2  52.7  34340  292.64 0854.46
2009/04/23 16:17:03.6       0     37    117     38    123 359.1  81.2  34330  292.47 0854.46
2009/04/23 16:17:03.7     138     62     94    152    178  65.6  35.0  34332  292.49 0854.46
2009/04/23 16:17:03.8      72     68    160    100    188  46.4  64.7  34346  292.75 0854.46
2009/04/23 16:17:03.9      63     84    184    106    212  37.0  67.2  34342  292.66 0854.46
2009/04/23 16:17:04.0      10    140    168    141    219   4.4  56.1  34322  292.34 0854.46
2009/04/23 16:17:04.1      95     60    121    113    165  57.5  52.0  34344  292.71 0854.46
2009/04/23 16:17:04.2      95     52    166    109    198  61.2  63.6  34358  292.93 0854.46
2009/04/23 16:17:04.3      14    216     82    217    231   3.8  21.5  34340  292.64 0854.46
2009/04/23 16:17:04.4     -30    148     45    152    159 348.4  16.6  34322  292.32 0854.46
2009/04/23 16:17:04.5     -25    106     94    109    143 346.6  45.8  34324  292.35 0854.46
2009/04/23 16:17:04.6     -39     97     94    105    140 338.2  46.4  34324  292.35 0854.46
2009/04/23 16:17:04.7     -26     68    104     73    127 339.1  62.1  34342  292.68 0854.46
2009/04/23 16:17:04.8     -31     79    105     86    135 338.2  56.4  34332  292.49 0854.46
2009/04/23 16:17:04.9     -31     92    104     98    142 341.3  52.1  34344  292.69 0854.46
2009/04/23 16:17:05.0      54     25     85     60    104  64.7  61.5  34370  293.15 0854.46
2009/04/23 16:17:05.1     151     59     82    163    182  68.7  28.5  34390  293.48 0854.46
2009/04/23 16:17:05.2     160     65     80    173    190  67.8  27.0  34354  292.88 0854.46
2009/04/23 16:17:05.3     199     66     73    210    223  71.6  19.2  34322  292.34 0854.46
2009/04/23 16:17:05.4     136      7    147    137    200  87.0  52.2  34320  292.30 0854.46
2009/04/23 16:17:05.5     192     -2    181    193    264  90.8  48.0  34294  291.85 0854.46
2009/04/23 16:17:05.6     227     46    134    232    267  78.5  32.7  34392  293.52 0854.46
2009/04/23 16:17:05.7     166     14    164    167    234  85.0  49.9  34406  293.77 0854.46
2009/04/23 16:17:05.8     147     22    186    149    238  81.2  57.5  34354  292.88 0854.46
2009/04/23 16:17:05.9     186     36    151    190    242  78.8  42.4  34350  292.81 0854.46
2009/04/23 16:17:06.0     191     34    140    195    240  79.9  39.3  34344  292.69 0854.46
2009/04/23 16:17:06.1     125     29    202    129    239  76.7  64.6  34338  292.59 0854.46
2009/04/23 16:17:06.2     180     30    177    183    254  80.3  49.0  34364  293.05 0854.46
2009/04/23 16:17:06.3     198     48     32    204    207  76.3   9.0  34290  291.79 0854.46
2009/04/23 16:17:06.4     137    -41    120    144    187 106.8  43.8  34296  291.88 0854.46
2009/04/23 16:17:06.5     170    -47    177    177    250 105.5  50.1  34254  291.16 0854.46
2009/04/23 16:17:06.6     145    -69    152    161    221 115.4  48.0  34252  291.15 0854.46
2009/04/23 16:17:06.7     183     47    210    189    282  75.6  53.3  34270  291.44 0854.46
2009/04/23 16:17:06.8     206     59    110    215    241  73.8  29.2  34262  291.29 0854.46
2009/04/23 16:17:06.9     244     43     94    248    265  79.9  22.0  34164  289.64 0854.46
2009/04/23 16:17:07.0     294     59     80    300    311  78.5  15.0  34198  290.22 0854.46
2009/04/23 16:17:07.1     292    128     -7    319    320  66.3  -1.4  34176  289.85 0854.46
2009/04/23 16:17:07.2     343    121     37    364    366  70.5   5.9  34172  289.77 0854.46
2009/04/23 16:17:07.3     251     86     86    266    280  70.9  17.9  34198  290.22 0854.46
2009/04/23 16:17:07.4     169     83    151    189    241  63.8  42.7  34308  292.10 0854.47
2009/04/23 16:17:07.5     108     52    162    121    202  64.2  59.8  34294  291.86 0854.47
2009/04/23 16:17:07.6     221     88     92    239    256  68.2  22.1  34202  290.27 0854.47
2009/04/23 16:17:07.7     289     31    103    291    308  83.8  20.0  34198  290.22 0854.47
2009/04/23 16:17:07.8      79    102     77    130    151  37.9  33.5  34200  290.26 0854.47
2009/04/23 16:17:07.9      89     64    120    110    162  54.1  52.5  34272  291.47 0854.47
2009/04/23 16:17:08.0     131    115    123    175    213  48.7  38.4  34294  291.84 0854.47
2009/04/23 16:17:08.1     127     83     58    152    162  56.7  21.7  34248  291.06 0854.47
2009/04/23 16:17:08.2     192     70     23    205    207  70.0   6.5  34228  290.74 0854.47
2009/04/23 16:17:08.3     233     63     -3    242    243  74.9  -0.7  34260  291.27 0854.47
2009/04/23 16:17:08.4     166     75     76    183    198  65.8  23.6  34188  290.04 0854.47
2009/04/23 16:17:08.5     148     75     91    167    190  63.1  31.0  34192  290.11 0854.47
2009/04/23 16:17:08.6     158     77     85    176    195  64.0  27.3  34190  290.09 0854.47
2009/04/23 16:17:08.7     154     68     95    169    193  66.0  31.9  34198  290.23 0854.47
2009/04/23 16:17:08.8     136     96    112    167    201  54.9  37.3  34194  290.14 0854.47
2009/04/23 16:17:08.9     158    118     73    198    211  53.1  20.9  34214  290.48 0854.47
2009/04/23 16:17:09.0     176     38     69    181    193  77.6  21.7  34242  290.96 0854.47
2009/04/23 16:17:09.1     178     48    117    185    218  74.9  35.5  34258  291.23 0854.47
2009/04/23 16:17:09.2     151     16     76    152    169  83.8  28.5  34254  291.18 0854.47
2009/04/23 16:17:09.3     147    -26    101    150    180 100.1  37.3  34272  291.49 0854.47
2009/04/23 16:17:09.4     143    -89     93    169    192 122.0  31.4  34286  291.71 0854.48
2009/04/23 16:17:09.5      31    -86    110     92    143 160.0  55.8  34304  292.01 0854.48
2009/04/23 16:17:09.6      -9   -120    148    121    191 184.5  56.4  34288  291.74 0854.48
2009/04/23 16:17:09.7     -21   -103    139    106    174 191.5  59.0  34302  291.98 0854.48
2009/04/23 16:17:09.8     -66    -80    153    105    185 219.6  62.4  34296  291.88 0854.48
2009/04/23 16:17:09.9     -58   -143    110    155    190 202.3  39.1  34278  291.57 0854.48
2009/04/23 16:17:10.0     -79   -109     63    135    148 216.0  27.1  34278  291.59 0854.48
2009/04/23 16:17:10.1     -89    -73    -15    116    118 230.5  -7.7  34288  291.74 0854.48
2009/04/23 16:17:10.2     -94    -30     68     99    120 251.8  37.6  34310  292.13 0854.48
2009/04/23 16:17:10.3     -70    -38     69     80    105 241.2  45.4  34306  292.06 0854.48
2009/04/23 16:17:10.4     -63     -6     58     64     86 263.9  47.5  34306  292.05 0854.48
2009/04/23 16:17:10.5     -15    -35     38     39     54 203.6  51.1  34292  291.81 0854.48
2009/04/23 16:17:10.6     -40    -52     56     66     86 217.8  45.4  34284  291.69 0854.48
2009/04/23 16:17:10.7       2    -92     57     93    109 178.2  35.0  34288  291.76 0854.48
2009/04/23 16:17:10.8      37    -67     74     77    106 151.0  49.0  34290  291.77 0854.48
2009/04/23 16:17:10.9      24    -29     94     38    101 140.4  77.1  34278  291.57 0854.48
2009/04/23 16:17:11.0      32    -41    103     53    115 142.2  70.8  34282  291.66 0854.48
2009/04/23 16:17:11.1     -26    -55     70     61     92 205.3  54.3  34272  291.49 0854.48
2009/04/23 16:17:11.2      17    -26     82     32     88 147.5  78.2  34298  291.93 0854.48
2009/04/23 16:17:11.3       8      0     53      9     53  90.0  90.0  34296  291.89 0854.48
2009/04/23 16:17:11.4      86    -47     92     99    135 118.9  47.9  34292  291.81 0854.49
2009/04/23 16:17:11.5      68    -32     97     76    123 115.4  57.9  34286  291.71 0854.49
2009/04/23 16:17:11.6      89     -6    100     90    134  94.3  53.3  34286  291.71 0854.49
2009/04/23 16:17:11.7      96    -21     86     99    131 102.8  45.8  34276  291.55 0854.49
2009/04/23 16:17:11.8      45    -27     71     53     88 121.5  59.4  34282  291.64 0854.49
2009/04/23 16:17:11.9      22    -35     60     42     73 148.4  60.6  34292  291.81 0854.49
2009/04/23 16:17:12.0      19    -41     54     46     70 155.5  56.3  34288  291.74 0854.49
2009/04/23 16:17:12.1     -23    -66    100     70    122 199.2  61.5  34296  291.89 0854.49
2009/04/23 16:17:12.3      -8    -73    101     74    125 186.2  60.5  34288  291.74 0854.49
2009/04/23 16:17:12.4     -48    -48    102     69    123 225.1  62.7  34284  291.69 0854.49
2009/04/23 16:17:12.5      -6    -85    123     86    150 184.5  61.5  34256  291.20 0854.49
2009/04/23 16:17:12.6       7    -67    104     68    124 173.8  64.1  34260  291.28 0854.49
2009/04/23 16:17:12.7       6    -76    107     77    131 175.5  60.5  34268  291.42 0854.49
2009/04/23 16:17:12.8     -54    -57    102     79    129 223.2  58.5  34278  291.57 0854.49
2009/04/23 16:17:12.9     -49    -78     92     93    130 212.1  50.0  34276  291.55 0854.49
2009/04/23 16:17:13.0     -27    -78     90     83    122 199.2  52.2  34290  291.77 0854.49
2009/04/23 16:17:13.1     -54    -57     65     79    102 223.3  43.8  34300  291.96 0854.49
2009/04/23 16:17:13.2     -82    -53     76     98    124 237.1  41.7  34316  292.22 0854.49
2009/04/23 16:17:13.3     -78    -53     65     95    115 235.4  37.6  34344  292.69 0854.49
2009/04/23 16:17:13.4     -85     -3     44     86     96 267.4  29.3  34356  292.90 0854.49
2009/04/23 16:17:13.5     -71     77     37    105    112 317.2  19.4  34338  292.59 0854.50
2009/04/23 16:17:13.6     -56     64     18     86     88 318.6  12.2  34334  292.52 0854.50
2009/04/23 16:17:13.7     -72     52     10     89     90 306.0   6.9  34346  292.75 0854.50
2009/04/23 16:17:13.8     -85     43     -5     96     97 297.1  -3.1  34344  292.71 0854.50
2009/04/23 16:17:13.9    -106     54      1    120    121 297.0   0.7  34342  292.66 0854.50
2009/04/23 16:17:14.0    -115     34     -4    121    122 286.8  -2.2  34344  292.69 0854.50
2009/04/23 16:17:14.1    -121     44    -11    129    130 290.0  -5.2  34324  292.37 0854.50
2009/04/23 16:17:14.2    -115     45     -6    124    125 291.3  -3.1  34306  292.06 0854.50
2009/04/23 16:17:14.3    -109     82    -43    137    144 306.9 -17.5  34282  291.64 0854.50
2009/04/23 16:17:14.4     -94    115      3    149    150 320.8   1.2  34304  292.03 0854.50
2009/04/23 16:17:14.5     -83    132     -1    157    158 327.9  -0.5  34296  291.89 0854.50
2009/04/23 16:17:14.6     -68    144     -7    160    161 334.5  -2.6  34328  292.42 0854.50
2009/04/23 16:17:14.7     -87    109      0    140    141 321.3  -0.3  34332  292.51 0854.50
2009/04/23 16:17:14.8    -104    136     55    172    181 322.8  17.9  34352  292.83 0854.50
2009/04/23 16:17:14.9     -83    147     28    169    172 330.6   9.5  34298  291.91 0854.50
2009/04/23 16:17:15.0     -94     70     -2    118    119 306.9  -1.3  34288  291.76 0854.50
2009/04/23 16:17:15.1     -58     13    -81     60    100 283.3 -64.4  34278  291.57 0854.50
2009/04/23 16:17:15.2     -63     29    -21     70     74 295.2 -16.6  34254  291.16 0854.50
2009/04/23 16:17:15.3     -55     44     31     71     77 308.6  25.1  34254  291.18 0854.50
2009/04/23 16:17:15.4    -143     35    -25    148    151 283.7  -9.8  34234  290.84 0854.50
2009/04/23 16:17:15.5    -177    126    -65    218    227 305.3 -21.5  34210  290.41 0854.51
2009/04/23 16:17:15.6    -239     81    -27    253    255 288.8  -6.2  34210  290.42 0854.51
2009/04/23 16:17:15.7    -310    101    -59    327    333 288.1 -10.2  34248  291.05 0854.51
2009/04/23 16:17:15.8    -376    115    -31    394    396 287.0  -4.6  34230  290.76 0854.51
2009/04/23 16:17:15.9    -375    110    -57    391    396 286.4  -8.4  34232  290.79 0854.51
2009/04/23 16:17:16.0    -317    155    -55    353    358 296.1  -9.0  34268  291.40 0854.51
2009/04/23 16:17:16.1    -208    146    -77    255    267 305.1 -16.8  34138  289.19 0854.51
2009/04/23 16:17:16.2    -404    172    -90    440    450 293.1 -11.6  34194  290.14 0854.51
2009/04/23 16:17:16.3    -320    232    -50    396    400 305.9  -7.2  34178  289.89 0854.51
2009/04/23 16:17:16.4    -356    181    -61    400    405 297.0  -8.7  34144  289.29 0854.51
2009/04/23 16:17:16.5    -377    193    -30    424    426 297.1  -4.1  34172  289.77 0854.51
2009/04/23 16:17:16.6    -289    194     17    349    350 303.9   2.9  34172  289.77 0854.51
2009/04/23 16:17:16.7    -327     73      4    336    337 282.6   0.7  34198  290.21 0854.51
2009/04/23 16:17:16.8     -62     62    217     89    234 315.0  76.3  34304  292.03 0854.51
2009/04/23 16:17:16.9    -319    144    152    351    382 294.3  25.0  34254  291.18 0854.51
2009/04/23 16:17:17.0    -235     86    129    251    282 290.2  29.3  34230  290.75 0854.51
2009/04/23 16:17:17.1    -215     34    101    218    240 279.0  26.4  34288  291.75 0854.51
2009/04/23 16:17:17.2     -98     54    117    113    162 298.9  50.9  34368  293.12 0854.51
2009/04/23 16:17:17.3     -25    -45     82     52     97 209.0  64.7  34376  293.24 0854.51
2009/04/23 16:17:17.4     -41    -67     42     79     89 211.6  30.3  34356  292.90 0854.51
2009/04/23 16:17:17.5      -8    -64    -19     65     67 187.1 -21.7  34354  292.88 0854.52
2009/04/23 16:17:17.6     -34    -41    -26     54     59 219.6 -31.7  34358  292.95 0854.52
2009/04/23 16:17:17.7      -3   -103     70    104    125 181.8  37.4  34362  293.02 0854.52
2009/04/23 16:17:17.8     -58   -147     54    159    169 201.6  18.9  34330  292.47 0854.52
2009/04/23 16:17:17.9     -43   -180      9    186    187 193.6   2.9  34228  290.74 0854.52
2009/04/23 16:17:18.0    -131   -131     25    186    188 225.0   7.8  34274  291.50 0854.52
2009/04/23 16:17:18.1    -115   -146     67    186    197 218.3  20.7  34302  292.00 0854.52
2009/04/23 16:17:18.2    -161   -125     65    205    216 232.2  17.7  34310  292.12 0854.52
2009/04/23 16:17:18.3    -208    -78     23    223    225 249.4   5.9  34272  291.49 0854.52
2009/04/23 16:17:18.4    -183    -46    -60    189    198 255.8 -22.5  34170  289.74 0854.52
2009/04/23 16:17:18.5    -209    -79     11    224    225 249.2   2.9  34210  290.41 0854.52
2009/04/23 16:17:18.6     -78   -146     71    166    180 208.3  24.3  34216  290.52 0854.52
2009/04/23 16:17:18.7     -73   -103     88    127    154 215.2  37.6  34280  291.60 0854.52
2009/04/23 16:17:18.8     -49   -142     95    151    178 199.2  35.5  34322  292.34 0854.52
2009/04/23 16:17:18.9     -44   -135     52    143    152 198.3  20.4  34330  292.46 0854.52
2009/04/23 16:17:19.0     -20    -77     64     80    102 195.1  43.3  34314  292.20 0854.52
2009/04/23 16:17:19.1      15    -54     75     57     94 164.0  59.0  34250  291.09 0854.52
2009/04/23 16:17:19.2      -8   -109    129    110    169 184.5  55.6  34198  290.21 0854.52
2009/04/23 16:17:19.3      33   -139    127    143    191 166.6  46.4  34196  290.18 0854.52
2009/04/23 16:17:19.4     -27    -68     99     74    123 201.8  60.0  34224  290.67 0854.52
2009/04/23 16:17:19.5      -3     -3     71      5     71 226.7  90.0  34206  290.35 0854.52
2009/04/23 16:17:19.6      17     29     73     34     80  30.7  73.5  34214  290.50 0854.52
2009/04/23 16:17:19.7     -12    -47     80     49     93 195.1  65.1  34192  290.13 0854.52
2009/04/23 16:17:19.8     -24   -142    138    145    200 189.8  48.7  34200  290.26 0854.52
2009/04/23 16:17:19.9      41   -124    107    131    169 161.7  43.7  34206  290.36 0854.52
2009/04/23 16:17:20.0      61   -109    115    126    170 150.6  47.1  34216  290.52 0854.52
2009/04/23 16:17:20.1      63    -97     90    116    146 147.0  42.2  34206  290.36 0854.52
2009/04/23 16:17:20.2      66    -19     45     69     82 106.8  36.5  34208  290.38 0854.52
2009/04/23 16:17:20.3     108    -54     44    121    128 116.6  20.9  34216  290.53 0854.52
2009/04/23 16:17:20.4     157    -37     34    162    166 103.5  12.2  34224  290.67 0854.52
2009/04/23 16:17:20.5     167     22     -1    169    170  82.3  -0.5  34212  290.45 0854.52
2009/04/23 16:17:20.6     211    -89    -89    230    246 112.8 -26.5  34190  290.09 0854.52
2009/04/23 16:17:20.7     221   -138   -100    261    279 122.0 -26.4  34214  290.48 0854.52
2009/04/23 16:17:20.8     133   -141   -117    195    227 136.7 -38.4  34196  290.18 0854.52
2009/04/23 16:17:20.9      60   -190    -82    200    216 162.4 -27.8  34196  290.18 0854.52
2009/04/23 16:17:21.0     113   -180    -90    213    231 147.9 -28.5  34198  290.21 0854.52
2009/04/23 16:17:21.1      14   -190    -53    191    199 175.5 -15.5  34192  290.13 0854.52
2009/04/23 16:17:21.2      -7   -162   -101    163    191 182.5 -39.9  34192  290.11 0854.52
2009/04/23 16:17:21.3      55   -185   -107    194    221 163.3 -35.7  34180  289.91 0854.52
2009/04/23 16:17:21.4     152   -203    -79    254    266 143.1 -22.5  34200  290.24 0854.51
2009/04/23 16:17:21.5     154   -171    -78    231    243 138.1 -23.3  34208  290.37 0854.51
2009/04/23 16:17:21.6     188   -156    -54    245    252 129.6 -12.6  34204  290.32 0854.51
2009/04/23 16:17:21.7     206   -122    -74    240    252 120.7 -17.3  34194  290.14 0854.51
2009/04/23 16:17:21.8     191   -125    -27    229    231 123.1  -6.9  34206  290.35 0854.51
2009/04/23 16:17:21.9     180   -180     75    255    266 135.0  16.4  34210  290.42 0854.51
2009/04/23 16:17:22.0     239   -157    110    286    306 123.3  22.1  34214  290.49 0854.51
2009/04/23 16:17:22.1     262   -128    131    292    320 116.2  25.8  34194  290.15 0854.51
2009/04/23 16:17:22.2     232   -131     92    267    283 119.5  19.2  34212  290.44 0854.51
2009/04/23 16:17:22.3     216   -115     67    245    254 118.0  15.3  34218  290.54 0854.51
2009/04/23 16:17:22.4     249   -132     29    283    285 118.0   5.9  34202  290.27 0854.50
2009/04/23 16:17:22.5     238   -230     73    331    340 134.0  12.5  34196  290.18 0854.50
2009/04/23 16:17:22.6     267   -181     44    323    327 124.1   7.9  34196  290.19 0854.50
2009/04/23 16:17:22.7     248   -276     42    372    375 138.1   6.6  34182  289.96 0854.50
2009/04/23 16:17:22.8     239   -255     28    350    352 136.9   4.7  34178  289.86 0854.50
2009/04/23 16:17:22.9     229   -244     22    335    336 136.8   3.8  34182  289.93 0854.50
2009/04/23 16:17:23.0     237   -223     33    326    328 133.2   5.8  34180  289.90 0854.50
2009/04/23 16:17:23.1     204   -226     30    305    307 137.9   5.7  34182  289.95 0854.50
2009/04/23 16:17:23.2     199   -256      0    325    326 142.2   0.1  34170  289.73 0854.50
2009/04/23 16:17:23.3     225   -180     14    289    290 128.6   2.9  34164  289.63 0854.50
2009/04/23 16:17:23.4     172   -142    -43    224    229 129.5 -10.9  34158  289.53 0854.50
2009/04/23 16:17:23.5     142   -175      3    226    227 141.0   1.0  34154  289.46 0854.50
2009/04/23 16:17:23.6     127   -153      8    200    201 140.3   2.5  34160  289.57 0854.50
2009/04/23 16:17:23.7     123   -140    125    187    224 138.8  37.0  34150  289.40 0854.50
2009/04/23 16:17:23.8      85    -78    144    116    184 132.7  56.9  34166  289.67 0854.50
2009/04/23 16:17:23.9      27      5    102     28    105  78.5  84.8  34186  290.01 0854.50
2009/04/23 16:17:24.0     -15     75     44     77     88 348.4  32.4  34182  289.94 0854.50
2009/04/23 16:17:24.1      91     57    134    108    172  58.0  56.6  34178  289.87 0854.50
2009/04/23 16:17:24.2      -1     -6     76      7     76 189.7  90.0  34194  290.16 0854.50
2009/04/23 16:17:24.3     177    -13     18    178    179  94.3   5.9  34174  289.82 0854.50
2009/04/23 16:17:24.4     126   -104     23    164    166 129.6   8.0  34172  289.79 0854.49
2009/04/23 16:17:24.5     188   -119     45    223    228 122.5  11.6  34176  289.84 0854.49
2009/04/23 16:17:24.6     105   -149     60    183    193 144.8  18.4  34172  289.79 0854.49
2009/04/23 16:17:24.7     -47   -201    -10    207    208 193.3  -2.8  34164  289.63 0854.49
2009/04/23 16:17:24.8    -101   -291    -12    309    310 199.2  -2.2  34160  289.56 0854.49
2009/04/23 16:17:24.9    -113   -304     60    325    331 200.4  10.6  34158  289.55 0854.49
2009/04/23 16:17:25.0      75   -246    -37    258    261 163.1  -8.2  34164  289.63 0854.49
2009/04/23 16:17:25.1      41   -126     25    133    136 161.7  11.0  34160  289.57 0854.49
2009/04/23 16:17:25.2     -75    -35     63     83    104 244.8  40.7  34174  289.80 0854.49
2009/04/23 16:17:25.3     -85    -53     57    101    115 238.0  31.9  34180  289.92 0854.49
2009/04/23 16:17:25.4    -161      7     70    162    176 272.6  24.9  34168  289.72 0854.49
2009/04/23 16:17:25.5    -312    -23    -15    313    314 265.7  -2.8  34160  289.58 0854.49
2009/04/23 16:17:25.6    -355     -3    -81    356    366 269.4 -12.9  34154  289.47 0854.49
2009/04/23 16:17:25.7    -288    -86    -59    301    307 253.2 -11.2  34162  289.61 0854.49
2009/04/23 16:17:25.8    -477   -259    -30    543    544 241.5  -3.2  34148  289.38 0854.49
2009/04/23 16:17:25.9    -428   -184    -79    467    474 246.7  -9.7  34152  289.42 0854.49
2009/04/23 16:17:26.0    -402    -89   -129    412    431 257.5 -22.3  34142  289.27 0854.49
2009/04/23 16:17:26.1    -394   -102   -138    408    430 255.4 -23.7  34142  289.27 0854.49
2009/04/23 16:17:26.2    -413     -9   -253    414    485 268.7 -38.8  34158  289.53 0854.49
2009/04/23 16:17:26.3    -397    -48   -165    400    432 263.0 -28.1  34144  289.31 0854.49
2009/04/23 16:17:26.4    -387   -219   -198    445    487 240.5 -30.1  34146  289.34 0854.48
2009/04/23 16:17:26.5    -408   -218   -114    463    477 241.9 -13.9  34156  289.52 0854.48
2009/04/23 16:17:26.6    -348   -205    -44    404    407 239.5  -6.2  34176  289.83 0854.48
2009/04/23 16:17:26.7    -355   -153   -112    387    402 246.7 -20.9  34164  289.65 0854.48
2009/04/23 16:17:26.8    -409   -109    -51    424    428 255.0  -6.9  34174  289.82 0854.48
2009/04/23 16:17:26.9    -313    -70     19    321    322 257.4   3.5  34182  289.93 0854.48
2009/04/23 16:17:27.0    -243   -114     52    269    275 244.8  11.1  34192  290.10 0854.48
2009/04/23 16:17:27.1    -264   -114      5    288    289 246.5   1.0  34192  290.10 0854.48
2009/04/23 16:17:27.2      15   -189    161    190    249 175.3  44.5  34164  289.65 0854.48
2009/04/23 16:17:27.3     -51   -230    288    236    372 192.7  56.4  34212  290.47 0854.48
2009/04/23 16:17:27.4     -26   -145    260    148    299 190.2  68.1  34184  289.97 0854.48
2009/04/23 16:17:27.5       8      8    162     12    162  45.0  90.0  34174  289.82 0854.48
2009/04/23 16:17:27.6      27     17    148     33    151  57.6  88.5  34186  290.01 0854.48
2009/04/23 16:17:27.7      31    -62    175     70    188 152.8  77.1  34210  290.43 0854.48
2009/04/23 16:17:27.8      15    -32    169     36    172 154.6  88.8  34196  290.19 0854.48
2009/04/23 16:17:27.9      27    -54    153     61    164 153.7  77.6  34194  290.14 0854.48
2009/04/23 16:17:28.0      92     19    171     95    195  78.1  68.8  34192  290.11 0854.48
2009/04/23 16:17:28.1     267   -151    222    307    378 119.5  39.5  34176  289.84 0854.48
2009/04/23 16:17:28.2     212   -240    189    321    372 138.6  33.1  34166  289.69 0854.48
2009/04/23 16:17:28.3     158   -232     61    281    288 145.7  12.4  34158  289.54 0854.48
2009/04/23 16:17:28.4     170   -215    -10    275    276 141.7  -2.2  34156  289.49 0854.48
2009/04/23 16:17:28.5     273   -162    -54    318    323 120.7  -9.8  34152  289.44 0854.48
2009/04/23 16:17:28.6     297   -203    -70    361    368 124.4 -11.1  34152  289.43 0854.48
2009/04/23 16:17:28.7     252   -321    110    409    424 141.9  15.1  34136  289.17 0854.48
2009/04/23 16:17:28.8     204   -295    125    359    381 145.3  19.2  34142  289.25 0854.48
2009/04/23 16:17:28.9     139   -279    167    312    353 153.5  30.5  34136  289.16 0854.48
2009/04/23 16:17:29.0     148   -387    305    415    515 159.1  40.0  34170  289.73 0854.48
2009/04/23 16:17:29.1     118   -330    300    351    461 160.2  44.8  34156  289.49 0854.48
2009/04/23 16:17:29.2     182   -387    312    428    529 154.8  39.7  34156  289.52 0854.48
2009/04/23 16:17:29.3      11   -372    335    373    501 178.3  46.6  34164  289.65 0854.48
2009/04/23 16:17:29.4      11   -540    384    541    663 178.7  39.0  34152  289.42 0854.48
2009/04/23 16:17:29.5     -95   -528    194    537    572 190.2  19.9  34150  289.40 0854.48
2009/04/23 16:17:29.6    -166   -502     82    529    536 198.3   8.9  34146  289.33 0854.48
2009/04/23 16:17:29.7    -209   -466    132    511    528 204.2  14.5  34140  289.23 0854.48
2009/04/23 16:17:29.8    -165   -460    -43    489    492 199.8  -5.1  34146  289.35 0854.48
2009/04/23 16:17:29.9    -121   -422    -39    440    442 196.0  -5.2  34142  289.27 0854.48
2009/04/23 16:17:30.0      52   -374    -97    378    391 172.0 -14.4  34146  289.35 0854.48
2009/04/23 16:17:30.1     157   -288   -115    329    348 151.4 -24.4  34148  289.38 0854.48
2009/04/23 16:17:30.2     139   -260   -181    295    346 151.9 -39.0  34156  289.52 0854.48
2009/04/23 16:17:30.3     104   -229   -247    252    352 155.5 -53.8  34160  289.56 0854.48
2009/04/23 16:17:30.4      86   -231   -193    247    313 159.5 -46.5  34160  289.58 0854.49
2009/04/23 16:17:30.5     116   -236   -173    264    315 153.7 -40.8  34152  289.42 0854.49
2009/04/23 16:17:30.6     107   -167   -161    199    255 147.3 -47.9  34150  289.39 0854.49
2009/04/23 16:17:30.7     116   -225   -120    254    280 152.6 -31.5  34150  289.39 0854.49
2009/04/23 16:17:30.8      62   -230   -134    239    274 164.8 -35.8  34154  289.46 0854.49
2009/04/23 16:17:30.9      62   -224   -120    233    262 164.4 -33.7  34160  289.56 0854.49
2009/04/23 16:17:31.0      57   -232    -85    239    253 166.2 -24.6  34158  289.54 0854.49
2009/04/23 16:17:31.1     -23   -162   -146    164    219 188.2 -50.8  34158  289.53 0854.49
2009/04/23 16:17:31.2       1   -222   -142    223    264 179.5 -39.9  34154  289.47 0854.49
2009/04/23 16:17:31.3     -12   -360   -121    361    380 182.0 -23.3  34148  289.37 0854.49
2009/04/23 16:17:31.4       1   -296    -84    297    308 179.8 -20.4  34140  289.22 0854.49
2009/04/23 16:17:31.5     -29   -278      8    280    281 186.0   1.8  34138  289.20 0854.49
2009/04/23 16:17:31.6    -118    -86     83    147    168 234.0  32.1  34138  289.19 0854.49
2009/04/23 16:17:31.7     -60    -45     17     75     78 233.1  13.2  34150  289.40 0854.49
2009/04/23 16:17:31.8    -226    -53   -102    233    254 256.8 -29.5  34140  289.24 0854.49
2009/04/23 16:17:31.9      63   -204   -109    214    240 162.8 -33.6  34136  289.18 0854.49
2009/04/23 16:17:32.0      80   -248    -24    261    263 162.0  -5.4  34140  289.24 0854.49
2009/04/23 16:17:32.1      11   -147    131    148    197 175.5  46.2  34160  289.57 0854.49
2009/04/23 16:17:32.2      21   -130    136    132    189 170.7  50.7  34152  289.43 0854.49
2009/04/23 16:17:32.3      56   -252    124    259    287 167.3  27.3  34142  289.25 0854.49
2009/04/23 16:17:32.4      74   -212    124    225    256 160.6  31.4  34138  289.19 0854.48
2009/04/23 16:17:32.5      54   -264     90    270    285 168.4  18.6  34144  289.31 0854.48
2009/04/23 16:17:32.6      60   -273    104    280    298 167.5  21.0  34150  289.39 0854.48
2009/04/23 16:17:32.7     135   -203     96    244    262 146.4  22.8  34154  289.46 0854.48
2009/04/23 16:17:32.8      98   -181    117    206    236 151.5  32.3  34148  289.38 0854.48
2009/04/23 16:17:32.9      70   -228    152    239    283 162.8  35.5  34148  289.36 0854.48
2009/04/23 16:17:33.0      64   -272    164    280    324 166.7  33.1  34170  289.73 0854.48
2009/04/23 16:17:33.1      60   -277    258    284    383 167.7  47.0  34144  289.30 0854.48
2009/04/23 16:17:33.2     -50   -291    261    296    394 189.8  45.9  34128  289.04 0854.48
2009/04/23 16:17:33.3     137   -234    111    272    293 149.7  23.1  34146  289.34 0854.48
2009/04/23 16:17:33.4     181   -432    -39    469    471 157.3  -4.8  34124  288.96 0854.48
2009/04/23 16:17:33.5      69   -429   -102    435    447 170.8 -13.3  34116  288.83 0854.48
2009/04/23 16:17:33.6     325   -212   -161    389    421 123.2 -28.2  34130  289.05 0854.48
2009/04/23 16:17:33.7     227   -272   -125    355    377 140.2 -19.4  34130  289.06 0854.48
2009/04/23 16:17:33.8     221   -269   -177    349    391 140.6 -33.5  34126  289.01 0854.48
2009/04/23 16:17:33.9     181   -336   -116    382    399 151.7 -21.8  34126  288.99 0854.48
2009/04/23 16:17:34.0      75   -361    -65    369    375 168.2 -10.1  34116  288.81 0854.48
2009/04/23 16:17:34.1     225   -109     26    251    253 116.0   5.9  34132  289.09 0854.48
2009/04/23 16:17:34.2      29   -129    130    133    185 167.1  49.4  34130  289.06 0854.48
2009/04/23 16:17:34.3     -43   -344    141    347    374 187.2  23.4  34118  288.86 0854.48
2009/04/23 16:17:34.4     -34   -375    203    377    428 185.2  30.8  34114  288.80 0854.47
2009/04/23 16:17:34.5     -44   -452    208    455    500 185.6  26.3  34116  288.84 0854.47
2009/04/23 16:17:34.6     -60   -379    168    384    419 189.0  25.2  34118  288.87 0854.47
2009/04/23 16:17:34.7     -69   -409     96    415    427 189.7  13.1  34126  289.00 0854.47
2009/04/23 16:17:34.8      76   -397    -57    405    410 169.2  -8.0  34128  289.04 0854.47
2009/04/23 16:17:34.9       0   -366     15    367    368 180.0   2.3  34126  288.98 0854.47
2009/04/23 16:17:35.0    -128   -197    -37    236    239 213.0  -9.0  34126  288.98 0854.47
2009/04/23 16:17:35.1       0   -119   -140    120    184 180.4 -59.4  34138  289.19 0854.47
2009/04/23 16:17:35.2      68   -113   -143    133    195 148.8 -56.6  34132  289.09 0854.47
2009/04/23 16:17:35.3      -9   -124   -127    125    178 184.5 -54.8  34122  288.92 0854.47
2009/04/23 16:17:35.4     -68    -25   -133     73    151 249.2 -73.3  34134  289.13 0854.47
2009/04/23 16:17:35.5      36   -148   -104    153    185 166.2 -41.7  34120  288.89 0854.47
2009/04/23 16:17:35.6       8   -149    -59    150    161 176.9 -26.9  34118  288.86 0854.47
2009/04/23 16:17:35.7    -120   -139    -45    184    190 220.8 -13.9  34116  288.84 0854.47
2009/04/23 16:17:35.8    -128   -189    -38    229    233 214.2  -9.6  34116  288.82 0854.47
2009/04/23 16:17:35.9     -86   -160    -11    182    183 208.3  -3.7  34114  288.79 0854.47
2009/04/23 16:17:36.0     -39   -220     14    224    225 190.2   3.6  34128  289.04 0854.47
2009/04/23 16:17:36.1      60   -202    -41    211    216 163.3 -11.1  34126  289.01 0854.47
2009/04/23 16:17:36.2      62   -202    -83    212    227 163.0 -27.2  34124  288.96 0854.47
2009/04/23 16:17:36.3      56   -209    -44    217    222 164.8 -11.5  34118  288.86 0854.47
2009/04/23 16:17:36.4      31   -220     -1    223    224 171.9  -0.5  34116  288.84 0854.47
2009/04/23 16:17:36.5       4   -136    -60    137    149 178.2 -29.6  34132  289.09 0854.47
2009/04/23 16:17:36.6       5   -126     -4    127    128 177.3  -2.2  34118  288.87 0854.47
2009/04/23 16:17:36.7     -48   -145     32    153    157 198.3  12.0  34122  288.94 0854.47
2009/04/23 16:17:36.8     -25   -156     12    159    160 189.3   4.6  34126  289.01 0854.47
2009/04/23 16:17:36.9     -25    -92      4     96     97 195.6   2.9  34124  288.96 0854.47
2009/04/23 16:17:37.0       1    -73     -8     74     75 179.1  -6.2  34124  288.97 0854.47
2009/04/23 16:17:37.1       0    -91    -10     92     93 180.4  -6.2  34122  288.92 0854.47
2009/04/23 16:17:37.2     -42    -80     13     91     93 207.6   8.5  34122  288.92 0854.47
2009/04/23 16:17:37.3      -5   -109      5    110    111 182.7   2.8  34122  288.92 0854.47
2009/04/23 16:17:37.4      23    -92    -32     95    101 165.7 -18.7  34120  288.91 0854.47
2009/04/23 16:17:37.5      26   -101    -49    105    115 165.3 -31.5  34130  289.06 0854.47
2009/04/23 16:17:37.6       4   -104    -41    105    112 177.8 -26.9  34122  288.94 0854.47
2009/04/23 16:17:37.7      15   -151    -48    152    160 174.2 -17.6  34120  288.89 0854.47
2009/04/23 16:17:37.8      62   -200    -27    210    212 162.8  -7.3  34118  288.86 0854.47
2009/04/23 16:17:37.9      18   -219    -44    220    225 175.1 -11.3  34116  288.84 0854.47
2009/04/23 16:17:38.0      32   -200    -64    203    213 170.9 -17.5  34116  288.84 0854.47
2009/04/23 16:17:38.1      23   -224    -73    226    238 174.0 -17.9  34118  288.87 0854.47
2009/04/23 16:17:38.2     101   -212    -34    235    238 154.5  -8.3  34142  289.25 0854.47
2009/04/23 16:17:38.3     140   -169     -4    220    221 140.4  -1.1  34170  289.74 0854.47
2009/04/23 16:17:38.4      77   -165    -65    183    195 154.8 -19.7  34172  289.77 0854.47
2009/04/23 16:17:38.5      80   -176    -59    194    203 155.5 -17.0  34150  289.41 0854.47
2009/04/23 16:17:38.6      68   -159    -49    174    181 156.8 -15.8  34144  289.30 0854.47
2009/04/23 16:17:38.7      98   -118    -52    154    162 140.3 -23.6  34146  289.35 0854.47
2009/04/23 16:17:38.8      48    -77      9     91     92 147.9   5.9  34148  289.38 0854.47
2009/04/23 16:17:39.0       9    -70     24     71     76 172.0  19.2  34154  289.48 0854.47
2009/04/23 16:17:39.0      91    -61     21    110    113 124.2  11.1  34152  289.43 0854.47
2009/04/23 16:17:39.2     140   -115    126    182    221 129.5  37.8  34160  289.58 0854.47
2009/04/23 16:17:39.2     135   -112    156    176    235 129.8  46.2  34160  289.58 0854.47
2009/04/23 16:17:39.3      57   -155    230    166    283 159.7  60.6  34176  289.85 0854.47
2009/04/23 16:17:39.4     -24   -206    181    208    275 186.7  45.8  34170  289.73 0854.47
2009/04/23 16:17:39.6      99    -90    110    134    173 132.2  43.7  34162  289.62 0854.47
2009/04/23 16:17:39.6     -23   -232     60    234    242 185.8  14.5  34162  289.59 0854.47
2009/04/23 16:17:39.8      74   -307    151    316    350 166.4  27.3  34152  289.42 0854.47
2009/04/23 16:17:39.9     -66   -344    115    351    370 191.0  18.1  34142  289.25 0854.47
2009/04/23 16:17:40.0     -46   -340    115    344    363 187.8  18.6  34138  289.21 0854.47
2009/04/23 16:17:40.1    -182   -285     20    339    340 212.6   3.5  34138  289.20 0854.47
2009/04/23 16:17:40.2    -176   -213     14    277    278 219.6   2.9  34132  289.10 0854.47
2009/04/23 16:17:40.3    -240   -263     18    357    358 222.4   2.9  34138  289.20 0854.47
2009/04/23 16:17:40.4    -202   -294    -26    357    358 214.5  -4.2  34142  289.26 0854.47
2009/04/23 16:17:40.5    -137   -238     74    275    285 209.9  15.2  34164  289.63 0854.48
2009/04/23 16:17:40.6    -134   -191     88    234    250 215.2  21.5  34174  289.80 0854.48
2009/04/23 16:17:40.7    -134   -149     17    201    202 222.1   4.9  34162  289.60 0854.48
2009/04/23 16:17:40.8    -101    -97     73    141    158 226.0  29.5  34162  289.62 0854.48
2009/04/23 16:17:40.9     -15    -76    137     78    157 191.5  68.1  34170  289.74 0854.48
2009/04/23 16:17:41.0     -66     14    -30     68     74 282.4 -29.5  34176  289.84 0854.48
2009/04/23 16:17:41.1    -157   -138    -11    210    211 228.6  -3.1  34158  289.53 0854.48
2009/04/23 16:17:41.2    -241   -199     96    313    328 230.5  17.0  34154  289.46 0854.48
2009/04/23 16:17:41.3    -249   -158     15    296    297 237.6   2.9  34166  289.66 0854.48
2009/04/23 16:17:41.4    -286    -93    -38    301    304 251.8  -7.3  34180  289.90 0854.48
2009/04/23 16:17:41.5    -165   -112    -60    200    209 235.6 -16.8  34178  289.89 0854.48
2009/04/23 16:17:41.6    -252     26     18    254    255 275.9   4.2  34182  289.95 0854.48
2009/04/23 16:17:41.7    -232    -10     -2    233    234 267.4  -0.5  34182  289.93 0854.48
2009/04/23 16:17:41.8    -251   -154    -90    295    308 238.5 -21.8  34182  289.93 0854.48
2009/04/23 16:17:41.9    -233   -163    -97    285    301 234.9 -23.3  34186  290.00 0854.48
2009/04/23 16:17:42.0    -325   -108    -97    343    357 251.5 -15.8  34184  289.98 0854.48
2009/04/23 16:17:42.1    -371    -96    -60    384    389 255.4  -9.0  34202  290.30 0854.48
2009/04/23 16:17:42.2    -281    -85    -75    294    304 253.1 -14.4  34190  290.09 0854.48
2009/04/23 16:17:42.3    -246   -122   -103    275    293 243.6 -25.9  34180  289.92 0854.48
2009/04/23 16:17:42.4     -72   -218    -21    230    232 198.5  -5.4  34190  290.09 0854.48
2009/04/23 16:17:42.5     -51   -249    -70    255    265 191.6 -15.5  34188  290.03 0854.49
2009/04/23 16:17:42.6    -101   -189    -62    215    223 208.1 -21.0  34186  290.02 0854.49
2009/04/23 16:17:42.7    -128   -137    -63    188    198 223.2 -23.6  34186  290.01 0854.49
2009/04/23 16:17:42.8    -114   -160    -61    197    206 215.4 -22.3  34196  290.18 0854.49
2009/04/23 16:17:42.9    -118    -98    -64    154    166 230.4 -28.5  34198  290.21 0854.49
2009/04/23 16:17:43.0    -136    -41    -94    143    171 253.1 -40.7  34206  290.36 0854.49
2009/04/23 16:17:43.1    -158     24    -42    160    166 278.8 -14.7  34208  290.38 0854.49
2009/04/23 16:17:43.2    -166     24    -94    168    192 278.4 -36.3  34198  290.23 0854.49
2009/04/23 16:17:43.3     -43     77    -18     89     91 330.6 -11.9  34206  290.36 0854.49
2009/04/23 16:17:43.4    -101     -4     65    102    120 267.4  35.5  34224  290.67 0854.49
2009/04/23 16:17:43.5    -117    -38     35    124    129 251.8  15.8  34234  290.82 0854.49
2009/04/23 16:17:43.6    -188    -26     87    190    208 261.9  26.4  34236  290.86 0854.49
2009/04/23 16:17:43.7    -165    -78    -34    183    187 244.5 -10.5  34242  290.98 0854.49
2009/04/23 16:17:43.8    -148    -50      4    157    158 251.4   1.8  34228  290.72 0854.49
2009/04/23 16:17:43.9    -221   -187    -49    290    295 229.8  -9.6  34202  290.27 0854.49
2009/04/23 16:17:44.0     -31   -252    -55    254    261 187.1 -12.4  34190  290.07 0854.49
2009/04/23 16:17:44.1     -30   -230     -9    233    234 187.6  -2.2  34194  290.14 0854.49
2009/04/23 16:17:44.2     -19   -247     62    248    256 184.5  14.2  34198  290.22 0854.49
2009/04/23 16:17:44.3       0   -244     38    245    249 180.1   9.0  34186  290.00 0854.49
2009/04/23 16:17:44.4    -129   -277    -68    306    314 204.9 -12.6  34184  289.97 0854.49
2009/04/23 16:17:44.5    -163   -245    -48    295    300 213.6  -9.3  34188  290.03 0854.49
2009/04/23 16:17:44.6    -131   -189    -78    231    244 214.7 -18.7  34194  290.14 0854.49
2009/04/23 16:17:44.7    -172   -228      4    286    287 217.0   0.8  34200  290.24 0854.49
2009/04/23 16:17:44.8    -194   -179    -10    265    266 227.3  -2.2  34202  290.27 0854.49
2009/04/23 16:17:44.9    -203   -103    -77    228    241 243.0 -18.7  34196  290.17 0854.49
2009/04/23 16:17:45.0    -138    -83    -47    162    168 238.9 -21.0  34174  289.80 0854.49
2009/04/23 16:17:45.1    -124   -166     48    208    214 216.7  13.2  34190  290.08 0854.49
2009/04/23 16:17:45.2    -236   -173     -5    293    294 233.8  -1.2  34190  290.07 0854.49
2009/04/23 16:17:45.3    -168   -157    -33    231    234 226.9  -8.2  34190  290.08 0854.49
2009/04/23 16:17:45.4    -123   -137     33    185    189 221.9  10.3  34188  290.06 0854.48
2009/04/23 16:17:45.5     -66   -178    169    191    255 200.5  46.2  34194  290.14 0854.48
2009/04/23 16:17:45.6     163   -417    181    448    483 158.6  23.2  34156  289.49 0854.48
2009/04/23 16:17:45.7       7   -438    182    439    475 179.0  23.8  34158  289.55 0854.48
2009/04/23 16:17:45.8      79   -483    239    490    545 170.7  27.8  34168  289.70 0854.48
2009/04/23 16:17:45.9      50   -410    165    414    445 173.0  23.0  34162  289.60 0854.48
2009/04/23 16:17:46.0     116   -367    139    385    410 162.4  19.9  34184  289.98 0854.48
2009/04/23 16:17:46.1      28   -400    137    401    424 176.0  18.9  34160  289.58 0854.48
2009/04/23 16:17:46.2       1   -281    179    282    334 179.8  35.5  34162  289.61 0854.48
2009/04/23 16:17:46.3      -9   -294    129    295    321 181.8  25.2  34158  289.54 0854.48
2009/04/23 16:17:46.4     148   -261    137    301    330 150.4  26.2  34176  289.85 0854.48
2009/04/23 16:17:46.5     174   -285     87    334    346 148.6  14.7  34142  289.26 0854.48
2009/04/23 16:17:46.6      91   -238    174    256    309 159.0  37.4  34182  289.93 0854.48
2009/04/23 16:17:46.7     197   -108    181    225    288 118.9  43.0  34180  289.90 0854.48
2009/04/23 16:17:46.8     107   -117    191    159    248 137.7  56.3  34188  290.04 0854.48
2009/04/23 16:17:46.9     -37    -44    210     58    217 219.6  84.6  34226  290.70 0854.48
2009/04/23 16:17:47.0      32     55    154     64    166  30.7  76.1  34216  290.53 0854.48
2009/04/23 16:17:47.1     -45     27    106     53    118 301.5  71.9  34212  290.45 0854.48
2009/04/23 16:17:47.2      -9      1     61     10     61 281.5  90.0  34206  290.36 0854.48
2009/04/23 16:17:47.3      63     39    159     75    175  58.5  73.1  34204  290.31 0854.48
2009/04/23 16:17:47.4      94    187    132    210    248  26.7  35.5  34172  289.76 0854.49
2009/04/23 16:17:47.5     -63    139     55    153    162 335.5  20.4  34168  289.70 0854.49
2009/04/23 16:17:47.6      16    112     73    114    135   8.5  35.6  34172  289.77 0854.49
2009/04/23 16:17:47.7      95     31     93    101    137  71.6  47.9  34170  289.74 0854.49
2009/04/23 16:17:47.8      85     13     90     87    125  81.2  50.2  34178  289.89 0854.49
2009/04/23 16:17:47.9      76     44     76     89    117  59.8  44.8  34174  289.82 0854.49
2009/04/23 16:17:48.0      45     54     64     71     95  39.6  46.9  34174  289.80 0854.49
2009/04/23 16:17:48.1      30    112     44    117    125  15.2  21.0  34174  289.80 0854.49
2009/04/23 16:17:48.2      80    126     63    150    162  32.6  23.8  34178  289.87 0854.49
2009/04/23 16:17:48.3      33    235     33    238    241   8.1   8.0  34170  289.73 0854.49
2009/04/23 16:17:48.4      63    226     29    235    237  15.6   7.1  34158  289.53 0854.49
2009/04/23 16:17:48.5      83    177    103    196    221  25.3  29.8  34162  289.60 0854.49
2009/04/23 16:17:48.6      73    140     70    158    172  27.6  25.3  34150  289.40 0854.49
2009/04/23 16:17:48.7     101    174     55    202    210  30.3  15.2  34148  289.38 0854.49
2009/04/23 16:17:48.8     159    206     56    261    268  37.8  12.2  34160  289.58 0854.49
2009/04/23 16:17:48.9     184    184     34    261    264  45.1   7.5  34166  289.66 0854.49
2009/04/23 16:17:49.0      95    237    -32    256    259  21.8  -7.2  34140  289.24 0854.49
2009/04/23 16:17:49.1      91    201      0    221    222  24.3   0.2  34152  289.43 0854.49
2009/04/23 16:17:49.2      56    163    -25    173    175  19.2  -8.2  34146  289.35 0854.49
2009/04/23 16:17:49.3      21    193    -16    195    196   6.5  -4.9  34154  289.48 0854.49
2009/04/23 16:17:49.4      39    160      8    165    166  13.8   2.8  34152  289.43 0854.49
2009/04/23 16:17:49.5     153    134     68    204    216  48.7  18.4  34150  289.41 0854.49
2009/04/23 16:17:49.6     292     98    -82    309    320  71.4 -15.0  34152  289.42 0854.49
2009/04/23 16:17:49.7     189    153    -89    244    259  51.1 -25.3  34152  289.42 0854.49
2009/04/23 16:17:49.8     237     76   -104    249    269  72.2 -28.5  34148  289.36 0854.49
2009/04/23 16:17:49.9     284     97    -71    301    310  71.2 -13.4  34142  289.27 0854.49
2009/04/23 16:17:50.0     401      4     11    402    403  89.4   1.6  34136  289.16 0854.49
2009/04/23 16:17:50.1     431     35     68    433    439  85.3   9.0  34144  289.31 0854.49
2009/04/23 16:17:50.2     546    -15    159    547    570  91.6  16.3  34144  289.31 0854.49
2009/04/23 16:17:50.3     463     -2    132    464    483  90.3  15.9  34132  289.10 0854.49
2009/04/23 16:17:50.4     428    -29    147    429    454  93.9  18.9  34132  289.11 0854.49
2009/04/23 16:17:50.5     377      0    271    378    465  90.0  39.3  34134  289.12 0854.49
2009/04/23 16:17:50.6     395    -74    129    403    424 100.7  17.8  34134  289.12 0854.49
2009/04/23 16:17:50.7     451   -133     24    471    472 106.5   3.0  34138  289.20 0854.49
2009/04/23 16:17:50.8     487   -129   -165    504    531 104.9 -18.2  34136  289.18 0854.49
2009/04/23 16:17:50.9     421    -30    -67    423    429  94.1  -9.0  34142  289.27 0854.49
2009/04/23 16:17:51.0     477     75    165    484    512  81.0  18.8  34150  289.40 0854.49
2009/04/23 16:17:51.1     324     61    219    330    396  79.3  36.6  34148  289.37 0854.49
2009/04/23 16:17:51.2     248     40   -163    252    300  80.8 -40.0  34150  289.39 0854.49
2009/04/23 16:17:51.3     257    -53   -290    263    391 101.7 -57.7  34154  289.48 0854.49
2009/04/23 16:17:51.4     467    157     56    493    497  71.4   6.5  34136  289.17 0854.49
2009/04/23 16:17:51.5     609     74     40    614    616  83.0   3.8  34130  289.08 0854.49
2009/04/23 16:17:51.6     574    -48    -22    577    578  94.8  -2.2  34126  288.98 0854.49
2009/04/23 16:17:51.7     610   -136     85    626    632 102.6   7.8  34122  288.94 0854.49
2009/04/23 16:17:51.8     507    166     97    534    543  71.9  10.4  34112  288.77 0854.49
2009/04/23 16:17:51.9     539    131    107    555    566  76.3  11.0  34126  289.01 0854.49
2009/04/23 16:17:52.0     568     74     27    573    574  82.6   2.8  34130  289.05 0854.49
2009/04/23 16:17:52.1     565    190     12    597    598  71.4   1.2  34126  288.98 0854.49
2009/04/23 16:17:52.2     473    261    -29    541    542  61.1  -3.1  34134  289.14 0854.49
2009/04/23 16:17:52.3     365    241   -191    438    477  56.5 -29.5  34138  289.20 0854.49
2009/04/23 16:17:52.4     408     88   -117    418    435  77.8 -15.7  34138  289.19 0854.49
2009/04/23 16:17:52.5     447     33   -145    449    472  85.7 -17.9  34132  289.09 0854.49
2009/04/23 16:17:52.6     402    131    -48    424    427  71.9  -6.6  34134  289.14 0854.49
2009/04/23 16:17:52.7     460     36    108    462    475  85.5  13.2  34148  289.37 0854.49
2009/04/23 16:17:52.8     420    -65     82    425    433  98.8  11.0  34158  289.55 0854.49
2009/04/23 16:17:52.9     377    -28      0    378    379  94.4   0.0  34158  289.54 0854.49
2009/04/23 16:17:53.0     457    140    120    479    494  73.0  14.2  34146  289.34 0854.49
2009/04/23 16:17:53.1     486     63    154    491    515  82.6  17.4  34148  289.37 0854.49
2009/04/23 16:17:53.2     526     49    222    529    573  84.6  24.1  34148  289.36 0854.49
2009/04/23 16:17:53.3     568     56    209    571    608  84.3  21.0  34152  289.42 0854.49
2009/04/23 16:17:53.4     554    125     -2    569    570  77.2  -0.3  34152  289.42 0854.49
2009/04/23 16:17:53.5     440    223    -15    494    495  63.1  -1.8  34152  289.42 0854.49
2009/04/23 16:17:53.6     504     42    226    506    554  85.2  25.7  34148  289.38 0854.49
2009/04/23 16:17:53.7     568     88    161    575    598  81.2  15.7  34156  289.52 0854.49
2009/04/23 16:17:53.8     468    -78    129    475    493  99.5  15.2  34190  290.08 0854.49
2009/04/23 16:17:53.9     432     -2    165    433    463  90.4  22.0  34200  290.26 0854.49
2009/04/23 16:17:54.0     348      3    121    349    370  89.4  19.2  34186  290.01 0854.49
2009/04/23 16:17:54.1     311    -72    176    320    365 103.2  31.3  34192  290.13 0854.49
2009/04/23 16:17:54.2     356    -61     47    362    366  99.7   7.5  34162  289.62 0854.49
2009/04/23 16:17:54.3     286     93    107    301    319  71.8  20.3  34156  289.49 0854.49
2009/04/23 16:17:54.4     265    -20    119    266    291  94.4  25.7  34164  289.64 0854.49
2009/04/23 16:17:54.5     169    -67     70    182    195 111.7  21.7  34178  289.89 0854.49
2009/04/23 16:17:54.6     299    -52     65    304    311  99.9  12.1  34164  289.64 0854.49
2009/04/23 16:17:54.7     197    -40    154    202    254 101.7  41.2  34180  289.90 0854.49
2009/04/23 16:17:54.8     217    -85    234    234    330 111.5  50.1  34178  289.88 0854.49
2009/04/23 16:17:54.9     246    -31    147    248    288  97.2  33.5  34162  289.61 0854.49
2009/04/23 16:17:55.0     233    -26    118    235    262  96.6  28.7  34164  289.63 0854.49
2009/04/23 16:17:55.1      90     -6    123     91    153  94.4  60.5  34178  289.87 0854.49
2009/04/23 16:17:55.2     165    114    177    201    267  55.4  45.9  34184  289.97 0854.49
2009/04/23 16:17:55.3     248    118    145    275    310  64.5  30.2  34174  289.81 0854.49
2009/04/23 16:17:55.4      93    123     85    155    176  37.0  31.3  34174  289.82 0854.50
2009/04/23 16:17:55.5      67    172    110    185    215  21.4  33.5  34170  289.75 0854.50
2009/04/23 16:17:55.6      17    138    122    140    185   7.1  45.6  34172  289.77 0854.50
2009/04/23 16:17:55.7      69    117     84    137    160  30.7  34.4  34172  289.77 0854.50
2009/04/23 16:17:55.8      21     97     57    100    115  12.5  32.4  34170  289.75 0854.50
2009/04/23 16:17:55.9      41     25     57     49     75  58.5  55.4  34180  289.91 0854.50
2009/04/23 16:17:56.0      53     55    106     77    131  44.2  60.5  34178  289.89 0854.50
2009/04/23 16:17:56.1     171    121    151    210    258  54.5  39.5  34180  289.90 0854.50
2009/04/23 16:17:56.2     261     97     60    279    286  69.6  12.2  34172  289.76 0854.50
2009/04/23 16:17:56.3     251     61     11    259    260  76.3   2.5  34168  289.70 0854.50
2009/04/23 16:17:56.4     190    100     60    215    224  62.2  15.8  34162  289.60 0854.50
2009/04/23 16:17:56.5      98    119     84    155    176  39.7  30.8  34170  289.74 0854.50
2009/04/23 16:17:56.6     114     97     65    151    164  49.6  24.9  34178  289.87 0854.50
2009/04/23 16:17:56.7      98     26    112    102    151  74.9  52.2  34184  289.97 0854.50
2009/04/23 16:17:56.8     136     41    133    143    195  73.2  47.9  34184  289.97 0854.50
2009/04/23 16:17:56.9     139    115     -4    181    182  50.5  -1.3  34166  289.67 0854.50
2009/04/23 16:17:57.0     114    141     22    182    184  39.0   6.9  34162  289.62 0854.50
2009/04/23 16:17:57.1     174    102     32    202    205  59.6   9.0  34186  290.01 0854.50
2009/04/23 16:17:57.2     131     77     64    153    165  59.4  23.8  34204  290.33 0854.50
2009/04/23 16:17:57.3      84     85     52    120    130  44.7  25.1  34202  290.30 0854.50
2009/04/23 16:17:57.4      86     66     43    109    117  52.7  22.5  34198  290.23 0854.48
2009/04/23 16:17:57.5     115    -45     42    124    132 111.3  18.9  34212  290.47 0854.48
2009/04/23 16:17:57.6      76      5    100     77    126  85.6  58.5  34222  290.62 0854.48
2009/04/23 16:17:57.7      97      9     70     98    120  84.3  39.5  34208  290.38 0854.48
2009/04/23 16:17:57.8     149     21     37    151    156  82.0  13.9  34196  290.18 0854.48
2009/04/23 16:17:57.9     108    -28      5    112    113 104.6   2.8  34192  290.11 0854.48
2009/04/23 16:17:58.0      86    -46     -5     98     99 118.0  -3.1  34198  290.21 0854.48
2009/04/23 16:17:58.1     122    -25     29    125    129 101.9  13.1  34202  290.30 0854.48
2009/04/23 16:17:58.2     126      9     54    127    138  85.6  24.1  34210  290.43 0854.48
2009/04/23 16:17:58.3     139     -1     96    140    169  90.8  37.8  34224  290.65 0854.48
2009/04/23 16:17:58.4     172     -1     87    173    193  90.4  28.7  34218  290.57 0854.48
2009/04/23 16:17:58.5     231     52     18    237    238  77.2   4.6  34198  290.20 0854.48
2009/04/23 16:17:58.6     238     94     32    257    260  68.3   7.1  34238  290.90 0854.48
2009/04/23 16:17:58.7     272     31     37    274    277  83.4   7.8  34226  290.68 0854.48
2009/04/23 16:17:58.8     149    -13    257    150    297  95.2  67.2  34234  290.83 0854.48
2009/04/23 16:17:58.9     219    113    194    247    314  62.7  42.2  34208  290.39 0854.48
2009/04/23 16:17:59.0     276     91    171    291    337  71.6  33.1  34212  290.44 0854.48
2009/04/23 16:17:59.1     274     74    141    284    317  74.9  28.4  34200  290.24 0854.48
2009/04/23 16:17:59.2     206     35    145    209    254  80.3  38.5  34214  290.49 0854.48
2009/04/23 16:17:59.3     215     36    108    219    244  80.4  28.2  34218  290.54 0854.48
2009/04/23 16:17:59.4     134    -41    135    141    195 107.3  49.0  34198  290.23 0854.46
2009/04/23 16:17:59.5      19     10    116     22    118  62.9  89.6  34218  290.55 0854.46
2009/04/23 16:17:59.6       9     12    128     16    129  36.1  90.0  34226  290.70 0854.46
2009/04/23 16:17:59.7      60     25    100     66    119  67.4  63.2  34230  290.75 0854.46
2009/04/23 16:17:59.8      84      0    113     85    141  90.0  59.4  34228  290.72 0854.46
2009/04/23 16:17:59.9     136     66     99    152    181  64.2  36.0  34256  291.20 0854.46
2009/04/23 16:18:00.0     127    103     68    164    177  50.9  23.6  34266  291.37 0854.46
2009/04/23 16:18:00.1      56     83    113    101    151  33.8  53.7  34266  291.38 0854.46
2009/04/23 16:18:00.2     145     81     98    167    193  60.7  33.5  34280  291.62 0854.46
2009/04/23 16:18:00.3     133     72     90    152    176  61.6  33.1  34268  291.42 0854.46
2009/04/23 16:18:00.4     116     73     47    138    146  57.6  18.9  34280  291.60 0854.46
2009/04/23 16:18:00.5      92     18     82     94    124  78.6  45.8  34274  291.50 0854.46
2009/04/23 16:18:00.6      99     -2     82    100    129  91.3  43.7  34268  291.42 0854.46
2009/04/23 16:18:00.7      32     83     77     90    118  21.4  45.4  34278  291.57 0854.46
2009/04/23 16:18:00.8      84    114    102    142    174  36.5  39.1  34306  292.05 0854.46
2009/04/23 16:18:00.9     104     86    107    136    173  50.4  42.2  34314  292.20 0854.46
2009/04/23 16:18:01.0     144     52    144    154    210  70.0  48.0  34276  291.55 0854.46
2009/04/23 16:18:01.1     154     86    148    177    230  60.9  43.8  34260  291.28 0854.46
2009/04/23 16:18:01.2     179    109     66    210    221  58.7  17.4  34248  291.06 0854.46
2009/04/23 16:18:01.3     178     95     75    202    215  61.8  21.0  34238  290.89 0854.46
2009/04/23 16:18:01.4     202     86     61    220    229  66.9  15.6  34226  290.70 0854.47
2009/04/23 16:18:01.5     204     68     95    216    235  71.6  25.2  34210  290.43 0854.47
2009/04/23 16:18:01.6     224     89     75    242    254  68.3  17.3  34222  290.61 0854.47
2009/04/23 16:18:01.7     200    125     68    237    247  58.0  16.0  34244  290.99 0854.47
2009/04/23 16:18:01.8     189    122     79    226    239  57.1  20.0  34248  291.07 0854.47
2009/04/23 16:18:01.9     222    132     -5    259    260  59.3  -1.1  34228  290.73 0854.47
2009/04/23 16:18:02.0     150    125      9    196    197  50.4   2.8  34234  290.82 0854.47
2009/04/23 16:18:02.1      80    139     34    161    165  29.9  12.0  34254  291.18 0854.47
2009/04/23 16:18:02.2     121    144     17    189    190  39.9   5.4  34230  290.77 0854.47
2009/04/23 16:18:02.3     102    172      2    200    201  30.7   0.8  34252  291.15 0854.47
2009/04/23 16:18:02.4     106     87    100    138    170  50.5  39.7  34324  292.35 0854.47
2009/04/23 16:18:02.5     157      9    160    158    224  86.5  50.1  34324  292.35 0854.47
2009/04/23 16:18:02.6     156    129    115    203    233  50.4  32.1  34282  291.66 0854.47
2009/04/23 16:18:02.7     185    140     17    233    234  52.9   4.4  34266  291.38 0854.47
2009/04/23 16:18:02.8     166    100    -59    195    204  58.9 -17.0  34254  291.18 0854.47
2009/04/23 16:18:02.9     170     95     32    195    198  60.7   9.5  34206  290.36 0854.47
2009/04/23 16:18:03.0      86    117      8    146    147  36.5   3.3  34216  290.53 0854.47
2009/04/23 16:18:03.1      96     90     18    132    134  46.9   8.0  34230  290.75 0854.47
2009/04/23 16:18:03.2     231    101    126    253    282  66.3  28.5  34270  291.43 0854.47
2009/04/23 16:18:03.3     264    109    124    286    311  67.4  25.1  34294  291.85 0854.47
2009/04/23 16:18:03.4     170     91     80    193    208  61.8  23.6  34280  291.62 0854.46
2009/04/23 16:18:03.5     142     53     -3    152    153  69.2  -1.3  34274  291.50 0854.46
2009/04/23 16:18:03.6     126     44     46    134    142  70.5  18.9  34242  290.96 0854.46
2009/04/23 16:18:03.7     146     71     62    163    174  64.0  21.5  34254  291.18 0854.46
2009/04/23 16:18:03.8     174     97     37    200    204  60.9  10.6  34218  290.57 0854.46
2009/04/23 16:18:03.9     249    109     48    272    277  66.3  10.1  34246  291.04 0854.46
2009/04/23 16:18:04.0     291     70      3    300    301  76.3   0.7  34242  290.95 0854.46
2009/04/23 16:18:04.1     300     31    116    302    323  84.1  22.2  34316  292.23 0854.46
2009/04/23 16:18:04.2     223     24     62    225    234  83.6  15.6  34356  292.92 0854.46
2009/04/23 16:18:04.3      45     21    141     50    149  64.7  80.7  34314  292.20 0854.46
2009/04/23 16:18:04.4     227     83    198    242    312  69.8  43.5  34340  292.64 0854.46
2009/04/23 16:18:04.5     190     90    200    211    290  64.7  48.2  34342  292.65 0854.46
2009/04/23 16:18:04.6     231     20    157    232    280  84.8  37.4  34360  292.98 0854.46
2009/04/23 16:18:04.7     283     21    156    284    324  85.6  31.0  34338  292.59 0854.46
2009/04/23 16:18:04.8     273     55    142    279    313  78.6  29.1  34314  292.18 0854.46
2009/04/23 16:18:04.9     249     35    150    252    293  81.9  33.5  34304  292.01 0854.46
2009/04/23 16:18:05.0     331    115    140    351    377  70.8  23.0  34274  291.52 0854.46
2009/04/23 16:18:05.1     264     73    107    275    295  74.5  22.5  34258  291.22 0854.46
2009/04/23 16:18:05.2     243     20     73    244    255  85.2  16.8  34244  290.99 0854.46
2009/04/23 16:18:05.3     332    121     76    354    363  70.0  12.1  34248  291.08 0854.46
2009/04/23 16:18:05.5     276     77     44    287    291  74.3   8.9  34236  290.85 0854.46
2009/04/23 16:18:05.6     246     50     31    252    255  78.3   7.2  34236  290.85 0854.46
2009/04/23 16:18:05.7     276     99    -11    294    295  70.3  -2.2  34236  290.85 0854.46
2009/04/23 16:18:05.8     247     74     52    259    265  73.2  11.4  34230  290.75 0854.46
2009/04/23 16:18:05.9     194     32     75    197    210  80.5  21.7  34248  291.08 0854.46
2009/04/23 16:18:05.9     162     12     74    163    179  85.6  26.2  34252  291.15 0854.46
2009/04/23 16:18:06.1     167      8     68    168    181  87.2  23.1  34266  291.37 0854.46
2009/04/23 16:18:06.2     181     -8     63    182    193  92.8  19.2  34250  291.11 0854.46
2009/04/23 16:18:06.3     294    -62    -16    301    302 101.9  -3.2  34246  291.04 0854.46
2009/04/23 16:18:06.4     290    -32    -11    292    293  96.4  -2.2  34256  291.19 0854.46
2009/04/23 16:18:06.5     306     33     23    308    309  83.8   4.4  34266  291.36 0854.46
2009/04/23 16:18:06.6     233     24     81    235    249  83.9  19.2  34268  291.41 0854.46
2009/04/23 16:18:06.7     208     22     77    210    223  83.9  20.9  34278  291.57 0854.46
2009/04/23 16:18:06.8     153     43    -47    160    167  74.1 -16.4  34252  291.13 0854.46
2009/04/23 16:18:06.9     199     60     -8    209    210  73.1  -2.2  34266  291.38 0854.46
2009/04/23 16:18:07.0     205     72    -43    218    223  70.7 -11.3  34262  291.30 0854.46
2009/04/23 16:18:07.1     200     33    -94    203    223  80.5 -31.4  34238  290.89 0854.46
2009/04/23 16:18:07.2     222    -41   -110    226    251 100.6 -32.2  34232  290.80 0854.46
2009/04/23 16:18:07.3     261   -118   -126    287    313 114.4 -29.6  34230  290.76 0854.46
2009/04/23 16:18:07.4     228    -58     10    236    237 104.4   2.5  34236  290.87 0854.46
2009/04/23 16:18:07.5     105    -99    -69    145    160 133.2 -31.6  34246  291.04 0854.46
2009/04/23 16:18:07.6     250    -46   -149    255    295 100.6 -37.5  34242  290.95 0854.46
2009/04/23 16:18:07.7     267    -25   -112    269    291  95.5 -28.5  34240  290.92 0854.46
2009/04/23 16:18:07.8     246    -42    -11    250    251  99.9  -2.6  34232  290.78 0854.46
2009/04/23 16:18:07.9     199    -66     10    210    211 108.6   2.8  34214  290.50 0854.46
2009/04/23 16:18:08.0     315      4    -12    316    317  89.1  -2.2  34238  290.88 0854.46
2009/04/23 16:18:08.1     249     94     13    267    268  69.2   2.8  34242  290.95 0854.46
2009/04/23 16:18:08.2     247     54     21    253    254  77.6   4.9  34224  290.66 0854.46
2009/04/23 16:18:08.3     261     40    184    265    322  81.2  38.0  34250  291.09 0854.46
2009/04/23 16:18:08.4     193     33    174    196    262  80.1  46.4  34226  290.68 0854.46
2009/04/23 16:18:08.5     135    -44    221    143    263 108.2  64.4  34238  290.91 0854.46
2009/04/23 16:18:08.6     179   -141     83    228    242 128.2  20.9  34202  290.27 0854.46
2009/04/23 16:18:08.7     162   -101     99    192    216 122.0  29.3  34216  290.53 0854.46
2009/04/23 16:18:08.8     194    -56     55    203    211 106.2  15.3  34202  290.28 0854.46
2009/04/23 16:18:08.9     154    -55     65    164    176 109.9  22.8  34196  290.19 0854.46
2009/04/23 16:18:09.0     124    -13     83    125    150  96.1  36.5  34212  290.47 0854.46
2009/04/23 16:18:09.1     108     -5     98    109    146  93.0  46.9  34228  290.72 0854.46
2009/04/23 16:18:09.2      70    -23    109     74    131 108.6  62.7  34242  290.96 0854.46
2009/04/23 16:18:09.3      14     42     75     45     87  18.7  65.7  34264  291.33 0854.46
2009/04/23 16:18:09.4      -4     59     71     60     92 355.6  55.8  34266  291.37 0854.46
2009/04/23 16:18:09.5      -6      0     50      7     50 270.0  90.0  34266  291.37 0854.46
2009/04/23 16:18:09.6     -51    -80     59     96    112 212.5  35.0  34240  290.94 0854.46
2009/04/23 16:18:09.7     -17   -125     35    127    132 188.0  15.8  34238  290.91 0854.46
2009/04/23 16:18:09.8      24   -101     84    104    133 166.2  43.7  34258  291.25 0854.46
2009/04/23 16:18:09.9      48   -117     68    127    144 157.7  30.8  34248  291.08 0854.46
2009/04/23 16:18:10.0      91    -80     59    122    135 131.3  27.3  34234  290.84 0854.46
2009/04/23 16:18:10.1      52   -111     64    123    138 154.6  29.3  34252  291.15 0854.46
2009/04/23 16:18:10.2      51   -111     61    123    137 155.5  28.2  34256  291.20 0854.46
2009/04/23 16:18:10.3      24   -115     28    118    122 168.0  13.7  34252  291.15 0854.46
2009/04/23 16:18:10.4      52    -76     58     93    109 145.7  35.5  34238  290.91 0854.46
2009/04/23 16:18:10.5       2    -90     55     91    106 178.2  34.4  34250  291.09 0854.46
2009/04/23 16:18:10.6     -50   -112     52    123    133 204.1  24.1  34278  291.57 0854.46
2009/04/23 16:18:10.7     -58    -91      0    108    109 212.5  -0.3  34284  291.67 0854.46
2009/04/23 16:18:10.8     -64    -66     28     92     97 224.1  16.8  34284  291.67 0854.46
2009/04/23 16:18:10.9     -66    -77     33    102    108 220.5  17.9  34282  291.64 0854.46
2009/04/23 16:18:11.0     -61    -73     38     96    103 220.1  23.0  34298  291.93 0854.46
2009/04/23 16:18:11.1     -73    -74     45    105    114 224.5  24.1  34296  291.88 0854.46
2009/04/23 16:18:11.2    -144    -99     52    176    184 235.4  16.6  34302  292.00 0854.46
2009/04/23 16:18:11.3    -108   -130     26    170    172 219.6   8.8  34278  291.59 0854.46
2009/04/23 16:18:11.4    -114   -127     -5    172    173 221.9  -1.8  34276  291.55 0854.46
2009/04/23 16:18:11.5    -106   -111      2    154    155 223.7   0.8  34278  291.57 0854.46
2009/04/23 16:18:11.6     -78   -141     15    162    163 209.0   5.4  34278  291.57 0854.46
2009/04/23 16:18:11.7     -49   -188     96    195    217 194.7  27.8  34260  291.26 0854.46
2009/04/23 16:18:11.8     -50   -218    105    224    247 193.1  27.0  34258  291.22 0854.46
2009/04/23 16:18:11.9     -54   -235     91    242    258 192.9  21.5  34258  291.24 0854.46
2009/04/23 16:18:12.0     -92   -222     88    241    256 202.5  20.9  34256  291.19 0854.46
2009/04/23 16:18:12.1     -85   -262    127    276    303 198.0  26.6  34242  290.97 0854.46
2009/04/23 16:18:12.2     -28   -276    118    278    302 186.0  24.2  34224  290.66 0854.46
2009/04/23 16:18:12.3     -38   -276    145    279    314 188.0  29.6  34218  290.54 0854.46
2009/04/23 16:18:12.4     -69   -258    131    268    298 195.1  28.0  34224  290.65 0854.46
2009/04/23 16:18:12.5     -33   -270    171    273    322 187.1  35.2  34234  290.82 0854.47
2009/04/23 16:18:12.6     -15   -264    148    265    303 183.4  31.4  34236  290.85 0854.47
2009/04/23 16:18:12.7      44   -180    138    186    231 166.2  39.9  34236  290.86 0854.47
2009/04/23 16:18:12.8     103   -229     54    252    258 155.7  12.2  34226  290.70 0854.47
2009/04/23 16:18:12.9      25   -234    107    236    259 173.8  26.2  34238  290.90 0854.47
2009/04/23 16:18:13.0      41   -204    132    209    247 168.4  35.5  34246  291.02 0854.47
2009/04/23 16:18:13.1     117   -210    148    241    282 150.8  34.5  34230  290.76 0854.47
2009/04/23 16:18:13.2      96   -251    104    269    288 159.0  22.1  34214  290.49 0854.47
2009/04/23 16:18:13.3      62   -260    131    268    298 166.6  28.0  34212  290.44 0854.47
2009/04/23 16:18:13.4      46   -231    121    236    265 168.5  29.2  34202  290.27 0854.47
2009/04/23 16:18:13.5     -31   -289     85    291    304 186.2  16.4  34196  290.19 0854.47
2009/04/23 16:18:13.6     -66   -262    107    271    291 194.2  22.8  34190  290.09 0854.47
2009/04/23 16:18:13.7     -96   -241     70    260    270 201.8  15.2  34190  290.07 0854.47
2009/04/23 16:18:13.8      27   -207     45    209    214 172.4  12.2  34190  290.08 0854.47
2009/04/23 16:18:13.9      70   -232      4    243    244 163.1   1.0  34204  290.32 0854.47
2009/04/23 16:18:14.0     100   -203     53    227    234 153.7  13.2  34204  290.33 0854.47
2009/04/23 16:18:14.1     138   -178     79    226    240 142.2  19.4  34214  290.48 0854.47
2009/04/23 16:18:14.2     147   -143     64    206    216 134.2  17.3  34214  290.50 0854.47
2009/04/23 16:18:14.3      78   -140     88    161    183 151.0  31.3  34210  290.43 0854.47
2009/04/23 16:18:14.4      76   -282    102    293    311 164.8  19.2  34176  289.83 0854.47
2009/04/23 16:18:14.5     207   -272     82    343    353 142.7  13.6  34168  289.72 0854.47
2009/04/23 16:18:14.6      85   -280    110    293    312 163.0  21.5  34162  289.61 0854.47
2009/04/23 16:18:14.7      99   -175    173    202    265 150.6  44.8  34176  289.83 0854.47
2009/04/23 16:18:14.8      91   -151    169    177    244 148.8  49.0  34194  290.16 0854.47
2009/04/23 16:18:14.9     100   -196    145    221    264 152.8  36.3  34190  290.07 0854.47
2009/04/23 16:18:15.0      37   -246    102    249    269 171.3  23.1  34190  290.09 0854.47
2009/04/23 16:18:15.1      42   -185     80    190    206 167.1  24.3  34184  289.99 0854.47
2009/04/23 16:18:15.2      67   -168     80    182    198 158.2  25.2  34188  290.04 0854.47
2009/04/23 16:18:15.3      21   -152     83    154    174 172.0  30.6  34188  290.04 0854.47
2009/04/23 16:18:15.4      15   -144     20    145    147 173.8   8.0  34188  290.06 0854.47
2009/04/23 16:18:15.5      58   -119     53    133    143 153.7  23.0  34178  289.87 0854.47
2009/04/23 16:18:15.6      -7   -179    118    180    215 182.5  36.3  34182  289.94 0854.47
2009/04/23 16:18:15.7     -27   -206     73    208    221 187.6  19.4  34192  290.13 0854.47
2009/04/23 16:18:15.8     117   -147      9    188    189 141.5   2.9  34184  289.99 0854.47
2009/04/23 16:18:15.9     191   -116     47    224    230 121.3  12.0  34192  290.11 0854.47
2009/04/23 16:18:16.0     189   -130    132    230    265 124.6  32.4  34194  290.15 0854.47
2009/04/23 16:18:16.1     140   -218    111    260    282 147.3  24.3  34204  290.31 0854.47
2009/04/23 16:18:16.2     111   -185    134    217    255 149.0  34.5  34212  290.44 0854.47
2009/04/23 16:18:16.3      83   -158     65    179    190 152.4  20.4  34208  290.38 0854.47
2009/04/23 16:18:16.4      77   -212    -26    226    228 159.9  -6.7  34206  290.36 0854.48
2009/04/23 16:18:16.5      -6   -228    -20    229    230 181.6  -5.2  34206  290.36 0854.48
2009/04/23 16:18:16.6      56   -203    -19    211    213 164.6  -5.4  34202  290.28 0854.48
2009/04/23 16:18:16.7      89   -184    -11    205    206 154.1  -3.1  34198  290.23 0854.48
2009/04/23 16:18:16.8      14   -181    -19    182    184 175.5  -6.2  34202  290.30 0854.48
2009/04/23 16:18:16.9      -4   -118    -59    119    132 182.2 -32.2  34196  290.19 0854.48
2009/04/23 16:18:17.0      32    -75    -29     82     86 156.4 -23.8  34198  290.21 0854.48
2009/04/23 16:18:17.1      60    -89    -19    108    110 146.2 -10.3  34192  290.11 0854.48
2009/04/23 16:18:17.2      51    -93      5    107    108 151.0   2.9  34186  290.01 0854.48
2009/04/23 16:18:17.3      15   -108     13    110    111 172.0   6.9  34190  290.08 0854.48
2009/04/23 16:18:17.4      12    -31    -13     34     36 158.2 -23.3  34192  290.13 0854.48
2009/04/23 16:18:17.5      14    -39   -101     42    109 160.0 -81.4  34202  290.30 0854.48
2009/04/23 16:18:17.6       7    -45    -73     46     86 170.2 -69.1  34210  290.41 0854.48
2009/04/23 16:18:17.7      39    -24    -66     46     80 121.5 -65.9  34218  290.55 0854.48
2009/04/23 16:18:17.8       5   -135   -117    136    179 177.8 -49.5  34202  290.28 0854.48
2009/04/23 16:18:17.9      74   -221   -107    234    257 161.3 -30.6  34188  290.03 0854.48
2009/04/23 16:18:18.0       3   -272   -106    273    292 179.3 -26.7  34190  290.07 0854.48
2009/04/23 16:18:18.1      29   -257    -20    259    260 173.5  -4.6  34184  289.97 0854.48
2009/04/23 16:18:18.2      91   -211    -73    230    241 156.6 -22.8  34172  289.76 0854.48
2009/04/23 16:18:18.3      78   -196    -59    212    220 158.2 -20.0  34172  289.77 0854.48
2009/04/23 16:18:18.4      -4   -104   -103    105    147 182.2 -54.3  34192  290.11 0854.48
2009/04/23 16:18:18.5      26   -106   -119    110    162 166.2 -56.9  34190  290.09 0854.48
2009/04/23 16:18:18.6     144   -154   -124    212    245 137.0 -37.5  34164  289.63 0854.48
2009/04/23 16:18:18.7     116   -140    -72    182    195 140.4 -27.4  34152  289.43 0854.48
2009/04/23 16:18:18.8      73    -88    -62    115    130 140.4 -35.2  34160  289.58 0854.48
2009/04/23 16:18:18.9      10   -128    -64    129    144 175.5 -32.6  34160  289.58 0854.48
2009/04/23 16:18:19.0       0   -145    -75    146    164 180.0 -33.7  34162  289.60 0854.48
2009/04/23 16:18:19.1      62   -203    -35    213    216 163.1  -9.3  34156  289.52 0854.48
2009/04/23 16:18:19.2      97   -206    -81    228    243 154.7 -19.7  34150  289.39 0854.48
2009/04/23 16:18:19.3      89   -235    -89    252    268 159.3 -19.6  34146  289.34 0854.48
2009/04/23 16:18:19.4     108   -220    -73    246    256 153.9 -21.2  34148  289.37 0854.48
2009/04/23 16:18:19.5     143   -188    -61    237    245 142.6 -14.5  34142  289.27 0854.48
2009/04/23 16:18:19.6     158   -203    -17    258    259 142.2  -3.9  34138  289.19 0854.48
2009/04/23 16:18:19.7     181   -187     -5    261    262 135.9  -1.3  34136  289.15 0854.48
2009/04/23 16:18:19.8     131   -208    -67    247    256 147.7 -15.2  34140  289.24 0854.48
2009/04/23 16:18:19.9     163   -222    -45    276    280 143.7  -9.4  34144  289.29 0854.48
2009/04/23 16:18:20.0     195   -227    -38    300    303 139.4  -7.3  34134  289.14 0854.48
2009/04/23 16:18:20.1     155   -232     10    280    281 146.2   2.1  34134  289.12 0854.48
2009/04/23 16:18:20.2     183   -221     10    288    289 140.3   2.1  34132  289.10 0854.48
2009/04/23 16:18:20.3     149   -230    -22    275    276 147.0  -4.6  34140  289.22 0854.48
2009/04/23 16:18:20.4     174   -184      7    254    255 136.7   1.8  34134  289.12 0854.47
2009/04/23 16:18:20.5     145   -235     36    277    280 148.3   7.5  34144  289.31 0854.47
2009/04/23 16:18:20.6     176   -213     92    277    293 140.3  18.5  34150  289.39 0854.47
2009/04/23 16:18:20.7     239   -197     35    310    313 129.5   6.5  34154  289.47 0854.47
2009/04/23 16:18:20.8     231   -150    -45    276    280 123.1  -9.4  34154  289.47 0854.47
2009/04/23 16:18:20.9     206    -34    -57    209    217  99.6 -15.4  34156  289.50 0854.47
2009/04/23 16:18:21.0     191    -16    -25    192    194  95.0  -7.5  34150  289.40 0854.47
2009/04/23 16:18:21.1     147    -11     36    148    153  94.4  13.9  34142  289.26 0854.47
2009/04/23 16:18:21.2      76    -33     58     83    101 113.5  38.6  34146  289.35 0854.47
2009/04/23 16:18:21.3      40   -197     72    201    213 168.5  20.2  34142  289.28 0854.47
2009/04/23 16:18:21.4      25   -264     31    266    268 174.4   6.7  34148  289.36 0854.47
2009/04/23 16:18:21.5     -37   -271     64    274    282 187.8  13.2  34150  289.41 0854.47
2009/04/23 16:18:21.6      19   -292     49    293    298 176.2   9.5  34150  289.39 0854.47
2009/04/23 16:18:21.7     138   -319    185    348    394 156.5  30.2  34146  289.33 0854.47
2009/04/23 16:18:21.8      94   -282    153    298    334 161.5  29.3  34138  289.20 0854.47
2009/04/23 16:18:21.9     123   -207    151    241    284 149.2  35.5  34138  289.20 0854.47
2009/04/23 16:18:22.0      69   -171     79    185    201 158.1  24.6  34146  289.33 0854.47
2009/04/23 16:18:22.1      39   -153     85    158    179 165.7  30.8  34152  289.43 0854.47
2009/04/23 16:18:22.2      22   -285    -58    286    292 175.5 -11.5  34148  289.36 0854.47
2009/04/23 16:18:22.3     110   -288      9    309    310 159.1   1.7  34146  289.34 0854.47
2009/04/23 16:18:22.4     164   -210     -8    267    268 141.9  -1.8  34150  289.39 0854.46
2009/04/23 16:18:22.5     170   -235    -65    291    299 144.0 -12.6  34142  289.25 0854.46
2009/04/23 16:18:22.6     189   -398   -136    441    461 154.5 -22.1  34134  289.12 0854.46
2009/04/23 16:18:22.7     180   -368   -162    410    440 153.9 -27.3  34138  289.21 0854.46
2009/04/23 16:18:22.8     108   -310   -164    329    367 160.8 -32.9  34136  289.16 0854.46
2009/04/23 16:18:22.9       2   -167   -203    168    263 179.1 -60.8  34142  289.25 0854.46
2009/04/23 16:18:23.0      97   -181   -131    206    244 151.7 -39.9  34138  289.21 0854.46
2009/04/23 16:18:23.1      10   -169    -55    170    178 176.6 -23.0  34148  289.36 0854.46
2009/04/23 16:18:23.2       2   -156    -22    157    159 179.0  -8.2  34146  289.35 0854.46
2009/04/23 16:18:23.3      97   -283     28    300    302 161.1   5.4  34146  289.32 0854.46
2009/04/23 16:18:23.4       0   -251    -59    252    259 179.9 -13.2  34148  289.36 0854.46
2009/04/23 16:18:23.5      56   -256    -85    263    277 167.5 -18.1  34136  289.15 0854.46
2009/04/23 16:18:23.6     161   -299    -43    340    343 151.7  -7.3  34128  289.04 0854.46
2009/04/23 16:18:23.7     158   -321     -5    358    359 153.7  -0.9  34130  289.06 0854.46
2009/04/23 16:18:23.8     227   -220     80    317    328 134.0  14.3  34134  289.14 0854.46
2009/04/23 16:18:23.9     185   -209    118    280    303 138.6  24.3  34142  289.25 0854.46
2009/04/23 16:18:24.0     202   -144     68    249    259 125.5  15.3  34136  289.15 0854.46
2009/04/23 16:18:24.1     116   -176     85    212    228 146.6  23.0  34136  289.18 0854.46
2009/04/23 16:18:24.2      55   -167     29    176    179 161.7   9.5  34140  289.23 0854.46
2009/04/23 16:18:24.3      88   -149      8    174    175 149.3   2.8  34142  289.26 0854.46
2009/04/23 16:18:24.4     180   -163    -26    243    245 132.2  -6.2  34146  289.32 0854.47
2009/04/23 16:18:24.5     194   -227    -40    299    302 139.5  -7.7  34144  289.29 0854.47
2009/04/23 16:18:24.6     167   -222    -66    279    287 143.0 -13.4  34150  289.39 0854.47
2009/04/23 16:18:24.7     155   -235   -101    282    299 146.6 -24.8  34160  289.56 0854.47
2009/04/23 16:18:24.8     171   -235    -81    291    302 143.9 -20.2  34154  289.47 0854.47
2009/04/23 16:18:24.9     180   -217    -95    283    299 140.4 -18.6  34146  289.32 0854.47
2009/04/23 16:18:25.0     204   -252    -81    325    335 140.9 -14.1  34144  289.30 0854.47
2009/04/23 16:18:25.1     175   -198      5    265    266 138.6   1.2  34134  289.12 0854.47
2009/04/23 16:18:25.2     228   -158    -68    278    287 124.9 -13.9  34150  289.41 0854.47
2009/04/23 16:18:25.3     249   -246     13    351    352 134.7   2.2  34136  289.16 0854.47
2009/04/23 16:18:25.4     219   -233     53    321    326 136.8   9.4  34124  288.97 0854.47
2009/04/23 16:18:25.5     263   -258    129    369    391 134.4  19.3  34140  289.23 0854.47
2009/04/23 16:18:25.6     299   -232    229    379    442 127.8  34.1  34132  289.11 0854.47
2009/04/23 16:18:25.7     256   -116     98    282    299 114.4  19.2  34140  289.22 0854.47
2009/04/23 16:18:25.8     303   -181   -160    354    388 120.9 -30.6  34144  289.30 0854.47
2009/04/23 16:18:25.9     309   -249   -116    397    414 128.9 -16.4  34150  289.39 0854.47
2009/04/23 16:18:26.0     270   -204   -116    339    359 127.0 -19.0  34146  289.35 0854.47
2009/04/23 16:18:26.1     269   -201    -78    336    345 126.8 -13.1  34154  289.48 0854.47
2009/04/23 16:18:26.2     320   -194    -66    375    381 121.2 -10.1  34154  289.47 0854.47
2009/04/23 16:18:26.3     241   -348    147    424    450 145.3  19.2  34144  289.29 0854.47
2009/04/23 16:18:26.4     147   -324    123    356    377 155.6  19.2  34146  289.35 0854.47
2009/04/23 16:18:26.5     238   -238     -2    338    339 135.0  -0.5  34152  289.45 0854.47
2009/04/23 16:18:26.6     186   -338     59    387    392 151.1   8.7  34156  289.50 0854.47
2009/04/23 16:18:26.7     322   -313      6    450    451 134.2   0.8  34164  289.63 0854.47
2009/04/23 16:18:26.8     301   -391    125    494    510 142.4  14.3  34144  289.30 0854.47
2009/04/23 16:18:26.9     230   -387     81    451    459 149.3  10.2  34142  289.27 0854.47
2009/04/23 16:18:27.0     191   -321    253    374    451 149.3  37.4  34144  289.31 0854.47
2009/04/23 16:18:27.1     154    -57    108    165    197 110.4  36.3  34150  289.40 0854.47
2009/04/23 16:18:27.2     139   -316   -109    346    363 156.2 -17.5  34154  289.47 0854.47
2009/04/23 16:18:27.3     212   -246    -71    326    334 139.2 -12.4  34158  289.54 0854.47
2009/04/23 16:18:27.4      52   -282   -159    287    328 169.5 -35.9  34144  289.31 0854.48
2009/04/23 16:18:27.5     167   -189    -41    253    257 138.6  -9.3  34156  289.51 0854.48
2009/04/23 16:18:27.6     177   -123    -27    216    218 124.9  -7.2  34166  289.69 0854.48
2009/04/23 16:18:27.7     232    -72    -77    244    257 107.3 -17.6  34170  289.73 0854.48
2009/04/23 16:18:27.8     236   -135    -48    273    278 119.8 -10.1  34164  289.63 0854.48
2009/04/23 16:18:27.9     179   -193     13    264    265 137.2   2.9  34160  289.58 0854.48
2009/04/23 16:18:28.0     128   -138     88    189    208 137.2  27.1  34158  289.53 0854.48
2009/04/23 16:18:28.1     133   -204    163    244    293 146.8  37.0  34152  289.44 0854.48
2009/04/23 16:18:28.2     181   -152    137    237    273 130.2  32.7  34148  289.37 0854.48
2009/04/23 16:18:28.3     218   -148    199    264    330 124.2  40.8  34138  289.20 0854.48
2009/04/23 16:18:28.4     210    -91    206    229    308 113.5  46.9  34154  289.46 0854.48
2009/04/23 16:18:28.5     220     46    183    225    290  78.1  43.7  34156  289.49 0854.48
2009/04/23 16:18:28.6     195    -59      4    204    205 107.1   1.2  34148  289.36 0854.48
2009/04/23 16:18:28.7     268    -33     -3    271    272  97.2  -0.7  34148  289.36 0854.48
2009/04/23 16:18:28.8     183   -143    -69    233    243 128.0 -21.7  34150  289.39 0854.48
2009/04/23 16:18:28.9      71   -298     36    307    310 166.6   6.7  34144  289.31 0854.48
2009/04/23 16:18:29.0     197   -371    -16    421    422 152.0  -2.2  34154  289.46 0854.48
2009/04/23 16:18:29.1     244   -388     12    459    460 147.9   1.6  34152  289.44 0854.48
2009/04/23 16:18:29.2     235   -331     -1    406    407 144.6  -0.3  34150  289.39 0854.48
2009/04/23 16:18:29.3     229   -309     48    385    389 143.4   7.2  34138  289.21 0854.48
2009/04/23 16:18:29.4     263   -335    116    427    443 141.9  15.3  34136  289.17 0854.47
2009/04/23 16:18:29.5     354   -296    -10    462    463 129.9  -1.3  34142  289.27 0854.47
2009/04/23 16:18:29.6     286   -264     61    390    395 132.8   9.0  34142  289.25 0854.47
2009/04/23 16:18:29.7     251   -279    170    376    412 138.0  26.2  34136  289.18 0854.47
2009/04/23 16:18:29.8     362   -171    -55    401    405 115.4  -7.9  34148  289.36 0854.47
2009/04/23 16:18:29.9     208   -194   -101    285    302 132.9 -24.6  34154  289.46 0854.47
2009/04/23 16:18:30.0     172   -194   -143    260    296 138.6 -35.7  34152  289.44 0854.47
2009/04/23 16:18:30.1     197   -303   -117    362    380 146.9 -23.2  34148  289.37 0854.47
2009/04/23 16:18:30.2     215   -265    -92    342    355 141.0 -15.1  34146  289.33 0854.47
2009/04/23 16:18:30.3     181   -218     53    284    289 140.4  10.6  34126  289.00 0854.47
2009/04/23 16:18:30.4     178   -302     84    351    361 149.5  13.5  34136  289.18 0854.47
2009/04/23 16:18:30.5     216   -297    106    368    384 143.9  16.1  34130  289.06 0854.47
2009/04/23 16:18:30.6     165   -334    139    373    398 153.6  21.4  34142  289.25 0854.47
2009/04/23 16:18:30.7     140   -294    173    326    369 154.4  30.2  34142  289.26 0854.47
2009/04/23 16:18:30.8     177   -374    244    414    480 154.6  33.3  34136  289.17 0854.47
2009/04/23 16:18:30.9     216   -348    269    410    490 148.1  36.4  34144  289.30 0854.47
2009/04/23 16:18:31.0      57   -372    293    377    477 171.3  41.7  34154  289.46 0854.47
2009/04/23 16:18:31.1      27   -296    296    298    420 174.7  50.0  34158  289.54 0854.47
2009/04/23 16:18:31.2     132   -533    293    550    623 166.1  30.3  34144  289.30 0854.47
2009/04/23 16:18:31.3      86   -508    287    516    590 170.3  31.4  34142  289.28 0854.47
2009/04/23 16:18:31.4      88   -372    100    383    396 166.6  14.7  34146  289.32 0854.46
2009/04/23 16:18:31.5      49   -227     96    233    252 167.7  23.6  34150  289.41 0854.46
2009/04/23 16:18:31.6     206   -193     63    283    291 133.2  12.6  34150  289.41 0854.46
2009/04/23 16:18:31.8     206   -248    171    323    365 140.3  30.2  34146  289.35 0854.46
2009/04/23 16:18:31.8     241    -87    159    257    302 109.9  35.0  34156  289.49 0854.46
2009/04/23 16:18:31.9     331    -88     44    343    346 105.0   7.4  34160  289.57 0854.46
2009/04/23 16:18:32.1     295   -169    -13    341    342 119.8  -2.2  34160  289.57 0854.46
2009/04/23 16:18:32.2     293   -229     81    373    382 128.0  12.3  34162  289.59 0854.46
2009/04/23 16:18:32.3     263   -297    154    397    425 138.5  22.3  34154  289.46 0854.46
2009/04/23 16:18:32.4     168   -179     69    246    256 136.8  15.8  34154  289.46 0854.46
2009/04/23 16:18:32.5     -12   -284    226    285    363 182.6  42.4  34172  289.76 0854.46
2009/04/23 16:18:32.6      24   -266    275    268    383 174.7  50.8  34180  289.91 0854.46
2009/04/23 16:18:32.7      72   -231    195    243    311 162.6  43.0  34164  289.63 0854.46
2009/04/23 16:18:32.8     295   -174    120    343    364 120.7  19.3  34152  289.45 0854.46
2009/04/23 16:18:32.9     134   -125    177    184    255 133.1  49.0  34156  289.51 0854.46
2009/04/23 16:18:33.0      80   -145     31    166    169 151.0  10.6  34160  289.57 0854.46
2009/04/23 16:18:33.1      59    -59    -52     84     98 134.9 -39.4  34158  289.55 0854.46
2009/04/23 16:18:33.2      68   -106     44    127    135 147.4  19.4  34158  289.55 0854.46
2009/04/23 16:18:33.3      95    -36     -4    102    103 110.8  -2.6  34164  289.65 0854.46
2009/04/23 16:18:33.4     168     -2      2    169    170  91.0   0.8  34160  289.58 0854.46
2009/04/23 16:18:33.5     209     22    -13    211    212  83.9  -3.7  34160  289.57 0854.46
2009/04/23 16:18:33.6     222     16     55    223    230  85.9  13.9  34166  289.67 0854.46
2009/04/23 16:18:33.7     172    -19     55    174    183  96.4  17.7  34162  289.60 0854.46
2009/04/23 16:18:33.8     152    -60     16    164    165 111.8   5.7  34164  289.63 0854.46
2009/04/23 16:18:33.9      88    -58    -13    106    107 123.7  -7.2  34160  289.57 0854.46
2009/04/23 16:18:34.0      65    -29    -10     72     73 114.4  -8.2  34158  289.53 0854.46
2009/04/23 16:18:34.1      96      0      2     97     98  89.6   1.2  34162  289.60 0854.46
2009/04/23 16:18:34.2      89     35    -27     96    100  68.3 -16.0  34160  289.58 0854.46
2009/04/23 16:18:34.3      50     64    -77     82    112  38.3 -52.4  34166  289.69 0854.46
2009/04/23 16:18:34.4      35     68    -81     77    111  27.2 -56.0  34168  289.72 0854.46
2009/04/23 16:18:34.5      67     39      4     78     79  59.3   3.3  34174  289.80 0854.46
2009/04/23 16:18:34.6      49     37     34     62     70  53.1  31.4  34174  289.82 0854.46
2009/04/23 16:18:34.7      16     16     57     24     61  45.0  77.0  34186  290.02 0854.46
2009/04/23 16:18:34.8     -52     22     63     57     84 293.5  52.7  34206  290.35 0854.46
2009/04/23 16:18:34.9     -53    103     95    116    149 332.8  43.7  34204  290.33 0854.46
2009/04/23 16:18:35.0     -21    155      4    157    158 352.0   1.8  34192  290.13 0854.46
2009/04/23 16:18:35.1     -76     97     41    124    131 322.1  18.4  34200  290.25 0854.46
2009/04/23 16:18:35.2     -95    153    -31    181    184 328.1  -9.8  34194  290.16 0854.46
2009/04/23 16:18:35.3    -123    153    -32    197    200 321.0  -9.4  34192  290.11 0854.46
2009/04/23 16:18:35.4    -119    136    -65    182    194 318.8 -19.7  34190  290.09 0854.46
2009/04/23 16:18:35.5     -50    133     -7    143    144 339.5  -3.2  34194  290.16 0854.45
2009/04/23 16:18:35.6      47    143    -21    151    153  18.3  -8.2  34186  290.01 0854.45
2009/04/23 16:18:35.7      41    175     21    180    182  13.4   6.7  34188  290.06 0854.45
2009/04/23 16:18:35.8      32    220      8    223    224   8.5   2.1  34202  290.28 0854.45
2009/04/23 16:18:35.9    -102    228     95    250    267 335.9  22.0  34200  290.24 0854.45
2009/04/23 16:18:36.0    -164    174     80    240    254 316.8  18.6  34206  290.36 0854.45
2009/04/23 16:18:36.1    -113    186     84    218    233 328.6  22.0  34210  290.43 0854.45
2009/04/23 16:18:36.2     -93    130      0    161    162 324.4   0.2  34188  290.06 0854.45
2009/04/23 16:18:36.3    -129     56     -7    141    142 293.5  -3.2  34200  290.26 0854.45
2009/04/23 16:18:36.4    -120     11     -6    121    122 275.7  -3.2  34214  290.48 0854.45
2009/04/23 16:18:36.5    -113    -38     49    120    129 251.4  23.0  34220  290.60 0854.45
2009/04/23 16:18:36.6    -102    -64     75    121    142 237.5  35.5  34216  290.52 0854.45
2009/04/23 16:18:36.7    -118    -97     42    153    159 230.5  15.6  34210  290.43 0854.45
2009/04/23 16:18:36.8    -134    -82    -26    158    161 238.5  -9.6  34210  290.41 0854.45
2009/04/23 16:18:36.9     -89    -52     74    104    127 239.8  39.5  34204  290.31 0854.45
2009/04/23 16:18:37.0     -93    -22     44     96    105 256.3  26.6  34200  290.25 0854.45
2009/04/23 16:18:37.1     -42     11     30     44     53 285.1  37.6  34200  290.25 0854.45
2009/04/23 16:18:37.2     -80     21      5     83     84 285.1   3.8  34214  290.50 0854.45
2009/04/23 16:18:37.3     -58     75    -63     96    114 322.2 -40.0  34218  290.57 0854.45
2009/04/23 16:18:37.4      54    113    -57    126    138  25.4 -30.1  34228  290.74 0854.45
2009/04/23 16:18:37.5      68     57     31     90     96  50.0  19.4  34260  291.28 0854.46
2009/04/23 16:18:37.6       0    -31     34     32     46 180.9  50.1  34274  291.52 0854.46
2009/04/23 16:18:37.7     -18    -30     16     36     39 210.7  25.1  34276  291.54 0854.46
2009/04/23 16:18:37.8     -38     11    -12     40     43 286.8 -17.6  34250  291.09 0854.46
2009/04/23 16:18:37.9     -55     -6    -20     56     60 263.0 -19.7  34236  290.86 0854.46
2009/04/23 16:18:38.0     -70    -45     22     84     87 237.6  14.7  34240  290.94 0854.46
2009/04/23 16:18:38.1    -109    -36     67    116    133 251.4  33.4  34260  291.26 0854.46
2009/04/23 16:18:38.2     -89    -81     97    121    155 227.8  43.7  34266  291.37 0854.46
2009/04/23 16:18:38.3    -106    -76     91    131    159 234.0  38.4  34272  291.49 0854.46
2009/04/23 16:18:38.4    -122    -18     43    124    132 261.6  19.2  34272  291.47 0854.46
2009/04/23 16:18:38.5     -83    -78     63    115    131 226.8  31.3  34280  291.62 0854.46
2009/04/23 16:18:38.6     -73    -83     52    111    122 221.4  26.6  34286  291.71 0854.46
2009/04/23 16:18:38.7    -107    -68     33    128    133 237.5  14.7  34294  291.86 0854.46
2009/04/23 16:18:38.8    -137    -96     32    168    172 234.9  11.0  34288  291.74 0854.46
2009/04/23 16:18:38.9    -126    -80     53    150    159 237.5  20.2  34282  291.64 0854.46
2009/04/23 16:18:39.0    -149    -55     45    159    166 249.6  15.8  34288  291.76 0854.46
2009/04/23 16:18:39.1     -76    -36     79     85    116 244.6  48.0  34296  291.88 0854.46
2009/04/23 16:18:39.2     -83    103     85    133    157 321.3  35.7  34326  292.39 0854.46
2009/04/23 16:18:39.3     -72     44     58     85    102 301.5  37.6  34332  292.49 0854.46
2009/04/23 16:18:39.4     -69     56    -10     89     90 309.1  -6.7  34318  292.25 0854.46
2009/04/23 16:18:39.5     -64     55      8     85     86 310.9   5.4  34324  292.35 0854.47
2009/04/23 16:18:39.6     -73     70     35    102    108 314.0  18.9  34352  292.83 0854.47
2009/04/23 16:18:39.7     -69     86     72    111    132 321.3  35.6  34374  293.21 0854.47
2009/04/23 16:18:39.8     -32     82     98     89    132 338.6  52.7  34392  293.51 0854.47
2009/04/23 16:18:39.9     -21     64     86     68    109 341.5  56.9  34380  293.31 0854.47
2009/04/23 16:18:40.0     -39     74     67     84    107 331.9  43.3  34362  293.00 0854.47
2009/04/23 16:18:40.1     -25    106     43    109    117 346.6  22.5  34354  292.86 0854.47
2009/04/23 16:18:40.2     -71    113     48    134    142 327.5  20.4  34346  292.75 0854.47
2009/04/23 16:18:40.3     -95     95     36    135    140 315.1  15.3  34362  293.00 0854.47
2009/04/23 16:18:40.4     -72     88     41    114    121 320.8  20.9  34368  293.10 0854.47
2009/04/23 16:18:40.5     -66     80     45    105    114 320.4  24.1  34346  292.75 0854.47
2009/04/23 16:18:40.6    -100     94     43    138    145 313.1  17.3  34326  292.40 0854.47
2009/04/23 16:18:40.7    -137     47     59    146    157 289.1  23.0  34314  292.20 0854.47
2009/04/23 16:18:40.8    -109     41     45    117    125 290.8  22.0  34312  292.17 0854.47
2009/04/23 16:18:40.9     -93     38     16    101    103 292.6   9.0  34312  292.17 0854.47
2009/04/23 16:18:41.0     -66     50     43     84     94 307.3  29.3  34308  292.10 0854.47
2009/04/23 16:18:41.1     -71     16     41     73     83 283.3  32.4  34300  291.95 0854.47
2009/04/23 16:18:41.2     -60    -28     51     67     84 244.6  41.2  34308  292.08 0854.47
2009/04/23 16:18:41.3     -83     14     53     85    100 280.1  35.5  34318  292.27 0854.47
2009/04/23 16:18:41.4     -45      4     48     46     66 276.1  50.1  34320  292.29 0854.47
2009/04/23 16:18:41.5     -36      0      1     37     38 270.0   2.8  34300  291.96 0854.47
2009/04/23 16:18:41.6     -10    -11      8     16     17 223.4  27.2  34304  292.01 0854.47
2009/04/23 16:18:41.7      12    -12     23     18     29 135.0  56.4  34312  292.15 0854.47
2009/04/23 16:18:41.8      28    -18     19     34     38 122.5  31.4  34308  292.08 0854.47
2009/04/23 16:18:41.9      31    -19      7     37     38 122.4  11.1  34294  291.84 0854.47
2009/04/23 16:18:42.0      35    -19     -9     41     42 118.9 -12.4  34292  291.81 0854.47
2009/04/23 16:18:42.1      45    -19     -6     50     51 113.5  -7.2  34286  291.72 0854.47
2009/04/23 16:18:42.2      46     21    -28     51     58  64.8 -35.8  34292  291.81 0854.47
2009/04/23 16:18:42.3      50     37    -40     63     74  53.1 -39.9  34298  291.91 0854.47
2009/04/23 16:18:42.4      46     24    -42     53     67  62.0 -47.1  34304  292.03 0854.47
2009/04/23 16:18:42.5      48     18    -69     52     86  69.2 -63.8  34304  292.01 0854.47
2009/04/23 16:18:42.6      44      8    -69     45     82  79.4 -68.0  34302  292.00 0854.47
2009/04/23 16:18:42.7       7    -26    -33     27     42 164.9 -59.8  34272  291.47 0854.47
2009/04/23 16:18:42.8       8    -30    -15     32     35 164.9 -31.6  34264  291.35 0854.47
2009/04/23 16:18:42.9     -17    -53    -21     56     59 198.7 -25.4  34248  291.06 0854.47
2009/04/23 16:18:43.0     -36    -95      0    102    103 200.9  -0.3  34236  290.86 0854.47
2009/04/23 16:18:43.1     -22   -109    -12    112    113 191.6  -6.2  34242  290.98 0854.47
2009/04/23 16:18:43.2     -21   -106    -32    109    114 191.5 -16.6  34246  291.03 0854.47
2009/04/23 16:18:43.3     -13   -111    -34    112    117 186.7 -21.8  34238  290.91 0854.47
2009/04/23 16:18:43.4       1    -75     90     76    117 179.1  55.4  34236  290.87 0854.48
2009/04/23 16:18:43.5       1    -57     53     58     78 178.2  47.9  34244  290.99 0854.48
2009/04/23 16:18:43.6      52    -11     65     54     84 102.4  56.4  34262  291.30 0854.48
2009/04/23 16:18:43.7      84    -30     18     90     92 109.5  11.6  34262  291.30 0854.48
2009/04/23 16:18:43.8      87      0     50     88    101  90.4  31.9  34276  291.54 0854.48
2009/04/23 16:18:43.9      99     12     48    100    110  83.0  27.3  34286  291.71 0854.48
2009/04/23 16:18:44.0      96     21     55     99    113  77.2  31.4  34278  291.59 0854.48
2009/04/23 16:18:44.1      84     27     68     89    112  71.8  41.7  34272  291.49 0854.48
2009/04/23 16:18:44.2      72     21     49     76     90  73.2  35.6  34270  291.45 0854.48
2009/04/23 16:18:44.3      35     25     38     44     58  54.0  45.8  34270  291.43 0854.48
2009/04/23 16:18:44.4      37     12     31     40     50  71.4  42.7  34260  291.26 0854.48
2009/04/23 16:18:44.5      44     13     37     46     59  73.2  43.7  34256  291.20 0854.48
2009/04/23 16:18:44.6      56      4     42     57     70  85.7  39.7  34248  291.06 0854.48
2009/04/23 16:18:44.7      65      5     57     66     87  85.6  45.8  34244  291.01 0854.48
2009/04/23 16:18:44.8      38     -6     44     39     58  99.7  53.3  34254  291.16 0854.48
2009/04/23 16:18:44.9       0     -3     41      4     41 189.7  90.0  34260  291.28 0854.48
2009/04/23 16:18:45.0      -4    -13     36     14     38 198.7  81.2  34268  291.40 0854.48
2009/04/23 16:18:45.1     -10      2     29     11     31 285.1  79.2  34280  291.60 0854.48
2009/04/23 16:18:45.2       8      6     35     11     36  50.5  80.7  34276  291.55 0854.48
2009/04/23 16:18:45.3      11     29     50     32     59  21.8  64.6  34266  291.38 0854.48
2009/04/23 16:18:45.4      84     27     64     89    109  71.8  39.5  34212  290.45 0854.47
2009/04/23 16:18:45.5     117     15     71    118    137  82.5  33.5  34216  290.53 0854.47
2009/04/23 16:18:45.6      52     28    120     60    134  61.2  71.4  34238  290.89 0854.47
2009/04/23 16:18:45.7      80      4     98     81    127  86.5  56.3  34248  291.08 0854.47
2009/04/23 16:18:45.8     110    -12     95    111    146  96.6  45.4  34238  290.89 0854.47
2009/04/23 16:18:45.9     123    -20    101    125    160  99.2  43.3  34222  290.62 0854.47
2009/04/23 16:18:46.0     102    -29    103    107    148 105.9  49.0  34240  290.92 0854.47
2009/04/23 16:18:46.1     124    -45    104    132    168 110.0  42.4  34236  290.86 0854.47
2009/04/23 16:18:46.2     155    -51     84    164    184 108.4  29.3  34248  291.08 0854.47
2009/04/23 16:18:46.3     120    -45     73    129    148 110.8  31.9  34256  291.21 0854.47
2009/04/23 16:18:46.4      93    -28     23     98    101 106.8  13.7  34266  291.38 0854.48
2009/04/23 16:18:46.5     101    -41     24    110    113 112.2  12.6  34264  291.35 0854.48
2009/04/23 16:18:46.6     111    -33     28    116    120 106.8  13.7  34254  291.16 0854.48
2009/04/23 16:18:46.7     117     -9      5    118    119  94.4   2.8  34250  291.09 0854.48
2009/04/23 16:18:46.8     105     50    -11    117    118  64.6  -5.6  34258  291.23 0854.48
2009/04/23 16:18:46.9      74     51    -25     91     95  55.4 -15.4  34260  291.26 0854.48
2009/04/23 16:18:47.0      68     56     21     89     92  50.5  13.2  34262  291.30 0854.48
2009/04/23 16:18:47.1     144     63     58    158    168  66.5  21.0  34260  291.28 0854.48
2009/04/23 16:18:47.2     187     48    106    194    221  75.4  31.3  34254  291.18 0854.48
2009/04/23 16:18:47.3     204     59     33    213    216  73.8   9.0  34260  291.28 0854.48
2009/04/23 16:18:47.4     182     71     59    196    205  68.7  16.8  34288  291.76 0854.48
2009/04/23 16:18:47.5     183     87     21    203    205  64.5   6.1  34272  291.49 0854.48
2009/04/23 16:18:47.6     179     94      0    203    204  62.2  -0.3  34278  291.57 0854.48
2009/04/23 16:18:47.7      77     67     40    103    110  48.7  22.5  34280  291.62 0854.48
2009/04/23 16:18:47.8      99     59     98    116    151  59.3  44.3  34296  291.89 0854.48
2009/04/23 16:18:47.9     159     64     79    172    189  68.0  26.6  34290  291.79 0854.48
2009/04/23 16:18:48.0     167     80    -23    186    188  64.2  -7.3  34266  291.38 0854.48
2009/04/23 16:18:48.1     119     98    -38    155    160  50.5 -13.9  34266  291.37 0854.48
2009/04/23 16:18:48.2      75    126    -57    147    157  30.8 -26.7  34268  291.40 0854.48
2009/04/23 16:18:48.3      33     79    -27     86     91  23.2 -17.6  34272  291.47 0854.48
2009/04/23 16:18:48.4     131     72     55    150    159  61.1  20.7  34256  291.20 0854.48
2009/04/23 16:18:48.5     171    142     17    223    224  50.2   4.4  34202  290.28 0854.48
2009/04/23 16:18:48.6     145     81     61    167    177  60.7  21.0  34202  290.28 0854.48
2009/04/23 16:18:48.7      61     36     74     71    102  59.3  51.2  34212  290.47 0854.48
2009/04/23 16:18:48.8      87     12     38     88     95  81.6  25.1  34220  290.60 0854.48
2009/04/23 16:18:48.9     105     13     -6    106    107  82.5  -3.7  34224  290.65 0854.48
2009/04/23 16:18:49.0      72     19    -42     75     85  75.0 -36.3  34242  290.96 0854.48
2009/04/23 16:18:49.1     100    -22    -32    103    109 102.4 -17.6  34252  291.13 0854.48
2009/04/23 16:18:49.2     134    -12    -12    135    136  95.2  -5.2  34260  291.28 0854.48
2009/04/23 16:18:49.3     165     -2     -3    166    167  90.8  -1.1  34260  291.28 0854.48
2009/04/23 16:18:49.4      88    -13    -35     90     96  98.8 -25.9  34260  291.26 0854.48
2009/04/23 16:18:49.5      51    -31    -41     60     72 121.5 -42.0  34264  291.33 0854.48
2009/04/23 16:18:49.6      25    -40    -32     48     57 147.4 -40.0  34268  291.40 0854.48
2009/04/23 16:18:49.7      48     -7    -27     49     55  98.8 -36.8  34272  291.47 0854.48
2009/04/23 16:18:49.8      16     16    -49     24     54  45.1 -77.3  34280  291.62 0854.48
2009/04/23 16:18:49.9      48     30    -26     57     62  57.6 -30.6  34274  291.50 0854.48
2009/04/23 16:18:50.0      45     14     -2     48     49  71.8  -3.1  34266  291.37 0854.48
2009/04/23 16:18:50.1      44     14      2     47     48  72.3   2.9  34262  291.30 0854.48
2009/04/23 16:18:50.2      56      3      5     57     58  86.5   5.9  34258  291.25 0854.48
2009/04/23 16:18:50.3      53    -25     -7     59     60 115.2  -7.2  34258  291.25 0854.48
2009/04/23 16:18:50.4      66    -26    -20     72     74 111.7 -20.7  34262  291.32 0854.48
2009/04/23 16:18:50.5      96    -24    -18     99    101 104.2 -10.3  34254  291.18 0854.48
2009/04/23 16:18:50.6      65    -13     18     67     70 101.5  15.3  34250  291.11 0854.48
2009/04/23 16:18:50.7      62     -7     23     63     67  97.0  20.0  34252  291.13 0854.48
2009/04/23 16:18:50.8      52    -17     10     55     57 108.6  11.0  34246  291.04 0854.48
2009/04/23 16:18:50.9      30    -26      9     40     42 131.3  13.2  34254  291.18 0854.48
2009/04/23 16:18:51.0      35    -35     17     50     54 134.9  19.4  34254  291.18 0854.48
2009/04/23 16:18:51.1      52    -52     32     74     80 134.9  25.1  34258  291.25 0854.48
2009/04/23 16:18:51.2      39    -51     38     65     75 142.2  33.5  34262  291.32 0854.48
2009/04/23 16:18:51.3      32    -68     33     76     82 154.5  24.6  34266  291.37 0854.48
2009/04/23 16:18:51.4      29    -78     29     84     90 159.5  19.2  34266  291.37 0854.48
2009/04/23 16:18:51.5      37    -44     25     58     63 140.4  24.1  34280  291.60 0854.48
2009/04/23 16:18:51.6       5    -51     40     52     65 173.8  41.7  34280  291.62 0854.48
2009/04/23 16:18:51.7       2    -67     43     68     80 178.2  35.5  34282  291.66 0854.48
2009/04/23 16:18:51.8      23    -45     65     51     82 152.8  57.5  34294  291.86 0854.48
2009/04/23 16:18:51.9      54    -17     67     57     87 107.7  55.4  34304  292.01 0854.48
2009/04/23 16:18:52.0      77     -5     78     78    110  94.4  50.1  34292  291.83 0854.48
2009/04/23 16:18:52.1      95      4     92     96    132  87.4  49.4  34290  291.77 0854.48
2009/04/23 16:18:52.2      82      5     70     83    108  86.1  44.3  34286  291.71 0854.48
2009/04/23 16:18:52.3     127    -40     59    134    146 107.7  25.1  34284  291.69 0854.48
2009/04/23 16:18:52.4     145    -49     65    154    167 108.6  24.3  34286  291.71 0854.48
2009/04/23 16:18:52.5     168    -46     80    175    192 105.5  26.4  34280  291.62 0854.48
2009/04/23 16:18:52.6     189    -26    121    191    226  97.9  35.5  34280  291.62 0854.48
2009/04/23 16:18:52.7     184      0    109    185    214  89.9  33.5  34278  291.59 0854.48
2009/04/23 16:18:52.8     170      0     99    171    197  90.0  32.9  34272  291.49 0854.48
2009/04/23 16:18:52.9     168     12     70    169    182  85.7  23.4  34270  291.45 0854.48
2009/04/23 16:18:53.0     162     34     60    166    176  77.8  20.7  34266  291.38 0854.48
2009/04/23 16:18:53.1     116     61     31    132    136  62.0  13.2  34260  291.28 0854.48
2009/04/23 16:18:53.2     161     21     65    163    175  82.3  23.0  34254  291.16 0854.48
2009/04/23 16:18:53.3     189      1    126    190    227  89.6  36.5  34248  291.06 0854.48
2009/04/23 16:18:53.4     198     40    131    202    240  78.5  36.0  34256  291.21 0854.48
2009/04/23 16:18:53.5     138     39    117    144    185  74.1  43.5  34280  291.60 0854.48
2009/04/23 16:18:53.6     131     46    129    139    189  70.5  47.9  34284  291.67 0854.48
2009/04/23 16:18:53.7     134     54    103    145    177  67.8  39.1  34246  291.03 0854.48
2009/04/23 16:18:53.8     112     33     72    117    137  73.6  35.0  34248  291.08 0854.48
2009/04/23 16:18:53.9     149     30     55    153    162  78.5  20.4  34280  291.62 0854.48
2009/04/23 16:18:54.0     153     28    106    156    188  79.4  37.6  34276  291.54 0854.48
2009/04/23 16:18:54.1     200     -9    151    201    251  92.6  40.7  34268  291.39 0854.48
2009/04/23 16:18:54.2     202     -6    131    203    241  91.7  35.7  34272  291.49 0854.48
2009/04/23 16:18:54.3     234     40    163    238    288  80.1  37.6  34268  291.39 0854.48
2009/04/23 16:18:54.4     192    114    144    224    266  59.4  35.6  34254  291.16 0854.48
2009/04/23 16:18:54.5     176    113    153    210    259  57.1  39.7  34262  291.29 0854.48
2009/04/23 16:18:54.6     182    158    120    242    270  49.1  28.2  34258  291.22 0854.48
2009/04/23 16:18:54.7     187    164     68    249    259  48.7  15.3  34252  291.14 0854.48
2009/04/23 16:18:54.8     147    145     72    207    220  45.3  19.2  34284  291.67 0854.48
2009/04/23 16:18:54.9     114    170     95    205    225  33.8  27.1  34292  291.81 0854.48
2009/04/23 16:18:55.0      78    121     92    145    171  33.0  35.5  34298  291.91 0854.48
2009/04/23 16:18:55.1     100     82     55    130    141  50.4  24.1  34278  291.59 0854.48
2009/04/23 16:18:55.2     112     58     -9    127    128  62.5  -4.1  34254  291.18 0854.48
2009/04/23 16:18:55.3     126     55     -9    138    139  66.5  -4.1  34252  291.15 0854.48
2009/04/23 16:18:55.4      83     76    -27    113    117  47.3 -13.4  34258  291.23 0854.48
2009/04/23 16:18:55.5      99     19     -2    101    102  79.0  -1.3  34264  291.33 0854.48
2009/04/23 16:18:55.6      77     15     -2     79     80  78.6  -1.8  34266  291.38 0854.48
2009/04/23 16:18:55.7      57     47    -12     75     77  50.4  -9.3  34264  291.33 0854.48
2009/04/23 16:18:55.8      37     58    -19     69     72  32.6 -15.5  34266  291.38 0854.48
2009/04/23 16:18:55.9      43     92    -28    102    106  24.9 -15.4  34290  291.77 0854.48
2009/04/23 16:18:56.0      58     67     -8     89     90  41.0  -5.2  34294  291.84 0854.48
2009/04/23 16:18:56.1      52     63     28     82     87  39.6  19.4  34308  292.10 0854.48
2009/04/23 16:18:56.2      61     39     14     73     75  57.5  11.1  34312  292.15 0854.48
2009/04/23 16:18:56.3      33      1    -14     34     36  87.4 -27.4  34298  291.93 0854.48
2009/04/23 16:18:56.4       5    -13    -45     15     47 158.2 -85.4  34296  291.88 0854.48
2009/04/23 16:18:56.5      28    -20    -50     35     61 126.0 -65.9  34302  292.00 0854.48
2009/04/23 16:18:56.6      48    -37    -66     61     89 127.8 -56.6  34294  291.86 0854.48
2009/04/23 16:18:56.7      66    -62    -45     91    101 133.1 -32.6  34292  291.83 0854.48
2009/04/23 16:18:56.8      92    -43    -13    102    103 115.4  -7.3  34290  291.77 0854.48
2009/04/23 16:18:56.9      82    -48    -12     96     97 120.2  -7.3  34296  291.89 0854.48
2009/04/23 16:18:57.0      77    -47     -8     91     92 121.1  -5.6  34310  292.12 0854.48
2009/04/23 16:18:57.1      79    -48      1     93     94 121.5   0.8  34308  292.08 0854.48
2009/04/23 16:18:57.2     102     -1    -22    103    106  90.8 -12.4  34306  292.06 0854.48
2009/04/23 16:18:57.3     126    -33    -36    131    136 104.6 -15.5  34252  291.15 0854.48
2009/04/23 16:18:57.4     103    -49    -17    115    117 115.8  -8.8  34260  291.26 0854.48
2009/04/23 16:18:57.5      98    -43    -38    108    115 114.0 -19.6  34238  290.89 0854.48
2009/04/23 16:18:57.6      76    -10     -9     77     78  97.9  -7.3  34224  290.67 0854.48
2009/04/23 16:18:57.7     108    -24     -8    111    112 102.8  -4.1  34236  290.86 0854.48
2009/04/23 16:18:57.8     144   -118    -21    187    189 129.3  -6.5  34246  291.03 0854.48
2009/04/23 16:18:57.9     160    -80     19    180    182 116.6   6.1  34246  291.04 0854.48
2009/04/23 16:18:58.0     147    -18     22    149    151  97.0   8.5  34188  290.04 0854.48
2009/04/23 16:18:58.1     152    -58     57    163    173 111.1  19.4  34242  290.96 0854.48
2009/04/23 16:18:58.3     134    -97     40    166    171 126.0  13.7  34298  291.93 0854.48
2009/04/23 16:18:58.4     149    -78     77    169    185 117.5  26.4  34318  292.25 0854.48
2009/04/23 16:18:58.4     124    -45     91    132    160 110.0  38.0  34302  292.00 0854.49
2009/04/23 16:18:58.6     146    -11     94    147    174  94.4  35.6  34222  290.62 0854.49
2009/04/23 16:18:58.7     159      6     90    160    183  87.5  31.9  34230  290.75 0854.49
2009/04/23 16:18:58.8     180      8     14    181    182  87.2   4.6  34200  290.25 0854.49
2009/04/23 16:18:58.9     126     42    -12    133    134  71.4  -5.2  34238  290.91 0854.49
2009/04/23 16:18:59.0     130     84    -54    155    164  57.1 -24.0  34254  291.18 0854.49
2009/04/23 16:18:59.1      98     17    -87    100    132  79.9 -50.2  34244  291.01 0854.49
2009/04/23 16:18:59.2      16   -102     50    104    115 171.1  27.3  34252  291.13 0854.49
2009/04/23 16:18:59.3      87    -67     86    111    140 127.8  41.7  34264  291.35 0854.49
2009/04/23 16:18:59.4      57    -67     37     89     96 139.5  23.6  34280  291.60 0854.49
2009/04/23 16:18:59.5      15    -87     53     89    103 170.2  34.0  34288  291.76 0854.49
2009/04/23 16:18:59.6      23    -88     43     91    100 165.3  27.2  34286  291.71 0854.49
2009/04/23 16:18:59.7      64    -64     23     91     94 135.0  14.3  34268  291.42 0854.49
2009/04/23 16:18:59.8      88    -64     44    109    117 126.0  23.0  34278  291.57 0854.49
2009/04/23 16:18:59.9      86    -98     43    131    139 138.6  18.4  34300  291.95 0854.49
2009/04/23 16:19:00.0      72    -91     69    117    135 141.7  33.5  34302  291.98 0854.49
2009/04/23 16:19:00.1      60    -80     79    101    128 143.0  42.2  34298  291.93 0854.49
2009/04/23 16:19:00.2      49    -91     80    104    131 151.9  41.7  34304  292.03 0854.49
2009/04/23 16:19:00.3      56    -62    102     84    132 137.7  56.3  34296  291.89 0854.49
2009/04/23 16:19:00.4      60    -46     79     76    109 127.8  51.2  34310  292.13 0854.49
2009/04/23 16:19:00.5      65    -14     68     67     95 102.4  49.1  34310  292.12 0854.49
2009/04/23 16:19:00.6      89      0     69     90    113  90.4  41.7  34320  292.29 0854.49
2009/04/23 16:19:00.7      81     -3     98     82    127  92.1  56.3  34308  292.10 0854.49
2009/04/23 16:19:00.8      57      0     72     58     92  89.2  56.4  34308  292.10 0854.49
2009/04/23 16:19:00.9      67      7     68     68     96  83.9  50.1  34302  292.00 0854.49
2009/04/23 16:19:01.0      45    -54     69     71     99 140.4  49.4  34320  292.29 0854.49
2009/04/23 16:19:01.1      68     19     50     71     86  74.1  38.6  34334  292.54 0854.49
2009/04/23 16:19:01.2     121      1    103    122    159  89.2  44.5  34368  293.12 0854.49
2009/04/23 16:19:01.3     118      4     89    119    148  87.9  40.7  34372  293.17 0854.49
2009/04/23 16:19:01.4     115      3     83    116    142  88.3  39.5  34350  292.80 0854.49
2009/04/23 16:19:01.5     112      8     59    113    127  85.6  29.3  34342  292.68 0854.49
2009/04/23 16:19:01.6      64     30     25     71     76  64.8  19.4  34350  292.81 0854.49
2009/04/23 16:19:01.7      59     49     -9     77     78  50.4  -7.3  34378  293.29 0854.49
2009/04/23 16:19:01.8      51     54     29     75     80  43.3  22.5  34352  292.83 0854.49
2009/04/23 16:19:01.9      85     80     70    118    137  46.8  33.5  34312  292.17 0854.49
2009/04/23 16:19:02.0     151     77     69    170    183  62.9  23.0  34290  291.77 0854.49
2009/04/23 16:19:02.1     160     70     72    175    189  66.3  23.4  34270  291.43 0854.49
2009/04/23 16:19:02.2     140     51     57    150    160  70.0  21.5  34256  291.20 0854.49
2009/04/23 16:19:02.3     238     73     64    250    259  72.9  14.5  34354  292.87 0854.49
2009/04/23 16:19:02.4     172     47    108    179    209  74.7  34.0  34334  292.54 0854.49
2009/04/23 16:19:02.5     136     77    128    157    202  60.2  43.7  34316  292.22 0854.48
2009/04/23 16:19:02.6     184     97    113    209    237  62.2  30.8  34270  291.43 0854.48
2009/04/23 16:19:02.7     211     98     82    233    248  64.9  19.4  34258  291.24 0854.48
2009/04/23 16:19:02.8     202    117     55    234    241  60.0  13.2  34264  291.34 0854.48
2009/04/23 16:19:02.9     192     89     16    212    213  64.9   4.6  34286  291.72 0854.48
2009/04/23 16:19:03.0     177    165     30    243    245  47.1   7.2  34276  291.55 0854.48
2009/04/23 16:19:03.1     234    111     32    260    263  64.6   7.2  34254  291.17 0854.48
2009/04/23 16:19:03.2     299    124     -4    324    325  67.4  -0.7  34304  292.01 0854.48
2009/04/23 16:19:03.3     265    118      4    291    292  66.0   0.8  34330  292.47 0854.48
2009/04/23 16:19:03.4     307    155     70    345    353  63.2  11.6  34328  292.41 0854.48
2009/04/23 16:19:03.5     356    135     88    381    392  69.2  13.1  34312  292.15 0854.48
2009/04/23 16:19:03.6     237    117    126    265    293  63.8  27.2  34322  292.33 0854.48
2009/04/23 16:19:03.7     288    104     23    307    308  70.1   4.4  34300  291.96 0854.48
2009/04/23 16:19:03.8     303     61     99    310    326  78.5  17.7  34256  291.21 0854.48
2009/04/23 16:19:03.9     210    -70     30    222    225 108.6   7.8  34260  291.26 0854.48
2009/04/23 16:19:04.0     178    -56    -36    187    191 107.7 -10.9  34254  291.16 0854.48
2009/04/23 16:19:04.1     222      0    -12    223    224  90.0  -3.3  34246  291.03 0854.48
2009/04/23 16:19:04.2     235     55     -1    242    243  76.8  -0.3  34222  290.63 0854.48
2009/04/23 16:19:04.3     191     14    -63    192    203  85.6 -18.3  34238  290.89 0854.48
2009/04/23 16:19:04.4     191     -7      9    192    193  92.1   2.8  34258  291.23 0854.48
2009/04/23 16:19:04.5     170      3     16    171    172  88.7   5.4  34280  291.62 0854.50
2009/04/23 16:19:04.6     125      0    -16    126    128  89.6  -7.3  34302  291.98 0854.50
2009/04/23 16:19:04.7      43   -175    -23    181    183 166.0  -7.3  34304  292.01 0854.50
2009/04/23 16:19:04.8      60   -102     30    119    123 149.3  14.3  34314  292.18 0854.50
2009/04/23 16:19:04.9      54    -49     41     73     83 132.2  32.4  34320  292.30 0854.50
2009/04/23 16:19:05.0      70      0     40     71     81  90.0  31.9  34298  291.93 0854.50
2009/04/23 16:19:05.1      18    -45    -11     49     51 158.2 -13.4  34302  292.00 0854.50
2009/04/23 16:19:05.2      51    -82    -46     97    107 147.9 -31.5  34304  292.03 0854.50
2009/04/23 16:19:05.3      51    -78    -26     94     97 146.6 -20.7  34306  292.05 0854.50
2009/04/23 16:19:05.4      58   -133    -35    146    151 156.4 -13.4  34328  292.42 0854.50
2009/04/23 16:19:05.5      82    -94    -15    125    126 139.0  -7.2  34336  292.58 0854.50
2009/04/23 16:19:05.6      73    -77    -40    107    114 136.7 -24.8  34338  292.61 0854.50
2009/04/23 16:19:05.7     137    -41    -46    144    151 106.8 -23.8  34272  291.47 0854.50
2009/04/23 16:19:05.8     185     30      0    188    189  80.8   0.0  34368  293.10 0854.50
2009/04/23 16:19:05.9     187     37      8    191    192  78.8   2.5  34346  292.73 0854.50
2009/04/23 16:19:06.0     205     43    -42    210    215  78.1 -11.5  34250  291.11 0854.50
2009/04/23 16:19:06.1     197     56    -32    205    208  74.1  -9.0  34222  290.62 0854.50
2009/04/23 16:19:06.2     173     57      2    183    184  71.6   0.8  34210  290.43 0854.50
2009/04/23 16:19:06.3     176     59     32    186    189  71.2   9.9  34246  291.04 0854.50
2009/04/23 16:19:06.4     204     66     46    215    220  72.1  12.2  34260  291.26 0854.50
2009/04/23 16:19:06.5     166     48     60    173    184  73.8  19.2  34274  291.50 0854.50
2009/04/23 16:19:06.6     195     59     85    204    221  73.1  23.6  34290  291.77 0854.50
2009/04/23 16:19:06.7     136     64     53    151    161  64.6  19.4  34298  291.91 0854.50
2009/04/23 16:19:06.8     152     36    184    157    241  76.7  55.3  34304  292.01 0854.50
2009/04/23 16:19:06.9     153     66     98    167    193  66.7  33.5  34220  290.60 0854.50
2009/04/23 16:19:07.0     144     63    101    158    187  66.4  35.6  34232  290.81 0854.50
2009/04/23 16:19:07.1     107     18    135    109    173  80.3  56.9  34322  292.32 0854.50
2009/04/23 16:19:07.2      70      5    107     71    128  85.7  63.6  34348  292.78 0854.50
2009/04/23 16:19:07.3       4      0     91      5     91 101.5  90.0  34372  293.17 0854.50
2009/04/23 16:19:07.4     -17    -29     92     34     98 210.7  78.6  34358  292.93 0854.47
2009/04/23 16:19:07.5     -16     22     93     28     97 323.9  82.3  34338  292.61 0854.47
2009/04/23 16:19:07.6     -13     21     70     25     74 327.5  81.2  34310  292.13 0854.47
2009/04/23 16:19:07.7     -10     31     42     33     53 341.3  56.4  34280  291.60 0854.47
2009/04/23 16:19:07.8     -50     -3      9     51     52 265.7  11.0  34302  292.00 0854.47
2009/04/23 16:19:07.9     -40    -37     34     55     64 226.9  35.5  34324  292.37 0854.47
2009/04/23 16:19:08.0     -33    -98     45    104    113 198.7  24.6  34250  291.11 0854.47
2009/04/23 16:19:08.1     -26   -128     35    131    136 191.5  15.2  34238  290.89 0854.47
2009/04/23 16:19:08.2     -29   -122     23    126    129 193.4  10.6  34234  290.84 0854.47
2009/04/23 16:19:08.3     -29   -113     23    117    120 194.7  11.1  34230  290.77 0854.47
2009/04/23 16:19:08.4     -22   -109     22    112    115 191.6  11.1  34230  290.77 0854.47
2009/04/23 16:19:08.5     -15   -116     17    118    120 187.6   8.5  34230  290.77 0854.47
2009/04/23 16:19:08.6      37   -145    -10    150    151 165.7  -4.1  34252  291.13 0854.47
2009/04/23 16:19:08.7      49   -136    -18    145    147 160.0  -7.3  34246  291.04 0854.47
2009/04/23 16:19:08.8      46   -133    -21    141    143 160.8  -8.8  34250  291.09 0854.47
2009/04/23 16:19:08.9      59   -124     -9    138    139 154.6  -4.1  34262  291.30 0854.47
2009/04/23 16:19:09.0      41   -137    -40    144    150 163.1 -15.5  34240  290.94 0854.47
2009/04/23 16:19:09.1      19   -105    -37    107    113 169.3 -23.3  34226  290.69 0854.47
2009/04/23 16:19:09.2      29   -111    -32    115    120 165.3 -15.5  34234  290.84 0854.47
2009/04/23 16:19:09.3      50   -113     -2    124    125 155.9  -1.3  34236  290.87 0854.47
2009/04/23 16:19:09.4      23   -114     36    117    123 168.4  17.3  34232  290.81 0854.44
2009/04/23 16:19:09.5      46   -103     39    113    120 155.9  19.4  34238  290.89 0854.44
2009/04/23 16:19:09.6      67   -112      0    131    132 149.2  -0.3  34226  290.70 0854.44
2009/04/23 16:19:09.7      56   -119    -31    132    136 154.7 -13.4  34222  290.62 0854.44
2009/04/23 16:19:09.8      51   -152     -3    161    162 161.3  -1.3  34222  290.64 0854.44
2009/04/23 16:19:09.9      42   -172     -5    178    179 166.2  -1.6  34226  290.69 0854.44
2009/04/23 16:19:10.0      52   -168     29    176    179 162.8   9.5  34224  290.67 0854.44
2009/04/23 16:19:10.1      15   -152     19    153    155 174.2   7.1  34230  290.77 0854.44
2009/04/23 16:19:10.2       0   -190     70    191    203 180.0  20.9  34254  291.18 0854.44
2009/04/23 16:19:10.3      30   -202     78    205    219 171.5  21.7  34256  291.21 0854.44
2009/04/23 16:19:10.4      44   -179     86    185    204 166.2  26.6  34252  291.13 0854.44
2009/04/23 16:19:10.5      33   -166     95    170    194 168.7  31.6  34254  291.18 0854.44
2009/04/23 16:19:10.6      50   -148    108    157    190 161.3  37.8  34260  291.28 0854.44
2009/04/23 16:19:10.7      72   -131     32    150    154 151.1  12.2  34236  290.87 0854.44
2009/04/23 16:19:10.8      48   -148     56    156    165 161.7  20.2  34234  290.84 0854.44
2009/04/23 16:19:10.9      31   -180     68    183    195 170.2  20.7  34246  291.03 0854.44
2009/04/23 16:19:11.0      19   -155     72    157    172 172.9  26.4  34244  290.99 0854.44
2009/04/23 16:19:11.1       6   -122     89    123    151 176.9  39.7  34244  290.99 0854.44
2009/04/23 16:19:11.2      -8   -125     73    126    145 184.0  32.9  34252  291.13 0854.44
2009/04/23 16:19:11.3     -23   -137     65    140    154 189.8  27.1  34246  291.04 0854.44
2009/04/23 16:19:11.4     -24   -161     50    163    171 188.5  17.1  34222  290.64 0854.43
2009/04/23 16:19:11.5       5   -135     57    136    147 177.8  23.6  34214  290.48 0854.43
2009/04/23 16:19:11.6      11   -143     81    144    165 175.5  31.9  34208  290.38 0854.43
2009/04/23 16:19:11.7       0   -154     77    155    173 180.4  28.5  34210  290.41 0854.43
2009/04/23 16:19:11.8       0   -131     47    132    140 180.4  20.0  34214  290.48 0854.43
2009/04/23 16:19:11.9       5   -124     24    125    128 177.3  11.1  34212  290.47 0854.43
2009/04/23 16:19:12.0      16    -91     14     93     95 169.8   9.0  34208  290.40 0854.43
2009/04/23 16:19:12.1      24    -72     35     77     84 161.3  26.2  34210  290.43 0854.43
2009/04/23 16:19:12.2      16    -72     32     74     80 167.5  25.1  34206  290.36 0854.43
2009/04/23 16:19:12.3      37    -87     42     95    103 156.8  25.1  34198  290.23 0854.43
2009/04/23 16:19:12.4      55   -113     47    126    134 154.1  20.9  34202  290.28 0854.43
2009/04/23 16:19:12.5      17   -122     38    124    130 171.9  17.3  34202  290.30 0854.43
2009/04/23 16:19:12.6     -24   -127     63    130    144 190.7  27.3  34206  290.35 0854.43
2009/04/23 16:19:12.7     -30   -118     59    122    135 194.3  27.3  34210  290.41 0854.43
2009/04/23 16:19:12.8     -13   -112     60    113    127 187.1  29.8  34208  290.40 0854.43
2009/04/23 16:19:12.9      -9   -117     23    118    121 184.4  11.0  34206  290.35 0854.43
2009/04/23 16:19:13.0      -2   -106     17    107    109 181.4   9.0  34208  290.40 0854.43
2009/04/23 16:19:13.1     -12    -81     -3     83     84 188.9  -2.2  34208  290.38 0854.43
2009/04/23 16:19:13.2       0    -78     -3     79     80 180.0  -2.2  34202  290.30 0854.43
2009/04/23 16:19:13.3      -3    -93     -8     94     95 182.2  -5.2  34206  290.36 0854.43
2009/04/23 16:19:13.4       7    -98     19     99    101 175.6  11.1  34208  290.40 0854.44
2009/04/23 16:19:13.5      -4   -125     28    126    130 182.2  12.6  34212  290.47 0854.44
2009/04/23 16:19:13.6     -23   -115     30    118    122 191.6  14.7  34214  290.48 0854.44
2009/04/23 16:19:13.7      -8   -116     31    117    122 184.4  15.2  34216  290.53 0854.44
2009/04/23 16:19:13.8      41   -105     10    113    114 158.6   5.4  34222  290.64 0854.44
2009/04/23 16:19:13.9      11   -100      0    101    102 173.3   0.2  34228  290.72 0854.44
2009/04/23 16:19:14.0       6    -77    -23     78     82 175.1 -16.6  34228  290.72 0854.44
2009/04/23 16:19:14.1       8    -87    -25     88     91 174.2 -20.7  34230  290.77 0854.44
2009/04/23 16:19:14.2      13   -105    -23    106    109 172.9 -12.4  34238  290.89 0854.44
2009/04/23 16:19:14.3       7   -103    -17    104    106 175.6  -9.3  34230  290.77 0854.44
2009/04/23 16:19:14.4      21    -91    -20     94     97 166.6 -12.4  34240  290.92 0854.44
2009/04/23 16:19:14.5      37    -92    -24    100    104 158.1 -13.9  34252  291.13 0854.44
2009/04/23 16:19:14.6      73    -76     -2    106    107 135.9  -1.3  34254  291.16 0854.44
2009/04/23 16:19:14.7      58    -58     -2     83     84 135.0  -1.8  34250  291.11 0854.44
2009/04/23 16:19:14.8      48    -55     -9     74     75 138.6  -7.3  34256  291.20 0854.44
2009/04/23 16:19:14.9      28    -47     -2     55     56 149.3  -2.2  34252  291.13 0854.44
2009/04/23 16:19:15.0      11    -54     -2     56     57 168.4  -2.2  34254  291.18 0854.44
2009/04/23 16:19:15.1       9    -57      0     58     59 170.2   0.8  34250  291.09 0854.44
2009/04/23 16:19:15.2       9    -57     11     58     60 170.2  11.1  34252  291.15 0854.44
2009/04/23 16:19:15.3      23    -59     24     64     68 158.1  20.0  34266  291.37 0854.44
2009/04/23 16:19:15.4      35    -66     28     75     80 151.9  21.0  34260  291.26 0854.43
2009/04/23 16:19:15.5      22    -72     35     76     83 163.1  26.2  34224  290.67 0854.43
2009/04/23 16:19:15.6       8    -87     31     88     94 174.7  19.4  34208  290.40 0854.43
2009/04/23 16:19:15.7      20   -103     36    106    113 168.9  18.9  34208  290.40 0854.43
2009/04/23 16:19:15.8       6   -129     25    130    133 177.3  11.1  34220  290.58 0854.43
2009/04/23 16:19:15.9       9   -117     30    118    122 175.6  14.3  34218  290.55 0854.43
2009/04/23 16:19:16.0       3   -101    -21    102    105 178.2 -11.9  34216  290.52 0854.43
2009/04/23 16:19:16.1     -12   -115     -1    116    117 186.2  -0.7  34206  290.36 0854.43
2009/04/23 16:19:16.2      -2   -116     18    117    119 181.4   8.9  34206  290.36 0854.43
2009/04/23 16:19:16.3     -15    -91     37     93    100 189.8  23.0  34202  290.28 0854.43
2009/04/23 16:19:16.4      -5   -126     39    127    133 182.6  17.3  34200  290.25 0854.43
2009/04/23 16:19:16.5     -33   -102     59    108    123 198.3  31.3  34202  290.28 0854.43
2009/04/23 16:19:16.6     -29    -90     70     95    118 198.3  40.1  34210  290.41 0854.43
2009/04/23 16:19:16.7      27    -64     61     70     92 157.3  45.8  34212  290.45 0854.43
2009/04/23 16:19:16.8      49    -96     47    109    118 152.8  25.1  34206  290.35 0854.43
2009/04/23 16:19:16.9      21    -98     35    101    108 167.5  19.4  34204  290.33 0854.43
2009/04/23 16:19:17.0      19    -95      6     98     99 168.4   3.8  34208  290.38 0854.43
2009/04/23 16:19:17.1      12    -86     22     87     90 172.0  14.3  34206  290.35 0854.43
2009/04/23 16:19:17.2      -3    -72     30     73     78 182.7  23.0  34206  290.36 0854.43
2009/04/23 16:19:17.3     -15    -68     43     70     82 192.5  34.4  34202  290.30 0854.43
2009/04/23 16:19:17.4     -34    -72     42     80     90 205.3  29.8  34202  290.28 0854.42
2009/04/23 16:19:17.5     -37    -69     39     79     88 208.1  28.2  34212  290.47 0854.42
2009/04/23 16:19:17.6     -41    -63     33     76     82 213.4  24.6  34218  290.57 0854.42
2009/04/23 16:19:17.7     -35    -63     47     73     86 209.0  35.6  34204  290.31 0854.42
2009/04/23 16:19:17.8     -43    -69     39     82     90 212.1  27.2  34200  290.25 0854.42
2009/04/23 16:19:17.9     -51    -67     26     85     90 217.0  17.3  34196  290.18 0854.42
2009/04/23 16:19:18.0     -45    -55     14     72     74 219.6  11.1  34194  290.14 0854.42
2009/04/23 16:19:18.1     -66    -43     20     79     82 236.7  14.7  34200  290.25 0854.42
2009/04/23 16:19:18.2     -56    -42     22     70     74 233.1  17.3  34204  290.33 0854.42
2009/04/23 16:19:18.3     -36    -32     38     49     62 228.7  41.7  34208  290.40 0854.42
2009/04/23 16:19:18.4     -38    -27     39     47     61 234.0  43.8  34218  290.55 0854.42
2009/04/23 16:19:18.5     -17     -4     29     18     34 254.9  64.7  34236  290.86 0854.42
2009/04/23 16:19:18.6     -22     27     28     36     45 320.4  41.7  34226  290.70 0854.42
2009/04/23 16:19:18.7       8     26     25     28     37  18.7  47.9  34220  290.60 0854.42
2009/04/23 16:19:18.8      21     25     20     33     38  39.6  35.5  34222  290.62 0854.42
2009/04/23 16:19:18.9      22     13     23     26     34  59.3  47.9  34220  290.60 0854.42
2009/04/23 16:19:19.0      23     19     24     31     39  50.5  43.7  34218  290.57 0854.42
2009/04/23 16:19:19.1      29    -15     20     33     38 117.1  35.5  34234  290.82 0854.42
2009/04/23 16:19:19.2      10    -18     32     21     38 151.0  64.6  34230  290.75 0854.42
2009/04/23 16:19:19.3      12    -14     26     19     32 140.4  60.5  34214  290.48 0854.42
2009/04/23 16:19:19.4       6    -18     20     19     27 161.5  48.2  34214  290.50 0854.43
2009/04/23 16:19:19.5       7    -23     16     25     29 161.5  35.5  34208  290.40 0854.43
2009/04/23 16:19:19.6      14    -28     15     32     35 152.8  27.2  34204  290.33 0854.43
2009/04/23 16:19:19.7      15    -34      9     38     40 156.4  13.2  34198  290.21 0854.43
2009/04/23 16:19:19.8      26    -45     -2     53     54 150.1  -2.2  34198  290.21 0854.43
2009/04/23 16:19:19.9      30    -48     11     57     59 147.4  11.0  34192  290.13 0854.43
2009/04/23 16:19:20.0      29    -42      0     52     53 145.7  -0.3  34192  290.13 0854.43
2009/04/23 16:19:20.1      20    -28      0     35     36 143.9  -1.3  34196  290.19 0854.43
2009/04/23 16:19:20.2      10    -34     -3     36     37 163.1  -5.2  34196  290.18 0854.43
2009/04/23 16:19:20.3       4    -31      5     32     33 172.0   9.0  34194  290.14 0854.43
2009/04/23 16:19:20.4       0    -32      6     33     34 180.9  11.1  34192  290.11 0854.43
2009/04/23 16:19:20.5       3    -45     11     46     48 175.5  14.3  34192  290.13 0854.43
2009/04/23 16:19:20.6       5    -67     26     68     72 175.5  22.0  34194  290.14 0854.43
2009/04/23 16:19:20.7      13    -79     33     81     87 170.2  23.0  34192  290.13 0854.43
2009/04/23 16:19:20.8       6    -77      5     78     79 175.5   3.8  34192  290.11 0854.43
2009/04/23 16:19:20.9       8    -70     -1     71     72 172.9  -1.2  34194  290.14 0854.43
2009/04/23 16:19:21.0      10    -82      1     83     84 172.4   1.2  34192  290.11 0854.43
2009/04/23 16:19:21.1      10    -82    -11     83     84 172.4  -7.7  34194  290.16 0854.43
2009/04/23 16:19:21.2       0    -80     -3     81     82 180.0  -2.2  34194  290.16 0854.43
2009/04/23 16:19:21.3       0    -82     -2     83     84 180.0  -1.8  34198  290.23 0854.43
2009/04/23 16:19:21.4       0    -81     -2     82     83 179.5  -1.8  34196  290.19 0854.48
2009/04/23 16:19:21.5      43    -82     -2     93     94 152.4  -1.8  34192  290.13 0854.48
2009/04/23 16:19:21.6      51    -69     -7     87     88 143.5  -5.2  34194  290.14 0854.48
2009/04/23 16:19:21.7      48    -50     -1     70     71 135.8  -1.3  34196  290.18 0854.48
2009/04/23 16:19:21.8      60    -55      0     82     83 132.7   0.2  34194  290.14 0854.48
2009/04/23 16:19:21.9      69    -55     -3     89     90 128.6  -2.2  34196  290.19 0854.48
2009/04/23 16:19:22.0      57    -66     -2     88     89 139.0  -1.8  34192  290.13 0854.48
2009/04/23 16:19:22.1      63    -59    -11     87     88 133.6  -7.2  34192  290.13 0854.48
2009/04/23 16:19:22.2      62    -61    -11     88     89 134.6  -7.3  34190  290.09 0854.48
2009/04/23 16:19:22.3      57    -49     -4     76     77 130.4  -3.2  34192  290.11 0854.48
2009/04/23 16:19:22.4      65    -56     -7     87     88 130.9  -5.2  34190  290.09 0854.48
2009/04/23 16:19:22.5      56    -62    -10     84     85 138.1  -7.3  34190  290.08 0854.48
2009/04/23 16:19:22.6      67    -66     -6     95     96 134.6  -3.7  34184  289.97 0854.48
2009/04/23 16:19:22.7      50    -70    -15     87     89 144.4  -9.8  34190  290.08 0854.48
2009/04/23 16:19:22.8      51    -54     -1     75     76 136.8  -1.3  34186  290.02 0854.48
2009/04/23 16:19:22.9      52    -55     27     76     80 136.8  20.0  34188  290.06 0854.48
2009/04/23 16:19:23.0      24    -75     42     79     89 161.7  30.3  34216  290.52 0854.48
2009/04/23 16:19:23.1       8    -98     35     99    106 175.1  19.4  34208  290.38 0854.48
2009/04/23 16:19:23.2      12   -123     38    124    130 174.2  17.3  34294  291.86 0854.48
2009/04/23 16:19:23.3      -9   -115     42    116    123 184.5  20.9  34304  292.03 0854.48
2009/04/23 16:19:23.4     -27   -100     18    104    106 195.6  10.1  34278  291.59 0854.51
2009/04/23 16:19:23.5      14    -71     60     73     94 168.4  43.7  34328  292.42 0854.51
2009/04/23 16:19:23.6     -24    -87     79     91    120 195.6  45.8  34340  292.63 0854.51
2009/04/23 16:19:23.7     -24    -97     72    101    124 194.3  39.1  34334  292.54 0854.51
2009/04/23 16:19:23.8     -16   -106     51    108    119 188.9  27.2  34324  292.35 0854.51
2009/04/23 16:19:23.9     -11    -89     74     90    116 187.1  43.7  34308  292.10 0854.51
2009/04/23 16:19:24.0     -38   -124     35    130    135 197.4  15.3  34282  291.66 0854.51
2009/04/23 16:19:24.1       0   -126     25    127    130 180.4  11.1  34274  291.52 0854.51
2009/04/23 16:19:24.2     -13   -115     -1    116    117 186.7  -0.7  34274  291.50 0854.51
2009/04/23 16:19:24.3     -10   -131      6    132    133 184.5   2.9  34262  291.30 0854.51
2009/04/23 16:19:24.4     -12   -139     19    140    142 185.3   8.0  34244  291.01 0854.51
2009/04/23 16:19:24.5       4   -134     29    135    139 178.2  12.2  34248  291.08 0854.51
2009/04/23 16:19:24.6      -3   -135     61    136    149 181.4  25.7  34242  290.96 0854.51
2009/04/23 16:19:24.8     -14   -132     52    133    142 186.2  22.5  34242  290.98 0854.51
2009/04/23 16:19:24.9      -9   -115     49    116    125 184.5  24.1  34232  290.81 0854.51
2009/04/23 16:19:24.9     -31   -131     53    135    145 193.4  23.0  34286  291.72 0854.51
2009/04/23 16:19:25.1     -77   -122     -1    145    146 212.5  -0.7  34332  292.51 0854.51
2009/04/23 16:19:25.2    -124   -123     -9    175    176 225.2  -3.1  34330  292.46 0854.51
2009/04/23 16:19:25.3     -92    -96     -1    134    135 223.7  -0.7  34330  292.47 0854.51
2009/04/23 16:19:25.4     -72    -98     10    122    123 216.5   4.9  34308  292.08 0854.51
2009/04/23 16:19:25.5     -50    -95    -20    108    110 208.1 -10.9  34266  291.37 0854.51
2009/04/23 16:19:25.6       2   -108     -6    109    110 178.6  -3.2  34298  291.91 0854.51
2009/04/23 16:19:25.7     -10   -123     12    124    125 184.9   5.9  34302  291.98 0854.51
2009/04/23 16:19:25.8       6   -107     19    108    110 176.4  10.1  34302  291.98 0854.51
2009/04/23 16:19:25.9       4   -101     26    102    106 177.3  14.3  34296  291.89 0854.51
2009/04/23 16:19:26.0       2   -108     31    109    114 178.6  15.8  34238  290.91 0854.51
2009/04/23 16:19:26.1      17   -121     23    123    126 171.9  10.6  34228  290.72 0854.51
2009/04/23 16:19:26.2      38   -131     37    137    143 163.5  15.2  34226  290.69 0854.51
2009/04/23 16:19:26.3      38   -123     37    129    135 162.6  16.3  34224  290.65 0854.51
2009/04/23 16:19:26.4      51   -116     13    127    128 156.3   5.9  34224  290.65 0854.51
2009/04/23 16:19:26.5      52    -98    -14    112    113 151.9  -7.2  34226  290.70 0854.51
2009/04/23 16:19:26.6      51    -97     -7    110    111 152.4  -3.7  34236  290.86 0854.51
2009/04/23 16:19:26.7      44    -76     -5     89     90 149.7  -3.7  34228  290.74 0854.51
2009/04/23 16:19:26.8      64    -66    -18     93     95 135.9 -11.3  34226  290.69 0854.51
2009/04/23 16:19:26.9      60    -72    -34     94     99 140.3 -24.8  34240  290.94 0854.51
2009/04/23 16:19:27.0      43    -52     -2     68     69 140.4  -2.2  34232  290.81 0854.51
2009/04/23 16:19:27.1      34    -45    -14     57     59 142.2 -14.5  34228  290.72 0854.51
2009/04/23 16:19:27.2      28    -35    -24     46     51 141.3 -33.7  34240  290.94 0854.51
2009/04/23 16:19:27.3      38    -30    -24     49     54 128.6 -31.6  34234  290.82 0854.51
2009/04/23 16:19:27.4      42    -18    -23     46     51 113.5 -31.7  34234  290.84 0854.51
2009/04/23 16:19:27.5      65    -30    -21     72     75 115.3 -21.7  34228  290.74 0854.49
2009/04/23 16:19:27.6      48    -25    -19     55     58 117.1 -23.3  34236  290.86 0854.49
2009/04/23 16:19:27.7      54    -15    -17     57     60 105.9 -16.6  34236  290.86 0854.49
2009/04/23 16:19:27.8      24    -23    -12     34     37 133.3 -19.7  34242  290.98 0854.49
2009/04/23 16:19:27.9      10    -31     -1     33     34 161.5  -2.2  34240  290.94 0854.49
2009/04/23 16:19:28.0     -16    -26    -16     31     34 212.5 -33.7  34252  291.13 0854.49
2009/04/23 16:19:28.1     -72    -85     10    112    113 220.5   5.4  34244  291.01 0854.49
2009/04/23 16:19:28.2     -88    -86     37    124    130 225.6  16.8  34230  290.77 0854.49
2009/04/23 16:19:28.3     -83   -145     79    168    185 209.9  27.1  34224  290.65 0854.49
2009/04/23 16:19:28.4     -95   -149     59    177    187 212.5  18.6  34246  291.03 0854.49
2009/04/23 16:19:28.5     -90   -123     26    153    156 216.1   9.9  34242  290.98 0854.48
2009/04/23 16:19:28.6     -69   -110     63    130    144 212.1  27.3  34206  290.36 0854.48
2009/04/23 16:19:28.7     -28    -96    109    101    148 196.5  52.2  34226  290.69 0854.48
2009/04/23 16:19:28.8     -51   -153    104    162    192 198.7  35.6  34252  291.15 0854.48
2009/04/23 16:19:28.9     -56   -176     68    185    197 197.8  21.0  34220  290.58 0854.48
2009/04/23 16:19:29.0     -72   -190     79    204    218 200.9  22.3  34216  290.52 0854.48
2009/04/23 16:19:29.1    -112   -227     55    254    261 206.3  12.4  34218  290.56 0854.48
2009/04/23 16:19:29.2    -100   -245     24    265    267 202.3   5.2  34218  290.56 0854.48
2009/04/23 16:19:29.3     -80   -250     22    263    265 197.8   4.9  34228  290.73 0854.48
2009/04/23 16:19:29.4    -130   -246    -10    279    280 207.9  -2.2  34234  290.82 0854.48
2009/04/23 16:19:29.5    -169   -191     -4    256    257 221.5  -1.1  34258  291.22 0854.48
2009/04/23 16:19:29.6    -151   -191     -5    244    245 218.3  -1.3  34242  290.97 0854.48
2009/04/23 16:19:29.7    -150   -164    -25    223    225 222.5  -6.5  34242  290.96 0854.48
2009/04/23 16:19:29.8    -158   -159     -4    225    226 224.9  -1.2  34254  291.16 0854.48
2009/04/23 16:19:29.9    -148   -159     -6    218    219 222.8  -1.8  34240  290.94 0854.48
2009/04/23 16:19:30.0    -141   -168    -37    220    224 219.9  -9.6  34222  290.64 0854.48
2009/04/23 16:19:30.1     -97   -204     43    226    231 205.5  10.8  34236  290.86 0854.48
2009/04/23 16:19:30.2    -113   -183     22    216    218 211.6   5.9  34238  290.89 0854.48
2009/04/23 16:19:30.3     -98   -189     33    213    216 207.4   9.0  34246  291.04 0854.48
2009/04/23 16:19:30.4    -115   -155     54    194    202 216.5  15.8  34242  290.96 0854.48
2009/04/23 16:19:30.5     -97   -160    104    188    214 211.2  31.4  34266  291.37 0854.48
2009/04/23 16:19:30.6    -109   -161     79    195    210 214.3  23.1  34244  291.01 0854.48
2009/04/23 16:19:30.7     -48   -182     69    189    201 194.9  21.0  34246  291.03 0854.48
2009/04/23 16:19:30.8     -50   -142    111    151    187 199.6  39.9  34268  291.42 0854.48
2009/04/23 16:19:30.9     -45   -161    148    168    223 195.8  45.9  34280  291.60 0854.48
2009/04/23 16:19:31.0     -45   -180    114    186    218 194.3  34.4  34280  291.62 0854.48
2009/04/23 16:19:31.1     -21   -128    149    130    197 189.7  54.3  34282  291.66 0854.48
2009/04/23 16:19:31.2     -11   -145    172    146    225 184.5  55.6  34254  291.18 0854.48
2009/04/23 16:19:31.3       2   -130    170    131    214 179.0  58.5  34228  290.72 0854.48
2009/04/23 16:19:31.4       4    -60    116     61    131 175.5  70.8  34238  290.89 0854.48
2009/04/23 16:19:31.5      40   -160    101    166    194 165.7  34.8  34210  290.43 0854.48
2009/04/23 16:19:31.6      85   -141     88    165    187 148.8  30.3  34216  290.52 0854.48
2009/04/23 16:19:31.7      53   -164     70    173    186 162.0  23.1  34212  290.45 0854.48
2009/04/23 16:19:31.8      27   -192     82    194    210 171.9  24.3  34278  291.59 0854.48
2009/04/23 16:19:31.9     -77   -172     68    189    200 204.1  20.4  34232  290.81 0854.48
2009/04/23 16:19:32.0    -103   -138     71    173    187 216.7  23.6  34228  290.74 0854.48
2009/04/23 16:19:32.1     -82   -129     44    154    161 212.6  16.0  34224  290.65 0854.48
2009/04/23 16:19:32.2     -75   -118     27    140    143 212.5  11.1  34224  290.65 0854.48
2009/04/23 16:19:32.3       5    -72     40     73     83 175.5  30.8  34238  290.89 0854.48
2009/04/23 16:19:32.4      42    -50     59     66     88 139.5  46.9  34264  291.35 0854.48
2009/04/23 16:19:32.5       8    -26     65     28     70 161.7  75.0  34258  291.25 0854.48
2009/04/23 16:19:32.6      -1    -53     66     54     85 181.8  56.4  34252  291.13 0854.48
2009/04/23 16:19:32.7     -22    -68     68     72     99 198.3  48.5  34238  290.89 0854.48
2009/04/23 16:19:32.8      -7    -85     57     86    103 185.3  36.5  34238  290.91 0854.48
2009/04/23 16:19:32.9      47      0     60     48     76  90.8  56.4  34276  291.55 0854.48
2009/04/23 16:19:33.0      79    -27    100     84    130 109.1  56.3  34278  291.57 0854.48
2009/04/23 16:19:33.1      80     16    114     82    140  78.1  60.6  34280  291.62 0854.48
2009/04/23 16:19:33.2      88      6    133     89    160  85.6  63.2  34258  291.23 0854.48
2009/04/23 16:19:33.3      12    -11    107     17    108 133.3  90.0  34256  291.21 0854.48
2009/04/23 16:19:33.4      15     24    118     29    121  32.5  86.9  34272  291.47 0854.48
2009/04/23 16:19:33.5      49     -8    117     50    127  99.7  75.5  34246  291.03 0854.48
2009/04/23 16:19:33.6      51      2    101     52    113  87.4  71.4  34218  290.57 0854.48
2009/04/23 16:19:33.7      -9    -28    105     30    109 198.7  83.9  34246  291.03 0854.48
2009/04/23 16:19:33.8      29    -43     73     53     90 145.7  60.5  34228  290.72 0854.48
2009/04/23 16:19:33.9      32     -6     73     33     80 101.4  74.0  34234  290.84 0854.48
2009/04/23 16:19:34.0      28      0     83     29     87  90.0  80.7  34246  291.03 0854.48
2009/04/23 16:19:34.1      19     26     93     33     98  36.1  80.2  34250  291.11 0854.48
2009/04/23 16:19:34.2     -23    -23    125     33    129 225.0  84.9  34266  291.37 0854.48
2009/04/23 16:19:34.3     -16     18     86     25     89 318.6  83.3  34274  291.50 0854.48
2009/04/23 16:19:34.4       0     -7     75      8     75 182.7  90.0  34270  291.43 0854.47
2009/04/23 16:19:34.5      15    -58     63     61     87 164.9  50.1  34246  291.03 0854.47
2009/04/23 16:19:34.6       5    -75     74     76    106 175.6  50.0  34248  291.08 0854.47
2009/04/23 16:19:34.7      36    -34     43     50     65 133.1  44.8  34272  291.47 0854.47
2009/04/23 16:19:34.8       5    -82     40     83     92 176.0  27.2  34252  291.13 0854.47
2009/04/23 16:19:34.9     -18    -95     35     97    103 191.1  20.4  34240  290.92 0854.47
2009/04/23 16:19:35.0       6    -55     36     56     66 173.8  35.6  34266  291.38 0854.47
2009/04/23 16:19:35.1      -8    -26     33     28     43 198.3  54.3  34260  291.26 0854.47
2009/04/23 16:19:35.2     -13    -34     10     37     39 201.8  16.3  34260  291.26 0854.47
2009/04/23 16:19:35.3     -21     -3     26     22     34 260.3  54.3  34258  291.23 0854.47
2009/04/23 16:19:35.4     -36     -6     32     37     48 260.3  46.9  34268  291.40 0854.47
2009/04/23 16:19:35.5     -56      0     41     57     70 270.0  39.7  34246  291.03 0854.47
2009/04/23 16:19:35.6     -73    -24     36     77     85 251.8  26.6  34238  290.89 0854.47
2009/04/23 16:19:35.7     -91    -34     58     98    113 249.6  34.0  34224  290.67 0854.47
2009/04/23 16:19:35.8    -148    -50     45    157    164 251.4  16.0  34244  290.99 0854.47
2009/04/23 16:19:35.9    -101   -107     52    148    156 223.2  20.2  34226  290.70 0854.47
2009/04/23 16:19:36.0    -109   -126     45    167    174 221.0  15.3  34220  290.58 0854.47
2009/04/23 16:19:36.1    -133   -139     37    193    197 223.7  11.1  34216  290.53 0854.47
2009/04/23 16:19:36.2    -126   -140     37    189    193 221.9  11.1  34220  290.60 0854.47
2009/04/23 16:19:36.3    -102   -109     51    150    159 223.2  18.9  34228  290.72 0854.47
2009/04/23 16:19:36.4     -97   -103     74    142    160 223.2  29.8  34230  290.77 0854.46
2009/04/23 16:19:36.5     -67   -112    113    131    173 210.8  45.4  34234  290.84 0854.46
2009/04/23 16:19:36.6    -127   -181    143    222    264 215.0  35.6  34258  291.24 0854.46
2009/04/23 16:19:36.7     -74   -211     70    224    235 199.4  17.4  34232  290.81 0854.46
2009/04/23 16:19:36.8     -70   -175     58    189    198 201.9  17.3  34226  290.70 0854.46
2009/04/23 16:19:36.9     -82   -155     20    176    178 207.9   6.5  34232  290.79 0854.46
2009/04/23 16:19:37.0     -61   -178     -7    189    190 198.9  -2.3  34208  290.38 0854.46
2009/04/23 16:19:37.1     -44   -176    -32    182    185 194.3 -10.3  34206  290.36 0854.46
2009/04/23 16:19:37.2     -27   -165    -37    168    173 189.3 -12.6  34206  290.36 0854.46
2009/04/23 16:19:37.3     -30   -163    -47    166    173 190.5 -15.8  34200  290.26 0854.46
2009/04/23 16:19:37.4     -25   -184    -44    186    192 188.0 -13.4  34198  290.23 0854.46
2009/04/23 16:19:37.5     -36   -155    -34    160    164 193.3 -12.2  34202  290.28 0854.46
2009/04/23 16:19:37.6     -64   -175    -23    187    189 200.3  -7.2  34200  290.26 0854.46
2009/04/23 16:19:37.7     -21   -153    -22    155    157 188.0  -8.2  34200  290.26 0854.46
2009/04/23 16:19:37.8     -55   -164     11    174    175 198.7   3.8  34196  290.19 0854.46
2009/04/23 16:19:37.9      -9   -180     -4    181    182 182.9  -1.3  34200  290.26 0854.46
2009/04/23 16:19:38.0     -44   -188     47    194    200 193.4  13.7  34194  290.16 0854.46
2009/04/23 16:19:38.1     -27   -224     63    226    235 186.9  15.8  34192  290.13 0854.46
2009/04/23 16:19:38.2     132   -214    108    252    274 148.4  24.9  34186  290.02 0854.46
2009/04/23 16:19:38.3     152   -227    180    274    327 146.2  36.4  34190  290.09 0854.46
2009/04/23 16:19:38.4     158    -96    142    185    233 121.3  41.4  34190  290.09 0854.47
2009/04/23 16:19:38.5     -23     -4    119     24    121 260.3  89.1  34226  290.70 0854.47
2009/04/23 16:19:38.6     -12    -27    111     30    114 205.5  84.8  34230  290.77 0854.47
2009/04/23 16:19:38.7     -37      2    108     38    114 274.3  81.2  34238  290.89 0854.47
2009/04/23 16:19:38.8     -52    -17     78     55     95 251.6  62.1  34228  290.74 0854.47
2009/04/23 16:19:38.9     -50     24     69     56     88 295.4  56.4  34238  290.91 0854.47
2009/04/23 16:19:39.0     -45    -48     91     67    113 223.3  60.0  34244  291.01 0854.47
2009/04/23 16:19:39.1     -41    -97    107    106    150 203.2  50.1  34214  290.48 0854.47
2009/04/23 16:19:39.2       9    -18     74     21     76 152.8  83.9  34234  290.82 0854.47
2009/04/23 16:19:39.3       0     -3     38      4     38 189.7  90.0  34228  290.72 0854.47
2009/04/23 16:19:39.4      49    -53     76     73    105 136.8  50.7  34212  290.47 0854.47
2009/04/23 16:19:39.5      21     -2     46     22     51  96.1  72.9  34212  290.45 0854.47
2009/04/23 16:19:39.6     -13     32      5     35     36 338.2   9.0  34218  290.55 0854.47
2009/04/23 16:19:39.7     -25    -11     -4     28     29 246.5  -9.3  34216  290.52 0854.47
2009/04/23 16:19:39.8     -33    -58      3     68     69 209.9   2.9  34222  290.62 0854.47
2009/04/23 16:19:39.9      12    -59    -35     61     70 168.5 -36.8  34230  290.75 0854.47
2009/04/23 16:19:40.0     -29   -126    -62    130    144 193.3 -31.7  34230  290.77 0854.47
2009/04/23 16:19:40.1    -106    -44     16    115    117 247.4   8.0  34220  290.58 0854.47
2009/04/23 16:19:40.2    -142    -18    -14    144    145 262.5  -5.6  34216  290.52 0854.47
2009/04/23 16:19:40.3    -161    -19     -6    163    164 263.2  -2.2  34236  290.87 0854.47
2009/04/23 16:19:40.4    -204    -33    -26    207    209 260.8  -7.2  34256  291.21 0854.46
2009/04/23 16:19:40.5    -171    -71    -50    186    193 247.4 -15.2  34236  290.87 0854.46
2009/04/23 16:19:40.6     -91    -91     -5    129    130 225.0  -2.2  34232  290.81 0854.46
2009/04/23 16:19:40.7     -18    -79      6     82     83 192.9   4.4  34230  290.75 0854.46
2009/04/23 16:19:40.8      38    -89     -5     97     98 156.8  -3.2  34228  290.74 0854.46
2009/04/23 16:19:40.9      43    -52     -1     68     69 140.4  -1.3  34224  290.65 0854.46
2009/04/23 16:19:41.0      68    -50     -1     85     86 126.4  -0.7  34216  290.52 0854.46
2009/04/23 16:19:41.1      51    -80     30     96    101 147.4  17.3  34208  290.40 0854.46
2009/04/23 16:19:41.2      68    -69     60     98    114 135.3  35.5  34210  290.43 0854.46
2009/04/23 16:19:41.3       7    -97     32     98    104 175.6  18.4  34216  290.52 0854.46
2009/04/23 16:19:41.4       6   -120     19    121    123 176.9   8.9  34216  290.52 0854.46
2009/04/23 16:19:41.5       9   -130     25    131    134 176.0  11.1  34212  290.47 0854.46
2009/04/23 16:19:41.6      10    -71     48     72     86 172.0  36.5  34212  290.47 0854.46
2009/04/23 16:19:41.7     -10    -81     13     82     84 187.6   9.5  34214  290.48 0854.46
2009/04/23 16:19:41.8     -32    -83     -8     90     91 201.4  -5.6  34212  290.45 0854.46
2009/04/23 16:19:41.9     -52    -68    -23     86     90 217.4 -15.4  34206  290.36 0854.46
2009/04/23 16:19:42.0     -34    -64    -24     73     76 208.1 -23.8  34208  290.38 0854.46
2009/04/23 16:19:42.1     -22    -39    -29     45     53 209.9 -40.0  34206  290.35 0854.46
2009/04/23 16:19:42.2     -15    -35    -16     39     42 203.6 -27.4  34206  290.35 0854.46
2009/04/23 16:19:42.3      -1    -33     12     34     37 182.7  19.4  34208  290.40 0854.46
2009/04/23 16:19:42.4       8    -14     49     17     51 151.0  81.2  34216  290.53 0854.46
2009/04/23 16:19:42.5      37    -45     37     59     69 140.3  35.5  34214  290.50 0854.46
2009/04/23 16:19:42.6      24   -100     37    103    109 166.2  20.0  34200  290.26 0854.46
2009/04/23 16:19:42.7     -24   -119     52    122    132 191.6  24.6  34200  290.25 0854.46
2009/04/23 16:19:42.8     -44   -115     14    124    125 200.9   6.9  34206  290.35 0854.46
2009/04/23 16:19:42.9       1    -55     15     56     59 178.2  15.2  34202  290.30 0854.46
2009/04/23 16:19:43.0      21    -91     30     94     99 166.6  17.9  34204  290.33 0854.46
2009/04/23 16:19:43.1      20    -84     60     87    105 166.6  37.6  34206  290.35 0854.46
2009/04/23 16:19:43.2      47    -60     45     77     89 142.2  33.5  34208  290.38 0854.46
2009/04/23 16:19:43.3      83    -46     49     96    107 119.3  28.2  34212  290.47 0854.46
2009/04/23 16:19:43.4      80    -31     55     86    102 111.3  35.5  34214  290.50 0854.46
2009/04/23 16:19:43.5       0    -49     78     50     92 180.9  64.6  34222  290.62 0854.46
2009/04/23 16:19:43.6      -8    -42     72     43     83 191.6  66.2  34226  290.70 0854.46
2009/04/23 16:19:43.7      -3      0     98      4     98 265.6  90.0  34240  290.92 0854.46
2009/04/23 16:19:43.8       0    -21     93     22     95 180.9  87.5  34246  291.04 0854.46
2009/04/23 16:19:43.9     -14     13     68     20     70 313.1  82.8  34254  291.16 0854.46
2009/04/23 16:19:44.0     -28     40     53     50     72 324.8  52.1  34246  291.03 0854.46
2009/04/23 16:19:44.1     -34     51     33     62     70 326.6  30.3  34214  290.50 0854.46
2009/04/23 16:19:44.2     -27     16     60     32     68 300.7  68.9  34222  290.62 0854.46
2009/04/23 16:19:44.3     -64    -46     86     80    117 234.1  52.2  34222  290.62 0854.46
2009/04/23 16:19:44.4     -37    -72    113     82    139 207.2  60.5  34220  290.58 0854.44
2009/04/23 16:19:44.5    -143    -54     89    154    177 249.2  32.7  34252  291.15 0854.44
2009/04/23 16:19:44.6    -108    -72     64    131    145 236.3  27.3  34240  290.92 0854.44
2009/04/23 16:19:44.7       8    -49     60     50     78 170.2  55.4  34252  291.15 0854.44
2009/04/23 16:19:44.8      35    -25     44     44     62 126.0  50.1  34236  290.86 0854.44
2009/04/23 16:19:44.9      28    -15     74     32     80 118.9  75.0  34234  290.84 0854.44
2009/04/23 16:19:45.0     -32    -30     49     44     65 226.9  52.2  34252  291.15 0854.44
2009/04/23 16:19:45.1      -8    -48    118     49    127 189.8  76.6  34242  290.98 0854.44
2009/04/23 16:19:45.2     -19    -94    124     97    157 191.6  57.9  34220  290.60 0854.44
2009/04/23 16:19:45.3    -105    -97    111    144    181 227.3  41.7  34218  290.55 0854.44
2009/04/23 16:19:45.4    -144    -60     86    157    179 247.4  31.3  34230  290.75 0854.44
2009/04/23 16:19:45.5    -192    -22     52    194    202 263.4  15.2  34266  291.38 0854.44
2009/04/23 16:19:45.6    -221     25     78    223    237 276.6  19.4  34248  291.06 0854.44
2009/04/23 16:19:45.7    -142    -92     87    170    190 237.1  29.1  34240  290.94 0854.44
2009/04/23 16:19:45.8    -139    -89     23    166    168 237.5   8.0  34220  290.60 0854.44
2009/04/23 16:19:45.9    -237     -3     20    238    239 269.1   5.0  34246  291.02 0854.44
2009/04/23 16:19:46.0    -186    -31      1    189    190 260.5   0.5  34240  290.94 0854.44
2009/04/23 16:19:46.1    -157   -102     97    188    211 237.1  29.3  34256  291.20 0854.44
2009/04/23 16:19:46.2    -208    -18     31    209    212 264.8   8.5  34262  291.30 0854.44
2009/04/23 16:19:46.3    -207    -90     61    226    235 246.5  15.3  34262  291.30 0854.44
2009/04/23 16:19:46.4    -132   -170    192    216    288 217.8  45.9  34248  291.07 0854.44
2009/04/23 16:19:46.5     -70   -110    110    131    171 212.5  44.3  34260  291.26 0854.44
2009/04/23 16:19:46.6      -6    -23    111     24    113 195.1  89.0  34230  290.77 0854.44
2009/04/23 16:19:46.7     -58    -11     99     60    115 258.6  65.1  34236  290.86 0854.44
2009/04/23 16:19:46.8     -71     -3    119     72    139 267.4  66.2  34270  291.45 0854.44
2009/04/23 16:19:46.9     -10      6      4     12     13 302.4  18.9  34280  291.60 0854.44
2009/04/23 16:19:47.0      33     32     50     46     67  45.9  52.1  34252  291.13 0854.44
2009/04/23 16:19:47.1      -7     72     32     73     79 353.8  24.6  34252  291.13 0854.44
2009/04/23 16:19:47.2      -1     23     38     24     44 355.5  64.7  34272  291.47 0854.44
2009/04/23 16:19:47.3     -11    -81     54     82     98 188.0  36.5  34272  291.49 0854.44
2009/04/23 16:19:47.4      14   -133    123    134    181 173.8  47.7  34272  291.49 0854.44
2009/04/23 16:19:47.5       4   -144     98    145    175 178.2  37.0  34268  291.40 0854.44
2009/04/23 16:19:47.6       7   -100     58    101    116 175.5  32.4  34266  291.38 0854.44
2009/04/23 16:19:47.7     -53    -88     61    103    119 211.2  33.5  34274  291.50 0854.44
2009/04/23 16:19:47.8      15      7     74     17     75  64.7  89.0  34276  291.54 0854.44
2009/04/23 16:19:47.9      64    -17     94     67    115 105.1  61.1  34264  291.33 0854.44
2009/04/23 16:19:48.0      21     -3    132     22    133  99.7  90.0  34276  291.54 0854.44
2009/04/23 16:19:48.1       4     29    121     30    124   8.0  86.4  34296  291.89 0854.44
2009/04/23 16:19:48.2       0     34     88     35     94 359.1  78.2  34294  291.86 0854.44
2009/04/23 16:19:48.3     -13      5     96     15     97 291.7  90.0  34296  291.89 0854.44
2009/04/23 16:19:48.4     -50     36     76     63     98 306.0  56.3  34278  291.59 0854.44
2009/04/23 16:19:48.5    -180      3     69    181    193 271.3  21.7  34274  291.50 0854.44
2009/04/23 16:19:48.6    -167    -55     99    177    202 251.6  31.9  34260  291.28 0854.44
2009/04/23 16:19:48.7    -212    -60    118    221    250 254.1  30.3  34282  291.63 0854.44
2009/04/23 16:19:48.8     -98   -170    134    197    238 210.1  37.6  34280  291.62 0854.44
2009/04/23 16:19:48.9    -136   -202    188    244    308 214.1  41.6  34278  291.58 0854.44
2009/04/23 16:19:49.0    -177    -83    135    196    237 244.7  37.8  34282  291.66 0854.44
2009/04/23 16:19:49.1     -91   -110     96    144    173 219.6  36.5  34284  291.67 0854.44
2009/04/23 16:19:49.2     -70   -127    103    146    178 208.9  38.8  34284  291.67 0854.44
2009/04/23 16:19:49.3    -127   -151    151    198    249 219.9  41.2  34276  291.55 0854.44
2009/04/23 16:19:49.4    -172   -118    107    209    234 235.6  29.3  34306  292.05 0854.43
2009/04/23 16:19:49.5     -48   -143     89    151    175 198.7  33.7  34274  291.50 0854.43
2009/04/23 16:19:49.6    -101   -147    101    179    205 214.5  31.9  34294  291.86 0854.43
2009/04/23 16:19:49.7     -56   -110    116    124    169 207.2  47.9  34292  291.83 0854.43
2009/04/23 16:19:49.8     -99    -72     55    123    134 233.6  25.7  34298  291.93 0854.43
2009/04/23 16:19:49.9     -34   -129    110    134    173 195.1  43.7  34302  292.00 0854.43
2009/04/23 16:19:50.0      -6    -93    125     94    156 184.0  59.4  34306  292.06 0854.43
2009/04/23 16:19:50.1     -36   -135    166    140    217 195.2  55.6  34306  292.06 0854.43
2009/04/23 16:19:50.2    -164    -70     91    179    200 246.7  29.2  34306  292.06 0854.43
2009/04/23 16:19:50.3     -58      4     33     59     67 274.4  31.4  34306  292.06 0854.43
2009/04/23 16:19:50.4     -23     38     35     45     57 329.3  42.7  34300  291.95 0854.43
2009/04/23 16:19:50.5      28     37     17     47     49  37.8  20.0  34282  291.64 0854.43
2009/04/23 16:19:50.6     -23     21     34     32     46 313.1  50.1  34292  291.81 0854.43
2009/04/23 16:19:50.7     -39    -13     65     42     77 251.6  64.6  34302  292.00 0854.43
2009/04/23 16:19:50.8     -59     -2     78     60     98 267.4  57.9  34314  292.18 0854.43
2009/04/23 16:19:50.9      21     25    102     33    107  39.6  80.7  34314  292.18 0854.43
2009/04/23 16:19:51.0     -44    115     97    124    157 339.1  42.2  34278  291.57 0854.43
2009/04/23 16:19:51.1    -108     55    101    122    158 297.0  44.1  34332  292.49 0854.43
2009/04/23 16:19:51.2     -61     92    123    111    165 326.6  53.3  34330  292.46 0854.43
2009/04/23 16:19:51.3     -50     50    134     72    152 315.0  69.3  34318  292.27 0854.43
2009/04/23 16:19:51.4     -48     48     87     69    111 315.0  56.9  34314  292.20 0854.43
2009/04/23 16:19:51.5     -32    -67     71     75    103 205.5  48.5  34302  291.98 0854.43
2009/04/23 16:19:51.6     -65    -85    101    108    147 217.4  47.9  34264  291.33 0854.43
2009/04/23 16:19:51.7     -80    -75     85    110    139 226.8  41.7  34246  291.04 0854.43
2009/04/23 16:19:51.8     -86   -127     46    154    161 214.3  16.8  34232  290.79 0854.43
2009/04/23 16:19:51.9    -118   -218     -7    249    250 208.5  -1.6  34232  290.80 0854.43
2009/04/23 16:19:52.0    -159   -158     16    225    226 225.1   4.2  34280  291.60 0854.43
2009/04/23 16:19:52.2    -232   -139     -1    271    272 239.1  -0.3  34264  291.33 0854.43
2009/04/23 16:19:52.3    -201    -62    -62    211    220 252.7 -16.4  34274  291.52 0854.43
2009/04/23 16:19:52.4    -155   -106      3    188    189 235.6   1.0  34278  291.57 0854.43
2009/04/23 16:19:52.5     -71    -69     93    100    136 226.0  47.9  34294  291.84 0854.43
2009/04/23 16:19:52.6     -38   -106     91    113    145 200.0  43.7  34286  291.71 0854.43
2009/04/23 16:19:52.7     -53   -167    105    176    204 197.6  33.5  34266  291.37 0854.43
2009/04/23 16:19:52.8     -70   -212     61    224    233 198.5  15.3  34250  291.09 0854.43
2009/04/23 16:19:52.9       0   -218     -2    219    220 180.0  -0.7  34254  291.16 0854.43
2009/04/23 16:19:53.0      22   -110     71    113    133 168.4  35.5  34288  291.74 0854.43
2009/04/23 16:19:53.1      -2      2     90      3     90 315.0  90.0  34288  291.74 0854.43
2009/04/23 16:19:53.2      76      5    137     77    157  85.7  68.5  34304  292.03 0854.43
2009/04/23 16:19:53.3       4      4    108      7    108  45.0  90.0  34330  292.47 0854.43
2009/04/23 16:19:53.4       2     26     87     27     91   6.2  81.8  34342  292.66 0854.43
2009/04/23 16:19:53.5      -8      3     75      9     75 295.3  90.0  34340  292.64 0854.42
2009/04/23 16:19:53.6      28     16     50     33     59  59.3  63.6  34338  292.59 0854.42
2009/04/23 16:19:53.7      24     13    101     28    104  61.1  84.4  34340  292.63 0854.42
2009/04/23 16:19:53.8      71    -22     89     75    116 107.7  55.8  34308  292.08 0854.42
2009/04/23 16:19:53.9      60     -8    103     61    119  97.9  66.8  34300  291.96 0854.42
2009/04/23 16:19:54.0      13     44     75     47     88  16.9  64.7  34310  292.13 0854.42
2009/04/23 16:19:54.1       5      1     79      6     79  71.6  90.0  34302  291.98 0854.42
2009/04/23 16:19:54.2     -33    -35     87     49     99 223.2  68.3  34262  291.30 0854.42
2009/04/23 16:19:54.3       4    -57    115     58    128 175.5  71.4  34250  291.11 0854.42
2009/04/23 16:19:54.4     -75   -118    149    141    205 212.6  52.0  34256  291.21 0854.42
2009/04/23 16:19:54.5     -85   -117    146    145    205 216.1  50.1  34228  290.72 0854.42
2009/04/23 16:19:54.6     -16   -139    156    140    209 186.7  53.7  34216  290.52 0854.42
2009/04/23 16:19:54.7       0   -100    132    101    166 180.0  59.0  34218  290.57 0854.42
2009/04/23 16:19:54.8     -16   -165    174    166    240 185.6  51.4  34208  290.40 0854.42
2009/04/23 16:19:54.9      -4   -175    140    176    224 181.6  43.0  34216  290.52 0854.42
2009/04/23 16:19:55.0      42   -120    178    128    219 160.4  60.6  34268  291.42 0854.42
2009/04/23 16:19:55.1       6    -99    101    100    142 176.4  50.1  34242  290.98 0854.42
2009/04/23 16:19:55.2      11    -34    100     36    106 161.3  80.2  34242  290.96 0854.42
2009/04/23 16:19:55.3      -9    -93    125     94    156 185.8  59.4  34232  290.81 0854.42
2009/04/23 16:19:55.4     -22   -155    115    157    194 188.1  39.7  34230  290.77 0854.42
2009/04/23 16:19:55.5      33   -156    108    160    193 168.0  37.0  34232  290.81 0854.42
2009/04/23 16:19:55.6      52   -167     58    176    186 162.6  18.4  34228  290.72 0854.42
2009/04/23 16:19:55.7      28   -146     65    149    162 168.9  24.9  34224  290.65 0854.42
2009/04/23 16:19:55.8      -8   -156     59    157    167 183.1  21.5  34224  290.67 0854.42
2009/04/23 16:19:55.9     -22   -174     63    176    186 187.3  20.4  34226  290.69 0854.42
2009/04/23 16:19:56.0     -49   -172      7    179    180 196.0   2.5  34224  290.65 0854.42
2009/04/23 16:19:56.1       5   -160    -33    161    165 178.2 -11.9  34220  290.60 0854.42
2009/04/23 16:19:56.2      14   -214     13    215    216 176.2   3.6  34228  290.74 0854.42
2009/04/23 16:19:56.3      99   -206     69    229    240 154.1  16.8  34222  290.61 0854.42
2009/04/23 16:19:56.4      95   -193    121    216    247 153.7  31.6  34224  290.65 0854.42
2009/04/23 16:19:56.5      90   -166    114    190    221 151.5  34.0  34222  290.62 0854.42
2009/04/23 16:19:56.6      83    -53    137     99    169 122.4  60.5  34242  290.98 0854.42
2009/04/23 16:19:56.7      40     -8     77     41     87 101.5  69.8  34238  290.91 0854.42
2009/04/23 16:19:56.8     -83   -113     81    141    162 216.1  32.7  34238  290.89 0854.42
2009/04/23 16:19:56.9     -81    -81     50    115    125 225.1  25.1  34232  290.81 0854.42
2009/04/23 16:19:57.0    -266    -45   -128    270    298 260.3 -31.6  34220  290.58 0854.42
2009/04/23 16:19:57.1    -245     11   -200    246    317 272.6 -47.7  34242  290.95 0854.42
2009/04/23 16:19:57.2    -147     -6   -157    148    215 267.5 -56.5  34258  291.23 0854.42
2009/04/23 16:19:57.3    -139   -109   -103    177    204 231.8 -37.5  34258  291.23 0854.42
2009/04/23 16:19:57.4    -149    -59   -147    161    218 248.2 -52.1  34242  290.98 0854.42
2009/04/23 16:19:57.5     -97     22   -169    100    196 283.3 -71.2  34214  290.48 0854.42
2009/04/23 16:19:57.6    -109     28   -146    113    184 284.6 -62.9  34228  290.72 0854.42
2009/04/23 16:19:57.7     -52     13   -126     54    137 284.2 -79.9  34236  290.86 0854.42
2009/04/23 16:19:57.8       5     84    -98     85    129   3.6 -59.2  34236  290.87 0854.42
2009/04/23 16:19:57.9      57    121    -46    134    141  25.3 -23.3  34232  290.81 0854.42
2009/04/23 16:19:58.0      37    109    -73    116    137  18.7 -39.9  34240  290.92 0854.42
2009/04/23 16:19:58.1      56    113   -106    127    165  26.3 -48.7  34258  291.25 0854.42
2009/04/23 16:19:58.2     102    -13   -102    103    144  97.5 -54.4  34258  291.25 0854.42
2009/04/23 16:19:58.3     103    155     66    187    198  33.6  20.2  34298  291.91 0854.42
2009/04/23 16:19:58.4      21    152     -8    154    155   8.0  -3.1  34268  291.42 0854.42
2009/04/23 16:19:58.5      12     16    -57     21     60  37.8 -83.6  34246  291.03 0854.42
2009/04/23 16:19:58.6     -51     17    -81     54     97 288.4 -68.5  34252  291.15 0854.42
2009/04/23 16:19:58.7     -51    -12    -53     53     74 255.8 -54.5  34258  291.25 0854.42
2009/04/23 16:19:58.8     -99    -41     25    108    111 247.4  13.2  34230  290.77 0854.42
2009/04/23 16:19:58.9    -141   -111     83    180    198 231.6  26.4  34238  290.91 0854.42
2009/04/23 16:19:59.0    -215   -136     65    255    264 237.6  14.3  34248  291.07 0854.42
2009/04/23 16:19:59.1    -288   -104    -80    307    318 250.1 -14.6  34280  291.60 0854.42
2009/04/23 16:19:59.2    -263   -168   -112    313    333 237.5 -19.8  34284  291.67 0854.42
2009/04/23 16:19:59.3    -218   -101    -50    241    247 245.2 -11.9  34266  291.36 0854.42
2009/04/23 16:19:59.4    -280   -236     41    367    370 229.9   6.5  34282  291.66 0854.42
2009/04/23 16:19:59.5    -340   -206     -4    398    399 238.7  -0.6  34296  291.88 0854.41
2009/04/23 16:19:59.6    -337   -188   -122    387    406 240.8 -17.5  34288  291.73 0854.41
2009/04/23 16:19:59.7    -309   -188     -4    362    363 238.7  -0.7  34290  291.79 0854.41
2009/04/23 16:19:59.8    -230      0     57    231    238 270.0  13.9  34252  291.14 0854.41
2009/04/23 16:19:59.9    -145   -258    243    297    383 209.4  43.7  34238  290.88 0854.41
2009/04/23 16:20:00.0    -117   -384    154    402    430 197.0  22.0  34246  291.04 0854.41
2009/04/23 16:20:00.1    -104   -376    125    391    411 195.5  17.8  34246  291.02 0854.41
2009/04/23 16:20:00.2    -172   -391     41    428    431 203.7   5.5  34254  291.16 0854.41
2009/04/23 16:20:00.3     -99   -380    180    393    432 194.6  26.3  34202  290.29 0854.41
2009/04/23 16:20:00.4     -78   -347    214    356    415 192.8  33.8  34204  290.32 0854.41
2009/04/23 16:20:00.5     -91   -268    217    284    357 198.7  41.3  34210  290.43 0854.41
2009/04/23 16:20:00.6    -175   -259    173    313    357 214.1  31.4  34202  290.30 0854.41
2009/04/23 16:20:00.7    -108   -219    173    245    299 206.3  38.6  34206  290.36 0854.41
2009/04/23 16:20:00.8    -135   -219    191    258    321 211.6  40.1  34214  290.48 0854.41
2009/04/23 16:20:00.9     -95   -204    170    226    282 204.9  40.7  34188  290.05 0854.41
2009/04/23 16:20:01.0     -98   -246    151    266    305 201.8  32.1  34192  290.12 0854.41
2009/04/23 16:20:01.1     -76   -293    165    303    345 194.7  31.0  34202  290.27 0854.41
2009/04/23 16:20:01.2      38   -171    170    176    244 167.3  49.0  34210  290.41 0854.41
2009/04/23 16:20:01.3      79   -250    151    263    303 162.4  32.4  34200  290.24 0854.41
2009/04/23 16:20:01.4       0   -305    159    306    344 180.1  29.5  34196  290.18 0854.41
2009/04/23 16:20:01.5     -63   -369    131    375    398 189.7  19.3  34202  290.30 0854.41
2009/04/23 16:20:01.6     -63   -404    140    410    434 188.9  18.9  34200  290.24 0854.41
2009/04/23 16:20:01.7      -7   -387    148    388    415 181.1  22.0  34208  290.39 0854.41
2009/04/23 16:20:01.8      58   -219    164    227    280 165.1  39.5  34222  290.63 0854.41
2009/04/23 16:20:01.9      65   -368    115    374    392 169.9  17.2  34212  290.47 0854.41
2009/04/23 16:20:02.0      92   -507    124    516    531 169.7  13.6  34202  290.28 0854.41
2009/04/23 16:20:02.1     123   -450    151    467    491 164.7  17.9  34190  290.08 0854.41
2009/04/23 16:20:02.2     184   -406    105    446    459 155.6  13.2  34186  290.00 0854.41
2009/04/23 16:20:02.3     273   -436    -18    515    516 148.0  -2.1  34192  290.10 0854.41
2009/04/23 16:20:02.4     242   -432     93    496    505 150.7  10.7  34184  289.98 0854.41
2009/04/23 16:20:02.5     281   -448     66    530    535 147.9   7.1  34188  290.06 0854.41
2009/04/23 16:20:02.6     252   -357    -16    437    438 144.8  -2.1  34198  290.22 0854.41
2009/04/23 16:20:02.7     270   -336     56    432    436 141.2   7.4  34174  289.82 0854.41
2009/04/23 16:20:02.8     269   -332    119    428    445 140.9  15.6  34170  289.75 0854.41
2009/04/23 16:20:02.9     350   -307    227    466    518 131.3  27.8  34188  290.06 0854.41
2009/04/23 16:20:03.0     411   -286    222    501    547 124.9  25.6  34196  290.18 0854.41
2009/04/23 16:20:03.1     353   -330    138    484    504 133.1  15.9  34172  289.79 0854.41
2009/04/23 16:20:03.2     359   -354    201    505    543 134.5  23.0  34180  289.92 0854.41
2009/04/23 16:20:03.3     300   -307    180    430    466 135.7  24.1  34180  289.92 0854.41
2009/04/23 16:20:03.4     295   -314    175    431    465 136.8  23.2  34176  289.83 0854.40
2009/04/23 16:20:03.5     221   -318    135    388    411 145.2  19.2  34178  289.88 0854.40
2009/04/23 16:20:03.6     190   -298    162    354    389 147.4  26.4  34194  290.16 0854.40
2009/04/23 16:20:03.7     255   -306    232    399    461 140.2  32.8  34202  290.29 0854.40
2009/04/23 16:20:03.8     233   -434    226    493    542 151.7  26.4  34162  289.60 0854.40
2009/04/23 16:20:03.9     297   -257     80    394    403 130.9  11.6  34174  289.82 0854.40
2009/04/23 16:20:04.0     377   -409     39    557    559 137.4   4.0  34160  289.58 0854.40
2009/04/23 16:20:04.1     330   -518    230    615    656 147.5  21.5  34156  289.50 0854.40
2009/04/23 16:20:04.2     241   -418    272    483    554 150.0  31.9  34164  289.65 0854.40
2009/04/23 16:20:04.3      93   -450     75    460    467 168.2   9.3  34152  289.44 0854.40
2009/04/23 16:20:04.4     265   -325    -85    420    429 140.8 -11.6  34174  289.82 0854.40
2009/04/23 16:20:04.5     152   -346    169    378    414 156.3  25.8  34174  289.82 0854.40
2009/04/23 16:20:04.6     116   -354    318    373    490 161.9  44.8  34144  289.31 0854.40
2009/04/23 16:20:04.7      -7   -433    154    434    460 181.0  20.3  34146  289.34 0854.40
2009/04/23 16:20:04.8     112   -523    140    535    554 167.9  14.7  34158  289.53 0854.40
2009/04/23 16:20:04.9     229   -387    241    450    510 149.4  30.5  34156  289.49 0854.40
2009/04/23 16:20:05.0     109   -487    141    500    520 167.3  15.8  34160  289.56 0854.40
2009/04/23 16:20:05.1     -46   -449     25    452    453 185.9   3.2  34160  289.58 0854.40
2009/04/23 16:20:05.2     -91   -466    -22    475    476 191.1  -2.7  34178  289.86 0854.40
2009/04/23 16:20:05.3     -58   -429    -79    433    441 187.8 -10.4  34182  289.95 0854.40
2009/04/23 16:20:05.4       7   -360    -10    361    362 178.9  -1.6  34194  290.16 0854.41
2009/04/23 16:20:05.5      -9   -211    -81    212    226 182.7 -26.4  34178  289.89 0854.41
2009/04/23 16:20:05.6     111   -217    -91    244    260 152.8 -25.7  34186  290.00 0854.41
2009/04/23 16:20:05.7     129   -252    -93    284    298 152.8 -23.6  34182  289.93 0854.41
2009/04/23 16:20:05.8     175   -274      0    326    327 147.4   0.0  34192  290.12 0854.41
2009/04/23 16:20:05.9     170   -209     23    270    272 140.8   5.0  34176  289.83 0854.41
2009/04/23 16:20:06.0      86   -169    -19    190    192 152.8  -6.0  34162  289.60 0854.41
2009/04/23 16:20:06.1      15   -139     43    140    147 173.8  17.3  34160  289.58 0854.41
2009/04/23 16:20:06.2      43    -96    -13    106    107 155.5  -7.3  34162  289.62 0854.41
2009/04/23 16:20:06.3      79   -114    -44    139    146 145.3 -17.6  34180  289.91 0854.41
2009/04/23 16:20:06.4      86   -181     29    201    204 154.6   8.2  34184  289.99 0854.41
2009/04/23 16:20:06.5      15   -226     89    227    243 176.2  22.3  34172  289.78 0854.41
2009/04/23 16:20:06.6     -36   -318    -67    321    329 186.6 -11.9  34166  289.66 0854.41
2009/04/23 16:20:06.7      60   -462     20    466    467 172.6   2.5  34156  289.52 0854.41
2009/04/23 16:20:06.8      -9   -595      7    596    597 180.9   0.7  34162  289.59 0854.41
2009/04/23 16:20:06.9       8   -536    -42    537    539 179.1  -4.5  34166  289.68 0854.41
2009/04/23 16:20:07.0     -68   -632     -5    636    637 186.2  -0.5  34168  289.70 0854.41
2009/04/23 16:20:07.1    -171   -571    -40    597    599 196.7  -3.9  34162  289.59 0854.41
2009/04/23 16:20:07.2    -125   -650    -34    663    664 190.9  -3.0  34154  289.46 0854.41
2009/04/23 16:20:07.3    -143   -695    -29    710    711 191.7  -2.4  34144  289.30 0854.41
2009/04/23 16:20:07.4    -145   -623   -177    640    665 193.1 -15.5  34136  289.16 0854.42
2009/04/23 16:20:07.5    -201   -566   -127    601    615 199.6 -12.0  34146  289.32 0854.42
2009/04/23 16:20:07.6    -282   -384    -86    477    485 216.3 -10.3  34166  289.69 0854.42
2009/04/23 16:20:07.7    -184   -254   -112    315    334 216.0 -24.7  34162  289.61 0854.42
2009/04/23 16:20:07.8    -103   -237   -123    259    286 203.6 -31.6  34156  289.51 0854.42
2009/04/23 16:20:07.9     -79   -472   -142    479    500 189.6 -16.5  34142  289.27 0854.42
2009/04/23 16:20:08.0    -245   -616   -229    664    703 201.7 -19.1  34124  288.97 0854.42
2009/04/23 16:20:08.1    -175   -745   -263    766    811 193.3 -19.0  34118  288.86 0854.42
2009/04/23 16:20:08.2    -241   -564    -88    614    621 203.2  -8.2  34130  289.06 0854.42
2009/04/23 16:20:08.3    -215   -530   -136    573    590 202.1 -13.4  34118  288.86 0854.42
2009/04/23 16:20:08.4    -207   -495   -182    537    568 202.7 -18.7  34124  288.97 0854.42
2009/04/23 16:20:08.5    -185   -576   -180    605    632 197.8 -16.6  34120  288.89 0854.42
2009/04/23 16:20:08.6    -225   -548    -49    593    596 202.3  -4.8  34122  288.93 0854.42
2009/04/23 16:20:08.7    -218   -680   -121    715    726 197.8  -9.6  34120  288.89 0854.42
2009/04/23 16:20:08.8    -261   -529    -32    591    592 206.3  -3.1  34130  289.07 0854.42
2009/04/23 16:20:08.9    -115   -544   -139    557    575 192.0 -14.1  34126  288.99 0854.42
2009/04/23 16:20:09.0    -122   -554   -112    568    580 192.5 -11.2  34130  289.05 0854.42
2009/04/23 16:20:09.1    -125   -397   -137    417    438 197.6 -23.6  34126  289.00 0854.42
2009/04/23 16:20:09.2     -16   -271   -104    272    291 183.5 -26.4  34130  289.07 0854.42
2009/04/23 16:20:09.3     138    -72   -147    156    214 117.5 -52.9  34140  289.23 0854.42
2009/04/23 16:20:09.4     164     35    -22    168    170  77.8  -7.5  34136  289.18 0854.42
2009/04/23 16:20:09.5     -48    -27    149     56    159 240.2  78.6  34148  289.36 0854.42
2009/04/23 16:20:09.6      27   -101    110    105    152 164.8  51.6  34142  289.26 0854.42
2009/04/23 16:20:09.7      48   -144   -151    152    214 161.5 -54.6  34140  289.24 0854.42
2009/04/23 16:20:09.8     245   -220    -80    330    340 131.9 -13.7  34128  289.04 0854.42
2009/04/23 16:20:09.9      70   -264   -185    274    330 165.1 -41.6  34128  289.03 0854.42
2009/04/23 16:20:10.0     110   -195    -79    224    237 150.6 -24.6  34126  289.00 0854.42
2009/04/23 16:20:10.1     167    -39     93    172    195 103.3  30.8  34132  289.09 0854.42
2009/04/23 16:20:10.2     121    -40    148    128    195 108.4  54.6  34136  289.18 0854.42
2009/04/23 16:20:10.3     -91    -53    147    106    181 239.8  60.6  34154  289.48 0854.42
2009/04/23 16:20:10.4    -248   -278    163    373    407 221.7  25.1  34128  289.04 0854.43
2009/04/23 16:20:10.5    -265   -322    254    418    489 219.5  34.2  34136  289.17 0854.43
2009/04/23 16:20:10.6    -184   -315     68    365    372 210.3  10.6  34128  289.04 0854.43
2009/04/23 16:20:10.7     -74   -317    189    326    376 193.2  32.8  34140  289.23 0854.43
2009/04/23 16:20:10.8     -28   -211    204    213    294 187.6  48.7  34148  289.36 0854.43
2009/04/23 16:20:10.9     -13   -270      8    271    272 182.9   1.8  34126  288.98 0854.43
2009/04/23 16:20:11.0     -80   -263    288    276    398 196.9  51.2  34142  289.25 0854.43
2009/04/23 16:20:11.1     -32   -157    211    161    265 191.5  58.7  34154  289.47 0854.43
2009/04/23 16:20:11.2     119   -119    -81    169    187 134.9 -31.7  34142  289.26 0854.43
2009/04/23 16:20:11.3     102   -209   -102    233    254 153.9 -29.5  34136  289.17 0854.43
2009/04/23 16:20:11.4    -150   -258   -215    299    368 210.3 -43.7  34138  289.20 0854.43
2009/04/23 16:20:11.5       5   -290   -201    291    353 178.9 -42.3  34142  289.25 0854.43
2009/04/23 16:20:11.6      51     -6    -58     52     77  97.0 -56.6  34144  289.30 0854.43
2009/04/23 16:20:11.7    -220     41    -64    224    234 280.6 -16.0  34140  289.23 0854.43
2009/04/23 16:20:11.8    -315      2    -45    316    320 270.4  -8.2  34140  289.22 0854.43
2009/04/23 16:20:11.9    -138   -213   -114    255    279 213.0 -30.1  34144  289.29 0854.43
2009/04/23 16:20:12.0    -254   -101   -176    274    325 248.2 -40.1  34146  289.32 0854.43
2009/04/23 16:20:12.1    -229   -281   -189    363    409 219.2 -34.4  34148  289.37 0854.43
2009/04/23 16:20:12.2    -204   -179    -35    272    275 228.7  -7.5  34148  289.36 0854.43
2009/04/23 16:20:12.3     -39    -17    -81     43     91 246.5 -74.2  34156  289.50 0854.43
2009/04/23 16:20:12.4     109     -9     34    110    116  94.8  17.4  34162  289.60 0854.44
2009/04/23 16:20:12.5     243   -194    -60    312    318 128.6 -11.0  34152  289.44 0854.44
2009/04/23 16:20:12.6      86   -182   -135    202    242 154.6 -41.1  34154  289.46 0854.44
2009/04/23 16:20:12.7    -120   -306   -112    329    347 201.4 -23.6  34152  289.43 0854.44
2009/04/23 16:20:12.8    -171   -376   -114    414    430 204.5 -15.4  34152  289.43 0854.44
2009/04/23 16:20:12.9      58   -567    -73    570    575 174.1  -7.3  34160  289.56 0854.44
2009/04/23 16:20:13.0     -12   -287   -141    288    320 182.5 -32.4  34156  289.51 0854.44
2009/04/23 16:20:13.1     161   -454    -64    482    487 160.4  -7.6  34146  289.32 0854.44
2009/04/23 16:20:13.2     161   -354   -116    390    406 155.5 -21.5  34150  289.40 0854.44
2009/04/23 16:20:13.3    -257   -272   -133    375    399 223.4 -19.6  34156  289.52 0854.44
2009/04/23 16:20:13.4    -106   -440     24    453    454 193.6   3.1  34148  289.36 0854.44
2009/04/23 16:20:13.5    -212   -512   -169    555    581 202.5 -17.0  34138  289.20 0854.44
2009/04/23 16:20:13.6    -242   -464   -150    524    546 207.5 -16.0  34148  289.36 0854.44
2009/04/23 16:20:13.7    -100   -514   -195    524    559 191.1 -25.9  34148  289.38 0854.44
2009/04/23 16:20:13.8    -208   -475   -144    519    538 203.7 -20.1  34146  289.33 0854.44
2009/04/23 16:20:13.9    -122   -387   -204    406    454 197.5 -33.3  34140  289.24 0854.44
2009/04/23 16:20:14.0     -78   -402   -150    410    436 191.0 -25.4  34152  289.44 0854.44
2009/04/23 16:20:14.1      -6   -428   -146    429    453 180.9 -23.7  34148  289.36 0854.44
2009/04/23 16:20:14.2      42   -410   -148    413    438 174.0 -25.0  34140  289.22 0854.44
2009/04/23 16:20:14.3      18   -368   -132    369    393 177.1 -19.7  34146  289.32 0854.44
2009/04/23 16:20:14.4     113   -384    -80    401    409 163.6 -11.3  34144  289.31 0854.44
2009/04/23 16:20:14.5      53   -376   -125    380    401 171.9 -18.3  34152  289.45 0854.44
2009/04/23 16:20:14.6       7   -339   -120    340    361 178.8 -19.6  34152  289.43 0854.44
2009/04/23 16:20:14.7     128   -260    -84    291    303 153.7 -16.2  34150  289.39 0854.44
2009/04/23 16:20:14.8     108   -237    -77    261    273 155.5 -16.5  34140  289.22 0854.44
2009/04/23 16:20:14.9     123   -222    -77    255    267 151.0 -16.8  34144  289.29 0854.44
2009/04/23 16:20:15.0     103   -192    -37    219    223 151.7  -9.8  34140  289.23 0854.44
2009/04/23 16:20:15.1     167   -167    -25    237    239 135.0  -6.1  34144  289.29 0854.44
2009/04/23 16:20:15.2     148   -117     61    189    199 128.4  18.1  34136  289.18 0854.44
2009/04/23 16:20:15.3     121   -135     97    182    206 138.1  30.1  34138  289.21 0854.44
2009/04/23 16:20:15.4     160    -95     66    187    199 120.7  19.4  34146  289.33 0854.44
2009/04/23 16:20:15.5     208   -112     86    237    252 118.2  20.7  34148  289.37 0854.44
2009/04/23 16:20:15.6     146   -127     77    194    208 130.9  22.8  34148  289.38 0854.44
2009/04/23 16:20:15.7     145    -84     58    168    178 120.2  19.2  34148  289.38 0854.44
2009/04/23 16:20:15.8     195   -115    131    227    262 120.7  32.7  34148  289.36 0854.44
2009/04/23 16:20:15.9     205   -170    115    267    290 129.8  25.1  34142  289.25 0854.44
2009/04/23 16:20:16.0     284   -236     74    370    378 129.8  11.4  34140  289.23 0854.44
2009/04/23 16:20:16.1     315   -258    104    408    422 129.4  14.4  34136  289.17 0854.44
2009/04/23 16:20:16.2     197   -448    169    490    519 156.3  19.1  34140  289.23 0854.44
2009/04/23 16:20:16.3     217   -441    159    492    518 153.8  17.9  34144  289.30 0854.44
2009/04/23 16:20:16.4     367   -350     71    508    514 133.6   8.0  34142  289.25 0854.45
2009/04/23 16:20:16.5     377   -168   -122    413    431 114.1 -16.5  34154  289.48 0854.45
2009/04/23 16:20:16.6     298   -221     49    372    376 126.6   7.6  34136  289.15 0854.45
2009/04/23 16:20:16.7     281   -263    105    386    401 133.1  15.3  34142  289.26 0854.45
2009/04/23 16:20:16.8     244   -232     76    337    346 133.6  12.8  34138  289.20 0854.45
2009/04/23 16:20:16.9     126   -213    185    248    309 149.3  40.4  34142  289.27 0854.45
2009/04/23 16:20:17.0     116   -235     95    263    279 153.7  20.9  34144  289.31 0854.45
2009/04/23 16:20:17.1     236   -183     82    299    311 127.8  15.3  34146  289.32 0854.45
2009/04/23 16:20:17.2     158   -125     37    202    206 128.4  10.6  34148  289.36 0854.45
2009/04/23 16:20:17.3      16   -114     95    116    149 172.0  43.7  34140  289.24 0854.45
2009/04/23 16:20:17.4      12   -190    169    191    255 176.2  46.2  34158  289.53 0854.45
2009/04/23 16:20:17.5     -51   -144     65    153    166 199.6  24.6  34154  289.46 0854.45
2009/04/23 16:20:17.6      87   -192     24    211    213 155.5   6.5  34146  289.35 0854.45
2009/04/23 16:20:17.7      72   -250     77    261    273 163.9  16.4  34146  289.34 0854.45
2009/04/23 16:20:17.8     176   -242     64    300    307 143.9  12.2  34146  289.32 0854.45
2009/04/23 16:20:17.9     188   -184    101    264    282 134.4  22.0  34152  289.42 0854.45
2009/04/23 16:20:18.0     157   -160     85    225    240 135.5  21.5  34150  289.41 0854.45
2009/04/23 16:20:18.1     120   -152     83    194    211 141.7  24.6  34150  289.41 0854.45
2009/04/23 16:20:18.2      99    -92     62    136    149 133.1  27.1  34154  289.46 0854.45
2009/04/23 16:20:18.3     142   -230     91    271    287 148.3  18.6  34150  289.39 0854.45
2009/04/23 16:20:18.4     194   -222    140    296    327 138.8  27.2  34150  289.41 0854.44
2009/04/23 16:20:18.5     208   -195    160    286    327 133.1  31.7  34154  289.47 0854.44
2009/04/23 16:20:18.6     234   -219    129    321    345 133.1  23.1  34154  289.48 0854.44
2009/04/23 16:20:18.7     233   -178    100    294    311 127.3  18.9  34152  289.42 0854.44
2009/04/23 16:20:18.8     320   -182     25    369    370 119.7   4.0  34156  289.50 0854.44
2009/04/23 16:20:18.9     283   -167     28    329    331 120.7   4.9  34154  289.48 0854.44
2009/04/23 16:20:19.0     128   -272    -38    301    304 154.7  -7.3  34154  289.46 0854.44
2009/04/23 16:20:19.1      88   -264   -107    279    298 161.5 -26.4  34154  289.46 0854.44
2009/04/23 16:20:19.2     207   -206    -26    293    295 134.8  -5.2  34154  289.46 0854.44
2009/04/23 16:20:19.3     217   -238     24    323    324 137.6   4.4  34150  289.41 0854.44
2009/04/23 16:20:19.4     207   -145     49    253    258 125.1  11.1  34154  289.46 0854.44
2009/04/23 16:20:19.5     186   -153     42    241    245 129.5   9.9  34154  289.46 0854.44
2009/04/23 16:20:19.6     298   -190     56    354    359 122.5   9.0  34154  289.47 0854.44
2009/04/23 16:20:19.7     193   -289     33    348    350 146.2   5.4  34156  289.50 0854.44
2009/04/23 16:20:19.8     230   -312     74    388    395 143.6  10.8  34154  289.48 0854.44
2009/04/23 16:20:19.9     131   -358     78    382    391 159.8  11.6  34154  289.47 0854.44
2009/04/23 16:20:20.1     231   -464     92    519    528 153.5  10.1  34142  289.26 0854.44
2009/04/23 16:20:20.2     327   -325    -18    462    463 134.8  -2.2  34152  289.44 0854.44
2009/04/23 16:20:20.3     360   -389     16    531    532 137.2   1.8  34148  289.36 0854.44
2009/04/23 16:20:20.4     314   -276     73    419    426 131.3  10.0  34146  289.34 0854.44
2009/04/23 16:20:20.5     297   -249     53    388    392 130.0   7.8  34146  289.32 0854.44
2009/04/23 16:20:20.6     160   -251    111    298    318 147.5  21.4  34144  289.29 0854.44
2009/04/23 16:20:20.7     160   -201    138    258    292 141.5  30.6  34156  289.51 0854.44
2009/04/23 16:20:20.8     155   -181     70    239    250 139.5  16.4  34156  289.49 0854.44
2009/04/23 16:20:20.9      75   -197    -41    211    216 159.1 -11.1  34156  289.50 0854.44
2009/04/23 16:20:21.0      86   -301     -8    314    315 164.0  -1.6  34160  289.58 0854.44
2009/04/23 16:20:21.1      80   -265    -15    278    279 163.1  -3.1  34164  289.63 0854.44
2009/04/23 16:20:21.2      91   -235    -65    253    262 158.8 -14.5  34160  289.58 0854.44
2009/04/23 16:20:21.3     115   -274    -60    298    304 157.2 -11.5  34156  289.51 0854.44
2009/04/23 16:20:21.4     170   -192    -72    257    268 138.6 -15.8  34156  289.49 0854.44
2009/04/23 16:20:21.5     196    -73    -11    210    211 110.6  -3.1  34158  289.55 0854.44
2009/04/23 16:20:21.6     195   -142     65    242    251 126.0  15.2  34158  289.54 0854.44
2009/04/23 16:20:21.7     166   -176    155    243    288 136.7  35.6  34156  289.49 0854.44
2009/04/23 16:20:21.8      16   -219    182    220    285 175.6  43.8  34162  289.59 0854.44
2009/04/23 16:20:21.9     115   -181     96    215    235 147.5  25.7  34158  289.55 0854.44
2009/04/23 16:20:22.0     151   -196     54    248    254 142.4  12.4  34156  289.51 0854.44
2009/04/23 16:20:22.1      -4   -285     77    286    297 180.9  15.2  34158  289.53 0854.44
2009/04/23 16:20:22.2    -105   -274     96    294    310 201.0  18.2  34162  289.59 0854.44
2009/04/23 16:20:22.3     -58   -227    107    235    258 194.5  26.2  34164  289.63 0854.44
2009/04/23 16:20:22.4      67   -160     95    174    198 157.3  31.0  34162  289.60 0854.44
2009/04/23 16:20:22.5      41   -217    135    221    258 169.3  34.4  34166  289.68 0854.44
2009/04/23 16:20:22.6      15   -215    137    216    255 176.0  35.5  34168  289.70 0854.44
2009/04/23 16:20:22.7     -14   -205    190    206    280 184.0  47.7  34168  289.71 0854.44
2009/04/23 16:20:22.8      11   -269    134    270    301 177.5  28.2  34164  289.63 0854.44
2009/04/23 16:20:22.9     -16   -315    157    316    352 182.9  28.4  34164  289.64 0854.44
2009/04/23 16:20:23.0       4   -319    165    320    360 179.1  29.3  34158  289.54 0854.44
2009/04/23 16:20:23.1      -7   -258    187    259    319 181.6  39.5  34158  289.53 0854.44
2009/04/23 16:20:23.2      69   -342    253    349    431 168.5  39.7  34162  289.60 0854.44
2009/04/23 16:20:23.3      14   -320    194    321    375 177.4  34.0  34166  289.67 0854.44
2009/04/23 16:20:23.4      31   -366    184    368    411 175.0  28.5  34156  289.52 0854.44
2009/04/23 16:20:23.5      38   -305    207    308    371 172.9  37.2  34182  289.93 0854.44
2009/04/23 16:20:23.6     -36   -368    199    370    420 185.7  30.6  34172  289.78 0854.44
2009/04/23 16:20:23.7     -68   -334    196    342    394 191.6  32.4  34158  289.54 0854.44
2009/04/23 16:20:23.8    -108   -402    147    417    442 195.1  20.2  34150  289.41 0854.44
2009/04/23 16:20:23.9     -89   -341    173    353    393 194.6  28.1  34164  289.65 0854.44
2009/04/23 16:20:24.0      77   -141    195    161    252 151.1  56.4  34170  289.74 0854.44
2009/04/23 16:20:24.1      65    -82    188    105    215 141.7  68.8  34190  290.09 0854.44
2009/04/23 16:20:24.2      58   -121    166    135    213 154.1  56.6  34172  289.77 0854.44
2009/04/23 16:20:24.3      52     -4    118     53    129  95.2  74.0  34188  290.04 0854.44
2009/04/23 16:20:24.4     178    -65    161    190    249 110.2  44.5  34170  289.75 0854.44
2009/04/23 16:20:24.5      70   -208     81    220    234 161.3  21.0  34160  289.57 0854.44
2009/04/23 16:20:24.6     115   -191    177    224    285 149.0  42.4  34166  289.68 0854.44
2009/04/23 16:20:24.7     170   -102    168    199    260 121.1  44.5  34162  289.61 0854.44
2009/04/23 16:20:24.8     206    -82     69    223    234 111.8  17.3  34164  289.63 0854.44
2009/04/23 16:20:24.9     126   -129     19    181    183 135.7   6.1  34164  289.63 0854.44
2009/04/23 16:20:25.0      88   -250     41    266    270 160.6   8.8  34162  289.59 0854.44
2009/04/23 16:20:25.1      21   -193     61    195    205 173.8  17.4  34162  289.62 0854.44
2009/04/23 16:20:25.2       4   -241    -21    242    244 178.9  -5.1  34162  289.61 0854.44
2009/04/23 16:20:25.3      -9   -269     47    270    275 182.0   9.9  34156  289.51 0854.44
2009/04/23 16:20:25.4     -96   -433    -53    444    448 192.5  -6.9  34142  289.27 0854.44
2009/04/23 16:20:25.5     -56   -454    -89    458    467 187.1 -11.1  34152  289.44 0854.44
2009/04/23 16:20:25.6     -39   -420   -151    422    449 185.3 -19.7  34148  289.36 0854.44
2009/04/23 16:20:25.7     -78   -436    -89    444    453 190.2 -11.3  34150  289.41 0854.44
2009/04/23 16:20:25.8     -14   -402   -136    403    426 182.0 -18.7  34148  289.36 0854.44
2009/04/23 16:20:25.9     -49   -364   -112    368    385 187.7 -17.0  34150  289.40 0854.44
2009/04/23 16:20:26.0     -71   -348   -126    356    378 191.7 -19.5  34148  289.38 0854.44
2009/04/23 16:20:26.1     -70   -355    -88    362    373 191.2 -13.7  34150  289.40 0854.44
2009/04/23 16:20:26.2    -204   -407   -157    456    483 206.6 -19.1  34152  289.42 0854.44
2009/04/23 16:20:26.3    -160   -326   -156    364    396 206.2 -29.0  34148  289.38 0854.44
2009/04/23 16:20:26.4    -228   -289   -131    369    392 218.2 -19.6  34164  289.64 0854.44
2009/04/23 16:20:26.5    -147   -194    -72    244    255 217.2 -16.6  34156  289.49 0854.44
2009/04/23 16:20:26.6    -127   -199    -82    237    250 212.6 -23.8  34164  289.64 0854.44
2009/04/23 16:20:26.7    -215   -200      1    294    295 227.1   0.2  34170  289.75 0854.44
2009/04/23 16:20:26.8    -224   -223    -12    317    318 225.1  -2.3  34174  289.80 0854.44
2009/04/23 16:20:26.9     -56   -168     19    178    180 198.5   6.1  34170  289.74 0854.44
2009/04/23 16:20:27.0      47   -181    -44    188    194 165.3 -13.4  34160  289.58 0854.44
2009/04/23 16:20:27.1     109   -232    -74    257    267 154.7 -20.7  34164  289.63 0854.44
2009/04/23 16:20:27.2      72   -203    -80    216    230 160.4 -25.4  34164  289.63 0854.44
2009/04/23 16:20:27.3     118   -123    -64    171    182 136.3 -25.7  34164  289.63 0854.44
2009/04/23 16:20:27.4      90   -116    -58    147    158 142.2 -26.9  34166  289.67 0854.44
2009/04/23 16:20:27.5      99    -55    -22    114    117 119.3 -11.3  34166  289.69 0854.44
2009/04/23 16:20:27.6      95    -42      5    104    105 114.0   2.9  34164  289.65 0854.44
2009/04/23 16:20:27.7      84    -69     -4    110    111 129.5  -2.2  34168  289.70 0854.44
2009/04/23 16:20:27.8      61    -83      3    104    105 143.5   1.8  34164  289.65 0854.44
2009/04/23 16:20:27.9      91    -85     60    125    138 133.1  27.2  34164  289.65 0854.44
2009/04/23 16:20:28.0      89    -59     65    108    126 123.7  34.0  34164  289.63 0854.44
2009/04/23 16:20:28.1      64    -65     68     92    114 135.5  39.7  34168  289.72 0854.44
2009/04/23 16:20:28.2      68    -87     94    111    145 142.2  44.3  34168  289.72 0854.44
2009/04/23 16:20:28.3      -7     24     74     26     78 343.1  81.2  34192  290.11 0854.44
2009/04/23 16:20:28.4       3    -99     82    100    129 178.2  43.7  34174  289.82 0854.43
2009/04/23 16:20:28.5      -4   -116     98    117    152 182.2  43.8  34170  289.74 0854.43
2009/04/23 16:20:28.6     -55   -152     94    162    187 200.1  32.9  34156  289.50 0854.43
2009/04/23 16:20:28.7     -94   -248     81    266    279 200.9  17.1  34162  289.59 0854.43
2009/04/23 16:20:28.8     -79   -183    107    200    226 203.4  30.6  34162  289.62 0854.43
2009/04/23 16:20:28.9      44    -67     99     81    127 146.6  56.4  34178  289.87 0854.43
2009/04/23 16:20:29.0      -9    -43     -4     45     46 192.5  -6.2  34164  289.65 0854.43
2009/04/23 16:20:29.1    -126   -125    -96    178    202 225.1 -35.4  34158  289.53 0854.43
2009/04/23 16:20:29.2    -160   -178    -41    240    244 222.1  -9.8  34164  289.64 0854.43
2009/04/23 16:20:29.3    -130    -83    -16    155    156 237.6  -6.2  34168  289.72 0854.43
2009/04/23 16:20:29.4    -143    -50     -8    152    153 250.5  -3.1  34168  289.72 0854.43
2009/04/23 16:20:29.5    -135    -49    -18    144    146 250.1  -7.3  34164  289.65 0854.43
2009/04/23 16:20:29.6    -113    -52     -4    125    126 245.2  -2.2  34166  289.69 0854.43
2009/04/23 16:20:29.7     -79    -71     28    107    111 227.8  14.7  34160  289.58 0854.43
2009/04/23 16:20:29.8     -31    -65     20     73     76 205.5  15.3  34162  289.60 0854.43
2009/04/23 16:20:29.9     -10    -81     45     82     93 187.1  30.8  34160  289.58 0854.43
2009/04/23 16:20:30.0     101   -103    125    145    191 135.5  45.1  34162  289.62 0854.43
2009/04/23 16:20:30.1     163   -196    168    256    306 140.3  36.3  34146  289.32 0854.43
2009/04/23 16:20:30.2     147   -209    164    256    304 144.9  35.6  34152  289.44 0854.43
2009/04/23 16:20:30.3     144   -219    198    263    329 146.6  40.8  34152  289.42 0854.43
2009/04/23 16:20:30.4     105   -221    196    245    313 154.5  42.7  34160  289.58 0854.44
2009/04/23 16:20:30.5      64   -224    163    234    285 164.0  38.4  34160  289.58 0854.44
2009/04/23 16:20:30.6      86   -167     66    189    201 152.6  19.4  34150  289.41 0854.44
2009/04/23 16:20:30.7     148   -115     78    188    203 128.0  23.6  34158  289.55 0854.44
2009/04/23 16:20:30.8     186    -62     83    197    213 108.6  24.1  34160  289.57 0854.44
2009/04/23 16:20:30.9     129   -139    124    190    226 137.2  36.0  34154  289.46 0854.44
2009/04/23 16:20:31.0     147   -130     84    197    214 131.6  24.3  34154  289.46 0854.44
2009/04/23 16:20:31.1     105   -274     87    294    307 159.0  16.6  34150  289.39 0854.44
2009/04/23 16:20:31.2     101   -295    114    312    332 161.1  21.0  34158  289.53 0854.44
2009/04/23 16:20:31.3     135   -275    149    307    341 153.7  27.9  34152  289.42 0854.44
2009/04/23 16:20:31.4     114   -242    189    268    327 154.6  38.6  34148  289.36 0854.44
2009/04/23 16:20:31.5      94   -259    248    276    371 159.9  46.6  34152  289.42 0854.44
2009/04/23 16:20:31.6     -10    -95    210     96    230 186.2  73.5  34164  289.65 0854.44
2009/04/23 16:20:31.7      63   -231    194    240    308 164.6  43.5  34164  289.63 0854.44
2009/04/23 16:20:31.8      57   -356    125    361    383 170.8  19.1  34158  289.54 0854.44
2009/04/23 16:20:31.9      29   -403    144    404    428 175.9  20.6  34162  289.61 0854.44
2009/04/23 16:20:32.0     -74   -380    143    388    413 191.1  21.1  34156  289.49 0854.44
2009/04/23 16:20:32.1     -64   -304    141    311    341 192.0  26.2  34166  289.67 0854.44
2009/04/23 16:20:32.2     -96   -252     95    270    286 200.9  20.0  34174  289.80 0854.44
2009/04/23 16:20:32.3     -54   -202     73    210    223 195.1  19.2  34176  289.84 0854.44
2009/04/23 16:20:32.4     -13   -122     74    123    143 186.3  34.0  34176  289.84 0854.44
2009/04/23 16:20:32.5     -15    -66     31     68     74 193.4  27.1  34172  289.77 0854.44
2009/04/23 16:20:32.6      67     -9    -24     68     73  97.9 -19.6  34174  289.80 0854.44
2009/04/23 16:20:32.7      78     23     35     82     89  73.2  24.1  34178  289.89 0854.44
2009/04/23 16:20:32.8     118    -97      7    153    154 129.5   2.9  34174  289.80 0854.44
2009/04/23 16:20:32.9      81   -202    -19    218    219 158.2  -5.2  34168  289.72 0854.44
2009/04/23 16:20:33.0      66   -212    -28    223    225 162.6  -7.2  34170  289.74 0854.44
2009/04/23 16:20:33.1      68   -158    -49    173    179 156.6 -20.7  34168  289.72 0854.44
2009/04/23 16:20:33.2      -3   -201    -56    202    210 180.9 -15.5  34168  289.72 0854.44
2009/04/23 16:20:33.3      87   -265    -87    280    293 161.7 -22.1  34170  289.73 0854.44
2009/04/23 16:20:33.4     123   -214    -78    247    260 150.1 -17.5  34170  289.73 0854.44
2009/04/23 16:20:33.5     162   -126    -62    206    215 127.8 -21.8  34170  289.75 0854.44
2009/04/23 16:20:33.6      30    -63    -25     70     75 154.5 -19.7  34170  289.75 0854.44
2009/04/23 16:20:33.7      46    -46     46     66     80 134.9  38.6  34172  289.79 0854.44
2009/04/23 16:20:33.8      31    -94    116    100    153 161.7  54.8  34176  289.84 0854.44
2009/04/23 16:20:33.9      83    -41    133     93    162 116.6  61.8  34182  289.96 0854.44
2009/04/23 16:20:34.0      54    -18    167     58    176 108.6  80.7  34188  290.04 0854.44
2009/04/23 16:20:34.1     139   -132    205    192    280 133.6  52.1  34174  289.81 0854.44
2009/04/23 16:20:34.2     111   -249    219    273    349 155.9  43.1  34170  289.73 0854.44
2009/04/23 16:20:34.3     111   -306    145    326    356 160.0  25.3  34168  289.71 0854.44
2009/04/23 16:20:34.4     134   -271    225    303    377 153.7  40.2  34152  289.43 0854.44
2009/04/23 16:20:34.5     208   -350    111    408    424 149.3  15.3  34154  289.46 0854.44
2009/04/23 16:20:34.6     207   -359    119    415    432 150.0  16.0  34148  289.38 0854.44
2009/04/23 16:20:34.7     140   -350    165    378    412 158.2  25.1  34140  289.23 0854.44
2009/04/23 16:20:34.8     194   -341    158    393    423 150.4  23.0  34142  289.27 0854.44
2009/04/23 16:20:34.9     196   -310    144    367    394 147.7  22.5  34142  289.25 0854.44
2009/04/23 16:20:35.0     143   -261    184    298    350 151.1  35.0  34138  289.21 0854.44
2009/04/23 16:20:35.1     113   -249    149    274    311 155.5  31.3  34144  289.31 0854.44
2009/04/23 16:20:35.2     150   -271    103    311    328 151.0  18.5  34142  289.27 0854.44
2009/04/23 16:20:35.3     151   -415    111    442    456 159.9  14.2  34146  289.34 0854.44
2009/04/23 16:20:35.4     131   -355    160    379    411 159.7  24.2  34156  289.52 0854.44
2009/04/23 16:20:35.5     222   -354    181    419    456 147.9  25.0  34154  289.46 0854.44
2009/04/23 16:20:35.6     131   -396    158    418    446 161.7  21.7  34152  289.44 0854.44
2009/04/23 16:20:35.7     107   -456     89    469    478 166.8  10.8  34150  289.40 0854.44
2009/04/23 16:20:35.8     193   -426    104    468    480 155.6  12.6  34156  289.50 0854.44
2009/04/23 16:20:35.9     222   -313    182    384    424 144.6  27.2  34158  289.53 0854.44
2009/04/23 16:20:36.0     150   -350    190    381    425 156.8  28.4  34142  289.27 0854.44
2009/04/23 16:20:36.1      68   -340    220    347    410 168.7  35.5  34146  289.33 0854.44
2009/04/23 16:20:36.2     157   -456     45    483    486 160.9   5.3  34148  289.37 0854.44
2009/04/23 16:20:36.3     137   -421     33    443    445 161.9   4.4  34146  289.33 0854.44
2009/04/23 16:20:36.4     110   -433    108    447    460 165.7  13.7  34152  289.43 0854.44
2009/04/23 16:20:36.5     130   -471    118    489    503 164.5  13.6  34142  289.25 0854.44
2009/04/23 16:20:36.6     170   -480     45    510    513 160.5   5.1  34140  289.23 0854.44
2009/04/23 16:20:36.7     168   -461     24    492    493 159.9   2.9  34142  289.28 0854.44
2009/04/23 16:20:36.8     133   -493     53    511    514 164.9   6.0  34150  289.40 0854.44
2009/04/23 16:20:36.9      61   -458     49    463    466 172.3   6.1  34164  289.64 0854.44
2009/04/23 16:20:37.0      83   -441     55    449    453 169.3   7.1  34140  289.24 0854.44
2009/04/23 16:20:37.1      72   -395     81    402    411 169.7  11.5  34140  289.22 0854.44
2009/04/23 16:20:37.2      43   -438     80    441    449 174.3  10.3  34140  289.24 0854.44
2009/04/23 16:20:37.3      34   -461    118    463    478 175.8  14.3  34150  289.39 0854.44
2009/04/23 16:20:37.4     -22   -477     79    478    485 182.7   9.5  34166  289.69 0854.44
2009/04/23 16:20:37.5     -32   -424     63    426    431 184.4   8.5  34162  289.61 0854.44
2009/04/23 16:20:37.6     -16   -405     73    406    413 182.3  10.2  34146  289.33 0854.44
2009/04/23 16:20:37.7       9   -402     94    403    414 178.6  13.2  34140  289.22 0854.44
2009/04/23 16:20:37.8      84   -392     70    402    409 167.9   9.9  34138  289.19 0854.44
2009/04/23 16:20:37.9      83   -395     33    404    406 168.1   4.7  34140  289.22 0854.44
2009/04/23 16:20:38.0     126   -360     10    382    383 160.7   1.6  34138  289.20 0854.44
2009/04/23 16:20:38.1      73   -360    -14    368    369 168.5  -2.2  34138  289.20 0854.44
2009/04/23 16:20:38.2      64   -346     17    352    353 169.4   2.9  34140  289.23 0854.44
2009/04/23 16:20:38.3      81   -299     23    310    311 164.8   4.4  34140  289.24 0854.44
2009/04/23 16:20:38.4      63   -331     48    338    342 169.1   8.1  34126  289.01 0854.44
2009/04/23 16:20:38.5     118   -337     84    358    368 160.6  13.3  34130  289.06 0854.44
2009/04/23 16:20:38.6     109   -329     89    347    359 161.5  14.5  34126  288.98 0854.44
2009/04/23 16:20:38.7      90   -274     44    289    293 161.7   8.8  34136  289.17 0854.44
2009/04/23 16:20:38.8      81   -289     86    301    314 164.2  16.0  34128  289.02 0854.44
2009/04/23 16:20:38.9      93   -276     26    292    294 161.3   5.2  34130  289.07 0854.44
2009/04/23 16:20:39.0     126   -251     49    281    286 153.3   9.9  34126  289.00 0854.44
2009/04/23 16:20:39.1      93   -191     56    213    221 153.9  14.7  34132  289.09 0854.44
2009/04/23 16:20:39.2      97   -243    107    262    283 158.2  23.1  34128  289.03 0854.44
2009/04/23 16:20:39.3      83   -244     88    259    274 161.1  18.9  34132  289.09 0854.44
2009/04/23 16:20:39.4      71   -208     83    220    235 161.1  21.5  34132  289.09 0854.43
2009/04/23 16:20:39.5      48   -222     92    228    245 167.7  23.1  34140  289.22 0854.43
2009/04/23 16:20:39.6      70   -209    107    221    245 161.3  27.4  34136  289.15 0854.43
2009/04/23 16:20:39.7      82   -205    133    221    257 158.2  34.0  34136  289.17 0854.43
2009/04/23 16:20:39.8      60   -223    104    232    254 164.9  25.9  34140  289.24 0854.43
2009/04/23 16:20:39.9      50   -200    123    207    240 166.0  33.5  34146  289.33 0854.43
2009/04/23 16:20:40.0      41   -244     95    248    265 170.3  22.0  34148  289.37 0854.43
2009/04/23 16:20:40.1      31   -225     92    228    245 172.0  23.1  34146  289.32 0854.43
2009/04/23 16:20:40.2      32   -243    110    246    269 172.4  25.9  34154  289.47 0854.43
2009/04/23 16:20:40.3      95   -283     42    299    303 161.3   8.0  34158  289.53 0854.43
2009/04/23 16:20:40.4      87   -284     42    298    302 163.0   8.0  34158  289.53 0854.43
2009/04/23 16:20:40.5      82   -260     13    273    274 162.4   2.9  34154  289.46 0854.43
2009/04/23 16:20:40.6      91   -302     52    316    321 163.1   9.4  34152  289.42 0854.43
2009/04/23 16:20:40.7     154   -307     32    344    346 153.4   5.5  34148  289.38 0854.43
2009/04/23 16:20:40.8     193   -258     58    323    329 143.1  10.3  34132  289.10 0854.43
2009/04/23 16:20:40.9     155   -242     25    288    290 147.4   5.0  34138  289.20 0854.43
2009/04/23 16:20:41.0     189   -215     30    287    289 138.6   6.0  34140  289.24 0854.43
2009/04/23 16:20:41.1     182   -216     50    283    288 139.9  10.0  34148  289.36 0854.43
2009/04/23 16:20:41.2     222   -225    -15    317    318 135.5  -2.8  34144  289.31 0854.43
2009/04/23 16:20:41.3     166   -185     96    249    266 138.1  22.1  34146  289.32 0854.43
2009/04/23 16:20:41.4     178   -179    128    253    283 135.1  29.1  34162  289.61 0854.44
2009/04/23 16:20:41.5     184   -167    102    249    269 132.2  23.1  34148  289.36 0854.44
2009/04/23 16:20:41.6     180   -191     96    263    279 136.8  20.9  34150  289.39 0854.44
2009/04/23 16:20:41.7     124   -227     72    259    269 151.3  15.6  34138  289.20 0854.44
2009/04/23 16:20:41.8     157   -211     37    264    267 143.3   8.0  34152  289.42 0854.44
2009/04/23 16:20:41.9     154   -216     79    266    278 144.4  16.6  34148  289.36 0854.44
2009/04/23 16:20:42.0     100   -206    132    230    265 154.1  32.4  34144  289.31 0854.44
2009/04/23 16:20:42.1     188   -227     68    295    303 140.3  13.1  34152  289.44 0854.44
2009/04/23 16:20:42.2     219   -204     39    300    303 132.9   7.5  34152  289.44 0854.44
2009/04/23 16:20:42.3      39   -186      7    191    192 168.0   2.3  34152  289.45 0854.44
2009/04/23 16:20:42.4      96   -169     45    195    201 150.4  13.2  34154  289.48 0854.44
2009/04/23 16:20:42.5     119   -167     58    206    215 144.6  15.8  34154  289.48 0854.44
2009/04/23 16:20:42.6     110   -177     32    209    212 148.1   8.9  34152  289.43 0854.44
2009/04/23 16:20:42.7     120   -107     54    162    171 131.8  18.4  34154  289.48 0854.44
2009/04/23 16:20:42.8     148    -72     56    165    175 116.2  18.9  34164  289.63 0854.44
2009/04/23 16:20:42.9      90    -84     59    124    137 133.1  27.2  34164  289.63 0854.44
2009/04/23 16:20:43.0      57    -84     42    102    110 145.7  23.6  34160  289.58 0854.44
2009/04/23 16:20:43.1      72    -82     41    110    117 139.0  21.0  34164  289.63 0854.44
2009/04/23 16:20:43.2      70    -95     -5    119    120 143.5  -2.6  34162  289.60 0854.44
2009/04/23 16:20:43.3      50    -68     11     85     86 143.9   7.5  34156  289.52 0854.44
2009/04/23 16:20:43.4      71    -77      5    105    106 137.2   2.8  34160  289.58 0854.45
2009/04/23 16:20:43.5      55   -116    -16    129    131 154.5  -7.3  34156  289.52 0854.45
2009/04/23 16:20:43.6     112   -134    -19    175    177 140.1  -6.5  34152  289.43 0854.45
2009/04/23 16:20:43.7     106   -247     52    269    275 156.8  11.1  34162  289.59 0854.45
2009/04/23 16:20:43.8     126   -228    106    261    281 151.0  23.1  34154  289.46 0854.45
2009/04/23 16:20:43.9     114   -156     38    194    198 143.9  11.1  34152  289.43 0854.45
2009/04/23 16:20:44.0      85   -149     30    172    175 150.4  10.1  34158  289.53 0854.45
2009/04/23 16:20:44.1     196   -134     27    238    240 124.4   6.7  34168  289.71 0854.45
2009/04/23 16:20:44.2     102   -170     39    199    203 149.0  11.1  34154  289.46 0854.45
2009/04/23 16:20:44.3      70   -212    133    224    260 161.7  33.5  34154  289.47 0854.45
2009/04/23 16:20:44.4      25   -148    114    151    189 170.2  40.9  34160  289.57 0854.45
2009/04/23 16:20:44.5     -59   -207    136    216    255 196.0  35.5  34154  289.46 0854.45
2009/04/23 16:20:44.6     -38   -224    133    228    263 189.8  32.9  34158  289.54 0854.45
2009/04/23 16:20:44.7     -56   -208    160    216    268 195.1  40.1  34162  289.59 0854.45
2009/04/23 16:20:44.8     -32   -260    125    263    291 187.1  27.2  34160  289.58 0854.45
2009/04/23 16:20:44.9     -30   -307    164    309    349 185.6  30.2  34160  289.57 0854.45
2009/04/23 16:20:45.0     -32   -267    125    269    296 186.9  27.0  34160  289.58 0854.45
2009/04/23 16:20:45.1      45   -285    100    289    307 170.9  19.2  34158  289.53 0854.45
2009/04/23 16:20:45.2      23   -184     80    186    202 172.7  24.9  34160  289.58 0854.45
2009/04/23 16:20:45.3      47   -199     93    205    225 166.6  26.4  34150  289.40 0854.45
2009/04/23 16:20:45.4      44   -157    164    164    231 164.4  50.1  34174  289.80 0854.46
2009/04/23 16:20:45.5      26   -147    119    150    191 169.8  42.7  34176  289.84 0854.46
2009/04/23 16:20:45.6      31   -153    144    157    213 168.5  47.7  34172  289.77 0854.46
2009/04/23 16:20:45.7      19   -158    149    160    218 172.9  47.9  34172  289.77 0854.46
2009/04/23 16:20:45.8      -6   -186    107    187    215 182.0  32.1  34166  289.67 0854.46
2009/04/23 16:20:46.0      39   -184     70    189    201 168.0  21.0  34168  289.70 0854.46
2009/04/23 16:20:46.0      52   -193     74    201    214 164.8  20.9  34166  289.67 0854.46
2009/04/23 16:20:46.1       3   -228     79    229    243 179.0  19.2  34170  289.73 0854.46
2009/04/23 16:20:46.2      16   -208    119    209    240 175.5  32.3  34168  289.72 0854.46
2009/04/23 16:20:46.3      96   -209     63    231    240 155.3  15.3  34164  289.64 0854.46
2009/04/23 16:20:46.4      12   -171    -11    172    173 175.8  -3.7  34160  289.57 0854.46
2009/04/23 16:20:46.5     -14   -188    -24    189    191 184.5  -7.3  34162  289.62 0854.46
2009/04/23 16:20:46.6      18   -204     69    205    217 174.9  18.6  34166  289.69 0854.46
2009/04/23 16:20:46.7      22   -207     65    209    220 173.7  17.4  34172  289.79 0854.46
2009/04/23 16:20:46.8      31   -185    105    188    215 170.4  31.4  34170  289.75 0854.46
2009/04/23 16:20:46.9      39   -230    145    234    275 170.3  34.8  34172  289.78 0854.46
2009/04/23 16:20:47.0      36   -189     75    193    207 169.1  22.5  34170  289.74 0854.46
2009/04/23 16:20:47.2      33   -165     40    169    174 168.4  13.5  34166  289.67 0854.46
2009/04/23 16:20:47.2      49   -150     33    159    163 161.7  12.0  34164  289.63 0854.46
2009/04/23 16:20:47.3     104   -150      9    183    184 145.3   2.9  34162  289.60 0854.46
2009/04/23 16:20:47.4     125   -141     -3    189    190 138.3  -1.2  34164  289.63 0854.46
2009/04/23 16:20:47.5      85   -149     19    172    174 150.1   6.5  34164  289.65 0854.46
2009/04/23 16:20:47.6      97   -127     38    160    165 142.6  13.5  34166  289.67 0854.46
2009/04/23 16:20:47.7     131   -156     73    204    216 139.9  20.4  34174  289.80 0854.46
2009/04/23 16:20:47.9      87   -260     64    275    283 161.5  13.1  34178  289.88 0854.46
2009/04/23 16:20:48.0      38   -222     70    226    237 170.2  17.3  34188  290.03 0854.46
2009/04/23 16:20:48.1      75   -224     39    237    241 161.5   9.5  34180  289.92 0854.46
2009/04/23 16:20:48.2     123   -210      3    244    245 149.5   0.7  34176  289.83 0854.46
2009/04/23 16:20:48.3     100   -194      3    219    220 152.8   0.8  34176  289.84 0854.46
2009/04/23 16:20:48.4     114   -179     20    213    215 147.5   5.4  34178  289.89 0854.46
2009/04/23 16:20:48.5      16   -134   -131    136    188 172.9 -53.4  34182  289.94 0854.46
2009/04/23 16:20:48.6      21   -178    -70    180    193 173.1 -26.7  34182  289.96 0854.46
2009/04/23 16:20:48.7      40   -137    -66    143    157 163.5 -30.8  34184  289.97 0854.46
2009/04/23 16:20:48.8      15   -139    -51    140    149 173.8 -25.3  34184  289.97 0854.46
2009/04/23 16:20:48.9      42   -115    -66    123    139 160.0 -35.2  34180  289.92 0854.46
2009/04/23 16:20:49.0       9    -75    -48     76     89 172.9 -39.9  34182  289.96 0854.46
2009/04/23 16:20:49.1      59   -108    -35    124    128 151.1 -20.2  34182  289.96 0854.46
2009/04/23 16:20:49.2      77   -176     46    193    199 156.4  13.5  34172  289.79 0854.46
2009/04/23 16:20:49.3      48   -201     54    207    214 166.4  14.7  34178  289.89 0854.46
2009/04/23 16:20:49.4      45   -185     34    191    195 166.2  10.3  34178  289.89 0854.46
2009/04/23 16:20:49.5      40   -198     45    203    209 168.4  12.6  34178  289.89 0854.46
2009/04/23 16:20:49.6      46   -153     54    161    170 163.1  18.6  34178  289.87 0854.46
2009/04/23 16:20:49.7      58   -172     32    182    185 161.3  10.1  34178  289.87 0854.46
2009/04/23 16:20:49.8      70   -147     14    163    164 154.5   5.2  34176  289.85 0854.46
2009/04/23 16:20:49.9      79   -211    -86    226    241 159.3 -26.4  34182  289.95 0854.46
2009/04/23 16:20:50.0      32   -208    -94    211    230 171.1 -30.1  34184  289.99 0854.46
2009/04/23 16:20:50.1     147   -296    -41    331    334 153.6  -7.2  34180  289.91 0854.46
2009/04/23 16:20:50.2      27   -251    -80    253    265 173.7 -22.8  34180  289.92 0854.46
2009/04/23 16:20:50.3     -10   -277    -93    278    293 182.2 -23.6  34182  289.95 0854.46
2009/04/23 16:20:50.4      16   -276    -77    277    288 176.6 -15.5  34188  290.05 0854.46
2009/04/23 16:20:50.5      63   -243    -51    252    258 165.3 -11.5  34188  290.03 0854.46
2009/04/23 16:20:50.6      34   -248    -20    251    252 172.0  -4.6  34188  290.03 0854.46
2009/04/23 16:20:50.7      54   -195    -26    203    205 164.4  -7.3  34178  289.87 0854.46
2009/04/23 16:20:50.8      46   -226     59    231    239 168.4  14.3  34180  289.90 0854.46
2009/04/23 16:20:50.9     169   -195    -33    259    262 139.0  -7.3  34178  289.88 0854.46
2009/04/23 16:20:51.0     169   -152      6    228    229 132.0   1.6  34182  289.96 0854.46
2009/04/23 16:20:51.1     110   -166     90    200    219 146.4  25.9  34184  289.97 0854.46
2009/04/23 16:20:51.2      -5   -204    122    205    238 181.6  33.5  34178  289.89 0854.46
2009/04/23 16:20:51.3      40   -234    148    238    280 170.3  35.2  34174  289.80 0854.46
2009/04/23 16:20:51.4      23   -265    119    267    292 174.9  25.3  34174  289.81 0854.46
2009/04/23 16:20:51.5      21   -296    170    297    342 175.8  32.4  34170  289.75 0854.46
2009/04/23 16:20:51.6      19   -245    217    246    328 175.5  46.1  34172  289.78 0854.46
2009/04/23 16:20:51.7     -15   -262    168    263    312 183.4  35.6  34174  289.80 0854.46
2009/04/23 16:20:51.8      76   -262    123    273    299 163.7  26.2  34176  289.83 0854.46
2009/04/23 16:20:51.9     131   -246     82    280    292 151.9  16.4  34166  289.66 0854.46
2009/04/23 16:20:52.0      56   -236    156    243    288 166.6  35.6  34158  289.53 0854.46
2009/04/23 16:20:52.1      53   -228     80    235    249 166.7  18.9  34164  289.64 0854.46
2009/04/23 16:20:52.2     -32   -209     94    212    231 188.9  25.3  34164  289.63 0854.46
2009/04/23 16:20:52.3      10    -99     80    100    128 173.8  43.7  34174  289.82 0854.46
2009/04/23 16:20:52.4     125    -68    135    143    196 118.8  48.2  34164  289.65 0854.46
2009/04/23 16:20:52.5      74   -137    105    157    188 151.5  36.7  34158  289.55 0854.46
2009/04/23 16:20:52.6      22   -110     83    113    140 168.4  39.7  34156  289.52 0854.46
2009/04/23 16:20:52.7     -16   -111     75    113    135 188.5  36.5  34164  289.63 0854.46
2009/04/23 16:20:52.8      -7    -99     58    100    115 184.5  33.5  34170  289.74 0854.46
2009/04/23 16:20:52.9      49    -84     27     98    102 149.7  15.8  34170  289.75 0854.46
2009/04/23 16:20:53.0      46    -98    -31    109    114 154.5 -16.0  34154  289.48 0854.46
2009/04/23 16:20:53.1      61   -130    -56    144    154 154.6 -26.4  34158  289.53 0854.46
2009/04/23 16:20:53.2      72   -137    -51    155    164 152.1 -18.3  34160  289.57 0854.46
2009/04/23 16:20:53.3      98   -193     35    217    220 152.9   9.3  34166  289.69 0854.46
2009/04/23 16:20:53.4     104   -136    -49    172    178 142.4 -20.4  34164  289.65 0854.46
2009/04/23 16:20:53.5      38   -151    -38    156    161 165.7 -13.7  34170  289.74 0854.46
2009/04/23 16:20:53.6      10   -117      1    118    119 175.1   0.7  34164  289.63 0854.46
2009/04/23 16:20:53.7      60   -124    -41    138    145 154.1 -16.6  34170  289.74 0854.46
2009/04/23 16:20:53.8     114   -201    -16    232    233 150.4  -4.1  34170  289.75 0854.46
2009/04/23 16:20:53.9     135   -181    -12    226    227 143.3  -3.2  34160  289.57 0854.46
2009/04/23 16:20:54.0     123   -186   -119    224    253 146.4 -34.7  34184  289.98 0854.46
2009/04/23 16:20:54.1     145   -154    -97    212    233 136.7 -30.8  34190  290.09 0854.46
2009/04/23 16:20:54.2     110   -110    -67    156    169 135.0 -29.3  34194  290.14 0854.46
2009/04/23 16:20:54.3      85   -110   -107    140    176 142.2 -45.8  34188  290.04 0854.46
2009/04/23 16:20:54.4     130   -155      2    203    204 140.1   0.7  34152  289.43 0854.46
2009/04/23 16:20:54.5     179   -141     53    228    235 128.2  13.2  34150  289.41 0854.46
2009/04/23 16:20:54.6     205   -207    -23    292    293 135.2  -4.6  34148  289.37 0854.46
2009/04/23 16:20:54.7     188   -212    -81    284    296 138.5 -16.0  34164  289.63 0854.46
2009/04/23 16:20:54.8     133   -261    -84    294    305 152.9 -20.7  34162  289.59 0854.46
2009/04/23 16:20:54.9     194   -194    -70    275    284 135.1 -14.4  34144  289.29 0854.46
2009/04/23 16:20:55.0     225   -163     -5    278    279 126.0  -1.2  34140  289.22 0854.46
2009/04/23 16:20:55.1     211   -134     12    250    251 122.4   2.8  34144  289.31 0854.46
2009/04/23 16:20:55.2     132   -160    -26    208    210 140.4  -7.2  34160  289.57 0854.46
2009/04/23 16:20:55.3     127   -106    -19    166    168 130.0  -6.7  34160  289.57 0854.46
2009/04/23 16:20:55.4     102    -92     43    138    145 132.2  17.3  34146  289.33 0854.46
2009/04/23 16:20:55.5      94    -85     37    128    134 132.2  16.3  34144  289.31 0854.46
2009/04/23 16:20:55.6      79    -52     86     95    128 123.3  46.9  34150  289.41 0854.46
2009/04/23 16:20:55.7      73    -79     93    108    142 137.2  45.4  34154  289.48 0854.46
2009/04/23 16:20:55.8      46   -108    101    118    155 156.8  44.8  34160  289.58 0854.46
2009/04/23 16:20:55.9      73   -123    111    144    181 149.3  41.7  34152  289.45 0854.46
2009/04/23 16:20:56.0     105   -116    120    157    197 137.7  41.4  34166  289.67 0854.46
2009/04/23 16:20:56.1       5   -213    136    214    253 178.4  35.5  34158  289.54 0854.46
2009/04/23 16:20:56.2      53   -194    167    202    262 164.6  43.8  34158  289.54 0854.46
2009/04/23 16:20:56.3      90   -190    166    211    268 154.6  42.4  34164  289.63 0854.46
2009/04/23 16:20:56.4      28   -262    185    264    322 173.8  38.4  34166  289.66 0854.46
2009/04/23 16:20:56.5      39   -310     89    313    326 172.8  15.9  34166  289.68 0854.46
2009/04/23 16:20:56.6     189   -240     60    306    312 141.7  11.1  34162  289.59 0854.46
2009/04/23 16:20:56.7     168   -228     97    284    301 143.7  18.9  34150  289.39 0854.46
2009/04/23 16:20:56.8     235   -132      5    270    271 119.3   1.2  34138  289.20 0854.46
2009/04/23 16:20:56.9     213   -180     50    280    285 130.2  10.1  34148  289.37 0854.46
2009/04/23 16:20:57.0     136   -172     65    220    230 141.5  16.6  34150  289.41 0854.46
2009/04/23 16:20:57.1      41   -125     90    132    159 161.7  37.8  34156  289.50 0854.46
2009/04/23 16:20:57.2      58    -88     82    106    134 146.6  41.7  34152  289.45 0854.46
2009/04/23 16:20:57.3      21    -46    141     51    149 154.5  79.7  34154  289.46 0854.46
2009/04/23 16:20:57.4     133    -43    141    140    198 108.2  50.1  34164  289.63 0854.46
2009/04/23 16:20:57.5     128    -42    140    135    194 108.2  50.9  34162  289.62 0854.46
2009/04/23 16:20:57.6     113    -77    124    137    184 124.2  47.1  34164  289.63 0854.46
2009/04/23 16:20:57.7      56   -218     25    226    228 165.5   6.5  34154  289.46 0854.46
2009/04/23 16:20:57.8      53   -127    -38    138    144 157.3 -15.5  34140  289.23 0854.46
2009/04/23 16:20:57.9     -95   -158     14    185    186 211.0   4.6  34148  289.38 0854.46
2009/04/23 16:20:58.0      78   -182     14    199    200 156.8   4.2  34154  289.48 0854.46
2009/04/23 16:20:58.1     141   -121    -29    187    190 130.7  -8.8  34158  289.53 0854.46
2009/04/23 16:20:58.2     103   -120     12    159    160 139.5   4.6  34156  289.52 0854.46
2009/04/23 16:20:58.3     142   -148     88    206    224 136.3  24.6  34152  289.45 0854.46
2009/04/23 16:20:58.4      74   -148    107    166    197 153.5  35.7  34164  289.63 0854.46
2009/04/23 16:20:58.5     -17    -66    111     69    130 195.1  64.7  34172  289.79 0854.46
2009/04/23 16:20:58.6    -104     70     30    126    130 304.1  13.7  34158  289.53 0854.46
2009/04/23 16:20:58.7     -18     39    110     44    118 334.6  77.1  34160  289.58 0854.46
2009/04/23 16:20:58.8      98     12     98     99    139  82.5  50.0  34156  289.50 0854.46
2009/04/23 16:20:58.9      75     41     95     86    128  61.1  53.3  34162  289.62 0854.46
2009/04/23 16:20:59.0     -17    -54     77     57     95 198.3  60.0  34170  289.75 0854.46
2009/04/23 16:20:59.1      20     -1     32     21     38  94.4  64.6  34174  289.82 0854.46
2009/04/23 16:20:59.2      33     18     19     38     42  61.1  28.2  34170  289.74 0854.46
2009/04/23 16:20:59.3       2     18      0     19     20   8.0  -2.2  34164  289.63 0854.46
2009/04/23 16:20:59.4      -7      0    -22      8     23 270.0 -85.6  34160  289.58 0854.46
2009/04/23 16:20:59.5     -34     -5    -17     35     38 260.3 -31.6  34168  289.70 0854.46
2009/04/23 16:20:59.6     -69    -87     25    112    115 218.3  12.6  34152  289.45 0854.46
2009/04/23 16:20:59.7     -77   -148    -47    168    174 207.6 -20.4  34150  289.41 0854.46
2009/04/23 16:20:59.8    -116   -133   -129    177    219 221.0 -44.1  34142  289.28 0854.46
2009/04/23 16:20:59.9      -9     28   -127     30    130 341.3 -90.0  34156  289.50 0854.46
2009/04/23 16:21:00.0     112     99   -100    150    180  48.6 -41.4  34152  289.43 0854.46
2009/04/23 16:21:00.1     177     98    -90    203    222  60.9 -29.6  34150  289.40 0854.46
2009/04/23 16:21:00.2     203    109    -66    231    240  61.6 -20.7  34144  289.29 0854.46
2009/04/23 16:21:00.3     181    107     -7    211    212  59.3  -2.1  34144  289.30 0854.46
2009/04/23 16:21:00.4     186     60     76    196    210  72.1  22.3  34144  289.31 0854.46
2009/04/23 16:21:00.5     193    -36     91    197    217 100.8  26.6  34142  289.28 0854.46
2009/04/23 16:21:00.6     171    -27    128    174    216  99.0  39.9  34146  289.35 0854.46
2009/04/23 16:21:00.7     184    -11    136    185    229  93.5  39.7  34148  289.38 0854.46
2009/04/23 16:21:00.8     126      0    180    127    220  90.0  61.3  34154  289.48 0854.46
2009/04/23 16:21:00.9       9     -8    113     13    113 133.3  90.0  34172  289.79 0854.46
2009/04/23 16:21:01.0     137    -40    155    143    210 106.4  52.5  34156  289.50 0854.46
2009/04/23 16:21:01.1      71    -92    123    117    169 142.2  51.2  34148  289.38 0854.46
2009/04/23 16:21:01.2      70     -5     96     71    119  94.4  60.0  34158  289.53 0854.46
2009/04/23 16:21:01.3     161    -19    107    163    194  96.8  36.0  34144  289.30 0854.46
2009/04/23 16:21:01.4     100     17     63    102    119  79.9  34.4  34152  289.43 0854.46
2009/04/23 16:21:01.5      56     31     -4     65     66  61.2  -4.1  34146  289.33 0854.46
2009/04/23 16:21:01.6      16     41    -44     45     62  21.8 -54.4  34150  289.41 0854.46
2009/04/23 16:21:01.7       0     61    -22     62     65   0.9 -23.3  34144  289.31 0854.46
2009/04/23 16:21:01.8      -1    100    -25    101    105 359.1 -13.9  34148  289.38 0854.46
2009/04/23 16:21:01.9     -47     38    -21     61     65 309.5 -19.7  34148  289.36 0854.46
2009/04/23 16:21:02.0     -91     38    -12     99    100 292.6  -7.3  34144  289.30 0854.46
2009/04/23 16:21:02.1     -66     17     -7     69     70 285.1  -6.2  34146  289.35 0854.46
2009/04/23 16:21:02.2    -103     36     49    110    120 289.5  25.2  34164  289.65 0854.46
2009/04/23 16:21:02.3     -12     38     57     40     69 342.2  61.5  34158  289.53 0854.46
2009/04/23 16:21:02.4    -105   -137     67    173    185 217.4  22.3  34156  289.52 0854.47
2009/04/23 16:21:02.5    -145   -164     -6    220    221 221.4  -1.8  34164  289.63 0854.47
2009/04/23 16:21:02.6    -125   -118      1    173    174 226.7   0.5  34156  289.52 0854.47
2009/04/23 16:21:02.7    -113   -100    -37    152    157 228.6 -13.9  34158  289.53 0854.47
2009/04/23 16:21:02.8     -91    -20    -44     94    103 257.6 -31.5  34160  289.58 0854.47
2009/04/23 16:21:02.9     -16      0    -17     17     24 270.0 -54.5  34162  289.62 0854.47
2009/04/23 16:21:03.0      15    -32    -25     36     43 154.6 -43.0  34166  289.67 0854.47
2009/04/23 16:21:03.1      32    -59    -35     68     76 151.0 -33.7  34160  289.58 0854.47
2009/04/23 16:21:03.2      63    -68    -48     93    104 137.2 -34.2  34154  289.48 0854.47
2009/04/23 16:21:03.3      33   -109    -77    114    137 163.1 -41.8  34154  289.46 0854.47
2009/04/23 16:21:03.4      68   -135    -57    152    162 153.3 -25.7  34152  289.43 0854.47
2009/04/23 16:21:03.5      93   -109    -24    144    147 139.5  -9.8  34154  289.48 0854.47
2009/04/23 16:21:03.6      53   -102    -19    116    118 152.4  -9.4  34156  289.50 0854.47
2009/04/23 16:21:03.7      72    -85     -7    112    113 139.9  -3.7  34154  289.46 0854.47
2009/04/23 16:21:03.8     104   -136    -65    172    183 142.4 -25.9  34154  289.46 0854.47
2009/04/23 16:21:03.9     153   -192    -18    246    247 141.5  -4.4  34154  289.47 0854.47
2009/04/23 16:21:04.0     219   -180    -78    284    295 129.5 -15.5  34152  289.44 0854.47
2009/04/23 16:21:04.1     182   -123     11    220    221 124.2   2.9  34154  289.48 0854.47
2009/04/23 16:21:04.2     183   -157    -57    242    249 130.5 -13.4  34156  289.49 0854.47
2009/04/23 16:21:04.3      72   -260    131    270    300 164.4  27.4  34150  289.39 0854.47
2009/04/23 16:21:04.4      33   -229    101    232    253 171.8  25.1  34154  289.47 0854.46
2009/04/23 16:21:04.5      54   -194    107    202    228 164.2  30.1  34154  289.46 0854.46
2009/04/23 16:21:04.6      72   -191    131    205    243 159.3  35.6  34158  289.55 0854.46
2009/04/23 16:21:04.7     142   -165    129    218    253 139.2  33.5  34158  289.53 0854.46
2009/04/23 16:21:04.8     220   -182    173    286    334 129.6  34.1  34156  289.51 0854.46
2009/04/23 16:21:04.9      73   -313    183    322    370 166.7  32.3  34162  289.60 0854.46
2009/04/23 16:21:05.0      56   -397    108    402    417 171.9  15.1  34164  289.63 0854.46
2009/04/23 16:21:05.1     113   -360    123    378    398 162.5  18.1  34162  289.60 0854.46
2009/04/23 16:21:05.2     192   -320    102    374    388 149.0  15.3  34158  289.54 0854.46
2009/04/23 16:21:05.3     184   -479    116    514    528 159.0  12.8  34172  289.77 0854.46
2009/04/23 16:21:05.4     256   -563     77    619    624 155.5   7.1  34166  289.69 0854.46
2009/04/23 16:21:05.5     277   -441     81    521    528 147.9   8.9  34182  289.96 0854.46
2009/04/23 16:21:05.6     182   -404    214    444    492 155.7  27.7  34188  290.06 0854.46
2009/04/23 16:21:05.7     162   -393    279    426    509 157.6  36.4  34176  289.83 0854.46
2009/04/23 16:21:05.8     226   -395    317    456    555 150.2  38.3  34164  289.63 0854.46
2009/04/23 16:21:05.9     137   -189    248    234    340 143.9  52.0  34178  289.88 0854.46
2009/04/23 16:21:06.0     139   -316    327    346    476 156.3  48.4  34174  289.82 0854.46
2009/04/23 16:21:06.1     169   -158    231    232    327 133.1  50.1  34178  289.86 0854.46
2009/04/23 16:21:06.2     273   -112     46    296    300 112.4   8.9  34176  289.83 0854.46
2009/04/23 16:21:06.3     304   -237     50    386    390 128.0   7.4  34154  289.48 0854.46
2009/04/23 16:21:06.4     334   -195     15    387    388 120.3   2.2  34162  289.59 0854.46
2009/04/23 16:21:06.5     273   -147    164    311    351 118.4  30.1  34164  289.64 0854.46
2009/04/23 16:21:06.6      24   -165    220    167    276 171.5  59.2  34166  289.68 0854.46
2009/04/23 16:21:06.7      24   -130    144    133    196 169.3  52.5  34174  289.80 0854.46
2009/04/23 16:21:06.8      54   -111     93    124    155 154.1  40.1  34166  289.67 0854.46
2009/04/23 16:21:06.9      35   -221    167    224    279 170.9  40.6  34164  289.64 0854.46
2009/04/23 16:21:07.0     153   -120     64    195    206 128.0  18.1  34164  289.65 0854.46
2009/04/23 16:21:07.1     208   -121     80    241    255 120.2  18.5  34170  289.73 0854.46
2009/04/23 16:21:07.2     190   -102     61    216    225 118.4  15.8  34170  289.74 0854.46
2009/04/23 16:21:07.3     140    -97     93    171    194 124.9  31.3  34168  289.70 0854.46
2009/04/23 16:21:07.4     184    -49    124    191    227 105.0  35.6  34172  289.77 0854.46
2009/04/23 16:21:07.5     192    -66    138    204    246 109.1  37.4  34172  289.76 0854.46
2009/04/23 16:21:07.6     -52   -198    263    205    333 194.9  58.2  34156  289.51 0854.46
2009/04/23 16:21:07.7     -81   -235    230    249    338 199.2  47.7  34168  289.70 0854.46
2009/04/23 16:21:07.8     -78   -244    253    257    360 197.8  49.9  34166  289.67 0854.46
2009/04/23 16:21:07.9     -47   -236    260    241    354 191.5  52.3  34166  289.68 0854.46
2009/04/23 16:21:08.0     -13   -164    125    165    207 184.9  41.2  34168  289.70 0854.46
2009/04/23 16:21:08.1      52   -197    142    204    248 165.1  38.4  34170  289.73 0854.46
2009/04/23 16:21:08.2      19   -266     78    267    279 175.8  16.3  34170  289.73 0854.46
2009/04/23 16:21:08.3     -64   -207    115    217    245 197.4  30.2  34172  289.76 0854.46
2009/04/23 16:21:08.4     -32   -233    -12    236    237 188.0  -3.1  34174  289.81 0854.45
2009/04/23 16:21:08.5       2   -141    -64    142    155 179.0 -30.6  34174  289.82 0854.45
2009/04/23 16:21:08.6      86    -84    -40    121    127 134.6 -23.8  34180  289.91 0854.45
2009/04/23 16:21:08.7      82    -14      3     84     85  99.7   2.3  34172  289.79 0854.45
2009/04/23 16:21:08.8      56     26     70     62     93  64.8  53.7  34172  289.79 0854.45
2009/04/23 16:21:08.9      46     63    100     79    127  36.1  57.5  34182  289.94 0854.45
2009/04/23 16:21:09.0       3     48     76     49     90   4.5  64.6  34196  290.19 0854.45
2009/04/23 16:21:09.1      38    101     59    109    123  20.9  31.3  34182  289.94 0854.45
2009/04/23 16:21:09.2      34    107     40    113    119  17.8  20.0  34178  289.89 0854.45
2009/04/23 16:21:09.3      28    149     17    152    153  10.7   6.5  34176  289.85 0854.45
2009/04/23 16:21:09.4      46    174     16    181    182  14.9   5.2  34178  289.87 0854.45
2009/04/23 16:21:09.5     -11    187     11    188    189 356.4   3.6  34180  289.92 0854.45
2009/04/23 16:21:09.6      -2    140     -9    141    142 359.1  -3.7  34182  289.96 0854.45
2009/04/23 16:21:09.7      -7    149      2    150    151 357.3   0.8  34182  289.94 0854.45
2009/04/23 16:21:09.8      59    167     80    178    195  19.6  26.2  34172  289.77 0854.45
2009/04/23 16:21:09.9      -2    131     88    132    158 359.1  37.0  34188  290.06 0854.45
2009/04/23 16:21:10.0     -10     22    130     25    132 334.6  89.6  34206  290.36 0854.45
2009/04/23 16:21:10.1     -30     10    127     32    130 288.4  86.4  34206  290.36 0854.45
2009/04/23 16:21:10.2     -26    -12    131     29    134 244.7  88.5  34214  290.48 0854.45
2009/04/23 16:21:10.3      56    -11    137     58    148 101.5  76.1  34200  290.26 0854.45
2009/04/23 16:21:10.4       0   -226    110    227    252 180.2  27.4  34176  289.85 0854.43
2009/04/23 16:21:10.5       0   -237    113    238    263 179.8  27.2  34178  289.88 0854.43
2009/04/23 16:21:10.6      43   -250    135    254    287 170.2  30.2  34184  289.98 0854.43
2009/04/23 16:21:10.7      36   -243    155    246    290 171.5  35.5  34188  290.03 0854.43
2009/04/23 16:21:10.8     -21   -283    156    284    324 184.4  31.0  34182  289.95 0854.43
2009/04/23 16:21:10.9      49   -243    209    249    325 168.4  44.3  34184  289.98 0854.43
2009/04/23 16:21:11.0      79   -291    208    302    366 164.8  37.8  34186  290.01 0854.43
2009/04/23 16:21:11.1      84   -281    154    294    331 163.3  30.0  34186  290.02 0854.43
2009/04/23 16:21:11.2     120   -273    156    299    337 156.2  29.8  34186  290.00 0854.43
2009/04/23 16:21:11.3      99   -339    125    354    375 163.7  20.2  34176  289.84 0854.43
2009/04/23 16:21:11.4     104   -374     25    389    390 164.5   3.8  34176  289.84 0854.43
2009/04/23 16:21:11.5      69   -273    -57    282    288 165.7 -11.5  34172  289.78 0854.43
2009/04/23 16:21:11.6      63   -227    -84    236    250 164.4 -24.4  34178  289.86 0854.43
2009/04/23 16:21:11.7     137   -166    -59    216    225 140.3 -15.4  34176  289.84 0854.43
2009/04/23 16:21:11.8     101   -245    -80    266    277 157.5 -21.7  34174  289.81 0854.43
2009/04/23 16:21:11.9      -3   -235    -12    236    237 180.9  -3.1  34172  289.76 0854.43
2009/04/23 16:21:12.0     -61   -219    134    228    264 195.6  33.4  34174  289.80 0854.43
2009/04/23 16:21:12.1    -111   -232    191    258    321 205.6  40.1  34162  289.61 0854.43
2009/04/23 16:21:12.2     -73   -134    128    153    199 208.5  44.1  34164  289.65 0854.43
2009/04/23 16:21:12.3      -1    -96    123     97    156 180.9  57.7  34168  289.70 0854.43
2009/04/23 16:21:12.4      87    -19    176     90    197 102.8  70.8  34194  290.16 0854.43
2009/04/23 16:21:12.5     143    -47    168    151    225 108.2  53.5  34180  289.91 0854.43
2009/04/23 16:21:12.6     226   -199    177    302    350 131.3  33.1  34162  289.62 0854.43
2009/04/23 16:21:12.7     146   -161    171    218    277 137.7  41.7  34160  289.56 0854.43
2009/04/23 16:21:12.8       1   -300    147    301    334 179.8  27.9  34160  289.58 0854.43
2009/04/23 16:21:12.9      56   -255    112    262    284 167.6  24.9  34160  289.56 0854.43
2009/04/23 16:21:13.0      21   -224     82    226    240 174.4  20.7  34162  289.61 0854.43
2009/04/23 16:21:13.1      29   -247     39    249    253 173.1   9.0  34156  289.51 0854.43
2009/04/23 16:21:13.2     191   -251    -14    316    317 142.8  -2.6  34150  289.41 0854.43
2009/04/23 16:21:13.3     216   -212    -12    303    304 134.4  -2.3  34152  289.44 0854.43
2009/04/23 16:21:13.4     246   -202    -40    319    322 129.5  -7.2  34152  289.42 0854.43
2009/04/23 16:21:13.5     194   -202     57    281    287 136.1  11.6  34152  289.42 0854.43
2009/04/23 16:21:13.6     103   -256    123    277    303 158.1  25.7  34150  289.41 0854.43
2009/04/23 16:21:13.7     122   -368    152    388    416 161.6  22.7  34158  289.53 0854.43
2009/04/23 16:21:13.8     112   -338     27    357    358 161.6   4.4  34156  289.50 0854.43
2009/04/23 16:21:13.9      77   -326      4    336    337 166.6   0.8  34156  289.50 0854.43
2009/04/23 16:21:14.0     159   -364    -21    398    399 156.4  -3.1  34152  289.45 0854.43
2009/04/23 16:21:14.1      48   -442    -24    445    446 173.8  -3.2  34164  289.65 0854.43
2009/04/23 16:21:14.2      92   -491     12    500    501 169.3   1.4  34140  289.22 0854.43
2009/04/23 16:21:14.4     131   -406     76    427    434 162.1  10.1  34142  289.27 0854.43
2009/04/23 16:21:14.5     150   -339     82    371    381 156.1  12.5  34142  289.25 0854.43
2009/04/23 16:21:14.6      56   -344     72    349    357 170.7  11.8  34146  289.35 0854.43
2009/04/23 16:21:14.7      55   -380     78    385    394 171.7  11.6  34136  289.16 0854.43
2009/04/23 16:21:14.8      56   -398     56    403    408 172.0   8.0  34136  289.17 0854.43
2009/04/23 16:21:14.9      35   -413     20    415    416 175.1   2.8  34160  289.58 0854.43
2009/04/23 16:21:15.0      13   -424     14    425    426 178.2   1.9  34156  289.49 0854.43
2009/04/23 16:21:15.1     -34   -538     30    540    541 183.6   3.2  34144  289.31 0854.43
2009/04/23 16:21:15.2     -30   -549    -45    550    552 183.1  -4.7  34134  289.13 0854.43
2009/04/23 16:21:15.3      17   -569    -82    570    576 178.2  -8.3  34134  289.14 0854.43
2009/04/23 16:21:15.4       4   -570    -31    571    572 179.5  -3.1  34150  289.41 0854.43
2009/04/23 16:21:15.5       1   -590    -11    591    592 179.9  -1.2  34146  289.34 0854.43
2009/04/23 16:21:15.6     -26   -527      9    528    529 182.9   1.0  34148  289.38 0854.43
2009/04/23 16:21:15.7       3   -554     28    555    556 179.7   2.9  34118  288.85 0854.43
2009/04/23 16:21:15.8      62   -576     17    580    581 173.8   1.7  34130  289.05 0854.43
2009/04/23 16:21:15.9      25   -579     24    580    581 177.5   2.4  34128  289.02 0854.43
2009/04/23 16:21:16.0      45   -647    106    649    658 176.0   9.3  34132  289.09 0854.43
2009/04/23 16:21:16.1      75   -597    169    602    626 172.8  15.7  34126  288.98 0854.43
2009/04/23 16:21:16.2     121   -616    122    628    640 168.9  11.0  34132  289.11 0854.43
2009/04/23 16:21:16.3       1   -595    161    596    618 179.9  15.2  34128  289.03 0854.43
2009/04/23 16:21:16.4     -88   -621    140    628    644 188.1  12.6  34128  289.03 0854.43
2009/04/23 16:21:16.5     -96   -596     63    604    608 189.2   6.0  34134  289.14 0854.43
2009/04/23 16:21:16.6     -81   -576     36    582    584 188.0   3.6  34134  289.14 0854.43
2009/04/23 16:21:16.7     -38   -568    -31    570    571 183.9  -3.2  34122  288.93 0854.43
2009/04/23 16:21:16.8      24   -534   -117    535    548 177.4 -12.4  34126  289.01 0854.43
2009/04/23 16:21:16.9      44   -477   -145    480    502 174.7 -16.8  34124  288.96 0854.43
2009/04/23 16:21:17.0      34   -478   -142    480    501 175.9 -16.5  34126  288.98 0854.43
2009/04/23 16:21:17.1      67   -488   -156    493    518 172.1 -17.6  34124  288.95 0854.43
2009/04/23 16:21:17.2     -96   -441   -172    452    483 192.3 -26.2  34136  289.15 0854.43
2009/04/23 16:21:17.3    -101   -394   -128    407    426 194.4 -22.6  34138  289.19 0854.43
2009/04/23 16:21:17.4     -75   -370   -122    378    397 191.6 -23.0  34134  289.13 0854.43
2009/04/23 16:21:17.5     -66   -369    -64    375    381 190.2  -9.8  34132  289.11 0854.43
2009/04/23 16:21:17.6     -38   -377    -65    379    385 185.8  -9.8  34132  289.11 0854.43
2009/04/23 16:21:17.7     -23   -378    -54    379    383 183.6  -8.2  34136  289.15 0854.43
2009/04/23 16:21:17.8       2   -362    -59    363    368 179.7  -9.4  34132  289.10 0854.43
2009/04/23 16:21:17.9      13   -361    -78    362    371 177.9 -12.3  34136  289.15 0854.43
2009/04/23 16:21:18.0     -16   -343    -52    344    348 182.7  -8.7  34128  289.04 0854.43
2009/04/23 16:21:18.1    -101   -373   -107    387    402 195.2 -15.5  34150  289.40 0854.43
2009/04/23 16:21:18.2    -148   -371   -110    400    415 201.8 -15.4  34148  289.38 0854.43
2009/04/23 16:21:18.3     -67   -348    -98    355    369 190.9 -15.4  34150  289.40 0854.43
2009/04/23 16:21:18.4      -1   -366    -53    367    371 180.2  -8.2  34148  289.38 0854.43
2009/04/23 16:21:18.5     -20   -368    -28    369    370 183.2  -4.4  34146  289.35 0854.43
2009/04/23 16:21:18.6     -30   -374    -48    376    380 184.6  -7.3  34148  289.37 0854.43
2009/04/23 16:21:18.7     -22   -359    -46    360    363 183.6  -7.3  34152  289.45 0854.43
2009/04/23 16:21:18.8     -22   -378    -48    379    383 183.4  -7.3  34148  289.38 0854.43
2009/04/23 16:21:18.9     -25   -370    -48    371    375 184.0  -7.5  34152  289.42 0854.43
2009/04/23 16:21:19.0     -83   -435    -40    443    445 190.8  -5.2  34146  289.33 0854.43
2009/04/23 16:21:19.1     -29   -388    -51    390    394 184.4  -7.5  34148  289.37 0854.43
2009/04/23 16:21:19.2     -37   -399    -90    401    412 185.3 -12.7  34144  289.29 0854.43
2009/04/23 16:21:19.3      -1   -430   -129    431    450 180.3 -16.7  34142  289.26 0854.43
2009/04/23 16:21:19.4    -149   -440    -67    465    470 198.7  -8.2  34146  289.35 0854.43
2009/04/23 16:21:19.5    -151   -383   -115    412    428 201.6 -15.7  34142  289.26 0854.43
2009/04/23 16:21:19.6    -174   -394   -140    431    454 203.8 -18.1  34132  289.11 0854.43
2009/04/23 16:21:19.7    -152   -361   -137    392    416 202.8 -19.3  34128  289.02 0854.43
2009/04/23 16:21:19.8    -119   -338   -123    359    379 199.5 -23.8  34124  288.96 0854.43
2009/04/23 16:21:19.9    -123   -319    -95    343    355 201.2 -20.1  34122  288.94 0854.43
2009/04/23 16:21:20.0    -175   -278   -100    329    343 212.2 -21.7  34126  289.01 0854.43
2009/04/23 16:21:20.1    -186   -293   -100    348    363 212.4 -16.0  34130  289.08 0854.43
2009/04/23 16:21:20.2    -180   -266   -110    322    341 214.2 -19.0  34130  289.08 0854.43
2009/04/23 16:21:20.3    -190   -215   -137    288    318 221.5 -31.6  34120  288.90 0854.43
2009/04/23 16:21:20.4    -178   -138   -128    226    259 232.2 -36.5  34130  289.05 0854.43
2009/04/23 16:21:20.5    -170    -96   -119    196    229 240.5 -38.6  34136  289.16 0854.43
2009/04/23 16:21:20.6    -124    -49   -120    134    179 248.3 -51.0  34134  289.14 0854.43
2009/04/23 16:21:20.7    -103    -45   -116    113    161 246.0 -55.1  34138  289.19 0854.43
2009/04/23 16:21:20.8     -52    -22   -112     57    125 246.5 -75.4  34146  289.35 0854.43
2009/04/23 16:21:20.9      18    -92    -93     94    132 168.5 -54.4  34142  289.26 0854.43
2009/04/23 16:21:21.0      42   -105   -121    114    166 158.1 -56.0  34138  289.19 0854.43
2009/04/23 16:21:21.1     -11   -181   -106    182    210 183.6 -37.5  34134  289.13 0854.43
2009/04/23 16:21:21.2      60   -195    -56    205    213 162.8 -15.5  34132  289.11 0854.43
2009/04/23 16:21:21.3      94   -230     21    249    250 157.7   5.0  34132  289.09 0854.43
2009/04/23 16:21:21.4      88   -274     -1    288    289 162.1  -0.3  34130  289.05 0854.43
2009/04/23 16:21:21.5     118   -311    -13    333    334 159.1  -2.2  34128  289.04 0854.44
2009/04/23 16:21:21.6     169   -284    -20    331    332 149.3  -3.5  34130  289.06 0854.44
2009/04/23 16:21:21.7     165   -259    -28    308    310 147.5  -5.4  34130  289.07 0854.44
2009/04/23 16:21:21.8     176   -213    -33    277    280 140.4  -6.9  34130  289.05 0854.44
2009/04/23 16:21:21.9      86   -257     13    272    273 161.5   2.8  34130  289.07 0854.44
2009/04/23 16:21:22.0       8   -167    151    168    225 177.1  46.6  34132  289.11 0854.44
2009/04/23 16:21:22.1     -39   -260    181    264    320 188.7  37.7  34138  289.19 0854.44
2009/04/23 16:21:22.2      33   -225    197    228    301 171.5  45.4  34140  289.22 0854.44
2009/04/23 16:21:22.3      51   -163    235    171    290 162.4  60.5  34148  289.36 0854.44
2009/04/23 16:21:22.4      22   -123    156    126    200 169.8  56.9  34150  289.40 0854.44
2009/04/23 16:21:22.5      30   -150    239    154    284 168.4  64.6  34156  289.49 0854.44
2009/04/23 16:21:22.6      91   -284    260    299    396 162.2  45.6  34150  289.40 0854.44
2009/04/23 16:21:22.7      47   -248    234    253    344 169.1  47.6  34178  289.86 0854.44
2009/04/23 16:21:22.8       0   -162    245    163    294 180.2  63.2  34184  289.98 0854.44
2009/04/23 16:21:22.9     -17     25    115     31    119 325.7  84.8  34180  289.91 0854.44
2009/04/23 16:21:23.0      19    -72    178     75    193 164.9  76.3  34152  289.43 0854.44
2009/04/23 16:21:23.1      55   -269    212    275    347 168.4  41.5  34146  289.34 0854.44
2009/04/23 16:21:23.2      16   -211    244    212    323 175.6  54.8  34150  289.39 0854.44
2009/04/23 16:21:23.3      65   -231     87    241    257 164.2  19.9  34142  289.25 0854.44
2009/04/23 16:21:23.4       0   -328     64    329    336 180.0  11.1  34142  289.25 0854.45
2009/04/23 16:21:23.5     -29   -428     36    429    431 183.9   4.9  34148  289.36 0854.45
2009/04/23 16:21:23.6       5   -293     98    294    311 178.9  18.5  34144  289.29 0854.45
2009/04/23 16:21:23.7      28   -293     52    295    300 174.4  10.1  34144  289.29 0854.45
2009/04/23 16:21:23.8      43   -320    -72    323    332 172.3 -12.6  34142  289.28 0854.45
2009/04/23 16:21:23.9     -68   -269     34    278    281 194.3   7.1  34138  289.19 0854.45
2009/04/23 16:21:24.0     -86   -247    -70    262    272 199.2 -15.0  34144  289.29 0854.45
2009/04/23 16:21:24.1      -7   -226    -20    227    228 181.8  -5.2  34148  289.38 0854.45
2009/04/23 16:21:24.2      36   -193    -57    197    205 169.3 -21.5  34152  289.45 0854.45
2009/04/23 16:21:24.3      54   -143    -50    154    161 159.1 -23.3  34150  289.40 0854.45
2009/04/23 16:21:24.4      60   -184     41    194    199 161.7  12.0  34152  289.45 0854.45
2009/04/23 16:21:24.5      59   -291    104    297    315 168.5  19.4  34156  289.49 0854.45
2009/04/23 16:21:24.6     118   -312     45    334    338 159.2   7.8  34152  289.45 0854.45
2009/04/23 16:21:24.7      42   -379    211    382    436 173.7  31.4  34152  289.43 0854.45
2009/04/23 16:21:24.8      35   -352    277    354    449 174.2  41.9  34158  289.53 0854.45
2009/04/23 16:21:24.9     -10   -341    214    342    403 181.8  35.1  34156  289.52 0854.45
2009/04/23 16:21:25.0     -15   -245    209    246    322 183.6  44.5  34160  289.56 0854.45
2009/04/23 16:21:25.1     -85   -195    122    213    245 203.6  32.3  34160  289.56 0854.45
2009/04/23 16:21:25.2    -134   -189     81    232    246 215.4  19.4  34162  289.59 0854.45
2009/04/23 16:21:25.3    -107   -209    -74    236    247 207.2 -22.5  34162  289.59 0854.45
2009/04/23 16:21:25.4     -96   -292    -84    308    319 198.3 -20.1  34166  289.66 0854.45
2009/04/23 16:21:25.5    -197   -404   -124    450    467 206.0 -15.5  34166  289.66 0854.45
2009/04/23 16:21:25.6    -128   -315   -105    341    357 202.2 -17.2  34162  289.60 0854.45
2009/04/23 16:21:25.7    -179   -246    -84    305    316 216.1 -20.0  34160  289.56 0854.45
2009/04/23 16:21:25.8    -150   -181    -48    236    241 219.7 -11.6  34164  289.64 0854.45
2009/04/23 16:21:25.9     -19   -192    -46    194    200 185.8 -13.4  34170  289.74 0854.45
2009/04/23 16:21:26.0      19   -361    -88    362    373 177.0 -13.8  34162  289.59 0854.45
2009/04/23 16:21:26.1      45   -447    -76    450    457 174.2  -9.6  34164  289.63 0854.45
2009/04/23 16:21:26.2      37   -436    -87    438    447 175.1 -11.3  34158  289.55 0854.45
2009/04/23 16:21:26.3      33   -304     13    306    307 173.8   2.5  34158  289.54 0854.45
2009/04/23 16:21:26.4     174   -373    -43    412    415 155.0  -6.1  34162  289.61 0854.45
2009/04/23 16:21:26.5     166   -439    -86    470    478 159.2 -10.4  34166  289.69 0854.45
2009/04/23 16:21:26.6      29   -308   -126    310    334 174.6 -27.8  34200  290.26 0854.45
2009/04/23 16:21:26.7     189   -287    -98    344    358 146.6 -16.0  34172  289.77 0854.45
2009/04/23 16:21:26.8     -23    -69   -138     73    156 198.7 -74.2  34190  290.08 0854.45
2009/04/23 16:21:26.9    -153     46   -176    160    237 286.8 -57.6  34188  290.04 0854.45
2009/04/23 16:21:27.0    -397     29    -51    399    403 274.3  -7.3  34182  289.94 0854.45
2009/04/23 16:21:27.1    -239    -91    -74    256    266 249.1 -20.8  34194  290.14 0854.45
2009/04/23 16:21:27.2    -134   -105    -60    171    182 231.8 -19.6  34190  290.09 0854.45
2009/04/23 16:21:27.3    -311   -138   -156    341    374 246.0 -30.7  34178  289.87 0854.45
2009/04/23 16:21:27.4    -446   -153   -121    472    488 251.0 -14.4  34186  290.01 0854.48
2009/04/23 16:21:27.5    -421   -341   -113    542    554 231.0 -11.8  34156  289.51 0854.48
2009/04/23 16:21:27.6    -484   -327    -96    585    593 235.9  -9.3  34158  289.54 0854.48
2009/04/23 16:21:27.7    -404   -353    120    537    551 228.8  12.6  34164  289.63 0854.48
2009/04/23 16:21:27.8    -379   -311    115    491    505 230.7  13.2  34178  289.89 0854.48
2009/04/23 16:21:27.9    -425   -196    120    469    485 245.2  14.4  34182  289.96 0854.48
2009/04/23 16:21:28.0    -549   -194    -47    583    586 250.5  -4.7  34146  289.34 0854.48
2009/04/23 16:21:28.1    -418   -221     65    474    479 242.1   7.9  34168  289.71 0854.48
2009/04/23 16:21:28.2    -614   -211    -50    650    653 251.0  -4.5  34126  288.98 0854.48
2009/04/23 16:21:28.3    -619   -102   -187    628    656 260.6 -16.6  34118  288.87 0854.48
2009/04/23 16:21:28.4    -500   -204    -93    540    549 247.8  -9.8  34164  289.63 0854.48
2009/04/23 16:21:28.5    -436   -291    -82    525    532 236.3  -8.9  34158  289.55 0854.48
2009/04/23 16:21:28.6    -495   -242   -165    552    577 243.9 -16.7  34144  289.31 0854.48
2009/04/23 16:21:28.7    -462   -148   -164    486    514 252.2 -18.7  34120  288.90 0854.48
2009/04/23 16:21:28.8    -580    -48   -201    583    616 265.2 -24.3  34130  289.05 0854.48
2009/04/23 16:21:28.9    -637    -15   -226    638    676 268.6 -24.7  34124  288.95 0854.48
2009/04/23 16:21:29.0    -607      8   -187    608    636 270.8 -22.1  34136  289.15 0854.48
2009/04/23 16:21:29.1    -584     -8   -203    585    619 269.2 -24.3  34124  288.97 0854.48
2009/04/23 16:21:29.2    -514     14   -164    515    540 271.6 -22.8  34128  289.02 0854.48
2009/04/23 16:21:29.3    -501     73   -175    507    536 278.4 -24.0  34126  289.01 0854.48
2009/04/23 16:21:29.4    -426    115   -222    442    494 285.2 -33.1  34126  289.01 0854.48
2009/04/23 16:21:29.5    -416    166   -228    449    503 291.8 -33.5  34134  289.12 0854.48
2009/04/23 16:21:29.6    -413    164   -214    445    493 291.7 -31.8  34136  289.17 0854.48
2009/04/23 16:21:29.7    -394    146   -187    421    460 290.4 -30.0  34124  288.97 0854.48
2009/04/23 16:21:29.8    -371    164   -169    406    439 293.9 -28.5  34130  289.07 0854.48
2009/04/23 16:21:29.9    -320    209   -118    383    400 303.2 -22.2  34130  289.06 0854.48
2009/04/23 16:21:30.0    -334    163   -121    372    391 296.1 -23.0  34130  289.08 0854.48
2009/04/23 16:21:30.1    -303    159    -44    343    346 297.8  -7.5  34146  289.33 0854.48
2009/04/23 16:21:30.2    -302    220   -100    374    388 306.1 -15.0  34136  289.18 0854.48
2009/04/23 16:21:30.3    -241     32    -70    244    253 277.7 -20.8  34134  289.12 0854.48
2009/04/23 16:21:30.4    -275   -109   -197    297    356 248.3 -41.1  34138  289.21 0854.48
2009/04/23 16:21:30.5    -253    -47   -168    258    307 259.4 -40.4  34134  289.12 0854.48
2009/04/23 16:21:30.6    -248     40    -89    252    268 279.2 -19.4  34136  289.17 0854.48
2009/04/23 16:21:30.7    -238     75   -105    250    271 287.7 -28.5  34140  289.24 0854.48
2009/04/23 16:21:30.8    -172     76    -73    189    202 294.0 -26.4  34134  289.13 0854.48
2009/04/23 16:21:30.9    -253    139    -84    289    300 298.8 -21.0  34134  289.14 0854.48
2009/04/23 16:21:31.0    -262    123    -96    290    305 295.2 -23.8  34134  289.14 0854.48
2009/04/23 16:21:31.1    -262    113   -118    286    309 293.3 -28.0  34138  289.20 0854.48
2009/04/23 16:21:31.2    -257     73    -88    268    282 285.9 -23.8  34146  289.34 0854.48
2009/04/23 16:21:31.3    -278     74    -82    288    299 285.0 -20.7  34146  289.32 0854.48
2009/04/23 16:21:31.4    -260    154    -11    303    304 300.6  -2.2  34138  289.20 0854.48
2009/04/23 16:21:31.5    -289     96    -51    305    310 288.4  -9.6  34154  289.47 0854.48
2009/04/23 16:21:31.6    -266     51    -79    271    283 281.0 -16.4  34152  289.44 0854.48
2009/04/23 16:21:31.7    -220     44    -75    225    238 281.5 -18.6  34148  289.37 0854.48
2009/04/23 16:21:31.8    -202      2    -60    203    212 270.8 -16.6  34156  289.50 0854.48
2009/04/23 16:21:31.9    -256      1    -78    257    269 270.4 -17.0  34154  289.47 0854.48
2009/04/23 16:21:32.0    -232     -3   -101    233    253 269.1 -29.5  34158  289.53 0854.48
2009/04/23 16:21:32.1    -206    -37    -90    210    228 259.6 -29.0  34156  289.50 0854.48
2009/04/23 16:21:32.2    -189     -4    -92    190    211 268.7 -31.8  34156  289.50 0854.48
2009/04/23 16:21:32.3    -296    -25    -83    298    309 265.0 -20.2  34152  289.44 0854.48
2009/04/23 16:21:32.4    -257    -31    -71    259    268 263.0 -20.0  34154  289.47 0854.48
2009/04/23 16:21:32.5    -194     39    -55    198    205 281.5 -20.0  34160  289.58 0854.48
2009/04/23 16:21:32.6    -234    -24    -80    236    250 263.9 -18.7  34152  289.44 0854.48
2009/04/23 16:21:32.7    -247    -34    -55    250    257 262.0 -12.4  34152  289.44 0854.48
2009/04/23 16:21:32.8    -284    -39    -61    287    294 262.1 -12.2  34152  289.42 0854.48
2009/04/23 16:21:32.9    -276     -3    -80    277    288 269.2 -20.8  34156  289.51 0854.48
2009/04/23 16:21:33.0    -215    -43    -52    220    227 258.5 -13.3  34154  289.48 0854.48
2009/04/23 16:21:33.1    -244    -22    -87    246    262 264.7 -19.6  34154  289.47 0854.48
2009/04/23 16:21:33.2    -239    -35    -83    242    255 261.6 -23.8  34156  289.51 0854.48
2009/04/23 16:21:33.3    -227      3    -89    228    244 270.8 -26.5  34160  289.58 0854.48
2009/04/23 16:21:33.4    -191     14    -31    192    195 274.3  -9.4  34166  289.69 0854.48
2009/04/23 16:21:33.5    -125    -22    -35    127    132 259.9 -15.4  34164  289.65 0854.48
2009/04/23 16:21:33.6     -98    -31      4    103    104 252.3   2.3  34162  289.62 0854.48
2009/04/23 16:21:33.7     -57    -40    -18     70     73 234.9 -14.5  34160  289.57 0854.48
2009/04/23 16:21:33.8    -108     59    -45    124    131 298.9 -24.8  34158  289.53 0854.48
2009/04/23 16:21:33.9     -77     18    -32     80     86 283.3 -26.9  34158  289.53 0854.48
2009/04/23 16:21:34.0     -49    -18    -80     53     95 250.0 -68.5  34164  289.65 0854.48
2009/04/23 16:21:34.1     -18     10    -47     21     51 300.7 -78.4  34168  289.72 0854.48
2009/04/23 16:21:34.2      32      0    -15     33     36  90.8 -31.5  34176  289.84 0854.48
2009/04/23 16:21:34.3      -4    -59    -10     60     61 184.5 -10.3  34166  289.67 0854.48
2009/04/23 16:21:34.4     -10   -130    -16    131    133 184.5  -7.2  34156  289.52 0854.45
2009/04/23 16:21:34.5     -10   -138    -25    139    142 184.4 -10.3  34158  289.55 0854.45
2009/04/23 16:21:34.6     -38    -97    -27    105    109 201.4 -14.5  34154  289.46 0854.45
2009/04/23 16:21:34.7     -14    -89    -31     91     96 188.9 -23.3  34150  289.40 0854.45
2009/04/23 16:21:34.8       6   -131    -26    132    135 177.3 -11.5  34156  289.52 0854.45
2009/04/23 16:21:34.9     -32   -111    -67    116    133 196.5 -37.8  34150  289.40 0854.45
2009/04/23 16:21:35.0    -149    -50    -50    158    166 251.2 -17.6  34158  289.55 0854.45
2009/04/23 16:21:35.1    -143   -100    -67    175    187 235.1 -26.4  34166  289.69 0854.45
2009/04/23 16:21:35.2    -114    -83    -28    142    145 234.0 -11.5  34168  289.72 0854.45
2009/04/23 16:21:35.3     -85    -62     -7    106    107 233.6  -4.1  34170  289.74 0854.45
2009/04/23 16:21:35.4     -65   -118      6    136    137 209.0   2.8  34172  289.79 0854.45
2009/04/23 16:21:35.5    -102   -147    -23    180    182 214.7  -7.3  34176  289.85 0854.45
2009/04/23 16:21:35.6     -29   -211    -16    214    215 188.0  -4.4  34174  289.82 0854.45
2009/04/23 16:21:35.7      74   -225    -54    237    244 161.7 -12.9  34162  289.61 0854.45
2009/04/23 16:21:35.8     -30   -250     12    252    253 186.9   2.9  34164  289.63 0854.45
2009/04/23 16:21:35.9    -111   -206     15    235    236 208.3   3.8  34166  289.66 0854.45
2009/04/23 16:21:36.0     -29   -182     36    185    189 189.1  11.1  34162  289.62 0854.45
2009/04/23 16:21:36.1     -52   -120    -77    131    151 203.6 -37.9  34154  289.48 0854.45
2009/04/23 16:21:36.2     -35   -225    -40    228    232 188.9 -10.1  34158  289.55 0854.45
2009/04/23 16:21:36.3    -156   -188    -62    245    253 219.6 -14.4  34178  289.86 0854.45
2009/04/23 16:21:36.4     -47   -251    -18    256    257 190.6  -4.1  34166  289.68 0854.44
2009/04/23 16:21:36.5    -171   -217    -11    277    278 218.3  -2.3  34166  289.66 0854.44
2009/04/23 16:21:36.6    -199   -226    -50    302    307 221.4  -9.4  34174  289.80 0854.44
2009/04/23 16:21:36.7    -398   -143   -157    424    452 250.2 -25.5  34166  289.66 0854.44
2009/04/23 16:21:36.8    -343   -259   -147    431    455 232.9 -23.8  34160  289.56 0854.44
2009/04/23 16:21:36.9    -324   -263   -143    418    441 231.0 -23.9  34160  289.58 0854.44
2009/04/23 16:21:37.0    -339   -291   -203    447    490 229.4 -30.6  34150  289.40 0854.44
2009/04/23 16:21:37.1    -163   -255   -208    303    367 212.6 -42.1  34148  289.37 0854.44
2009/04/23 16:21:37.2    -116   -313   -216    335    398 200.4 -40.1  34146  289.35 0854.44
2009/04/23 16:21:37.3    -133   -190   -122    233    263 215.0 -34.5  34148  289.37 0854.44
2009/04/23 16:21:37.4    -158   -183   -123    243    272 220.8 -33.5  34158  289.54 0854.44
2009/04/23 16:21:37.5     -27   -243     -7    245    246 186.5  -1.8  34176  289.83 0854.44
2009/04/23 16:21:37.6     -10   -350     22    351    352 181.8   3.6  34172  289.77 0854.44
2009/04/23 16:21:37.7     -13   -412     17    413    414 181.9   2.4  34176  289.85 0854.44
2009/04/23 16:21:37.8     -32   -433     57    435    439 184.3   7.5  34174  289.80 0854.44
2009/04/23 16:21:37.9     -53   -307     67    312    320 189.8  12.1  34176  289.85 0854.44
2009/04/23 16:21:38.0     -73   -217      0    230    231 198.7   0.0  34174  289.80 0854.44
2009/04/23 16:21:38.1     -10   -204    -72    205    218 182.9 -19.4  34172  289.77 0854.44
2009/04/23 16:21:38.2     -83   -232    -17    247    248 199.8  -4.1  34176  289.85 0854.44
2009/04/23 16:21:38.3    -188   -305   -106    359    375 211.7 -16.5  34156  289.52 0854.44
2009/04/23 16:21:38.4    -127   -305    -41    331    334 202.7  -7.2  34162  289.62 0854.43
2009/04/23 16:21:38.5    -113   -395     43    412    415 196.0   6.1  34182  289.95 0854.43
2009/04/23 16:21:38.6     -86   -430     50    439    442 191.4   6.6  34176  289.85 0854.43
2009/04/23 16:21:38.7     -87   -399     49    409    412 192.4   6.9  34184  289.97 0854.43
2009/04/23 16:21:38.8     -62   -272     54    280    286 192.9  11.0  34166  289.66 0854.43
2009/04/23 16:21:38.9       4   -261     40    262    266 179.1   8.8  34176  289.85 0854.43
2009/04/23 16:21:39.0     -23   -229    106    231    254 185.8  26.4  34162  289.59 0854.43
2009/04/23 16:21:39.1    -105   -220     95    245    262 205.6  22.3  34160  289.56 0854.43
2009/04/23 16:21:39.2     -21   -164      0    166    167 187.3  -0.3  34158  289.53 0854.43
2009/04/23 16:21:39.3     -89    -56    -65    106    124 237.5 -39.4  34162  289.62 0854.43
2009/04/23 16:21:39.4     -50   -125    -80    135    156 201.8 -37.5  34162  289.62 0854.43
2009/04/23 16:21:39.5    -133   -282   -147    313    345 205.3 -31.5  34166  289.69 0854.43
2009/04/23 16:21:39.6    -255   -255   -117    361    380 225.0 -18.1  34152  289.45 0854.43
2009/04/23 16:21:39.7    -205   -259    -10    331    332 218.4  -1.9  34172  289.79 0854.43
2009/04/23 16:21:39.8     -91   -234     39    252    256 201.4   8.9  34172  289.78 0854.43
2009/04/23 16:21:39.9     -42   -218    109    223    248 190.9  28.0  34174  289.81 0854.43
2009/04/23 16:21:40.0    -129   -210     60    247    255 211.7  13.7  34176  289.83 0854.43
2009/04/23 16:21:40.1    -137   -290     33    321    323 205.3   6.0  34174  289.80 0854.43
2009/04/23 16:21:40.2    -139   -234     13    273    274 210.8   2.9  34170  289.75 0854.43
2009/04/23 16:21:40.3    -113   -260     83    284    296 203.6  16.3  34174  289.80 0854.43
2009/04/23 16:21:40.4     -90   -317    123    330    352 195.9  21.3  34180  289.91 0854.43
2009/04/23 16:21:40.5    -134   -439    162    460    488 197.0  19.4  34182  289.93 0854.43
2009/04/23 16:21:40.7     -78   -384     70    393    400 191.6  10.1  34182  289.94 0854.43
2009/04/23 16:21:40.8     -39   -270     63    273    281 188.2  13.1  34182  289.95 0854.43
2009/04/23 16:21:40.9      30   -245     87    247    262 172.9  19.4  34178  289.88 0854.43
2009/04/23 16:21:41.0     124   -283     85    310    322 156.3  15.4  34178  289.88 0854.43
2009/04/23 16:21:41.1     135   -299     55    329    334 155.7   9.5  34182  289.93 0854.43
2009/04/23 16:21:41.2     248   -220     13    332    333 131.6   2.3  34182  289.96 0854.43
2009/04/23 16:21:41.3     101   -194     12    219    220 152.4   3.1  34168  289.72 0854.43
2009/04/23 16:21:41.4      30   -299     57    301    307 174.2  10.8  34176  289.83 0854.43
2009/04/23 16:21:41.5      42   -350     90    353    365 173.0  14.4  34174  289.82 0854.43
2009/04/23 16:21:41.6     -39   -327    161    330    367 186.9  27.9  34182  289.93 0854.43
2009/04/23 16:21:41.7     -68   -351    169    358    395 191.0  27.1  34172  289.79 0854.43
2009/04/23 16:21:41.8    -116   -277     34    301    303 202.7   6.5  34170  289.75 0854.43
2009/04/23 16:21:41.9     -84   -235     31    250    252 199.8   7.1  34166  289.66 0854.43
2009/04/23 16:21:42.0      67   -179    140    192    237 159.5  39.7  34170  289.75 0854.43
2009/04/23 16:21:42.1     148   -139    153    204    255 133.1  40.7  34174  289.81 0854.43
2009/04/23 16:21:42.2      70   -106    186    128    225 146.6  62.1  34176  289.85 0854.43
2009/04/23 16:21:42.3       8    -69    148     70    163 172.9  72.9  34182  289.96 0854.43
2009/04/23 16:21:42.4     -33   -156    201    160    256 192.0  57.5  34172  289.77 0854.43
2009/04/23 16:21:42.5      14     25    175     29    177  29.0  90.0  34204  290.31 0854.43
2009/04/23 16:21:42.6      -4    -26    178     27    180 189.8  90.0  34204  290.31 0854.43
2009/04/23 16:21:42.7     -45   -134    137    142    197 198.7  49.0  34168  289.72 0854.43
2009/04/23 16:21:42.8     -15   -197     98    198    220 184.4  28.2  34168  289.72 0854.43
2009/04/23 16:21:42.9      93   -133    113    163    198 145.0  38.0  34174  289.82 0854.43
2009/04/23 16:21:43.0      28    -49    221     57    228 150.1  85.2  34200  290.26 0854.43
2009/04/23 16:21:43.1     -26    -16    163     31    165 237.5  89.8  34190  290.09 0854.43
2009/04/23 16:21:43.2     -27   -132    227    135    264 191.6  66.7  34180  289.92 0854.43
2009/04/23 16:21:43.3      62    -29     61     69     92 115.4  46.4  34182  289.96 0854.43
2009/04/23 16:21:43.4     -58   -217    -71    225    237 195.1 -17.6  34166  289.66 0854.43
2009/04/23 16:21:43.5     -48   -284      4    289    290 189.7   0.8  34166  289.68 0854.43
2009/04/23 16:21:43.6     -95   -222     98    242    261 203.2  23.1  34192  290.10 0854.43
2009/04/23 16:21:43.7     -82   -243      8    257    258 198.7   1.8  34188  290.03 0854.43
2009/04/23 16:21:43.8     -84   -196     93    214    233 203.2  25.1  34210  290.43 0854.43
2009/04/23 16:21:43.9    -157   -132     70    206    218 229.8  18.9  34212  290.47 0854.43
2009/04/23 16:21:44.0    -204    -29     18    207    208 261.9   5.2  34214  290.48 0854.43
2009/04/23 16:21:44.1    -208    -42     -4    213    214 258.6  -1.3  34206  290.36 0854.43
2009/04/23 16:21:44.2    -130     43    -39    138    144 288.6 -16.0  34198  290.21 0854.43
2009/04/23 16:21:44.3     -65     80    -65    104    122 320.8 -39.4  34196  290.19 0854.43
2009/04/23 16:21:44.4     -50     69    -82     86    118 324.4 -53.4  34198  290.23 0854.43
2009/04/23 16:21:44.5     -95     53     35    110    116 299.3  17.9  34200  290.25 0854.40
2009/04/23 16:21:44.6     -97    -36     35    104    110 249.6  18.9  34202  290.28 0854.40
2009/04/23 16:21:44.7    -114   -145     88    185    204 218.1  27.2  34208  290.40 0854.40
2009/04/23 16:21:44.8    -128   -170     95    214    234 217.0  25.3  34208  290.38 0854.40
2009/04/23 16:21:44.9     -74   -181    118    196    228 202.5  34.0  34212  290.45 0854.40
2009/04/23 16:21:45.0      -3   -202    132    203    242 181.0  36.0  34194  290.16 0854.40
2009/04/23 16:21:45.1      45   -185    111    191    220 166.2  32.9  34184  289.97 0854.40
2009/04/23 16:21:45.2      11   -356    117    357    376 178.2  18.1  34190  290.08 0854.40
2009/04/23 16:21:45.3     113   -369     84    386    396 163.0  12.3  34188  290.03 0854.40
2009/04/23 16:21:45.4      95   -397    136    409    431 166.5  18.4  34206  290.36 0854.40
2009/04/23 16:21:45.5      97   -403    104    415    428 166.4  14.2  34204  290.33 0854.40
2009/04/23 16:21:45.6      98   -385     45    398    401 165.7   6.6  34202  290.28 0854.40
2009/04/23 16:21:45.7      98   -457    151    468    492 167.9  17.9  34228  290.74 0854.40
2009/04/23 16:21:45.8     206   -424     83    472    480 154.1  10.0  34228  290.73 0854.40
2009/04/23 16:21:45.9     117   -400     48    417    420 163.7   6.6  34186  290.02 0854.40
2009/04/23 16:21:46.0     177   -394    151    432    457 155.8  20.0  34184  289.97 0854.40
2009/04/23 16:21:46.1     149   -372    233    401    463 158.2  32.9  34196  290.17 0854.40
2009/04/23 16:21:46.2      68   -174    184    187    262 158.6  49.8  34250  291.10 0854.40
2009/04/23 16:21:46.3      36   -244    270    247    365 171.5  53.0  34208  290.40 0854.40
2009/04/23 16:21:46.4      16   -151    248    152    290 173.8  65.6  34216  290.51 0854.40
2009/04/23 16:21:46.5     -24   -159    263    161    308 188.7  65.6  34216  290.51 0854.38
2009/04/23 16:21:46.6     -46   -196    278    202    343 193.4  60.5  34186  290.02 0854.38
2009/04/23 16:21:46.7    -121   -212    298    245    385 209.6  56.4  34180  289.91 0854.38
2009/04/23 16:21:46.8       4    -57    169     58    178 175.5  80.7  34180  289.92 0854.38
2009/04/23 16:21:46.9     -15    -49     95     52    108 197.8  69.3  34170  289.75 0854.38
2009/04/23 16:21:47.0      -3   -100    159    101    188 181.8  64.7  34170  289.75 0854.38
2009/04/23 16:21:47.1     -35   -252    249    255    356 188.0  49.4  34170  289.75 0854.38
2009/04/23 16:21:47.2    -159   -152    193    221    293 226.2  45.8  34160  289.58 0854.38
2009/04/23 16:21:47.3     -84     63     -4    105    106 306.9  -2.2  34166  289.69 0854.38
2009/04/23 16:21:47.4      68    130     55    147    156  27.6  21.5  34184  289.97 0854.38
2009/04/23 16:21:47.5     152      3    118    153    193  88.7  41.4  34170  289.75 0854.38
2009/04/23 16:21:47.6      86     14    193     88    212  80.3  74.0  34186  290.01 0854.38
2009/04/23 16:21:47.7      -3    -45     70     46     83 184.5  64.1  34194  290.14 0854.38
2009/04/23 16:21:47.8    -115   -230    -81    258    271 206.5 -17.6  34184  289.97 0854.38
2009/04/23 16:21:47.9      39   -117    266    124    293 161.3  73.1  34192  290.12 0854.38
2009/04/23 16:21:48.0     -67   -190    131    202    240 199.6  36.0  34196  290.19 0854.38
2009/04/23 16:21:48.1     -11   -252    -17    253    254 182.7  -3.9  34172  289.76 0854.38
2009/04/23 16:21:48.2     -66   -195     28    206    208 198.7   7.8  34178  289.87 0854.38
2009/04/23 16:21:48.3      69   -138     44    155    162 153.3  16.0  34192  290.13 0854.38
2009/04/23 16:21:48.4      55     18      0     59     60  71.4  -0.3  34192  290.11 0854.38
2009/04/23 16:21:48.5      17     -4     35     18     39 105.1  72.8  34196  290.19 0854.38
2009/04/23 16:21:48.6     -41      4     58     42     71 276.1  60.5  34206  290.35 0854.38
2009/04/23 16:21:48.7    -105    -87     71    137    154 230.4  29.3  34196  290.18 0854.38
2009/04/23 16:21:48.8     -83    -46     74     96    121 240.7  41.7  34206  290.35 0854.38
2009/04/23 16:21:48.9    -104    -88     48    137    146 229.6  19.4  34196  290.18 0854.38
2009/04/23 16:21:49.0    -193    -51    -14    200    201 255.0  -4.1  34184  289.97 0854.38
2009/04/23 16:21:49.1    -191   -139    -84    237    252 234.0 -19.7  34184  289.97 0854.38
2009/04/23 16:21:49.2    -200    -90    -68    220    230 245.6 -22.5  34170  289.75 0854.38
2009/04/23 16:21:49.3    -224      6     67    225    235 271.7  16.8  34198  290.21 0854.38
2009/04/23 16:21:49.4    -282     30     50    284    289 276.2  10.0  34204  290.32 0854.38
2009/04/23 16:21:49.5    -179      0     48    180    187 270.0  15.0  34208  290.40 0854.38
2009/04/23 16:21:49.6    -130   -107     34    169    173 230.7  11.6  34206  290.36 0854.38
2009/04/23 16:21:49.7      10    -88     29     89     94 173.3  18.4  34212  290.45 0854.38
2009/04/23 16:21:49.8      33   -100     53    106    118 161.5  28.2  34216  290.52 0854.38
2009/04/23 16:21:49.9     -34   -103     56    109    122 198.7  29.3  34208  290.38 0854.38
2009/04/23 16:21:50.0     -78    -45      5     91     92 239.8   3.3  34210  290.43 0854.38
2009/04/23 16:21:50.1       9    -42     -3     44     45 167.5  -4.1  34206  290.36 0854.38
2009/04/23 16:21:50.2      58    -11     27     60     65 101.5  26.2  34208  290.38 0854.38
2009/04/23 16:21:50.3      27      9     13     29     31  71.4  27.1  34206  290.35 0854.38
2009/04/23 16:21:50.4      23     15     11     28     30  57.6  21.0  34204  290.33 0854.40
2009/04/23 16:21:50.5      15     -4     22     16     27 105.1  60.5  34200  290.25 0854.40
2009/04/23 16:21:50.6     -31    -38     17     50     53 219.6  19.2  34202  290.28 0854.40
2009/04/23 16:21:50.7     -43      1    -15     44     47 272.6 -18.7  34188  290.04 0854.40
2009/04/23 16:21:50.8    -129    -18      1    131    132 262.1   0.8  34170  289.74 0854.40
2009/04/23 16:21:50.9    -212     37     17    216    217 280.1   4.6  34174  289.82 0854.40
2009/04/23 16:21:51.0    -137     14     79    138    159 276.1  32.4  34182  289.94 0854.40
2009/04/23 16:21:51.1     -92    -32    133     98    165 250.9  60.3  34218  290.55 0854.40
2009/04/23 16:21:51.2     -68     11    148     69    163 279.7  73.8  34234  290.84 0854.40
2009/04/23 16:21:51.3     -34     41     92     54    106 320.4  66.8  34226  290.70 0854.40
2009/04/23 16:21:51.4    -141    198    225    244    331 324.6  47.7  34216  290.51 0854.40
2009/04/23 16:21:51.5    -188    122    150    225    270 302.9  36.5  34220  290.59 0854.40
2009/04/23 16:21:51.6    -160     77    133    178    222 295.8  40.1  34230  290.77 0854.40
2009/04/23 16:21:51.7     -68     45     52     82     97 303.3  35.5  34222  290.64 0854.40
2009/04/23 16:21:51.8     -33    216    119    219    249 351.3  30.8  34216  290.51 0854.40
2009/04/23 16:21:51.9     -58    114     96    129    160 332.8  40.4  34218  290.55 0854.40
2009/04/23 16:21:52.0      45     78     60     91    109  30.3  36.0  34218  290.55 0854.40
2009/04/23 16:21:52.1       8     77     98     78    125   6.2  57.5  34238  290.89 0854.40
2009/04/23 16:21:52.2     -63    167     95    179    202 339.3  30.3  34232  290.81 0854.40
2009/04/23 16:21:52.3    -103    201     82    227    241 332.8  20.4  34232  290.78 0854.40
2009/04/23 16:21:52.4    -103    135    100    170    197 322.6  33.4  34254  291.18 0854.41
2009/04/23 16:21:52.5    -101    -79    137    129    188 232.2  52.0  34242  290.98 0854.41
2009/04/23 16:21:52.6     -52   -154     99    163    190 198.7  34.4  34208  290.38 0854.41
2009/04/23 16:21:52.7     -83   -114    111    142    180 216.0  42.0  34228  290.72 0854.41
2009/04/23 16:21:52.8      57    -58    158     82    178 135.5  70.4  34234  290.82 0854.41
2009/04/23 16:21:52.9     -30    -77    127     83    151 201.4  64.6  34228  290.72 0854.41
2009/04/23 16:21:53.0     -46     -9     91     47    102 258.5  70.8  34238  290.91 0854.41
2009/04/23 16:21:53.1      73     40     86     84    120  61.1  50.1  34230  290.77 0854.41
2009/04/23 16:21:53.2      17    -22    109     29    112 142.2  84.9  34228  290.74 0854.41
2009/04/23 16:21:53.3      10   -132    144    133    196 175.5  52.5  34198  290.23 0854.41
2009/04/23 16:21:53.4     -50     -9    115     51    125 259.4  74.9  34218  290.57 0854.41
2009/04/23 16:21:53.5     -31     84    113     90    144 339.5  57.5  34238  290.91 0854.41
2009/04/23 16:21:53.6     -22    -17    117     29    120 232.2  86.4  34238  290.89 0854.41
2009/04/23 16:21:53.7      11     54    117     56    129  11.6  72.8  34228  290.74 0854.41
2009/04/23 16:21:53.8      -4     77    122     78    144 356.4  64.6  34232  290.81 0854.41
2009/04/23 16:21:53.9      -2    -87     81     88    119 181.8  47.9  34236  290.87 0854.41
2009/04/23 16:21:54.0     -39    -80    170     90    192 205.9  69.8  34236  290.87 0854.41
2009/04/23 16:21:54.1      44   -176    144    182    232 166.0  42.4  34190  290.09 0854.41
2009/04/23 16:21:54.2      96   -176    147    201    249 151.3  39.9  34192  290.12 0854.41
2009/04/23 16:21:54.3     110   -126    160    168    232 139.0  48.5  34210  290.43 0854.41
2009/04/23 16:21:54.4     109    -60    138    125    186 118.8  53.3  34218  290.57 0854.41
2009/04/23 16:21:54.5     157    -80    195    177    263 117.1  53.2  34198  290.22 0854.41
2009/04/23 16:21:54.6      46   -165    128    172    214 164.4  40.1  34194  290.14 0854.41
2009/04/23 16:21:54.7     102   -129     90    165    187 141.7  31.0  34186  290.01 0854.41
2009/04/23 16:21:54.8      43    -97    110    107    153 155.9  50.2  34184  289.97 0854.41
2009/04/23 16:21:54.9     105   -103     57    148    158 134.4  22.0  34188  290.06 0854.41
2009/04/23 16:21:55.0      81   -112     47    139    147 144.0  18.9  34182  289.96 0854.41
2009/04/23 16:21:55.1      72   -125     62    145    157 150.1  24.3  34188  290.04 0854.41
2009/04/23 16:21:55.2      42   -155     49    161    169 164.8  17.1  34186  290.02 0854.41
2009/04/23 16:21:55.3      26   -159     66    162    174 170.7  23.4  34178  289.87 0854.41
2009/04/23 16:21:55.4      53   -179     17    187    188 163.5   5.4  34176  289.84 0854.42
2009/04/23 16:21:55.5      66   -160     18    174    176 157.5   6.1  34174  289.82 0854.42
2009/04/23 16:21:55.6     132   -229     26    265    267 150.1   5.7  34172  289.76 0854.42
2009/04/23 16:21:55.7     134   -290    107    320    338 155.1  18.6  34168  289.71 0854.42
2009/04/23 16:21:55.8      11   -247    145    248    287 177.3  33.1  34174  289.80 0854.42
2009/04/23 16:21:55.9      21   -198     90    200    219 173.8  25.9  34174  289.82 0854.42
2009/04/23 16:21:56.0       3   -140     -5    141    142 178.6  -2.2  34174  289.80 0854.42
2009/04/23 16:21:56.1     -16   -150     33    151    155 186.2  12.6  34170  289.75 0854.42
2009/04/23 16:21:56.2     -25   -234     82    236    250 186.2  19.2  34166  289.68 0854.42
2009/04/23 16:21:56.3    -103   -171    133    200    240 211.2  36.7  34170  289.74 0854.42
2009/04/23 16:21:56.4    -116   -234     66    262    271 206.3  14.3  34178  289.86 0854.42
2009/04/23 16:21:56.5    -129   -219     48    255    260 210.5  10.8  34172  289.78 0854.42
2009/04/23 16:21:56.6    -117   -200     23    232    234 210.3   5.7  34178  289.86 0854.42
2009/04/23 16:21:56.7    -141   -170     27    221    223 219.7   7.1  34188  290.06 0854.42
2009/04/23 16:21:56.8     -33   -169     30    173    176 191.3  10.1  34170  289.74 0854.42
2009/04/23 16:21:56.9     -28   -119    -13    123    124 193.4  -6.2  34172  289.77 0854.42
2009/04/23 16:21:57.0     -15    -81    -26     83     86 191.1 -22.8  34178  289.89 0854.42
2009/04/23 16:21:57.1      14    -64    -23     66     71 167.5 -19.6  34178  289.87 0854.42
2009/04/23 16:21:57.2      18    -69      8     72     73 164.9   6.9  34174  289.80 0854.42
2009/04/23 16:21:57.3       3    -50     36     51     62 175.5  39.5  34172  289.79 0854.42
2009/04/23 16:21:57.4       8     -8     36     12     37 133.1  81.0  34180  289.91 0854.44
2009/04/23 16:21:57.5      19     30     52     36     63  32.5  61.5  34186  290.01 0854.44
2009/04/23 16:21:57.6      52     19     24     56     60  70.0  24.1  34182  289.96 0854.44
2009/04/23 16:21:57.7      54    -35     57     65     86 123.3  46.4  34178  289.87 0854.44
2009/04/23 16:21:57.8      96    -32     94    102    138 108.6  47.9  34188  290.06 0854.44
2009/04/23 16:21:57.9      -5     17     52     18     55 341.3  81.2  34202  290.28 0854.44
2009/04/23 16:21:58.0     -31    -31     79     44     90 225.1  68.8  34196  290.18 0854.44
2009/04/23 16:21:58.1     -36    -90     79     98    125 201.8  43.3  34182  289.96 0854.44
2009/04/23 16:21:58.2      45    -25     86     52    100 118.9  65.7  34198  290.23 0854.44
2009/04/23 16:21:58.3      50    -16     98     53    111 108.2  69.3  34188  290.04 0854.44
2009/04/23 16:21:58.4      15     19     63     25     67  39.6  77.1  34194  290.16 0854.44
2009/04/23 16:21:58.5     -73      5      8     74     75 274.3   6.9  34190  290.09 0854.44
2009/04/23 16:21:58.6     -86      0    -28     87     92 270.0 -18.1  34194  290.14 0854.44
2009/04/23 16:21:58.7     -47     18     -8     51     52 291.7  -9.3  34196  290.18 0854.44
2009/04/23 16:21:58.8       2      9     16     10     18  11.6  64.7  34214  290.50 0854.44
2009/04/23 16:21:58.9      -9     52     21     53     57 350.2  22.0  34216  290.53 0854.44
2009/04/23 16:21:59.0     -23     36     34     43     54 327.5  42.7  34214  290.50 0854.44
2009/04/23 16:21:59.1     -36     61     24     72     76 329.3  18.4  34196  290.18 0854.44
2009/04/23 16:21:59.2     -54     46     -2     72     73 310.4  -2.2  34188  290.04 0854.44
2009/04/23 16:21:59.3     -33     47    -20     58     62 324.8 -19.7  34182  289.96 0854.44
2009/04/23 16:21:59.4     -80     59     -7    100    101 306.4  -4.1  34182  289.94 0854.46
2009/04/23 16:21:59.5     -94     97     46    136    144 315.9  18.9  34186  290.02 0854.46
2009/04/23 16:21:59.6     -70     85     59    111    125 320.4  30.3  34196  290.19 0854.46
2009/04/23 16:21:59.7     -75     79     49    110    120 316.3  25.2  34194  290.16 0854.46
2009/04/23 16:21:59.8     -54     57     38     79     87 316.7  27.2  34198  290.21 0854.46
2009/04/23 16:21:59.9     -16      5     78     17     79 288.6  88.5  34220  290.60 0854.46
2009/04/23 16:22:00.0      -4    -62    124     63    139 184.4  71.0  34216  290.52 0854.46
2009/04/23 16:22:00.1     -35     -7     90     36     96 258.5  77.6  34238  290.89 0854.46
2009/04/23 16:22:00.2       0     35     59     36     69 359.1  64.7  34230  290.77 0854.46
2009/04/23 16:22:00.3      54    -69    159     88    181 141.7  68.8  34232  290.81 0854.46
2009/04/23 16:22:00.4      12     35    137     38    142  20.0  84.8  34222  290.62 0854.46
2009/04/23 16:22:00.5      60     47    192     77    206  52.2  77.1  34230  290.77 0854.46
2009/04/23 16:22:00.6     -42     41    156     59    166 314.0  78.6  34242  290.98 0854.46
2009/04/23 16:22:00.7     -27     60     78     66    102 335.5  55.4  34200  290.26 0854.46
2009/04/23 16:22:00.8     -56     94     76    110    133 329.3  37.6  34212  290.45 0854.46
2009/04/23 16:22:00.9    -270      8     97    271    287 271.7  20.7  34240  290.93 0854.46
2009/04/23 16:22:01.0    -215     43    106    220    244 281.5  27.4  34248  291.05 0854.46
2009/04/23 16:22:01.1    -322    190    117    375    394 300.6  17.4  34242  290.98 0854.46
2009/04/23 16:22:01.2    -371    171     51    409    413 294.8   7.1  34232  290.78 0854.46
2009/04/23 16:22:01.3    -364    169     -8    402    403 295.0  -1.2  34216  290.52 0854.46
2009/04/23 16:22:01.4    -263    141     52    299    304 298.2   9.9  34208  290.39 0854.45
2009/04/23 16:22:01.5    -167    155     83    228    242 312.9  20.9  34176  289.83 0854.45
2009/04/23 16:22:01.6    -145    113     65    185    197 308.0  19.6  34164  289.63 0854.45
2009/04/23 16:22:01.7    -152     95     64    180    192 302.0  19.6  34190  290.08 0854.45
2009/04/23 16:22:01.8    -125    176     26    216    218 324.6   7.1  34182  289.96 0854.45
2009/04/23 16:22:01.9    -251    119     -2    278    279 295.4  -0.5  34188  290.03 0854.45
2009/04/23 16:22:02.0    -164    100    -34    193    197 301.3 -10.1  34216  290.52 0854.45
2009/04/23 16:22:02.1    -112    162     68    198    210 325.3  18.9  34164  289.65 0854.45
2009/04/23 16:22:02.2    -195    152     96    248    265 308.0  22.3  34172  289.78 0854.45
2009/04/23 16:22:02.3    -149    149     39    212    216 315.0  10.6  34176  289.85 0854.45
2009/04/23 16:22:02.4    -217    132     46    255    260 301.3  10.3  34178  289.88 0854.45
2009/04/23 16:22:02.5    -181    176    -26    253    255 314.2  -6.0  34182  289.93 0854.45
2009/04/23 16:22:02.6    -182     90     49    204    210 296.4  13.7  34202  290.28 0854.45
2009/04/23 16:22:02.7     -50    -19     60     54     80 249.2  53.3  34204  290.33 0854.45
2009/04/23 16:22:02.8      -8     67     40     68     78 352.9  33.5  34210  290.43 0854.45
2009/04/23 16:22:02.9      -7    115      5    116    117 356.4   2.9  34218  290.57 0854.45
2009/04/23 16:22:03.0     -76     98     24    125    128 322.1  11.1  34230  290.75 0854.45
2009/04/23 16:22:03.1     -36     65     22     75     79 331.0  16.8  34222  290.64 0854.45
2009/04/23 16:22:03.2     -83     19    -30     86     92 283.3 -19.7  34210  290.41 0854.45
2009/04/23 16:22:03.3    -184     30    -14    187    188 279.5  -4.4  34182  289.96 0854.45
2009/04/23 16:22:03.4    -242     77    -38    255    258 287.7  -8.6  34180  289.90 0854.45
2009/04/23 16:22:03.5    -284      4   -100    285    302 270.9 -24.3  34182  289.93 0854.45
2009/04/23 16:22:03.6    -232     13   -126    233    264 273.3 -35.0  34158  289.53 0854.45
2009/04/23 16:22:03.7    -199     41     52    204    211 281.7  14.3  34170  289.74 0854.45
2009/04/23 16:22:03.8    -223    103     63    246    255 294.8  14.5  34166  289.66 0854.45
2009/04/23 16:22:03.9    -180      2      7    181    182 270.8   2.5  34172  289.77 0854.45
2009/04/23 16:22:04.0    -312     48    -93    316    329 278.8 -21.4  34152  289.44 0854.45
2009/04/23 16:22:04.1    -397     42   -162    400    431 276.1 -27.6  34116  288.83 0854.45
2009/04/23 16:22:04.2    -357     40   -184    360    404 276.5 -33.6  34116  288.82 0854.45
2009/04/23 16:22:04.3    -312     92   -180    326    372 286.4 -35.8  34120  288.88 0854.45
2009/04/23 16:22:04.4    -224    -49   -184    230    294 257.6 -47.2  34144  289.29 0854.45
2009/04/23 16:22:04.5    -140   -155   -176    209    273 222.1 -48.5  34150  289.41 0854.45
2009/04/23 16:22:04.6    -179     71   -105    193    219 291.7 -35.7  34158  289.53 0854.45
2009/04/23 16:22:04.7    -126     24   -101    129    163 281.0 -46.4  34190  290.08 0854.45
2009/04/23 16:22:04.8     -55    -25   -160     61    171 244.8 -82.8  34188  290.04 0854.45
2009/04/23 16:22:04.9     -70    129   -114    147    186 331.5 -46.4  34176  289.84 0854.45
2009/04/23 16:22:05.0    -126    104    -79    164    182 309.5 -31.7  34168  289.70 0854.45
2009/04/23 16:22:05.1     -80     26    -85     85    120 288.4 -54.5  34168  289.72 0854.45
2009/04/23 16:22:05.2     -36    -65    -94     75    120 209.0 -61.9  34184  289.97 0854.45
2009/04/23 16:22:05.3      52    -96   -103    110    150 151.5 -52.3  34188  290.04 0854.45
2009/04/23 16:22:05.4      48    -46    -70     67     96 134.1 -55.1  34194  290.16 0854.46
2009/04/23 16:22:05.5      26     42    -22     50     54  31.6 -30.6  34190  290.09 0854.46
2009/04/23 16:22:05.6      94     79    -65    123    139  50.0 -34.7  34194  290.14 0854.46
2009/04/23 16:22:05.7     146     94    -54    175    183  57.1 -22.3  34190  290.08 0854.46
2009/04/23 16:22:05.8     137    107    -14    175    176  52.0  -4.9  34184  289.97 0854.46
2009/04/23 16:22:05.9      60    126     -3    140    141  25.5  -1.3  34176  289.84 0854.46
2009/04/23 16:22:06.0       3     80    -53     81     96   2.7 -40.0  34196  290.18 0854.46
2009/04/23 16:22:06.1      28    -23    -91     37     98 129.5 -81.4  34190  290.09 0854.46
2009/04/23 16:22:06.2      62    -70    -62     94    112 138.6 -40.4  34190  290.09 0854.46
2009/04/23 16:22:06.3      12    -38    -51     41     65 161.7 -60.8  34196  290.19 0854.46
2009/04/23 16:22:06.4      18    -55    -58     58     82 161.7 -54.5  34206  290.36 0854.46
2009/04/23 16:22:06.5     -34    -53    -71     64     95 212.5 -57.7  34202  290.28 0854.46
2009/04/23 16:22:06.6      32   -110    -77    115    138 163.5 -41.8  34190  290.09 0854.46
2009/04/23 16:22:06.7      74   -137    -89    157    180 151.5 -36.3  34188  290.04 0854.46
2009/04/23 16:22:06.8     116   -108   -133    159    207 133.1 -48.5  34176  289.85 0854.46
2009/04/23 16:22:07.0     213    -78    -77    227    240 110.2 -18.9  34166  289.66 0854.46
2009/04/23 16:22:07.1     197    -22    -71    199    211  96.6 -24.6  34168  289.72 0854.46
2009/04/23 16:22:07.1     211     -3    -30    212    215  91.0  -8.2  34158  289.53 0854.46
2009/04/23 16:22:07.2     176     -3    -28    177    180  91.3  -9.0  34154  289.48 0854.46
2009/04/23 16:22:07.3     122      5    -25    123    126  87.4 -11.9  34150  289.40 0854.46
2009/04/23 16:22:07.5     152     -2     -8    153    154  90.9  -3.2  34156  289.52 0854.47
2009/04/23 16:22:07.6     139    -14      0    140    141  96.1   0.2  34166  289.69 0854.47
2009/04/23 16:22:07.7     119     -5     14    120    121  92.6   6.9  34170  289.75 0854.47
2009/04/23 16:22:07.8     121    -12     38    122    128  96.1  17.3  34172  289.79 0854.47
2009/04/23 16:22:07.9     142    -74     49    161    169 117.5  17.1  34174  289.80 0854.47
2009/04/23 16:22:08.0     158    -90     35    183    187 119.8  11.0  34170  289.74 0854.47
2009/04/23 16:22:08.1     134    -63     83    149    170 115.2  31.6  34164  289.63 0854.47
2009/04/23 16:22:08.2     173   -106     43    204    209 121.5  12.0  34166  289.69 0854.47
2009/04/23 16:22:08.3     129   -138     67    190    201 137.0  20.0  34164  289.65 0854.47
2009/04/23 16:22:08.4      93   -235     51    253    259 158.4  11.6  34154  289.47 0854.47
2009/04/23 16:22:08.5     128   -222     26    257    259 150.1   6.0  34142  289.27 0854.47
2009/04/23 16:22:08.6     121   -184     38    221    225 146.6   9.9  34142  289.28 0854.47
2009/04/23 16:22:08.7      66   -184     43    196    201 160.2  12.4  34148  289.36 0854.47
2009/04/23 16:22:08.8      51   -163     41    171    176 162.4  13.7  34152  289.45 0854.47
2009/04/23 16:22:08.9      31   -158     12    162    163 168.9   4.4  34146  289.33 0854.47
2009/04/23 16:22:09.0      61   -129     33    143    147 154.6  13.1  34142  289.28 0854.47
2009/04/23 16:22:09.1      51   -106     70    118    137 154.1  33.5  34144  289.30 0854.47
2009/04/23 16:22:09.2      43   -132     85    140    163 161.7  34.2  34146  289.33 0854.47
2009/04/23 16:22:09.3      46   -127     93    136    164 160.0  37.6  34152  289.45 0854.47
2009/04/23 16:22:09.4      63    -92     80    112    137 145.7  39.5  34160  289.58 0854.47
2009/04/23 16:22:09.5      85    -22     45     88     98 104.6  28.7  34158  289.55 0854.48
2009/04/23 16:22:09.6      55    -12     61     57     83 102.4  51.6  34166  289.69 0854.48
2009/04/23 16:22:09.7      54     -7      2     55     56  97.9   2.9  34164  289.65 0854.48
2009/04/23 16:22:09.8      83      0     40     84     93  90.0  27.2  34154  289.48 0854.48
2009/04/23 16:22:09.9      44     14     30     47     55  71.6  35.5  34152  289.45 0854.48
2009/04/23 16:22:10.0      41     37     21     56     59  47.8  21.0  34148  289.36 0854.48
2009/04/23 16:22:10.1      57     40     32     70     76  54.9  27.1  34152  289.45 0854.48
2009/04/23 16:22:10.2      56      0     66     57     87  90.0  54.3  34172  289.77 0854.48
2009/04/23 16:22:10.3     -19    -35     47     41     62 209.0  53.3  34172  289.77 0854.48
2009/04/23 16:22:10.4     -70    -23     34     74     81 251.4  26.2  34176  289.84 0854.48
2009/04/23 16:22:10.5     -88    -33     37     95    101 249.2  22.5  34166  289.69 0854.48
2009/04/23 16:22:10.6     -96    -53     32    110    115 241.2  16.3  34172  289.79 0854.48
2009/04/23 16:22:10.7    -193    -75     41    208    213 248.7  11.1  34162  289.62 0854.48
2009/04/23 16:22:10.8    -135   -122     63    183    194 228.0  19.2  34162  289.60 0854.48
2009/04/23 16:22:10.9    -152   -151      0    215    216 225.3   0.2  34188  290.06 0854.48
2009/04/23 16:22:11.0    -157   -162    -14    226    227 224.1  -3.7  34178  289.89 0854.48
2009/04/23 16:22:11.1    -139   -162    -27    214    216 220.8  -7.3  34148  289.36 0854.48
2009/04/23 16:22:11.2    -108   -143    -31    180    183 217.0  -9.8  34150  289.40 0854.48
2009/04/23 16:22:11.3    -150    -60     40    162    167 248.2  13.9  34158  289.53 0854.48
2009/04/23 16:22:11.4    -175     12     94    176    199 274.1  30.6  34182  289.96 0854.48
2009/04/23 16:22:11.5    -255    -63     73    263    274 256.1  15.6  34176  289.83 0854.51
2009/04/23 16:22:11.6    -238    -65     54    247    253 254.7  12.4  34174  289.80 0854.51
2009/04/23 16:22:11.7    -151    -77     72    170    184 243.0  24.3  34180  289.92 0854.51
2009/04/23 16:22:11.8    -114   -156    155    194    248 216.1  42.7  34176  289.85 0854.51
2009/04/23 16:22:11.9     -87   -149    189    173    256 210.3  52.7  34162  289.60 0854.51
2009/04/23 16:22:12.0     -35   -189    126    193    230 190.7  35.7  34172  289.79 0854.51
2009/04/23 16:22:12.1     -75   -136    127    156    201 209.0  43.5  34190  290.08 0854.51
2009/04/23 16:22:12.2     -54   -226     96    233    252 193.6  23.6  34176  289.85 0854.51
2009/04/23 16:22:12.3     -69   -209    -12    221    222 198.5  -3.2  34166  289.67 0854.51
2009/04/23 16:22:12.4     -89   -291    108    305    323 197.0  20.2  34178  289.86 0854.51
2009/04/23 16:22:12.5     -86   -243     23    259    261 199.6   5.2  34164  289.64 0854.51
2009/04/23 16:22:12.6     -92   -299     17    314    315 197.2   3.1  34162  289.61 0854.51
2009/04/23 16:22:12.7       5   -370    -14    371    372 179.1  -2.2  34148  289.37 0854.51
2009/04/23 16:22:12.8     -92   -326   -117    339    359 195.8 -19.1  34142  289.26 0854.51
2009/04/23 16:22:12.9     -93   -461     20    471    472 191.5   2.5  34144  289.30 0854.51
2009/04/23 16:22:13.0     -33   -528     16    530    531 183.6   1.8  34142  289.28 0854.51
2009/04/23 16:22:13.1    -104   -361      4    376    377 196.1   0.7  34152  289.45 0854.51
2009/04/23 16:22:13.2     -87   -187     80    207    221 204.9  22.3  34162  289.62 0854.51
2009/04/23 16:22:13.3     -73   -222     73    234    246 198.3  17.3  34178  289.86 0854.51
2009/04/23 16:22:13.4     -64   -233    108    242    265 195.4  25.9  34176  289.83 0854.51
2009/04/23 16:22:13.5    -202   -167    130    263    293 230.4  28.2  34198  290.22 0854.51
2009/04/23 16:22:13.6     -54   -150     23    160    162 200.0   8.5  34174  289.82 0854.51
2009/04/23 16:22:13.7     -23   -187     82    189    206 187.1  25.1  34156  289.50 0854.51
2009/04/23 16:22:13.8       5   -191    122    192    227 178.4  35.5  34164  289.65 0854.51
2009/04/23 16:22:13.9      70   -148    142    164    216 154.6  45.6  34164  289.63 0854.51
2009/04/23 16:22:14.0       0   -154    130    155    202 180.4  44.3  34158  289.53 0854.51
2009/04/23 16:22:14.1      -8   -127    158    128    203 183.6  56.9  34160  289.58 0854.51
2009/04/23 16:22:14.2      16    -82    134     84    158 168.4  64.9  34168  289.72 0854.51
2009/04/23 16:22:14.3     -96   -121     83    155    175 218.3  30.6  34154  289.48 0854.51
2009/04/23 16:22:14.4     -40    -13     -9     43     45 251.4 -12.4  34158  289.53 0854.51
2009/04/23 16:22:14.5     -73     55    -38     92     99 307.3 -27.5  34148  289.38 0854.51
2009/04/23 16:22:14.6    -136     90    -59    164    174 303.5 -24.6  34150  289.40 0854.51
2009/04/23 16:22:14.7    -179     69   -107    192    219 291.1 -35.8  34148  289.38 0854.51
2009/04/23 16:22:14.8    -107     68   -127    128    180 302.5 -54.6  34164  289.63 0854.51
2009/04/23 16:22:14.9    -106     50   -118    118    166 295.4 -54.5  34200  290.26 0854.51
2009/04/23 16:22:15.0    -124    -29    -83    128    152 256.7 -40.0  34152  289.43 0854.51
2009/04/23 16:22:15.1    -120     43    -73    128    147 289.9 -35.8  34158  289.53 0854.51
2009/04/23 16:22:15.2    -172     18   -115    173    207 276.1 -41.1  34164  289.63 0854.51
2009/04/23 16:22:15.3     -99    -55    -49    114    124 241.1 -29.0  34164  289.65 0854.51
2009/04/23 16:22:15.4     -44    -53    -15     70     72 219.6 -12.4  34158  289.53 0854.51
2009/04/23 16:22:15.5      25   -148    -59    151    162 170.3 -26.7  34160  289.57 0854.50
2009/04/23 16:22:15.6      59    -82    -34    102    107 144.0 -23.6  34158  289.55 0854.50
2009/04/23 16:22:15.7      28    -98     28    103    107 164.0  15.2  34170  289.74 0854.50
2009/04/23 16:22:15.8      12    -45     39     47     61 164.0  43.8  34178  289.87 0854.50
2009/04/23 16:22:15.9      60    -16     42     63     75 105.1  35.6  34184  289.99 0854.50
2009/04/23 16:22:16.0     115    -41     97    123    156 109.9  42.4  34176  289.85 0854.50
2009/04/23 16:22:16.1     173    -25     48    175    182  98.4  15.6  34172  289.79 0854.50
2009/04/23 16:22:16.2     199    -87     98    218    239 113.5  25.9  34168  289.72 0854.50
2009/04/23 16:22:16.3     153   -107    117    187    220 125.1  35.5  34174  289.80 0854.50
2009/04/23 16:22:16.4     106    -69    110    127    168 123.3  45.4  34174  289.82 0854.50
2009/04/23 16:22:16.5     176     47     53    183    191  74.9  16.3  34168  289.72 0854.50
2009/04/23 16:22:16.6     223    125     12    256    257  60.7   2.8  34164  289.64 0854.50
2009/04/23 16:22:16.7     261    179    -67    317    325  55.5 -12.0  34166  289.66 0854.50
2009/04/23 16:22:16.8     154    232     43    279    283  33.6   8.8  34172  289.76 0854.50
2009/04/23 16:22:16.9     119    187     10    222    223  32.5   2.8  34174  289.82 0854.50
2009/04/23 16:22:17.0     118    211     52    242    248  29.2  12.2  34176  289.85 0854.50
2009/04/23 16:22:17.1     160    187     45    247    252  40.5  10.3  34168  289.71 0854.50
2009/04/23 16:22:17.2     166    221     70    277    286  36.9  14.3  34174  289.80 0854.50
2009/04/23 16:22:17.3     236    221     57    324    330  46.9  10.0  34174  289.80 0854.50
2009/04/23 16:22:17.4     125    250    -50    280    285  26.7 -10.1  34178  289.88 0854.50
2009/04/23 16:22:17.5     -34    250    -72    253    263 352.2 -20.7  34172  289.78 0854.50
2009/04/23 16:22:17.6      53    257     56    263    270  11.8  12.2  34186  290.02 0854.50
2009/04/23 16:22:17.7       1    296     46    297    301   0.2   8.8  34182  289.93 0854.50
2009/04/23 16:22:17.8     -41    196    -19    201    202 348.2  -5.6  34178  289.87 0854.50
2009/04/23 16:22:17.9      -6    138    -49    139    148 357.3 -19.7  34178  289.89 0854.50
2009/04/23 16:22:18.0      83     83     50    118    128  45.0  24.6  34176  289.84 0854.50
2009/04/23 16:22:18.1     -47    190     -2    196    197 346.0  -0.7  34178  289.87 0854.50
2009/04/23 16:22:18.2     -56    116    -43    130    136 334.1 -23.8  34176  289.85 0854.50
2009/04/23 16:22:18.3       6     17    -27     19     33  18.7 -64.9  34174  289.82 0854.50
2009/04/23 16:22:18.4      57     44     63     73     96  52.2  45.4  34178  289.89 0854.51
2009/04/23 16:22:18.5      33    172     98    176    201  10.9  31.4  34170  289.75 0854.51
2009/04/23 16:22:18.6       0    135     98    136    167   0.0  39.3  34180  289.91 0854.51
2009/04/23 16:22:18.7      11     80     59     81    100   8.0  39.7  34184  289.97 0854.51
2009/04/23 16:22:18.8      -7     44     48     45     65 350.2  52.1  34182  289.96 0854.51
2009/04/23 16:22:18.9     -11     58     20     60     64 348.5  18.9  34176  289.85 0854.51
2009/04/23 16:22:19.0     156    -21     97    158    185  98.0  34.8  34166  289.67 0854.51
2009/04/23 16:22:19.1     169     -8    106    170    200  92.8  35.0  34172  289.77 0854.51
2009/04/23 16:22:19.2     122    -40    105    129    166 108.2  43.7  34170  289.74 0854.51
2009/04/23 16:22:19.3     113   -118    176    164    240 136.3  52.2  34160  289.58 0854.51
2009/04/23 16:22:19.4      96   -146    209    176    273 146.6  56.1  34176  289.83 0854.51
2009/04/23 16:22:19.5     -56   -203    239    211    318 195.4  54.2  34178  289.86 0854.51
2009/04/23 16:22:19.6     -62   -162    212    174    274 200.9  56.4  34160  289.58 0854.51
2009/04/23 16:22:19.7      -9   -119    201    120    234 184.5  66.4  34160  289.58 0854.51
2009/04/23 16:22:19.8     -30    -86    194     92    214 199.2  72.9  34194  290.14 0854.51
2009/04/23 16:22:19.9      -4    -62    144     63    157 184.4  75.0  34178  289.87 0854.51
2009/04/23 16:22:20.0     -30    -65    148     72    164 205.4  72.1  34184  289.99 0854.51
2009/04/23 16:22:20.1     -24   -109    169    112    202 192.5  63.6  34164  289.63 0854.51
2009/04/23 16:22:20.2     -32      0    110     33    114 270.0  82.3  34178  289.87 0854.51
2009/04/23 16:22:20.3      19     32    103     38    109  30.7  79.7  34178  289.87 0854.51
2009/04/23 16:22:20.4     -18     41    100     45    109 336.4  74.0  34180  289.91 0854.50
2009/04/23 16:22:20.5      19    251    195    252    318   4.5  41.7  34156  289.49 0854.50
2009/04/23 16:22:20.6     136    451    260    472    538  16.8  31.3  34288  291.76 0854.50
2009/04/23 16:22:20.7     123    517    322    532    621  13.4  34.1  34212  290.47 0854.50
2009/04/23 16:22:20.8     386    648    204    755    783  30.8  15.1  34222  290.64 0854.50
2009/04/23 16:22:20.9     364    582    186    687    712  32.0  15.2  34196  290.18 0854.50
2009/04/23 16:22:21.0     148    730    160    745    763  11.5  12.2  34140  289.23 0854.50
2009/04/23 16:22:21.1     206    500     11    541    542  22.4   1.2  34136  289.18 0854.50
2009/04/23 16:22:21.2     200    746    188    773    796  15.0  13.7  34136  289.15 0854.50
2009/04/23 16:22:21.3     122   1027    304   1035   1079   6.8  16.4  34134  289.12 0854.50
2009/04/23 16:22:21.4    -118    855    457    864    977 352.1  30.1  34156  289.49 0854.50
2009/04/23 16:22:21.5    -379    863    315    943    995 336.3  18.5  34128  289.03 0854.50
2009/04/23 16:22:21.6    -205    786    231    813    846 345.4  15.9  34138  289.21 0854.50
2009/04/23 16:22:21.7    -267    791    314    836    893 341.3  21.7  34142  289.28 0854.50
2009/04/23 16:22:21.8     -85    742    193    747    772 353.4  14.5  34136  289.18 0854.50
2009/04/23 16:22:21.9    -336    640   -168    724    744 332.3 -13.1  34108  288.70 0854.50
2009/04/23 16:22:22.0    -289    526    -99    601    610 331.2  -9.4  34152  289.42 0854.50
2009/04/23 16:22:22.1    -281    277   -228    395    456 314.6 -37.0  34154  289.46 0854.50
2009/04/23 16:22:22.2    -111    352   -300    370    476 342.5 -47.5  34118  288.85 0854.50
2009/04/23 16:22:22.3     -51    359   -145    363    390 351.9 -27.4  34118  288.86 0854.50
2009/04/23 16:22:22.4     -59    303    -35    309    311 348.9  -6.5  34130  289.05 0854.49
2009/04/23 16:22:22.5       0    258    -52    259    265   0.0 -11.3  34126  289.00 0854.49
2009/04/23 16:22:22.6     115    226    -23    254    256  27.0  -5.2  34124  288.97 0854.49
2009/04/23 16:22:22.7       5    341     56    342    347   1.0   9.4  34134  289.13 0854.49
2009/04/23 16:22:22.8     106    300    -21    319    320  19.6  -3.8  34128  289.03 0854.49
2009/04/23 16:22:22.9     102    349    -70    364    371  16.4 -10.9  34120  288.89 0854.49
2009/04/23 16:22:23.0     -24    318    -15    320    321 355.5  -2.8  34122  288.93 0854.49
2009/04/23 16:22:23.1     -10    340    -67    341    348 358.2 -11.2  34120  288.88 0854.49
2009/04/23 16:22:23.2      37    332    -51    335    339   6.5  -8.7  34118  288.86 0854.49
2009/04/23 16:22:23.3     132    335     34    361    363  21.6   5.4  34120  288.88 0854.49
2009/04/23 16:22:23.4      79    371     14    380    381  12.0   2.2  34112  288.76 0854.49
2009/04/23 16:22:23.5     103    371     43    386    389  15.5   6.5  34122  288.94 0854.49
2009/04/23 16:22:23.6     133    322     53    349    354  22.4   8.7  34122  288.94 0854.49
2009/04/23 16:22:23.7     107    357     90    373    384  16.8  13.6  34160  289.57 0854.49
2009/04/23 16:22:23.8      76    355     77    364    373  12.1  12.0  34186  290.01 0854.49
2009/04/23 16:22:23.9     -13    445    148    446    470 358.2  18.4  34206  290.34 0854.49
2009/04/23 16:22:24.0      36    479    197    481    519   4.4  23.6  34182  289.95 0854.49
2009/04/23 16:22:24.1     238    339    183    415    453  35.1  25.2  34154  289.48 0854.49
2009/04/23 16:22:24.2     446    162    317    475    571  70.0  37.0  34180  289.92 0854.49
2009/04/23 16:22:24.3     309    307    206    436    482  45.2  27.1  34196  290.18 0854.49
2009/04/23 16:22:24.4     184    317    107    367    383  30.1  16.3  34168  289.71 0854.49
2009/04/23 16:22:24.5     221    236    -18    324    325  43.2  -3.3  34206  290.36 0854.49
2009/04/23 16:22:24.6     289    324    -62    435    440  41.8  -8.1  34184  289.97 0854.49
2009/04/23 16:22:24.7     281    143     98    316    331  62.9  17.3  34210  290.42 0854.49
2009/04/23 16:22:24.8     211     91     36    230    233  66.7   8.9  34190  290.08 0854.49
2009/04/23 16:22:24.9     158     63     -6    171    172  68.0  -2.2  34184  289.97 0854.49
2009/04/23 16:22:25.0      52    353    112    357    375   8.5  17.4  34200  290.25 0854.49
2009/04/23 16:22:25.1      14    309     42    310    313   2.7   7.8  34206  290.34 0854.49
2009/04/23 16:22:25.2      18    214      6    215    216   4.9   1.6  34200  290.26 0854.49
2009/04/23 16:22:25.3    -155    126     97    201    223 309.1  27.4  34212  290.45 0854.49
2009/04/23 16:22:25.4    -184    -56    105    193    219 252.9  31.3  34210  290.43 0854.49
2009/04/23 16:22:25.5    -158    -41    141    164    216 255.2  45.1  34216  290.52 0854.49
2009/04/23 16:22:25.6    -213     -8     76    214    228 267.6  19.6  34206  290.36 0854.49
2009/04/23 16:22:25.7    -133   -180    133    224    260 216.5  33.5  34218  290.56 0854.49
2009/04/23 16:22:25.8    -203   -163    200    261    328 231.1  41.4  34228  290.71 0854.49
2009/04/23 16:22:25.9    -207   -132    177    246    303 237.5  39.5  34218  290.56 0854.49
2009/04/23 16:22:26.0    -198    127    132    236    270 302.6  31.6  34222  290.61 0854.49
2009/04/23 16:22:26.1    -274     39     -1    277    278 278.1  -0.3  34214  290.48 0854.49
2009/04/23 16:22:26.2    -256    -29     60    258    266 263.4  13.2  34210  290.41 0854.49
2009/04/23 16:22:26.3    -269    -33    181    272    326 263.0  36.7  34200  290.24 0854.49
2009/04/23 16:22:26.4    -129   -152    171    200    263 220.5  44.8  34202  290.27 0854.50
2009/04/23 16:22:26.5    -111   -200    148    229    272 209.0  35.6  34188  290.03 0854.50
2009/04/23 16:22:26.6    -111   -133    254    174    307 219.6  62.6  34212  290.46 0854.50
2009/04/23 16:22:26.7     -35     11    238     37    240 288.2  90.0  34226  290.70 0854.50
2009/04/23 16:22:26.8     203    152    254    254    359  53.1  50.1  34198  290.22 0854.50
2009/04/23 16:22:26.9     147    212    195    259    324  34.7  40.9  34194  290.14 0854.50
2009/04/23 16:22:27.0     171    136    195    219    293  51.4  46.4  34208  290.37 0854.50
2009/04/23 16:22:27.1     173    181    162    251    298  43.7  35.6  34202  290.27 0854.50
2009/04/23 16:22:27.2      16    152    187    153    241   6.3  56.4  34226  290.69 0854.50
2009/04/23 16:22:27.3     -43    130    193    137    236 341.7  61.3  34214  290.48 0854.50
2009/04/23 16:22:27.4    -122    120     74    172    187 314.7  24.9  34206  290.35 0854.50
2009/04/23 16:22:27.5    -171     81     78    190    205 295.4  23.6  34194  290.16 0854.50
2009/04/23 16:22:27.6    -135     54     80    146    166 291.8  31.0  34208  290.38 0854.50
2009/04/23 16:22:27.7     -95     75    -71    122    141 308.2 -37.3  34184  289.99 0854.50
2009/04/23 16:22:27.8     -28     40     17     50     53 324.8  18.9  34188  290.04 0854.50
2009/04/23 16:22:27.9      -6     30     45     31     54 348.4  62.6  34200  290.25 0854.50
2009/04/23 16:22:28.0    -108    -53     66    121    137 243.8  31.3  34204  290.33 0854.50
2009/04/23 16:22:28.1     121     12     12    122    123  83.9   5.9  34192  290.13 0854.50
2009/04/23 16:22:28.2     142     70     55    159    169  63.8  19.2  34206  290.35 0854.50
2009/04/23 16:22:28.3     152    232     87    278    292  33.4  17.4  34240  290.92 0854.50
2009/04/23 16:22:28.4      35    246    126    249    279   8.1  29.1  34234  290.83 0854.49
2009/04/23 16:22:28.5     -22    223    149    225    269 354.2  36.5  34224  290.65 0854.49
2009/04/23 16:22:28.6      30    238    199    240    311   7.3  43.8  34232  290.80 0854.49
2009/04/23 16:22:28.7      20    265    149    266    304   4.5  31.4  34230  290.76 0854.49
2009/04/23 16:22:28.8     125    231     67    263    272  28.5  14.3  34224  290.65 0854.49
2009/04/23 16:22:28.9     163    -65     20    176    178 112.0   6.7  34224  290.67 0854.49
2009/04/23 16:22:29.0     174     55    154    183    239  72.3  44.5  34224  290.65 0854.49
2009/04/23 16:22:29.1     162      2    128    163    207  89.2  42.2  34218  290.55 0854.49
2009/04/23 16:22:29.2     197     38    244    201    316  79.0  56.4  34208  290.39 0854.49
2009/04/23 16:22:29.3     223     17    275    224    354  85.6  56.8  34230  290.75 0854.49
2009/04/23 16:22:29.4     314     29    267    316    413  84.7  44.5  34234  290.84 0854.49
2009/04/23 16:22:29.5     163    153     69    224    235  46.9  17.3  34310  292.13 0854.49
2009/04/23 16:22:29.6     128     60    152    142    208  64.7  52.1  34322  292.34 0854.49
2009/04/23 16:22:29.7      64     73    201     98    223  41.0  72.4  34320  292.30 0854.49
2009/04/23 16:22:29.8     136     45    219    144    262  71.6  63.9  34228  290.72 0854.49
2009/04/23 16:22:29.9     141    129    177    192    261  47.6  47.7  34246  291.04 0854.49
2009/04/23 16:22:30.0     207     37    284    211    353  79.9  59.8  34248  291.07 0854.49
2009/04/23 16:22:30.1     346    120    332    367    494  70.8  46.9  34276  291.53 0854.49
2009/04/23 16:22:30.2     424    239    280    487    561  60.6  32.4  34278  291.57 0854.49
2009/04/23 16:22:30.3     428    164    205    459    502  69.0  25.8  34266  291.36 0854.49
2009/04/23 16:22:30.4     681    235    175    721    742  70.9  13.7  34274  291.52 0854.48
2009/04/23 16:22:30.5     526     44    302    528    608  85.2  32.3  34234  290.83 0854.48
2009/04/23 16:22:30.6     540    131    198    556    590  76.3  20.4  34262  291.29 0854.48
2009/04/23 16:22:30.7     463     49    201    466    507  83.9  25.0  34218  290.56 0854.48
2009/04/23 16:22:30.8     362     30    293    364    467  85.2  43.0  34260  291.26 0854.48
2009/04/23 16:22:30.9     333    -34    302    335    451  96.0  46.8  34268  291.40 0854.48
2009/04/23 16:22:31.0     228     46     15    233    234  78.6   3.9  34254  291.16 0854.48
2009/04/23 16:22:31.1       2     43    101     44    110   2.7  75.0  34270  291.43 0854.48
2009/04/23 16:22:31.2      46     43    108     64    125  46.9  66.7  34278  291.59 0854.48
2009/04/23 16:22:31.3     268     37    236    271    359  82.1  45.6  34308  292.08 0854.48
2009/04/23 16:22:31.4     285     92    199    300    360  72.1  36.6  34248  291.06 0854.48
2009/04/23 16:22:31.5     323    -74    321    332    461 102.9  49.0  34238  290.90 0854.48
2009/04/23 16:22:31.6      87    -22    222     90    239 104.6  76.8  34248  291.06 0854.48
2009/04/23 16:22:31.7      74    -25    217     79    230 108.6  79.5  34250  291.09 0854.48
2009/04/23 16:22:31.8      84    -19    172     87    192 103.3  71.4  34276  291.55 0854.48
2009/04/23 16:22:31.9    -107     21    175    110    206 281.5  64.7  34282  291.64 0854.48
2009/04/23 16:22:32.0    -102     15    123    104    161 278.8  55.6  34270  291.43 0854.48
2009/04/23 16:22:32.1     -21    -92    127     95    158 192.9  59.4  34260  291.28 0854.48
2009/04/23 16:22:32.2     -23     28    169     37    173 320.4  88.0  34240  290.92 0854.48
2009/04/23 16:22:32.3    -119     28    116    123    169 283.3  48.5  34242  290.96 0854.48
2009/04/23 16:22:32.4      27    102    -52    106    118  15.1 -32.2  34236  290.86 0854.49
2009/04/23 16:22:32.5     111    131    -58    172    181  40.3 -23.3  34212  290.45 0854.49
2009/04/23 16:22:32.6     -79     78    -42    112    119 314.6 -25.4  34178  289.87 0854.49
2009/04/23 16:22:32.7    -168    -65    -26    181    183 248.7  -8.2  34162  289.60 0854.49
2009/04/23 16:22:32.8    -163    119     86    203    220 306.2  24.3  34206  290.36 0854.49
2009/04/23 16:22:32.9    -116    195    125    227    259 329.3  31.4  34218  290.56 0854.49
2009/04/23 16:22:33.0    -190    194     85    272    286 315.7  17.4  34222  290.63 0854.49
2009/04/23 16:22:33.2    -132    180     85    224    239 323.9  21.7  34228  290.73 0854.49
2009/04/23 16:22:33.2    -105    296     54    315    320 340.4   9.9  34210  290.42 0854.49
2009/04/23 16:22:33.4    -290    183    -58    343    348 302.3  -9.7  34192  290.13 0854.49
2009/04/23 16:22:33.5    -362    323      6    486    487 311.8   0.7  34192  290.13 0854.49
2009/04/23 16:22:33.6    -358    273     79    451    459 307.3  10.0  34192  290.11 0854.49
2009/04/23 16:22:33.7    -314    283     29    424    426 312.0   4.0  34180  289.92 0854.49
2009/04/23 16:22:33.8    -249    255   -127    357    380 315.6 -19.7  34192  290.13 0854.49
2009/04/23 16:22:33.9    -302    410    -12    510    511 323.6  -1.4  34188  290.03 0854.49
2009/04/23 16:22:34.0    -285    217   -109    359    376 307.3 -17.0  34204  290.32 0854.49
2009/04/23 16:22:34.1    -333    350      3    484    485 316.4   0.4  34196  290.17 0854.49
2009/04/23 16:22:34.2     -74     22    268     78    279 286.8  83.3  34216  290.51 0854.49
2009/04/23 16:22:34.3      42    339     52    342    346   7.1   8.7  34202  290.28 0854.49
2009/04/23 16:22:34.4     -17    280    166    281    326 356.4  33.3  34194  290.15 0854.49
2009/04/23 16:22:34.5     -61    178    185    189    264 341.1  49.4  34218  290.54 0854.47
2009/04/23 16:22:34.6     -65     69    141     95    170 316.8  62.8  34212  290.45 0854.47
2009/04/23 16:22:34.7      57    103     77    118    140  29.0  36.0  34204  290.33 0854.47
2009/04/23 16:22:34.8     105    153    127    186    225  34.5  37.6  34208  290.38 0854.47
2009/04/23 16:22:34.9      14    256     97    257    274   3.1  21.7  34208  290.39 0854.47
2009/04/23 16:22:35.0      90    191    134    212    250  25.3  35.5  34200  290.26 0854.47
2009/04/23 16:22:35.1     171    165    142    238    277  46.0  33.5  34220  290.58 0854.47
2009/04/23 16:22:35.2     101    194    172    219    278  27.6  42.0  34200  290.26 0854.47
2009/04/23 16:22:35.3      33    233    179    236    296   8.1  40.9  34216  290.51 0854.47
2009/04/23 16:22:35.4      35    376    216    378    435   5.4  32.4  34328  292.42 0854.47
2009/04/23 16:22:35.5      80    415    220    423    476  11.0  29.6  34308  292.09 0854.47
2009/04/23 16:22:35.6      16    489    243    490    546   1.9  28.2  34290  291.79 0854.47
2009/04/23 16:22:35.7      54    425    150    429    454   7.4  20.0  34284  291.67 0854.47
2009/04/23 16:22:35.8     -16    324    232    325    399 357.1  39.0  34332  292.51 0854.47
2009/04/23 16:22:35.9      -8    405    198    406    451 358.8  27.9  34286  291.70 0854.47
2009/04/23 16:22:36.0     152    216    152    265    305  35.1  32.4  34338  292.59 0854.47
2009/04/23 16:22:36.1     311    187    127    364    386  59.0  19.3  34322  292.34 0854.47
2009/04/23 16:22:36.2     302    230    194    380    426  52.7  29.2  34346  292.74 0854.47
2009/04/23 16:22:36.3     146    513     50    534    537  15.9   5.4  34284  291.69 0854.47
2009/04/23 16:22:36.4     339    409      3    532    533  39.7   0.4  34284  291.67 0854.47
2009/04/23 16:22:36.5     422    254    175    493    524  58.9  19.6  34356  292.90 0854.46
2009/04/23 16:22:36.6     428    321    105    535    546  53.1  11.1  34336  292.56 0854.46
2009/04/23 16:22:36.7     306    382     24    490    491  38.8   2.9  34266  291.37 0854.46
2009/04/23 16:22:36.8     365    427     43    562    564  40.5   4.4  34156  289.51 0854.46
2009/04/23 16:22:36.9     167    389     51    424    428  23.3   6.9  34150  289.39 0854.46
2009/04/23 16:22:37.0     -48    400    135    403    426 353.1  18.6  34156  289.49 0854.46
2009/04/23 16:22:37.1     144    370     20    398    399  21.3   2.9  34156  289.52 0854.46
2009/04/23 16:22:37.2     151    356     59    387    392  23.0   8.7  34152  289.42 0854.46
2009/04/23 16:22:37.3     -30    354     36    356    358 355.0   5.9  34152  289.42 0854.46
2009/04/23 16:22:37.4     -69    172     52    186    194 338.2  15.6  34146  289.35 0854.46
2009/04/23 16:22:37.5    -153    203     35    255    258 323.0   8.0  34148  289.36 0854.46
2009/04/23 16:22:37.6    -147    177    -64    231    240 320.4 -15.5  34168  289.70 0854.46
2009/04/23 16:22:37.7    -115    180    -93    214    233 327.4 -29.5  34156  289.50 0854.46
2009/04/23 16:22:37.8    -122    192    -20    228    229 327.5  -5.1  34148  289.38 0854.46
2009/04/23 16:22:37.9    -128    189    -64    229    238 325.9 -15.8  34148  289.37 0854.46
2009/04/23 16:22:38.0     -76    140   -131    160    206 331.5 -48.1  34138  289.21 0854.46
2009/04/23 16:22:38.1     -52    -17   -169     55    177 251.8 -85.6  34154  289.46 0854.46
2009/04/23 16:22:38.2     -35     11    -99     37    105 288.2 -83.0  34148  289.38 0854.46
2009/04/23 16:22:38.3    -171     40   -240    176    297 283.3 -64.9  34150  289.41 0854.46
2009/04/23 16:22:38.4    -101    -44   -177    111    208 246.5 -69.1  34152  289.43 0854.46
2009/04/23 16:22:38.5    -198     13   -142    199    244 273.9 -43.2  34136  289.18 0854.44
2009/04/23 16:22:38.6    -206    -34   -191    209    283 260.5 -51.5  34144  289.31 0854.44
2009/04/23 16:22:38.7    -189    -13   -192    190    270 265.9 -54.5  34144  289.29 0854.44
2009/04/23 16:22:38.8    -188    -82   -171    206    267 246.3 -48.2  34148  289.36 0854.44
2009/04/23 16:22:38.9    -155   -160   -140    223    263 224.1 -39.9  34150  289.39 0854.44
2009/04/23 16:22:39.0     -55   -113   -111    126    167 205.9 -50.2  34154  289.48 0854.44
2009/04/23 16:22:39.1      81   -198    -62    215    223 157.7 -21.0  34146  289.33 0854.44
2009/04/23 16:22:39.2     -14   -313    -66    314    321 182.6 -11.9  34168  289.71 0854.44
2009/04/23 16:22:39.3      29   -279    -10    281    282 174.0  -2.2  34170  289.75 0854.44
2009/04/23 16:22:39.4      98   -287    -38    304    307 161.1  -7.2  34162  289.61 0854.44
2009/04/23 16:22:39.5     151   -246     58    289    295 148.4  11.4  34144  289.29 0854.45
2009/04/23 16:22:39.6     122   -220     69    252    262 151.0  15.3  34140  289.24 0854.45
2009/04/23 16:22:39.7     299   -122    118    323    343 112.2  21.0  34142  289.26 0854.45
2009/04/23 16:22:39.8     261    -84    105    275    294 107.9  22.0  34144  289.29 0854.45
2009/04/23 16:22:39.9     259    -52    225    265    347 101.5  44.5  34158  289.53 0854.45
2009/04/23 16:22:40.0     293     31    172    295    341  83.9  32.9  34204  290.32 0854.45
2009/04/23 16:22:40.1     115     11    156    116    194  84.3  60.0  34230  290.75 0854.45
2009/04/23 16:22:40.2      33    -40    119     53    130 140.4  74.5  34252  291.13 0854.45
2009/04/23 16:22:40.3       2     38    119     39    125   4.4  80.7  34272  291.49 0854.45
2009/04/23 16:22:40.4     150     69    141    166    217  65.2  44.8  34278  291.59 0854.45
2009/04/23 16:22:40.5     172    102    162    201    258  59.3  43.0  34272  291.46 0854.45
2009/04/23 16:22:40.6     106     93    124    142    188  48.7  45.8  34274  291.52 0854.45
2009/04/23 16:22:40.7     122    -13     98    123    157  96.1  42.7  34322  292.34 0854.45
2009/04/23 16:22:40.8     108     60    154    124    197  60.7  57.1  34322  292.34 0854.45
2009/04/23 16:22:40.9      87    168     97    190    213  27.4  29.2  34182  289.94 0854.45
2009/04/23 16:22:41.0     132    170     81    216    230  37.8  21.0  34154  289.48 0854.45
2009/04/23 16:22:41.1      92    177     54    200    208  27.4  15.3  34138  289.21 0854.45
2009/04/23 16:22:41.2      20    176     -3    178    179   6.7  -1.3  34162  289.60 0854.45
2009/04/23 16:22:41.3     -42    125    -70    133    150 341.3 -34.2  34164  289.63 0854.45
2009/04/23 16:22:41.4      30    136    -86    140    164  12.5 -39.2  34166  289.69 0854.45
2009/04/23 16:22:41.5      81    106    -80    134    156  37.4 -38.4  34168  289.70 0854.46
2009/04/23 16:22:41.6      95     70    -93    119    151  53.6 -46.6  34166  289.67 0854.46
2009/04/23 16:22:41.7      92     48    -91    104    138  62.5 -50.2  34148  289.36 0854.46
2009/04/23 16:22:41.8     144     48      8    152    153  71.4   3.3  34150  289.41 0854.46
2009/04/23 16:22:41.9      93     59     44    111    119  57.6  22.5  34150  289.40 0854.46
2009/04/23 16:22:42.0      81     88    113    120    164  42.8  48.5  34166  289.69 0854.46
2009/04/23 16:22:42.1      46     89    112    101    150  27.2  53.3  34184  289.97 0854.46
2009/04/23 16:22:42.2      74     80     71    110    130  42.8  35.6  34166  289.67 0854.46
2009/04/23 16:22:42.3      45     55     27     72     76  39.6  20.0  34170  289.75 0854.46
2009/04/23 16:22:42.4     -49     64     41     81     90 322.6  28.7  34174  289.80 0854.46
2009/04/23 16:22:42.5     -68     76     27    103    107 318.1  14.7  34178  289.89 0854.46
2009/04/23 16:22:42.6     -51     85     53    100    113 328.8  29.8  34180  289.91 0854.46
2009/04/23 16:22:42.7     -43     64     31     78     83 325.7  22.0  34168  289.72 0854.46
2009/04/23 16:22:42.8     -55     77     11     95     96 324.4   6.9  34164  289.65 0854.46
2009/04/23 16:22:42.9     -43     68     52     81     96 327.4  35.6  34180  289.92 0854.46
2009/04/23 16:22:43.0     -11    100     76    101    126 353.3  40.7  34174  289.80 0854.46
2009/04/23 16:22:43.1     -67     74     37    101    107 317.7  20.4  34180  289.92 0854.46
2009/04/23 16:22:43.2    -137    134     19    192    194 314.4   5.9  34182  289.96 0854.46
2009/04/23 16:22:43.3    -136    107     10    174    175 308.2   3.3  34208  290.38 0854.46
2009/04/23 16:22:43.4    -117     69    -61    137    149 300.7 -30.1  34190  290.08 0854.49
2009/04/23 16:22:43.5     -97    119    -45    154    161 320.8 -16.4  34182  289.96 0854.49
2009/04/23 16:22:43.6    -117    176      0    212    213 326.2   0.2  34174  289.80 0854.49
2009/04/23 16:22:43.7    -117    183     10    218    219 327.5   2.8  34170  289.75 0854.49
2009/04/23 16:22:43.8     -62    188     -7    199    200 341.7  -2.2  34178  289.87 0854.49
2009/04/23 16:22:43.9     -27    138     41    141    147 348.9  16.3  34184  289.99 0854.49
2009/04/23 16:22:44.0     -18    128     43    130    137 351.9  18.4  34190  290.08 0854.49
2009/04/23 16:22:44.1     -10    128     30    129    133 355.5  13.1  34204  290.33 0854.49
2009/04/23 16:22:44.2     -19     83     12     86     87 346.6   8.0  34208  290.38 0854.49
2009/04/23 16:22:44.3     -66     46    -38     81     89 305.1 -31.5  34192  290.13 0854.49
2009/04/23 16:22:44.4     -98     58    -14    115    116 300.7  -7.3  34202  290.30 0854.49
2009/04/23 16:22:44.5    -112      1    -74    113    135 270.8 -40.0  34208  290.40 0854.49
2009/04/23 16:22:44.6    -156   -174   -123    234    264 221.9 -34.2  34150  289.41 0854.49
2009/04/23 16:22:44.7     -37    -44    -57     58     81 219.6 -54.4  34152  289.45 0854.49
2009/04/23 16:22:44.8    -181    115     74    215    228 302.4  19.2  34186  290.01 0854.49
2009/04/23 16:22:44.9    -240    -10    113    241    266 267.5  27.1  34236  290.85 0854.49
2009/04/23 16:22:45.0    -241    -26     57    243    250 263.8  13.2  34224  290.66 0854.49
2009/04/23 16:22:45.1    -242    -20    -37    243    246 265.2  -8.8  34224  290.65 0854.49
2009/04/23 16:22:45.2    -262    -71     -2    272    273 254.7  -0.5  34220  290.58 0854.49
2009/04/23 16:22:45.3    -293    -78     -3    304    305 255.0  -0.7  34176  289.83 0854.49
2009/04/23 16:22:45.4    -352   -169    -15    391    392 244.2  -2.2  34158  289.55 0854.50
2009/04/23 16:22:45.5    -340   -144    -26    370    371 247.0  -4.1  34182  289.93 0854.50
2009/04/23 16:22:45.6    -353   -151    -46    385    388 246.8  -6.9  34144  289.30 0854.50
2009/04/23 16:22:45.7    -268   -181    -38    324    327 236.0  -6.8  34186  290.02 0854.50
2009/04/23 16:22:45.8    -247      0    -37    248    251 270.0  -8.6  34236  290.87 0854.50
2009/04/23 16:22:45.9    -325    -79      5    335    336 256.3   0.9  34184  289.99 0854.50
2009/04/23 16:22:46.0    -288   -140    -54    321    326 244.0  -9.6  34222  290.61 0854.50
2009/04/23 16:22:46.1    -243   -213    -21    324    325 228.7  -3.8  34236  290.87 0854.50
2009/04/23 16:22:46.2    -257    -95   -106    275    294 249.6 -26.5  34234  290.83 0854.50
2009/04/23 16:22:46.3    -278   -199    -75    342    351 234.4 -12.4  34248  291.08 0854.50
2009/04/23 16:22:46.4    -240   -158    -75    288    298 236.7 -14.7  34222  290.63 0854.50
2009/04/23 16:22:46.5    -142    -41    -29    148    151 253.6 -11.3  34234  290.84 0854.50
2009/04/23 16:22:46.6    -212    -48    -70    218    228 257.2 -23.3  34234  290.82 0854.50
2009/04/23 16:22:46.7    -184   -105    -60    212    221 240.2 -15.8  34228  290.74 0854.50
2009/04/23 16:22:46.8    -217    -53    -60    224    232 256.1 -15.0  34220  290.58 0854.50
2009/04/23 16:22:46.9    -202    -46    -37    208    212 257.0 -10.3  34200  290.26 0854.50
2009/04/23 16:22:47.0    -187    -38    -42    192    197 258.3 -12.6  34198  290.21 0854.50
2009/04/23 16:22:47.1    -180   -101     67    207    218 240.7  17.9  34218  290.57 0854.50
2009/04/23 16:22:47.2    -275   -131     65    305    312 244.5  12.1  34234  290.82 0854.50
2009/04/23 16:22:47.3    -244    -60     87    252    267 256.1  19.2  34244  290.99 0854.50
2009/04/23 16:22:47.4    -329    -69     70    337    345 258.1  11.8  34262  291.32 0854.51
2009/04/23 16:22:47.5    -209    -66    120    220    250 252.5  31.0  34270  291.43 0854.51
2009/04/23 16:22:47.6    -199      8    102    200    224 272.4  29.2  34276  291.54 0854.51
2009/04/23 16:22:47.7    -200    -84     85    217    233 247.2  22.5  34252  291.13 0854.51
2009/04/23 16:22:47.8    -250    -28     68    252    262 263.4  15.2  34226  290.70 0854.51
2009/04/23 16:22:47.9    -143    132    -50    195    202 312.7 -14.5  34236  290.87 0854.51
2009/04/23 16:22:48.0    -163    113    -66    199    209 304.9 -23.8  34234  290.84 0854.51
2009/04/23 16:22:48.1    -208    -91     51    228    234 246.4  12.6  34228  290.74 0854.51
2009/04/23 16:22:48.2    -129    -42    -30    136    140 251.8 -12.4  34190  290.08 0854.51
2009/04/23 16:22:48.3     -38    -96    136    104    171 201.8  58.7  34194  290.16 0854.51
2009/04/23 16:22:48.4     -59   -125    180    139    227 205.3  58.5  34208  290.38 0854.51
2009/04/23 16:22:48.5     -50   -153    180    162    242 198.3  53.3  34204  290.31 0854.51
2009/04/23 16:22:48.6     -87   -142    124    167    208 211.4  40.1  34216  290.52 0854.51
2009/04/23 16:22:48.7    -148   -128    151    197    248 229.1  41.6  34234  290.82 0854.51
2009/04/23 16:22:48.8    -187   -139     93    234    251 233.4  22.8  34222  290.63 0854.51
2009/04/23 16:22:48.9    -117   -238    132    266    296 206.3  28.2  34236  290.85 0854.51
2009/04/23 16:22:49.0    -123   -131     60    181    191 223.2  18.6  34240  290.94 0854.51
2009/04/23 16:22:49.1    -126   -104      0    164    165 230.5  -0.3  34228  290.72 0854.51
2009/04/23 16:22:49.2    -202    -13    -81    203    218 266.1 -27.4  34230  290.75 0854.51
2009/04/23 16:22:49.3    -137    -23    -45    139    147 260.3 -18.1  34238  290.91 0854.51
2009/04/23 16:22:49.4    -127    -92    -14    157    158 234.0  -5.4  34246  291.03 0854.51
2009/04/23 16:22:49.5    -179   -102     22    207    209 240.2   6.1  34206  290.35 0854.51
2009/04/23 16:22:49.6    -262   -177    -15    317    318 236.0  -2.8  34224  290.65 0854.51
2009/04/23 16:22:49.7    -228   -147     -5    272    273 237.1  -1.1  34224  290.66 0854.51
2009/04/23 16:22:49.8    -212   -171    -14    273    274 231.1  -3.1  34248  291.05 0854.51
2009/04/23 16:22:49.9    -163   -265    -17    312    313 211.7  -3.2  34236  290.87 0854.51
2009/04/23 16:22:50.0    -190   -141     29    237    239 233.4   7.1  34242  290.97 0854.51
2009/04/23 16:22:50.1    -159    -85    -16    181    182 241.8  -5.2  34238  290.91 0854.51
2009/04/23 16:22:50.2    -164     13    -42    165    171 274.8 -14.5  34238  290.91 0854.51
2009/04/23 16:22:50.3    -148     18     18    150    152 277.0   7.1  34238  290.91 0854.51
2009/04/23 16:22:50.4     -72    -72    -78    103    129 225.1 -45.6  34234  290.82 0854.51
2009/04/23 16:22:50.5    -168   -169    -98    239    258 224.8 -27.8  34244  290.99 0854.51
2009/04/23 16:22:50.6    -183   -144    -89    233    249 231.8 -26.4  34232  290.80 0854.51
2009/04/23 16:22:50.7    -326   -123     -4    349    350 249.3  -0.7  34220  290.60 0854.51
2009/04/23 16:22:50.8    -374   -177   -126    414    433 244.6 -16.9  34206  290.34 0854.51
2009/04/23 16:22:50.9    -240   -251   -103    348    364 223.7 -16.5  34210  290.43 0854.51
2009/04/23 16:22:51.0    -289   -159    -88    330    342 241.2 -15.0  34212  290.45 0854.51
2009/04/23 16:22:51.1    -331   -179    -52    377    381 241.6  -7.9  34212  290.47 0854.51
2009/04/23 16:22:51.2    -281   -306     17    416    417 222.6   2.3  34178  289.88 0854.51
2009/04/23 16:22:51.3    -304   -448   -126    542    557 214.2 -13.1  34204  290.31 0854.51
2009/04/23 16:22:51.4    -302    -84    -91    314    327 254.4 -16.2  34214  290.49 0854.49
2009/04/23 16:22:51.5    -243   -110    -25    267    269 245.6  -5.4  34216  290.53 0854.49
2009/04/23 16:22:51.6    -408    -35    -11    410    411 265.0  -1.6  34240  290.94 0854.49
2009/04/23 16:22:51.7    -348   -114     34    367    369 251.9   5.4  34232  290.81 0854.49
2009/04/23 16:22:51.8    -396   -217    -46    452    455 241.2  -5.9  34190  290.09 0854.49
2009/04/23 16:22:51.9    -406    -59   -110    411    426 261.7 -15.1  34212  290.46 0854.49
2009/04/23 16:22:52.0    -353   -179    -94    396    408 243.1 -13.4  34202  290.29 0854.49
2009/04/23 16:22:52.1    -313   -135     -6    342    343 246.6  -1.1  34202  290.27 0854.49
2009/04/23 16:22:52.2    -322   -133     79    349    358 247.6  12.8  34214  290.49 0854.49
2009/04/23 16:22:52.3    -352   -129     14    376    377 249.8   2.2  34228  290.74 0854.49
2009/04/23 16:22:52.4    -281   -221    -46    358    361 231.8  -7.5  34182  289.93 0854.49
2009/04/23 16:22:52.5    -227    -32    -81    230    244 261.9 -19.4  34194  290.15 0854.49
2009/04/23 16:22:52.6    -194    -23    -47    196    202 263.0 -13.7  34198  290.21 0854.49
2009/04/23 16:22:52.7    -183    -55    -22    192    194 253.2  -6.7  34212  290.45 0854.49
2009/04/23 16:22:52.8    -186    -63     32    197    200 251.2   9.5  34210  290.41 0854.49
2009/04/23 16:22:52.9    -145     29    -44    148    155 281.5 -16.6  34216  290.53 0854.49
2009/04/23 16:22:53.0     -52   -130    127    141    189 201.8  46.9  34218  290.55 0854.49
2009/04/23 16:22:53.1    -166   -227    106    282    301 216.3  21.5  34202  290.27 0854.49
2009/04/23 16:22:53.2    -285   -134     26    315    317 244.8   4.9  34224  290.66 0854.49
2009/04/23 16:22:53.3    -102   -192     62    218    227 208.1  16.0  34206  290.36 0854.49
2009/04/23 16:22:53.4    -148   -113    -18    187    188 232.5  -5.6  34214  290.50 0854.48
2009/04/23 16:22:53.5    -230     -8     -5    231    232 267.9  -1.3  34228  290.74 0854.48
2009/04/23 16:22:53.6    -213   -147     27    259    261 235.4   6.1  34210  290.42 0854.48
2009/04/23 16:22:53.7    -285   -220    -50    361    365 232.4  -7.9  34194  290.16 0854.48
2009/04/23 16:22:53.8    -361     21     -7    362    363 273.4  -1.2  34218  290.57 0854.48
2009/04/23 16:22:53.9    -363     17     32    364    366 272.8   5.1  34218  290.54 0854.48
2009/04/23 16:22:54.0    -309     96   -114    324    344 287.3 -19.4  34210  290.43 0854.48
2009/04/23 16:22:54.1    -228    243    -67    334    341 316.9 -11.5  34204  290.33 0854.48
2009/04/23 16:22:54.2    -203    164    -41    262    266 308.9  -9.0  34226  290.70 0854.48
2009/04/23 16:22:54.3    -193    103      8    219    220 298.2   2.1  34224  290.65 0854.48
2009/04/23 16:22:54.4    -153     80     -6    173    174 297.8  -2.2  34206  290.36 0854.48
2009/04/23 16:22:54.5    -185     88     31    205    208 295.5   8.8  34206  290.36 0854.48
2009/04/23 16:22:54.6    -142    192    145    240    280 323.5  34.0  34210  290.42 0854.48
2009/04/23 16:22:54.7    -246    216     17    328    329 311.3   3.0  34212  290.44 0854.48
2009/04/23 16:22:54.8    -277    380    -18    471    472 323.9  -2.2  34228  290.73 0854.48
2009/04/23 16:22:54.9    -135    466    -38    486    488 343.9  -4.6  34236  290.86 0854.48
2009/04/23 16:22:55.0    -193    485     49    523    526 338.3   5.4  34234  290.84 0854.48
2009/04/23 16:22:55.1    -266    366    -17    453    454 324.0  -2.2  34218  290.55 0854.48
2009/04/23 16:22:55.2    -300    302     21    427    428 315.2   2.9  34212  290.46 0854.48
2009/04/23 16:22:55.3    -238    453     -5    512    513 332.3  -0.6  34222  290.61 0854.48
2009/04/23 16:22:55.4    -147    447     40    471    473 341.7   5.0  34230  290.76 0854.49
2009/04/23 16:22:55.5    -120    435     22    452    453 344.5   2.9  34234  290.82 0854.49
2009/04/23 16:22:55.6     -99    432    -45    444    447 347.0  -5.9  34282  291.63 0854.49
2009/04/23 16:22:55.7    -208    392    -27    445    446 332.0  -3.5  34286  291.70 0854.49
2009/04/23 16:22:55.8    -190    324    -42    376    379 329.6  -6.5  34268  291.40 0854.49
2009/04/23 16:22:55.9    -173    324     88    368    379 331.9  13.6  34248  291.08 0854.49
2009/04/23 16:22:56.0     -94    305     82    320    331 342.8  14.4  34256  291.21 0854.49
2009/04/23 16:22:56.1     -47    524     50    527    530 354.8   5.4  34340  292.64 0854.49
2009/04/23 16:22:56.2      62    468    247    473    533   7.6  29.8  34252  291.12 0854.49
2009/04/23 16:22:56.3      46    327    252    331    416   8.1  41.1  34222  290.62 0854.49
2009/04/23 16:22:56.4     192    259    193    323    376  36.5  33.6  34234  290.83 0854.49
2009/04/23 16:22:56.5      19    410    234    411    472   2.7  32.3  34274  291.50 0854.49
2009/04/23 16:22:56.6     -14    513    213    514    556 358.4  23.8  34220  290.58 0854.49
2009/04/23 16:22:56.7       0    529    181    530    561   0.0  18.9  34228  290.74 0854.49
2009/04/23 16:22:56.8      76    446    144    453    476   9.7  17.7  34282  291.63 0854.49
2009/04/23 16:22:56.9      90    465    171    474    503  11.0  20.6  34308  292.07 0854.49
2009/04/23 16:22:57.0     189    522    152    556    577  19.9  15.3  34332  292.48 0854.49
2009/04/23 16:22:57.1     129    522     60    538    542  13.9   6.4  34290  291.79 0854.49
2009/04/23 16:22:57.2     187    478     21    514    515  21.4   2.4  34268  291.41 0854.49
2009/04/23 16:22:57.3     272    567    114    630    641  25.7  10.3  34186  290.01 0854.49
2009/04/23 16:22:57.4     235    417    161    479    506  29.4  18.6  34208  290.37 0854.47
2009/04/23 16:22:57.5      50    442    232    445    501   6.6  29.8  34186  290.00 0854.47
2009/04/23 16:22:57.6      95    391     76    403    411  13.7  10.7  34188  290.05 0854.47
2009/04/23 16:22:57.7      44    392    122    395    414   6.5  17.2  34194  290.16 0854.47
2009/04/23 16:22:57.8    -133    314    142    342    370 337.0  23.7  34202  290.28 0854.47
2009/04/23 16:22:57.9    -114    433   -126    448    466 345.2 -15.8  34176  289.85 0854.47
2009/04/23 16:22:58.0    -141    424   -126    447    465 341.6 -15.8  34174  289.82 0854.47
2009/04/23 16:22:58.1    -116    403   -136    420    442 344.0 -18.0  34174  289.80 0854.47
2009/04/23 16:22:58.2     -96    354   -103    367    382 344.8 -15.8  34162  289.62 0854.47
2009/04/23 16:22:58.3     -60    334   -101    340    354 349.8 -21.5  34166  289.67 0854.47
2009/04/23 16:22:58.4     -33    266   -106    269    289 352.9 -26.9  34164  289.63 0854.47
2009/04/23 16:22:58.5     -93    214    -55    234    241 336.6 -13.4  34164  289.63 0854.47
2009/04/23 16:22:58.6    -111    201    -46    230    235 331.0 -11.3  34168  289.70 0854.47
2009/04/23 16:22:58.7    -135    135    -18    192    193 315.1  -5.4  34190  290.09 0854.47
2009/04/23 16:22:58.8    -102    116     18    155    157 318.6   6.7  34218  290.55 0854.47
2009/04/23 16:22:58.9    -131     72     50    150    159 298.9  18.4  34226  290.70 0854.47
2009/04/23 16:22:59.0    -176    116     32    212    215 303.5   8.8  34232  290.81 0854.47
2009/04/23 16:22:59.1    -165    105     50    196    203 302.6  14.5  34234  290.82 0854.47
2009/04/23 16:22:59.2    -194    104     43    221    226 298.2  11.1  34214  290.48 0854.47
2009/04/23 16:22:59.3    -212    107    -39    238    242 296.9  -9.4  34196  290.17 0854.47
2009/04/23 16:22:59.4    -226     82    -82    241    254 290.0 -23.6  34162  289.61 0854.45
2009/04/23 16:22:59.5    -234     29    -84    236    250 277.2 -24.4  34166  289.66 0854.45
2009/04/23 16:22:59.6     -49     53   -263     73    272 316.8 -88.8  34166  289.69 0854.45
2009/04/23 16:22:59.7    -322     83   -227    333    403 284.5 -42.0  34182  289.93 0854.45
2009/04/23 16:22:59.9    -410    174   -238    446    505 293.0 -34.7  34176  289.83 0854.45
2009/04/23 16:23:00.0    -231    147   -263    274    379 302.5 -53.2  34172  289.76 0854.45
2009/04/23 16:23:00.1    -151    326   -189    360    406 335.2 -34.4  34164  289.65 0854.45
2009/04/23 16:23:00.2       6    335   -111    336    353   1.1 -23.5  34176  289.84 0854.45
2009/04/23 16:23:00.3    -120    200   -123    234    264 329.0 -34.2  34180  289.90 0854.45
2009/04/23 16:23:00.4     -91    203   -189    223    292 335.9 -48.9  34180  289.92 0854.45
2009/04/23 16:23:00.5      48    309     13    313    314   8.9   2.4  34192  290.10 0854.43
2009/04/23 16:23:00.6     -34    292    162    294    335 353.3  31.4  34204  290.32 0854.43
2009/04/23 16:23:00.7    -111    278    149    300    334 338.2  28.2  34196  290.17 0854.43
2009/04/23 16:23:00.8    -150    332    -42    365    368 335.6  -6.6  34204  290.32 0854.43
2009/04/23 16:23:00.9    -152    246    142    290    322 328.4  28.0  34202  290.29 0854.43
2009/04/23 16:23:01.0    -351    319     45    475    478 312.2   5.4  34194  290.15 0854.43
2009/04/23 16:23:01.1    -336    257    -40    424    427 307.4  -5.5  34190  290.07 0854.43
2009/04/23 16:23:01.2    -386    233     19    451    452 301.1   2.5  34190  290.09 0854.43
2009/04/23 16:23:01.3    -366    174   -128    406    426 295.4 -17.5  34162  289.60 0854.43
2009/04/23 16:23:01.4    -410     90    -98    420    432 282.5 -13.1  34158  289.53 0854.43
2009/04/23 16:23:01.5    -405     71    -88    412    422 280.0 -12.2  34160  289.58 0854.43
2009/04/23 16:23:01.6    -259     22   -111    261    283 275.0 -29.3  34192  290.12 0854.43
2009/04/23 16:23:01.7    -183    -37     17    187    188 258.3   5.4  34190  290.09 0854.43
2009/04/23 16:23:01.8    -299      0    137    300    329 270.0  26.3  34220  290.59 0854.43
2009/04/23 16:23:01.9    -268    -30    139    270    303 263.4  29.3  34244  290.99 0854.43
2009/04/23 16:23:02.0    -182    -71    190    196    272 248.5  49.2  34252  291.14 0854.43
2009/04/23 16:23:02.1     -57    -68    221     90    238 220.1  77.0  34236  290.86 0854.43
2009/04/23 16:23:02.2      -6      0    199      7    199 270.0  90.0  34254  291.18 0854.43
2009/04/23 16:23:02.3     -38     60    131     72    149 327.4  68.9  34260  291.28 0854.43
2009/04/23 16:23:02.4     -17     11     93     21     95 304.2  88.0  34252  291.15 0854.43
2009/04/23 16:23:02.5      -2     45     99     46    109 356.4  73.1  34250  291.11 0854.42
2009/04/23 16:23:02.6      32    135    137    139    195  13.4  50.0  34250  291.11 0854.42
2009/04/23 16:23:02.7      36    253    164    256    304   8.2  35.6  34160  289.58 0854.42
2009/04/23 16:23:02.8     -35    323    156    326    361 353.7  27.3  34212  290.47 0854.42
2009/04/23 16:23:02.9     -23    305    167    307    349 355.5  31.0  34180  289.91 0854.42
2009/04/23 16:23:03.0     -28    303    131    305    331 354.7  24.8  34286  291.70 0854.42
2009/04/23 16:23:03.1     -32    255    107    258    279 352.7  23.6  34296  291.87 0854.42
2009/04/23 16:23:03.2      47    235    129    240    272  11.5  30.6  34288  291.75 0854.42
2009/04/23 16:23:03.3     -60    231    127    239    270 345.3  30.3  34308  292.09 0854.42
2009/04/23 16:23:03.4     -63    299    135    306    334 348.0  25.3  34324  292.35 0854.42
2009/04/23 16:23:03.5      27    331     72    333    341   4.7  12.3  34284  291.68 0854.42
2009/04/23 16:23:03.6     -61    282     45    289    293 347.7   8.9  34286  291.72 0854.42
2009/04/23 16:23:03.7     -74    276     53    286    291 344.9  10.6  34296  291.89 0854.42
2009/04/23 16:23:03.8     -94    315    128    329    353 343.3  22.4  34286  291.71 0854.42
2009/04/23 16:23:03.9    -149    254     99    295    312 329.5  18.6  34270  291.43 0854.42
2009/04/23 16:23:04.0     -56    195     69    203    215 344.0  18.9  34298  291.91 0854.42
2009/04/23 16:23:04.1     -46    182     38    188    192 345.7  11.6  34314  292.20 0854.42
2009/04/23 16:23:04.2     -33    175     40    179    184 349.1  12.6  34322  292.32 0854.42
2009/04/23 16:23:04.3     -21    150     10    152    153 351.9   3.8  34348  292.76 0854.42
2009/04/23 16:23:04.4     156     80     87    176    196  62.7  28.2  34348  292.76 0854.42
2009/04/23 16:23:04.5     157     55     58    167    177  70.5  19.2  34350  292.80 0854.43
2009/04/23 16:23:04.6     115     10     97    116    151  84.8  43.8  34352  292.83 0854.43
2009/04/23 16:23:04.7     134     39     40    140    146  73.6  16.3  34330  292.47 0854.43
2009/04/23 16:23:04.8     171     54    115    180    213  72.3  35.6  34326  292.39 0854.43
2009/04/23 16:23:04.9     229    126     -1    262    263  61.2  -0.3  34328  292.41 0854.43
2009/04/23 16:23:05.0     252     15     93    253    269  86.6  21.0  34310  292.11 0854.43
2009/04/23 16:23:05.1     250     43    137    254    288  80.1  30.6  34282  291.63 0854.43
2009/04/23 16:23:05.2     233    141    105    273    292  58.9  22.1  34248  291.05 0854.43
2009/04/23 16:23:05.3     174    158     85    236    250  47.8  20.2  34248  291.05 0854.43
2009/04/23 16:23:05.4     161     81     32    181    184  63.1  10.1  34246  291.04 0854.43
2009/04/23 16:23:05.5     110     97     12    147    148  48.7   4.9  34262  291.30 0854.43
2009/04/23 16:23:05.6     108     35     59    114    128  71.8  29.2  34248  291.06 0854.43
2009/04/23 16:23:05.7      57     31     60     66     89  61.1  47.5  34258  291.25 0854.43
2009/04/23 16:23:05.8     164     22    168    166    236  82.1  50.2  34274  291.52 0854.43
2009/04/23 16:23:05.9     189    185     72    265    275  45.6  15.3  34276  291.55 0854.43
2009/04/23 16:23:06.0     242     69    -77    252    264  74.1 -17.0  34334  292.53 0854.43
2009/04/23 16:23:06.1     135     44     73    143    160  71.8  29.3  34362  293.00 0854.43
2009/04/23 16:23:06.2     117     63    139    133    192  61.6  51.2  34334  292.52 0854.43
2009/04/23 16:23:06.3     113    204    181    234    295  29.0  41.7  34360  292.98 0854.43
2009/04/23 16:23:06.4     153    159    127    222    255  43.9  32.1  34362  292.99 0854.43
2009/04/23 16:23:06.5      84    149    152    172    229  29.4  45.9  34344  292.69 0854.46
2009/04/23 16:23:06.6     103    168     90    198    217  31.4  26.2  34344  292.71 0854.46
2009/04/23 16:23:06.7     145    119     50    188    195  50.5  15.0  34306  292.06 0854.46
2009/04/23 16:23:06.8     214    127     16    250    251  59.3   3.8  34276  291.53 0854.46
2009/04/23 16:23:06.9     141    118     -9    185    186  50.0  -2.8  34272  291.47 0854.46
2009/04/23 16:23:07.0      97     92    -43    134    141  46.4 -18.1  34278  291.57 0854.46
2009/04/23 16:23:07.1      25     95    -40     99    106  15.1 -27.4  34280  291.60 0854.46
2009/04/23 16:23:07.2     -16     85    -13     87     89 348.9  -8.8  34278  291.59 0854.46
2009/04/23 16:23:07.3      -8     47    -19     48     51 350.2 -26.4  34246  291.04 0854.46
2009/04/23 16:23:07.4      46     72    -27     86     91  32.5 -17.6  34248  291.08 0854.46
2009/04/23 16:23:07.5     135     88    -16    162    163  56.7  -6.0  34234  290.84 0854.46
2009/04/23 16:23:07.6     169     89   -128    191    229  62.2 -41.4  34234  290.82 0854.46
2009/04/23 16:23:07.7     129     82   -101    153    183  57.5 -40.7  34222  290.62 0854.46
2009/04/23 16:23:07.8     137     52   -107    147    181  69.2 -44.1  34230  290.75 0854.46
2009/04/23 16:23:07.9     121     36    -39    127    132  73.1 -22.3  34214  290.50 0854.46
2009/04/23 16:23:08.0     141    131    -82    193    209  47.1 -29.0  34222  290.62 0854.46
2009/04/23 16:23:08.1     134     97    -32    166    170  54.0 -10.9  34216  290.53 0854.46
2009/04/23 16:23:08.2     179     68    -51    192    199  69.2 -15.0  34224  290.65 0854.46
2009/04/23 16:23:08.3     181     52      2    189    190  73.8   0.8  34228  290.72 0854.46
2009/04/23 16:23:08.4      94    107   -122    143    187  41.5 -49.2  34194  290.14 0854.46
2009/04/23 16:23:08.5     142     83   -148    165    221  59.6 -51.0  34192  290.11 0854.47
2009/04/23 16:23:08.6     170    203   -146    265    302  39.9 -35.8  34238  290.90 0854.47
2009/04/23 16:23:08.7     167    183   -133    249    282  42.4 -34.7  34246  291.02 0854.47
2009/04/23 16:23:08.8     223    224   -111    317    335  44.8 -24.5  34252  291.15 0854.47
2009/04/23 16:23:08.9     227    274   -183    357    401  39.7 -33.7  34258  291.22 0854.47
2009/04/23 16:23:09.0     115    263    -95    288    303  23.7 -23.8  34246  291.02 0854.47
2009/04/23 16:23:09.1      88    275   -134    289    318  17.8 -30.9  34252  291.12 0854.47
2009/04/23 16:23:09.2      43    325   -105    328    344   7.6 -22.9  34252  291.13 0854.47
2009/04/23 16:23:09.3     110    274   -123    296    320  21.9 -28.2  34268  291.39 0854.47
2009/04/23 16:23:09.4     115    282   -180    305    354  22.3 -37.8  34268  291.42 0854.47
2009/04/23 16:23:09.5     192    322   -173    375    412  30.8 -30.9  34268  291.40 0854.47
2009/04/23 16:23:09.6     208    285   -146    354    382  36.1 -28.0  34252  291.13 0854.47
2009/04/23 16:23:09.7     258    258   -158    366    398  45.0 -29.3  34234  290.83 0854.47
2009/04/23 16:23:09.8     306    200   -111    366    382  56.8 -21.7  34202  290.30 0854.47
2009/04/23 16:23:09.9     291    137    -95    322    335  64.7 -21.2  34214  290.50 0854.47
2009/04/23 16:23:10.0     312    114    -96    333    347  70.0 -16.2  34214  290.50 0854.47
2009/04/23 16:23:10.1     233     78    -87    246    262  71.4 -19.6  34208  290.39 0854.47
2009/04/23 16:23:10.2     139    108    -53    177    185  52.2 -16.8  34210  290.43 0854.47
2009/04/23 16:23:10.3     122    -24    -48    125    133 101.5 -25.9  34226  290.69 0854.47
2009/04/23 16:23:10.4      45   -121    -97    130    162 159.5 -45.1  34232  290.81 0854.47
2009/04/23 16:23:10.5      90   -152   -176    177    249 149.3 -54.4  34242  290.96 0854.49
2009/04/23 16:23:10.6     133    -84   -191    158    247 122.4 -60.8  34258  291.25 0854.49
2009/04/23 16:23:10.7     224    -73   -158    236    284 108.2 -41.4  34250  291.09 0854.49
2009/04/23 16:23:10.8     258   -137    -89    293    306 118.0 -21.8  34238  290.90 0854.49
2009/04/23 16:23:10.9     236   -151    -75    281    291 122.6 -15.0  34242  290.97 0854.49
2009/04/23 16:23:11.0     230   -203    107    307    325 131.4  20.0  34220  290.58 0854.49
2009/04/23 16:23:11.1     127   -181     69    222    233 145.0  17.3  34218  290.57 0854.49
2009/04/23 16:23:11.2      45   -181    114    187    219 166.0  34.2  34216  290.53 0854.49
2009/04/23 16:23:11.3      26   -193    114    195    225 172.2  32.9  34222  290.62 0854.49
2009/04/23 16:23:11.4     -34   -244      9    247    248 188.1   2.1  34238  290.90 0854.49
2009/04/23 16:23:11.5     -73   -159    -56    176    185 204.7 -17.9  34246  291.03 0854.49
2009/04/23 16:23:11.6     -50   -216    -57    222    230 193.3 -14.5  34252  291.15 0854.49
2009/04/23 16:23:11.7      -3   -199    -86    200    217 181.0 -29.3  34246  291.04 0854.49
2009/04/23 16:23:11.8     -38   -135    -18    141    143 196.0  -7.3  34244  291.01 0854.49
2009/04/23 16:23:11.9      21   -147    -34    149    153 171.5 -12.9  34240  290.92 0854.49
2009/04/23 16:23:12.0      35   -195    -26    199    201 169.8  -7.7  34236  290.86 0854.49
2009/04/23 16:23:12.1      64   -239     56    248    255 164.8  12.9  34226  290.68 0854.49
2009/04/23 16:23:12.2      85   -229     43    245    249 159.5  10.1  34230  290.76 0854.49
2009/04/23 16:23:12.3     -22   -206     56    208    216 186.3  15.3  34220  290.58 0854.49
2009/04/23 16:23:12.4     -79   -174     52    192    200 204.5  15.3  34224  290.65 0854.49
2009/04/23 16:23:12.5      30   -146     23    150    152 168.4   9.0  34242  290.96 0854.48
2009/04/23 16:23:12.6      30   -116     23    120    123 165.3  11.1  34242  290.96 0854.48
2009/04/23 16:23:12.7      47   -121    -53    130    140 158.6 -27.5  34228  290.72 0854.48
2009/04/23 16:23:12.8      21    -90    -42     93    102 166.6 -30.1  34232  290.79 0854.48
2009/04/23 16:23:12.9      63    -40    -64     75     98 122.4 -49.2  34234  290.82 0854.48
2009/04/23 16:23:13.0      95    -37    -40    102    109 111.3 -26.9  34234  290.82 0854.48
2009/04/23 16:23:13.1      78     32    -23     85     89  67.8 -15.4  34230  290.77 0854.48
2009/04/23 16:23:13.2      98     44    -28    108    112  65.6 -14.5  34240  290.94 0854.48
2009/04/23 16:23:13.3      23     61    -14     66     68  20.9 -12.4  34236  290.87 0854.48
2009/04/23 16:23:13.4    -133     -2    -50    134    143 269.1 -25.4  34254  291.16 0854.48
2009/04/23 16:23:13.5    -267    -94    -76    284    294 250.5 -15.0  34278  291.56 0854.48
2009/04/23 16:23:13.6    -191   -107    -61    220    229 240.7 -15.5  34230  290.77 0854.48
2009/04/23 16:23:13.7    -193   -104    -62    220    228 241.8 -20.4  34240  290.92 0854.48
2009/04/23 16:23:13.8    -198    -66    -62    209    219 251.4 -16.6  34250  291.09 0854.48
2009/04/23 16:23:13.9    -208   -253    -10    328    329 219.4  -1.8  34260  291.27 0854.48
2009/04/23 16:23:14.0    -158   -284   -118    326    346 209.2 -25.0  34230  290.77 0854.48
2009/04/23 16:23:14.1    -155   -229    -94    277    293 214.2 -18.9  34246  291.02 0854.48
2009/04/23 16:23:14.2      -4   -301   -107    302    320 180.9 -24.6  34222  290.61 0854.48
2009/04/23 16:23:14.3      20   -322    -96    323    338 176.3 -16.6  34228  290.74 0854.48
2009/04/23 16:23:14.4     -17   -223    -71    224    236 184.5 -17.6  34224  290.67 0854.46
2009/04/23 16:23:14.5     152   -256     53    298    303 149.3  10.1  34224  290.66 0854.46
2009/04/23 16:23:14.6     177   -271     42    324    327 146.8   7.5  34240  290.93 0854.46
2009/04/23 16:23:14.7     224   -231     96    322    337 135.9  16.7  34248  291.06 0854.46
2009/04/23 16:23:14.8     170   -219    121    278    303 142.2  25.1  34240  290.93 0854.46
2009/04/23 16:23:14.9      87   -253    166    268    315 160.9  34.8  34244  291.00 0854.46
2009/04/23 16:23:15.0      74   -275    117    285    308 164.8  23.4  34238  290.90 0854.46
2009/04/23 16:23:15.1      42   -185    128    190    229 167.1  37.3  34246  291.03 0854.46
2009/04/23 16:23:15.2      16   -134    128    136    186 172.9  48.0  34244  290.99 0854.46
2009/04/23 16:23:15.3     -10   -152    168    153    227 184.0  53.0  34238  290.91 0854.46
2009/04/23 16:23:15.4      56   -186    162    195    253 163.3  43.8  34244  290.99 0854.46
2009/04/23 16:23:15.5      92   -116    181    149    234 141.7  56.4  34226  290.70 0854.46
2009/04/23 16:23:15.6      79     -6    137     80    158  94.4  67.2  34252  291.13 0854.46
2009/04/23 16:23:15.7      22     14    109     27    112  57.6  85.9  34260  291.26 0854.46
2009/04/23 16:23:15.8       4    -57    103     58    118 175.6  68.8  34252  291.15 0854.46
2009/04/23 16:23:15.9      18   -107    197    109    225 170.2  68.8  34242  290.98 0854.46
2009/04/23 16:23:16.0      19   -160    183    162    244 173.1  54.0  34228  290.74 0854.46
2009/04/23 16:23:16.1     -55   -153    171    163    236 200.1  51.4  34232  290.79 0854.46
2009/04/23 16:23:16.2     -57   -182    179    191    261 197.4  48.0  34234  290.82 0854.46
2009/04/23 16:23:16.3     -72   -190    166    204    263 200.9  43.5  34240  290.92 0854.46
2009/04/23 16:23:16.4    -112   -113     98    160    187 224.7  34.8  34246  291.03 0854.43
2009/04/23 16:23:16.5    -165   -164    112    233    258 225.1  27.3  34250  291.10 0854.43
2009/04/23 16:23:16.6     -79   -198    158    214    266 201.9  39.9  34240  290.92 0854.43
2009/04/23 16:23:16.7     -67   -202    140    214    255 198.5  36.5  34246  291.02 0854.43
2009/04/23 16:23:16.8    -115   -166    211    202    292 214.7  51.2  34256  291.19 0854.43
2009/04/23 16:23:16.9    -151    -90    170    176    244 239.3  49.0  34266  291.37 0854.43
2009/04/23 16:23:17.0    -131   -141    177    193    261 222.8  47.7  34242  290.95 0854.43
2009/04/23 16:23:17.1    -107    -89    157    140    210 230.4  54.0  34248  291.06 0854.43
2009/04/23 16:23:17.2    -108    -89    135    141    195 230.5  49.0  34252  291.15 0854.43
2009/04/23 16:23:17.3     -75   -301    136    311    339 194.0  25.1  34244  291.01 0854.43
2009/04/23 16:23:17.4     -43   -302     66    306    314 188.1  12.2  34248  291.07 0854.43
2009/04/23 16:23:17.5     -52   -320     40    325    328 189.4   7.1  34270  291.44 0854.43
2009/04/23 16:23:17.6     -35   -384     59    386    391 185.3   8.7  34286  291.71 0854.43
2009/04/23 16:23:17.7     -75   -386     82    394    403 191.0  11.8  34254  291.18 0854.43
2009/04/23 16:23:17.8     -27   -424    127    425    444 183.7  16.6  34240  290.92 0854.43
2009/04/23 16:23:17.9      44   -422     67    425    431 173.9   9.0  34236  290.85 0854.43
2009/04/23 16:23:18.0      45   -447     90    450    459 174.2  11.3  34228  290.73 0854.43
2009/04/23 16:23:18.1      33   -451     80    453    461 175.8  10.1  34224  290.65 0854.43
2009/04/23 16:23:18.2     -23   -446    116    447    462 183.0  14.6  34228  290.72 0854.43
2009/04/23 16:23:18.3     -15   -418     98    419    431 182.1  13.2  34248  291.06 0854.43
2009/04/23 16:23:18.4     -60   -416    122    421    439 188.2  16.1  34244  291.01 0854.43
2009/04/23 16:23:18.5     -36   -440     88    442    451 184.7  11.3  34224  290.67 0854.43
2009/04/23 16:23:18.6     -67   -411     94    417    428 189.3  12.8  34224  290.67 0854.43
2009/04/23 16:23:18.7     -55   -384    111    389    405 188.3  16.0  34254  291.17 0854.43
2009/04/23 16:23:18.8     -78   -322     71    332    340 193.7  12.2  34240  290.94 0854.43
2009/04/23 16:23:18.9     -59   -341     67    347    354 189.9  11.0  34240  290.93 0854.43
2009/04/23 16:23:19.0    -100   -368     89    382    393 195.2  13.2  34242  290.98 0854.43
2009/04/23 16:23:19.1    -156   -398     93    428    439 201.5  12.3  34232  290.80 0854.43
2009/04/23 16:23:19.2    -143   -384    202    411    457 200.5  28.1  34194  290.14 0854.43
2009/04/23 16:23:19.3    -122   -302    229    327    399 202.1  38.5  34188  290.03 0854.43
2009/04/23 16:23:19.4      43   -194    184    199    271 167.3  47.9  34212  290.44 0854.43
2009/04/23 16:23:19.5      16   -263    147    264    302 176.4  31.4  34208  290.37 0854.43
2009/04/23 16:23:19.6      88   -196     98    216    237 155.7  26.2  34204  290.31 0854.43
2009/04/23 16:23:19.7      64   -286    127    294    320 167.3  24.8  34204  290.31 0854.43
2009/04/23 16:23:19.8     123   -386    181    406    444 162.3  25.7  34214  290.50 0854.43
2009/04/23 16:23:19.9     165   -341    180    380    420 154.1  27.2  34214  290.50 0854.43
2009/04/23 16:23:20.0     127   -394    147    415    440 162.1  20.2  34220  290.58 0854.43
2009/04/23 16:23:20.1     211   -417     65    468    473 153.2   7.9  34218  290.57 0854.43
2009/04/23 16:23:20.2     152   -274     75    314    323 151.0  13.6  34220  290.59 0854.43
2009/04/23 16:23:20.3     125   -228    156    261    304 151.3  33.5  34220  290.58 0854.43
2009/04/23 16:23:20.4     106   -133    148    171    226 141.5  45.4  34228  290.74 0854.42
2009/04/23 16:23:20.5      94    -43    131    104    167 114.8  57.5  34226  290.70 0854.42
2009/04/23 16:23:20.6     154   -149    232    215    316 134.0  52.5  34212  290.44 0854.42
2009/04/23 16:23:20.7      55   -204    304    212    370 164.9  61.8  34190  290.09 0854.42
2009/04/23 16:23:20.8     -37   -378    313    380    492 185.7  43.7  34184  289.99 0854.42
2009/04/23 16:23:20.9      60   -255    357    263    443 166.6  60.1  34202  290.27 0854.42
2009/04/23 16:23:21.0     427   -321    178    535    564 127.0  18.4  34192  290.11 0854.42
2009/04/23 16:23:21.1     355   -454    122    577    591 142.0  12.0  34156  289.51 0854.42
2009/04/23 16:23:21.2      83   -441    214    449    497 169.3  27.3  34156  289.52 0854.42
2009/04/23 16:23:21.3     -41   -448    323    451    554 185.3  39.2  34144  289.29 0854.42
2009/04/23 16:23:21.4     -16   -372    363    373    520 182.5  49.3  34128  289.03 0854.40
2009/04/23 16:23:21.5    -248   -655    229    701    738 200.8  18.1  34152  289.44 0854.40
2009/04/23 16:23:21.6     -33   -643    125    644    657 183.0  11.0  34160  289.57 0854.40
2009/04/23 16:23:21.7     120   -592    -71    604    609 168.5  -6.7  34172  289.78 0854.40
2009/04/23 16:23:21.8     162   -510   -108    536    547 162.3 -11.5  34170  289.74 0854.40
2009/04/23 16:23:21.9     376   -499    -97    625    633 143.0  -8.9  34176  289.84 0854.40
2009/04/23 16:23:22.0     473   -363    -46    597    599 127.5  -4.5  34170  289.73 0854.40
2009/04/23 16:23:22.1     363   -301    132    472    491 129.6  15.7  34166  289.67 0854.40
2009/04/23 16:23:22.2     241   -241    183    341    387 135.0  30.7  34158  289.54 0854.40
2009/04/23 16:23:22.3      20   -220    263    222    344 174.7  55.8  34162  289.59 0854.40
2009/04/23 16:23:22.4      35   -490     52    492    495 175.9   6.1  34172  289.76 0854.40
2009/04/23 16:23:22.5      41   -528    -20    530    531 175.5  -2.2  34164  289.63 0854.40
2009/04/23 16:23:22.6      92   -402    -52    413    417 167.1  -7.2  34168  289.70 0854.40
2009/04/23 16:23:22.7     -87   -355   -132    366    389 193.9 -25.1  34146  289.33 0854.40
2009/04/23 16:23:22.8    -211   -301   -183    368    410 215.1 -32.8  34132  289.11 0854.40
2009/04/23 16:23:22.9    -179   -348   -215    392    447 207.2 -35.7  34136  289.17 0854.40
2009/04/23 16:23:23.0    -207   -433   -206    481    523 205.6 -29.0  34160  289.56 0854.40
2009/04/23 16:23:23.1    -119   -355    -76    375    383 198.6 -11.5  34184  289.98 0854.40
2009/04/23 16:23:23.2     -48   -364    -28    368    369 187.6  -4.4  34162  289.60 0854.40
2009/04/23 16:23:23.3    -118   -377   -120    396    415 197.4 -16.9  34164  289.63 0854.40
2009/04/23 16:23:23.4      95   -310   -158    325    361 163.0 -32.2  34164  289.65 0854.41
2009/04/23 16:23:23.5     193   -374   -169    421    453 152.7 -27.4  34162  289.60 0854.41
2009/04/23 16:23:23.6     173   -373    -22    412    413 155.1  -3.2  34156  289.49 0854.41
2009/04/23 16:23:23.7     119   -356     -5    376    377 161.5  -0.9  34154  289.48 0854.41
2009/04/23 16:23:23.8     354   -386    103    524    535 137.5  11.1  34130  289.06 0854.41
2009/04/23 16:23:23.9     269   -269    104    381    395 135.0  15.3  34124  288.96 0854.41
2009/04/23 16:23:24.0     137   -339    130    366    388 157.9  20.3  34138  289.21 0854.41
2009/04/23 16:23:24.1     178   -386     67    426    432 155.2   9.0  34148  289.38 0854.41
2009/04/23 16:23:24.2     152   -441    121    467    483 161.0  14.6  34136  289.18 0854.41
2009/04/23 16:23:24.3     120   -404    236    422    483 163.4  31.9  34124  288.95 0854.41
2009/04/23 16:23:24.4       4   -433    175    434    467 179.4  23.1  34130  289.05 0854.41
2009/04/23 16:23:24.5      15   -393     56    394    399 177.8   8.1  34142  289.26 0854.41
2009/04/23 16:23:24.6     -15   -338    123    339    360 182.7  20.8  34120  288.91 0854.41
2009/04/23 16:23:24.7     -17   -391    153    392    420 182.5  22.5  34124  288.97 0854.41
2009/04/23 16:23:24.8      21   -345     90    346    358 176.4  14.7  34142  289.26 0854.41
2009/04/23 16:23:24.9     185   -254     95    315    330 143.9  16.8  34158  289.53 0854.41
2009/04/23 16:23:25.0     246   -156    158    292    332 122.4  30.9  34164  289.64 0854.41
2009/04/23 16:23:25.1      93   -145    217    173    277 147.3  57.5  34162  289.61 0854.41
2009/04/23 16:23:25.2      41    -98    173    107    203 157.3  65.1  34164  289.65 0854.41
2009/04/23 16:23:25.3     115   -165    203    202    286 145.0  50.1  34162  289.61 0854.41
2009/04/23 16:23:25.4      73    -65    173     98    198 131.8  68.3  34162  289.60 0854.43
2009/04/23 16:23:25.5     169   -364    272    402    485 155.1  37.4  34118  288.87 0854.43
2009/04/23 16:23:25.6     129   -389    297    410    506 161.6  39.5  34126  289.01 0854.43
2009/04/23 16:23:25.7     301   -405    197    505    542 143.4  22.5  34128  289.04 0854.43
2009/04/23 16:23:25.8     209   -415    207    465    508 153.2  25.6  34120  288.88 0854.43
2009/04/23 16:23:25.9      68   -505    169    510    538 172.3  18.4  34124  288.97 0854.43
2009/04/23 16:23:26.0     218   -380    215    439    488 150.1  28.0  34100  288.57 0854.43
2009/04/23 16:23:26.1     256   -476    189    541    573 151.7  20.0  34126  288.99 0854.43
2009/04/23 16:23:26.2     212   -430     59    480    484 153.7   7.1  34126  289.01 0854.43
2009/04/23 16:23:26.3     297   -462     97    550    559 147.3  10.0  34128  289.02 0854.43
2009/04/23 16:23:26.4     207   -420    164    469    496 153.7  20.0  34130  289.06 0854.43
2009/04/23 16:23:26.5     134   -317    186    345    391 157.1  30.6  34126  289.01 0854.43
2009/04/23 16:23:26.6     141   -346    128    374    396 157.8  18.9  34132  289.10 0854.43
2009/04/23 16:23:26.7      98   -255    105    274    293 159.0  22.0  34126  289.00 0854.43
2009/04/23 16:23:26.8      90   -281    109    296    315 162.2  21.1  34126  289.00 0854.43
2009/04/23 16:23:26.9    -101   -493    216    504    548 191.6  24.6  34118  288.85 0854.43
2009/04/23 16:23:27.0      16   -489    140    490    510 178.1  16.0  34116  288.83 0854.43
2009/04/23 16:23:27.1     -93   -366    176    378    416 194.3  27.0  34118  288.85 0854.43
2009/04/23 16:23:27.2      55   -130    189    142    236 156.8  59.4  34126  288.99 0854.43
2009/04/23 16:23:27.3     114   -115    226    163    278 135.2  60.6  34130  289.05 0854.43
2009/04/23 16:23:27.4     201   -147     39    250    254 126.2   9.0  34118  288.87 0854.46
2009/04/23 16:23:27.5     153   -184    -64    240    249 140.4 -15.0  34116  288.83 0854.46
2009/04/23 16:23:27.6     170   -413     58    447    451 157.6   7.4  34112  288.75 0854.46
2009/04/23 16:23:27.8      41   -415   -148    418    443 174.3 -24.7  34116  288.82 0854.46
2009/04/23 16:23:27.9     352   -397    -67    531    536 138.5  -7.2  34106  288.67 0854.46
2009/04/23 16:23:28.0     256   -531     82    590    596 154.2   7.9  34086  288.32 0854.46
2009/04/23 16:23:28.1      72   -574     -3    579    580 172.8  -0.4  34112  288.75 0854.46
2009/04/23 16:23:28.2     -60   -298   -178    305    353 191.5 -37.3  34116  288.84 0854.46
2009/04/23 16:23:28.3     -20   -328   -156    329    364 183.5 -31.6  34116  288.84 0854.46
2009/04/23 16:23:28.4     -10   -437   -122    438    454 181.4 -20.2  34116  288.83 0854.46
2009/04/23 16:23:28.5      -4   -556     35    557    559 180.5   3.6  34120  288.89 0854.46
2009/04/23 16:23:28.6     -41   -492     65    494    499 184.8   7.6  34116  288.83 0854.46
2009/04/23 16:23:28.7     -95   -450     34    461    463 192.0   4.2  34114  288.80 0854.46
2009/04/23 16:23:28.8    -105   -119   -149    159    217 221.5 -52.4  34122  288.92 0854.46
2009/04/23 16:23:28.9     136   -209   -207    250    324 146.8 -48.2  34124  288.97 0854.46
2009/04/23 16:23:29.0     198   -186   -118    272    296 133.2 -29.5  34120  288.90 0854.46
2009/04/23 16:23:29.1     130   -128    -65    183    195 134.6 -19.7  34122  288.94 0854.46
2009/04/23 16:23:29.2      35     -1   -167     36    170  92.6 -90.0  34134  289.13 0854.46
2009/04/23 16:23:29.3     -19    -35   -162     41    167 209.0 -90.0  34142  289.26 0854.46
2009/04/23 16:23:29.4      54   -141   -131    152    200 159.1 -49.8  34138  289.19 0854.46
2009/04/23 16:23:29.5     195   -268   -154    332    365 143.9 -31.3  34130  289.08 0854.48
2009/04/23 16:23:29.6     137   -319   -151    348    379 156.7 -29.4  34120  288.91 0854.48
2009/04/23 16:23:29.7     141   -322   -133    352    376 156.3 -26.0  34120  288.88 0854.48
2009/04/23 16:23:29.8     122   -178    -73    217    230 145.5 -18.7  34118  288.86 0854.48
2009/04/23 16:23:29.9     325   -229     17    398    399 125.2   2.5  34110  288.74 0854.48
2009/04/23 16:23:30.0     275   -386    -21    475    476 144.5  -2.6  34118  288.86 0854.48
2009/04/23 16:23:30.1     290   -464    -70    548    553 148.0  -7.4  34112  288.77 0854.48
2009/04/23 16:23:30.2     111   -395     12    411    412 164.2   1.7  34114  288.80 0854.48
2009/04/23 16:23:30.3      35   -403     36    405    407 175.0   5.2  34116  288.82 0854.48
2009/04/23 16:23:30.4     129   -401    106    422    436 162.1  14.2  34120  288.89 0854.48
2009/04/23 16:23:30.5     130   -516     55    533    536 165.8   5.9  34104  288.62 0854.48
2009/04/23 16:23:30.6     123   -602    210    615    651 168.4  18.9  34098  288.52 0854.48
2009/04/23 16:23:30.7      68   -602    147    606    624 173.5  13.7  34106  288.65 0854.48
2009/04/23 16:23:30.8     -25   -540    -11    541    542 182.7  -1.3  34106  288.65 0854.48
2009/04/23 16:23:30.9     -68   -431     93    437    448 189.0  12.1  34096  288.48 0854.48
2009/04/23 16:23:31.0    -110   -332    128    350    372 198.4  21.0  34114  288.79 0854.48
2009/04/23 16:23:31.1     -43   -306    308    310    436 188.0  50.0  34110  288.74 0854.48
2009/04/23 16:23:31.2      -9   -376    357    377    519 181.5  48.4  34118  288.86 0854.48
2009/04/23 16:23:31.3      55   -165    217    175    278 161.5  57.1  34126  289.00 0854.48
2009/04/23 16:23:31.4     122   -260    130    288    315 154.8  25.9  34108  288.70 0854.48
2009/04/23 16:23:31.5      11    -54     41     56     69 168.4  39.7  34122  288.92 0854.51
2009/04/23 16:23:31.6    -145   -215   -126    260    288 214.1 -31.8  34116  288.81 0854.51
2009/04/23 16:23:31.7    -182   -200    -10    271    272 222.4  -2.2  34114  288.78 0854.51
2009/04/23 16:23:31.8    -154   -175    -15    234    235 221.5  -3.9  34120  288.90 0854.51
2009/04/23 16:23:31.9    -185   -132    -40    228    232 234.5 -10.1  34112  288.75 0854.51
2009/04/23 16:23:32.0    -159   -240    -82    289    300 213.6 -20.7  34116  288.83 0854.51
2009/04/23 16:23:32.1    -159    -12   -123    160    201 265.7 -46.0  34118  288.86 0854.51
2009/04/23 16:23:32.2    -216     46   -111    221    247 282.2 -33.1  34122  288.92 0854.51
2009/04/23 16:23:32.3    -232    -30    -42    234    238 262.5 -10.3  34116  288.81 0854.51
2009/04/23 16:23:32.4    -181   -202     31    272    274 221.9   6.7  34116  288.81 0854.51
2009/04/23 16:23:32.5      -4   -148     -8    149    150 181.8  -3.1  34116  288.84 0854.51
2009/04/23 16:23:32.6      43    -48      9     65     66 137.7   8.0  34114  288.80 0854.51
2009/04/23 16:23:32.7       4     43     25     44     50   5.3  32.4  34118  288.86 0854.51
2009/04/23 16:23:32.8     -50    100     79    113    137 333.3  38.6  34136  289.18 0854.51
2009/04/23 16:23:32.9     -71     41    -44     83     93 300.2 -34.7  34132  289.11 0854.51
2009/04/23 16:23:33.0    -117    -95   -102    152    183 230.9 -41.4  34146  289.33 0854.51
2009/04/23 16:23:33.1     -28   -199    -76    202    215 188.0 -26.1  34142  289.28 0854.51
2009/04/23 16:23:33.2      58   -334   -133    340    365 170.1 -26.8  34130  289.08 0854.51
2009/04/23 16:23:33.3     100   -254    -34    274    277 158.4  -7.2  34126  289.00 0854.51
2009/04/23 16:23:33.4      21   -274     32    275    277 175.5   6.7  34128  289.02 0854.51
2009/04/23 16:23:33.5     -21   -414    220    415    469 183.0  30.2  34114  288.78 0854.52
2009/04/23 16:23:33.6    -175   -371    217    411    464 205.3  30.2  34110  288.73 0854.52
2009/04/23 16:23:33.7    -184   -278    185    334    381 213.5  31.4  34126  288.98 0854.52
2009/04/23 16:23:33.8    -165   -190     71    252    262 221.0  15.8  34128  289.03 0854.52
2009/04/23 16:23:33.9    -148   -250     94    291    306 210.7  17.9  34126  289.00 0854.52
2009/04/23 16:23:34.0    -266   -177     62    320    326 236.3  11.0  34126  288.98 0854.52
2009/04/23 16:23:34.1     -81   -119    -46    145    153 214.2 -17.5  34118  288.86 0854.52
2009/04/23 16:23:34.2      59   -211    -71    220    231 164.2 -23.6  34120  288.89 0854.52
2009/04/23 16:23:34.3      92   -253    -32    270    272 159.9  -6.9  34120  288.88 0854.52
2009/04/23 16:23:34.4     139   -203     -5    247    248 145.5  -1.2  34120  288.90 0854.52
2009/04/23 16:23:34.5     140   -193     49    239    245 143.9  11.6  34124  288.95 0854.52
2009/04/23 16:23:34.6      48   -180     67    187    198 164.9  20.7  34120  288.91 0854.52
2009/04/23 16:23:34.7      32   -171     72    175    189 169.3  23.4  34120  288.91 0854.52
2009/04/23 16:23:34.8      -2   -192     30    193    196 180.7   8.9  34114  288.80 0854.52
2009/04/23 16:23:34.9       4   -139   -131    140    191 178.2 -52.4  34120  288.89 0854.52
2009/04/23 16:23:35.0      -6     61   -123     62    137 353.8 -75.8  34128  289.02 0854.52
2009/04/23 16:23:35.1      16    -41    -30     45     54 158.2 -40.9  34124  288.96 0854.52
2009/04/23 16:23:35.2     -11    -29    -19     32     37 201.8 -39.9  34118  288.86 0854.52
2009/04/23 16:23:35.3    -131     99    -22    165    167 307.1  -7.7  34114  288.79 0854.52
2009/04/23 16:23:35.4    -132    170    -63    216    226 322.1 -16.4  34118  288.86 0854.52
2009/04/23 16:23:35.5    -199     21   -135    201    242 276.1 -41.4  34122  288.92 0854.52
2009/04/23 16:23:35.6    -366     -2   -186    367    411 269.6 -33.5  34126  289.01 0854.52
2009/04/23 16:23:35.7    -515    -83   -234    522    572 260.8 -30.2  34106  288.65 0854.52
2009/04/23 16:23:35.8    -256   -348   -344    433    553 216.4 -47.0  34114  288.79 0854.52
2009/04/23 16:23:35.9    -449     76   -164    456    484 279.6 -25.0  34118  288.86 0854.52
2009/04/23 16:23:36.0    -415   -293   -362    509    624 234.8 -43.2  34126  288.98 0854.52
2009/04/23 16:23:36.1    -494   -400   -153    636    655 231.0 -13.6  34132  289.09 0854.52
2009/04/23 16:23:36.2    -542   -187   -159    574    596 251.0 -15.5  34126  288.98 0854.52
2009/04/23 16:23:36.3    -604   -333   -220    690    724 241.1 -22.8  34136  289.15 0854.52
2009/04/23 16:23:36.4      56   -408   -177    412    448 172.1 -29.3  34126  288.99 0854.52
2009/04/23 16:23:36.5     125   -340   -119    363    382 159.7 -23.7  34126  289.01 0854.52
2009/04/23 16:23:36.6      42   -318   -109    321    339 172.4 -23.7  34122  288.93 0854.52
2009/04/23 16:23:36.7      43   -263    -83    267    279 170.7 -22.3  34108  288.70 0854.52
2009/04/23 16:23:36.8     -79   -133    -96    155    182 210.8 -39.4  34128  289.02 0854.52
2009/04/23 16:23:36.9      82   -246   -183    260    317 161.5 -43.0  34126  288.98 0854.52
2009/04/23 16:23:37.0      53   -439   -135    443    463 173.0 -21.8  34124  288.95 0854.52
2009/04/23 16:23:37.1       6   -345      4    346    347 179.0   0.8  34126  288.99 0854.52
2009/04/23 16:23:37.2      36   -336     65    339    346 173.8  11.0  34120  288.88 0854.52
2009/04/23 16:23:37.3      14   -308    117    309    330 177.4  21.6  34120  288.90 0854.52
2009/04/23 16:23:37.4     236   -181    135    298    327 127.5  26.0  34128  289.03 0854.52
2009/04/23 16:23:37.5     316   -351    116    473    488 138.1  13.8  34120  288.91 0854.51
2009/04/23 16:23:37.6     388   -407     70    563    568 136.3   7.1  34126  288.99 0854.51
2009/04/23 16:23:37.7     278   -504     28    576    577 151.1   2.8  34124  288.97 0854.51
2009/04/23 16:23:37.8     158   -319     69    357    364 153.6  11.0  34128  289.04 0854.51
2009/04/23 16:23:37.9      77   -255     42    267    271 163.1   9.0  34130  289.07 0854.51
2009/04/23 16:23:38.0     -20   -374    113    375    392 183.2  16.8  34128  289.03 0854.51
2009/04/23 16:23:38.1      85   -281    203    294    357 163.1  37.9  34130  289.08 0854.51
2009/04/23 16:23:38.2    -105   -222    129    246    277 205.5  29.8  34130  289.07 0854.51
2009/04/23 16:23:38.3    -224   -203      4    303    304 227.8   0.8  34126  289.00 0854.51
2009/04/23 16:23:38.4     -83   -365    -35    375    377 192.9  -5.4  34122  288.94 0854.51
2009/04/23 16:23:38.5     -41   -351    -16    354    355 186.7  -2.7  34128  289.04 0854.51
2009/04/23 16:23:38.6       6   -215   -116    216    245 178.4 -34.7  34134  289.14 0854.51
2009/04/23 16:23:38.7    -205   -124   -232    240    333 238.7 -53.4  34144  289.31 0854.51
2009/04/23 16:23:38.8    -540     11   -189    541    573 271.3 -24.4  34140  289.24 0854.51
2009/04/23 16:23:38.9    -501   -271   -164    570    594 241.6 -16.0  34142  289.27 0854.51
2009/04/23 16:23:39.0    -644   -194   -200    673    702 253.2 -21.4  34136  289.17 0854.51
2009/04/23 16:23:39.1    -483   -317   -210    578    614 236.7 -25.3  34140  289.22 0854.51
2009/04/23 16:23:39.2    -518    -94   -127    527    543 259.7 -13.6  34152  289.45 0854.51
2009/04/23 16:23:39.3    -437   -232   -188    495    529 242.0 -26.2  34150  289.40 0854.51
2009/04/23 16:23:39.4    -577   -148   -239    596    642 255.6 -27.4  34116  288.82 0854.51
2009/04/23 16:23:39.5    -503   -195   -251    540    595 248.8 -31.3  34100  288.56 0854.50
2009/04/23 16:23:39.6    -512   -124   -312    527    612 256.3 -37.8  34088  288.36 0854.50
2009/04/23 16:23:39.7    -440    -96   -338    451    563 257.6 -45.0  34088  288.36 0854.50
2009/04/23 16:23:39.8    -447   -129   -331    466    571 253.9 -43.2  34092  288.43 0854.50
2009/04/23 16:23:39.9    -346    -51   -319    350    473 261.5 -51.4  34086  288.31 0854.50
2009/04/23 16:23:40.0    -378    -11   -344    379    511 268.2 -51.3  34090  288.39 0854.50
2009/04/23 16:23:40.1    -384     23   -369    385    533 273.5 -53.1  34102  288.59 0854.50
2009/04/23 16:23:40.2    -424    -43   -220    427    480 264.2 -33.7  34114  288.78 0854.50
2009/04/23 16:23:40.3    -650     28   -193    651    679 272.5 -21.4  34126  288.99 0854.50
2009/04/23 16:23:40.4    -573     -9   -116    574    586 269.0 -11.5  34154  289.46 0854.50
2009/04/23 16:23:40.5    -482   -158   -157    508    532 251.9 -17.2  34128  289.02 0854.50
2009/04/23 16:23:40.6    -482    -54   -223    486    534 263.5 -30.7  34082  288.25 0854.50
2009/04/23 16:23:40.7    -499    -38   -205    501    541 265.6 -27.9  34100  288.57 0854.50
2009/04/23 16:23:40.8    -403   -124   -122    422    439 252.8 -21.0  34142  289.27 0854.50
2009/04/23 16:23:40.9    -377   -190   -175    423    457 243.2 -28.1  34128  289.04 0854.50
2009/04/23 16:23:41.0    -400   -176   -154    438    464 246.3 -24.5  34092  288.43 0854.50
2009/04/23 16:23:41.1    -439   -117   -203    455    498 255.0 -30.1  34094  288.47 0854.50
2009/04/23 16:23:41.2    -356   -106   -196    372    420 253.3 -34.5  34092  288.41 0854.50
2009/04/23 16:23:41.3    -326   -136   -176    354    395 247.3 -32.9  34094  288.47 0854.50
2009/04/23 16:23:41.4    -295   -115   -134    317    344 248.7 -28.7  34092  288.42 0854.50
2009/04/23 16:23:41.5    -261   -141   -112    297    317 241.6 -26.0  34096  288.48 0854.50
2009/04/23 16:23:41.6    -156   -135   -136    207    247 229.1 -40.9  34090  288.37 0854.50
2009/04/23 16:23:41.7    -159   -198   -139    255    290 218.7 -35.7  34088  288.34 0854.50
2009/04/23 16:23:41.8    -120   -225   -179    256    312 208.1 -42.8  34102  288.58 0854.50
2009/04/23 16:23:41.9    -113   -248   -138    273    305 204.5 -33.1  34104  288.63 0854.50
2009/04/23 16:23:42.0    -259   -150   -141    300    331 240.0 -31.4  34108  288.70 0854.50
2009/04/23 16:23:42.1    -181   -183   -107    258    279 224.8 -28.0  34104  288.61 0854.50
2009/04/23 16:23:42.2    -198   -139   -151    242    285 234.9 -39.6  34104  288.61 0854.50
2009/04/23 16:23:42.3    -175    -42   -155    180    237 256.5 -49.8  34096  288.48 0854.50
2009/04/23 16:23:42.4    -164    -16   -144    165    219 264.1 -50.2  34100  288.57 0854.50
2009/04/23 16:23:42.5    -155     -7   -152    156    217 267.4 -53.8  34098  288.53 0854.50
2009/04/23 16:23:42.6    -190     62   -150    201    250 288.2 -45.0  34094  288.44 0854.50
2009/04/23 16:23:42.7    -153     51    -80    162    180 288.6 -32.6  34096  288.48 0854.50
2009/04/23 16:23:42.8    -124     27    -90    127    155 282.4 -43.5  34098  288.53 0854.50
2009/04/23 16:23:42.9     -64      5    -55     65     85 275.2 -49.2  34104  288.62 0854.50
2009/04/23 16:23:43.0     -54      7    -19     55     58 277.9 -23.3  34106  288.67 0854.50
2009/04/23 16:23:43.1     -28      2     -3     29     30 274.4  -7.2  34104  288.62 0854.50
2009/04/23 16:23:43.2     -25     -5     13     26     29 258.5  27.2  34104  288.64 0854.50
2009/04/23 16:23:43.3     -31      0     15     32     35 270.0  27.2  34104  288.62 0854.50
2009/04/23 16:23:43.4     -41      7     -1     42     43 279.7  -2.2  34102  288.60 0854.50
2009/04/23 16:23:43.5     -48     23      2     54     55 295.2   2.8  34100  288.55 0854.50
2009/04/23 16:23:43.6    -115     38     -4    122    123 288.6  -2.2  34098  288.53 0854.50
2009/04/23 16:23:43.7    -144     48     18    153    155 288.6   6.9  34098  288.53 0854.50
2009/04/23 16:23:43.8    -160     49     -6    168    169 287.3  -2.1  34102  288.58 0854.50
2009/04/23 16:23:43.9    -238     82    -34    252    255 289.1  -7.7  34104  288.61 0854.50
2009/04/23 16:23:44.0    -274     82    -71    287    296 286.8 -13.9  34102  288.58 0854.50
2009/04/23 16:23:44.1    -209    -18    -61    210    219 265.0 -16.4  34098  288.53 0854.50
2009/04/23 16:23:44.2    -203     34    -64    206    216 279.6 -17.3  34100  288.55 0854.50
2009/04/23 16:23:44.3    -189    144    -84    238    253 307.3 -19.6  34102  288.58 0854.50
2009/04/23 16:23:44.4    -118    115    -52    165    173 314.2 -22.8  34102  288.58 0854.51
2009/04/23 16:23:44.5    -171    128    -75    214    226 306.9 -24.0  34102  288.60 0854.51
2009/04/23 16:23:44.6    -153    113    -56    191    200 306.4 -16.4  34104  288.62 0854.51
2009/04/23 16:23:44.7      -6    146      7    147    148 357.4   2.8  34102  288.58 0854.51
2009/04/23 16:23:44.8     191    162    -45    251    256  49.6 -10.3  34132  289.10 0854.51
2009/04/23 16:23:44.9      25    160    -16    162    163   8.9  -6.0  34108  288.70 0854.51
2009/04/23 16:23:45.0     -17    122     42    124    132 352.0  18.9  34114  288.79 0854.51
2009/04/23 16:23:45.1     -39     86      4     95     96 335.5   2.9  34108  288.70 0854.51
2009/04/23 16:23:45.2     -71     60    -64     94    113 310.0 -41.4  34090  288.40 0854.51
2009/04/23 16:23:45.3     -48     71    -84     86    120 325.7 -54.4  34092  288.42 0854.51
2009/04/23 16:23:45.4     -42     92    -74    102    126 335.5 -44.1  34096  288.48 0854.51
2009/04/23 16:23:45.5    -110     74    -56    133    144 304.2 -28.0  34102  288.60 0854.51
2009/04/23 16:23:45.6    -126     44    -61    134    147 289.5 -31.0  34102  288.60 0854.51
2009/04/23 16:23:45.7     -40     37    -25     55     60 313.1 -31.5  34104  288.64 0854.51
2009/04/23 16:23:45.8     -83    169    -28    189    192 333.7  -8.6  34100  288.57 0854.51
2009/04/23 16:23:45.9    -199    114    -48    230    236 299.8 -11.9  34112  288.76 0854.51
2009/04/23 16:23:46.0    -233    104    -56    256    263 294.2 -12.4  34104  288.63 0854.51
2009/04/23 16:23:46.1    -264     11   -106    265    285 272.4 -27.4  34106  288.65 0854.51
2009/04/23 16:23:46.2    -202      0   -173    203    266 269.9 -49.2  34106  288.66 0854.51
2009/04/23 16:23:46.3    -307     61   -219    314    382 281.4 -42.8  34110  288.71 0854.51
2009/04/23 16:23:46.4    -138     -4   -140    139    197 268.3 -54.5  34110  288.74 0854.52
2009/04/23 16:23:46.5     -83    -53   -137     99    169 237.6 -64.9  34120  288.89 0854.52
2009/04/23 16:23:46.6     -76     -6   -132     77    152 264.8 -71.2  34116  288.82 0854.52
2009/04/23 16:23:46.7     -98     -6   -141     99    172 266.1 -66.2  34124  288.96 0854.52
2009/04/23 16:23:46.8     -23    -70   -124     74    144 198.7 -70.6  34142  289.26 0854.52
2009/04/23 16:23:46.9      -5    -91    -82     92    123 183.1 -51.3  34158  289.55 0854.52
2009/04/23 16:23:47.0     -26   -181    -51    183    191 188.2 -15.8  34154  289.48 0854.52
2009/04/23 16:23:47.1     -83    -77    -88    114    144 226.9 -46.1  34156  289.52 0854.52
2009/04/23 16:23:47.2     -42    -81   -140     92    167 207.6 -68.3  34164  289.65 0854.52
2009/04/23 16:23:47.3      -7   -171   -127    172    213 182.5 -44.3  34158  289.53 0854.52
2009/04/23 16:23:47.4      -9   -149   -156    150    216 183.6 -55.8  34136  289.18 0854.52
2009/04/23 16:23:47.5     -12   -264   -146    265    302 182.7 -35.8  34148  289.36 0854.52
2009/04/23 16:23:47.6      29   -194    -86    197    214 171.3 -29.5  34152  289.43 0854.52
2009/04/23 16:23:47.7      57   -159     94    170    194 160.2  31.4  34154  289.46 0854.52
2009/04/23 16:23:47.8      94   -182    114    205    234 152.6  31.4  34148  289.36 0854.52
2009/04/23 16:23:47.9      73   -195    122    209    242 159.3  33.1  34140  289.24 0854.52
2009/04/23 16:23:48.0     201   -234    112    309    328 139.4  20.7  34142  289.25 0854.52
2009/04/23 16:23:48.1     241   -241    118    341    362 135.0  19.2  34144  289.30 0854.52
2009/04/23 16:23:48.2     273   -250    106    371    387 132.4  16.0  34138  289.20 0854.52
2009/04/23 16:23:48.3     248   -223    132    334    359 132.0  22.8  34136  289.15 0854.52
2009/04/23 16:23:48.4     185   -332     44    381    384 150.8   6.7  34136  289.18 0854.50
2009/04/23 16:23:48.5     130   -373    132    396    418 160.8  18.4  34142  289.27 0854.50
2009/04/23 16:23:48.6      14   -451     62    452    457 178.1   7.8  34152  289.43 0854.50
2009/04/23 16:23:48.7     -48   -417    -27    420    421 186.6  -3.7  34140  289.22 0854.50
2009/04/23 16:23:48.8      11   -380    107    381    396 178.3  15.7  34136  289.18 0854.50
2009/04/23 16:23:48.9      94   -339    194    352    401 164.5  31.3  34152  289.42 0854.50
2009/04/23 16:23:49.0      51   -409     16    413    414 172.8   2.2  34150  289.39 0854.50
2009/04/23 16:23:49.1      79   -458     29    465    466 170.2   3.6  34150  289.39 0854.50
2009/04/23 16:23:49.2      82   -437     -5    445    446 169.3  -0.7  34150  289.41 0854.50
2009/04/23 16:23:49.3     147   -416     37    442    444 160.5   4.9  34152  289.43 0854.50
2009/04/23 16:23:49.4      99   -441     19    453    454 167.3   2.5  34150  289.41 0854.50
2009/04/23 16:23:49.5      44   -536    194    538    571 175.2  20.7  34178  289.87 0854.50
2009/04/23 16:23:49.6      42   -475    195    477    515 174.9  23.5  34170  289.73 0854.50
2009/04/23 16:23:49.7    -175   -356    192    397    440 206.2  27.7  34154  289.46 0854.50
2009/04/23 16:23:49.8    -386   -236    160    453    481 238.6  19.5  34148  289.37 0854.50
2009/04/23 16:23:49.9    -128   -455    169    473    502 195.8  20.4  34162  289.61 0854.50
2009/04/23 16:23:50.0     -66   -303    179    311    358 192.3  32.7  34170  289.74 0854.50
2009/04/23 16:23:50.1    -164   -382    234    416    477 203.3  32.0  34180  289.90 0854.50
2009/04/23 16:23:50.2    -271   -517    356    584    683 207.7  34.3  34188  290.03 0854.50
2009/04/23 16:23:50.3    -398   -304     93    502    511 232.6  10.6  34170  289.73 0854.50
2009/04/23 16:23:50.4    -275   -404    307    489    577 214.3  35.3  34170  289.75 0854.47
2009/04/23 16:23:50.5    -358   -156     33    391    393 246.4   4.9  34162  289.59 0854.47
2009/04/23 16:23:50.6    -378   -199     61    428    433 242.2   8.1  34216  290.51 0854.47
2009/04/23 16:23:50.7    -419   -231    131    479    497 241.1  15.3  34176  289.84 0854.47
2009/04/23 16:23:50.8    -263   -193     -3    327    328 233.6  -0.6  34172  289.78 0854.47
2009/04/23 16:23:50.9    -171   -231    118    288    311 216.5  23.4  34166  289.66 0854.47
2009/04/23 16:23:51.0    -132   -249     24    283    285 208.0   4.9  34168  289.71 0854.47
2009/04/23 16:23:51.1    -191   -282     22    341    342 214.1   3.8  34162  289.59 0854.47
2009/04/23 16:23:51.2    -152   -313     68    349    356 206.0  11.1  34156  289.52 0854.47
2009/04/23 16:23:51.3    -170   -187     26    253    255 222.3   5.9  34178  289.88 0854.47
2009/04/23 16:23:51.4    -126   -122     -6    176    177 225.8  -2.2  34178  289.87 0854.47
2009/04/23 16:23:51.5    -175   -198     82    265    278 221.4  17.3  34168  289.71 0854.47
2009/04/23 16:23:51.6    -234   -133     98    270    287 240.3  20.9  34166  289.68 0854.47
2009/04/23 16:23:51.7    -323   -126    135    348    373 248.6  22.4  34182  289.93 0854.47
2009/04/23 16:23:51.8    -255   -111     57    279    285 246.5  11.6  34192  290.10 0854.47
2009/04/23 16:23:51.9    -267   -141     22    303    304 242.1   4.2  34180  289.92 0854.47
2009/04/23 16:23:52.0    -258   -149      3    299    300 240.0   0.7  34178  289.86 0854.47
2009/04/23 16:23:52.1    -316   -115    -43    337    340 250.0  -7.3  34198  290.20 0854.47
2009/04/23 16:23:52.2    -271   -149    -56    310    316 241.1 -10.2  34184  289.98 0854.47
2009/04/23 16:23:52.3    -200   -154     -9    253    254 232.5  -2.1  34198  290.22 0854.47
2009/04/23 16:23:52.4    -110   -121    -16    164    165 222.3  -5.6  34200  290.26 0854.47
2009/04/23 16:23:52.5     -53    -31     13     62     64 239.3  12.2  34200  290.25 0854.47
2009/04/23 16:23:52.6    -171      0      8    172    173 270.1   2.8  34176  289.85 0854.47
2009/04/23 16:23:52.7    -246    -63    -62    255    263 255.6 -13.7  34192  290.10 0854.47
2009/04/23 16:23:52.8    -200    -16    -55    201    209 265.4 -15.4  34190  290.08 0854.47
2009/04/23 16:23:52.9    -174      5    -11    175    176 271.9  -3.9  34194  290.14 0854.47
2009/04/23 16:23:53.0    -256      0     14    257    258 270.0   3.1  34194  290.15 0854.47
2009/04/23 16:23:53.1    -283     12    -38    284    287 272.5  -7.7  34192  290.10 0854.47
2009/04/23 16:23:53.2    -346     56    -58    351    356 279.2  -9.5  34178  289.86 0854.47
2009/04/23 16:23:53.3    -357   -126    -99    379    392 250.5 -14.7  34164  289.64 0854.47
2009/04/23 16:23:53.4    -352     23   -103    353    368 273.8 -16.4  34138  289.21 0854.47
2009/04/23 16:23:53.5    -324    108    -96    342    356 288.6 -15.7  34170  289.74 0854.47
2009/04/23 16:23:53.6    -234     10    -78    235    247 272.6 -23.8  34172  289.76 0854.47
2009/04/23 16:23:53.7    -127    -92     12    157    158 234.1   4.6  34168  289.70 0854.47
2009/04/23 16:23:53.8    -160   -105     54    192    200 236.5  15.8  34174  289.82 0854.47
2009/04/23 16:23:53.9    -170   -108     35    202    206 237.4   9.9  34188  290.04 0854.47
2009/04/23 16:23:54.0     -81     26     87     86    122 288.2  50.1  34194  290.14 0854.47
2009/04/23 16:23:54.1     -68    -45     87     82    119 236.7  51.6  34192  290.13 0854.47
2009/04/23 16:23:54.2    -175    -29     15    178    179 260.5   4.9  34218  290.55 0854.47
2009/04/23 16:23:54.3    -106    -67     57    126    138 237.5  25.7  34224  290.67 0854.47
2009/04/23 16:23:54.4    -143   -100     63    175    185 234.9  20.2  34186  290.01 0854.49
2009/04/23 16:23:54.5    -203    -59      0    212    213 253.8   0.2  34218  290.57 0854.49
2009/04/23 16:23:54.6    -141   -101      7    174    175 234.5   2.3  34222  290.62 0854.49
2009/04/23 16:23:54.7     -67   -172     58    185    194 201.4  17.4  34178  289.87 0854.49
2009/04/23 16:23:54.8       5   -196     74    197    210 178.4  21.0  34170  289.74 0854.49
2009/04/23 16:23:54.9       0   -111     60    112    127 180.4  30.8  34174  289.80 0854.49
2009/04/23 16:23:55.0      22   -128     38    130    136 170.2  16.3  34170  289.75 0854.49
2009/04/23 16:23:55.1     -87   -215     65    233    242 202.1  15.6  34176  289.83 0854.49
2009/04/23 16:23:55.2     -57   -173     78    183    198 198.3  24.3  34166  289.69 0854.49
2009/04/23 16:23:55.3    -109   -230     10    255    256 205.3   2.3  34168  289.70 0854.49
2009/04/23 16:23:55.4    -165   -206     -5    265    266 218.7  -1.3  34168  289.70 0854.49
2009/04/23 16:23:55.6    -123   -232      3    263    264 207.9   0.8  34158  289.53 0854.49
2009/04/23 16:23:55.7     -56   -349     -3    354    355 189.1  -0.5  34152  289.45 0854.49
2009/04/23 16:23:55.8    -101   -477    -55    488    492 192.0  -6.5  34156  289.50 0854.49
2009/04/23 16:23:55.9      60   -339     29    345    347 169.9   4.9  34152  289.43 0854.49
2009/04/23 16:23:56.0     122   -427     80    445    453 164.0  10.2  34164  289.63 0854.49
2009/04/23 16:23:56.1      94   -520    -61    529    533 169.7  -6.6  34170  289.75 0854.49
2009/04/23 16:23:56.2     151   -509    -41    531    533 163.5  -4.5  34168  289.72 0854.49
2009/04/23 16:23:56.3     274   -343    164    440    469 141.4  21.5  34164  289.63 0854.49
2009/04/23 16:23:56.4     318   -269     74    417    424 130.2  10.1  34158  289.55 0854.49
2009/04/23 16:23:56.5     199   -303     85    363    373 146.6  13.2  34158  289.54 0854.51
2009/04/23 16:23:56.6      -1   -102     27    103    107 181.0  14.7  34172  289.79 0854.51
2009/04/23 16:23:56.7     -35   -111    130    117    174 197.4  53.5  34194  290.14 0854.51
2009/04/23 16:23:56.8     -30    -87     65     93    113 199.2  38.0  34184  289.99 0854.51
2009/04/23 16:23:56.9     -36    -92    176     99    201 201.4  68.3  34222  290.62 0854.51
2009/04/23 16:23:57.0      36      0    108     37    114  90.0  81.2  34220  290.60 0854.51
2009/04/23 16:23:57.1       0     11    104     12    104 357.3  90.0  34226  290.69 0854.51
2009/04/23 16:23:57.2     -97    -22     66    100    119 256.7  37.0  34222  290.64 0854.51
2009/04/23 16:23:57.3     -61      8    128     62    142 277.9  72.8  34212  290.45 0854.51
2009/04/23 16:23:57.4      21    -66     84     70    109 161.7  56.3  34188  290.04 0854.51
2009/04/23 16:23:57.5     -10   -125     82    126    150 184.9  35.6  34200  290.26 0854.51
2009/04/23 16:23:57.6      60   -133     61    147    159 155.5  23.8  34204  290.31 0854.51
2009/04/23 16:23:57.7       7    -84     -3     85     86 175.1  -2.2  34184  289.99 0854.51
2009/04/23 16:23:57.8     -14   -128     74    129    148 186.3  32.4  34182  289.94 0854.51
2009/04/23 16:23:57.9     -75    -32     38     82     90 246.5  27.1  34186  290.01 0854.51
2009/04/23 16:23:58.0      33     39     47     52     70  40.5  46.9  34210  290.43 0854.51
2009/04/23 16:23:58.1      21     17     41     28     49  50.5  62.6  34212  290.45 0854.51
2009/04/23 16:23:58.2      41    -53    -41     68     79 142.2 -38.4  34200  290.25 0854.51
2009/04/23 16:23:58.3     -58    -80     10    100    101 216.1   5.9  34166  289.67 0854.51
2009/04/23 16:23:58.4    -130   -157    148    204    252 219.6  39.5  34174  289.81 0854.51
2009/04/23 16:23:58.5    -244   -160    139    292    323 236.7  27.3  34194  290.14 0854.47
2009/04/23 16:23:58.6    -209   -202     21    291    292 226.0   4.2  34150  289.41 0854.47
2009/04/23 16:23:58.7    -152   -227    -13    274    275 213.8  -2.8  34148  289.37 0854.47
2009/04/23 16:23:58.8    -210   -138    -70    252    261 236.7 -20.2  34156  289.51 0854.47
2009/04/23 16:23:58.9     -65    -85    107    108    152 217.4  50.0  34164  289.63 0854.47
2009/04/23 16:23:59.0     -31   -109    126    114    169 196.0  53.3  34180  289.92 0854.47
2009/04/23 16:23:59.1     -35   -107    155    113    191 198.3  60.5  34190  290.09 0854.47
2009/04/23 16:23:59.2     -30      6    106     31    110 281.5  83.3  34192  290.13 0854.47
2009/04/23 16:23:59.3    -134    -41     91    141    167 252.7  35.7  34174  289.82 0854.47
2009/04/23 16:23:59.4    -158     12     75    159    175 274.4  27.1  34182  289.96 0854.47
2009/04/23 16:23:59.5    -169   -101    101    197    221 239.1  29.3  34176  289.84 0854.47
2009/04/23 16:23:59.6    -159   -131    102    207    230 230.5  27.8  34168  289.72 0854.47
2009/04/23 16:23:59.7    -211   -143    115    256    280 235.8  25.7  34166  289.66 0854.47
2009/04/23 16:23:59.8     -82   -190    189    208    281 203.4  47.0  34158  289.54 0854.47
2009/04/23 16:23:59.9     -71   -127    140    146    202 209.4  49.0  34164  289.65 0854.47
2009/04/23 16:24:00.0     143   -115    116    184    217 128.9  35.5  34172  289.79 0854.47
2009/04/23 16:24:00.1     106    -67    114    126    169 122.4  46.9  34178  289.87 0854.47
2009/04/23 16:24:00.2      63    -52    114     82    140 129.6  60.6  34182  289.94 0854.47
2009/04/23 16:24:00.3      81    -15    103     83    132 101.0  56.4  34186  290.01 0854.47
2009/04/23 16:24:00.4     182    -22    121    184    220  97.0  36.3  34176  289.85 0854.47
2009/04/23 16:24:00.5     160   -216    126    270    297 143.5  27.1  34154  289.47 0854.47
2009/04/23 16:24:00.6     245   -209    133    323    349 130.4  23.7  34144  289.30 0854.47
2009/04/23 16:24:00.7     225   -199    205    301    364 131.4  37.6  34144  289.30 0854.47
2009/04/23 16:24:00.8     233   -192    181    303    352 129.5  33.5  34148  289.38 0854.47
2009/04/23 16:24:00.9     204   -234    248    311    397 138.8  42.7  34168  289.71 0854.47
2009/04/23 16:24:01.0     191   -173    200    259    327 132.2  41.5  34144  289.31 0854.47
2009/04/23 16:24:01.1     186   -181    175    260    313 134.2  37.2  34156  289.49 0854.47
2009/04/23 16:24:01.2     189   -221    184    292    345 139.5  35.5  34148  289.36 0854.47
2009/04/23 16:24:01.3     191   -175    182    260    317 132.4  38.5  34148  289.37 0854.47
2009/04/23 16:24:01.4     159   -180    146    241    281 138.5  34.2  34152  289.44 0854.47
2009/04/23 16:24:01.5      64   -139    194    154    247 155.1  57.5  34162  289.62 0854.47
2009/04/23 16:24:01.6      48   -190    186    197    270 165.7  48.0  34156  289.51 0854.47
2009/04/23 16:24:01.7     150   -263    221    303    375 150.2  39.7  34142  289.28 0854.47
2009/04/23 16:24:01.8      51   -240    191    246    311 168.0  41.7  34148  289.36 0854.47
2009/04/23 16:24:01.9      33   -199    181    202    271 170.4  46.6  34148  289.37 0854.47
2009/04/23 16:24:02.0      14   -199    139    200    243 176.0  38.0  34150  289.40 0854.47
2009/04/23 16:24:02.1      37   -185     80    189    205 168.4  24.3  34144  289.31 0854.47
2009/04/23 16:24:02.2      40   -167     80    172    189 166.4  27.1  34144  289.31 0854.47
2009/04/23 16:24:02.3      96   -143    105    173    202 146.2  34.2  34144  289.31 0854.47
2009/04/23 16:24:02.4      49   -136    109    145    181 160.0  40.7  34150  289.41 0854.47
2009/04/23 16:24:02.5      61   -180     83    191    208 161.3  25.1  34154  289.48 0854.50
2009/04/23 16:24:02.6      89   -104     47    138    146 139.5  18.9  34152  289.45 0854.50
2009/04/23 16:24:02.7      57    -90     28    107    111 147.5  14.7  34152  289.45 0854.50
2009/04/23 16:24:02.8     -14   -136     48    137    146 186.3  19.4  34146  289.33 0854.50
2009/04/23 16:24:02.9      44   -169     21    175    177 165.3   7.1  34150  289.40 0854.50
2009/04/23 16:24:03.0      67   -143    -49    159    167 154.8 -17.3  34150  289.41 0854.50
2009/04/23 16:24:03.1      64    -17     -2     67     68 105.1  -2.2  34150  289.40 0854.50
2009/04/23 16:24:03.2     -37    -59     52     70     87 212.5  40.7  34156  289.50 0854.50
2009/04/23 16:24:03.3      45   -107     38    117    124 157.3  17.9  34148  289.38 0854.50
2009/04/23 16:24:03.4     158   -109     82    192    208 124.6  24.6  34148  289.36 0854.50
2009/04/23 16:24:03.5     116    -52    126    128    179 114.0  50.0  34162  289.62 0854.52
2009/04/23 16:24:03.6      38    -28    105     48    115 126.0  73.5  34182  289.96 0854.52
2009/04/23 16:24:03.7       0     17     95     18     96 357.3  90.0  34190  290.09 0854.52
2009/04/23 16:24:03.8     -31     44     91     55    106 324.8  65.7  34186  290.01 0854.52
2009/04/23 16:24:03.9    -113      0    101    114    152 270.0  45.9  34180  289.91 0854.52
2009/04/23 16:24:04.0     -90     58     47    108    117 302.9  25.1  34176  289.85 0854.52
2009/04/23 16:24:04.1      83      3    104     84    133  87.4  56.4  34172  289.79 0854.52
2009/04/23 16:24:04.2      -1     33     55     34     64 357.3  64.7  34184  289.99 0854.52
2009/04/23 16:24:04.3     -45     25     74     52     90 299.8  61.5  34178  289.89 0854.52
2009/04/23 16:24:04.4    -113    -57    106    127    165 242.9  44.3  34164  289.63 0854.52
2009/04/23 16:24:04.5     -77    -25     33     82     88 251.8  23.0  34156  289.52 0854.52
2009/04/23 16:24:04.6     -13     -8    -16     16     22 237.5 -54.5  34156  289.52 0854.52
2009/04/23 16:24:04.7      58     46     49     75     89  51.4  36.0  34152  289.45 0854.52
2009/04/23 16:24:04.8       7     -3     68      8     68 115.3  90.0  34172  289.77 0854.52
2009/04/23 16:24:04.9      32     -9     73     34     80 106.8  73.5  34174  289.80 0854.52
2009/04/23 16:24:05.0      33     46     63     57     84  36.1  52.7  34174  289.80 0854.52
2009/04/23 16:24:05.1      16     95     30     97    102   9.8  17.3  34164  289.63 0854.52
2009/04/23 16:24:05.2      15     73      3     75     76  11.6   2.8  34174  289.82 0854.52
2009/04/23 16:24:05.3      11     35      7     37     38  18.5  11.1  34180  289.92 0854.52
2009/04/23 16:24:05.4     -21     64     10     68     69 341.5   9.0  34178  289.89 0854.52
2009/04/23 16:24:05.5     -19     72     26     75     80 344.9  19.2  34170  289.74 0854.53
2009/04/23 16:24:05.6     -28     18     24     34     41 302.5  39.7  34176  289.85 0854.53
2009/04/23 16:24:05.7     -28     18     18     34     38 302.4  29.3  34184  289.99 0854.53
2009/04/23 16:24:05.8     -24     17     43     30     52 306.0  61.5  34186  290.02 0854.53
2009/04/23 16:24:05.9     -64      8     82     65    104 277.9  57.5  34192  290.11 0854.53
2009/04/23 16:24:06.0    -114     32     99    119    154 285.9  43.8  34178  289.89 0854.53
2009/04/23 16:24:06.1    -118    104     94    158    183 311.4  33.7  34182  289.94 0854.53
2009/04/23 16:24:06.2     -37     92     79    100    127 338.2  42.7  34174  289.80 0854.53
2009/04/23 16:24:06.3     -14    190     97    191    214 355.8  29.2  34170  289.74 0854.53
2009/04/23 16:24:06.4      -7    161    114    162    198 357.3  38.6  34172  289.79 0854.53
2009/04/23 16:24:06.5      -4     93    115     94    148 357.3  56.4  34190  290.08 0854.53
2009/04/23 16:24:06.6      33     69    111     77    135  25.5  62.6  34188  290.06 0854.53
2009/04/23 16:24:06.7      93     88    124    129    178  46.4  49.0  34184  289.97 0854.53
2009/04/23 16:24:06.8     -17     51    106     54    118 341.3  70.8  34194  290.16 0854.53
2009/04/23 16:24:06.9       5     41    100     42    108   7.1  76.1  34198  290.21 0854.53
2009/04/23 16:24:07.0      16     16    118     24    120  45.0  89.0  34184  289.99 0854.53
2009/04/23 16:24:07.1      49      9     74     50     89  79.4  63.2  34184  289.99 0854.53
2009/04/23 16:24:07.2      46      3    127     47    135  85.7  79.2  34202  290.28 0854.53
2009/04/23 16:24:07.3     122    145     40    190    195  40.1  12.0  34250  291.09 0854.53
2009/04/23 16:24:07.4      41    166     73    172    186  14.0  24.3  34248  291.06 0854.53
2009/04/23 16:24:07.5     -71     46     66     85    107 302.9  42.2  34216  290.52 0854.53
2009/04/23 16:24:07.6     -82     87     43    120    127 316.8  20.0  34214  290.48 0854.53
2009/04/23 16:24:07.7     -32    173     74    177    191 349.3  23.8  34244  291.01 0854.53
2009/04/23 16:24:07.8     -25    238     95    240    258 353.8  23.0  34248  291.07 0854.53
2009/04/23 16:24:07.9     -34    212     68    215    226 350.9  17.7  34252  291.15 0854.53
2009/04/23 16:24:08.0     136    126    125    186    224  47.3  37.0  34240  290.92 0854.53
2009/04/23 16:24:08.1      55    162    150    172    228  18.9  45.8  34284  291.67 0854.53
2009/04/23 16:24:08.2      73     53    137     91    164  54.0  63.4  34266  291.38 0854.53
2009/04/23 16:24:08.3     168     26    131    171    215  81.0  41.6  34210  290.41 0854.53
2009/04/23 16:24:08.4     151     90    175    176    248  59.1  50.0  34282  291.66 0854.53
2009/04/23 16:24:08.5     139    117    133    182    225  49.8  39.7  34298  291.91 0854.53
2009/04/23 16:24:08.6     223     88     84    240    255  68.3  19.4  34348  292.76 0854.53
2009/04/23 16:24:08.7      92     44    128    103    164  64.2  57.1  34346  292.75 0854.53
2009/04/23 16:24:08.8       8    161    130    162    207   3.1  43.0  34316  292.23 0854.53
2009/04/23 16:24:08.9     -94    247     27    265    267 339.1   5.9  34226  290.68 0854.53
2009/04/23 16:24:09.0     -80    265    -35    278    281 343.1  -7.3  34208  290.37 0854.53
2009/04/23 16:24:09.1     -73    287    -16    297    298 345.7  -3.1  34228  290.73 0854.53
2009/04/23 16:24:09.2      32    157    126    161    204  11.6  41.7  34286  291.72 0854.53
2009/04/23 16:24:09.3     -24    135    120    138    182 349.8  45.8  34284  291.69 0854.53
2009/04/23 16:24:09.4      15     44    131     47    139  19.2  79.7  34310  292.12 0854.52
2009/04/23 16:24:09.5      24     29    107     38    113  39.6  80.7  34308  292.08 0854.52
2009/04/23 16:24:09.6      13      0     83     14     84  90.8  90.0  34318  292.25 0854.52
2009/04/23 16:24:09.7    -105     12     95    106    142 276.6  46.9  34282  291.66 0854.52
2009/04/23 16:24:09.8    -119    108     80    161    179 312.2  28.2  34250  291.09 0854.52
2009/04/23 16:24:09.9     -97     92     72    134    152 313.6  30.8  34248  291.06 0854.52
2009/04/23 16:24:10.0     -43     58     70     73    101 323.0  48.5  34242  290.96 0854.52
2009/04/23 16:24:10.1     -15      7    102     17    103 295.3  90.0  34262  291.30 0854.52
2009/04/23 16:24:10.2      48    -48     98     68    119 135.0  62.1  34264  291.35 0854.52
2009/04/23 16:24:10.3      15    -31    126     35    130 152.8  84.8  34272  291.47 0854.52
2009/04/23 16:24:10.4     -16    -53    131     56    142 196.9  76.1  34260  291.28 0854.52
2009/04/23 16:24:10.5     -52   -110    107    122    162 205.3  45.8  34238  290.89 0854.52
2009/04/23 16:24:10.6     -40   -166     87    171    191 193.6  28.7  34214  290.50 0854.52
2009/04/23 16:24:10.7     -43   -120    123    128    177 200.0  48.7  34212  290.47 0854.52
2009/04/23 16:24:10.8     -68    -85     82    110    137 218.7  40.7  34210  290.41 0854.52
2009/04/23 16:24:10.9    -101   -100    113    143    182 225.1  42.7  34208  290.38 0854.52
2009/04/23 16:24:11.0     -71   -129     88    148    172 208.9  34.0  34212  290.45 0854.52
2009/04/23 16:24:11.1    -126   -174     72    215    227 216.0  18.6  34230  290.77 0854.52
2009/04/23 16:24:11.2    -168   -167     46    237    242 225.2  11.0  34226  290.70 0854.52
2009/04/23 16:24:11.3    -134   -170     82    217    231 218.3  21.5  34224  290.65 0854.52
2009/04/23 16:24:11.4    -111   -111    113    157    193 225.0  39.3  34242  290.98 0854.52
2009/04/23 16:24:11.5    -118    -93     77    151    169 231.8  29.1  34248  291.06 0854.52
2009/04/23 16:24:11.6    -128   -112     55    171    180 228.7  17.9  34260  291.28 0854.52
2009/04/23 16:24:11.7    -136   -132    108    190    218 225.8  32.1  34284  291.67 0854.52
2009/04/23 16:24:11.8    -118    -77    140    142    199 236.7  50.0  34296  291.89 0854.52
2009/04/23 16:24:11.9     -69      0     83     70    108 269.2  55.8  34290  291.77 0854.52
2009/04/23 16:24:12.0     -31      9     50     33     59 286.8  63.6  34286  291.72 0854.52
2009/04/23 16:24:12.1     -71   -171    154    186    241 202.5  43.8  34264  291.33 0854.52
2009/04/23 16:24:12.2     -38   -242    212    246    324 189.1  45.2  34270  291.43 0854.52
2009/04/23 16:24:12.3    -120   -321    153    343    375 200.6  25.7  34230  290.76 0854.52
2009/04/23 16:24:12.4     -49   -233    156    239    285 192.0  36.0  34234  290.83 0854.52
2009/04/23 16:24:12.5      43   -167    157    173    233 165.5  47.1  34268  291.40 0854.52
2009/04/23 16:24:12.6      18    -82    138     84    161 167.5  66.0  34276  291.55 0854.52
2009/04/23 16:24:12.7      -7    -44     91     45    101 189.8  71.9  34294  291.86 0854.52
2009/04/23 16:24:12.8     -55   -138     52    149    157 201.8  20.0  34268  291.42 0854.52
2009/04/23 16:24:12.9     -80   -187     33    204    207 203.2   9.3  34250  291.09 0854.52
2009/04/23 16:24:13.0     -99   -200    107    224    248 206.5  27.3  34292  291.82 0854.52
2009/04/23 16:24:13.1     -78   -180    131    197    236 203.6  36.7  34274  291.50 0854.52
2009/04/23 16:24:13.2     -88   -171     74    193    206 207.2  22.0  34224  290.65 0854.52
2009/04/23 16:24:13.3     -76   -168     96    185    208 204.5  29.3  34204  290.33 0854.52
2009/04/23 16:24:13.4     -60   -135     99    148    178 204.1  37.0  34210  290.43 0854.50
2009/04/23 16:24:13.5     -47   -115     90    125    154 202.3  39.5  34196  290.19 0854.50
2009/04/23 16:24:13.6       4   -104     87    105    136 177.8  43.8  34208  290.38 0854.50
2009/04/23 16:24:13.7       7    -89    136     90    163 175.5  63.6  34240  290.92 0854.50
2009/04/23 16:24:13.8     -20     20     92     29     96 315.0  81.2  34238  290.89 0854.50
2009/04/23 16:24:13.9      14      3    121     15    121  74.9  90.0  34238  290.89 0854.50
2009/04/23 16:24:14.0       5     -1    150      6    150 108.4  90.0  34260  291.26 0854.50
2009/04/23 16:24:14.1     -19    -12     93     23     95 235.8  86.4  34250  291.09 0854.50
2009/04/23 16:24:14.2      -8     14     64     17     66 331.0  84.9  34242  290.98 0854.50
2009/04/23 16:24:14.3     -16    -18     58     25     63 221.4  76.1  34232  290.81 0854.50
2009/04/23 16:24:14.4      16    -47     86     50     99 161.3  67.2  34222  290.64 0854.50
2009/04/23 16:24:14.5      18    -20     62     28     68 138.6  74.0  34222  290.62 0854.50
2009/04/23 16:24:14.6       5    -61     92     62    110 174.7  63.2  34214  290.48 0854.50
2009/04/23 16:24:14.7     -52    -92     76    106    130 209.4  39.5  34216  290.52 0854.50
2009/04/23 16:24:14.8      -4    -44     62     45     76 186.2  60.5  34220  290.58 0854.50
2009/04/23 16:24:14.9       6    -16     55     18     57 158.2  80.7  34230  290.77 0854.50
2009/04/23 16:24:15.0      -7     -3     53      8     53 244.7  90.0  34230  290.75 0854.50
2009/04/23 16:24:15.1     -47     64     70     80    106 323.9  46.4  34220  290.60 0854.50
2009/04/23 16:24:15.2     -62    111     77    128    149 331.0  34.0  34250  291.09 0854.50
2009/04/23 16:24:15.3     -76    113     63    137    150 326.2  27.1  34248  291.08 0854.50
2009/04/23 16:24:15.4    -117     89     73    148    165 307.3  28.2  34260  291.28 0854.49
2009/04/23 16:24:15.5     -83     39     68     92    114 295.3  39.7  34264  291.33 0854.49
2009/04/23 16:24:15.6     -68    -20     62     72     95 253.2  45.4  34270  291.43 0854.49
2009/04/23 16:24:15.7    -246     28     77    248    260 276.6  17.4  34266  291.38 0854.49
2009/04/23 16:24:15.8    -259     65     73    268    278 284.2  15.3  34264  291.34 0854.49
2009/04/23 16:24:15.9    -244     78     -5    257    258 287.7  -1.3  34260  291.27 0854.49
2009/04/23 16:24:16.0    -185     86     -6    205    206 295.1  -1.8  34262  291.32 0854.49
2009/04/23 16:24:16.1      -2    282    103    283    301 359.5  20.9  34306  292.04 0854.49
2009/04/23 16:24:16.2     -40    313    110    316    334 352.7  20.0  34284  291.68 0854.49
2009/04/23 16:24:16.3     -48    217    121    223    253 347.5  31.3  34240  290.92 0854.49
2009/04/23 16:24:16.4     -66     66    110     94    144 315.0  55.4  34276  291.54 0854.49
2009/04/23 16:24:16.5     -61     61     82     87    119 315.3  48.5  34244  291.01 0854.49
2009/04/23 16:24:16.6       3     33     62     34     70   6.2  68.8  34236  290.86 0854.49
2009/04/23 16:24:16.7      18    131     31    133    137   8.1  13.2  34234  290.84 0854.49
2009/04/23 16:24:16.8      -2    164     56    165    175 359.1  18.9  34264  291.33 0854.49
2009/04/23 16:24:16.9     -27    198     79    201    215 352.0  23.0  34268  291.40 0854.49
2009/04/23 16:24:17.0     -37    156     37    161    166 346.6  13.2  34252  291.13 0854.49
2009/04/23 16:24:17.1     -11    229     23    230    232 357.1   5.9  34230  290.77 0854.49
2009/04/23 16:24:17.2    -108    178    -44    209    214 328.6 -11.9  34270  291.43 0854.49
2009/04/23 16:24:17.3     -64    156    -51    169    176 337.5 -21.5  34272  291.47 0854.49
2009/04/23 16:24:17.4     -84    125    -61    151    162 326.2 -27.4  34264  291.33 0854.50
2009/04/23 16:24:17.5     -85    134     12    159    160 327.5   4.6  34214  290.48 0854.50
2009/04/23 16:24:17.6     -75    163     53    180    188 335.1  16.6  34194  290.16 0854.50
2009/04/23 16:24:17.7    -201    102    -28    226    228 297.1  -7.2  34188  290.04 0854.50
2009/04/23 16:24:17.8    -160     26    -53    163    172 279.2 -18.1  34188  290.04 0854.50
2009/04/23 16:24:17.9     -89    -32    -58     95    111 250.0 -39.4  34192  290.11 0854.50
2009/04/23 16:24:18.0      -9    -99    -14    100    102 185.3  -8.2  34194  290.16 0854.50
2009/04/23 16:24:18.1      21   -105    -31    108    112 168.5 -20.7  34200  290.26 0854.50
2009/04/23 16:24:18.2      18    -96    -63     98    116 168.9 -40.0  34192  290.11 0854.50
2009/04/23 16:24:18.3       0   -101   -103    102    144 180.5 -54.5  34198  290.21 0854.50
2009/04/23 16:24:18.4     -21   -114    -93    117    149 190.7 -47.7  34202  290.28 0854.50
2009/04/23 16:24:18.5     -25   -101    -59    105    120 194.3 -36.3  34210  290.41 0854.50
2009/04/23 16:24:18.6     -50   -115    -45    126    133 203.6 -24.4  34198  290.23 0854.50
2009/04/23 16:24:18.7     -47   -150    -51    158    167 197.4 -18.1  34208  290.40 0854.50
2009/04/23 16:24:18.8      -6   -144    -18    145    147 182.6  -7.3  34206  290.35 0854.50
2009/04/23 16:24:18.9     -59   -178     -4    188    189 198.3  -1.3  34212  290.45 0854.50
2009/04/23 16:24:19.0     -48   -153    -26    161    164 197.4  -9.3  34204  290.31 0854.50
2009/04/23 16:24:19.1    -114   -107    -49    157    164 226.9 -22.8  34206  290.36 0854.50
2009/04/23 16:24:19.2    -148    -76    -88    167    188 242.9 -34.5  34220  290.60 0854.50
2009/04/23 16:24:19.3    -193    -10    -15    194    195 267.0  -4.6  34240  290.92 0854.50
2009/04/23 16:24:19.4    -122    -73      9    143    144 239.3   3.8  34246  291.04 0854.51
2009/04/23 16:24:19.5    -134   -134      0    190    191 225.1   0.2  34254  291.16 0854.51
2009/04/23 16:24:19.6     -51    -77    -26     93     96 213.8 -20.7  34250  291.09 0854.51
2009/04/23 16:24:19.7      17   -196    -31    197    200 174.9  -9.0  34176  289.85 0854.51
2009/04/23 16:24:19.8     -27   -212    -38    214    218 187.3 -10.3  34168  289.72 0854.51
2009/04/23 16:24:19.9      16   -209    -11    210    211 175.5  -3.1  34168  289.70 0854.51
2009/04/23 16:24:20.0       3   -200    -13    201    202 179.0  -3.7  34168  289.70 0854.51
2009/04/23 16:24:20.1     -12   -194      9    195    196 183.8   2.9  34170  289.75 0854.51
2009/04/23 16:24:20.2     -11   -191     57    192    201 183.4  16.6  34170  289.75 0854.51
2009/04/23 16:24:20.3     -50   -183    113    190    221 195.4  33.5  34182  289.96 0854.51
2009/04/23 16:24:20.4     -15   -133    164    134    211 186.7  56.4  34186  290.01 0854.51
2009/04/23 16:24:20.5     122    -57    136    135    191 115.2  49.9  34186  290.02 0854.51
2009/04/23 16:24:20.6     133   -240    225    275    355 151.0  43.6  34184  289.98 0854.51
2009/04/23 16:24:20.7      45    -45    138     64    152 135.0  73.1  34198  290.21 0854.51
2009/04/23 16:24:20.8      54   -173    119    182    217 162.4  36.0  34174  289.80 0854.51
2009/04/23 16:24:20.9     164   -276    122    322    344 149.2  21.7  34168  289.71 0854.51
2009/04/23 16:24:21.0     140   -292     58    324    330 154.4  10.2  34168  289.71 0854.51
2009/04/23 16:24:21.1     122   -242     64    272    280 153.3  13.2  34168  289.70 0854.51
2009/04/23 16:24:21.2     113   -176     30    210    213 147.3   8.2  34162  289.62 0854.51
2009/04/23 16:24:21.3      71   -128     98    147    176 151.0  36.7  34168  289.72 0854.51
2009/04/23 16:24:21.4      82    -89    147    122    191 137.2  56.3  34180  289.91 0854.50
2009/04/23 16:24:21.5       0    -92    114     93    147 180.5  56.4  34198  290.23 0854.50
2009/04/23 16:24:21.6     181    -22    141    183    231  97.0  41.7  34188  290.04 0854.50
2009/04/23 16:24:21.7     241      0    156    242    287  90.0  35.6  34188  290.05 0854.50
2009/04/23 16:24:21.8     229    -46    164    234    285 101.4  38.5  34232  290.78 0854.50
2009/04/23 16:24:21.9     204    -21    127    206    242  95.9  34.5  34240  290.94 0854.50
2009/04/23 16:24:22.0     106    -34    203    112    231 108.2  68.8  34214  290.50 0854.50
2009/04/23 16:24:22.1      62     87    141    108    177  35.6  58.7  34224  290.65 0854.50
2009/04/23 16:24:22.2     -38     82    105     91    138 335.1  54.3  34190  290.09 0854.50
2009/04/23 16:24:22.3     -99     29     46    104    113 286.4  25.7  34190  290.08 0854.50
2009/04/23 16:24:22.4    -153   -185    -25    241    243 219.7  -6.0  34168  289.71 0854.50
2009/04/23 16:24:22.5    -139   -167     -6    218    219 219.9  -1.6  34162  289.62 0854.50
2009/04/23 16:24:22.6    -144    -61     -1    157    158 246.9  -0.7  34168  289.70 0854.50
2009/04/23 16:24:22.8    -165     -9     67    166    179 266.7  23.0  34184  289.97 0854.50
2009/04/23 16:24:22.8    -148    -46     34    156    160 252.7  12.4  34186  290.01 0854.50
2009/04/23 16:24:23.0     -51    -88     62    102    119 210.3  34.0  34182  289.96 0854.50
2009/04/23 16:24:23.1     -43   -145     78    152    170 196.5  29.3  34188  290.04 0854.50
2009/04/23 16:24:23.1      19   -247     94    248    265 175.5  22.0  34176  289.85 0854.50
2009/04/23 16:24:23.2      94   -266     68    283    292 160.4  13.5  34174  289.80 0854.50
2009/04/23 16:24:23.4      93   -178    123    201    235 152.4  34.4  34172  289.79 0854.50
2009/04/23 16:24:23.5     128   -167    115    211    240 142.4  31.0  34172  289.77 0854.50
2009/04/23 16:24:23.6     226    -39     88    230    246  99.9  22.0  34178  289.88 0854.50
2009/04/23 16:24:23.7      46    -77    133     90    160 149.3  62.8  34182  289.96 0854.50
2009/04/23 16:24:23.8      83   -229    180    244    303 159.9  39.9  34182  289.95 0854.50
2009/04/23 16:24:23.9     138   -279    184    312    362 153.7  33.3  34182  289.93 0854.50
2009/04/23 16:24:24.0     141   -441    140    464    485 162.2  16.8  34182  289.96 0854.50
2009/04/23 16:24:24.1     124   -429    154    447    473 163.9  19.1  34186  290.01 0854.50
2009/04/23 16:24:24.2     173   -327    105    370    385 152.1  15.9  34180  289.91 0854.50
2009/04/23 16:24:24.3     176   -292     14    342    343 148.9   2.5  34182  289.96 0854.50
2009/04/23 16:24:24.4     210   -230     81    312    323 137.7  14.6  34182  289.93 0854.50
2009/04/23 16:24:24.5     267   -279    144    387    412 136.2  21.4  34180  289.92 0854.49
2009/04/23 16:24:24.6     171   -300    201    346    400 150.3  32.9  34180  289.91 0854.49
2009/04/23 16:24:24.7     177   -232    162    293    334 142.6  31.4  34186  290.00 0854.49
2009/04/23 16:24:24.8     111   -217    177    244    301 152.9  39.5  34186  290.00 0854.49
2009/04/23 16:24:24.9     109   -107    160    153    221 134.4  51.6  34196  290.18 0854.49
2009/04/23 16:24:25.0      19    -31    149     37    153 147.5  85.9  34192  290.11 0854.49
2009/04/23 16:24:25.1      20     20    115     29    118  45.0  85.9  34204  290.31 0854.49
2009/04/23 16:24:25.2     -16      1    108     17    109 274.4  90.0  34200  290.26 0854.49
2009/04/23 16:24:25.3     -15     40    148     43    154 339.1  83.3  34206  290.36 0854.49
2009/04/23 16:24:25.4     -23    -17    135     29    138 234.0  88.5  34196  290.19 0854.49
2009/04/23 16:24:25.5     -26   -129    212    132    249 191.6  65.1  34174  289.80 0854.49
2009/04/23 16:24:25.6     -85   -181     39    201    205 205.3  11.0  34166  289.69 0854.49
2009/04/23 16:24:25.7     -79   -244    -17    257    258 197.9  -3.9  34162  289.59 0854.49
2009/04/23 16:24:25.8    -105   -138     11    174    175 217.2   3.8  34148  289.36 0854.49
2009/04/23 16:24:25.9     -30    -67     79     74    108 204.5  52.1  34158  289.53 0854.49
2009/04/23 16:24:26.0     -65    -82     30    105    110 218.3  16.3  34164  289.65 0854.49
2009/04/23 16:24:26.1      16   -116     18    118    120 172.0   9.0  34154  289.48 0854.49
2009/04/23 16:24:26.2      41   -103     44    112    120 158.2  23.0  34158  289.55 0854.49
2009/04/23 16:24:26.3      -8   -164     12    165    166 182.9   4.2  34162  289.60 0854.49
2009/04/23 16:24:26.4     -63   -155      2    168    169 202.3   0.8  34160  289.57 0854.49
2009/04/23 16:24:26.5     -58   -139    -35    151    156 202.7 -13.3  34160  289.57 0854.48
2009/04/23 16:24:26.6    -123   -115     17    169    170 226.9   6.1  34164  289.63 0854.48
2009/04/23 16:24:26.7    -135    -73     21    154    156 241.6   8.0  34168  289.70 0854.48
2009/04/23 16:24:26.8    -120    -30     57    124    136 255.8  26.6  34172  289.77 0854.48
2009/04/23 16:24:26.9    -171     48     95    178    201 285.7  30.3  34178  289.89 0854.48
2009/04/23 16:24:27.0       1   -171     38    172    177 179.5  12.6  34184  289.97 0854.48
2009/04/23 16:24:27.1      67   -122      0    140    141 151.0   0.2  34188  290.04 0854.48
2009/04/23 16:24:27.2      84   -122    -59    149    160 145.3 -27.2  34166  289.67 0854.48
2009/04/23 16:24:27.3     129   -118    -52    175    183 132.4 -16.8  34138  289.19 0854.48
2009/04/23 16:24:27.4      63   -116     11    132    133 151.5   5.0  34148  289.38 0854.48
2009/04/23 16:24:27.5     -27    -39    -41     48     63 214.3 -49.2  34152  289.45 0854.48
2009/04/23 16:24:27.6      52    161    -51    170    178  18.0 -17.0  34148  289.38 0854.48
2009/04/23 16:24:27.7     -12     57     48     59     76 347.5  43.7  34142  289.26 0854.48
2009/04/23 16:24:27.8      21    -75    137     79    158 164.0  67.5  34156  289.52 0854.48
2009/04/23 16:24:27.9      62     -7     99     63    117  97.0  64.7  34146  289.35 0854.48
2009/04/23 16:24:28.0      26    -28     26     39     46 136.8  36.5  34144  289.31 0854.48
2009/04/23 16:24:28.1      42   -142    102    149    180 163.5  37.8  34150  289.40 0854.48
2009/04/23 16:24:28.2     -72    -62    114     96    149 229.1  56.3  34158  289.53 0854.48
2009/04/23 16:24:28.3    -140     70     57    157    167 296.6  20.7  34154  289.48 0854.48
2009/04/23 16:24:28.4    -320     77   -114    330    350 283.6 -19.1  34120  288.88 0854.48
2009/04/23 16:24:28.5    -163   -217    -10    272    273 216.9  -2.1  34124  288.95 0854.47
2009/04/23 16:24:28.6    -528   -137     96    546    555 255.4  10.0  34124  288.97 0854.47
2009/04/23 16:24:28.7    -675     -7   -172    676    698 269.4 -14.3  34158  289.54 0854.47
2009/04/23 16:24:28.8    -641      4    105    642    651 270.4   9.3  34142  289.26 0854.47
2009/04/23 16:24:28.9    -538   -353     41    644    646 236.7   3.7  34138  289.20 0854.47
2009/04/23 16:24:29.0    -417   -299    100    514    524 234.4  11.1  34144  289.29 0854.47
2009/04/23 16:24:29.1    -285   -334     86    440    449 220.5  11.1  34144  289.29 0854.47
2009/04/23 16:24:29.2    -296   -356      0    464    465 219.8   0.1  34132  289.09 0854.47
2009/04/23 16:24:29.3    -223   -307     71    380    387 216.0  10.7  34120  288.89 0854.47
2009/04/23 16:24:29.4    -698   -141   -217    713    746 258.6 -17.0  34140  289.23 0854.47
2009/04/23 16:24:29.5    -602   -250     20    653    654 247.4   1.8  34168  289.72 0854.47
2009/04/23 16:24:29.6    -570    -98    -48    579    582 260.2  -4.8  34170  289.75 0854.47
2009/04/23 16:24:29.7    -417    -91     89    428    438 257.6  11.8  34180  289.92 0854.47
2009/04/23 16:24:29.8    -566    -76    -59    572    575 262.3  -5.9  34180  289.91 0854.47
2009/04/23 16:24:29.9    -700   -374    -51    794    796 241.9  -3.7  34142  289.25 0854.47
2009/04/23 16:24:30.0    -496   -303    253    582    634 238.6  25.0  34154  289.47 0854.47
2009/04/23 16:24:30.1    -231   -355    241    424    487 213.1  32.1  34160  289.56 0854.47
2009/04/23 16:24:30.2    -319   -250    119    406    424 231.9  16.4  34156  289.49 0854.47
2009/04/23 16:24:30.3     -59   -106     32    122    127 209.0  14.7  34154  289.48 0854.47
2009/04/23 16:24:30.4    -128   -252    142    283    316 207.1  28.7  34156  289.51 0854.47
2009/04/23 16:24:30.5    -381   -242    -16    452    453 237.5  -2.1  34148  289.38 0854.46
2009/04/23 16:24:30.6     -21   -401    190    402    444 183.1  27.1  34150  289.39 0854.46
2009/04/23 16:24:30.7    -150   -316     85    350    361 205.4  13.7  34158  289.54 0854.46
2009/04/23 16:24:30.8    -292   -436    211    526    566 213.8  23.1  34158  289.55 0854.46
2009/04/23 16:24:30.9    -311   -442    283    541    610 215.1  29.8  34148  289.37 0854.46
2009/04/23 16:24:31.0    -334   -514    365    614    714 213.0  33.5  34132  289.10 0854.46
2009/04/23 16:24:31.1    -431   -501    282    662    719 220.7  24.5  34132  289.11 0854.46
2009/04/23 16:24:31.2    -320   -653    203    728    756 206.1  15.6  34144  289.31 0854.46
2009/04/23 16:24:31.3    -572   -648      7    865    866 221.4   0.5  34152  289.43 0854.46
2009/04/23 16:24:31.4    -595   -407   -188    722    747 235.6 -14.6  34168  289.72 0854.46
2009/04/23 16:24:31.5    -501   -200   -181    540    570 248.2 -18.6  34200  290.24 0854.46
2009/04/23 16:24:31.6    -446   -368   -216    579    617 230.5 -25.9  34172  289.78 0854.46
2009/04/23 16:24:31.7    -552   -550   -206    780    807 225.1 -14.8  34140  289.22 0854.46
2009/04/23 16:24:31.8    -322   -388   -197    505    542 219.6 -26.9  34154  289.46 0854.46
2009/04/23 16:24:31.9    -370   -494   -171    618    642 216.9 -15.5  34154  289.48 0854.46
2009/04/23 16:24:32.0    -446   -549    -26    708    709 219.1  -2.1  34158  289.55 0854.46
2009/04/23 16:24:32.1    -434   -161    -55    464    468 249.6  -6.9  34164  289.64 0854.46
2009/04/23 16:24:32.2    -438   -145   -112    462    476 251.6 -13.7  34142  289.25 0854.46
2009/04/23 16:24:32.3    -346   -119     67    367    374 250.9  10.4  34154  289.48 0854.46
2009/04/23 16:24:32.4    -426   -137      6    448    449 252.1   0.8  34152  289.43 0854.46
2009/04/23 16:24:32.5    -124   -171     91    212    230 216.1  24.9  34150  289.40 0854.47
2009/04/23 16:24:32.6    -140   -191    126    237    268 216.3  30.3  34144  289.29 0854.47
2009/04/23 16:24:32.7    -457   -199   -162    499    525 246.5 -18.1  34136  289.17 0854.47
2009/04/23 16:24:32.8    -423   -192    -53    465    469 245.6  -6.6  34150  289.40 0854.47
2009/04/23 16:24:32.9      25   -188    221    190    291 172.2  55.0  34152  289.44 0854.47
2009/04/23 16:24:33.0       0    113     41    114    121   0.0  20.9  34144  289.30 0854.47
2009/04/23 16:24:33.1     -41     36    -44     55     70 311.3 -48.1  34154  289.48 0854.47
2009/04/23 16:24:33.2     242   -155      9    288    289 122.6   1.8  34144  289.31 0854.47
2009/04/23 16:24:33.3     119   -234    125    263    291 152.9  27.2  34150  289.39 0854.47
2009/04/23 16:24:33.4       4   -260     51    261    267 179.1  11.1  34152  289.44 0854.47
2009/04/23 16:24:33.5    -106   -177    132    207    245 211.0  35.5  34156  289.51 0854.47
2009/04/23 16:24:33.6     -84   -137    115    162    198 211.6  38.8  34156  289.52 0854.47
2009/04/23 16:24:33.7    -185   -259     41    319    322 215.5   7.5  34150  289.39 0854.47
2009/04/23 16:24:33.8    -236   -263     49    354    358 221.9   7.9  34146  289.33 0854.47
2009/04/23 16:24:33.9    -164   -282    -30    327    329 210.3  -5.4  34146  289.32 0854.47
2009/04/23 16:24:34.0    -133   -293    -55    323    328 204.5  -9.8  34152  289.42 0854.47
2009/04/23 16:24:34.1     -46   -231     37    236    239 191.5   9.0  34150  289.39 0854.47
2009/04/23 16:24:34.2     -26   -252      4    254    255 186.0   1.0  34154  289.46 0854.47
2009/04/23 16:24:34.3     -46   -295    -89    299    313 188.9 -16.6  34150  289.41 0854.47
2009/04/23 16:24:34.4      37   -240      2    243    244 171.1   0.5  34146  289.32 0854.47
2009/04/23 16:24:34.5      60   -298     30    304    306 168.5   5.7  34138  289.20 0854.47
2009/04/23 16:24:34.6      71   -259     63    269    277 164.6  13.2  34146  289.34 0854.47
2009/04/23 16:24:34.7     105   -249     74    271    281 157.2  15.3  34148  289.36 0854.47
2009/04/23 16:24:34.8      74   -275    105    285    303 164.8  21.0  34152  289.42 0854.47
2009/04/23 16:24:34.9     103   -270     82    290    302 159.1  15.8  34154  289.46 0854.47
2009/04/23 16:24:35.0      14   -189    201    190    276 175.8  52.1  34162  289.61 0854.47
2009/04/23 16:24:35.1      -1    -72    122     73    142 180.9  66.7  34170  289.75 0854.47
2009/04/23 16:24:35.2     -81   -162     72    182    195 206.5  23.0  34156  289.50 0854.47
2009/04/23 16:24:35.3    -182   -111     86    214    230 238.5  23.0  34164  289.65 0854.47
2009/04/23 16:24:35.4    -148   -104     59    182    192 234.9  17.9  34162  289.60 0854.47
2009/04/23 16:24:35.5    -105    -57     42    120    128 241.6  19.2  34166  289.69 0854.47
2009/04/23 16:24:35.6      59     37     99     70    121  57.6  61.1  34164  289.63 0854.47
2009/04/23 16:24:35.7     237     86    204    253    325  70.1  43.1  34188  290.05 0854.47
2009/04/23 16:24:35.8     325    100    252    341    424  72.8  40.0  34260  291.27 0854.47
2009/04/23 16:24:35.9      67     82    242    107    264  39.2  74.8  34262  291.30 0854.47
2009/04/23 16:24:36.0     -94     21    154     97    182 282.8  64.7  34252  291.13 0854.47
2009/04/23 16:24:36.1     -69      9     79     70    105 277.9  53.7  34232  290.79 0854.47
2009/04/23 16:24:36.2     -98    -59    109    115    158 238.9  48.7  34224  290.65 0854.47
2009/04/23 16:24:36.3     -48      3    -27     49     55 274.3 -36.8  34206  290.35 0854.47
2009/04/23 16:24:36.4     211     73    215    224    310  70.9  49.0  34172  289.78 0854.47
2009/04/23 16:24:36.5     624    170    234    647    688  74.7  20.8  34162  289.60 0854.47
2009/04/23 16:24:36.6     476     66     93    481    490  82.0  11.0  34174  289.81 0854.47
2009/04/23 16:24:36.7     146    -36    317    151    351 104.2  72.8  34218  290.56 0854.47
2009/04/23 16:24:36.8       5   -121    291    122    315 177.3  76.1  34236  290.87 0854.47
2009/04/23 16:24:36.9    -106   -119    262    160    306 221.9  65.7  34252  291.14 0854.47
2009/04/23 16:24:37.0     -97   -195    210    218    302 206.5  49.0  34242  290.95 0854.47
2009/04/23 16:24:37.1     -35   -226    325    229    397 188.9  61.5  34230  290.76 0854.47
2009/04/23 16:24:37.2      -3   -233    328    234    402 180.9  61.1  34216  290.52 0854.47
2009/04/23 16:24:37.3     -56   -283    256    289    386 191.3  46.1  34212  290.45 0854.47
2009/04/23 16:24:37.4    -152   -162    122    223    254 223.2  31.3  34220  290.58 0854.47
2009/04/23 16:24:37.5    -163   -294     72    337    345 209.0  12.2  34208  290.40 0854.47
2009/04/23 16:24:37.6    -201   -393      0    442    443 207.1   0.1  34202  290.28 0854.47
2009/04/23 16:24:37.7    -247   -350    -23    429    430 215.2  -3.2  34198  290.21 0854.47
2009/04/23 16:24:37.8    -248   -399   -103    470    482 211.9 -12.4  34214  290.49 0854.47
2009/04/23 16:24:37.9    -154   -421    173    449    481 200.1  22.2  34206  290.35 0854.47
2009/04/23 16:24:38.0    -143   -310    167    342    380 204.7  27.8  34192  290.11 0854.47
2009/04/23 16:24:38.1     -85   -297    204    310    371 196.0  36.5  34214  290.49 0854.47
2009/04/23 16:24:38.2     -95   -318     96    333    347 196.7  16.1  34188  290.03 0854.47
2009/04/23 16:24:38.3    -178   -354    150    397    424 206.8  21.7  34180  289.92 0854.47
2009/04/23 16:24:38.4    -166   -285     70    330    338 210.2  12.1  34176  289.84 0854.48
2009/04/23 16:24:38.5     -80   -324    288    334    441 194.0  45.2  34212  290.46 0854.48
2009/04/23 16:24:38.6     -51   -216    250    223    335 193.4  53.7  34216  290.51 0854.48
2009/04/23 16:24:38.7     -37    -49    313     62    319 217.0  89.5  34250  291.09 0854.48
2009/04/23 16:24:38.8     -90   -293    328    307    449 197.2  52.1  34154  289.46 0854.48
2009/04/23 16:24:38.9    -276    -51    392    281    482 259.4  61.1  34206  290.36 0854.48
2009/04/23 16:24:39.0    -481      7    207    482    524 270.9  24.8  34206  290.35 0854.48
2009/04/23 16:24:39.1    -432     94    279    443    523 282.3  35.3  34192  290.13 0854.48
2009/04/23 16:24:39.2    -466    -83    218    474    521 259.9  26.5  34212  290.45 0854.48
2009/04/23 16:24:39.3    -377    213    231    434    491 299.5  30.3  34196  290.17 0854.48
2009/04/23 16:24:39.4    -400    318    178    512    543 308.5  19.2  34200  290.26 0854.48
2009/04/23 16:24:39.5    -358    341    217    495    540 313.6  25.2  34182  289.96 0854.48
2009/04/23 16:24:39.6    -337    258    149    425    451 307.4  19.4  34204  290.31 0854.48
2009/04/23 16:24:39.7    -353    181    148    397    423 297.2  21.4  34176  289.85 0854.48
2009/04/23 16:24:39.8    -349    159     31    384    386 294.5   4.7  34182  289.94 0854.48
2009/04/23 16:24:39.9    -312    123     38    336    339 291.5   6.5  34182  289.94 0854.48
2009/04/23 16:24:40.0    -330    140      0    359    360 293.0   0.1  34182  289.96 0854.48
2009/04/23 16:24:40.1    -291    329     62    440    445 318.5   8.1  34166  289.66 0854.48
2009/04/23 16:24:40.2    -343    315    -49    466    469 312.6  -6.1  34162  289.59 0854.48
2009/04/23 16:24:40.3    -131    461      2    480    481 344.1   0.3  34202  290.30 0854.48
2009/04/23 16:24:40.4    -100    408     61    421    426 346.2   8.3  34200  290.24 0854.49
2009/04/23 16:24:40.5    -123    209    -13    243    244 329.5  -3.3  34186  290.00 0854.49
2009/04/23 16:24:40.6    -240    213    -65    321    328 311.6 -11.6  34172  289.78 0854.49
2009/04/23 16:24:40.7     -83    120   -196    147    245 325.3 -63.8  34166  289.67 0854.49
2009/04/23 16:24:40.8     -81    233    -40    247    251 340.8  -9.4  34166  289.66 0854.49
2009/04/23 16:24:40.9     -30    187    -24    190    192 350.9  -7.3  34156  289.52 0854.49
2009/04/23 16:24:41.0     -39     60    117     72    137 326.6  65.1  34180  289.92 0854.49
2009/04/23 16:24:41.1    -374   -126    115    395    412 251.3  16.3  34180  289.92 0854.49
2009/04/23 16:24:41.2    -382    108    114    398    415 285.8  16.0  34180  289.90 0854.49
2009/04/23 16:24:41.3    -284    -50    131    289    317 259.9  26.2  34212  290.44 0854.49
2009/04/23 16:24:41.4    -313    -90     71    326    334 253.8  12.4  34198  290.21 0854.49
2009/04/23 16:24:41.5    -141   -201    109    246    269 215.2  25.7  34212  290.46 0854.49
2009/04/23 16:24:41.6    -204   -154    -42    256    260 232.9  -9.4  34202  290.29 0854.49
2009/04/23 16:24:41.7    -322   -217    -64    389    395 236.1  -9.3  34156  289.52 0854.49
2009/04/23 16:24:41.8    -354   -181    -11    398    399 242.9  -1.6  34146  289.35 0854.49
2009/04/23 16:24:41.9    -421   -163   -151    452    477 248.8 -18.6  34136  289.15 0854.49
2009/04/23 16:24:42.0    -392   -174   -147    429    454 246.1 -18.9  34146  289.34 0854.49
2009/04/23 16:24:42.1    -419   -100   -136    431    453 256.5 -17.6  34132  289.09 0854.49
2009/04/23 16:24:42.2    -530    -73   -153    535    556 262.1 -20.7  34130  289.07 0854.49
2009/04/23 16:24:42.3    -467    -64   -169    472    501 262.1 -24.8  34136  289.15 0854.49
2009/04/23 16:24:42.4    -445     37   -176    447    480 274.9 -27.1  34136  289.17 0854.49
2009/04/23 16:24:42.5    -444   -146   -291    468    551 251.7 -39.3  34162  289.60 0854.49
2009/04/23 16:24:42.6    -445    -88   -283    454    534 258.8 -39.4  34176  289.84 0854.49
2009/04/23 16:24:42.7    -469    -35   -191    471    508 265.7 -27.8  34192  290.10 0854.49
2009/04/23 16:24:42.8    -525    -53   -222    528    572 264.2 -28.6  34178  289.89 0854.49
2009/04/23 16:24:42.9    -627    196      2    658    659 287.4   0.2  34192  290.12 0854.49
2009/04/23 16:24:43.0    -545    171     35    572    574 287.4   3.5  34196  290.17 0854.49
2009/04/23 16:24:43.1    -507    154    106    531    542 286.9  11.3  34198  290.21 0854.49
2009/04/23 16:24:43.2    -379    -73    189    387    430 259.0  28.1  34192  290.12 0854.49
2009/04/23 16:24:43.3    -411   -128    206    431    477 252.7  27.3  34208  290.39 0854.49
2009/04/23 16:24:43.4    -317   -295    214    434    483 227.1  28.2  34222  290.64 0854.49
2009/04/23 16:24:43.5     -45   -439    132    442    462 186.0  16.7  34172  289.77 0854.49
2009/04/23 16:24:43.6     127   -475    -66    492    497 165.0  -7.7  34170  289.74 0854.49
2009/04/23 16:24:43.7     279   -381     41    473    475 143.7   5.0  34172  289.78 0854.49
2009/04/23 16:24:43.8     164   -497    101    524    534 161.7  11.0  34166  289.67 0854.49
2009/04/23 16:24:43.9      24   -408    148    409    434 176.5  20.9  34166  289.68 0854.49
2009/04/23 16:24:44.0     184   -560    283    590    654 161.8  27.4  34166  289.69 0854.49
2009/04/23 16:24:44.1     320   -432    226    538    583 143.5  24.2  34172  289.76 0854.49
2009/04/23 16:24:44.2     -71   -373    313    380    492 190.8  43.7  34170  289.75 0854.49
2009/04/23 16:24:44.3    -121   -385    210    404    455 197.5  29.6  34174  289.82 0854.49
2009/04/23 16:24:44.4      79   -445    268    453    526 169.9  33.5  34162  289.61 0854.49
2009/04/23 16:24:44.5      72   -304    331    313    455 166.6  52.1  34182  289.95 0854.49
2009/04/23 16:24:44.6      93   -455    413    465    621 168.4  46.1  34154  289.46 0854.49
2009/04/23 16:24:44.7     104   -524    355    535    642 168.8  36.7  34178  289.88 0854.49
2009/04/23 16:24:44.8     -63   -612    286    616    679 185.9  26.9  34188  290.04 0854.49
2009/04/23 16:24:44.9     -17   -549    190    550    582 181.8  19.1  34164  289.64 0854.49
2009/04/23 16:24:45.0      15   -433    284    434    518 178.0  36.3  34144  289.30 0854.49
2009/04/23 16:24:45.1    -164   -396    204    429    475 202.5  27.2  34140  289.24 0854.49
2009/04/23 16:24:45.2    -207   -356    294    413    506 210.2  39.0  34148  289.37 0854.49
2009/04/23 16:24:45.3    -261   -517    124    580    594 206.8  12.1  34166  289.68 0854.49
2009/04/23 16:24:45.4    -234   -379    148    446    470 211.7  18.4  34154  289.48 0854.49
2009/04/23 16:24:45.5    -301   -331    149    448    473 222.3  18.5  34170  289.73 0854.49
2009/04/23 16:24:45.6    -232   -368    127    435    454 212.2  16.3  34174  289.80 0854.49
2009/04/23 16:24:45.7     -46   -407     49    410    413 186.6   6.9  34172  289.77 0854.49
2009/04/23 16:24:45.8    -301   -583     74    657    662 207.3   6.5  34162  289.60 0854.49
2009/04/23 16:24:45.9    -411   -555     98    691    699 216.5   8.1  34146  289.34 0854.49
2009/04/23 16:24:46.0    -467   -373    128    598    612 231.4  12.2  34148  289.37 0854.49
2009/04/23 16:24:46.1    -603   -302    115    675    685 243.4   9.7  34162  289.61 0854.49
2009/04/23 16:24:46.2    -430   -137    146    452    475 252.3  17.9  34174  289.81 0854.49
2009/04/23 16:24:46.3    -328    -48    127    332    355 261.6  21.8  34158  289.55 0854.49
2009/04/23 16:24:46.4    -441    212   -131    490    508 295.8 -15.0  34172  289.79 0854.49
2009/04/23 16:24:46.5    -439    160    -81    468    476 290.1  -9.9  34132  289.10 0854.49
2009/04/23 16:24:46.6    -427    187    -54    467    471 293.6  -6.7  34128  289.03 0854.49
2009/04/23 16:24:46.7    -363      0   -108    364    380 270.0 -16.5  34162  289.62 0854.49
2009/04/23 16:24:46.8    -346      3   -194    347    397 270.6 -36.0  34152  289.45 0854.49
2009/04/23 16:24:46.9    -199    -51   -163    206    262 255.4 -46.8  34162  289.61 0854.49
2009/04/23 16:24:47.0    -213     -3   -156    214    264 269.0 -44.1  34140  289.22 0854.49
2009/04/23 16:24:47.1    -209     55    -93    217    236 284.8 -29.0  34140  289.24 0854.49
2009/04/23 16:24:47.2    -106     54    -19    120    122 297.0  -9.3  34132  289.09 0854.49
2009/04/23 16:24:47.3     -10    -46    -15     48     50 192.5 -22.8  34144  289.31 0854.49
2009/04/23 16:24:47.4      88    -48    -38    101    107 118.9 -25.4  34146  289.33 0854.48
2009/04/23 16:24:47.5      68    -68     -3     97     98 135.0  -2.2  34140  289.23 0854.48
2009/04/23 16:24:47.6     125    -45     25    134    137 110.0  10.6  34142  289.28 0854.48
2009/04/23 16:24:47.7      93    -41     90    102    136 114.0  45.9  34150  289.41 0854.48
2009/04/23 16:24:47.8      88    -46    104    100    144 117.5  50.7  34158  289.53 0854.48
2009/04/23 16:24:47.9      50    -39    118     64    134 127.8  68.9  34162  289.60 0854.48
2009/04/23 16:24:48.0      71   -113    113    134    175 147.5  44.3  34156  289.52 0854.48
2009/04/23 16:24:48.1      52   -162     41    171    176 162.0  13.5  34140  289.24 0854.48
2009/04/23 16:24:48.2     -19   -178     22    180    182 186.2   7.2  34142  289.28 0854.48
2009/04/23 16:24:48.3    -152   -196    -71    249    258 217.8 -20.7  34150  289.39 0854.48
2009/04/23 16:24:48.4     -39   -251     27    255    257 188.9   6.1  34142  289.25 0854.48
2009/04/23 16:24:48.5     -58   -223    -29    231    233 194.7  -7.2  34148  289.38 0854.48
2009/04/23 16:24:48.6     -70   -277    -68    286    295 194.3 -13.4  34150  289.41 0854.48
2009/04/23 16:24:48.7     -28   -261    -83    263    276 186.3 -17.6  34148  289.36 0854.48
2009/04/23 16:24:48.8     -95   -216    -96    237    255 203.8 -27.5  34146  289.32 0854.48
2009/04/23 16:24:48.9      26   -190    -88    192    211 172.2 -30.8  34160  289.58 0854.48
2009/04/23 16:24:49.0     -37   -178    -64    182    194 191.8 -19.6  34174  289.80 0854.48
2009/04/23 16:24:49.2    -165   -290    -43    334    337 209.7  -7.4  34164  289.65 0854.48
2009/04/23 16:24:49.3    -206   -423   -148    471    494 206.0 -17.5  34152  289.42 0854.48
2009/04/23 16:24:49.4    -160   -440    -44    469    472 200.0  -5.5  34182  289.96 0854.48
2009/04/23 16:24:49.5     -93   -348    -43    361    364 195.0  -6.8  34168  289.72 0854.49
2009/04/23 16:24:49.6       0   -385    299    386    488 179.9  41.7  34174  289.80 0854.49
2009/04/23 16:24:49.7     -76   -364    250    373    449 191.9  37.0  34202  290.28 0854.49
2009/04/23 16:24:49.8      22   -290    237    291    375 175.5  43.6  34182  289.94 0854.49
2009/04/23 16:24:49.9     189   -316    272    369    458 149.1  39.8  34192  290.12 0854.49
2009/04/23 16:24:50.0     231   -138    310    270    411 120.9  54.6  34190  290.08 0854.49
2009/04/23 16:24:50.1      69    -69    234     98    253 135.0  76.3  34202  290.28 0854.49
2009/04/23 16:24:50.2       7   -141    186    142    234 176.9  58.7  34218  290.57 0854.49
2009/04/23 16:24:50.3      18      0    162     19    163  90.0  90.0  34226  290.70 0854.49
2009/04/23 16:24:50.4     -21   -148    192    150    243 188.1  58.2  34218  290.57 0854.49
2009/04/23 16:24:50.5    -101   -195    237    220    323 207.4  52.5  34182  289.95 0854.49
2009/04/23 16:24:50.6     -94   -377    358    389    528 194.0  47.5  34192  290.12 0854.49
2009/04/23 16:24:50.7      13   -341    318    342    466 177.7  47.9  34184  289.99 0854.49
2009/04/23 16:24:50.8       0   -265    190    266    326 180.0  39.1  34162  289.61 0854.49
2009/04/23 16:24:50.9     -67   -306     86    314    326 192.5  15.4  34162  289.61 0854.49
2009/04/23 16:24:51.0     -62   -231     38    240    244 195.2   9.0  34160  289.58 0854.49
2009/04/23 16:24:51.1      19   -202     11    203    204 174.4   3.3  34164  289.65 0854.49
2009/04/23 16:24:51.2      99   -294    -12    311    312 161.3  -2.2  34162  289.61 0854.49
2009/04/23 16:24:51.3      70   -287     49    296    301 166.2   9.5  34160  289.56 0854.49
2009/04/23 16:24:51.4    -109   -341    161    359    393 197.8  25.9  34154  289.48 0854.49
2009/04/23 16:24:51.5    -153   -264    205    306    368 210.1  37.0  34174  289.82 0854.48
2009/04/23 16:24:51.6     -20   -277    145    278    313 184.2  29.6  34178  289.88 0854.48
2009/04/23 16:24:51.7     -91   -133     39    162    167 214.5  13.5  34170  289.74 0854.48
2009/04/23 16:24:51.8    -330    -88    -72    342    350 255.0 -12.0  34158  289.55 0854.48
2009/04/23 16:24:51.9    -275   -228    143    358    385 230.3  23.0  34166  289.67 0854.48
2009/04/23 16:24:52.0    -388   -207    203    440    484 241.9  26.5  34182  289.95 0854.48
2009/04/23 16:24:52.1    -452   -204     59    497    501 245.7   6.9  34172  289.79 0854.48
2009/04/23 16:24:52.2    -486   -102   -127    497    514 258.1 -14.4  34156  289.50 0854.48
2009/04/23 16:24:52.3    -372    -60     10    377    378 260.8   1.6  34154  289.48 0854.48
2009/04/23 16:24:52.4    -339   -241     22    417    418 234.6   3.1  34162  289.60 0854.48
2009/04/23 16:24:52.5    -331   -109     37    349    352 251.7   6.1  34172  289.77 0854.48
2009/04/23 16:24:52.6    -254   -162     65    302    309 237.5  12.2  34182  289.95 0854.48
2009/04/23 16:24:52.7    -171   -267     55    318    323 212.6   9.9  34182  289.93 0854.48
2009/04/23 16:24:52.8    -158   -244     34    292    295 213.0   6.7  34164  289.64 0854.48
2009/04/23 16:24:52.9    -337   -379    -59    508    512 221.7  -6.7  34136  289.18 0854.48
2009/04/23 16:24:53.0    -209   -548   -145    587    605 200.9 -13.9  34138  289.19 0854.48
2009/04/23 16:24:53.1    -368   -412    -15    553    554 221.8  -1.6  34152  289.43 0854.48
2009/04/23 16:24:53.2    -341   -546    -60    644    648 212.0  -5.4  34148  289.38 0854.48
2009/04/23 16:24:53.3    -199   -496    -74    535    541 201.9  -7.9  34138  289.21 0854.48
2009/04/23 16:24:53.4     -56   -518     26    522    523 186.2   2.9  34154  289.46 0854.48
2009/04/23 16:24:53.5     -34   -574     49    576    579 183.4   4.9  34146  289.34 0854.48
2009/04/23 16:24:53.6     -75   -515     49    521    524 188.4   5.4  34142  289.28 0854.48
2009/04/23 16:24:53.7      39   -489     18    491    492 175.4   2.1  34140  289.23 0854.48
2009/04/23 16:24:53.8      15   -501    -42    502    504 178.2  -4.8  34136  289.17 0854.48
2009/04/23 16:24:53.9      65   -422    -15    427    428 171.2  -2.1  34138  289.21 0854.48
2009/04/23 16:24:54.0      35   -318     57    320    326 173.7  10.1  34146  289.32 0854.48
2009/04/23 16:24:54.1     -45   -320     32    324    326 188.1   5.7  34146  289.32 0854.48
2009/04/23 16:24:54.2     -11   -247     23    248    250 182.6   5.4  34146  289.32 0854.48
2009/04/23 16:24:54.3      29   -212    145    215    259 172.0  37.4  34138  289.19 0854.48
2009/04/23 16:24:54.4      -7   -318     15    319    320 181.4   2.8  34138  289.19 0854.48
2009/04/23 16:24:54.5     -12   -269     38    270    273 182.7   8.0  34140  289.24 0854.48
2009/04/23 16:24:54.6      95   -158     71    185    198 148.8  22.0  34140  289.24 0854.48
2009/04/23 16:24:54.7       0   -161     64    162    174 179.8  22.5  34140  289.23 0854.48
2009/04/23 16:24:54.8       2   -169     63    170    181 179.1  21.3  34140  289.24 0854.48
2009/04/23 16:24:54.9      25    -84     44     88     98 163.1  28.2  34144  289.30 0854.48
2009/04/23 16:24:55.0      23   -112    -23    115    118 168.4 -11.3  34140  289.23 0854.48
2009/04/23 16:24:55.1     -32    -89     44     95    104 200.0  26.6  34148  289.38 0854.48
2009/04/23 16:24:55.2       5    -72     82     73    109 175.6  53.7  34146  289.35 0854.48
2009/04/23 16:24:55.3       1   -123     82    124    148 179.5  36.5  34148  289.36 0854.48
2009/04/23 16:24:55.4      -8   -148     29    149    152 183.1  11.1  34142  289.26 0854.48
2009/04/23 16:24:55.5       0   -175     86    176    195 180.0  28.0  34148  289.38 0854.47
2009/04/23 16:24:55.6      93    -76    185    121    221 129.5  64.1  34172  289.77 0854.47
2009/04/23 16:24:55.7      22      4    128     23    130  78.5  90.0  34176  289.84 0854.47
2009/04/23 16:24:55.8     -56    -63    146     85    168 221.9  67.2  34196  290.18 0854.47
2009/04/23 16:24:55.9      -9     31     31     33     45 343.1  49.0  34178  289.87 0854.47
2009/04/23 16:24:56.0    -118     75     72    140    157 302.4  29.3  34176  289.85 0854.47
2009/04/23 16:24:56.1      -2     -4     74      5     74 212.5  90.0  34186  290.01 0854.47
2009/04/23 16:24:56.2     -31    -17    -12     36     37 241.1 -23.6  34172  289.77 0854.47
2009/04/23 16:24:56.3      61     86    130    106    167  35.2  56.4  34180  289.91 0854.47
2009/04/23 16:24:56.4     100    106    192    147    241  43.3  59.0  34166  289.67 0854.47
2009/04/23 16:24:56.5     -34      4    160     35    163 277.9  88.2  34188  290.06 0854.47
2009/04/23 16:24:56.6     -68    107    230    128    263 327.4  68.8  34176  289.84 0854.47
2009/04/23 16:24:56.7      -5     42    136     43    142 352.0  81.8  34172  289.77 0854.47
2009/04/23 16:24:56.8    -163    -68    110    177    208 247.2  35.0  34162  289.62 0854.47
2009/04/23 16:24:56.9    -149   -189    148    241    282 218.3  34.5  34148  289.36 0854.47
2009/04/23 16:24:57.0    -182   -213    120    281    305 220.5  24.6  34152  289.42 0854.47
2009/04/23 16:24:57.1    -114   -193    132    225    260 210.5  33.4  34148  289.37 0854.47
2009/04/23 16:24:57.2     -31   -375    189    377    421 184.8  28.5  34150  289.41 0854.47
2009/04/23 16:24:57.3     -33   -307    270    309    410 186.2  45.7  34144  289.30 0854.47
2009/04/23 16:24:57.4     -23   -270    246    272    366 184.9  46.9  34150  289.40 0854.47
2009/04/23 16:24:57.5     -79   -327    249    337    419 193.7  40.0  34146  289.32 0854.48
2009/04/23 16:24:57.6    -112   -256    346    280    445 203.6  56.9  34148  289.38 0854.48
2009/04/23 16:24:57.7    -131   -289    282    318    425 204.5  46.2  34142  289.25 0854.48
2009/04/23 16:24:57.8     -37   -155    255    160    301 193.4  64.7  34154  289.47 0854.48
2009/04/23 16:24:57.9      10   -108    158    109    191 174.7  62.4  34150  289.40 0854.48
2009/04/23 16:24:58.0      25      1    178     26    179  85.6  90.0  34164  289.63 0854.48
2009/04/23 16:24:58.1      93   -290    191    305    359 162.2  35.2  34128  289.04 0854.48
2009/04/23 16:24:58.2      71   -299    234    308    386 166.6  41.2  34144  289.30 0854.48
2009/04/23 16:24:58.3     106   -265    235    286    370 158.2  43.7  34138  289.21 0854.48
2009/04/23 16:24:58.4      41   -297    242    300    385 172.0  43.3  34142  289.28 0854.48
2009/04/23 16:24:58.5      36   -212    235    216    319 170.4  52.7  34138  289.19 0854.48
2009/04/23 16:24:58.6      44   -132    188    140    234 161.3  59.6  34134  289.13 0854.48
2009/04/23 16:24:58.7     -76   -285    161    296    336 195.1  30.9  34124  288.95 0854.48
2009/04/23 16:24:58.8     -70   -395    237    402    466 190.1  33.4  34114  288.78 0854.48
2009/04/23 16:24:58.9     130   -367    153    390    418 160.5  22.5  34120  288.89 0854.48
2009/04/23 16:24:59.0     150   -374     88    404    414 158.2  12.4  34112  288.77 0854.48
2009/04/23 16:24:59.1     189   -538    101    571    581 160.6  10.1  34114  288.78 0854.48
2009/04/23 16:24:59.2     220   -410     93    466    476 151.7  11.3  34120  288.88 0854.48
2009/04/23 16:24:59.3     125   -335    126    358    380 159.5  19.4  34120  288.88 0854.48
2009/04/23 16:24:59.4     144   -387    177    413    449 159.6  24.8  34112  288.75 0854.48
2009/04/23 16:24:59.5     167   -336    135    376    399 153.6  20.6  34120  288.89 0854.47
2009/04/23 16:24:59.6     202   -427     -5    473    474 154.7  -0.7  34120  288.90 0854.47
2009/04/23 16:24:59.7      49   -339    -43    343    346 171.7  -7.2  34122  288.93 0854.47
2009/04/23 16:24:59.8      -2   -189     38    190    194 180.7  11.4  34124  288.97 0854.47
2009/04/23 16:24:59.9    -191   -253     24    318    319 217.0   4.4  34112  288.75 0854.47
2009/04/23 16:25:00.0    -183   -258    202    317    375 215.4  35.5  34126  288.99 0854.47
2009/04/23 16:25:00.1    -272   -328    193    427    468 219.6  26.0  34130  289.07 0854.47
2009/04/23 16:25:00.2    -173   -226    183    285    338 217.4  35.6  34128  289.02 0854.47
2009/04/23 16:25:00.3    -246   -250    267    352    441 224.5  41.1  34140  289.24 0854.47
2009/04/23 16:25:00.4    -267   -202    218    335    399 232.9  36.2  34140  289.23 0854.47
2009/04/23 16:25:00.5    -239   -230    124    332    354 226.1  21.4  34130  289.06 0854.47
2009/04/23 16:25:00.6    -233   -237    245    333    413 224.5  39.9  34134  289.13 0854.47
2009/04/23 16:25:00.7    -194   -277     32    339    341 215.0   5.5  34126  288.99 0854.47
2009/04/23 16:25:00.8    -338   -116     76    358    367 250.9  12.1  34150  289.40 0854.47
2009/04/23 16:25:00.9    -295   -138     63    326    333 244.9  11.0  34162  289.59 0854.47
2009/04/23 16:25:01.0    -248    -85    122    263    289 250.9  27.0  34150  289.41 0854.47
2009/04/23 16:25:01.1    -302   -171     56    348    353 240.5   9.2  34136  289.15 0854.47
2009/04/23 16:25:01.2    -227   -476    210    528    568 205.5  23.0  34106  288.67 0854.47
2009/04/23 16:25:01.3    -251   -406    169    478    508 211.7  19.5  34104  288.61 0854.47
2009/04/23 16:25:01.4    -386   -436     46    583    585 221.5   4.6  34096  288.49 0854.47
2009/04/23 16:25:01.5    -367   -436    -45    571    573 220.1  -4.6  34098  288.53 0854.47
2009/04/23 16:25:01.6    -355   -428   -149    557    577 219.6 -15.0  34104  288.63 0854.47
2009/04/23 16:25:01.7    -239   -467   -182    525    555 207.2 -24.3  34110  288.72 0854.47
2009/04/23 16:25:01.8    -228   -490     36    541    543 204.9   3.9  34118  288.87 0854.47
2009/04/23 16:25:01.9    -140   -356     15    383    384 201.6   2.3  34112  288.76 0854.47
2009/04/23 16:25:02.0    -211   -408   -127    460    478 207.4 -15.5  34110  288.74 0854.47
2009/04/23 16:25:02.1    -235   -221    -97    323    337 226.7 -21.6  34110  288.74 0854.47
2009/04/23 16:25:02.2      27   -147    -75    150    167 169.3 -32.6  34118  288.86 0854.47
2009/04/23 16:25:02.3       7    -68     34     69     76 173.8  27.3  34124  288.96 0854.47
2009/04/23 16:25:02.4    -220      0     23    221    223 270.0   6.1  34116  288.84 0854.47
2009/04/23 16:25:02.5    -102   -158    -33    189    193 213.0 -10.1  34126  289.01 0854.47
2009/04/23 16:25:02.6    -216   -229     45    316    320 223.3   8.2  34128  289.03 0854.47
2009/04/23 16:25:02.7    -139   -534    -45    552    554 194.6  -4.7  34146  289.33 0854.47
2009/04/23 16:25:02.8    -196   -504    -56    541    544 201.3  -6.0  34148  289.36 0854.47
2009/04/23 16:25:02.9    -215   -570     56    610    613 200.7   5.3  34142  289.27 0854.47
2009/04/23 16:25:03.0    -178   -663     26    687    688 195.1   2.2  34124  288.95 0854.47
2009/04/23 16:25:03.1    -164   -527    -66    552    557 197.3  -6.9  34146  289.35 0854.47
2009/04/23 16:25:03.2    -142   -350    136    378    401 202.1  20.6  34124  288.96 0854.47
2009/04/23 16:25:03.3    -125   -184    111    223    249 214.2  28.2  34120  288.88 0854.47
2009/04/23 16:25:03.4    -284   -149    211    321    384 242.2  36.4  34162  289.62 0854.47
2009/04/23 16:25:03.5    -254   -192    184    319    368 232.9  32.7  34162  289.59 0854.48
2009/04/23 16:25:03.6     -92   -212    106    232    255 203.6  26.2  34134  289.12 0854.48
2009/04/23 16:25:03.7     -89   -218     52    236    242 202.3  12.6  34130  289.05 0854.48
2009/04/23 16:25:03.8     -53   -291    115    296    317 190.5  22.3  34140  289.24 0854.48
2009/04/23 16:25:03.9     -46   -227    141    232    271 191.5  34.4  34158  289.54 0854.48
2009/04/23 16:25:04.0      38   -174    102    179    206 167.5  32.1  34152  289.45 0854.48
2009/04/23 16:25:04.1     -29   -116    158    120    198 194.3  59.0  34156  289.50 0854.48
2009/04/23 16:25:04.2       5    -69    112     70    132 175.5  64.7  34156  289.50 0854.48
2009/04/23 16:25:04.3      -9   -122    136    123    183 184.5  53.0  34154  289.46 0854.48
2009/04/23 16:25:04.4      35   -129    109    134    172 164.8  43.7  34152  289.43 0854.48
2009/04/23 16:25:04.5       0   -204     76    205    218 180.2  21.0  34156  289.52 0854.48
2009/04/23 16:25:04.6     -51    -97    134    110    173 208.1  56.4  34162  289.62 0854.48
2009/04/23 16:25:04.7     -80   -170    192    188    268 205.2  50.4  34154  289.46 0854.48
2009/04/23 16:25:04.8     -72   -345    257    353    436 191.8  39.7  34162  289.61 0854.48
2009/04/23 16:25:04.9    -143   -323    278    354    450 203.9  42.1  34154  289.46 0854.48
2009/04/23 16:25:05.0      37   -520    226    522    568 175.9  25.0  34172  289.79 0854.48
2009/04/23 16:25:05.1      57   -403    335    408    527 171.9  43.7  34182  289.93 0854.48
2009/04/23 16:25:05.2     112   -338    342    357    494 161.6  48.7  34174  289.82 0854.48
2009/04/23 16:25:05.3     -62   -176    313    187    364 199.4  66.4  34160  289.56 0854.48
2009/04/23 16:25:05.4     -77   -221    243    235    338 199.2  51.1  34132  289.10 0854.48
2009/04/23 16:25:05.5    -102   -373    -16    387    388 195.3  -2.5  34134  289.13 0854.48
2009/04/23 16:25:05.6    -124   -278    -84    305    317 204.1 -15.5  34128  289.02 0854.48
2009/04/23 16:25:05.7     -69   -294   -108    303    321 193.3 -24.6  34122  288.93 0854.48
2009/04/23 16:25:05.8      10   -298    -28    299    301 178.0  -5.4  34128  289.03 0854.48
2009/04/23 16:25:05.9     -69   -208    112    220    246 198.3  29.2  34138  289.19 0854.48
2009/04/23 16:25:06.0    -150   -183     61    237    245 219.4  14.5  34152  289.42 0854.48
2009/04/23 16:25:06.1    -131   -224    174    260    312 210.3  37.0  34144  289.31 0854.48
2009/04/23 16:25:06.2    -204    -48    -82    210    225 256.7 -27.2  34160  289.57 0854.48
2009/04/23 16:25:06.3    -144    125    -47    191    197 310.9 -13.9  34154  289.46 0854.48
2009/04/23 16:25:06.4     -70     24      3     75     76 289.1   2.9  34142  289.26 0854.48
2009/04/23 16:25:06.5    -110   -175     16    207    208 212.1   4.6  34116  288.82 0854.48
2009/04/23 16:25:06.6    -357   -303      8    469    470 229.6   1.0  34104  288.61 0854.48
2009/04/23 16:25:06.7    -513   -325    252    608    658 237.6  23.9  34122  288.93 0854.48
2009/04/23 16:25:06.8    -220     59     76    228    241 285.1  18.5  34158  289.54 0854.48
2009/04/23 16:25:06.9    -207    -35     49    210    216 260.4  13.2  34158  289.55 0854.48
2009/04/23 16:25:07.0     -83   -166    131    186    227 206.7  38.6  34156  289.52 0854.48
2009/04/23 16:25:07.1     -57     55    140     80    161 314.1  67.7  34160  289.58 0854.48
2009/04/23 16:25:07.2      -8     45    147     46    154 349.3  81.8  34164  289.63 0854.48
2009/04/23 16:25:07.3    -198    126    164    235    286 302.5  38.4  34144  289.31 0854.48
2009/04/23 16:25:07.4    -275    134    173    307    352 296.0  31.9  34136  289.18 0854.48
2009/04/23 16:25:07.5    -368    167    108    405    420 294.5  15.0  34136  289.17 0854.48
2009/04/23 16:25:07.6    -368    368    147    521    542 315.0  15.8  34180  289.92 0854.48
2009/04/23 16:25:07.7    -300    360    120    469    485 320.2  14.4  34128  289.03 0854.48
2009/04/23 16:25:07.8    -277    376    127    468    486 323.6  15.2  34152  289.44 0854.48
2009/04/23 16:25:07.9    -410    225     88    468    477 298.8  10.7  34182  289.93 0854.48
2009/04/23 16:25:08.0    -513     78     68    519    524 278.7   7.5  34178  289.87 0854.48
2009/04/23 16:25:08.1    -326    -85    -78    337    347 255.3 -13.1  34162  289.59 0854.48
2009/04/23 16:25:08.2    -421   -114   -148    437    462 254.9 -18.7  34178  289.87 0854.48
2009/04/23 16:25:08.3    -429    -30   -198    431    474 266.0 -30.7  34164  289.65 0854.48
2009/04/23 16:25:08.4    -187   -286   -128    343    366 213.2 -25.7  34154  289.48 0854.48
2009/04/23 16:25:08.5    -103   -571   -174    581    606 190.3 -21.7  34172  289.76 0854.48
2009/04/23 16:25:08.6     -17   -411    -73    412    419 182.5 -10.1  34166  289.66 0854.48
2009/04/23 16:25:08.7     -14   -299    -32    300    302 182.7  -6.2  34160  289.58 0854.48
2009/04/23 16:25:08.8    -254   -129   -129    285    312 243.0 -30.4  34156  289.51 0854.48
2009/04/23 16:25:08.9    -344   -243   -167    422    453 234.7 -27.3  34142  289.27 0854.48
2009/04/23 16:25:09.0    -512   -364   -215    629    665 234.6 -18.9  34122  288.94 0854.48
2009/04/23 16:25:09.1    -638   -267   -215    692    724 247.3 -22.3  34172  289.76 0854.48
2009/04/23 16:25:09.2    -595   -384   -236    709    748 237.2 -18.4  34124  288.96 0854.48
2009/04/23 16:25:09.3    -417   -466   -184    626    653 221.8 -16.4  34172  289.77 0854.48
2009/04/23 16:25:09.4    -391   -533   -157    662    681 216.3 -13.4  34166  289.66 0854.48
2009/04/23 16:25:09.5    -737   -220   -253    770    810 253.4 -23.3  34140  289.24 0854.48
2009/04/23 16:25:09.6    -432   -429   -235    609    652 225.2 -26.7  34162  289.60 0854.48
2009/04/23 16:25:09.7    -240   -485   -151    542    562 206.4 -20.2  34154  289.48 0854.48
2009/04/23 16:25:09.8    -259   -524     92    585    593 206.3   9.0  34134  289.14 0854.48
2009/04/23 16:25:09.9     -76   -414    156    422    449 190.5  21.1  34138  289.19 0854.48
2009/04/23 16:25:10.0     -76   -369    299    377    481 191.7  42.6  34132  289.11 0854.48
2009/04/23 16:25:10.1    -136   -540    280    557    623 194.2  28.7  34126  289.00 0854.48
2009/04/23 16:25:10.2     -96   -697    334    704    779 187.9  27.3  34124  288.97 0854.48
2009/04/23 16:25:10.3    -108   -658    191    667    694 189.4  16.0  34120  288.90 0854.48
2009/04/23 16:25:10.4     -79   -710    203    715    744 186.4  15.9  34118  288.85 0854.44
2009/04/23 16:25:10.5    -105   -719    262    727    772 188.4  20.7  34122  288.94 0854.44
2009/04/23 16:25:10.6     -83   -616    217    622    658 187.7  20.0  34122  288.94 0854.44
2009/04/23 16:25:10.7    -299   -696    164    758    776 203.3  12.3  34130  289.05 0854.44
2009/04/23 16:25:10.8    -115   -717    222    727    761 189.1  17.0  34128  289.02 0854.44
2009/04/23 16:25:10.9    -190   -565    204    597    632 198.6  18.9  34124  288.96 0854.44
2009/04/23 16:25:11.0     -94   -509    270    518    584 190.5  29.8  34128  289.04 0854.44
2009/04/23 16:25:11.1    -109   -606    132    616    631 190.3  12.2  34132  289.11 0854.44
2009/04/23 16:25:11.2    -119   -724    109    734    743 189.4   8.5  34130  289.06 0854.44
2009/04/23 16:25:11.3       9   -632    208    633    667 179.1  18.2  34134  289.13 0854.44
2009/04/23 16:25:11.4     -87   -585    110    592    603 188.5  10.6  34128  289.03 0854.44
2009/04/23 16:25:11.5     178   -516    206    547    584 160.9  21.6  34142  289.25 0854.44
2009/04/23 16:25:11.6     198   -559     55    594    597 160.5   5.3  34118  288.86 0854.44
2009/04/23 16:25:11.7      19   -379    162    380    413 177.0  24.6  34130  289.07 0854.44
2009/04/23 16:25:11.8      29   -174     33    177    181 170.4  10.6  34132  289.09 0854.44
2009/04/23 16:25:11.9     -57   -149    186    160    245 200.9  55.0  34136  289.16 0854.44
2009/04/23 16:25:12.0     -63   -371    341    377    508 189.7  46.8  34166  289.69 0854.44
2009/04/23 16:25:12.1     140   -110    320    179    366 128.2  68.5  34162  289.59 0854.44
2009/04/23 16:25:12.2     102   -207    272    231    356 153.7  55.4  34138  289.20 0854.44
2009/04/23 16:25:12.3    -126   -430    287    449    532 196.4  35.6  34132  289.10 0854.44
2009/04/23 16:25:12.4      63   -443    249    448    512 171.9  31.4  34134  289.13 0854.42
2009/04/23 16:25:12.5     -17   -567    168    568    593 181.8  16.5  34130  289.08 0854.42
2009/04/23 16:25:12.6     253   -495    163    556    580 152.9  16.4  34134  289.12 0854.42
2009/04/23 16:25:12.7      91   -462     47    471    474 168.8   5.8  34108  288.69 0854.42
2009/04/23 16:25:12.8     -51   -517    224    520    566 185.7  24.8  34114  288.80 0854.42
2009/04/23 16:25:12.9     -14   -517     71    518    523 181.6   7.8  34126  288.99 0854.42
2009/04/23 16:25:13.0     241   -516    -62    570    574 155.0  -6.2  34128  289.03 0854.42
2009/04/23 16:25:13.1     131   -654     63    668    672 168.7   5.4  34112  288.77 0854.42
2009/04/23 16:25:13.2     245   -789   -119    827    836 162.7  -8.2  34106  288.67 0854.42
2009/04/23 16:25:13.4     143   -575   -135    593    609 166.0 -12.9  34124  288.95 0854.42
2009/04/23 16:25:13.4    -102   -448   -108    460    473 192.9 -13.3  34126  288.98 0854.42
2009/04/23 16:25:13.5       7   -509    235    510    561 179.1  26.5  34116  288.82 0854.42
2009/04/23 16:25:13.6     -69   -830    -26    833    834 184.8  -1.8  34128  289.03 0854.42
2009/04/23 16:25:13.7     145   -930    -97    942    947 171.1  -5.9  34124  288.95 0854.42
2009/04/23 16:25:13.8     417   -594     28    727    728 144.9   2.2  34124  288.95 0854.42
2009/04/23 16:25:13.9     385   -435    156    582    603 138.5  15.0  34130  289.08 0854.42
2009/04/23 16:25:14.0     398   -668    405    778    877 149.2  29.8  34112  288.75 0854.42
2009/04/23 16:25:14.1     231   -761     74    796    800 163.1   5.3  34120  288.90 0854.42
2009/04/23 16:25:14.2     165   -840     -3    857    858 168.9  -0.3  34120  288.90 0854.42
2009/04/23 16:25:14.3     252   -983      6   1015   1016 165.6   0.4  34110  288.74 0854.42
2009/04/23 16:25:14.4     229   -952     75    980    983 166.5   4.4  34106  288.67 0854.41
2009/04/23 16:25:14.6     204  -1000    116   1022   1029 168.4   6.5  34106  288.66 0854.41
2009/04/23 16:25:14.6      77   -949    230    953    981 175.3  13.6  34110  288.74 0854.41
2009/04/23 16:25:14.7      10   -809    367    810    889 179.3  26.2  34112  288.75 0854.41
2009/04/23 16:25:14.8       4   -714    229    715    751 179.7  17.8  34112  288.77 0854.41
2009/04/23 16:25:14.9       1   -556    104    557    567 179.9  10.6  34114  288.79 0854.41
2009/04/23 16:25:15.0     160   -715    260    733    779 167.3  19.6  34098  288.53 0854.41
2009/04/23 16:25:15.1     657   -964    218   1167   1187 145.7  10.6  34112  288.75 0854.41
2009/04/23 16:25:15.3     297   -759    252    816    855 158.6  17.2  34114  288.78 0854.41
2009/04/23 16:25:15.4     107   -719    214    728    759 171.5  16.4  34108  288.68 0854.41
2009/04/23 16:25:15.5      73   -623    220    628    665 173.3  20.1  34110  288.74 0854.41
2009/04/23 16:25:15.5      31   -654    188    655    682 177.2  16.0  34122  288.94 0854.41
2009/04/23 16:25:15.7     171   -425     47    459    462 158.1   5.9  34116  288.83 0854.41
2009/04/23 16:25:15.8     278   -631     60    690    693 156.2   5.0  34108  288.68 0854.41
2009/04/23 16:25:15.9     352   -748    144    827    840 154.8   9.9  34116  288.84 0854.41
2009/04/23 16:25:16.0     322   -586     78    669    674 151.2   6.7  34124  288.97 0854.41
2009/04/23 16:25:16.1      85   -513     81    521    528 170.6   8.9  34114  288.80 0854.41
2009/04/23 16:25:16.2     -81   -468    149    476    499 189.9  17.4  34110  288.71 0854.41
2009/04/23 16:25:16.3    -178   -459    226    493    542 201.2  26.4  34116  288.84 0854.41
2009/04/23 16:25:16.4    -107   -554    200    565    600 191.0  19.5  34130  289.07 0854.41
2009/04/23 16:25:16.5    -101   -582    194    591    622 189.9  18.2  34130  289.05 0854.42
2009/04/23 16:25:16.6     -85   -543    138    550    568 188.9  14.2  34118  288.87 0854.42
2009/04/23 16:25:16.7    -193   -453     93    493    502 203.1  10.7  34124  288.95 0854.42
2009/04/23 16:25:16.8     -74   -524     40    530    532 188.1   4.3  34118  288.85 0854.42
2009/04/23 16:25:16.9     -70   -445      8    451    452 189.0   1.1  34122  288.94 0854.42
2009/04/23 16:25:17.0     -58   -356    -22    361    362 189.4  -3.5  34116  288.82 0854.42
2009/04/23 16:25:17.1     -43   -325    -47    328    332 187.7  -8.2  34116  288.81 0854.42
2009/04/23 16:25:17.2      93   -258    -29    275    277 160.2  -6.1  34122  288.92 0854.42
2009/04/23 16:25:17.3      75   -334     53    343    348 167.3   8.8  34126  289.01 0854.42
2009/04/23 16:25:17.4      25   -386     86    387    397 176.3  12.6  34118  288.86 0854.42
2009/04/23 16:25:17.5      59   -602    110    605    615 174.3  10.3  34120  288.88 0854.42
2009/04/23 16:25:17.6      77   -544    199    550    585 171.9  19.9  34118  288.86 0854.42
2009/04/23 16:25:17.7     198   -571     85    605    612 160.8   8.0  34120  288.88 0854.42
2009/04/23 16:25:17.8     335   -421     89    538    546 141.5   9.5  34116  288.84 0854.42
2009/04/23 16:25:17.9     223   -515    285    562    630 156.6  28.9  34110  288.73 0854.42
2009/04/23 16:25:18.0     300   -472    247    560    612 147.5  25.2  34116  288.83 0854.42
2009/04/23 16:25:18.1     338   -439    219    555    596 142.4  22.9  34124  288.97 0854.42
2009/04/23 16:25:18.2     326   -468    182    571    600 145.2  17.7  34108  288.70 0854.42
2009/04/23 16:25:18.3     185   -608    226    636    676 163.1  19.6  34120  288.90 0854.42
2009/04/23 16:25:18.4     142   -224    -40    266    270 147.5  -8.6  34120  288.88 0854.42
2009/04/23 16:25:18.5      -9   -306    140    307    337 181.8  26.3  34120  288.90 0854.47
2009/04/23 16:25:18.6    -123   -413    159    431    459 196.6  21.0  34126  289.00 0854.47
2009/04/23 16:25:18.7    -305   -408    150    510    532 216.8  16.4  34136  289.18 0854.47
2009/04/23 16:25:18.8      49   -352      0    356    357 172.0   0.1  34128  289.04 0854.47
2009/04/23 16:25:18.9     -15   -384    128    385    406 182.2  18.4  34120  288.91 0854.47
2009/04/23 16:25:19.0      14   -432    158    433    460 178.1  20.9  34122  288.92 0854.47
2009/04/23 16:25:19.1     104   -510    147    521    542 168.4  15.8  34128  289.04 0854.47
2009/04/23 16:25:19.2     114   -432    129    447    466 165.2  16.1  34132  289.11 0854.47
2009/04/23 16:25:19.3      86   -457     34    466    468 169.3   4.2  34132  289.10 0854.47
2009/04/23 16:25:19.4      70   -559    132    564    580 172.8  13.2  34102  288.59 0854.47
2009/04/23 16:25:19.5     -27   -446    225    447    500 183.5  28.7  34136  289.15 0854.47
2009/04/23 16:25:19.6      55   -485    107    489    501 173.5  12.4  34142  289.27 0854.47
2009/04/23 16:25:19.7     155   -567     -2    588    589 164.7  -0.3  34138  289.20 0854.47
2009/04/23 16:25:19.8      92   -519    231    528    576 169.9  25.2  34138  289.19 0854.47
2009/04/23 16:25:19.9     185   -515    204    548    584 160.2  21.4  34148  289.36 0854.47
2009/04/23 16:25:20.0     264   -604    173    660    683 156.4  14.7  34152  289.43 0854.47
2009/04/23 16:25:20.1     242   -531    266    584    641 155.5  26.3  34172  289.76 0854.47
2009/04/23 16:25:20.2     364   -541    227    653    692 146.1  19.2  34172  289.77 0854.47
2009/04/23 16:25:20.3     320   -602    286    682    739 152.0  24.2  34122  288.93 0854.47
2009/04/23 16:25:20.4     307   -499    289    587    654 148.4  28.1  34116  288.84 0854.47
2009/04/23 16:25:20.5      73   -450    142    456    478 170.8  17.3  34136  289.17 0854.49
2009/04/23 16:25:20.6    -214   -452     42    501    503 205.4   4.9  34140  289.22 0854.49
2009/04/23 16:25:20.7     -52   -419     90    423    433 187.1  12.1  34142  289.27 0854.49
2009/04/23 16:25:20.8     186   -443    298    481    565 157.2  34.8  34164  289.65 0854.49
2009/04/23 16:25:20.9      14   -668    257    669    716 178.8  22.1  34138  289.20 0854.49
2009/04/23 16:25:21.0     -88   -721    183    727    750 187.0  14.2  34122  288.94 0854.49
2009/04/23 16:25:21.1      34   -672    234    673    713 177.1  19.2  34152  289.42 0854.49
2009/04/23 16:25:21.2     281   -708    270    763    809 158.3  20.3  34140  289.24 0854.49
2009/04/23 16:25:21.3     402   -646    311    761    822 148.1  23.5  34136  289.17 0854.49
2009/04/23 16:25:21.4     455   -663    347    805    876 145.5  24.8  34124  288.97 0854.49
2009/04/23 16:25:21.5     412   -592    273    722    771 145.2  21.7  34128  289.02 0854.49
2009/04/23 16:25:21.6     219   -612    183    651    677 160.3  15.7  34126  288.99 0854.49
2009/04/23 16:25:21.7     250   -487    235    548    596 152.8  24.8  34128  289.02 0854.49
2009/04/23 16:25:21.8     248   -483     71    544    549 152.8   7.5  34126  288.99 0854.49
2009/04/23 16:25:21.9     404   -334     -2    525    526 129.6  -0.3  34128  289.02 0854.49
2009/04/23 16:25:22.0     353   -282     27    452    453 128.6   3.5  34126  289.00 0854.49
2009/04/23 16:25:22.1     342   -171     51    383    387 116.6   7.6  34130  289.06 0854.49
2009/04/23 16:25:22.2     372   -215    114    430    445 120.0  14.9  34130  289.05 0854.49
2009/04/23 16:25:22.3     257   -366    224    448    500 144.9  28.5  34130  289.05 0854.49
2009/04/23 16:25:22.4     331   -520    269    617    673 147.5  25.1  34112  288.77 0854.49
2009/04/23 16:25:22.5     308   -380    300    490    574 141.0  34.4  34116  288.82 0854.48
2009/04/23 16:25:22.6     515   -303     29    598    599 120.5   2.8  34128  289.02 0854.48
2009/04/23 16:25:22.7     451   -338    110    564    575 126.9  11.1  34130  289.08 0854.48
2009/04/23 16:25:22.8     257   -450     55    519    522 150.2   6.1  34126  289.01 0854.48
2009/04/23 16:25:22.9     285   -454    101    536    546 147.9  10.7  34124  288.97 0854.48
2009/04/23 16:25:23.0     178   -479    132    512    529 159.6  14.5  34130  289.07 0854.48
2009/04/23 16:25:23.1      62   -610     25    614    615 174.2   2.4  34136  289.15 0854.48
2009/04/23 16:25:23.2      43   -568    -31    570    571 175.6  -3.2  34132  289.10 0854.48
2009/04/23 16:25:23.3     189   -585     74    615    620 162.1   6.9  34140  289.23 0854.48
2009/04/23 16:25:23.4     524   -490     80    718    723 133.1   6.4  34136  289.17 0854.48
2009/04/23 16:25:23.5     317   -316   -172    448    479 134.9 -26.5  34142  289.28 0854.48
2009/04/23 16:25:23.6     252   -359   -149    439    463 144.9 -23.6  34138  289.19 0854.48
2009/04/23 16:25:23.7     225   -452   -141    506    525 153.5 -20.2  34136  289.15 0854.48
2009/04/23 16:25:23.8     321   -521    -73    612    617 148.4  -6.9  34128  289.04 0854.48
2009/04/23 16:25:23.9     224   -584    -12    626    627 159.0  -1.1  34136  289.18 0854.48
2009/04/23 16:25:24.0     235   -556   -131    604    619 157.1 -12.3  34134  289.14 0854.48
2009/04/23 16:25:24.1     190   -623     -8    652    653 163.0  -0.7  34126  288.99 0854.48
2009/04/23 16:25:24.2     197   -693    -21    721    722 164.1  -1.7  34132  289.10 0854.48
2009/04/23 16:25:24.3     199   -737     22    764    765 164.9   1.7  34120  288.90 0854.48
2009/04/23 16:25:24.4     194   -672    -93    700    707 163.9  -7.6  34130  289.08 0854.48
2009/04/23 16:25:24.5     244   -714    -97    755    762 161.1  -7.3  34124  288.96 0854.48
2009/04/23 16:25:24.6     218   -646    -87    683    689 161.3  -7.3  34130  289.07 0854.48
2009/04/23 16:25:24.7     102   -592   -189    601    631 170.2 -17.5  34134  289.13 0854.48
2009/04/23 16:25:24.8      92   -494   -165    503    530 169.4 -18.2  34140  289.24 0854.48
2009/04/23 16:25:24.9      90   -495    -86    504    512 169.7  -9.8  34136  289.18 0854.48
2009/04/23 16:25:25.0      19   -495   -175    496    525 177.8 -24.6  34136  289.15 0854.48
2009/04/23 16:25:25.1     161   -525   -190    550    581 163.0 -24.3  34128  289.03 0854.48
2009/04/23 16:25:25.2     140   -555   -142    573    591 165.8 -13.9  34136  289.17 0854.48
2009/04/23 16:25:25.3     276   -584   -126    646    659 154.7 -11.1  34132  289.11 0854.48
2009/04/23 16:25:25.4     219   -673   -184    708    732 162.0 -14.6  34124  288.96 0854.48
2009/04/23 16:25:25.5     210   -660    -45    693    695 162.3  -3.7  34128  289.02 0854.48
2009/04/23 16:25:25.6     164   -609    -81    631    637 164.9  -7.3  34120  288.89 0854.48
2009/04/23 16:25:25.7     259   -524    -46    585    587 153.7  -4.6  34126  288.98 0854.48
2009/04/23 16:25:25.8     102   -377   -133    391    413 164.8 -23.8  34130  289.05 0854.48
2009/04/23 16:25:25.9     105   -435   -147    448    471 166.4 -23.2  34134  289.14 0854.48
2009/04/23 16:25:26.0     255   -475   -105    540    551 151.7 -11.0  34126  289.01 0854.48
2009/04/23 16:25:26.1     315   -560   -179    643    667 150.6 -20.2  34138  289.19 0854.48
2009/04/23 16:25:26.2     131   -502   -254    519    577 165.3 -32.3  34136  289.18 0854.48
2009/04/23 16:25:26.3     106   -496   -146    508    529 167.9 -16.0  34128  289.02 0854.48
2009/04/23 16:25:26.4      78   -418   -154    426    452 169.4 -25.3  34132  289.11 0854.48
2009/04/23 16:25:26.5     -18   -477   -175    478    509 182.2 -25.4  34130  289.08 0854.47
2009/04/23 16:25:26.6     -26   -378   -106    379    393 184.0 -20.3  34126  288.98 0854.47
2009/04/23 16:25:26.7      32   -288   -103    290    307 173.5 -24.6  34122  288.92 0854.47
2009/04/23 16:25:26.8    -200    -33    -63    203    212 260.5 -22.5  34128  289.04 0854.47
2009/04/23 16:25:26.9    -169     57    -75    179    194 288.8 -28.2  34140  289.23 0854.47
2009/04/23 16:25:27.0     -70    -56   -126     90    154 231.4 -65.0  34140  289.24 0854.47
2009/04/23 16:25:27.1     -54     71     13     90     92 323.0   8.5  34142  289.26 0854.47
2009/04/23 16:25:27.2      56     26    -38     63     73  64.7 -38.8  34138  289.21 0854.47
2009/04/23 16:25:27.3      90    -42    -41    100    108 115.2 -27.4  34134  289.13 0854.47
2009/04/23 16:25:27.4      83   -248    -82    262    275 161.3 -17.5  34130  289.05 0854.47
2009/04/23 16:25:27.5     121   -170     31    209    212 144.6   8.5  34128  289.04 0854.46
2009/04/23 16:25:27.6      52    -82    -74     98    122 147.5 -45.6  34124  288.97 0854.46
2009/04/23 16:25:27.7     -23    -67    -89     72    114 199.2 -60.8  34134  289.14 0854.46
2009/04/23 16:25:27.8    -192     54    -17    200    201 285.9  -5.1  34130  289.06 0854.46
2009/04/23 16:25:27.9    -228     72    -26    240    242 287.7  -6.2  34132  289.10 0854.46
2009/04/23 16:25:28.0    -131    108    -56    170    180 309.5 -18.3  34128  289.04 0854.46
2009/04/23 16:25:28.1     -10    225    -62    226    235 357.3 -15.5  34132  289.11 0854.46
2009/04/23 16:25:28.2       0    278    -65    279    287   0.0 -13.3  34130  289.05 0854.46
2009/04/23 16:25:28.3     207    319   -203    381    431  33.1 -34.7  34122  288.92 0854.46
2009/04/23 16:25:28.4     309     98     -3    325    326  72.3  -0.6  34108  288.68 0854.46
2009/04/23 16:25:28.5     548   -212    219    588    627 111.2  21.4  34118  288.87 0854.46
2009/04/23 16:25:28.6     575   -293     84    646    652 117.0   7.5  34114  288.79 0854.46
2009/04/23 16:25:28.7     377   -273    -33    466    468 126.0  -4.1  34120  288.88 0854.46
2009/04/23 16:25:28.8     351   -262    -96    439    450 126.8 -12.4  34118  288.85 0854.46
2009/04/23 16:25:28.9     379   -204   -158    431    459 118.3 -25.4  34114  288.78 0854.46
2009/04/23 16:25:29.0     166   -190   -227    253    339 138.8 -51.0  34114  288.80 0854.46
2009/04/23 16:25:29.1     208    -30    -76    211    224  98.4 -24.8  34122  288.92 0854.46
2009/04/23 16:25:29.2     111   -147     36    185    189 142.8  11.0  34128  289.04 0854.46
2009/04/23 16:25:29.3    -103   -257    107    278    297 201.9  22.1  34128  289.02 0854.46
2009/04/23 16:25:29.4     -43   -207    270    212    343 191.8  57.8  34136  289.17 0854.46
2009/04/23 16:25:29.5    -163   -129     73    209    222 231.6  19.4  34126  289.01 0854.46
2009/04/23 16:25:29.6    -181      6    -42    182    187 272.1 -13.2  34124  288.97 0854.46
2009/04/23 16:25:29.7     -50     62   -177     80    194 321.3 -78.4  34140  289.23 0854.46
2009/04/23 16:25:29.8     133     84   -103    158    188  57.5 -40.1  34130  289.06 0854.46
2009/04/23 16:25:29.9     150   -124    -89    195    214 129.5 -30.8  34130  289.08 0854.46
2009/04/23 16:25:30.0      96   -117    -74    152    169 140.4 -32.2  34122  288.92 0854.46
2009/04/23 16:25:30.1     -43   -195   -151    200    250 192.5 -45.3  34132  289.09 0854.46
2009/04/23 16:25:30.2    -153   -130     74    202    215 229.6  20.9  34118  288.87 0854.46
2009/04/23 16:25:30.3    -254   -269    -47    371    375 223.3  -7.3  34132  289.10 0854.46
2009/04/23 16:25:30.4    -248   -303     32    392    394 219.3   4.7  34126  288.99 0854.46
2009/04/23 16:25:30.5    -133   -274    108    305    323 205.9  20.2  34134  289.14 0854.46
2009/04/23 16:25:30.6    -289   -161     12    331    332 240.9   2.2  34142  289.26 0854.46
2009/04/23 16:25:30.7    -256    -64     86    265    279 255.8  18.1  34146  289.32 0854.46
2009/04/23 16:25:30.8    -129   -113     88    172    193 228.9  29.3  34144  289.31 0854.46
2009/04/23 16:25:30.9     -48   -134    102    143    175 200.0  38.8  34152  289.43 0854.46
2009/04/23 16:25:31.0     -64    -98    106    118    158 213.0  46.9  34156  289.50 0854.46
2009/04/23 16:25:31.1     -77    -99     94    126    157 217.9  40.7  34156  289.52 0854.46
2009/04/23 16:25:31.2    -113   -113     12    161    162 225.0   4.6  34146  289.35 0854.46
2009/04/23 16:25:31.3    -126   -148    -39    195    199 220.3 -11.3  34140  289.24 0854.46
2009/04/23 16:25:31.4    -110   -151     38    187    191 216.1  11.6  34136  289.16 0854.48
2009/04/23 16:25:31.5    -103   -201     27    227    229 207.2   6.9  34134  289.13 0854.48
2009/04/23 16:25:31.6    -211   -158     -7    264    265 233.1  -1.6  34140  289.22 0854.48
2009/04/23 16:25:31.7    -203    -45    -42    209    214 257.4 -11.3  34136  289.18 0854.48
2009/04/23 16:25:31.8    -296    -62    -56    303    309 258.1 -10.5  34142  289.27 0854.48
2009/04/23 16:25:31.9    -369    -65     62    375    381 260.0   9.4  34146  289.35 0854.48
2009/04/23 16:25:32.0    -349    -39    139    352    378 263.5  22.8  34150  289.40 0854.48
2009/04/23 16:25:32.1    -382   -221     -2    442    443 240.0  -0.3  34128  289.02 0854.48
2009/04/23 16:25:32.2    -375   -230    -31    441    443 238.5  -4.1  34128  289.04 0854.48
2009/04/23 16:25:32.3    -304   -196   -123    362    382 237.1 -23.5  34120  288.89 0854.48
2009/04/23 16:25:32.4    -233   -119   -190    262    323 242.9 -44.1  34140  289.24 0854.48
2009/04/23 16:25:32.5    -153    -96   -187    181    260 237.8 -55.3  34146  289.34 0854.48
2009/04/23 16:25:32.6    -271    -55    -91    277    291 258.5 -23.8  34174  289.80 0854.48
2009/04/23 16:25:32.7    -293     21   -259    294    391 274.3 -50.3  34164  289.64 0854.48
2009/04/23 16:25:32.8    -153     46    -86    160    181 286.8 -35.2  34150  289.40 0854.48
2009/04/23 16:25:32.9      39    -24    145     46    152 121.5  81.2  34158  289.53 0854.48
2009/04/23 16:25:33.0      -3     39    141     40    146 355.5  84.4  34178  289.89 0854.48
2009/04/23 16:25:33.1       5    178    159    179    239   1.6  46.2  34232  290.81 0854.48
2009/04/23 16:25:33.2    -121    246    184    275    330 333.9  36.7  34312  292.14 0854.48
2009/04/23 16:25:33.3     -77    139    171    159    233 331.0  52.2  34260  291.28 0854.48
2009/04/23 16:25:33.4     -63      0    138     64    152 270.0  73.1  34230  290.77 0854.49
2009/04/23 16:25:33.5     -68     72    119    100    155 316.8  56.3  34198  290.23 0854.49
2009/04/23 16:25:33.6     -93    159     80    185    201 329.5  24.9  34166  289.69 0854.49
2009/04/23 16:25:33.7     -76     88     64    117    133 319.0  31.4  34162  289.60 0854.49
2009/04/23 16:25:33.8     -75     73     38    105    111 314.4  20.0  34166  289.69 0854.49
2009/04/23 16:25:33.9    -170     63     40    182    187 290.4  12.4  34168  289.70 0854.49
2009/04/23 16:25:34.0    -199    -28   -139    202    245 262.0 -42.0  34202  290.30 0854.49
2009/04/23 16:25:34.1    -133     -3   -192    134    234 268.3 -66.1  34210  290.43 0854.49
2009/04/23 16:25:34.2    -212    -29   -152    215    263 262.0 -43.0  34216  290.51 0854.49
2009/04/23 16:25:34.3    -182    -71   -151    196    247 248.5 -46.0  34226  290.70 0854.49
2009/04/23 16:25:34.4    -138    -27   -157    141    211 258.6 -57.9  34240  290.92 0854.49
2009/04/23 16:25:34.5     -38    -60   -106     72    128 212.6 -67.0  34284  291.69 0854.49
2009/04/23 16:25:34.6      -5    -82    -37     83     90 184.0 -30.6  34252  291.13 0854.49
2009/04/23 16:25:34.7      48   -110    -43    121    129 156.3 -19.7  34232  290.79 0854.49
2009/04/23 16:25:34.8      90    -33      2     97     98 110.4   1.2  34240  290.94 0854.49
2009/04/23 16:25:34.9      18    -66     -1     69     70 164.8  -1.3  34234  290.84 0854.49
2009/04/23 16:25:35.0       4      0     76      5     76  90.0  90.0  34234  290.84 0854.49
2009/04/23 16:25:35.1      54     21     87     59    105  68.3  63.2  34210  290.41 0854.49
2009/04/23 16:25:35.2      32    -35     72     48     86 137.7  63.6  34200  290.25 0854.49
2009/04/23 16:25:35.3     -27    -96    120    100    156 196.0  55.8  34176  289.85 0854.49
2009/04/23 16:25:35.4      35    -43    100     56    114 140.3  68.3  34182  289.96 0854.50
2009/04/23 16:25:35.5    -129   -174    123    217    249 216.5  32.3  34196  290.17 0854.50
2009/04/23 16:25:35.6     -67   -192    195    204    282 199.2  49.0  34192  290.10 0854.50
2009/04/23 16:25:35.7    -126   -148    185    195    268 220.3  48.5  34198  290.22 0854.50
2009/04/23 16:25:35.8    -158   -226    135    276    307 215.0  27.8  34212  290.46 0854.50
2009/04/23 16:25:35.9    -234   -250    165    343    380 223.1  27.3  34218  290.55 0854.50
2009/04/23 16:25:36.0    -163   -230    197    283    344 215.4  38.4  34222  290.63 0854.50
2009/04/23 16:25:36.1    -206   -153    131    257    288 233.4  29.2  34232  290.78 0854.50
2009/04/23 16:25:36.2    -389   -235     97    455    466 238.9  12.1  34210  290.43 0854.50
2009/04/23 16:25:36.3    -298   -280    107    410    424 226.8  14.7  34184  289.99 0854.50
2009/04/23 16:25:36.4    -267   -255    144    370    397 226.3  22.4  34202  290.27 0854.50
2009/04/23 16:25:36.5     -70   -118    219    138    258 210.7  64.7  34230  290.75 0854.50
2009/04/23 16:25:36.6    -214   -324    321    389    504 213.5  43.7  34180  289.91 0854.50
2009/04/23 16:25:36.7    -196   -463    239    503    556 202.9  27.3  34164  289.63 0854.50
2009/04/23 16:25:36.8    -115   -496    139    510    529 193.1  15.3  34164  289.63 0854.50
2009/04/23 16:25:36.9    -109   -493    118    506    520 192.5  13.1  34166  289.67 0854.50
2009/04/23 16:25:37.0     -58   -363     63    368    374 189.2   9.7  34160  289.57 0854.50
2009/04/23 16:25:37.1     -75   -278     45    289    293 195.2   8.9  34164  289.63 0854.50
2009/04/23 16:25:37.2     -24   -254    -26    256    258 185.6  -6.0  34166  289.66 0854.50
2009/04/23 16:25:37.3      44   -208    -66    213    222 168.0 -22.3  34160  289.58 0854.50
2009/04/23 16:25:37.4      54   -135    -70    146    161 158.2 -31.8  34160  289.58 0854.50
2009/04/23 16:25:37.5      71   -128    -35    147    152 151.0 -13.4  34158  289.55 0854.50
2009/04/23 16:25:37.6      19   -169     22    171    173 173.5   7.5  34158  289.55 0854.50
2009/04/23 16:25:37.7      75    -84    100    113    150 138.1  45.9  34160  289.58 0854.50
2009/04/23 16:25:37.8      89    -83    179    122    216 133.1  62.6  34166  289.67 0854.50
2009/04/23 16:25:37.9     164    -16    158    165    228  95.9  48.7  34166  289.69 0854.50
2009/04/23 16:25:38.0     223    -46     46    228    233 101.9  11.6  34158  289.53 0854.50
2009/04/23 16:25:38.1     289   -115    108    312    331 111.8  19.1  34142  289.25 0854.50
2009/04/23 16:25:38.2     120   -300    224    324    393 158.2  38.0  34130  289.08 0854.50
2009/04/23 16:25:38.3      17   -378    199    379    428 177.4  30.0  34128  289.04 0854.50
2009/04/23 16:25:38.4     -55   -441    202    445    488 187.1  26.2  34134  289.13 0854.50
2009/04/23 16:25:38.5      59   -301    363    307    475 168.9  55.5  34152  289.43 0854.50
2009/04/23 16:25:38.6      85   -380    280    390    480 167.4  39.2  34142  289.26 0854.50
2009/04/23 16:25:38.7     -38   -375    182    377    418 185.8  27.4  34138  289.21 0854.50
2009/04/23 16:25:38.8     -57   -308    107    314    332 190.6  18.9  34136  289.15 0854.50
2009/04/23 16:25:38.9     123   -210     44    244    249 149.7  10.3  34144  289.29 0854.50
2009/04/23 16:25:39.0      46    -46    126     66    142 134.9  70.4  34142  289.26 0854.50
2009/04/23 16:25:39.1       3    -16    195     17    195 168.4  90.0  34162  289.62 0854.50
2009/04/23 16:25:39.2     243   -200    197    315    371 129.5  35.2  34138  289.20 0854.50
2009/04/23 16:25:39.3     349   -124    226    371    434 109.7  34.2  34146  289.34 0854.50
2009/04/23 16:25:39.4     369   -122    275    389    476 108.4  38.7  34148  289.36 0854.50
2009/04/23 16:25:39.5     168    -72    224    183    289 113.3  56.4  34152  289.44 0854.50
2009/04/23 16:25:39.6     220      0     81    221    235  90.1  21.0  34144  289.30 0854.50
2009/04/23 16:25:39.7     124    -45    144    132    195 110.0  52.7  34144  289.31 0854.50
2009/04/23 16:25:39.8     138   -103    221    173    280 126.6  58.2  34134  289.14 0854.50
2009/04/23 16:25:39.9      27   -140     77    143    162 168.9  30.8  34128  289.02 0854.50
2009/04/23 16:25:40.0      66   -135    173    151    229 153.7  54.3  34138  289.21 0854.50
2009/04/23 16:25:40.1    -113   -191    203    222    300 210.7  47.5  34134  289.12 0854.50
2009/04/23 16:25:40.2      97   -216     15    237    238 155.7   3.6  34136  289.15 0854.50
2009/04/23 16:25:40.3     160   -153    -57    222    230 133.6 -14.5  34136  289.18 0854.50
2009/04/23 16:25:40.4     145   -120    -66    189    200 129.5 -24.0  34140  289.24 0854.50
2009/04/23 16:25:40.5     133   -125     14    183    184 133.2   4.4  34146  289.33 0854.50
2009/04/23 16:25:40.6      96    -61    -31    115    120 122.5 -15.0  34144  289.30 0854.50
2009/04/23 16:25:40.7      92      0     62     93    111  90.0  36.5  34144  289.30 0854.50
2009/04/23 16:25:40.8    -175    -75     85    191    209 246.7  25.7  34140  289.24 0854.50
2009/04/23 16:25:40.9     151     31     -8    155    156  78.1  -3.1  34136  289.16 0854.50
2009/04/23 16:25:41.0     198    -53    104    205    229 105.1  29.1  34136  289.16 0854.50
2009/04/23 16:25:41.1     215   -290    237    362    432 143.4  36.4  34124  288.95 0854.50
2009/04/23 16:25:41.2     -53   -517     82    520    527 185.9   9.0  34130  289.06 0854.50
2009/04/23 16:25:41.3      13   -334   -177    335    378 177.8 -34.6  34110  288.72 0854.50
2009/04/23 16:25:41.4     365   -132   -127    389    409 109.9 -23.3  34130  289.05 0854.49
2009/04/23 16:25:41.5     462   -462     59    654    657 135.0   5.2  34110  288.74 0854.49
2009/04/23 16:25:41.6     659   -579    139    878    890 131.3   9.0  34122  288.93 0854.49
2009/04/23 16:25:41.8     719   -449     10    848    849 122.0   0.7  34130  289.05 0854.49
2009/04/23 16:25:41.9     167   -511   -152    538    559 161.8 -20.5  34128  289.02 0854.49
2009/04/23 16:25:41.9     108   -488   -201    500    538 167.5 -27.5  34126  288.99 0854.49
2009/04/23 16:25:42.1      93   -417    -90    428    438 167.3 -11.9  34118  288.87 0854.49
2009/04/23 16:25:42.2    -116   -676    263    687    735 189.8  22.1  34108  288.69 0854.49
2009/04/23 16:25:42.3     -31   -345    362    347    501 185.2  51.5  34104  288.63 0854.49
2009/04/23 16:25:42.4     -11   -448    281    449    529 181.5  35.1  34108  288.69 0854.49
2009/04/23 16:25:42.5     216   -398    269    453    526 151.5  33.5  34108  288.69 0854.49
2009/04/23 16:25:42.6     157   -156    106    222    246 134.7  27.3  34112  288.76 0854.49
2009/04/23 16:25:42.7      89   -240    155    257    300 159.5  34.2  34112  288.76 0854.49
2009/04/23 16:25:42.8     -23   -311    211    312    376 184.4  37.4  34116  288.82 0854.49
2009/04/23 16:25:42.9       0   -469     45    470    473 180.0   5.5  34112  288.76 0854.49
2009/04/23 16:25:43.0     138   -525    147    543    563 165.2  15.2  34112  288.75 0854.49
2009/04/23 16:25:43.1    -116   -389    445    406    602 196.6  53.2  34118  288.85 0854.49
2009/04/23 16:25:43.2    -185   -390   -114    432    447 205.4 -14.8  34106  288.67 0854.49
2009/04/23 16:25:43.3      88   -256   -263    271    377 160.9 -53.6  34110  288.74 0854.49
2009/04/23 16:25:43.4     337   -295     -1    448    449 131.2  -0.2  34110  288.72 0854.49
2009/04/23 16:25:43.5     436   -571     39    719    721 142.6   3.1  34100  288.57 0854.49
2009/04/23 16:25:43.6     227   -587    -20    630    631 158.8  -1.9  34112  288.76 0854.49
2009/04/23 16:25:43.7    -176   -579     85    606    613 197.0   8.0  34104  288.64 0854.49
2009/04/23 16:25:43.8     -38   -364    161    367    400 186.0  25.2  34118  288.86 0854.49
2009/04/23 16:25:43.9     114   -362   -109    380    395 162.4 -20.8  34114  288.79 0854.49
2009/04/23 16:25:44.0      11   -324   -222    325    393 177.9 -42.0  34112  288.77 0854.49
2009/04/23 16:25:44.1     111   -542   -326    554    642 168.4 -37.5  34122  288.93 0854.49
2009/04/23 16:25:44.2     254   -503   -268    564    624 153.2 -31.7  34118  288.86 0854.49
2009/04/23 16:25:44.3     262   -502   -190    567    597 152.4 -23.3  34116  288.81 0854.49
2009/04/23 16:25:44.4     531   -517    -54    742    744 134.2  -4.2  34100  288.55 0854.49
2009/04/23 16:25:44.5     488   -377    -26    617    618 127.7  -2.5  34116  288.82 0854.49
2009/04/23 16:25:44.6     412   -298    -47    509    512 126.0  -5.3  34114  288.78 0854.49
2009/04/23 16:25:44.7     333   -459      7    568    569 144.0   0.7  34112  288.75 0854.49
2009/04/23 16:25:44.8     394   -626     -3    740    741 147.8  -0.3  34108  288.68 0854.49
2009/04/23 16:25:44.9     441   -464     49    641    643 136.5   4.4  34108  288.69 0854.49
2009/04/23 16:25:45.0     500   -362    120    618    630 126.0  11.0  34116  288.84 0854.49
2009/04/23 16:25:45.1     421   -331    161    536    560 128.2  16.8  34110  288.72 0854.49
2009/04/23 16:25:45.2     240   -362    240    435    496 146.4  31.3  34110  288.71 0854.49
2009/04/23 16:25:45.3      41   -221    291    225    367 169.3  58.5  34112  288.76 0854.49
2009/04/23 16:25:45.4    -135   -348    315    374    488 201.3  44.3  34118  288.85 0854.49
2009/04/23 16:25:45.5    -270   -428      6    507    508 212.3   0.7  34110  288.73 0854.52
2009/04/23 16:25:45.6    -196   -366     27    416    417 208.1   3.8  34108  288.70 0854.52
2009/04/23 16:25:45.7     169   -274    200    323    379 148.3  34.9  34114  288.79 0854.52
2009/04/23 16:25:45.8     181   -354    284    398    488 152.8  39.2  34112  288.77 0854.52
2009/04/23 16:25:45.9     184   -506    291    539    612 160.0  30.8  34114  288.80 0854.52
2009/04/23 16:25:46.0     116   -572    333    584    672 168.5  32.3  34112  288.77 0854.52
2009/04/23 16:25:46.1       9   -152    224    153    271 176.4  62.7  34114  288.78 0854.52
2009/04/23 16:25:46.2     178    -82    326    197    380 114.8  66.1  34116  288.84 0854.52
2009/04/23 16:25:46.3      49   -287    301    292    419 170.2  51.1  34102  288.60 0854.52
2009/04/23 16:25:46.4     -39   -329    273    332    429 186.9  43.7  34120  288.89 0854.52
2009/04/23 16:25:46.5      30   -467    375    468    599 176.3  42.8  34122  288.94 0854.52
2009/04/23 16:25:46.6      96   -561    379    570    684 170.3  36.7  34120  288.91 0854.52
2009/04/23 16:25:46.7     -14   -534    299    535    612 181.6  31.5  34118  288.86 0854.52
2009/04/23 16:25:46.8     -30   -425    223    427    481 184.1  29.8  34136  289.16 0854.52
2009/04/23 16:25:46.9     -59   -360    224    365    428 189.4  34.6  34138  289.19 0854.52
2009/04/23 16:25:47.0    -189   -299    273    354    447 212.3  41.6  34160  289.58 0854.52
2009/04/23 16:25:47.1    -467    -75    111    474    487 260.8  13.2  34146  289.34 0854.52
2009/04/23 16:25:47.2    -536    107    117    547    560 281.4  12.2  34134  289.14 0854.52
2009/04/23 16:25:47.3    -470    259    322    537    626 298.9  33.7  34142  289.25 0854.52
2009/04/23 16:25:47.4    -472    -95    291    482    563 258.6  34.0  34134  289.14 0854.52
2009/04/23 16:25:47.5    -355     -5    223    356    420 269.2  35.2  34132  289.11 0854.52
2009/04/23 16:25:47.6    -276    -94    173    292    339 251.2  33.5  34134  289.14 0854.52
2009/04/23 16:25:47.7    -479    -96    -19    489    490 258.6  -2.2  34142  289.28 0854.52
2009/04/23 16:25:47.8    -841   -163   -298    857    907 259.0 -24.4  34104  288.61 0854.52
2009/04/23 16:25:47.9    -936    -55   -240    938    969 266.6 -14.4  34116  288.84 0854.52
2009/04/23 16:25:48.0    -741   -174   -125    762    773 256.7  -9.3  34110  288.74 0854.52
2009/04/23 16:25:48.1    -533   -480   -118    718    728 228.0  -9.3  34124  288.96 0854.52
2009/04/23 16:25:48.2    -539   -192   -159    573    595 250.3 -15.5  34094  288.46 0854.52
2009/04/23 16:25:48.3    -642    -91   -199    649    678 261.9 -22.1  34104  288.61 0854.52
2009/04/23 16:25:48.4    -399   -170   -250    434    500 246.9 -36.8  34112  288.76 0854.52
2009/04/23 16:25:48.5    -252   -409   -100    481    492 211.7 -11.8  34120  288.91 0854.52
2009/04/23 16:25:48.6    -114   -342    -93    361    373 198.6 -14.5  34120  288.91 0854.52
2009/04/23 16:25:48.7    -177   -321     76    367    375 208.9  11.8  34134  289.13 0854.52
2009/04/23 16:25:48.8    -140   -394      6    419    420 199.6   0.9  34122  288.92 0854.52
2009/04/23 16:25:48.9     -83   -594    107    600    610 188.0  10.1  34128  289.02 0854.52
2009/04/23 16:25:49.0    -219   -499    -40    546    548 203.7  -4.2  34134  289.13 0854.52
2009/04/23 16:25:49.1    -353   -573     49    673    675 211.6   4.2  34126  289.00 0854.52
2009/04/23 16:25:49.2    -177   -355    165    397    429 206.5  24.1  34114  288.80 0854.52
2009/04/23 16:25:49.3    -248   -211    357    326    483 229.6  53.0  34144  289.31 0854.52
2009/04/23 16:25:49.4    -233   -206    302    312    434 228.6  49.1  34142  289.28 0854.52
2009/04/23 16:25:49.5      14   -311    322    312    448 177.4  51.1  34144  289.29 0854.52
2009/04/23 16:25:49.6     138   -232    240    270    361 149.3  46.2  34114  288.79 0854.52
2009/04/23 16:25:49.7     343   -347    367    489    611 135.4  40.6  34144  289.29 0854.52
2009/04/23 16:25:49.8     337   -277    296    437    527 129.5  37.4  34166  289.67 0854.52
2009/04/23 16:25:49.9     332   -424     27    539    540 141.9   2.9  34134  289.14 0854.52
2009/04/23 16:25:50.0    -174   -359   -129    400    420 205.9 -23.0  34148  289.38 0854.52
2009/04/23 16:25:50.1    -223   -448     89    501    509 206.5  10.1  34140  289.22 0854.52
2009/04/23 16:25:50.2    -155   -345    282    379    472 204.2  40.4  34182  289.94 0854.52
2009/04/23 16:25:50.3    -208   -124    204    243    317 239.3  44.3  34150  289.39 0854.52
2009/04/23 16:25:50.4    -200     90    150    220    266 294.4  37.6  34148  289.36 0854.52
2009/04/23 16:25:50.5     181   -197    185    268    325 137.5  37.9  34142  289.27 0854.52
2009/04/23 16:25:50.6     203   -338     70    395    402 149.0  10.1  34138  289.21 0854.52
2009/04/23 16:25:50.7     180   -223    -56    287    293 141.0 -11.1  34138  289.20 0854.52
2009/04/23 16:25:50.8     122   -141    -44    187    193 139.2 -13.4  34138  289.21 0854.52
2009/04/23 16:25:50.9     -96    -85   -120    129    176 228.6 -52.3  34132  289.11 0854.52
2009/04/23 16:25:51.0    -237    -50   -214    243    323 258.1 -50.2  34144  289.29 0854.52
2009/04/23 16:25:51.1      40    -53   -192     67    203 143.0 -84.9  34150  289.40 0854.52
2009/04/23 16:25:51.2    -422    229   -203    481    522 298.5 -28.7  34130  289.06 0854.52
2009/04/23 16:25:51.3    -190    331     39    382    384 330.1   5.9  34136  289.18 0854.52
2009/04/23 16:25:51.4     -78      1    104     79    130 270.9  58.5  34146  289.33 0854.52
2009/04/23 16:25:51.5     -79   -393     66    401    407 191.4   9.3  34144  289.29 0854.52
2009/04/23 16:25:51.6    -140   -541    137    559    576 194.5  13.8  34140  289.24 0854.52
2009/04/23 16:25:51.7    -138   -414     91    437    447 198.5  11.8  34144  289.31 0854.52
2009/04/23 16:25:51.8    -171   -312    123    356    377 208.7  19.2  34152  289.45 0854.52
2009/04/23 16:25:51.9    -160   -246     31    294    296 213.0   6.1  34152  289.42 0854.52
2009/04/23 16:25:52.0    -119   -348    191    368    414 198.9  29.6  34164  289.64 0854.52
2009/04/23 16:25:52.1    -278    -61    172    285    332 257.6  34.0  34164  289.63 0854.52
2009/04/23 16:25:52.2    -512     56     57    516    520 276.3   6.4  34156  289.49 0854.52
2009/04/23 16:25:52.3    -429     49    -17    432    433 276.6  -2.3  34170  289.73 0854.52
2009/04/23 16:25:52.4    -504     37    181    506    537 274.3  20.4  34166  289.67 0854.52
2009/04/23 16:25:52.5    -197      5    223    198    298 271.5  54.0  34170  289.73 0854.50
2009/04/23 16:25:52.6    -207    -78    250    222    334 249.4  53.9  34164  289.63 0854.50
2009/04/23 16:25:52.7    -229   -333    249    405    475 214.5  34.4  34164  289.65 0854.50
2009/04/23 16:25:52.8    -129   -279    344    308    461 204.9  53.6  34164  289.63 0854.50
2009/04/23 16:25:52.9    -238   -500    215    554    594 205.5  22.3  34168  289.71 0854.50
2009/04/23 16:25:53.0    -222   -528    247    573    623 202.8  24.9  34160  289.56 0854.50
2009/04/23 16:25:53.1     -92   -589    239    597    643 188.9  23.0  34168  289.70 0854.50
2009/04/23 16:25:53.2    -119   -511    253    525    582 193.1  27.4  34168  289.70 0854.50
2009/04/23 16:25:53.3    -156   -376    335    408    527 202.6  43.7  34176  289.83 0854.50
2009/04/23 16:25:53.4     -76   -489    515    496    715 188.9  51.3  34162  289.62 0854.50
2009/04/23 16:25:53.5    -127   -629    355    642    733 191.5  31.4  34156  289.52 0854.50
2009/04/23 16:25:53.6    -166   -625    208    647    680 194.9  17.8  34150  289.39 0854.50
2009/04/23 16:25:53.7      37   -521     66    523    528 175.9   7.2  34170  289.75 0854.50
2009/04/23 16:25:53.8     173   -487    156    517    540 160.4  16.8  34158  289.55 0854.50
2009/04/23 16:25:53.9     165   -410    256    443    511 158.1  32.7  34142  289.25 0854.50
2009/04/23 16:25:54.0      14   -223    239    224    327 176.2  52.1  34154  289.47 0854.50
2009/04/23 16:25:54.1      46   -166    139    173    221 164.4  43.3  34156  289.50 0854.50
2009/04/23 16:25:54.2      11   -220    -40    221    225 177.1 -10.5  34160  289.58 0854.50
2009/04/23 16:25:54.3    -202    -69   -114    214    242 250.9 -34.7  34152  289.42 0854.50
2009/04/23 16:25:54.4    -120   -164   -187    204    276 216.1 -51.9  34148  289.36 0854.50
2009/04/23 16:25:54.5      84   -262     38    276    279 162.2   8.0  34154  289.47 0854.50
2009/04/23 16:25:54.6     -16   -162    182    163    244 186.0  53.7  34154  289.48 0854.50
2009/04/23 16:25:54.7     -14    -82    224     84    239 189.8  78.6  34172  289.77 0854.50
2009/04/23 16:25:54.8      67   -332    182    339    384 168.5  30.7  34154  289.47 0854.50
2009/04/23 16:25:54.9      56   -447    160    451    479 172.8  19.6  34152  289.45 0854.50
2009/04/23 16:25:55.0     120   -372    133    391    414 162.1  18.8  34140  289.24 0854.50
2009/04/23 16:25:55.1     198   -258    200    326    382 142.6  34.4  34152  289.42 0854.50
2009/04/23 16:25:55.2     146   -326    278    358    453 155.9  41.7  34136  289.17 0854.50
2009/04/23 16:25:55.3     213   -279    109    352    369 142.6  17.3  34138  289.21 0854.50
2009/04/23 16:25:55.4     122   -217     87    250    265 150.6  19.2  34138  289.20 0854.50
2009/04/23 16:25:55.5     -96   -352    153    365    395 195.3  24.1  34138  289.21 0854.50
2009/04/23 16:25:55.6    -135   -321   -124    349    370 202.8 -24.6  34136  289.18 0854.50
2009/04/23 16:25:55.7       8   -283   -170    284    330 178.2 -38.4  34146  289.32 0854.50
2009/04/23 16:25:55.8      46   -392   -111    395    411 173.3 -15.8  34142  289.27 0854.50
2009/04/23 16:25:55.9     117   -387   -164    405    436 163.1 -27.5  34148  289.36 0854.50
2009/04/23 16:25:56.0     -28   -226   -169    228    283 187.1 -44.8  34146  289.32 0854.50
2009/04/23 16:25:56.1       8   -257    -99    258    276 178.2 -26.4  34142  289.25 0854.50
2009/04/23 16:25:56.2     160     64    182    173    251  68.0  51.4  34142  289.28 0854.50
2009/04/23 16:25:56.3     148    179    125    233    264  39.7  30.3  34138  289.19 0854.50
2009/04/23 16:25:56.4     -33     76     79     84    115 336.4  48.0  34142  289.26 0854.50
2009/04/23 16:25:56.5      70     -1     51     71     87  90.9  39.1  34154  289.46 0854.52
2009/04/23 16:25:56.6     104    -62      5    122    123 120.7   2.3  34146  289.33 0854.52
2009/04/23 16:25:56.7     109    -24     75    112    134 102.4  36.5  34144  289.30 0854.52
2009/04/23 16:25:56.8     226    -54    201    233    307 103.5  45.1  34156  289.51 0854.52
2009/04/23 16:25:56.9     146   -212    276    258    377 145.5  52.1  34136  289.18 0854.52
2009/04/23 16:25:57.0      91   -299    224    313    384 163.1  39.2  34132  289.11 0854.52
2009/04/23 16:25:57.1     172   -253    141    306    336 145.8  26.4  34138  289.19 0854.52
2009/04/23 16:25:57.2     223   -209    255    306    398 133.1  44.1  34134  289.13 0854.52
2009/04/23 16:25:57.3       3   -307    126    308    332 179.3  23.5  34128  289.03 0854.52
2009/04/23 16:25:57.4     104   -242    187    264    323 156.8  38.8  34134  289.12 0854.52
2009/04/23 16:25:57.5      41   -344    182    347    391 173.1  30.0  34136  289.16 0854.52
2009/04/23 16:25:57.6      88   -256     45    271    275 160.9   9.5  34136  289.15 0854.52
2009/04/23 16:25:57.7     -28   -304    -16    306    307 185.3  -3.1  34140  289.22 0854.52
2009/04/23 16:25:57.8     148   -329   -144    361    388 155.8 -27.4  34136  289.18 0854.52
2009/04/23 16:25:57.9     -58     57    224     82    238 314.9  79.2  34150  289.40 0854.52
2009/04/23 16:25:58.0     -49   -188    147    195    244 194.7  40.9  34154  289.46 0854.52
2009/04/23 16:25:58.1     172   -430     67    464    469 158.2   8.3  34148  289.37 0854.52
2009/04/23 16:25:58.2     231   -373     77    439    446 148.3  10.0  34142  289.26 0854.52
2009/04/23 16:25:58.3      99   -324    275    339    436 163.0  43.3  34154  289.48 0854.52
2009/04/23 16:25:58.4      27   -137    198    140    242 168.5  61.5  34158  289.53 0854.52
2009/04/23 16:25:58.5       8    -61    186     62    196 172.0  81.0  34168  289.70 0854.51
2009/04/23 16:25:58.6      14   -152    169    153    227 174.7  53.0  34156  289.52 0854.51
2009/04/23 16:25:58.7    -107    -28     66    111    129 254.9  33.5  34158  289.53 0854.51
2009/04/23 16:25:58.8     -67   -133    102    149    180 206.7  37.8  34142  289.28 0854.51
2009/04/23 16:25:58.9      -2   -178    159    179    239 180.7  46.2  34148  289.36 0854.51
2009/04/23 16:25:59.0    -106   -294   -144    313    344 200.0 -30.9  34138  289.21 0854.51
2009/04/23 16:25:59.1    -102   -313     52    330    335 198.0   9.0  34130  289.06 0854.51
2009/04/23 16:25:59.2    -279   -306    -68    415    421 222.4  -9.4  34138  289.21 0854.51
2009/04/23 16:25:59.3    -412   -433    -36    598    600 223.6  -3.5  34136  289.17 0854.51
2009/04/23 16:25:59.4    -319   -538     79    626    631 210.7   7.2  34132  289.09 0854.51
2009/04/23 16:25:59.5    -259   -549    170    608    632 205.3  15.7  34144  289.31 0854.51
2009/04/23 16:25:59.6    -345   -555    -30    654    655 211.9  -2.7  34136  289.16 0854.51
2009/04/23 16:25:59.7    -262   -391    163    471    499 213.9  19.1  34136  289.15 0854.51
2009/04/23 16:25:59.8    -319   -382    -34    498    500 219.9  -3.9  34134  289.13 0854.51
2009/04/23 16:25:59.9    -269   -485     51    555    558 209.0   5.3  34144  289.29 0854.51
2009/04/23 16:26:00.0    -316   -477     93    573    581 213.5   9.2  34142  289.27 0854.51
2009/04/23 16:26:00.1    -389   -531      5    659    660 216.2   0.5  34138  289.19 0854.51
2009/04/23 16:26:00.2    -393   -545    110    673    683 215.8   9.3  34140  289.24 0854.51
2009/04/23 16:26:00.3    -386   -388    172    548    575 224.9  17.4  34150  289.41 0854.51
2009/04/23 16:26:00.4    -265   -253     64    367    373 226.3  10.0  34150  289.40 0854.52
2009/04/23 16:26:00.5    -137   -165     -8    215    216 219.6  -2.2  34134  289.14 0854.52
2009/04/23 16:26:00.6    -341   -251    154    424    451 233.6  20.9  34148  289.36 0854.52
2009/04/23 16:26:00.7    -506   -266    156    572    593 242.2  15.3  34146  289.32 0854.52
2009/04/23 16:26:00.8    -582   -157   -170    604    628 254.9 -15.8  34150  289.40 0854.52
2009/04/23 16:26:00.9    -573   -323   -235    658    699 240.6 -19.7  34148  289.38 0854.52
2009/04/23 16:26:01.0    -665   -241   -219    708    741 250.1 -22.1  34140  289.23 0854.52
2009/04/23 16:26:01.1    -679   -274   -295    733    790 248.0 -27.6  34128  289.03 0854.52
2009/04/23 16:26:01.2    -608   -148   -511    626    808 256.3 -47.8  34132  289.11 0854.52
2009/04/23 16:26:01.3    -197   -309   -300    367    474 212.5 -47.8  34142  289.26 0854.52
2009/04/23 16:26:01.4     -89   -393   -164    403    435 192.8 -27.8  34142  289.27 0854.52
2009/04/23 16:26:01.5    -138   -408      1    431    432 198.7   0.2  34144  289.31 0854.52
2009/04/23 16:26:01.6     -52   -323     70    328    336 189.2  12.2  34146  289.35 0854.52
2009/04/23 16:26:01.7      38   -249    132    252    284 171.3  29.5  34150  289.41 0854.52
2009/04/23 16:26:01.8     -85   -310     32    322    324 195.4   5.7  34154  289.46 0854.52
2009/04/23 16:26:01.9    -215   -214    -72    304    313 225.2 -13.4  34146  289.32 0854.52
2009/04/23 16:26:02.0    -214   -417    -85    469    477 207.2 -10.3  34150  289.40 0854.52
2009/04/23 16:26:02.1    -269   -324    -41    422    425 219.6  -5.6  34156  289.51 0854.52
2009/04/23 16:26:02.2    -375   -368   -157    526    549 225.6 -16.6  34152  289.43 0854.52
2009/04/23 16:26:02.3    -371   -289   -167    471    501 232.2 -19.6  34156  289.50 0854.52
2009/04/23 16:26:02.4    -269   -338   -128    432    451 218.5 -16.5  34152  289.43 0854.51
2009/04/23 16:26:02.5    -447   -234   -179    505    537 242.4 -19.6  34112  288.77 0854.51
2009/04/23 16:26:02.6    -505   -166   -156    532    554 251.8 -21.2  34114  288.79 0854.51
2009/04/23 16:26:02.7    -539   -118   -226    552    596 257.6 -28.0  34112  288.75 0854.51
2009/04/23 16:26:02.8    -546   -114   -253    558    612 258.1 -30.6  34112  288.76 0854.51
2009/04/23 16:26:02.9    -685      1   -284    686    742 270.1 -28.3  34108  288.69 0854.51
2009/04/23 16:26:03.0    -745     -6   -256    746    789 269.5 -19.0  34124  288.97 0854.51
2009/04/23 16:26:03.1    -664   -106   -147    673    690 260.9 -12.4  34110  288.73 0854.51
2009/04/23 16:26:03.2    -563   -142    -41    581    583 255.8  -4.1  34140  289.22 0854.51
2009/04/23 16:26:03.3    -567   -179    -23    595    596 252.5  -2.2  34152  289.44 0854.51
2009/04/23 16:26:03.4    -549   -454   -138    713    727 230.4 -11.0  34148  289.37 0854.51
2009/04/23 16:26:03.5    -419   -344   -166    543    567 230.6 -21.9  34132  289.09 0854.51
2009/04/23 16:26:03.6    -358   -491   -128    609    623 216.1 -11.9  34142  289.28 0854.51
2009/04/23 16:26:03.7    -234   -479    -44    534    536 206.1  -4.8  34140  289.23 0854.51
2009/04/23 16:26:03.8    -100   -491    -85    502    510 191.6  -9.7  34152  289.44 0854.51
2009/04/23 16:26:03.9     -60   -315    -52    321    326 190.9  -9.3  34136  289.15 0854.51
2009/04/23 16:26:04.0    -167   -522    -70    549    554 197.8  -7.3  34154  289.48 0854.51
2009/04/23 16:26:04.1    -204   -535    -17    573    574 200.9  -1.7  34154  289.46 0854.51
2009/04/23 16:26:04.2    -282   -531   -206    602    637 208.0 -18.9  34156  289.50 0854.51
2009/04/23 16:26:04.3    -337   -470     19    579    580 215.6   1.9  34142  289.25 0854.51
2009/04/23 16:26:04.4    -430   -367    -64    566    570 229.5  -6.5  34162  289.62 0854.49
2009/04/23 16:26:04.5    -520   -293   -160    598    620 240.6 -15.0  34152  289.44 0854.49
2009/04/23 16:26:04.6    -446   -340   -229    561    605 232.7 -27.9  34156  289.51 0854.49
2009/04/23 16:26:04.7    -419   -393   -109    575    586 226.9 -10.8  34170  289.75 0854.49
2009/04/23 16:26:04.8    -415   -373   -278    559    624 228.1 -32.9  34126  289.00 0854.49
2009/04/23 16:26:04.9    -401   -291   -404    496    639 234.1 -47.8  34112  288.76 0854.49
2009/04/23 16:26:05.0    -339   -483   -192    591    621 215.1 -23.2  34108  288.68 0854.49
2009/04/23 16:26:05.1    -398   -526   -218    660    696 217.1 -18.3  34118  288.87 0854.49
2009/04/23 16:26:05.2    -399   -497   -281    638    697 218.7 -29.7  34136  289.16 0854.49
2009/04/23 16:26:05.3    -324   -681   -176    755    776 205.5 -13.1  34148  289.38 0854.49
2009/04/23 16:26:05.4    -260   -528   -191    589    619 206.3 -23.2  34134  289.14 0854.49
2009/04/23 16:26:05.5    -378   -518   -191    642    670 216.1 -16.6  34144  289.31 0854.49
2009/04/23 16:26:05.6    -431   -484   -200    649    679 221.7 -22.1  34140  289.24 0854.49
2009/04/23 16:26:05.7    -349   -449    -82    569    575 217.9  -8.2  34152  289.44 0854.49
2009/04/23 16:26:05.8    -218   -400   -112    456    470 208.6 -13.9  34144  289.30 0854.49
2009/04/23 16:26:05.9    -251   -299   -121    391    410 220.0 -17.2  34138  289.21 0854.49
2009/04/23 16:26:06.0    -237   -189   -169    304    347 231.4 -35.8  34146  289.33 0854.49
2009/04/23 16:26:06.1     -77   -199   -169    214    272 201.2 -46.8  34146  289.34 0854.49
2009/04/23 16:26:06.2     -76   -251   -156    263    305 196.9 -37.9  34144  289.29 0854.49
2009/04/23 16:26:06.3     -67   -133   -148    149    210 206.7 -54.4  34144  289.31 0854.49
2009/04/23 16:26:06.4    -279   -304     75    413    420 222.5  10.3  34150  289.39 0854.44
2009/04/23 16:26:06.5    -382   -221     13    442    443 240.0   1.7  34168  289.72 0854.44
2009/04/23 16:26:06.6    -118   -186    136    221    259 212.3  34.5  34158  289.53 0854.44
2009/04/23 16:26:06.7      60   -322    197    328    382 169.4  33.7  34146  289.33 0854.44
2009/04/23 16:26:06.8      -1   -409     74    410    417 180.2  10.2  34140  289.24 0854.44
2009/04/23 16:26:06.9      42   -360    -24    363    364 173.3  -3.9  34136  289.16 0854.44
2009/04/23 16:26:07.0     -18   -336    119    337    358 183.1  19.6  34150  289.40 0854.44
2009/04/23 16:26:07.1    -162   -341    123    378    398 205.4  18.0  34156  289.50 0854.44
2009/04/23 16:26:07.2    -112   -284    183    306    356 201.6  33.6  34168  289.71 0854.44
2009/04/23 16:26:07.3    -131   -279    115    309    329 205.2  21.3  34152  289.44 0854.44
2009/04/23 16:26:07.4    -244    -95    178    262    316 248.7  37.6  34152  289.44 0854.44
2009/04/23 16:26:07.5      80    -25    146     84    168 107.7  67.5  34172  289.77 0854.44
2009/04/23 16:26:07.6    -150   -107    197    185    270 234.5  52.1  34176  289.83 0854.44
2009/04/23 16:26:07.8    -158   -190    155    248    292 219.6  35.5  34170  289.73 0854.44
2009/04/23 16:26:07.8     -15     41    137     44    143 340.0  81.2  34176  289.84 0854.44
2009/04/23 16:26:07.9      81    -15    137     83    160 100.6  66.0  34172  289.77 0854.44
2009/04/23 16:26:08.0      30   -304    274    306    410 174.2  46.5  34174  289.81 0854.44
2009/04/23 16:26:08.1    -237   -197    276    309    414 230.4  46.4  34172  289.79 0854.44
2009/04/23 16:26:08.2      94    -30    204     99    226 108.2  72.8  34192  290.13 0854.44
2009/04/23 16:26:08.4     162     98     66    190    202  58.7  19.2  34188  290.04 0854.44
2009/04/23 16:26:08.5     339     51    114    343    362  81.4  18.4  34172  289.79 0854.47
2009/04/23 16:26:08.6     432    -39    189    434    473  95.2  25.1  34160  289.58 0854.47
2009/04/23 16:26:08.7     298    -22    232    299    378  94.4  41.7  34174  289.81 0854.47
2009/04/23 16:26:08.8     -19    -94    186     96    209 191.5  70.8  34164  289.65 0854.47
2009/04/23 16:26:08.9     -10    -54    202     55    209 190.7  84.8  34164  289.63 0854.47
2009/04/23 16:26:09.0    -200   -187    139    275    308 226.9  29.1  34172  289.78 0854.47
2009/04/23 16:26:09.1    -271   -168    144    319    349 238.2  26.0  34166  289.69 0854.47
2009/04/23 16:26:09.2    -167      0    -11    168    169 270.0  -3.9  34186  290.02 0854.47
2009/04/23 16:26:09.3      -8   -287    315    288    426 181.8  53.0  34146  289.35 0854.47
2009/04/23 16:26:09.4      26   -131    290    134    319 168.4  73.6  34156  289.51 0854.47
2009/04/23 16:26:09.5    -134   -362    231    387    450 200.4  33.5  34144  289.29 0854.50
2009/04/23 16:26:09.6    -140   -452    159    474    501 197.3  18.6  34130  289.05 0854.50
2009/04/23 16:26:09.7    -217   -474    147    522    543 204.6  15.8  34148  289.38 0854.50
2009/04/23 16:26:09.8    -235   -250    -68    344    351 223.2 -11.3  34128  289.03 0854.50
2009/04/23 16:26:09.9    -161   -156    175    225    285 225.8  41.7  34140  289.22 0854.50
2009/04/23 16:26:10.0       7    -75    162     76    178 174.7  73.1  34154  289.48 0854.50
2009/04/23 16:26:10.1       6   -142    164    143    217 177.3  54.3  34154  289.48 0854.50
2009/04/23 16:26:10.2      81   -104    166    132    212 142.2  57.1  34154  289.46 0854.50
2009/04/23 16:26:10.3     253   -182    121    312    334 125.7  22.3  34146  289.32 0854.50
2009/04/23 16:26:10.4     183    -53    115    191    222 106.4  34.0  34138  289.21 0854.50
2009/04/23 16:26:10.5     154   -154    131    219    255 135.0  33.5  34122  288.93 0854.50
2009/04/23 16:26:10.6     133   -183      3    227    228 144.0   0.8  34138  289.21 0854.50
2009/04/23 16:26:10.7      82   -115      7    142    143 144.4   2.9  34142  289.28 0854.50
2009/04/23 16:26:10.8      82    -19     57     85    102 103.3  37.0  34142  289.28 0854.50
2009/04/23 16:26:10.9     111     25    139    114    179  77.2  56.4  34152  289.43 0854.50
2009/04/23 16:26:11.0      -1    -14    192     15    192 184.4  90.0  34154  289.48 0854.50
2009/04/23 16:26:11.1      23    114     52    117    128  11.6  25.2  34150  289.40 0854.50
2009/04/23 16:26:11.2     -92    131     66    161    174 324.8  23.4  34148  289.36 0854.50
2009/04/23 16:26:11.3    -105    166     39    197    201 327.5  11.4  34152  289.45 0854.50
2009/04/23 16:26:11.4     -39    130     88    136    161 343.0  35.7  34154  289.46 0854.50
2009/04/23 16:26:11.5      53    157     74    166    181  18.7  25.7  34144  289.30 0854.51
2009/04/23 16:26:11.6      85     64    230    107    253  53.1  73.2  34138  289.19 0854.51
2009/04/23 16:26:11.7      91    -65    149    112    186 125.5  59.2  34140  289.23 0854.51
2009/04/23 16:26:11.8     127    -38    100    133    166 106.8  40.7  34140  289.24 0854.51
2009/04/23 16:26:11.9     348   -149    -41    379    382 113.3  -6.3  34136  289.18 0854.51
2009/04/23 16:26:12.0     469   -340    -46    580    582 126.0  -4.6  34116  288.83 0854.51
2009/04/23 16:26:12.1     396   -259    164    474    502 123.2  19.2  34110  288.74 0854.51
2009/04/23 16:26:12.2     248   -299    173    389    425 140.3  25.7  34118  288.87 0854.51
2009/04/23 16:26:12.3     314   -461     83    558    565 145.7   8.5  34108  288.69 0854.51
2009/04/23 16:26:12.4     138   -432     46    454    457 162.2   5.8  34116  288.82 0854.51
2009/04/23 16:26:12.5     125   -411     47    430    433 163.1   6.4  34116  288.82 0854.51
2009/04/23 16:26:12.6      80   -430    -64    438    443 169.4  -8.4  34120  288.89 0854.51
2009/04/23 16:26:12.7     114   -416   -136    432    453 164.6 -17.5  34120  288.90 0854.51
2009/04/23 16:26:12.8     192   -423    -86    465    473 155.5 -10.5  34108  288.69 0854.51
2009/04/23 16:26:12.9     216   -505    -94    550    558 156.8  -9.7  34112  288.75 0854.51
2009/04/23 16:26:13.0      62   -508     -2    512    513 173.0  -0.3  34114  288.79 0854.51
2009/04/23 16:26:13.1     127   -486     96    503    513 165.3  10.8  34118  288.86 0854.51
2009/04/23 16:26:13.2      18   -409      5    410    411 177.4   0.8  34112  288.75 0854.51
2009/04/23 16:26:13.3      70   -431     -8    437    438 170.7  -1.2  34112  288.77 0854.51
2009/04/23 16:26:13.4      60   -314    -91    320    332 169.1 -20.4  34116  288.84 0854.51
2009/04/23 16:26:13.5      76   -267   -164    278    322 164.0 -37.9  34120  288.90 0854.53
2009/04/23 16:26:13.6     135   -329   -105    356    371 157.7 -21.4  34120  288.91 0854.53
2009/04/23 16:26:13.7     135   -400   -134    423    444 161.3 -17.7  34124  288.95 0854.53
2009/04/23 16:26:13.8     119   -418     49    435    438 164.1   6.5  34120  288.89 0854.53
2009/04/23 16:26:13.9     139   -377    109    403    418 159.7  15.2  34110  288.72 0854.53
2009/04/23 16:26:14.0     -31   -337     98    339    353 185.4  16.1  34116  288.84 0854.53
2009/04/23 16:26:14.1      17   -270    208    271    341 176.2  41.4  34114  288.80 0854.53
2009/04/23 16:26:14.2      72   -187     93    201    221 158.8  26.6  34128  289.04 0854.53
2009/04/23 16:26:14.3      46   -228    -80    233    247 168.4 -19.1  34118  288.85 0854.53
2009/04/23 16:26:14.4      96   -237    -72    256    265 157.9 -20.4  34114  288.80 0854.53
2009/04/23 16:26:14.5      90   -270    -18    285    286 161.5  -3.7  34120  288.88 0854.53
2009/04/23 16:26:14.6     107   -217    -53    243    249 153.7 -12.4  34122  288.92 0854.53
2009/04/23 16:26:14.7     180   -232    -45    294    298 142.2  -8.8  34124  288.97 0854.53
2009/04/23 16:26:14.8     119   -265      8    291    292 155.7   1.6  34128  289.02 0854.53
2009/04/23 16:26:14.9      91   -276     62    291    298 161.7  12.2  34132  289.09 0854.53
2009/04/23 16:26:15.0     184   -275     47    332    336 146.2   8.1  34120  288.88 0854.53
2009/04/23 16:26:15.1     205   -312     83    374    384 146.7  12.6  34112  288.76 0854.53
2009/04/23 16:26:15.2     155   -320    204    356    410 154.1  32.4  34118  288.86 0854.53
2009/04/23 16:26:15.3     155   -319    209    355    411 154.0  33.1  34114  288.79 0854.53
2009/04/23 16:26:15.4     138   -301    193    332    384 155.4  32.9  34116  288.81 0854.53
2009/04/23 16:26:15.5      50   -315    187    320    370 170.9  33.0  34126  288.99 0854.53
2009/04/23 16:26:15.6     173   -271    128    322    346 147.4  23.0  34126  288.99 0854.53
2009/04/23 16:26:15.7     111   -301    144    322    352 159.7  25.8  34116  288.84 0854.53
2009/04/23 16:26:15.8     205   -325      5    385    386 147.7   0.8  34122  288.93 0854.53
2009/04/23 16:26:15.9     277   -418    137    502    521 146.4  15.3  34116  288.83 0854.53
2009/04/23 16:26:16.0     176   -400    172    438    470 156.3  22.7  34124  288.95 0854.53
2009/04/23 16:26:16.1     188   -317    172    369    407 149.3  27.0  34118  288.86 0854.53
2009/04/23 16:26:16.2     117   -380    295    398    495 162.8  40.1  34122  288.93 0854.53
2009/04/23 16:26:16.3     162   -386    264    419    495 157.2  35.2  34120  288.91 0854.53
2009/04/23 16:26:16.4     202   -314    217    374    432 147.3  32.7  34118  288.87 0854.53
2009/04/23 16:26:16.5      71   -369    164    376    410 169.0  25.1  34116  288.84 0854.53
2009/04/23 16:26:16.6      57   -327    130    332    356 170.1  22.7  34120  288.89 0854.53
2009/04/23 16:26:16.7      97   -324    119    339    359 163.4  20.1  34126  288.98 0854.53
2009/04/23 16:26:16.8      89   -310    104    323    340 164.0  17.8  34126  289.01 0854.53
2009/04/23 16:26:16.9      12   -257    118    258    283 177.3  26.4  34126  288.98 0854.53
2009/04/23 16:26:17.0     109   -205    199    233    306 151.9  44.8  34132  289.09 0854.53
2009/04/23 16:26:17.1     197   -282    189    345    393 145.0  31.0  34126  288.98 0854.53
2009/04/23 16:26:17.2     227   -280    191    361    408 141.0  30.2  34124  288.96 0854.53
2009/04/23 16:26:17.3     255   -255    261    362    446 135.0  39.5  34140  289.24 0854.53
2009/04/23 16:26:17.4     156   -139    209    210    296 131.8  50.0  34146  289.32 0854.53
2009/04/23 16:26:17.5     153   -138    195    207    284 132.0  48.0  34138  289.19 0854.53
2009/04/23 16:26:17.6      79     91    232    121    261  41.0  70.4  34144  289.30 0854.53
2009/04/23 16:26:17.7     104     32    214    109    240  72.7  71.0  34136  289.18 0854.53
2009/04/23 16:26:17.8     221     24    228    223    318  83.8  50.7  34132  289.09 0854.53
2009/04/23 16:26:17.9     213     23    246    215    326  83.6  54.6  34132  289.09 0854.53
2009/04/23 16:26:18.0     186      4    247    187    309  88.7  59.2  34136  289.15 0854.53
2009/04/23 16:26:18.1     162     39    257    167    306  76.3  64.4  34132  289.10 0854.53
2009/04/23 16:26:18.2     208      9    223    209    305  87.5  52.1  34136  289.17 0854.53
2009/04/23 16:26:18.3     198    -30    157    201    255  98.6  42.0  34134  289.14 0854.53
2009/04/23 16:26:18.4     183    -52    175    191    259 105.9  47.7  34134  289.14 0854.53
2009/04/23 16:26:18.5     112   -119    141    164    216 136.8  45.1  34138  289.19 0854.53
2009/04/23 16:26:18.6      47     -3     87     48     99  94.4  68.8  34144  289.31 0854.53
2009/04/23 16:26:18.7     132    -35     80    137    158 105.1  32.9  34134  289.13 0854.53
2009/04/23 16:26:18.8     160    -53     92    169    192 108.4  31.3  34132  289.11 0854.53
2009/04/23 16:26:18.9     177    -40    133    182    225 103.0  39.7  34134  289.14 0854.53
2009/04/23 16:26:19.0     211   -138    182    253    311 123.1  39.5  34132  289.10 0854.53
2009/04/23 16:26:19.1     104   -241    167    263    311 156.6  35.5  34136  289.17 0854.53
2009/04/23 16:26:19.2      24   -236    215    238    320 174.2  46.8  34142  289.25 0854.53
2009/04/23 16:26:19.3      63   -281    191    289    346 167.3  36.5  34142  289.27 0854.53
2009/04/23 16:26:19.4     -46   -265    115    270    293 190.0  24.3  34138  289.19 0854.53
2009/04/23 16:26:19.5     -60   -271     44    278    282 192.7   9.0  34134  289.14 0854.55
2009/04/23 16:26:19.6     -49   -287    -82    292    303 189.8 -20.2  34138  289.19 0854.55
2009/04/23 16:26:19.7     115    -57    128    129    181 116.6  50.0  34140  289.24 0854.55
2009/04/23 16:26:19.8     114    -72    213    136    252 122.4  64.6  34144  289.31 0854.55
2009/04/23 16:26:19.9     102   -123    174    161    237 140.3  52.5  34140  289.24 0854.55
2009/04/23 16:26:20.0     -49   -274    122    279    304 190.2  25.2  34134  289.12 0854.55
2009/04/23 16:26:20.1     -41   -155     61    161    172 195.1  21.5  34136  289.18 0854.55
2009/04/23 16:26:20.2      11    -79     16     80     82 171.5  11.6  34138  289.21 0854.55
2009/04/23 16:26:20.3      13    -39    -13     42     43 161.5 -22.8  34144  289.30 0854.55
2009/04/23 16:26:20.4      36   -156     19    161    163 166.7   6.9  34140  289.24 0854.55
2009/04/23 16:26:20.5      10   -242    -26    243    245 177.5  -6.2  34136  289.15 0854.55
2009/04/23 16:26:20.6     -90   -360    -58    372    377 194.1  -9.0  34136  289.15 0854.55
2009/04/23 16:26:20.7     -53   -275    -21    281    282 190.9  -4.4  34134  289.12 0854.55
2009/04/23 16:26:20.8     -32   -324    -27    326    328 185.8  -4.8  34132  289.09 0854.55
2009/04/23 16:26:20.9     131   -218    -84    255    268 149.0 -23.8  34142  289.25 0854.55
2009/04/23 16:26:21.0      14   -212     10    213    214 176.0   2.9  34138  289.19 0854.55
2009/04/23 16:26:21.1    -149   -205     13    254    255 216.1   3.1  34140  289.22 0854.55
2009/04/23 16:26:21.2    -177   -143    -64    228    237 231.1 -15.8  34138  289.20 0854.55
2009/04/23 16:26:21.3     -76   -119    113    142    181 212.6  42.7  34138  289.21 0854.55
2009/04/23 16:26:21.4     -69    -89     85    113    141 217.8  40.7  34148  289.38 0854.55
2009/04/23 16:26:21.5     -22    -74     98     78    125 196.9  57.5  34146  289.33 0854.55
2009/04/23 16:26:21.6     -70   -107    164    129    208 213.4  57.9  34144  289.31 0854.55
2009/04/23 16:26:21.7     -72    -73    107    103    148 224.5  51.2  34142  289.28 0854.55
2009/04/23 16:26:21.8       6     76    110     77    134   4.5  62.1  34164  289.63 0854.55
2009/04/23 16:26:21.9      45     68    146     82    167  33.4  68.3  34156  289.52 0854.55
2009/04/23 16:26:22.0      40     16    126     44    133  68.3  80.7  34152  289.43 0854.55
2009/04/23 16:26:22.1      85      5    131     86    156  86.1  64.6  34148  289.38 0854.55
2009/04/23 16:26:22.2       6    -16     76     18     78 158.2  86.9  34152  289.43 0854.55
2009/04/23 16:26:22.3      70     -5     95     71    118  94.3  59.4  34146  289.35 0854.55
2009/04/23 16:26:22.4      88    -15     70     90    114  99.7  42.2  34136  289.18 0854.55
2009/04/23 16:26:22.5     113     11     39    114    121  84.3  18.9  34136  289.18 0854.55
2009/04/23 16:26:22.6      74    -23     23     78     82 107.7  16.3  34134  289.13 0854.55
2009/04/23 16:26:22.7      58   -113    -18    128    130 152.9  -8.2  34132  289.09 0854.55
2009/04/23 16:26:22.8      -6   -216    -32    217    220 181.6  -8.6  34134  289.13 0854.55
2009/04/23 16:26:22.9      12   -359    -11    360    361 178.0  -1.9  34132  289.10 0854.55
2009/04/23 16:26:23.0      12   -271    114    272    294 177.3  24.1  34132  289.09 0854.55
2009/04/23 16:26:23.1      21   -291     68    292    300 175.8  13.1  34134  289.14 0854.55
2009/04/23 16:26:23.2      84   -281    115    294    315 163.3  22.5  34136  289.15 0854.55
2009/04/23 16:26:23.3      97   -233    113    253    277 157.3  25.3  34132  289.09 0854.55
2009/04/23 16:26:23.4      66   -184     52    196    203 160.2  15.0  34132  289.09 0854.55
2009/04/23 16:26:23.5      21   -156    -11    158    159 172.0  -4.1  34138  289.21 0854.54
2009/04/23 16:26:23.6      65    -26    -80     71    106 111.7 -57.7  34138  289.21 0854.54
2009/04/23 16:26:23.7     108      4    -48    109    119  87.9 -29.5  34142  289.28 0854.54
2009/04/23 16:26:23.8      96     27    -65    100    119  74.1 -40.4  34142  289.28 0854.54
2009/04/23 16:26:23.9     121    -20    -22    123    126  99.7 -10.3  34142  289.26 0854.54
2009/04/23 16:26:24.0      94    -42      0    104    105 114.4  -0.3  34144  289.30 0854.54
2009/04/23 16:26:24.1      45    -42     31     62     69 133.1  27.3  34146  289.33 0854.54
2009/04/23 16:26:24.2      78    -83     25    115    118 136.8  12.6  34146  289.35 0854.54
2009/04/23 16:26:24.3      91   -188     10    209    210 154.1   2.8  34140  289.23 0854.54
2009/04/23 16:26:24.4     141   -237     25    276    278 149.2   5.2  34130  289.07 0854.54
2009/04/23 16:26:24.5      78   -224      7    238    239 160.8   1.8  34138  289.19 0854.54
2009/04/23 16:26:24.6     -24   -172     69    174    187 188.0  23.0  34132  289.11 0854.54
2009/04/23 16:26:24.7    -125   -172    -40    213    217 216.1 -10.9  34132  289.11 0854.54
2009/04/23 16:26:24.8     -97    -92    -70    134    151 226.4 -33.7  34130  289.08 0854.54
2009/04/23 16:26:24.9     -47   -106    -53    117    128 204.1 -30.6  34130  289.08 0854.54
2009/04/23 16:26:25.0     -11   -149    -19    150    152 184.4  -7.2  34134  289.13 0854.54
2009/04/23 16:26:25.1      47   -144     12    152    153 161.7   4.9  34128  289.02 0854.54
2009/04/23 16:26:25.2      21   -137     27    139    142 171.1  11.0  34130  289.08 0854.54
2009/04/23 16:26:25.3     -15   -101     11    103    104 188.9   6.5  34126  288.99 0854.54
2009/04/23 16:26:25.4    -210    -43    -35    215    218 258.3  -9.3  34124  288.96 0854.52
2009/04/23 16:26:25.5    -146    -32     65    150    163 257.6  24.6  34128  289.04 0854.52
2009/04/23 16:26:25.6      22    -81     -7     85     86 164.4  -5.2  34126  288.99 0854.52
2009/04/23 16:26:25.7     -33    -63      1     72     73 208.1   0.8  34122  288.94 0854.52
2009/04/23 16:26:25.8     -56    -42     -9     71     72 233.1  -7.2  34130  289.06 0854.52
2009/04/23 16:26:25.9     -18    -53      0     57     58 198.7   0.8  34130  289.08 0854.52
2009/04/23 16:26:26.0      12    -50     17     52     55 165.7  18.9  34134  289.13 0854.52
2009/04/23 16:26:26.1      29    -78     22     84     87 159.1  14.7  34130  289.08 0854.52
2009/04/23 16:26:26.2      31    -48     38     58     69 147.4  35.6  34132  289.11 0854.52
2009/04/23 16:26:26.3      38    -24     56     46     72 122.4  56.3  34138  289.21 0854.52
2009/04/23 16:26:26.4      33    -11     67     35     75 108.6  69.8  34150  289.40 0854.52
2009/04/23 16:26:26.5      20    -20     49     29     56 135.0  65.7  34154  289.48 0854.52
2009/04/23 16:26:26.6      12     13     44     18     47  43.4  77.1  34168  289.72 0854.52
2009/04/23 16:26:26.7     -13     23     47     27     54 329.3  66.8  34174  289.80 0854.52
2009/04/23 16:26:26.8     -26     -8     47     28     54 253.2  65.7  34160  289.58 0854.52
2009/04/23 16:26:26.9       7      0     36      8     36  90.0  89.0  34162  289.62 0854.52
2009/04/23 16:26:27.0      66     -5     34     67     75  94.4  28.2  34150  289.41 0854.52
2009/04/23 16:26:27.1      47      3     26     48     54  85.6  31.4  34146  289.35 0854.52
2009/04/23 16:26:27.2      42    -14     26     45     51 109.1  32.4  34152  289.45 0854.52
2009/04/23 16:26:27.3      21     13     -5     25     26  57.5 -11.3  34152  289.45 0854.52
2009/04/23 16:26:27.4      21     19     -4     29     30  46.9  -9.3  34154  289.46 0854.52
2009/04/23 16:26:27.5       7     21      1     23     24  20.0   2.9  34152  289.43 0854.52
2009/04/23 16:26:27.6       0      4      0      5      6 357.3  -2.2  34148  289.38 0854.52
2009/04/23 16:26:27.7     -13     -3      3     14     15 254.9  15.3  34146  289.35 0854.52
2009/04/23 16:26:27.8     -25      0    -34     26     42 270.0 -62.9  34138  289.19 0854.52
2009/04/23 16:26:27.9     -47     -6    -63     48     79 262.1 -63.4  34136  289.18 0854.52
2009/04/23 16:26:28.0     -31    -19    -42     37     55 237.6 -58.7  34136  289.16 0854.52
2009/04/23 16:26:28.1     -15     -2    -28     16     32 262.1 -71.2  34142  289.26 0854.52
2009/04/23 16:26:28.2      -4     23    -11     24     26 350.2 -29.5  34144  289.30 0854.52
2009/04/23 16:26:28.3       0     47      6     48     49 359.1   8.0  34142  289.26 0854.52
2009/04/23 16:26:28.4      15     76     15     78     80  11.6  11.1  34150  289.40 0854.52
2009/04/23 16:26:28.5      10    104      0    105    106   5.8   0.2  34160  289.57 0854.52
2009/04/23 16:26:28.6     -36     94     15    101    103 339.1   8.5  34152  289.43 0854.52
2009/04/23 16:26:28.7     -44    121      4    129    130 339.9   1.8  34162  289.62 0854.52
2009/04/23 16:26:28.8     -60    130      5    144    145 335.1   2.3  34160  289.58 0854.52
2009/04/23 16:26:28.9     -50    137    -15    146    147 340.0  -6.2  34166  289.69 0854.52
2009/04/23 16:26:29.0     -36    122      1    128    129 343.5   0.8  34182  289.96 0854.52
2009/04/23 16:26:29.1     -38    143     -8    149    150 344.9  -3.1  34194  290.16 0854.52
2009/04/23 16:26:29.2     -37    145    -35    150    155 345.7 -13.3  34248  291.08 0854.52
2009/04/23 16:26:29.3     -64    141     -8    155    156 335.5  -3.2  34238  290.91 0854.52
2009/04/23 16:26:29.4     -85    133    -17    158    159 327.4  -6.2  34196  290.19 0854.52
2009/04/23 16:26:29.5    -128     87     36    155    160 304.2  13.2  34224  290.67 0854.52
2009/04/23 16:26:29.6    -134     10     82    135    157 274.3  34.2  34208  290.40 0854.52
2009/04/23 16:26:29.7    -157     35     76    162    178 282.8  27.1  34220  290.60 0854.52
2009/04/23 16:26:29.8    -128      8     66    129    144 273.9  29.3  34210  290.43 0854.52
2009/04/23 16:26:29.9    -164      6     79    165    182 272.4  27.4  34210  290.41 0854.52
2009/04/23 16:26:30.0    -147    -39     77    153    171 254.9  28.5  34228  290.74 0854.52
2009/04/23 16:26:30.1    -114    -27     12    118    119 256.7   5.9  34214  290.50 0854.52
2009/04/23 16:26:30.2     -62     30     51     70     86 296.2  39.7  34244  290.99 0854.52
2009/04/23 16:26:30.3     -63     34     58     72     92 298.9  43.7  34286  291.71 0854.52
2009/04/23 16:26:30.4     -29     42     31     52     60 324.8  33.5  34296  291.89 0854.53
2009/04/23 16:26:30.5     -12     49     13     51     53 345.7  14.3  34306  292.06 0854.53
2009/04/23 16:26:30.6       6     41     14     42     45   8.9  19.4  34308  292.08 0854.53
2009/04/23 16:26:30.7      39     25      2     47     48  57.5   2.9  34290  291.77 0854.53
2009/04/23 16:26:30.8      52     26     24     59     63  62.9  23.0  34296  291.89 0854.53
2009/04/23 16:26:30.9      65     41     27     78     83  57.6  19.4  34350  292.81 0854.53
2009/04/23 16:26:31.0      47     50      5     69     70  43.3   4.9  34332  292.51 0854.53
2009/04/23 16:26:31.1      53     49     27     73     77  46.8  20.0  34324  292.37 0854.53
2009/04/23 16:26:31.2      66     65     30     93     98  45.4  18.4  34320  292.30 0854.53
2009/04/23 16:26:31.3      97      7     46     98    108  85.6  27.1  34322  292.32 0854.53
2009/04/23 16:26:31.4     171     60    -50    182    189  70.5 -15.5  34336  292.56 0854.53
2009/04/23 16:26:31.5     169    159     -2    233    234  46.8  -0.5  34362  292.99 0854.53
2009/04/23 16:26:31.6     172    103     36    201    205  59.1  10.3  34410  293.84 0854.53
2009/04/23 16:26:31.7     269    148     44    308    312  61.1   8.2  34384  293.39 0854.53
2009/04/23 16:26:31.8     327    131    -29    353    355  68.2  -4.8  34372  293.16 0854.53
2009/04/23 16:26:31.9     381     94     57    393    398  76.1   8.3  34350  292.80 0854.53
2009/04/23 16:26:32.0     427    119     73    444    451  74.4   9.3  34298  291.92 0854.53
2009/04/23 16:26:32.1     396    115     42    413    416  73.8   5.8  34252  291.14 0854.53
2009/04/23 16:26:32.2     371    111      3    388    389  73.3   0.5  34202  290.28 0854.53
2009/04/23 16:26:32.3     315    141    107    346    363  65.8  17.3  34244  291.00 0854.53
2009/04/23 16:26:32.4     339     92     90    352    364  74.8  14.4  34312  292.14 0854.54
2009/04/23 16:26:32.5     312    126     82    337    348  68.0  13.8  34318  292.25 0854.54
2009/04/23 16:26:32.6     287     17    136    288    318  86.5  27.1  34394  293.56 0854.54
2009/04/23 16:26:32.7     334    -11    133    335    360  91.9  22.9  34404  293.72 0854.54
2009/04/23 16:26:32.8     321      4    168    322    363  89.2  29.6  34362  292.99 0854.54
2009/04/23 16:26:32.9     215     16    249    216    329  85.7  54.8  34334  292.53 0854.54
2009/04/23 16:26:33.0     249     -7    251    250    354  91.7  50.1  34322  292.31 0854.54
2009/04/23 16:26:33.1     235    -59    190    243    308 104.2  42.0  34364  293.05 0854.54
2009/04/23 16:26:33.2     200    -75    134    214    252 110.6  35.5  34352  292.84 0854.54
2009/04/23 16:26:33.3     207    -65    162    218    271 107.5  40.1  34362  293.01 0854.54
2009/04/23 16:26:33.4     192    -76     90    207    225 111.7  25.1  34368  293.10 0854.54
2009/04/23 16:26:33.5     166    -79    123    184    221 115.5  36.7  34372  293.19 0854.54
2009/04/23 16:26:33.6     188    -51    106    195    221 105.3  31.3  34356  292.90 0854.54
2009/04/23 16:26:33.7     188    -39    126    193    230 101.7  35.7  34354  292.86 0854.54
2009/04/23 16:26:33.8     185   -139     36    232    235 127.1   9.0  34350  292.81 0854.54
2009/04/23 16:26:33.9     144   -197     27    245    247 143.9   6.5  34360  292.96 0854.54
2009/04/23 16:26:34.0      60   -138     -3    151    152 156.4  -1.2  34360  292.98 0854.54
2009/04/23 16:26:34.1     113   -205     94    235    253 151.0  23.0  34368  293.10 0854.54
2009/04/23 16:26:34.2      41   -217     87    221    237 169.3  22.8  34342  292.67 0854.54
2009/04/23 16:26:34.3      75   -209    107    223    247 160.2  27.3  34318  292.26 0854.54
2009/04/23 16:26:34.4     -41   -222    -81    226    240 190.5 -24.8  34264  291.34 0854.55
2009/04/23 16:26:34.5    -125   -163      4    206    207 217.6   1.2  34314  292.18 0854.55
2009/04/23 16:26:34.6    -315    -71    -71    324    332 257.2 -12.5  34242  290.98 0854.55
2009/04/23 16:26:34.7    -246   -141    -58    284    291 240.2 -11.6  34210  290.42 0854.55
2009/04/23 16:26:34.8    -167   -161     -5    233    234 226.0  -1.3  34258  291.24 0854.55
2009/04/23 16:26:34.9    -113   -178    -41    212    217 212.5 -11.1  34178  289.89 0854.55
2009/04/23 16:26:35.0    -167   -165     44    235    240 225.3  10.6  34210  290.41 0854.55
2009/04/23 16:26:35.1    -272   -173    -10    323    324 237.6  -1.9  34120  288.88 0854.55
2009/04/23 16:26:35.2    -223   -171    -35    282    285 232.5  -7.2  34108  288.68 0854.55
2009/04/23 16:26:35.3    -231   -184    -48    296    301 231.4  -9.3  34108  288.68 0854.55
2009/04/23 16:26:35.4    -294    -82    -23    306    307 254.3  -4.4  34106  288.65 0854.55
2009/04/23 16:26:35.6    -319   -193     21    374    375 238.8   3.3  34096  288.50 0854.55
2009/04/23 16:26:35.7    -316   -161    -83    355    365 242.9 -13.2  34092  288.42 0854.55
2009/04/23 16:26:35.8    -321   -159   -116    359    378 243.6 -18.0  34094  288.45 0854.55
2009/04/23 16:26:35.9    -304   -193   -117    361    380 237.6 -18.0  34094  288.44 0854.55
2009/04/23 16:26:36.0    -310   -163   -125    351    373 242.2 -19.7  34094  288.45 0854.55
2009/04/23 16:26:36.1    -321   -167   -111    362    379 242.5 -17.2  34096  288.50 0854.55
2009/04/23 16:26:36.2    -325   -144   -103    356    371 246.0 -16.2  34094  288.44 0854.55
2009/04/23 16:26:36.3    -324   -144    -98    355    369 245.9 -15.5  34094  288.45 0854.55
2009/04/23 16:26:36.4    -282   -194    -95    343    356 235.5 -15.5  34094  288.45 0854.55
2009/04/23 16:26:36.5    -248   -206   -105    323    340 230.2 -18.1  34098  288.52 0854.53
2009/04/23 16:26:36.6    -271   -178    -68    325    333 236.7 -11.9  34100  288.57 0854.53
2009/04/23 16:26:36.7    -232   -181    -97    295    310 232.0 -23.8  34100  288.54 0854.53
2009/04/23 16:26:36.8    -218   -171   -113    278    300 231.8 -27.5  34098  288.51 0854.53
2009/04/23 16:26:36.9    -262   -166   -123    311    334 237.6 -27.2  34104  288.63 0854.53
2009/04/23 16:26:37.0    -278   -171   -117    327    347 238.4 -24.8  34102  288.60 0854.53
2009/04/23 16:26:37.1    -199   -134   -146    240    280 236.0 -38.8  34102  288.59 0854.53
2009/04/23 16:26:37.2    -207   -110   -127    235    267 242.0 -35.2  34098  288.53 0854.53
2009/04/23 16:26:37.3    -201    -75   -115    215    243 249.4 -34.7  34096  288.49 0854.53
2009/04/23 16:26:37.4    -186    -68   -102    199    223 250.0 -33.7  34096  288.48 0854.53
2009/04/23 16:26:37.5    -202    -85   -101    220    242 247.2 -30.6  34100  288.54 0854.53
2009/04/23 16:26:37.6    -211    -75    -90    225    242 250.3 -27.4  34102  288.58 0854.53
2009/04/23 16:26:37.7    -245    -96    -73    264    275 248.5 -15.5  34106  288.66 0854.53
2009/04/23 16:26:37.8    -256    -61    -99    264    281 256.5 -25.7  34106  288.65 0854.53
2009/04/23 16:26:37.9    -230    -17   -126    231    263 265.6 -35.7  34102  288.59 0854.53
2009/04/23 16:26:38.0    -205    -31   -108    208    234 261.2 -33.9  34108  288.69 0854.53
2009/04/23 16:26:38.1    -233     20   -141    234    273 275.0 -38.6  34106  288.65 0854.53
2009/04/23 16:26:38.2    -219    -29   -164    221    275 262.3 -44.8  34122  288.92 0854.53
2009/04/23 16:26:38.3    -190    -30   -176    193    261 261.0 -51.5  34130  289.07 0854.53
2009/04/23 16:26:38.4    -218    -23   -156    220    269 263.8 -43.2  34132  289.09 0854.53
2009/04/23 16:26:38.5    -155    -67   -173    170    242 246.5 -54.8  34130  289.06 0854.55
2009/04/23 16:26:38.6    -162    -39   -189    167    252 256.3 -58.4  34128  289.04 0854.55
2009/04/23 16:26:38.7    -340    -37   -119    343    363 263.7 -24.3  34126  288.98 0854.55
2009/04/23 16:26:38.8    -295    -62   -133    302    329 258.1 -29.7  34124  288.97 0854.55
2009/04/23 16:26:38.9    -291    -25   -103    293    310 265.0 -24.4  34120  288.88 0854.55
2009/04/23 16:26:39.0    -215    -14    -98    216    237 266.3 -30.6  34124  288.97 0854.55
2009/04/23 16:26:39.1    -221    -16    -91    222    239 265.6 -28.0  34132  289.09 0854.55
2009/04/23 16:26:39.2    -199     64    -62    210    220 287.9 -16.6  34114  288.79 0854.55
2009/04/23 16:26:39.3    -194     30    -77    197    211 279.0 -26.9  34122  288.92 0854.55
2009/04/23 16:26:39.4    -194     28    -90    197    216 278.4 -30.6  34124  288.97 0854.55
2009/04/23 16:26:39.5    -257     41    -71    261    271 279.2 -15.4  34124  288.97 0854.55
2009/04/23 16:26:39.6    -279      0    -82    280    292 270.0 -16.4  34126  288.98 0854.55
2009/04/23 16:26:39.7    -272    -12    -85    273    286 267.4 -17.3  34128  289.03 0854.55
2009/04/23 16:26:39.8    -234     11    -54    235    242 272.8 -12.9  34126  288.98 0854.55
2009/04/23 16:26:39.9    -193     14    -69    194    206 274.3 -19.6  34126  289.01 0854.55
2009/04/23 16:26:40.0    -171    -18    -62    172    182 263.9 -24.8  34128  289.02 0854.55
2009/04/23 16:26:40.1    -126    -12    -74    127    146 264.3 -37.8  34136  289.16 0854.55
2009/04/23 16:26:40.2    -139     32    -45    143    149 283.2 -23.3  34124  288.97 0854.55
2009/04/23 16:26:40.3    -131     14    -63    132    146 276.2 -31.6  34126  288.99 0854.55
2009/04/23 16:26:40.4    -163     53    -61    172    182 288.2 -24.4  34122  288.92 0854.55
2009/04/23 16:26:40.5    -180     78     -3    197    198 293.5  -1.1  34120  288.91 0854.58
2009/04/23 16:26:40.6    -237    112     -5    263    264 295.2  -1.3  34114  288.80 0854.58
2009/04/23 16:26:40.7    -245    153    -20    289    290 302.0  -4.1  34124  288.95 0854.58
2009/04/23 16:26:40.8    -178    124    -58    218    226 304.9 -15.0  34130  289.06 0854.58
2009/04/23 16:26:40.9    -182      2    -36    183    187 270.8 -11.1  34136  289.16 0854.58
2009/04/23 16:26:41.0    -206     42   -114    211    239 281.7 -35.0  34138  289.19 0854.58
2009/04/23 16:26:41.1    -148     30    -14    151    152 281.5  -5.6  34148  289.36 0854.58
2009/04/23 16:26:41.2    -123   -119    -11    172    173 225.8  -3.7  34146  289.33 0854.58
2009/04/23 16:26:41.3    -138   -179     28    227    229 217.6   7.1  34134  289.13 0854.58
2009/04/23 16:26:41.4    -150   -118     86    191    209 231.8  25.9  34144  289.31 0854.58
2009/04/23 16:26:41.5    -143   -142     46    202    208 225.1  12.9  34140  289.24 0854.58
2009/04/23 16:26:41.6     -94   -183    -48    206    212 207.2 -13.3  34142  289.26 0854.58
2009/04/23 16:26:41.7     -81   -151    -57    172    182 208.1 -18.3  34140  289.23 0854.58
2009/04/23 16:26:41.8     -49   -178     -7    185    186 195.6  -2.2  34140  289.23 0854.58
2009/04/23 16:26:41.9     -44   -176     -7    182    183 194.0  -2.2  34140  289.23 0854.58
2009/04/23 16:26:42.0      12   -165    -33    166    170 175.5 -11.3  34140  289.24 0854.58
2009/04/23 16:26:42.1      53   -160    -33    169    173 161.5 -11.1  34142  289.26 0854.58
2009/04/23 16:26:42.2      60   -171      1    182    183 160.4   0.5  34142  289.28 0854.58
2009/04/23 16:26:42.3      36   -164     46    169    176 167.5  15.3  34152  289.43 0854.58
2009/04/23 16:26:42.4     -44   -127      6    135    136 199.2   2.8  34134  289.14 0854.58
2009/04/23 16:26:42.5    -116    -69    -23    136    139 239.3  -9.8  34134  289.13 0854.57
2009/04/23 16:26:42.6     -36   -103     29    110    114 199.2  15.2  34136  289.16 0854.57
2009/04/23 16:26:42.7     -14    -69    -55     71     89 191.6 -46.6  34134  289.14 0854.57
2009/04/23 16:26:42.8     -42    -55    -46     70     83 217.0 -40.4  34138  289.21 0854.57
2009/04/23 16:26:42.9     -42    -14    -65     45     79 250.9 -66.5  34142  289.28 0854.57
2009/04/23 16:26:43.0     -35      0    -69     36     77 270.0 -75.2  34142  289.26 0854.57
2009/04/23 16:26:43.1     -16     -3    -44     17     47 258.5 -83.6  34154  289.46 0854.57
2009/04/23 16:26:43.2       0     24    -60     25     65   0.9 -81.5  34162  289.62 0854.57
2009/04/23 16:26:43.3      46     -7    -22     47     51  98.8 -31.5  34178  289.89 0854.57
2009/04/23 16:26:43.4      31     -7     -2     32     33 103.3  -5.2  34192  290.13 0854.57
2009/04/23 16:26:43.5      65    -16      9     68     69 104.2   8.0  34216  290.52 0854.57
2009/04/23 16:26:43.6      55      0     15     56     59  90.0  15.3  34196  290.19 0854.57
2009/04/23 16:26:43.7      89    -54     37    105    112 121.5  19.4  34190  290.09 0854.57
2009/04/23 16:26:43.8      95    -45     40    106    113 115.4  21.5  34162  289.62 0854.57
2009/04/23 16:26:43.9     134    -56     56    146    156 112.6  22.0  34162  289.60 0854.57
2009/04/23 16:26:44.0     149    -21     69    151    166  98.0  26.4  34176  289.84 0854.57
2009/04/23 16:26:44.1     146     28     80    149    169  79.0  30.6  34160  289.57 0854.57
2009/04/23 16:26:44.2     104     41     46    113    122  68.2  23.0  34154  289.48 0854.57
2009/04/23 16:26:44.3      93     30     12     98     99  71.8   7.1  34152  289.45 0854.57
2009/04/23 16:26:44.4      60     35      3     70     71  59.3   2.8  34154  289.46 0854.57
2009/04/23 16:26:44.5      57     15    -21     60     64  75.0 -19.6  34154  289.48 0854.52
2009/04/23 16:26:44.6      61     11    -27     63     68  79.4 -28.5  34160  289.57 0854.52
2009/04/23 16:26:44.7      68     19    -24     71     74  74.1 -23.6  34156  289.50 0854.52
2009/04/23 16:26:44.8      82     27    -26     87     91  71.8 -16.6  34156  289.50 0854.52
2009/04/23 16:26:44.9      99     -4    -30    100    104  92.6 -22.3  34152  289.45 0854.52
2009/04/23 16:26:45.0      80     -6    -24     81     85  94.4 -17.0  34154  289.46 0854.52
2009/04/23 16:26:45.1      85    -54     15    101    103 122.4   8.5  34150  289.40 0854.52
2009/04/23 16:26:45.2      32    -76    -13     83     85 157.3  -9.3  34152  289.43 0854.52
2009/04/23 16:26:45.3      76    -61     23     98    101 128.6  13.7  34148  289.38 0854.52
2009/04/23 16:26:45.4     133     11     67    134    149  85.2  28.2  34182  289.96 0854.52
2009/04/23 16:26:45.5     100     33    116    106    157  71.4  52.7  34204  290.33 0854.52
2009/04/23 16:26:45.6      86     28     87     91    125  71.6  49.0  34188  290.04 0854.52
2009/04/23 16:26:45.7      85     23     70     89    113  74.9  42.7  34188  290.04 0854.52
2009/04/23 16:26:45.8      47      6     53     48     71  82.1  52.2  34206  290.35 0854.52
2009/04/23 16:26:45.9      57     30     38     65     75  62.0  33.5  34186  290.02 0854.52
2009/04/23 16:26:46.0      51    108     42    120    128  25.3  19.4  34166  289.67 0854.52
2009/04/23 16:26:46.1      75     97     64    123    138  37.8  29.3  34168  289.70 0854.52
2009/04/23 16:26:46.2      59    116     70    131    148  27.1  30.8  34174  289.82 0854.52
2009/04/23 16:26:46.3      17     84     13     86     88  12.0   9.0  34160  289.58 0854.52
2009/04/23 16:26:46.4      -9     87     48     88    100 353.8  31.3  34172  289.77 0854.52
2009/04/23 16:26:46.5     -21    103     40    106    113 348.4  21.5  34176  289.85 0854.47
2009/04/23 16:26:46.6     -34    122     55    127    138 344.4  25.1  34180  289.92 0854.47
2009/04/23 16:26:46.7      29     82     33     88     93  19.6  20.4  34192  290.11 0854.47
2009/04/23 16:26:46.8      28     55     64     62     89  27.2  50.1  34270  291.43 0854.47
2009/04/23 16:26:46.9      42    -24     80     49     93 119.8  65.1  34292  291.81 0854.47
2009/04/23 16:26:47.0      33     40     56     53     77  39.6  51.2  34276  291.55 0854.47
2009/04/23 16:26:47.1      24     74     53     78     94  18.3  37.0  34232  290.81 0854.47
2009/04/23 16:26:47.2      32     92     43     98    107  19.6  24.6  34206  290.36 0854.47
2009/04/23 16:26:47.3     -30     90     25     96    100 341.3  14.7  34218  290.57 0854.47
2009/04/23 16:26:47.4     -25     74     16     79     81 341.3  11.6  34216  290.53 0854.47
2009/04/23 16:26:47.5     -45     63     -7     78     79 323.9  -5.2  34236  290.86 0854.47
2009/04/23 16:26:47.6     -16     50    -10     53     55 341.3 -11.3  34236  290.86 0854.47
2009/04/23 16:26:47.7     -21     54    -11     59     61 338.2 -11.3  34232  290.81 0854.47
2009/04/23 16:26:47.8      -2     50    -13     51     53 357.3 -14.5  34226  290.69 0854.47
2009/04/23 16:26:47.9      -5     53    -16     54     57 354.7 -16.6  34226  290.70 0854.47
2009/04/23 16:26:48.0      -7     34     -4     35     36 348.4  -7.3  34226  290.69 0854.47
2009/04/23 16:26:48.1     -12     38     -8     41     42 341.5 -11.3  34224  290.67 0854.47
2009/04/23 16:26:48.2      -2     42     -8     43     44 357.3 -11.3  34214  290.48 0854.47
2009/04/23 16:26:48.3     -20     26     -7     33     34 322.2 -13.4  34208  290.40 0854.47
2009/04/23 16:26:48.4     -35     16     10     39     41 294.4  15.3  34202  290.28 0854.47
2009/04/23 16:26:48.5     -51     17     14     54     56 288.4  15.3  34224  290.65 0854.49
2009/04/23 16:26:48.6     -47     40      1     62     63 310.4   1.8  34262  291.32 0854.49
2009/04/23 16:26:48.7      -7     45    -30     46     54 350.2 -40.0  34324  292.37 0854.49
2009/04/23 16:26:48.8     -35     54     17     65     68 327.4  15.2  34346  292.73 0854.49
2009/04/23 16:26:48.9     -41     31     20     52     55 307.8  21.0  34332  292.51 0854.49
2009/04/23 16:26:49.0     -45      4     27     46     53 276.1  33.5  34340  292.64 0854.49
2009/04/23 16:26:49.1      19    -11     41     23     47 120.7  67.7  34332  292.49 0854.49
2009/04/23 16:26:49.2      89     17     23     91     94  79.0  14.3  34280  291.62 0854.49
2009/04/23 16:26:49.3      68     37     32     78     84  61.2  23.0  34222  290.64 0854.49
2009/04/23 16:26:49.4      55     52     43     76     87  46.8  32.4  34220  290.60 0854.49
2009/04/23 16:26:49.5      31     92     54     98    111  18.7  31.4  34242  290.96 0854.49
2009/04/23 16:26:49.6     113    171     41    206    211  33.6  11.4  34266  291.38 0854.49
2009/04/23 16:26:49.7      39    280    147    283    318   8.1  29.6  34260  291.26 0854.49
2009/04/23 16:26:49.8      51    334    108    338    355   8.7  17.8  34192  290.13 0854.49
2009/04/23 16:26:49.9      20    335     68    336    343   3.5  11.4  34178  289.86 0854.49
2009/04/23 16:26:50.0     -99    330    154    345    377 343.3  25.7  34242  290.98 0854.49
2009/04/23 16:26:50.1     -88    266     29    281    283 341.7   6.0  34174  289.80 0854.49
2009/04/23 16:26:50.2     -71    276     64    286    294 345.5  12.6  34176  289.83 0854.49
2009/04/23 16:26:50.3      27    177     88    180    200   8.9  28.0  34296  291.89 0854.49
2009/04/23 16:26:50.4     154    186    140    242    279  39.7  32.7  34322  292.33 0854.49
2009/04/23 16:26:50.5     277    129    181    306    355  64.9  33.4  34352  292.83 0854.53
2009/04/23 16:26:50.6     227    113    173    254    307  63.4  37.6  34390  293.49 0854.53
2009/04/23 16:26:50.7     162     89    127    186    225  61.2  37.6  34356  292.92 0854.53
2009/04/23 16:26:50.8     131    136     57    189    198  43.9  16.8  34306  292.06 0854.53
2009/04/23 16:26:50.9      98    128    127    162    205  37.4  42.2  34266  291.37 0854.53
2009/04/23 16:26:51.0      87     72    137    114    178  50.4  56.1  34294  291.84 0854.53
2009/04/23 16:26:51.1      96    161    153    188    242  31.0  43.5  34252  291.15 0854.53
2009/04/23 16:26:51.2     131    149    117    199    230  41.4  33.5  34248  291.06 0854.53
2009/04/23 16:26:51.3     107    121     22    162    164  41.5   7.8  34250  291.09 0854.53
2009/04/23 16:26:51.4     140     92    -21    168    170  56.5  -7.2  34254  291.18 0854.53
2009/04/23 16:26:51.5     154    186     21    242    243  39.6   5.2  34264  291.33 0854.54
2009/04/23 16:26:51.6      64    316     15    323    324  11.6   2.8  34268  291.41 0854.54
2009/04/23 16:26:51.7      64    342     13    349    350  10.7   2.2  34266  291.37 0854.54
2009/04/23 16:26:51.8     107    335     42    352    355  17.8   6.8  34332  292.48 0854.54
2009/04/23 16:26:51.9      45    266     90    270    285   9.6  18.5  34290  291.78 0854.54
2009/04/23 16:26:52.0      92    274    156    290    329  18.7  30.6  34306  292.06 0854.54
2009/04/23 16:26:52.1     227    200    159    303    342  48.6  30.0  34290  291.78 0854.54
2009/04/23 16:26:52.2     310    185     77    362    371  59.2  12.1  34304  292.02 0854.54
2009/04/23 16:26:52.3     279    163    176    324    368  59.6  30.9  34316  292.22 0854.54
2009/04/23 16:26:52.4     304    133    130    333    357  66.3  22.4  34304  292.02 0854.54
2009/04/23 16:26:52.5     270    142    137    306    335  62.2  25.8  34296  291.87 0854.54
2009/04/23 16:26:52.6     373    125     41    394    397  71.4   6.0  34252  291.15 0854.54
2009/04/23 16:26:52.7     480    170     92    510    519  70.4  10.2  34268  291.39 0854.54
2009/04/23 16:26:52.8     518    220    123    563    577  66.9  12.4  34298  291.90 0854.54
2009/04/23 16:26:52.9     523    201     65    561    565  69.0   6.7  34238  290.89 0854.54
2009/04/23 16:26:53.0     493    215    169    539    565  66.4  17.4  34270  291.45 0854.54
2009/04/23 16:26:53.1     384    232    181    449    484  58.8  23.1  34254  291.17 0854.54
2009/04/23 16:26:53.2     422     79    161    430    459  79.4  21.4  34250  291.11 0854.54
2009/04/23 16:26:53.3     430    116    122    446    463  74.9  15.3  34256  291.19 0854.54
2009/04/23 16:26:53.4     307    169    125    351    372  61.1  20.6  34232  290.79 0854.54
2009/04/23 16:26:53.5     373    120    102    393    407  72.1  14.6  34208  290.37 0854.54
2009/04/23 16:26:53.6     405    102    159    418    447  75.8  21.8  34176  289.83 0854.54
2009/04/23 16:26:53.7     330     80    198    340    393  76.3  32.9  34268  291.39 0854.54
2009/04/23 16:26:53.8     358     92    202    370    421  75.5  31.0  34260  291.26 0854.54
2009/04/23 16:26:53.9     288     21    142    289    322  85.7  28.0  34284  291.67 0854.54
2009/04/23 16:26:54.0     213    -43    142    218    260 101.4  36.0  34308  292.09 0854.54
2009/04/23 16:26:54.1     334    111    148    352    381  71.6  24.2  34204  290.33 0854.54
2009/04/23 16:26:54.2     360    201    143    413    438  60.8  19.1  34196  290.17 0854.54
2009/04/23 16:26:54.3     315     63    158    322    358  78.6  28.1  34322  292.34 0854.54
2009/04/23 16:26:54.4     244     63    137    253    287  75.4  30.8  34240  290.92 0854.54
2009/04/23 16:26:54.5     221    117    152    251    293  62.1  34.0  34164  289.64 0854.54
2009/04/23 16:26:54.6     249    149    142    291    323  59.1  27.9  34222  290.63 0854.54
2009/04/23 16:26:54.7     249     86    163    264    310  71.0  35.0  34202  290.29 0854.54
2009/04/23 16:26:54.8     303     42    151    306    341  82.1  28.2  34342  292.68 0854.54
2009/04/23 16:26:54.9     262     25    207    264    335  84.5  42.2  34336  292.55 0854.54
2009/04/23 16:26:55.0     213    -15    162    214    268  94.3  40.9  34360  292.96 0854.54
2009/04/23 16:26:55.1     227    -26    160    229    279  96.6  38.5  34356  292.89 0854.54
2009/04/23 16:26:55.2     242    -10    171    243    297  92.4  38.6  34360  292.96 0854.54
2009/04/23 16:26:55.3     264     15    176    265    318  86.6  36.7  34344  292.70 0854.54
2009/04/23 16:26:55.4     209     49    146    215    259  76.8  37.6  34338  292.60 0854.55
2009/04/23 16:26:55.5     141     53    167    151    225  69.2  53.3  34326  292.40 0854.55
2009/04/23 16:26:55.6     168     -3    155    169    229  91.3  47.7  34336  292.56 0854.55
2009/04/23 16:26:55.7     180     -1    153    181    237  90.6  44.8  34314  292.20 0854.55
2009/04/23 16:26:55.8     167     25    130    169    213  81.4  41.6  34310  292.12 0854.55
2009/04/23 16:26:55.9     189     26     99    191    215  82.0  29.3  34316  292.23 0854.55
2009/04/23 16:26:56.0     223     17     45    224    229  85.6  11.4  34268  291.42 0854.55
2009/04/23 16:26:56.1     244      4     86    245    260  89.0  19.4  34282  291.63 0854.55
2009/04/23 16:26:56.2     254     55    101    261    279  77.7  22.1  34306  292.06 0854.55
2009/04/23 16:26:56.3     206     22    119    208    239  83.8  32.4  34302  291.98 0854.55
2009/04/23 16:26:56.4     192    -32    115    195    226  99.5  33.5  34298  291.93 0854.55
2009/04/23 16:26:56.5     112     -1     91    113    145  90.8  43.7  34314  292.20 0854.55
2009/04/23 16:26:56.6      99      7    123    100    158  85.6  56.9  34312  292.17 0854.55
2009/04/23 16:26:56.7     131    -37    120    137    182 105.9  45.8  34278  291.59 0854.55
2009/04/23 16:26:56.8     101    -84    131    132    185 130.0  50.5  34280  291.62 0854.55
2009/04/23 16:26:56.9      17     48    119     52    129  20.0  75.0  34304  292.01 0854.55
2009/04/23 16:26:57.0      -9     24     96     26     99 338.2  84.8  34320  292.30 0854.55
2009/04/23 16:26:57.1       2     37    114     38    120   4.5  81.0  34354  292.88 0854.55
2009/04/23 16:26:57.2       4    -22    132     23    133 168.4  90.0  34332  292.49 0854.55
2009/04/23 16:26:57.3      96    -61    141    114    181 122.4  56.9  34290  291.77 0854.55
2009/04/23 16:26:57.4     138     71     60    156    167  62.9  22.0  34292  291.81 0854.53
2009/04/23 16:26:57.5     130    157     79    205    219  39.6  22.3  34300  291.96 0854.53
2009/04/23 16:26:57.6      99    145    157    176    235  34.5  46.4  34344  292.71 0854.53
2009/04/23 16:26:57.7      29     46    116     55    128  32.6  73.1  34334  292.54 0854.53
2009/04/23 16:26:57.8      35     50     89     62    108  35.2  62.1  34324  292.35 0854.53
2009/04/23 16:26:57.9     -32   -121     81    126    149 195.1  35.6  34332  292.51 0854.53
2009/04/23 16:26:58.0     -54    -93    124    108    164 210.3  54.6  34338  292.61 0854.53
2009/04/23 16:26:58.1     -54    -57    102     79    129 223.2  58.5  34346  292.73 0854.53
2009/04/23 16:26:58.2      -6    -97    111     98    148 184.0  54.2  34356  292.90 0854.53
2009/04/23 16:26:58.3     -33    -80    114     87    143 202.3  59.0  34330  292.46 0854.53
2009/04/23 16:26:58.4      -2      0     78      3     78 288.4  90.0  34356  292.92 0854.53
2009/04/23 16:26:58.5     -14    -26     51     30     59 209.0  65.7  34352  292.85 0854.53
2009/04/23 16:26:58.6      64    -16     77     67    102 104.2  54.3  34346  292.75 0854.53
2009/04/23 16:26:58.7      42    -21     61     48     77 117.1  56.4  34368  293.12 0854.53
2009/04/23 16:26:58.8      17     63      5     66     67  15.1   4.9  34368  293.10 0854.53
2009/04/23 16:26:58.9     -23     72    -25     76     80 341.7 -23.3  34366  293.07 0854.53
2009/04/23 16:26:59.0      24     -4     46     25     52 101.5  69.8  34366  293.07 0854.53
2009/04/23 16:26:59.1      19     23     22     31     38  39.6  37.6  34366  293.09 0854.53
2009/04/23 16:26:59.2     -33      2     34     34     48 274.4  50.1  34364  293.05 0854.53
2009/04/23 16:26:59.3     -48    -50    108     70    128 224.2  64.6  34338  292.61 0854.53
2009/04/23 16:26:59.4     -68      9    115     69    134 278.0  65.7  34348  292.78 0854.53
2009/04/23 16:26:59.5     -52     40    143     66    157 307.8  73.8  34324  292.37 0854.53
2009/04/23 16:26:59.6     -51     61    119     80    143 320.4  63.2  34326  292.39 0854.53
2009/04/23 16:26:59.7      28     -2     83     29     87  94.4  80.7  34282  291.64 0854.53
2009/04/23 16:26:59.8       0   -116    103    117    155 180.0  46.2  34232  290.79 0854.53
2009/04/23 16:26:59.9       9   -102    126    103    162 174.7  56.6  34250  291.11 0854.53
2009/04/23 16:27:00.0       4    -72    100     73    123 176.4  60.5  34240  290.94 0854.53
2009/04/23 16:27:00.1      16    -78    105     80    132 168.4  58.5  34220  290.60 0854.53
2009/04/23 16:27:00.2      31    -54     78     63    100 150.1  56.9  34258  291.25 0854.53
2009/04/23 16:27:00.3     -62   -134    124    148    193 204.9  43.8  34218  290.57 0854.53
2009/04/23 16:27:00.4     -83   -112    161    140    213 216.5  54.3  34202  290.30 0854.53
2009/04/23 16:27:00.5    -136   -153    146    205    251 221.7  38.6  34196  290.19 0854.53
2009/04/23 16:27:00.6    -132   -157     71    206    219 220.1  19.2  34218  290.57 0854.53
2009/04/23 16:27:00.7    -143   -133    107    196    223 227.1  31.3  34210  290.41 0854.53
2009/04/23 16:27:00.8     -86   -183    115    203    233 205.3  32.1  34194  290.16 0854.53
2009/04/23 16:27:00.9    -115   -160    135    198    239 215.6  37.6  34194  290.14 0854.53
2009/04/23 16:27:01.0    -107   -180    160    210    264 210.7  41.4  34202  290.29 0854.53
2009/04/23 16:27:01.1     -90   -189    152    210    259 205.4  39.7  34208  290.39 0854.53
2009/04/23 16:27:01.2    -111   -187    174    218    278 210.7  42.7  34200  290.24 0854.53
2009/04/23 16:27:01.3    -153   -134    110    204    231 228.7  31.0  34272  291.49 0854.53
2009/04/23 16:27:01.4    -124   -167    119    209    240 216.5  32.3  34238  290.91 0854.51
2009/04/23 16:27:01.5    -129   -109    118    170    206 229.8  38.0  34202  290.30 0854.51
2009/04/23 16:27:01.6    -169    -72     64    184    195 246.7  19.2  34202  290.28 0854.51
2009/04/23 16:27:01.7     -77    -30     69     83    107 248.7  43.8  34226  290.69 0854.51
2009/04/23 16:27:01.8     -79    -35    -31     87     93 245.6 -19.7  34228  290.72 0854.51
2009/04/23 16:27:01.9      15   -105     49    107    117 171.9  26.2  34236  290.86 0854.51
2009/04/23 16:27:02.0     -41    -65     25     78     83 212.5  17.9  34242  290.96 0854.51
2009/04/23 16:27:02.1    -156    -54      1    166    167 250.9   0.5  34282  291.66 0854.51
2009/04/23 16:27:02.2    -279   -124     84    306    318 246.0  15.4  34300  291.96 0854.51
2009/04/23 16:27:02.3    -240    -82    123    254    282 250.9  27.8  34320  292.30 0854.51
2009/04/23 16:27:02.4    -192    -64    147    203    250 251.6  39.7  34324  292.35 0854.51
2009/04/23 16:27:02.5    -294     23    116    295    316 274.6  22.5  34318  292.24 0854.51
2009/04/23 16:27:02.6    -273     11     28    274    276 272.4   5.9  34328  292.43 0854.51
2009/04/23 16:27:02.7    -211    -33      6    214    215 261.0   1.8  34324  292.37 0854.51
2009/04/23 16:27:02.8    -128    -71     19    147    149 241.1   7.5  34314  292.20 0854.51
2009/04/23 16:27:02.9    -137    -14     66    138    152 263.8  27.2  34326  292.39 0854.51
2009/04/23 16:27:03.0    -103     65    126    122    175 302.4  50.9  34336  292.58 0854.51
2009/04/23 16:27:03.1    -112     61    128    128    181 298.9  50.1  34314  292.18 0854.51
2009/04/23 16:27:03.2    -143    152    192    209    283 316.7  47.5  34330  292.47 0854.51
2009/04/23 16:27:03.4     -94     95    140    134    193 315.5  51.2  34326  292.40 0854.51
2009/04/23 16:27:03.5     -50    238    234    244    338 348.0  48.8  34312  292.16 0854.48
2009/04/23 16:27:03.6      -9    232    125    233    264 357.8  30.3  34312  292.16 0854.48
2009/04/23 16:27:03.7     -10    213    160    214    267 357.1  40.6  34322  292.31 0854.48
2009/04/23 16:27:03.8       0    191    122    192    227 359.8  35.5  34332  292.51 0854.48
2009/04/23 16:27:03.9      74    162     98    179    204  24.7  31.3  34336  292.56 0854.48
2009/04/23 16:27:04.0     116    197     60    229    237  30.7  14.7  34334  292.53 0854.48
2009/04/23 16:27:04.1     128    142     84    192    209  42.1  25.2  34320  292.30 0854.48
2009/04/23 16:27:04.2     128    158     55    204    212  39.2  15.3  34274  291.52 0854.48
2009/04/23 16:27:04.3      96    113    -46    149    157  40.5 -17.3  34220  290.58 0854.48
2009/04/23 16:27:04.4     109    112    -28    157    160  44.1 -10.1  34282  291.66 0854.48
2009/04/23 16:27:04.5      54     31     -2     63     64  60.2  -2.2  34276  291.54 0854.48
2009/04/23 16:27:04.6      40     74     33     85     91  28.1  22.0  34288  291.74 0854.48
2009/04/23 16:27:04.7     147      2    111    148    185  89.1  40.4  34318  292.25 0854.48
2009/04/23 16:27:04.8     136      0    158    137    209  90.0  54.8  34332  292.49 0854.48
2009/04/23 16:27:04.9     180     43    107    186    214  76.3  32.7  34316  292.22 0854.48
2009/04/23 16:27:05.0     150     30     63    154    166  78.5  23.6  34304  292.01 0854.48
2009/04/23 16:27:05.1     122     17     94    124    155  82.1  41.2  34310  292.12 0854.48
2009/04/23 16:27:05.2     176     27     88    179    199  81.2  28.0  34268  291.42 0854.48
2009/04/23 16:27:05.3     163     55     76    173    188  71.4  25.1  34272  291.49 0854.48
2009/04/23 16:27:05.4     202     47    154    208    258  76.7  40.1  34360  292.96 0854.48
2009/04/23 16:27:05.5     240     52    160    246    293  77.7  36.0  34340  292.62 0854.48
2009/04/23 16:27:05.6     162     35    183    166    247  77.6  53.3  34332  292.49 0854.48
2009/04/23 16:27:05.7     133     44    211    141    253  71.8  63.2  34342  292.68 0854.48
2009/04/23 16:27:05.8     121     12    199    122    233  84.3  65.1  34352  292.85 0854.48
2009/04/23 16:27:05.9      54     18    164     58    173  71.4  80.2  34342  292.66 0854.48
2009/04/23 16:27:06.0     124      0    215    125    248  90.0  67.2  34312  292.15 0854.48
2009/04/23 16:27:06.1     128     -8    154    129    200  93.9  55.8  34300  291.95 0854.48
2009/04/23 16:27:06.2      68    -83     97    108    145 140.8  46.9  34326  292.40 0854.48
2009/04/23 16:27:06.3      59    -43     30     74     79 126.0  23.6  34346  292.73 0854.48
2009/04/23 16:27:06.4      13    -65     54     67     86 168.4  43.3  34338  292.59 0854.48
2009/04/23 16:27:06.5     -46    -86     45     98    107 208.1  26.6  34338  292.61 0854.48
2009/04/23 16:27:06.6      21    -64     43     68     80 161.7  35.5  34376  293.24 0854.48
2009/04/23 16:27:06.7      -2    -77     41     78     88 181.8  29.8  34356  292.90 0854.48
2009/04/23 16:27:06.8      10    -88     29     89     94 173.3  18.4  34342  292.68 0854.48
2009/04/23 16:27:06.9      36   -115     56    121    133 162.6  26.6  34348  292.76 0854.48
2009/04/23 16:27:07.0      74   -104    126    128    179 144.4  50.0  34360  292.97 0854.48
2009/04/23 16:27:07.1      74   -117     91    139    166 147.4  36.3  34342  292.66 0854.48
2009/04/23 16:27:07.2     107   -129     75    168    183 140.4  25.7  34326  292.39 0854.48
2009/04/23 16:27:07.3     128   -116     65    173    184 132.2  21.3  34322  292.32 0854.48
2009/04/23 16:27:07.4     143   -134     67    197    209 133.1  18.9  34310  292.13 0854.48
2009/04/23 16:27:07.5     167    -77     69    185    197 114.8  21.3  34296  291.88 0854.49
2009/04/23 16:27:07.6     139    -13     93    140    168  95.7  36.5  34304  292.03 0854.49
2009/04/23 16:27:07.7      96    -96    102    136    170 135.0  40.9  34340  292.64 0854.49
2009/04/23 16:27:07.8      59   -178     24    188    190 161.7   7.5  34334  292.52 0854.49
2009/04/23 16:27:07.9     103     -1     75    104    128  90.9  39.5  34356  292.90 0854.49
2009/04/23 16:27:08.0     230    -32    197    233    305  98.1  44.3  34334  292.52 0854.49
2009/04/23 16:27:08.1     137   -139    193    196    275 135.5  49.9  34342  292.65 0854.49
2009/04/23 16:27:08.2     143   -137    162    199    256 133.8  43.7  34316  292.23 0854.49
2009/04/23 16:27:08.3      10    -93    172     94    196 173.3  69.1  34324  292.37 0854.49
2009/04/23 16:27:08.4      19      0    123     20    124  90.0  90.0  34310  292.13 0854.49
2009/04/23 16:27:08.5     124    -50    169    134    215 112.2  57.7  34276  291.54 0854.49
2009/04/23 16:27:08.6     163    -31    178    167    244 101.0  52.0  34292  291.83 0854.49
2009/04/23 16:27:08.7     163    -23    164    165    232  98.1  50.0  34306  292.05 0854.49
2009/04/23 16:27:08.8     168    -27    148    171    226  99.2  45.4  34262  291.32 0854.49
2009/04/23 16:27:08.9     162     35    164    166    233  77.6  50.0  34236  290.86 0854.49
2009/04/23 16:27:09.0     180     90    131    202    240  63.4  36.0  34206  290.35 0854.49
2009/04/23 16:27:09.1     189     93    178    211    276  63.8  44.5  34198  290.20 0854.49
2009/04/23 16:27:09.2     113     93    143    147    205  50.5  49.8  34204  290.31 0854.49
2009/04/23 16:27:09.3      86     53    150    102    181  58.5  62.6  34194  290.16 0854.49
2009/04/23 16:27:09.4     116     17    143    118    185  81.6  56.4  34194  290.14 0854.49
2009/04/23 16:27:09.5      83      5    177     84    195  86.5  72.9  34214  290.48 0854.47
2009/04/23 16:27:09.6     133     11    128    134    185  85.2  48.7  34260  291.28 0854.47
2009/04/23 16:27:09.7     149     38    132    154    202  75.4  45.4  34220  290.60 0854.47
2009/04/23 16:27:09.8     126     45    139    135    193  70.1  50.7  34212  290.47 0854.47
2009/04/23 16:27:09.9     105     41    149    113    187  68.7  59.0  34216  290.53 0854.47
2009/04/23 16:27:10.0     131     57     69    143    158  66.5  27.8  34238  290.89 0854.47
2009/04/23 16:27:10.1     125     67     65    143    157  61.6  26.2  34232  290.81 0854.47
2009/04/23 16:27:10.2      96     63     57    115    128  56.7  28.2  34198  290.21 0854.47
2009/04/23 16:27:10.3      96     74    108    122    162  52.2  46.4  34200  290.25 0854.47
2009/04/23 16:27:10.4      83     27    129     88    156  71.8  62.7  34216  290.53 0854.47
2009/04/23 16:27:10.5      -4    -14     69     15     70 198.5  89.0  34230  290.77 0854.47
2009/04/23 16:27:10.6      13    -13     91     19     92 136.6  89.0  34240  290.92 0854.47
2009/04/23 16:27:10.7      35      2     97     36    103  85.6  79.2  34246  291.03 0854.47
2009/04/23 16:27:10.8      47     15     87     50    100  71.8  67.7  34244  290.99 0854.47
2009/04/23 16:27:10.9      63     32     89     71    113  62.9  56.9  34258  291.23 0854.47
2009/04/23 16:27:11.0      11     34     55     36     65  18.7  64.6  34278  291.59 0854.47
2009/04/23 16:27:11.1      -7    -21     66     23     69 200.0  81.2  34294  291.86 0854.47
2009/04/23 16:27:11.2      16     40     83     44     93  21.8  69.8  34302  291.98 0854.47
2009/04/23 16:27:11.3      54     35    112     65    129  56.7  67.2  34310  292.12 0854.47
2009/04/23 16:27:11.4      96     21    131     99    164  77.6  59.2  34294  291.84 0854.47
2009/04/23 16:27:11.5      83     50    150     98    179  58.9  63.9  34288  291.76 0854.45
2009/04/23 16:27:11.6      85     44    132     96    163  62.5  60.5  34298  291.91 0854.45
2009/04/23 16:27:11.7      48     21    107     53    119  66.5  71.4  34308  292.10 0854.45
2009/04/23 16:27:11.8     107     53    131    120    177  63.4  52.7  34310  292.13 0854.45
2009/04/23 16:27:11.9      99     33    115    105    155  71.6  52.2  34314  292.18 0854.45
2009/04/23 16:27:12.0      94    -34    151    100    181 110.0  63.6  34300  291.96 0854.45
2009/04/23 16:27:12.1      88    -41    142     98    172 115.2  62.4  34282  291.64 0854.45
2009/04/23 16:27:12.2      33    -15    131     37    136 115.2  83.9  34282  291.66 0854.45
2009/04/23 16:27:12.3      95    -52    127    109    167 118.9  55.0  34276  291.54 0854.45
2009/04/23 16:27:12.4      35    -29    147     46    154 130.4  81.8  34274  291.50 0854.45
2009/04/23 16:27:12.5     -15    -45    114     48    123 199.2  76.1  34292  291.81 0854.45
2009/04/23 16:27:12.6       6      5     82      8     82  50.5  90.0  34288  291.76 0854.45
2009/04/23 16:27:12.7      48      0     86     49     98  90.8  68.3  34286  291.71 0854.45
2009/04/23 16:27:12.8      96    -61    131    114    173 122.4  54.6  34264  291.35 0854.45
2009/04/23 16:27:12.9      56    -39    113     69    132 125.1  65.7  34266  291.38 0854.45
2009/04/23 16:27:13.0      96    -39    112    104    152 112.6  52.2  34264  291.35 0854.45
2009/04/23 16:27:13.1     102     -4    117    103    155  92.6  54.0  34274  291.52 0854.45
2009/04/23 16:27:13.2      66      8    117     67    134  83.0  67.2  34284  291.69 0854.45
2009/04/23 16:27:13.3     -17      1    106     18    107 274.4  90.0  34298  291.91 0854.45
2009/04/23 16:27:13.4      39     17     87     43     97  66.5  72.4  34298  291.91 0854.45
2009/04/23 16:27:13.5      40    -70     96     81    125 150.1  55.8  34304  292.03 0854.42
2009/04/23 16:27:13.6     101      4     75    102    126  87.4  39.7  34316  292.22 0854.42
2009/04/23 16:27:13.7      79     20     73     82    109  75.8  46.4  34334  292.52 0854.42
2009/04/23 16:27:13.8      83     17     66     85    107  78.1  42.2  34348  292.76 0854.42
2009/04/23 16:27:13.9      70     72     89    101    134  44.1  45.8  34398  293.62 0854.42
2009/04/23 16:27:14.0      90     11    109     91    141  82.5  56.3  34376  293.26 0854.42
2009/04/23 16:27:14.1      92     33     89     98    132  70.0  47.5  34364  293.05 0854.42
2009/04/23 16:27:14.2      16     52     97     55    111  17.8  68.3  34370  293.14 0854.42
2009/04/23 16:27:14.3     -18     55     57     59     82 341.3  49.4  34374  293.22 0854.42
2009/04/23 16:27:14.4      48     36     54     60     80  53.1  46.9  34386  293.43 0854.42
2009/04/23 16:27:14.5      60     24     79     65    102  68.3  56.3  34400  293.67 0854.41
2009/04/23 16:27:14.6     107     55     83    121    146  62.9  38.0  34414  293.89 0854.41
2009/04/23 16:27:14.7     166     54     61    175    186  71.8  19.2  34370  293.15 0854.41
2009/04/23 16:27:14.8     140     66     83    156    176  64.6  30.3  34358  292.95 0854.41
2009/04/23 16:27:14.9     126     41    104    133    168  71.8  42.2  34332  292.49 0854.41
2009/04/23 16:27:15.0     166     -1     99    167    194  90.6  33.7  34284  291.67 0854.41
2009/04/23 16:27:15.1     157     82    103    178    205  62.5  32.9  34276  291.55 0854.41
2009/04/23 16:27:15.2     148     68     93    164    188  65.2  31.9  34282  291.66 0854.41
2009/04/23 16:27:15.3     107    100     68    147    161  46.8  26.4  34276  291.54 0854.41
2009/04/23 16:27:15.4     120    104     56    160    170  49.1  19.4  34282  291.64 0854.41
2009/04/23 16:27:15.5     174    125     82    215    230  54.3  21.7  34310  292.12 0854.41
2009/04/23 16:27:15.6     145     79    111    166    199  61.4  37.0  34328  292.44 0854.41
2009/04/23 16:27:15.7     152    127    101    199    223  50.2  29.2  34302  291.98 0854.41
2009/04/23 16:27:15.8     167    124     55    209    217  53.4  14.7  34286  291.72 0854.41
2009/04/23 16:27:15.9      26    241     -9    243    244   6.2  -2.2  34290  291.77 0854.41
2009/04/23 16:27:16.0      81    273     50    285    290  16.7  10.1  34258  291.22 0854.41
2009/04/23 16:27:16.1     177    229     14    290    291  37.6   2.9  34260  291.26 0854.41
2009/04/23 16:27:16.2      44    256     89    260    275   9.8  18.9  34288  291.75 0854.41
2009/04/23 16:27:16.3      68    225     74    236    248  16.9  17.4  34296  291.89 0854.41
2009/04/23 16:27:16.4      50    189    141    196    241  15.1  39.1  34298  291.93 0854.41
2009/04/23 16:27:16.5     251    213     75    330    339  49.6  12.9  34238  290.91 0854.41
2009/04/23 16:27:16.6     197    198     91    280    295  44.8  18.1  34254  291.17 0854.41
2009/04/23 16:27:16.7     180    247    106    307    325  36.1  19.1  34188  290.05 0854.41
2009/04/23 16:27:16.8     160    289    113    331    350  29.0  18.9  34178  289.87 0854.41
2009/04/23 16:27:16.9     162    213    123    268    294  37.2  26.4  34226  290.68 0854.41
2009/04/23 16:27:17.0     208    271    142    342    370  37.5  23.7  34256  291.20 0854.41
2009/04/23 16:27:17.1     112    265    116    288    310  22.9  23.1  34252  291.14 0854.41
2009/04/23 16:27:17.2     149    313     76    347    356  25.5  12.4  34254  291.18 0854.41
2009/04/23 16:27:17.3     125    373    -26    394    395  18.6  -3.8  34230  290.77 0854.41
2009/04/23 16:27:17.4     233    233      9    330    331  45.0   1.7  34310  292.12 0854.41
2009/04/23 16:27:17.5     156    130    189    204    278  50.2  47.9  34312  292.16 0854.41
2009/04/23 16:27:17.6     184    226    109    292    311  39.2  21.0  34312  292.14 0854.41
2009/04/23 16:27:17.7     239    277     82    367    377  40.8  12.6  34252  291.15 0854.41
2009/04/23 16:27:17.8     296    355    103    463    475  39.8  12.6  34306  292.04 0854.41
2009/04/23 16:27:17.9      80    343    180    353    396  13.2  29.2  34286  291.71 0854.41
2009/04/23 16:27:18.0      68    276    185    285    339  14.0  35.9  34276  291.55 0854.41
2009/04/23 16:27:18.1     124    216    162    250    297  29.9  35.7  34278  291.58 0854.41
2009/04/23 16:27:18.2     171    121    175    210    273  54.5  43.8  34264  291.33 0854.41
2009/04/23 16:27:18.3     262    131     80    294    305  63.4  15.3  34216  290.51 0854.41
2009/04/23 16:27:18.4     315    173    214    360    418  61.2  33.6  34300  291.95 0854.41
2009/04/23 16:27:18.5     190    104     58    217    225  61.1  15.2  34228  290.72 0854.43
2009/04/23 16:27:18.6     185     80     13    202    203  66.5   3.8  34226  290.69 0854.43
2009/04/23 16:27:18.7     303    240     78    387    395  51.6  11.5  34242  290.96 0854.43
2009/04/23 16:27:18.8     323    145    215    355    415  65.8  34.1  34288  291.73 0854.43
2009/04/23 16:27:18.9     276    268    263    385    466  45.8  37.6  34406  293.75 0854.43
2009/04/23 16:27:19.0     287    201    169    351    389  55.0  27.7  34326  292.39 0854.43
2009/04/23 16:27:19.1     319    227    178    392    430  54.6  26.2  34322  292.33 0854.43
2009/04/23 16:27:19.2     222    327    125    396    416  34.2  17.5  34174  289.82 0854.43
2009/04/23 16:27:19.3     159    313     69    352    359  27.0  11.1  34146  289.32 0854.43
2009/04/23 16:27:19.4     211    277     27    349    351  37.3   4.5  34146  289.33 0854.43
2009/04/23 16:27:19.5     196    222     -6    297    298  41.4  -1.3  34148  289.37 0854.43
2009/04/23 16:27:19.6     176    170    -18    246    247  46.0  -4.4  34154  289.47 0854.43
2009/04/23 16:27:19.7     140    140    -62    198    208  45.0 -17.6  34152  289.45 0854.43
2009/04/23 16:27:19.8     143    224    -85    266    279  32.6 -22.8  34144  289.31 0854.43
2009/04/23 16:27:19.9     166    229     34    284    287  36.0   6.9  34244  291.00 0854.43
2009/04/23 16:27:20.0     232    103    231    254    343  66.0  47.0  34336  292.55 0854.43
2009/04/23 16:27:20.1     276    193    209    337    396  55.0  34.8  34318  292.24 0854.43
2009/04/23 16:27:20.2     209    271    147    343    373  37.7  24.8  34290  291.79 0854.43
2009/04/23 16:27:20.3     250    170    120    303    325  55.8  22.8  34290  291.78 0854.43
2009/04/23 16:27:20.4     233    177    119    293    316  52.7  23.5  34254  291.16 0854.46
2009/04/23 16:27:20.5     321    251    111    408    424  52.0  15.3  34252  291.12 0854.46
2009/04/23 16:27:20.6     364    280    141    460    482  52.5  17.1  34266  291.36 0854.46
2009/04/23 16:27:20.7     335    222    197    403    448  56.4  28.0  34218  290.56 0854.46
2009/04/23 16:27:20.8     341    177    120    385    404  62.6  17.3  34220  290.59 0854.46
2009/04/23 16:27:20.9     411    162     87    443    452  68.4  11.1  34202  290.29 0854.46
2009/04/23 16:27:21.0     261    290    136    391    415  42.0  19.2  34344  292.71 0854.46
2009/04/23 16:27:21.1     269    215    184    345    391  51.4  30.3  34366  293.07 0854.46
2009/04/23 16:27:21.2     265    225     61    348    354  49.7  10.0  34348  292.78 0854.46
2009/04/23 16:27:21.3     119    154     23    195    197  37.6   6.9  34332  292.51 0854.46
2009/04/23 16:27:21.4      62    186     56    197    206  18.5  16.0  34316  292.22 0854.46
2009/04/23 16:27:21.5     -35    227     54    230    237 351.1  13.2  34332  292.48 0854.46
2009/04/23 16:27:21.6     -16    224     82    225    239 355.8  20.9  34340  292.62 0854.46
2009/04/23 16:27:21.7      20    184     95    186    208   6.2  29.2  34336  292.56 0854.46
2009/04/23 16:27:21.8     133    188     85    231    246  35.2  21.0  34316  292.21 0854.46
2009/04/23 16:27:21.9     117    237     92    265    281  26.3  19.2  34306  292.06 0854.46
2009/04/23 16:27:22.0     196    155     15    251    252  51.6   3.6  34282  291.65 0854.46
2009/04/23 16:27:22.1     242    151     44    286    290  58.0   8.8  34180  289.92 0854.46
2009/04/23 16:27:22.2     289    165      0    334    335  60.2   0.0  34302  291.98 0854.46
2009/04/23 16:27:22.3     105    263    115    284    306  21.9  23.1  34334  292.53 0854.46
2009/04/23 16:27:22.4     131    138     94    191    212  43.4  28.0  34348  292.78 0854.45
2009/04/23 16:27:22.5     158     95    148    185    236  58.9  42.8  34362  293.02 0854.45
2009/04/23 16:27:22.6     173    118    194    210    285  55.8  47.7  34382  293.34 0854.45
2009/04/23 16:27:22.7     153     95    218    181    283  58.0  56.3  34358  292.93 0854.45
2009/04/23 16:27:22.8     381    189    141    426    449  63.6  18.4  34342  292.66 0854.45
2009/04/23 16:27:22.9     231    125    155    263    305  61.6  33.4  34356  292.89 0854.45
2009/04/23 16:27:23.0     297    131    223    325    394  66.1  37.8  34342  292.68 0854.45
2009/04/23 16:27:23.1     390    179     42    430    433  65.4   5.7  34218  290.55 0854.45
2009/04/23 16:27:23.2     409    200     88    456    465  63.9  11.0  34184  289.99 0854.45
2009/04/23 16:27:23.3     344    241     12    421    422  55.0   1.7  34130  289.05 0854.45
2009/04/23 16:27:23.4     246    219     43    330    333  48.4   7.5  34174  289.82 0854.45
2009/04/23 16:27:23.5     169    249     19    301    302  34.2   3.8  34196  290.19 0854.45
2009/04/23 16:27:23.6     156    211     51    263    269  36.5  11.1  34206  290.34 0854.45
2009/04/23 16:27:23.7     281    174     23    331    332  58.2   4.0  34198  290.21 0854.45
2009/04/23 16:27:23.8     261    197     77    328    337  53.0  13.3  34208  290.37 0854.45
2009/04/23 16:27:23.9     290    196    -17    351    352  55.9  -2.8  34142  289.28 0854.45
2009/04/23 16:27:24.0     297    177    -33    346    348  59.2  -5.6  34196  290.18 0854.45
2009/04/23 16:27:24.1     204    174     42    269    273  49.6   9.0  34188  290.05 0854.45
2009/04/23 16:27:24.2     170    196    121    260    286  41.0  27.0  34186  290.02 0854.45
2009/04/23 16:27:24.3      15    203     49    204    210   4.5  13.7  34180  289.91 0854.45
2009/04/23 16:27:24.4     -69    127     22    145    147 331.5   9.0  34174  289.82 0854.44
2009/04/23 16:27:24.5     -42    137    108    144    180 343.0  40.7  34168  289.70 0854.44
2009/04/23 16:27:24.6     -29    178     70    181    194 350.7  22.0  34236  290.87 0854.44
2009/04/23 16:27:24.7     -20    167    117    169    205 353.1  37.8  34278  291.59 0854.44
2009/04/23 16:27:24.8      -5     75    127     76    148 355.5  66.7  34250  291.09 0854.44
2009/04/23 16:27:24.9      11     -7     88     14     89 122.4  90.0  34256  291.20 0854.44
2009/04/23 16:27:25.0      85     28    103     90    136  71.4  54.3  34260  291.28 0854.44
2009/04/23 16:27:25.1     279    131    190    309    362  64.8  34.6  34310  292.12 0854.44
2009/04/23 16:27:25.2     128    209    268    246    363  31.4  52.7  34282  291.64 0854.44
2009/04/23 16:27:25.3     302    388    375    492    618  37.9  41.2  34242  290.95 0854.44
2009/04/23 16:27:25.4     145    350    320    380    496  22.6  44.3  34212  290.44 0854.44
2009/04/23 16:27:25.5     355    295    240    462    520  50.3  29.5  34246  291.03 0854.44
2009/04/23 16:27:25.6     402    340    229    527    574  49.8  25.1  34252  291.13 0854.44
2009/04/23 16:27:25.7     391    334    110    515    527  49.5  12.2  34238  290.91 0854.44
2009/04/23 16:27:25.8     358    251     38    438    440  54.9   5.1  34238  290.89 0854.44
2009/04/23 16:27:26.0     410    280    234    497    549  55.6  27.1  34236  290.86 0854.44
2009/04/23 16:27:26.0     349    239     86    424    433  55.6  11.6  34258  291.23 0854.44
2009/04/23 16:27:26.1      78    381     75    390    398  11.7  11.0  34202  290.28 0854.44
2009/04/23 16:27:26.2     139    493     89    513    521  15.8   9.9  34200  290.25 0854.44
2009/04/23 16:27:26.3     177    453     30    487    488  21.4   3.6  34236  290.86 0854.44
2009/04/23 16:27:26.4     301    497     33    582    583  31.2   3.3  34200  290.24 0854.46
2009/04/23 16:27:26.5     340    482     71    591    596  35.2   6.9  34222  290.61 0854.46
2009/04/23 16:27:26.6     142    524     61    544    548  15.2   6.5  34228  290.72 0854.46
2009/04/23 16:27:26.7     137    450     78    471    478  16.9   9.5  34186  290.00 0854.46
2009/04/23 16:27:26.8     195    395    195    441    482  26.3  25.6  34242  290.96 0854.46
2009/04/23 16:27:26.9     373    326    154    496    520  48.9  17.3  34232  290.79 0854.46
2009/04/23 16:27:27.0     336    346     32    483    485  44.1   3.8  34206  290.34 0854.46
2009/04/23 16:27:27.1     353    581     34    680    681  31.3   2.9  34166  289.68 0854.46
2009/04/23 16:27:27.2     312    444     31    543    544  35.1   3.3  34160  289.58 0854.46
2009/04/23 16:27:27.3     357    289     89    460    469  51.0  11.0  34242  290.98 0854.46
2009/04/23 16:27:27.4     259    327     92    418    429  38.4  12.5  34224  290.65 0854.46
2009/04/23 16:27:27.5     215    597    144    635    652  19.8  12.8  34182  289.96 0854.46
2009/04/23 16:27:27.6     364    572    306    679    744  32.5  25.9  34260  291.27 0854.46
2009/04/23 16:27:27.7     507    383    228    636    675  52.9  20.7  34250  291.09 0854.46
2009/04/23 16:27:27.8     432    498    166    660    681  40.9  14.2  34248  291.07 0854.46
2009/04/23 16:27:28.0     407    433    -86    595    602  43.2  -8.2  34220  290.58 0854.46
2009/04/23 16:27:28.0     529    475    -63    711    714  48.1  -5.1  34230  290.76 0854.46
2009/04/23 16:27:28.1     490    391     55    628    631  51.4   5.1  34258  291.25 0854.46
2009/04/23 16:27:28.2     393    445    -43    594    596  41.4  -4.2  34250  291.09 0854.46
2009/04/23 16:27:28.3     414    361    -39    550    552  48.9  -4.1  34192  290.11 0854.46
2009/04/23 16:27:28.4     265    491    268    559    619  28.4  27.3  34128  289.03 0854.44
2009/04/23 16:27:28.5      10    762    -18    763    764   0.8  -1.4  34108  288.68 0854.44
2009/04/23 16:27:28.6     245    612     34    660    661  21.9   3.0  34110  288.73 0854.44
2009/04/23 16:27:28.7     185    679     90    704    710  15.3   7.3  34108  288.69 0854.44
2009/04/23 16:27:28.8     233    634     38    676    678  20.2   3.2  34106  288.65 0854.44
2009/04/23 16:27:28.9     291    686     74    746    750  23.0   5.7  34102  288.60 0854.44
2009/04/23 16:27:29.0     239    647    108    690    699  20.3   8.9  34110  288.72 0854.44
2009/04/23 16:27:29.2     213    668    136    702    716  17.7  11.0  34108  288.69 0854.44
2009/04/23 16:27:29.2     223    664     27    701    702  18.6   2.2  34172  289.79 0854.44
2009/04/23 16:27:29.3     259    605   -113    659    669  23.2  -9.8  34214  290.49 0854.44
2009/04/23 16:27:29.4     277    692    160    746    764  21.9  12.1  34234  290.84 0854.44
2009/04/23 16:27:29.5     360    416     17    551    552  40.9   1.8  34300  291.94 0854.44
2009/04/23 16:27:29.6     445    396    132    596    611  48.3  12.5  34304  292.02 0854.44
2009/04/23 16:27:29.7     445    451    185    634    661  44.6  16.3  34304  292.03 0854.44
2009/04/23 16:27:29.8     274    530    -91    597    604  27.4  -8.7  34308  292.07 0854.44
2009/04/23 16:27:29.9     417    569    -56    706    709  36.3  -4.6  34296  291.88 0854.44
2009/04/23 16:27:30.0     338    571     33    664    665  30.6   2.9  34256  291.21 0854.44
2009/04/23 16:27:30.1     228    685    102    722    730  18.4   8.1  34110  288.73 0854.44
2009/04/23 16:27:30.2     275    675    120    730    740  22.2   9.3  34228  290.72 0854.44
2009/04/23 16:27:30.4     539    329      2    632    633  58.6   0.2  34232  290.79 0854.44
2009/04/23 16:27:30.4     328    453    146    560    579  36.0  14.7  34252  291.15 0854.45
2009/04/23 16:27:30.5     539    337    136    636    651  58.0  12.1  34264  291.33 0854.45
2009/04/23 16:27:30.6     434    327    226    544    589  53.0  24.1  34270  291.43 0854.45
2009/04/23 16:27:30.7     494    336    199    598    631  55.8  18.5  34264  291.33 0854.45
2009/04/23 16:27:30.8     293    467    156    552    574  32.1  15.8  34220  290.60 0854.45
2009/04/23 16:27:30.9     252    522    131    580    595  25.8  12.8  34216  290.51 0854.45
2009/04/23 16:27:31.0     202    505    177    545    574  21.8  18.0  34096  288.48 0854.45
2009/04/23 16:27:31.2     124    502    166    518    545  13.9  17.8  34104  288.63 0854.45
2009/04/23 16:27:31.3      43    417    202    420    466   6.0  27.3  34278  291.58 0854.45
2009/04/23 16:27:31.4     330    192    247    383    455  59.8  35.7  34178  289.87 0854.45
2009/04/23 16:27:31.5     134    433     66    454    459  17.2   8.3  34238  290.89 0854.45
2009/04/23 16:27:31.6     137    198    275    242    366  34.7  54.3  34198  290.21 0854.45
2009/04/23 16:27:31.7     192    274    292    335    444  35.1  45.6  34174  289.80 0854.45
2009/04/23 16:27:31.8      49    286    164    291    334   9.8  31.7  34172  289.78 0854.45
2009/04/23 16:27:31.9     189    147    171    240    294  52.0  39.3  34286  291.72 0854.45
2009/04/23 16:27:32.0     257    157    243    302    387  58.5  43.1  34302  291.97 0854.45
2009/04/23 16:27:32.1     265    417    279    495    568  32.5  31.9  34298  291.91 0854.45
2009/04/23 16:27:32.2     276    282    300    395    496  44.4  41.1  34210  290.42 0854.45
2009/04/23 16:27:32.3     272    223    312    352    470  50.7  46.2  34222  290.63 0854.45
2009/04/23 16:27:32.4     405    146    232    431    489  70.1  30.7  34270  291.44 0854.45
2009/04/23 16:27:32.5     262    124    106    291    309  64.6  20.9  34340  292.62 0854.42
2009/04/23 16:27:32.6     301    242     80    387    396  51.2  11.8  34356  292.90 0854.42
2009/04/23 16:27:32.7     337    348    176    485    515  44.0  20.9  34316  292.22 0854.42
2009/04/23 16:27:32.8     433    412    140    598    615  46.4  13.2  34310  292.12 0854.42
2009/04/23 16:27:32.9     392    439    126    589    603  41.8  12.1  34136  289.17 0854.42
2009/04/23 16:27:33.0     375    389    130    541    557  43.9  13.5  34122  288.94 0854.42
2009/04/23 16:27:33.1     406    432    178    594    621  43.2  16.7  34130  289.07 0854.42
2009/04/23 16:27:33.2     476    505      2    695    696  43.3   0.2  34106  288.66 0854.42
2009/04/23 16:27:33.3     464    347    147    580    599  53.2  14.3  34104  288.63 0854.42
2009/04/23 16:27:33.4     467    385    202    606    640  50.5  18.5  34098  288.52 0854.42
2009/04/23 16:27:33.5     484    510    125    704    716  43.5  10.1  34116  288.84 0854.42
2009/04/23 16:27:33.6     421    514     49    665    667  39.3   4.2  34126  289.00 0854.42
2009/04/23 16:27:33.7     388    656     29    763    764  30.6   2.2  34094  288.46 0854.42
2009/04/23 16:27:33.8     424    595     -2    731    732  35.5  -0.2  34188  290.03 0854.42
2009/04/23 16:27:33.9     333    476     17    581    582  35.0   1.7  34140  289.24 0854.42
2009/04/23 16:27:34.0     215    385    -58    442    446  29.2  -7.6  34102  288.58 0854.42
2009/04/23 16:27:34.1     259    433   -101    505    516  30.9 -11.3  34116  288.81 0854.42
2009/04/23 16:27:34.2     224    575    -60    618    622  21.3  -5.6  34166  289.67 0854.42
2009/04/23 16:27:34.3     379    396     23    549    550  43.7   2.5  34304  292.03 0854.42
2009/04/23 16:27:34.4     292    333     69    444    450  41.3   8.9  34272  291.48 0854.42
2009/04/23 16:27:34.5     259    207    139    332    359  51.4  24.1  34314  292.19 0854.39
2009/04/23 16:27:34.6     277    295    151    406    433  43.2  21.3  34270  291.45 0854.39
2009/04/23 16:27:34.7     260    143    180    297    347  61.1  34.2  34256  291.20 0854.39
2009/04/23 16:27:34.8     529     99    234    539    587  79.4  25.1  34254  291.17 0854.39
2009/04/23 16:27:34.9     510    195    268    547    609  69.1  28.1  34258  291.24 0854.39
2009/04/23 16:27:35.0     471    414    178    628    653  48.7  15.9  34136  289.16 0854.39
2009/04/23 16:27:35.1     364    478    180    601    628  37.3  16.7  34124  288.96 0854.39
2009/04/23 16:27:35.2     272    382    151    470    494  35.5  17.8  34126  289.01 0854.39
2009/04/23 16:27:35.3     133    400    132    422    443  18.4  17.4  34130  289.07 0854.39
2009/04/23 16:27:35.4     111    397    143    413    438  15.7  19.1  34170  289.75 0854.39
2009/04/23 16:27:35.5      68    358     97    365    378  10.8  14.9  34212  290.47 0854.35
2009/04/23 16:27:35.6      83    378     70    388    395  12.4  10.3  34288  291.74 0854.35
2009/04/23 16:27:35.7     135    283    -51    314    319  25.6  -9.3  34216  290.53 0854.35
2009/04/23 16:27:35.8     161    301    -48    342    346  28.1  -8.0  34234  290.84 0854.35
2009/04/23 16:27:35.9     167    366     26    403    404  24.6   3.7  34284  291.69 0854.35
2009/04/23 16:27:36.0     375    313     13    489    490  50.1   1.6  34208  290.40 0854.35
2009/04/23 16:27:36.1     284    326    -23    433    434  41.1  -3.1  34164  289.65 0854.35
2009/04/23 16:27:36.2     213    273      7    347    348  38.0   1.2  34204  290.33 0854.35
2009/04/23 16:27:36.3     286    295     82    412    421  44.1  11.3  34282  291.65 0854.35
2009/04/23 16:27:36.4     333    326    105    467    479  45.6  12.8  34258  291.25 0854.35
2009/04/23 16:27:36.5     207    219    132    302    329  43.3  25.2  34268  291.41 0854.35
2009/04/23 16:27:36.6     205    232    191    310    364  41.4  34.6  34300  291.95 0854.35
2009/04/23 16:27:36.7     154    256    211    299    365  31.0  38.7  34300  291.95 0854.35
2009/04/23 16:27:36.8     201    163    204    260    330  50.9  42.1  34260  291.26 0854.35
2009/04/23 16:27:36.9     138    233    210    271    342  30.7  41.9  34290  291.78 0854.35
2009/04/23 16:27:37.0     106    312    189    330    380  18.9  32.4  34328  292.42 0854.35
2009/04/23 16:27:37.1     148    273    246    311    396  28.5  42.3  34354  292.87 0854.35
2009/04/23 16:27:37.2     225    204    158    305    343  47.8  29.4  34298  291.93 0854.35
2009/04/23 16:27:37.3     288    251    139    383    407  48.9  20.8  34202  290.30 0854.35
2009/04/23 16:27:37.4     163    384    190    418    459  23.0  26.2  34176  289.83 0854.35
2009/04/23 16:27:37.5     205    336     22    394    395  31.4   3.2  34138  289.20 0854.40
2009/04/23 16:27:37.6     227    348    -27    416    417  33.2  -3.8  34120  288.90 0854.40
2009/04/23 16:27:37.7     252    212     41    330    333  49.9   7.2  34188  290.04 0854.40
2009/04/23 16:27:37.8     330    149     53    363    367  65.7   8.3  34268  291.42 0854.40
2009/04/23 16:27:37.9     304    245    137    391    415  51.1  19.3  34304  292.01 0854.40
2009/04/23 16:27:38.0     417    247    214    485    530  59.4  25.2  34288  291.75 0854.40
2009/04/23 16:27:38.1     388    287    260    483    548  53.5  30.6  34252  291.13 0854.40
2009/04/23 16:27:38.2     324    313    123    451    468  46.0  15.3  34192  290.12 0854.40
2009/04/23 16:27:38.3     389    397      9    557    558  44.4   1.0  34238  290.91 0854.40
2009/04/23 16:27:38.4     466    344    241    580    628  53.6  23.9  34290  291.78 0854.40
2009/04/23 16:27:38.5     196    513    218    550    591  21.0  23.0  34196  290.17 0854.40
2009/04/23 16:27:38.6     453    513     38    685    687  41.4   3.2  34172  289.77 0854.40
2009/04/23 16:27:38.7     544    812    121    978    986  33.8   7.1  34152  289.45 0854.40
2009/04/23 16:27:38.8     431    717    -86    837    842  31.0  -5.9  34170  289.73 0854.40
2009/04/23 16:27:38.9     236    444   -103    503    514  28.0 -11.6  34232  290.78 0854.40
2009/04/23 16:27:39.0     336    393    142    518    538  40.5  15.4  34234  290.84 0854.40
2009/04/23 16:27:39.1     404    819    167    914    930  26.3  10.4  34114  288.80 0854.40
2009/04/23 16:27:39.2     355    779    211    856    882  24.5  13.9  34256  291.20 0854.40
2009/04/23 16:27:39.3     556    394    186    682    708  54.6  15.3  34234  290.84 0854.40
2009/04/23 16:27:39.4     493    645    112    813    821  37.4   7.9  34230  290.76 0854.40
2009/04/23 16:27:39.5     574    388    123    694    705  55.9  10.1  34312  292.15 0854.38
2009/04/23 16:27:39.6     618    497    143    794    807  51.2  10.2  34248  291.05 0854.38
2009/04/23 16:27:39.7     494    758    -69    905    908  33.1  -4.4  34144  289.29 0854.38
2009/04/23 16:27:39.8     244    609   -203    657    688  21.8 -17.2  34164  289.63 0854.38
2009/04/23 16:27:39.9     586    492    -25    766    767  50.0  -1.9  34224  290.65 0854.38
2009/04/23 16:27:40.0     598    378     60    708    711  57.7   4.9  34206  290.34 0854.38
2009/04/23 16:27:40.1     234    348   -134    420    440  33.9 -22.9  34180  289.92 0854.38
2009/04/23 16:27:40.2      89    -52   -136    104    171 120.2 -63.1  34172  289.79 0854.38
2009/04/23 16:27:40.3    -125   -210    -13    245    246 210.8  -3.1  34138  289.19 0854.38
2009/04/23 16:27:40.4      -7     62    135     63    148 352.9  73.1  34174  289.80 0854.38
2009/04/23 16:27:40.5     -86    118     28    147    150 323.9  11.0  34138  289.19 0854.38
2009/04/23 16:27:40.6     -99     57     25    115    118 300.2  12.6  34118  288.86 0854.38
2009/04/23 16:27:40.7    -157    108   -119    191    225 304.6 -39.9  34116  288.82 0854.38
2009/04/23 16:27:40.8    -254    108   -199    277    341 293.1 -43.7  34124  288.97 0854.38
2009/04/23 16:27:40.9     -59     43     79     74    108 306.0  52.1  34128  289.04 0854.38
2009/04/23 16:27:41.0    -170   -154    190    230    298 227.8  43.7  34134  289.12 0854.38
2009/04/23 16:27:41.1     -70   -260    284    270    391 195.2  51.6  34122  288.93 0854.38
2009/04/23 16:27:41.2    -141     -2     54    142    151 269.2  21.5  34124  288.97 0854.38
2009/04/23 16:27:41.3    -216    202    127    296    322 313.1  24.6  34134  289.12 0854.38
2009/04/23 16:27:41.4    -111    206    132    235    269 331.7  31.6  34132  289.10 0854.38
2009/04/23 16:27:41.5     176    277    202    329    386  32.5  34.6  34112  288.77 0854.38
2009/04/23 16:27:41.6     206    719    104    749    757  16.0   7.9  34114  288.80 0854.38
2009/04/23 16:27:41.7     308    781     93    840    846  21.5   6.4  34148  289.36 0854.38
2009/04/23 16:27:41.8     374    791    104    876    883  25.3   6.8  34208  290.39 0854.38
2009/04/23 16:27:41.9     379    626      9    732    733  31.2   0.7  34198  290.22 0854.38
2009/04/23 16:27:42.0     337    713    159    789    805  25.3  11.4  34188  290.05 0854.38
2009/04/23 16:27:42.1     260    541    226    601    642  25.7  21.6  34168  289.72 0854.38
2009/04/23 16:27:42.2     398    451    259    602    655  41.5  24.8  34160  289.57 0854.38
2009/04/23 16:27:42.3     400    254    310    474    566  57.6  36.4  34168  289.70 0854.38
2009/04/23 16:27:42.4     281    265    306    387    493  46.7  42.3  34196  290.17 0854.38
2009/04/23 16:27:42.5     281    362    214    459    506  37.8  27.0  34166  289.69 0854.38
2009/04/23 16:27:42.6     269    471    388    543    667  29.8  39.1  34158  289.53 0854.38
2009/04/23 16:27:42.7     502    410    249    649    695  50.8  22.2  34080  288.21 0854.38
2009/04/23 16:27:42.8     448    595    286    746    798  37.0  22.1  34100  288.54 0854.38
2009/04/23 16:27:42.9     469    524    255    704    748  41.8  20.9  34136  289.18 0854.38
2009/04/23 16:27:43.0     249    469    318    532    619  28.0  33.6  34204  290.31 0854.38
2009/04/23 16:27:43.1     558    462    198    725    752  50.4  15.3  34090  288.40 0854.38
2009/04/23 16:27:43.2     562    541    289    781    832  46.1  21.3  34256  291.21 0854.38
2009/04/23 16:27:43.3     426    456    384    625    733  43.0  34.5  34192  290.11 0854.38
2009/04/23 16:27:43.4     585    454     67    741    745  52.2   5.2  34086  288.31 0854.38
2009/04/23 16:27:43.5     240    598    374    645    745  21.9  32.7  34292  291.83 0854.40
2009/04/23 16:27:43.6     492    558     42    745    747  41.4   3.3  34206  290.35 0854.40
2009/04/23 16:27:43.7     119    517    233    531    579  13.0  25.2  34244  291.01 0854.40
2009/04/23 16:27:43.8     205    500     83    541    548  22.3   8.8  34250  291.11 0854.40
2009/04/23 16:27:43.9      88    540     14    548    549   9.3   1.5  34170  289.74 0854.40
2009/04/23 16:27:44.0     187    410    -51    451    454  24.5  -6.5  34158  289.55 0854.40
2009/04/23 16:27:44.1     277    303   -130    411    432  42.4 -17.6  34142  289.27 0854.40
2009/04/23 16:27:44.2     274    404    -62    489    494  34.2  -7.3  34176  289.84 0854.40
2009/04/23 16:27:44.3      38    436    231    438    495   5.1  30.1  34222  290.62 0854.40
2009/04/23 16:27:44.4     -33    431     85    433    442 355.6  11.1  34220  290.58 0854.40
2009/04/23 16:27:44.5       5    401     91    402    413   0.8  12.8  34210  290.43 0854.40
2009/04/23 16:27:44.6     211     49    347    217    409  76.7  64.9  34202  290.28 0854.40
2009/04/23 16:27:44.7     264   -153    128    306    331 120.0  23.9  34182  289.95 0854.40
2009/04/23 16:27:44.8     597    120    170    610    634  78.6  15.6  34168  289.72 0854.40
2009/04/23 16:27:44.9     547    111    119    558    571  78.5  12.1  34166  289.68 0854.40
2009/04/23 16:27:45.0     462    116    118    477    492  75.8  13.9  34172  289.76 0854.40
2009/04/23 16:27:45.1     500    248    120    559    572  63.6  12.1  34202  290.28 0854.40
2009/04/23 16:27:45.2     528    291    205    603    638  61.1  18.8  34138  289.21 0854.40
2009/04/23 16:27:45.3     403    294     20    500    501  53.9   2.4  34160  289.57 0854.40
2009/04/23 16:27:45.4     588    394    -26    709    710  56.2  -2.1  34146  289.33 0854.40
2009/04/23 16:27:45.5     559     78    221    565    606  82.0  22.7  34186  290.02 0854.41
2009/04/23 16:27:45.6     483     36    244    485    542  85.7  28.7  34174  289.80 0854.41
2009/04/23 16:27:45.7     427   -156    149    455    479 110.1  18.1  34166  289.66 0854.41
2009/04/23 16:27:45.8     476   -124    170    492    521 104.6  19.1  34152  289.44 0854.41
2009/04/23 16:27:45.9     415   -147    235    441    499 109.6  30.3  34154  289.47 0854.41
2009/04/23 16:27:46.0     380   -151    234    410    472 111.7  32.3  34166  289.66 0854.41
2009/04/23 16:27:46.1     291   -165    206    335    393 119.5  34.4  34178  289.86 0854.41
2009/04/23 16:27:46.2     298   -124    198    323    378 112.6  34.6  34176  289.84 0854.41
2009/04/23 16:27:46.3     275   -103    284    294    408 110.6  49.1  34182  289.94 0854.41
2009/04/23 16:27:46.4     254   -116    246    280    372 114.6  45.8  34188  290.03 0854.41
2009/04/23 16:27:46.5     261   -162    137    308    337 121.8  25.6  34178  289.86 0854.41
2009/04/23 16:27:46.6     274   -104    188    294    348 110.8  35.6  34202  290.28 0854.41
2009/04/23 16:27:46.7     187    -62    211    198    289 108.4  52.1  34216  290.51 0854.41
2009/04/23 16:27:46.8     161    -50    203    169    264 107.3  56.3  34198  290.22 0854.41
2009/04/23 16:27:46.9      39    -14    136     42    142 110.0  82.3  34192  290.13 0854.41
2009/04/23 16:27:47.0     152     36     96    157    184  76.7  34.8  34156  289.50 0854.41
2009/04/23 16:27:47.1     181     61     93    192    213  71.2  27.4  34162  289.62 0854.41
2009/04/23 16:27:47.2     162    142    125    216    249  48.7  32.7  34162  289.59 0854.41
2009/04/23 16:27:47.3      68    143    131    159    206  25.5  43.7  34150  289.41 0854.41
2009/04/23 16:27:47.4      69    146     74    162    178  25.4  26.2  34120  288.89 0854.42
2009/04/23 16:27:47.5      36    120     62    126    140  17.0  27.8  34122  288.92 0854.42
2009/04/23 16:27:47.6      28     83     62     88    107  18.7  39.5  34148  289.38 0854.42
2009/04/23 16:27:47.7       0    110     45    111    119   0.0  23.1  34170  289.74 0854.42
2009/04/23 16:27:47.8     -35    107     28    113    117 341.7  14.3  34164  289.63 0854.42
2009/04/23 16:27:47.9     -66     76      5    102    103 319.0   2.9  34174  289.82 0854.42
2009/04/23 16:27:48.0     -29    110     72    114    134 344.8  35.5  34182  289.96 0854.42
2009/04/23 16:27:48.1    -112     85     76    141    160 307.3  30.6  34192  290.11 0854.42
2009/04/23 16:27:48.2    -146    193    123    243    272 322.8  29.1  34206  290.34 0854.42
2009/04/23 16:27:48.3    -164    195    111    256    279 319.9  25.1  34202  290.29 0854.42
2009/04/23 16:27:48.4    -151    115    111    191    220 307.3  32.9  34200  290.25 0854.42
2009/04/23 16:27:48.5     -56    135    177    147    230 337.3  56.3  34228  290.72 0854.42
2009/04/23 16:27:48.6     -10    238    215    239    321 357.4  46.8  34276  291.55 0854.42
2009/04/23 16:27:48.7     -11    181    174    182    251 356.4  49.0  34268  291.40 0854.42
2009/04/23 16:27:48.8     -77    257    212    269    342 343.3  42.3  34232  290.78 0854.42
2009/04/23 16:27:48.9    -163    371    181    406    444 336.3  25.7  34190  290.09 0854.42
2009/04/23 16:27:49.0    -122    259    181    287    339 334.7  35.5  34162  289.59 0854.42
2009/04/23 16:27:49.1     133    439    261    459    528  16.9  32.1  34176  289.84 0854.42
2009/04/23 16:27:49.2     214    437    214    487    531  26.1  25.2  34216  290.52 0854.42
2009/04/23 16:27:49.3     155    215    195    266    329  35.8  39.9  34228  290.73 0854.42
2009/04/23 16:27:49.4     272    365    102    456    468  36.8  12.6  34238  290.90 0854.42
2009/04/23 16:27:49.5     196    573    108    606    616  19.0  10.1  34244  291.00 0854.42
2009/04/23 16:27:49.6     374    389    225    540    585  43.9  24.1  34284  291.68 0854.42
2009/04/23 16:27:49.7     556    339    122    652    664  58.6  10.6  34272  291.48 0854.42
2009/04/23 16:27:49.8     347    454    216    572    611  37.4  21.7  34218  290.56 0854.42
2009/04/23 16:27:49.9     317    634     67    709    713  26.6   5.4  34220  290.59 0854.42
2009/04/23 16:27:50.0     557    451    259    717    763  51.0  19.9  34292  291.82 0854.42
2009/04/23 16:27:50.1     523    320    234    614    657  58.5  22.0  34272  291.47 0854.42
2009/04/23 16:27:50.2     337    478    219    586    625  35.2  21.4  34204  290.31 0854.42
2009/04/23 16:27:50.3     508    356    202    621    653  55.0  18.0  34250  291.11 0854.42
2009/04/23 16:27:50.4     268    364    178    453    486  36.4  22.5  34150  289.39 0854.42
2009/04/23 16:27:50.5     289    299     37    417    419  44.0   5.2  34134  289.14 0854.42
2009/04/23 16:27:50.6     343    520    -34    624    625  33.4  -3.1  34126  289.01 0854.42
2009/04/23 16:27:50.7     408    596     71    723    727  34.4   5.7  34174  289.81 0854.42
2009/04/23 16:27:50.8     559    446    165    716    735  51.4  13.0  34254  291.17 0854.42
2009/04/23 16:27:50.9     679    329    253    755    797  64.1  18.6  34264  291.34 0854.42
2009/04/23 16:27:51.0     488    188    226    523    569  68.9  24.9  34198  290.21 0854.42
2009/04/23 16:27:51.1     514    257      1    575    576  63.4   0.1  34142  289.27 0854.42
2009/04/23 16:27:51.2     482    361      2    603    604  53.2   0.2  34134  289.14 0854.42
2009/04/23 16:27:51.3     514    400     31    652    653  52.2   2.8  34158  289.53 0854.42
2009/04/23 16:27:51.4     350    430     41    555    557  39.1   4.2  34134  289.14 0854.42
2009/04/23 16:27:51.5     317    383     25    498    499  39.6   2.9  34182  289.93 0854.42
2009/04/23 16:27:51.6     148    425    106    451    464  19.2  13.2  34246  291.02 0854.42
2009/04/23 16:27:51.7      79    418     75    426    433  10.8  10.1  34214  290.50 0854.42
2009/04/23 16:27:51.8      35    447    -31    449    451   4.6  -4.0  34170  289.73 0854.42
2009/04/23 16:27:51.9     149    470     -2    494    495  17.6  -0.3  34236  290.85 0854.42
2009/04/23 16:27:52.0     101    373    148    387    414  15.2  22.0  34242  290.95 0854.42
2009/04/23 16:27:52.1      81    399    110    408    423  11.6  15.2  34228  290.73 0854.42
2009/04/23 16:27:52.2      87    295    131    308    334  16.5  24.5  34198  290.20 0854.42
2009/04/23 16:27:52.3     102    186    110    213    239  28.7  29.3  34230  290.77 0854.42
2009/04/23 16:27:52.4      70    209     78    221    235  18.7  19.6  34230  290.75 0854.42
2009/04/23 16:27:52.5      42    228     72    232    244  10.5  17.3  34206  290.34 0854.42
2009/04/23 16:27:52.6     -49    316    -13    320    321 351.1  -2.5  34240  290.93 0854.42
2009/04/23 16:27:52.7     -38    356     65    359    365 353.8  10.4  34254  291.18 0854.42
2009/04/23 16:27:52.8     -56    393    108    398    413 351.9  15.3  34282  291.65 0854.42
2009/04/23 16:27:52.9     105    289     13    308    309  20.0   2.5  34252  291.14 0854.42
2009/04/23 16:27:53.0     196    364    -40    414    417  28.3  -5.6  34168  289.72 0854.42
2009/04/23 16:27:53.1     -44    436     54    439    443 354.2   7.1  34146  289.33 0854.42
2009/04/23 16:27:53.2     -34    423     16    425    426 355.3   2.2  34196  290.19 0854.42
2009/04/23 16:27:53.3      72    288     57    297    303  14.2  11.0  34234  290.83 0854.42
2009/04/23 16:27:53.4      93    263      3    280    281  19.6   0.8  34184  289.98 0854.41
2009/04/23 16:27:53.5     211    253    -29    330    332  39.9  -5.1  34158  289.55 0854.41
2009/04/23 16:27:53.6     101    251    -96    271    288  22.1 -19.7  34200  290.26 0854.41
2009/04/23 16:27:53.7      96    196    -73    219    232  26.1 -18.6  34194  290.16 0854.41
2009/04/23 16:27:53.8      53    179    -61    187    197  16.7 -18.1  34220  290.58 0854.41
2009/04/23 16:27:53.9     149    154      0    215    216  44.1   0.2  34182  289.94 0854.41
2009/04/23 16:27:54.0     222    158    -92    273    289  54.5 -18.6  34156  289.49 0854.41
2009/04/23 16:27:54.1     372    281    -18    467    468  52.9  -2.2  34218  290.56 0854.41
2009/04/23 16:27:54.2     221    318    -50    388    392  34.8  -7.5  34202  290.30 0854.41
2009/04/23 16:27:54.3     264    201   -166    332    371  52.7 -33.0  34208  290.40 0854.41
2009/04/23 16:27:54.4     173    123   -166    213    270  54.7 -46.4  34196  290.19 0854.41
2009/04/23 16:27:54.5     217      6    -90    218    235  88.3 -28.2  34206  290.35 0854.41
2009/04/23 16:27:54.6     195     18    -70    196    209  84.5 -19.6  34224  290.67 0854.41
2009/04/23 16:27:54.7     155    -21    -20    157    159  98.0  -7.5  34238  290.91 0854.41
2009/04/23 16:27:54.8     149      2     85    150    172  89.2  32.4  34256  291.20 0854.41
2009/04/23 16:27:54.9      98    -76    -40    125    131 127.8 -23.3  34202  290.28 0854.41
2009/04/23 16:27:55.0      89    -54    -28    105    109 121.5 -15.4  34194  290.14 0854.41
2009/04/23 16:27:55.1      54    -78     38     95    102 145.3  23.0  34216  290.53 0854.41
2009/04/23 16:27:55.2     -40     74     -7     85     86 331.9  -5.2  34224  290.65 0854.41
2009/04/23 16:27:55.3    -261    242    -98    357    371 312.8 -15.4  34090  288.37 0854.41
2009/04/23 16:27:55.4    -373    219   -230    433    490 300.4 -34.6  34108  288.68 0854.41
2009/04/23 16:27:55.5    -475    242   -169    534    561 297.0 -17.6  34080  288.21 0854.41
2009/04/23 16:27:55.6    -529    255   -179    588    614 295.8 -21.8  34072  288.09 0854.41
2009/04/23 16:27:55.7    -506    271   -163    575    597 298.2 -20.7  34082  288.24 0854.41
2009/04/23 16:27:55.8    -428    260   -199    501    539 301.3 -27.4  34080  288.23 0854.41
2009/04/23 16:27:55.9    -380    180   -240    421    484 295.4 -36.7  34080  288.22 0854.41
2009/04/23 16:27:56.0    -395    195   -269    441    516 296.3 -38.7  34082  288.25 0854.41
2009/04/23 16:27:56.1    -304    215   -246    373    446 305.2 -40.9  34080  288.23 0854.41
2009/04/23 16:27:56.2    -261    286   -210    388    441 317.7 -35.2  34114  288.80 0854.41
2009/04/23 16:27:56.3    -335      0   -327    336    468 270.0 -53.7  34188  290.04 0854.41
2009/04/23 16:27:56.4    -268   -164   -200    315    373 238.5 -39.9  34178  289.86 0854.41
2009/04/23 16:27:56.5    -502     28   -110    503    516 273.3 -12.4  34182  289.95 0854.41
2009/04/23 16:27:56.6    -281    108   -224    302    376 291.1 -44.5  34154  289.47 0854.41
2009/04/23 16:27:56.7    -391     45   -242    394    462 276.6 -38.9  34148  289.36 0854.41
2009/04/23 16:27:56.8    -481     21   -227    482    532 272.5 -31.5  34102  288.59 0854.41
2009/04/23 16:27:56.9    -450    197   -236    492    545 293.7 -31.8  34176  289.85 0854.41
2009/04/23 16:27:57.0    -385    228   -166    448    477 300.7 -25.8  34126  289.01 0854.41
2009/04/23 16:27:57.1    -294    154   -208    332    391 297.7 -39.5  34084  288.28 0854.41
2009/04/23 16:27:57.2    -346    141   -222    374    434 292.2 -37.9  34078  288.17 0854.41
2009/04/23 16:27:57.3    -320    218   -177    388    426 304.3 -30.6  34098  288.53 0854.41
2009/04/23 16:27:57.4    -325     81   -161    335    371 284.1 -31.8  34114  288.79 0854.41
2009/04/23 16:27:57.5    -334     55   -120    339    360 279.5 -19.6  34108  288.69 0854.41
2009/04/23 16:27:57.6    -314    -43    -83    317    328 262.1 -14.8  34134  289.14 0854.41
2009/04/23 16:27:57.8    -359      0   -154    360    391 269.9 -29.0  34082  288.25 0854.41
2009/04/23 16:27:57.8    -327     54   -191    332    383 279.5 -36.8  34084  288.27 0854.41
2009/04/23 16:27:58.0    -196      0   -188    197    272 269.9 -53.1  34096  288.49 0854.41
2009/04/23 16:27:58.1    -126   -207   -168    243    295 211.4 -42.2  34140  289.22 0854.41
2009/04/23 16:27:58.2    -266   -117   -206    291    356 246.3 -43.2  34106  288.67 0854.41
2009/04/23 16:27:58.3    -245     26   -169    247    299 276.1 -42.0  34090  288.39 0854.41
2009/04/23 16:27:58.4    -202    -24   -160    204    259 263.0 -46.6  34090  288.37 0854.41
2009/04/23 16:27:58.4    -261     -1   -192    262    324 269.6 -44.3  34118  288.85 0854.41
2009/04/23 16:27:58.6    -336    -33   -216    338    401 264.3 -40.0  34138  289.21 0854.41
2009/04/23 16:27:58.7    -285    -44   -188    289    344 261.2 -40.4  34134  289.14 0854.41
2009/04/23 16:27:58.8    -207     68   -130    218    253 288.2 -37.9  34142  289.27 0854.41
2009/04/23 16:27:58.9    -227    -46    -11    232    233 258.5  -2.8  34112  288.77 0854.41
2009/04/23 16:27:59.0    -210      0      1    211    212 270.0   0.5  34112  288.75 0854.41
2009/04/23 16:27:59.1    -240    -98     -1    260    261 247.8  -0.3  34120  288.90 0854.41
2009/04/23 16:27:59.2    -316     27     54    318    323 275.0   9.7  34128  289.03 0854.41
2009/04/23 16:27:59.3    -170    -38     11    175    176 257.4   3.8  34148  289.38 0854.41
2009/04/23 16:27:59.4    -178   -166     76    244    256 226.9  17.3  34142  289.25 0854.41
2009/04/23 16:27:59.5    -251   -252    -58    356    361 224.9  -9.3  34132  289.10 0854.41
2009/04/23 16:27:59.6    -196   -244    -82    314    325 218.7 -14.7  34134  289.14 0854.41
2009/04/23 16:27:59.7    -180   -232    -92    294    308 217.9 -22.5  34136  289.15 0854.41
2009/04/23 16:27:59.8    -103   -223    -72    246    257 204.9 -16.4  34126  288.98 0854.41
2009/04/23 16:27:59.9     -91   -274    -58    289    295 198.5 -11.5  34122  288.93 0854.41
2009/04/23 16:28:00.0    -120   -361   -131    381    402 198.4 -24.0  34110  288.71 0854.41
2009/04/23 16:28:00.1    -139   -179   -170    227    283 217.8 -45.1  34110  288.73 0854.41
2009/04/23 16:28:00.2    -192   -136   -197    236    307 234.5 -48.2  34118  288.85 0854.41
2009/04/23 16:28:00.3     -77   -147    -81    167    185 207.6 -31.8  34116  288.84 0854.41
2009/04/23 16:28:00.4     -58   -379   -176    384    422 188.8 -30.8  34116  288.82 0854.41
2009/04/23 16:28:00.5    -215   -358   -116    418    434 211.0 -15.5  34124  288.97 0854.44
2009/04/23 16:28:00.6    -120   -315    -95    338    351 201.0 -20.3  34124  288.96 0854.44
2009/04/23 16:28:00.7    -154   -426     13    454    455 200.0   1.7  34130  289.05 0854.44
2009/04/23 16:28:00.8    -133   -398   -148    420    445 198.6 -24.5  34110  288.73 0854.44
2009/04/23 16:28:00.9    -163   -343   -124    381    401 205.5 -18.1  34122  288.93 0854.44
2009/04/23 16:28:01.0    -164   -321   -110    361    377 207.2 -21.8  34120  288.89 0854.44
2009/04/23 16:28:01.1    -132   -355   -124    380    400 200.5 -18.2  34104  288.64 0854.44
2009/04/23 16:28:01.2    -119   -357   -120    377    396 198.5 -17.7  34112  288.77 0854.44
2009/04/23 16:28:01.3     -99   -357   -131    371    394 195.6 -19.6  34110  288.71 0854.44
2009/04/23 16:28:01.4     -30   -471   -116    472    487 183.7 -13.8  34118  288.86 0854.44
2009/04/23 16:28:01.5    -125   -402     31    422    424 197.3   4.2  34124  288.95 0854.44
2009/04/23 16:28:01.6    -139   -392    144    417    442 199.6  19.1  34124  288.95 0854.44
2009/04/23 16:28:01.7    -215   -509   -136    553    570 202.9 -13.9  34110  288.74 0854.44
2009/04/23 16:28:01.8    -161   -373   -125    407    425 203.3 -22.2  34112  288.77 0854.44
2009/04/23 16:28:01.9    -163   -401   -157    434    461 202.2 -25.2  34112  288.75 0854.44
2009/04/23 16:28:02.0    -249   -465   -190    528    562 208.2 -19.8  34110  288.72 0854.44
2009/04/23 16:28:02.1     -44   -563   -162    565    588 184.5 -16.0  34118  288.86 0854.44
2009/04/23 16:28:02.2      57   -575    -51    578    581 174.3  -5.1  34134  289.14 0854.44
2009/04/23 16:28:02.3      16   -501      8    502    503 178.1   1.0  34140  289.22 0854.44
2009/04/23 16:28:02.4    -143   -579      8    597    598 193.9   0.8  34136  289.15 0854.44
2009/04/23 16:28:02.5    -165   -485    -92    513    522 198.8 -10.2  34136  289.18 0854.45
2009/04/23 16:28:02.6    -277   -434     44    516    519 212.6   4.9  34140  289.22 0854.45
2009/04/23 16:28:02.7    -221   -391     21    450    451 209.4   2.8  34128  289.02 0854.45
2009/04/23 16:28:02.8    -117   -341    -11    361    362 198.9  -1.9  34130  289.08 0854.45
2009/04/23 16:28:02.9     -74   -311     56    320    326 193.5  10.0  34138  289.20 0854.45
2009/04/23 16:28:03.0    -104   -321     31    338    340 198.0   5.3  34142  289.25 0854.45
2009/04/23 16:28:03.1    -181   -360    110    404    419 206.7  15.3  34150  289.41 0854.45
2009/04/23 16:28:03.2    -128   -339    176    363    403 200.8  27.7  34168  289.72 0854.45
2009/04/23 16:28:03.3    -107   -314    165    333    371 198.9  28.4  34164  289.65 0854.45
2009/04/23 16:28:03.4    -216   -151    169    264    313 234.9  35.6  34174  289.80 0854.45
2009/04/23 16:28:03.5    -200   -160    218    257    337 231.4  44.7  34176  289.83 0854.45
2009/04/23 16:28:03.6    -124    -54    141    136    195 246.5  51.2  34178  289.87 0854.45
2009/04/23 16:28:03.7      50    -60    140     79    160 140.4  68.3  34172  289.79 0854.45
2009/04/23 16:28:03.8      15   -117    128    119    174 172.4  52.0  34156  289.50 0854.45
2009/04/23 16:28:03.9     -10   -108    118    109    160 185.3  52.5  34154  289.46 0854.45
2009/04/23 16:28:04.0    -120   -121    143    171    222 224.8  43.8  34148  289.36 0854.45
2009/04/23 16:28:04.1     -80   -131    121    154    195 211.6  42.2  34152  289.45 0854.45
2009/04/23 16:28:04.2    -129   -162    114    208    237 218.5  31.3  34148  289.36 0854.45
2009/04/23 16:28:04.3    -135   -166    102    215    237 219.2  27.2  34166  289.69 0854.45
2009/04/23 16:28:04.4    -148   -184    111    237    261 218.7  27.1  34184  289.98 0854.45
2009/04/23 16:28:04.5    -119    -37    155    125    199 252.3  56.9  34172  289.77 0854.47
2009/04/23 16:28:04.6    -205      9     68    206    218 272.6  18.4  34150  289.41 0854.47
2009/04/23 16:28:04.7    -186   -119     77    222    236 237.4  19.2  34166  289.67 0854.47
2009/04/23 16:28:04.8    -134   -173     54    219    226 217.8  13.9  34176  289.84 0854.47
2009/04/23 16:28:04.9    -244    -73    -32    255    258 253.2  -7.3  34124  288.97 0854.47
2009/04/23 16:28:05.0    -176    -48    -43    183    189 254.7 -13.4  34136  289.16 0854.47
2009/04/23 16:28:05.1    -170     -7    -41    171    176 267.4 -13.7  34136  289.16 0854.47
2009/04/23 16:28:05.2    -243    -41    -90    247    262 260.3 -25.3  34120  288.88 0854.47
2009/04/23 16:28:05.3    -292    -67   -134    300    328 257.0 -30.2  34130  289.05 0854.47
2009/04/23 16:28:05.4    -419    -39   -149    421    447 264.6 -19.6  34128  289.04 0854.47
2009/04/23 16:28:05.5    -467     11   -129    468    485 271.4 -20.1  34126  289.01 0854.47
2009/04/23 16:28:05.6    -452     45   -175    455    487 275.7 -26.6  34120  288.91 0854.47
2009/04/23 16:28:05.7    -516    -26   -222    517    562 267.1 -29.2  34144  289.31 0854.47
2009/04/23 16:28:05.8    -460   -116   -127    475    492 255.8 -15.0  34150  289.40 0854.47
2009/04/23 16:28:05.9    -505    -82   -135    512    530 260.8 -14.8  34138  289.21 0854.47
2009/04/23 16:28:06.0    -400   -143   -129    425    445 250.3 -16.9  34150  289.39 0854.47
2009/04/23 16:28:06.1    -328     -1    -57    329    335 269.7  -9.9  34166  289.67 0854.47
2009/04/23 16:28:06.2    -269   -103    -91    289    304 249.1 -17.5  34164  289.64 0854.47
2009/04/23 16:28:06.3    -179    109   -187    210    281 301.3 -50.6  34150  289.39 0854.47
2009/04/23 16:28:06.4    -308     42   -226    311    384 277.9 -44.1  34154  289.47 0854.47
2009/04/23 16:28:06.5    -198    -66   -173    209    271 251.4 -48.2  34156  289.51 0854.48
2009/04/23 16:28:06.6     -17      0   -223     18    223 270.0 -90.0  34166  289.67 0854.48
2009/04/23 16:28:06.7    -188     26   -158    190    247 278.0 -48.2  34156  289.52 0854.48
2009/04/23 16:28:06.8    -340    140   -168    368    404 292.4 -30.6  34172  289.76 0854.48
2009/04/23 16:28:06.9    -353    151   -178    385    424 293.2 -31.0  34188  290.04 0854.48
2009/04/23 16:28:07.0    -360    123   -195    381    428 289.0 -33.6  34178  289.88 0854.48
2009/04/23 16:28:07.1    -330    109   -200    348    401 288.3 -36.8  34184  289.98 0854.48
2009/04/23 16:28:07.2    -318      8   -205    319    379 271.5 -40.0  34174  289.81 0854.48
2009/04/23 16:28:07.3    -253    114   -113    278    300 294.4 -27.5  34198  290.20 0854.48
2009/04/23 16:28:07.4    -196     34    -96    199    220 279.9 -31.7  34186  290.02 0854.48
2009/04/23 16:28:07.5    -179     -4   -131    180    222 268.5 -44.1  34176  289.84 0854.48
2009/04/23 16:28:07.6    -215     27    -66    217    226 277.2 -21.7  34164  289.65 0854.48
2009/04/23 16:28:07.7    -236    -25    -80    238    252 263.8 -18.7  34160  289.56 0854.48
2009/04/23 16:28:07.8    -331   -136    -62    358    364 247.6  -9.9  34182  289.94 0854.48
2009/04/23 16:28:07.9    -414    -58    150    419    445 262.0  20.6  34152  289.44 0854.48
2009/04/23 16:28:08.0    -458     93    -85    468    476 281.5 -10.4  34192  290.10 0854.48
2009/04/23 16:28:08.1    -482     37    -75    484    490 274.5  -8.8  34178  289.86 0854.48
2009/04/23 16:28:08.2    -456    100   -161    467    495 282.4 -19.1  34150  289.40 0854.48
2009/04/23 16:28:08.3    -456    -21   -148    457    481 267.3 -17.9  34162  289.59 0854.48
2009/04/23 16:28:08.4    -491     -3   -136    492    511 269.6 -15.5  34152  289.45 0854.48
2009/04/23 16:28:08.5    -503      3   -190    504    538 270.4 -26.1  34140  289.23 0854.48
2009/04/23 16:28:08.6    -489    -64   -215    494    538 262.5 -29.5  34140  289.23 0854.48
2009/04/23 16:28:08.7    -575    -66   -260    579    634 263.4 -30.2  34154  289.48 0854.48
2009/04/23 16:28:08.8    -412   -142   -279    436    517 251.0 -40.0  34156  289.52 0854.48
2009/04/23 16:28:08.9    -290     26   -134    292    321 275.2 -30.7  34166  289.66 0854.48
2009/04/23 16:28:09.0      68   -144     12    160    161 154.5   4.6  34170  289.75 0854.48
2009/04/23 16:28:09.1      65   -118     49    135    143 151.0  20.9  34156  289.52 0854.48
2009/04/23 16:28:09.2     154   -198    -13    252    253 142.1  -3.1  34152  289.44 0854.48
2009/04/23 16:28:09.3    -122   -180    104    218    241 214.3  27.3  34158  289.53 0854.48
2009/04/23 16:28:09.4     -32   -186    -36    189    193 189.8 -10.9  34162  289.60 0854.48
2009/04/23 16:28:09.5     -38   -109    -42    116    123 199.2 -25.3  34166  289.69 0854.48
2009/04/23 16:28:09.6     -41    -56     -3     70     71 216.0  -3.1  34172  289.79 0854.48
2009/04/23 16:28:09.7     -54      4     10     55     57 274.4  11.1  34174  289.80 0854.48
2009/04/23 16:28:09.8     -72     72     36    103    110 315.0  19.4  34182  289.96 0854.48
2009/04/23 16:28:09.9     -55     57     75     80    109 315.9  48.0  34176  289.85 0854.48
2009/04/23 16:28:10.0      25    116     74    119    140  12.5  35.5  34164  289.63 0854.48
2009/04/23 16:28:10.1      21    150     71    152    167   8.0  27.0  34162  289.60 0854.48
2009/04/23 16:28:10.2      24    122     82    125    149  11.1  35.6  34166  289.69 0854.48
2009/04/23 16:28:10.3       9    118     13    119    120   4.4   6.5  34166  289.69 0854.48
2009/04/23 16:28:10.4     -11    146     -8    147    148 355.6  -3.1  34168  289.72 0854.48
2009/04/23 16:28:10.5     -99     97    -13    139    140 314.4  -5.6  34182  289.96 0854.49
2009/04/23 16:28:10.6     -88     63    -11    109    110 305.9  -6.2  34186  290.01 0854.49
2009/04/23 16:28:10.7    -134     62     53    148    157 294.8  20.4  34184  289.99 0854.49
2009/04/23 16:28:10.8    -124     57     69    137    153 294.8  28.7  34186  290.01 0854.49
2009/04/23 16:28:10.9    -105    108     52    151    160 315.9  19.2  34186  290.01 0854.49
2009/04/23 16:28:11.0    -125    102     87    162    183 309.1  30.8  34184  289.99 0854.49
2009/04/23 16:28:11.1    -114     78     55    139    149 304.6  23.0  34188  290.04 0854.49
2009/04/23 16:28:11.2    -116      0     74    117    138 270.4  35.5  34196  290.19 0854.49
2009/04/23 16:28:11.3     -94     67     71    116    136 305.9  35.0  34192  290.13 0854.49
2009/04/23 16:28:11.4     -91    108     44    142    149 319.9  17.4  34190  290.09 0854.49
2009/04/23 16:28:11.5     -32     68     57     76     95 334.7  40.7  34188  290.04 0854.49
2009/04/23 16:28:11.6     -98    119     62    155    166 320.4  23.0  34172  289.77 0854.49
2009/04/23 16:28:11.7    -114    111     48    160    168 314.4  16.8  34170  289.75 0854.49
2009/04/23 16:28:11.8     -91    133     60    162    172 325.7  21.0  34174  289.80 0854.49
2009/04/23 16:28:11.9     -55    138    -13    149    150 338.1  -5.2  34170  289.74 0854.49
2009/04/23 16:28:12.0     -47    123    -21    132    134 339.1  -9.3  34170  289.74 0854.49
2009/04/23 16:28:12.1     -73     88     82    115    141 320.3  39.5  34174  289.82 0854.49
2009/04/23 16:28:12.2     -43    135     38    142    148 342.2  15.2  34172  289.79 0854.49
2009/04/23 16:28:12.3     -76    166     44    183    189 335.3  13.5  34172  289.79 0854.49
2009/04/23 16:28:12.4     -95    187     10    210    211 333.0   2.9  34170  289.74 0854.49
2009/04/23 16:28:12.5     -30    175     59    178    188 350.2  18.4  34178  289.87 0854.49
2009/04/23 16:28:12.6      25    230     11    232    233   6.2   2.9  34176  289.84 0854.49
2009/04/23 16:28:12.7      29    221    106    223    246   7.6  27.2  34174  289.80 0854.49
2009/04/23 16:28:12.8      90    261     75    277    288  19.1  15.3  34180  289.90 0854.49
2009/04/23 16:28:12.9     212    232    181    315    363  42.3  32.6  34192  290.10 0854.49
2009/04/23 16:28:13.0     132     97    168    164    234  53.6  50.4  34198  290.23 0854.49
2009/04/23 16:28:13.1      65     65    145     93    172  45.0  64.6  34204  290.31 0854.49
2009/04/23 16:28:13.2     -21     55    142     59    153 339.1  77.0  34224  290.65 0854.49
2009/04/23 16:28:13.3     123     13    194    124    230  83.9  64.6  34196  290.19 0854.49
2009/04/23 16:28:13.4      96     -7    182     97    206  94.4  70.0  34198  290.21 0854.49
2009/04/23 16:28:13.5      75    -67    110    101    149 131.8  52.2  34210  290.41 0854.49
2009/04/23 16:28:13.6     118    -56    122    131    179 115.4  47.9  34206  290.36 0854.49
2009/04/23 16:28:13.7     -43   -145     89    152    176 196.5  32.9  34214  290.48 0854.49
2009/04/23 16:28:13.8     -58    -96    -32    113    117 211.2 -20.7  34196  290.18 0854.49
2009/04/23 16:28:13.9     -86    -78     64    117    133 227.8  31.4  34198  290.23 0854.49
2009/04/23 16:28:14.0     -45      0     23     46     51 270.0  27.3  34208  290.40 0854.49
2009/04/23 16:28:14.1      50    -63    -14     81     83 141.3  -9.8  34204  290.33 0854.49
2009/04/23 16:28:14.2     155    -75      3    173    174 115.8   1.2  34188  290.06 0854.49
2009/04/23 16:28:14.3     146    -10      0    147    148  94.3  -0.3  34190  290.08 0854.49
2009/04/23 16:28:14.4      41    -92    -12    101    102 155.9  -7.2  34210  290.41 0854.48
2009/04/23 16:28:14.5     129     14     74    130    149  83.8  31.9  34192  290.13 0854.48
2009/04/23 16:28:14.6     185      3    106    186    214  89.0  32.4  34186  290.01 0854.48
2009/04/23 16:28:14.7     155     45     95    162    187  73.6  33.1  34178  289.89 0854.48
2009/04/23 16:28:14.8     164     54    169    173    241  71.6  49.4  34190  290.09 0854.48
2009/04/23 16:28:14.9     146    136    154    200    252  47.1  41.6  34196  290.19 0854.48
2009/04/23 16:28:15.0     134     10    105    135    171  85.7  42.2  34188  290.06 0854.48
2009/04/23 16:28:15.1     204    -41    205    209    292 101.4  49.8  34174  289.81 0854.48
2009/04/23 16:28:15.2     255    -96    238    273    362 110.8  45.6  34166  289.67 0854.48
2009/04/23 16:28:15.3      40    -33    142     53    151 129.5  79.1  34170  289.74 0854.48
2009/04/23 16:28:15.4     176   -122    209    215    299 124.6  49.4  34184  289.97 0854.48
2009/04/23 16:28:15.5     229   -122    229    260    346 118.0  45.8  34166  289.68 0854.48
2009/04/23 16:28:15.6      -3   -162    139    163    214 181.1  44.8  34164  289.65 0854.48
2009/04/23 16:28:15.7     139   -330    199    359    410 157.1  31.4  34194  290.15 0854.48
2009/04/23 16:28:15.8     206   -244    190    320    372 139.7  33.5  34194  290.15 0854.48
2009/04/23 16:28:15.9     147   -152    192    212    286 135.9  46.9  34190  290.09 0854.48
2009/04/23 16:28:16.0     118   -260    178    286    336 155.5  35.0  34190  290.09 0854.48
2009/04/23 16:28:16.1      90   -234    138    251    286 158.8  31.3  34186  290.02 0854.48
2009/04/23 16:28:16.2      80   -250    123    263    290 162.2  27.1  34186  290.00 0854.48
2009/04/23 16:28:16.3      20   -148    135    150    201 172.0  46.6  34182  289.96 0854.48
2009/04/23 16:28:16.4     176      5    203    177    269  88.1  54.6  34196  290.19 0854.47
2009/04/23 16:28:16.5     163    252    163    301    342  33.0  30.8  34184  289.98 0854.47
2009/04/23 16:28:16.6     145    506     28    527    528  16.1   3.1  34196  290.18 0854.47
2009/04/23 16:28:16.7     273    429    -15    509    510  32.5  -1.8  34222  290.61 0854.47
2009/04/23 16:28:16.8     384    361    -36    528    530  46.8  -3.9  34190  290.07 0854.47
2009/04/23 16:28:16.9     355    295    -83    462    470  50.3 -10.3  34134  289.12 0854.47
2009/04/23 16:28:17.0     502    208   -146    544    564  67.5 -15.1  34168  289.72 0854.47
2009/04/23 16:28:17.1     426    225   -138    483    503  62.1 -16.0  34172  289.78 0854.47
2009/04/23 16:28:17.2     224   -141    -64    265    273 122.2 -13.7  34170  289.75 0854.47
2009/04/23 16:28:17.3     175   -232      5    291    292 143.0   1.0  34188  290.03 0854.47
2009/04/23 16:28:17.4     136   -265     99    299    316 152.8  18.4  34190  290.09 0854.47
2009/04/23 16:28:17.5       7    -99     62    100    117 175.6  35.0  34196  290.18 0854.47
2009/04/23 16:28:17.6     -46    -66    115     81    140 215.2  61.1  34210  290.43 0854.47
2009/04/23 16:28:17.7      15      0    143     16    143  90.0  90.0  34232  290.81 0854.47
2009/04/23 16:28:17.8      -6    -33    188     34    191 191.6  90.0  34224  290.65 0854.47
2009/04/23 16:28:17.9      -9     86    148     87    171 353.8  67.0  34198  290.23 0854.47
2009/04/23 16:28:18.0      32     21     93     39    100  55.8  76.1  34218  290.55 0854.47
2009/04/23 16:28:18.1     127      0     65    128    143  90.0  29.2  34216  290.53 0854.47
2009/04/23 16:28:18.2      53     53    158     75    174  45.0  72.9  34234  290.82 0854.47
2009/04/23 16:28:18.3     -72     10    185     73    198 277.9  77.4  34238  290.91 0854.47
2009/04/23 16:28:18.4     188     82    156    206    258  66.3  40.9  34210  290.41 0854.47
2009/04/23 16:28:18.5      91    185     10    207    208  26.3   2.9  34146  289.35 0854.47
2009/04/23 16:28:18.6    -106    188    -29    216    218 330.6  -7.7  34160  289.57 0854.47
2009/04/23 16:28:18.7     -53     92    108    107    152 330.1  50.1  34174  289.82 0854.47
2009/04/23 16:28:18.8     -17    191    131    192    232 354.7  37.4  34176  289.84 0854.47
2009/04/23 16:28:18.9     -35    203     64    207    217 350.2  17.3  34164  289.63 0854.47
2009/04/23 16:28:19.0     -24    241      7    243    244 354.2   1.8  34164  289.63 0854.47
2009/04/23 16:28:19.1     -25    225     95    227    246 353.5  24.1  34274  291.51 0854.47
2009/04/23 16:28:19.2     -16    220     39    221    225 355.8  10.1  34256  291.20 0854.47
2009/04/23 16:28:19.3    -102    215     86    238    253 334.6  20.4  34182  289.93 0854.47
2009/04/23 16:28:19.4    -107    285     49    305    310 339.3   9.2  34210  290.42 0854.46
2009/04/23 16:28:19.5    -135    173    115    220    248 322.2  29.8  34230  290.76 0854.46
2009/04/23 16:28:19.6    -161    150     78    221    235 312.9  19.6  34208  290.38 0854.46
2009/04/23 16:28:19.7    -164    112     80    199    214 304.4  23.0  34226  290.69 0854.46
2009/04/23 16:28:19.8     -57     50    107     76    131 311.3  61.1  34248  291.06 0854.46
2009/04/23 16:28:19.9       3     -8     80      9     80 154.6  90.0  34260  291.26 0854.46
2009/04/23 16:28:20.0     -19   -135    123    137    184 188.1  46.9  34232  290.81 0854.46
2009/04/23 16:28:20.1     -11   -173    131    174    217 183.8  40.7  34174  289.80 0854.46
2009/04/23 16:28:20.2      20   -115    132    117    176 169.8  54.0  34178  289.89 0854.46
2009/04/23 16:28:20.3     103   -129     91    166    189 141.5  31.3  34168  289.70 0854.46
2009/04/23 16:28:20.4     -13   -197    131    198    237 184.0  36.5  34152  289.45 0854.46
2009/04/23 16:28:20.5      11   -199    170    200    262 176.6  44.8  34146  289.34 0854.46
2009/04/23 16:28:20.6      -7   -190    175    191    259 182.2  47.7  34168  289.71 0854.46
2009/04/23 16:28:20.7      30   -180    145    183    233 170.4  42.7  34168  289.70 0854.46
2009/04/23 16:28:20.8      77   -216    142    230    270 160.4  35.0  34164  289.64 0854.46
2009/04/23 16:28:20.9     -25   -230    105    232    254 186.3  26.2  34168  289.71 0854.46
2009/04/23 16:28:21.0     -52   -196     72    203    215 194.9  20.0  34164  289.63 0854.46
2009/04/23 16:28:21.1     -71   -173     22    188    190 202.5   6.9  34160  289.58 0854.46
2009/04/23 16:28:21.2     -49   -185      9    192    193 195.1   2.9  34166  289.69 0854.46
2009/04/23 16:28:21.3     -41   -160    -19    166    168 194.5  -6.7  34168  289.70 0854.46
2009/04/23 16:28:21.4      15   -145    -35    146    151 173.8 -13.4  34172  289.77 0854.46
2009/04/23 16:28:21.5       0   -106    -36    107    114 180.4 -18.7  34174  289.80 0854.46
2009/04/23 16:28:21.6       8   -140      7    141    142 176.4   2.9  34170  289.74 0854.46
2009/04/23 16:28:21.7     -31   -154     39    158    163 191.5  13.9  34172  289.79 0854.46
2009/04/23 16:28:21.8     -67   -114     39    133    139 210.3  16.3  34176  289.85 0854.46
2009/04/23 16:28:21.9     -86    -85     65    121    137 225.4  30.8  34186  290.02 0854.46
2009/04/23 16:28:22.0    -136    -64     98    151    180 244.8  36.0  34190  290.09 0854.46
2009/04/23 16:28:22.1    -116    -90     69    147    162 232.2  27.0  34182  289.96 0854.46
2009/04/23 16:28:22.2     -68   -107     11    127    128 212.5   5.0  34172  289.79 0854.46
2009/04/23 16:28:22.3     -31   -152     -6    156    157 191.5  -2.3  34174  289.80 0854.46
2009/04/23 16:28:22.4     -50   -110    -11    121    122 204.5  -5.2  34198  290.23 0854.46
2009/04/23 16:28:22.5     -52    -52     49     74     88 225.1  36.5  34198  290.21 0854.46
2009/04/23 16:28:22.6     -47     -5     48     48     67 263.0  50.1  34200  290.25 0854.46
2009/04/23 16:28:22.7       4     -2     60      5     60 122.4  90.0  34202  290.28 0854.46
2009/04/23 16:28:22.8       5    -47     26     48     54 173.8  31.4  34196  290.19 0854.46
2009/04/23 16:28:22.9      63    -71     37     96    102 138.6  22.0  34188  290.04 0854.46
2009/04/23 16:28:23.0      30    -95     88    100    133 162.2  45.9  34188  290.04 0854.46
2009/04/23 16:28:23.1      75   -109    121    133    179 145.3  47.1  34198  290.23 0854.46
2009/04/23 16:28:23.2       4    -57    115     58    128 175.5  71.4  34202  290.28 0854.46
2009/04/23 16:28:23.3       2     44     75     45     87   3.6  65.7  34206  290.35 0854.46
2009/04/23 16:28:23.4      12     -8     67     15     68 126.0  88.0  34208  290.38 0854.47
2009/04/23 16:28:23.5       0    -16     62     17     64 182.7  84.8  34204  290.31 0854.47
2009/04/23 16:28:23.6       2    -79     58     80     98 178.2  39.7  34192  290.11 0854.47
2009/04/23 16:28:23.7      -1    -78    101     79    128 180.9  57.9  34190  290.08 0854.47
2009/04/23 16:28:23.8       0    -91    145     92    171 180.0  64.7  34198  290.21 0854.47
2009/04/23 16:28:23.9     -30     -8     54     32     62 254.9  66.8  34202  290.30 0854.47
2009/04/23 16:28:24.0     -24      4     65     25     69 281.5  78.2  34204  290.31 0854.47
2009/04/23 16:28:24.1     -22   -107    102    110    150 192.0  47.9  34182  289.96 0854.47
2009/04/23 16:28:24.3     120   -233    185    263    321 152.8  38.6  34170  289.73 0854.47
2009/04/23 16:28:24.4     128   -260    145    291    325 153.7  28.4  34166  289.66 0854.47
2009/04/23 16:28:24.5     109   -278     58    299    305 158.4  11.1  34168  289.71 0854.47
2009/04/23 16:28:24.6      49   -204    -35    210    213 166.4  -9.6  34186  290.01 0854.47
2009/04/23 16:28:24.7      27   -189    -66    191    203 171.8 -19.1  34182  289.96 0854.47
2009/04/23 16:28:24.8      77   -208     -1    222    223 159.7  -0.3  34174  289.80 0854.47
2009/04/23 16:28:24.9     178   -211     27    277    279 139.9   5.7  34170  289.75 0854.47
2009/04/23 16:28:25.0     139   -171     18    221    222 141.0   4.9  34160  289.57 0854.47
2009/04/23 16:28:25.1      23   -155     58    157    167 171.5  21.0  34160  289.57 0854.47
2009/04/23 16:28:25.2     120   -136    104    182    209 138.6  32.4  34166  289.67 0854.47
2009/04/23 16:28:25.3      65   -183    155    195    249 160.4  42.7  34166  289.69 0854.47
2009/04/23 16:28:25.4     -24   -313    -45    315    319 184.5  -8.2  34168  289.71 0854.47
2009/04/23 16:28:25.5    -135   -255    -63    289    296 208.0 -12.4  34168  289.71 0854.47
2009/04/23 16:28:25.6     -64   -409     81    415    423 188.9  11.1  34162  289.60 0854.47
2009/04/23 16:28:25.7     -49   -407     49    410    413 186.9   6.9  34162  289.61 0854.47
2009/04/23 16:28:25.8     -13   -298    110    299    318 182.6  21.1  34166  289.66 0854.47
2009/04/23 16:28:25.9     203   -229    141    307    337 138.5  26.5  34164  289.64 0854.47
2009/04/23 16:28:26.0     118   -283     94    307    322 157.3  17.0  34160  289.56 0854.47
2009/04/23 16:28:26.1       2   -258     86    259    274 179.5  18.5  34168  289.70 0854.47
2009/04/23 16:28:26.2    -108   -403     72    418    425 195.1   9.9  34166  289.68 0854.47
2009/04/23 16:28:26.3     -77   -410     20    418    419 190.7   2.8  34164  289.65 0854.47
2009/04/23 16:28:26.4     -58   -413   -149    418    443 188.0 -24.8  34158  289.53 0854.47
2009/04/23 16:28:26.5      49   -401   -124    404    422 173.0 -22.1  34156  289.49 0854.47
2009/04/23 16:28:26.6      61   -327   -112    333    352 169.3 -18.6  34152  289.43 0854.47
2009/04/23 16:28:26.7     -93   -414     17    425    426 192.7   2.4  34162  289.61 0854.47
2009/04/23 16:28:26.8     -35   -451    -33    453    455 184.5  -4.2  34154  289.48 0854.47
2009/04/23 16:28:26.9    -177   -411   -141    448    470 203.3 -17.5  34148  289.36 0854.47
2009/04/23 16:28:27.0    -128   -487    -16    504    505 194.8  -1.9  34146  289.32 0854.47
2009/04/23 16:28:27.1     -69   -491      2    496    497 188.0   0.3  34136  289.18 0854.47
2009/04/23 16:28:27.2      -3   -479    -35    480    482 180.4  -4.2  34136  289.17 0854.47
2009/04/23 16:28:27.3      -1   -446    -81    447    455 180.2 -10.4  34134  289.14 0854.47
2009/04/23 16:28:27.4     -16   -421    -93    422    433 182.3 -12.5  34134  289.12 0854.47
2009/04/23 16:28:27.5     -40   -522    -51    524    527 184.4  -5.6  34134  289.14 0854.46
2009/04/23 16:28:27.6     -59   -585      8    589    590 185.8   0.8  34138  289.19 0854.46
2009/04/23 16:28:27.7     -51   -489    -27    492    493 186.0  -3.2  34140  289.22 0854.46
2009/04/23 16:28:27.8      27   -501     57    502    506 176.9   6.6  34150  289.40 0854.46
2009/04/23 16:28:27.9      45   -496     88    499    507 174.8  10.0  34140  289.23 0854.46
2009/04/23 16:28:28.0       0   -497     60    498    502 180.1   6.9  34138  289.20 0854.46
2009/04/23 16:28:28.1       0   -477     59    478    482 179.9   7.1  34136  289.18 0854.46
2009/04/23 16:28:28.2     -64   -380     38    386    388 189.6   5.7  34144  289.30 0854.46
2009/04/23 16:28:28.3     -40   -375     59    378    383 186.2   8.9  34144  289.30 0854.46
2009/04/23 16:28:28.4     -39   -395      3    397    398 185.7   0.5  34142  289.25 0854.46
2009/04/23 16:28:28.5     -22   -437    -72    438    444 183.0  -9.3  34144  289.29 0854.46
2009/04/23 16:28:28.6      14   -464    -85    465    473 178.2 -10.4  34146  289.32 0854.46
2009/04/23 16:28:28.7     -13   -418    -98    419    431 181.8 -13.3  34146  289.33 0854.46
2009/04/23 16:28:28.8       0   -364    -77    365    374 179.9 -12.0  34144  289.30 0854.46
2009/04/23 16:28:28.9      16   -369    -79    370    379 177.4 -12.2  34142  289.28 0854.46
2009/04/23 16:28:29.0      11   -377    -83    378    388 178.2 -12.5  34142  289.26 0854.46
2009/04/23 16:28:29.1      11   -375    -58    376    381 178.2  -8.8  34148  289.37 0854.46
2009/04/23 16:28:29.2      -3   -358    -56    359    364 180.6  -8.9  34148  289.38 0854.46
2009/04/23 16:28:29.3     -36   -324      8    327    328 186.5   1.5  34154  289.46 0854.46
2009/04/23 16:28:29.4       8   -291     -5    292    293 178.4  -1.2  34152  289.42 0854.46
2009/04/23 16:28:29.5      24   -323    -30    324    326 175.7  -5.4  34150  289.39 0854.46
2009/04/23 16:28:29.6      42   -386    -15    389    390 173.7  -2.2  34146  289.33 0854.46
2009/04/23 16:28:29.7      27   -355      4    356    357 175.6   0.7  34148  289.37 0854.46
2009/04/23 16:28:29.8     -57   -336     23    341    342 189.7   4.0  34156  289.50 0854.46
2009/04/23 16:28:29.9     -97   -233     12    253    254 202.7   2.9  34158  289.54 0854.46
2009/04/23 16:28:30.0     -47   -340    -53    344    349 188.0  -8.9  34154  289.48 0854.46
2009/04/23 16:28:30.1     -15   -349    -44    350    353 182.6  -7.2  34146  289.32 0854.46
2009/04/23 16:28:30.2      -6   -327    -50    328    332 181.2  -8.7  34152  289.43 0854.46
2009/04/23 16:28:30.3      43   -303    -93    307    321 171.9 -16.9  34156  289.51 0854.46
2009/04/23 16:28:30.4     200   -320    -88    378    389 148.0 -13.2  34150  289.40 0854.46
2009/04/23 16:28:30.5     109   -313     34    332    334 160.8   5.9  34148  289.38 0854.46
2009/04/23 16:28:30.6     124   -273    -16    301    302 155.5  -3.2  34148  289.37 0854.46
2009/04/23 16:28:30.7     169   -257    -40    308    311 146.6  -7.5  34148  289.36 0854.46
2009/04/23 16:28:30.8     226   -271     49    354    358 140.2   7.9  34146  289.33 0854.46
2009/04/23 16:28:30.9     194   -236     48    306    310 140.6   9.0  34150  289.39 0854.46
2009/04/23 16:28:31.0     224   -185     76    291    301 129.6  14.7  34152  289.42 0854.46
2009/04/23 16:28:31.1     290   -172     32    338    340 120.7   5.5  34154  289.48 0854.46
2009/04/23 16:28:31.2     292   -160     16    334    335 118.8   2.9  34156  289.52 0854.46
2009/04/23 16:28:31.3     204    -74    -78    218    231 110.0 -24.8  34158  289.53 0854.46
2009/04/23 16:28:31.4     222    -76    -31    235    238 109.1  -7.7  34156  289.49 0854.46
2009/04/23 16:28:31.5     240    -82    -74    254    265 109.1 -16.4  34158  289.53 0854.45
2009/04/23 16:28:31.6     240    -68    -17    250    251 105.9  -3.9  34154  289.46 0854.45
2009/04/23 16:28:31.7     217    -35     22    220    222  99.2   5.9  34154  289.46 0854.45
2009/04/23 16:28:31.8     270    -45     -1    274    275  99.5  -0.3  34154  289.46 0854.45
2009/04/23 16:28:31.9     253    -21      3    254    255  95.0   0.7  34154  289.47 0854.45
2009/04/23 16:28:32.0     236    -17     -9    237    238  94.3  -2.2  34154  289.47 0854.45
2009/04/23 16:28:32.1     203    -38    -18    207    208 100.8  -5.2  34160  289.57 0854.45
2009/04/23 16:28:32.2     163    -45    -43    170    176 105.7 -14.3  34158  289.53 0854.45
2009/04/23 16:28:32.3     172    -41    -17    177    178 103.5  -5.6  34158  289.55 0854.45
2009/04/23 16:28:32.4     159    -51     14    168    169 107.9   4.9  34160  289.57 0854.45
2009/04/23 16:28:32.5     109   -114     66    159    172 136.3  23.8  34158  289.55 0854.45
2009/04/23 16:28:32.6     100    -79     45    128    136 128.6  19.4  34162  289.60 0854.45
2009/04/23 16:28:32.7      50   -113     56    124    136 155.9  26.2  34162  289.60 0854.45
2009/04/23 16:28:32.8       6   -132     75    133    152 177.4  31.9  34162  289.62 0854.45
2009/04/23 16:28:32.9      65   -134    111    150    186 154.1  40.1  34164  289.65 0854.45
2009/04/23 16:28:33.0      72   -175     66    190    202 157.7  19.2  34158  289.53 0854.45
2009/04/23 16:28:33.1     116   -168     71    205    216 145.3  20.0  34156  289.52 0854.45
2009/04/23 16:28:33.2     141   -195     89    241    256 144.2  21.3  34174  289.81 0854.45
2009/04/23 16:28:33.3     121   -276    109    302    321 156.3  20.6  34172  289.76 0854.45
2009/04/23 16:28:33.4      82   -264    123    277    303 162.6  25.7  34176  289.85 0854.45
2009/04/23 16:28:33.5      67   -221     56    232    239 163.1  13.7  34178  289.86 0854.46
2009/04/23 16:28:33.6      75   -224    110    237    261 161.3  26.6  34174  289.80 0854.46
2009/04/23 16:28:33.7      18   -228    102    229    250 175.3  25.7  34176  289.85 0854.46
2009/04/23 16:28:33.8      13   -225    102    226    247 176.6  26.2  34172  289.76 0854.46
2009/04/23 16:28:33.9     -16   -219     75    220    233 184.4  18.9  34168  289.72 0854.46
2009/04/23 16:28:34.0     -38   -233      0    237    238 189.3   0.0  34170  289.73 0854.46
2009/04/23 16:28:34.1     -34   -247     31    250    252 188.0   7.1  34168  289.70 0854.46
2009/04/23 16:28:34.2     -45   -224     67    229    239 191.6  16.3  34166  289.68 0854.46
2009/04/23 16:28:34.3       0   -294     80    295    306 180.0  15.3  34164  289.63 0854.46
2009/04/23 16:28:34.4      82   -364    119    374    393 167.2  17.7  34166  289.67 0854.46
2009/04/23 16:28:34.5      79   -391     98    399    411 168.5  13.8  34176  289.83 0854.46
2009/04/23 16:28:34.6       7   -397    156    398    427 178.9  22.7  34170  289.75 0854.46
2009/04/23 16:28:34.7      -2   -488    187    489    523 180.3  22.0  34178  289.88 0854.46
2009/04/23 16:28:34.8     -48   -445    181    448    483 186.2  23.2  34176  289.84 0854.46
2009/04/23 16:28:34.9     -88   -434    183    443    479 191.5  23.8  34178  289.89 0854.46
2009/04/23 16:28:35.0     -17   -352    132    353    376 182.8  21.5  34172  289.77 0854.46
2009/04/23 16:28:35.1      77   -495     -6    502    503 171.1  -0.7  34172  289.79 0854.46
2009/04/23 16:28:35.2     169   -440     48    472    475 159.0   5.9  34178  289.89 0854.46
2009/04/23 16:28:35.3     165   -373     66    409    415 156.1   9.2  34188  290.04 0854.46
2009/04/23 16:28:35.4     105   -371     98    386    399 164.1  14.3  34172  289.79 0854.46
2009/04/23 16:28:35.5     111   -386     75    402    409 163.9  10.6  34172  289.78 0854.46
2009/04/23 16:28:35.6     122   -379     62    399    404 162.1   8.9  34174  289.82 0854.46
2009/04/23 16:28:35.7     122   -371     17    391    392 161.7   2.5  34174  289.81 0854.46
2009/04/23 16:28:35.8     149   -256    -68    297    305 149.9 -12.9  34176  289.85 0854.46
2009/04/23 16:28:35.9     153   -191    -85    246    261 141.3 -19.1  34176  289.85 0854.46
2009/04/23 16:28:36.0     160   -140     10    213    214 131.1   2.9  34176  289.84 0854.46
2009/04/23 16:28:36.1     159   -163     27    228    230 135.7   6.9  34168  289.72 0854.46
2009/04/23 16:28:36.2     107   -168     51    200    207 147.5  14.3  34170  289.74 0854.46
2009/04/23 16:28:36.3      40   -141     51    147    156 164.0  19.4  34172  289.77 0854.46
2009/04/23 16:28:36.4     -54   -136     97    147    176 201.8  36.5  34178  289.89 0854.46
2009/04/23 16:28:36.5     -17   -390    124    391    411 182.6  17.7  34180  289.90 0854.46
2009/04/23 16:28:36.6    -106   -463     77    475    482 192.9   9.2  34188  290.03 0854.46
2009/04/23 16:28:36.7    -136   -525     -8    543    544 194.5  -0.9  34178  289.87 0854.46
2009/04/23 16:28:36.8    -112   -409     15    425    426 195.3   2.1  34184  289.99 0854.46
2009/04/23 16:28:36.9     -74   -324   -128    333    356 192.9 -26.6  34166  289.69 0854.46
2009/04/23 16:28:37.0    -214   -409    -88    462    471 207.7 -10.8  34188  290.06 0854.46
2009/04/23 16:28:37.1    -214   -371    -77    429    436 210.0 -10.3  34190  290.09 0854.46
2009/04/23 16:28:37.2    -180   -529     37    559    561 198.8   3.8  34186  290.02 0854.46
2009/04/23 16:28:37.3    -168   -500     16    528    529 198.6   1.8  34188  290.06 0854.46
2009/04/23 16:28:37.4    -207   -400    -57    451    455 207.4  -7.2  34180  289.92 0854.46
2009/04/23 16:28:37.5     -91   -462   -111    471    484 191.2 -13.3  34178  289.89 0854.47
2009/04/23 16:28:37.6    -129   -528    -85    544    551 193.8  -8.9  34172  289.79 0854.47
2009/04/23 16:28:37.7    -301   -464   -143    554    573 213.0 -14.5  34174  289.82 0854.47
2009/04/23 16:28:37.8    -288   -402   -175    495    526 215.6 -19.5  34168  289.71 0854.47
2009/04/23 16:28:37.9    -184   -377    -85    420    429 206.1 -11.5  34178  289.87 0854.47
2009/04/23 16:28:38.0    -167   -448    -74    479    485 200.4  -8.9  34188  290.05 0854.47
2009/04/23 16:28:38.1    -128   -421    -72    441    447 196.9  -9.4  34188  290.05 0854.47
2009/04/23 16:28:38.2     -73   -550   -129    555    570 187.6 -13.2  34184  289.97 0854.47
2009/04/23 16:28:38.3      37   -548    -79    550    556 176.1  -8.3  34172  289.79 0854.47
2009/04/23 16:28:38.4       6   -367   -106    368    382 179.0 -20.9  34168  289.72 0854.47
2009/04/23 16:28:38.5      23   -384   -138    385    410 176.5 -19.8  34168  289.72 0854.47
2009/04/23 16:28:38.6      46   -442    -24    445    446 174.0  -3.2  34170  289.73 0854.47
2009/04/23 16:28:38.7      48   -335    -69    339    347 171.8 -11.6  34172  289.77 0854.47
2009/04/23 16:28:38.8      84   -303    -52    315    320 164.4  -9.5  34164  289.63 0854.47
2009/04/23 16:28:38.9      89   -289   -100    303    319 162.8 -23.5  34194  290.15 0854.47
2009/04/23 16:28:39.0      78   -375   -111    384    399 168.2 -20.9  34182  289.93 0854.47
2009/04/23 16:28:39.1     135   -373   -116    397    413 160.1 -21.0  34180  289.90 0854.47
2009/04/23 16:28:39.2     122   -238    -95    268    285 152.9 -19.7  34184  289.97 0854.47
2009/04/23 16:28:39.3     193   -212      1    288    289 137.7   0.2  34166  289.68 0854.47
2009/04/23 16:28:39.4     105   -195      3    222    223 151.7   1.0  34182  289.94 0854.47
2009/04/23 16:28:39.5      26   -103     13    107    108 165.7   7.1  34186  290.02 0854.49
2009/04/23 16:28:39.6       0   -126     63    127    141 180.0  28.2  34184  289.99 0854.49
2009/04/23 16:28:39.7     -31    -24     24     40     46 232.2  34.4  34188  290.06 0854.49
2009/04/23 16:28:39.8       5     56     -2     57     58   5.3  -2.2  34196  290.19 0854.49
2009/04/23 16:28:39.9      -9     -1     30     10     31 258.5  81.0  34202  290.28 0854.49
2009/04/23 16:28:40.0     -13    -23    -13     27     29 210.7 -31.7  34196  290.18 0854.49
2009/04/23 16:28:40.1      -6    -36    -42     37     55 189.8 -58.7  34192  290.11 0854.49
2009/04/23 16:28:40.2      15   -193    -73    194    207 175.5 -25.9  34182  289.94 0854.49
2009/04/23 16:28:40.3      31   -185    -91    188    208 170.2 -31.8  34168  289.70 0854.49
2009/04/23 16:28:40.4     -41   -168    -61    173    183 193.8 -24.4  34170  289.75 0854.49
2009/04/23 16:28:40.5     -23   -174    -23    176    178 187.6  -7.7  34176  289.85 0854.48
2009/04/23 16:28:40.6     -10   -149      7    150    151 184.0   2.8  34176  289.84 0854.48
2009/04/23 16:28:40.7     -10   -129     35    130    135 184.5  15.3  34178  289.89 0854.48
2009/04/23 16:28:40.8     -34   -108     39    114    121 197.4  18.9  34174  289.82 0854.48
2009/04/23 16:28:40.9      78   -164      9    182    183 154.5   2.9  34166  289.69 0854.48
2009/04/23 16:28:41.0     101   -152     33    183    187 146.4  10.3  34162  289.62 0854.48
2009/04/23 16:28:41.1     177    -82     19    196    197 114.8   5.7  34168  289.72 0854.48
2009/04/23 16:28:41.2     157    -52    110    166    199 108.6  36.7  34160  289.58 0854.48
2009/04/23 16:28:41.3      55    -53    158     77    175 134.1  72.4  34176  289.85 0854.48
2009/04/23 16:28:41.4     -48    -35    152     60    163 234.0  77.6  34180  289.91 0854.48
2009/04/23 16:28:41.5      54    -24    115     60    129 114.4  70.8  34170  289.75 0854.48
2009/04/23 16:28:41.6     -19      8    109     21    111 293.5  89.1  34184  289.99 0854.48
2009/04/23 16:28:41.7      30    -60    138     68    153 153.7  72.4  34176  289.85 0854.48
2009/04/23 16:28:41.8     -34    -13    164     37    168 248.3  87.7  34178  289.89 0854.48
2009/04/23 16:28:41.9     -21   -105    186    108    215 191.5  67.2  34172  289.77 0854.48
2009/04/23 16:28:42.0     -64   -173    206    185    276 200.5  53.5  34164  289.63 0854.48
2009/04/23 16:28:42.1     -44   -133    197    141    242 198.5  61.1  34164  289.65 0854.48
2009/04/23 16:28:42.2    -122   -223    176    255    309 208.7  37.6  34158  289.53 0854.48
2009/04/23 16:28:42.3     -77   -193    160    209    263 201.8  41.2  34158  289.53 0854.48
2009/04/23 16:28:42.4    -108   -188    155    218    267 209.9  38.8  34156  289.49 0854.47
2009/04/23 16:28:42.5    -108   -159    175    193    260 214.1  47.0  34158  289.53 0854.47
2009/04/23 16:28:42.6     -33   -161    168    165    235 191.6  50.4  34164  289.63 0854.47
2009/04/23 16:28:42.7     -81   -203    187    219    287 201.8  44.8  34160  289.56 0854.47
2009/04/23 16:28:42.8    -118   -202    173    235    291 210.3  39.9  34156  289.49 0854.47
2009/04/23 16:28:42.9    -161   -245    182    294    345 213.4  34.9  34154  289.48 0854.47
2009/04/23 16:28:43.0    -148   -232    218    276    351 212.5  42.3  34146  289.34 0854.47
2009/04/23 16:28:43.1    -202   -244    281    317    423 219.6  46.1  34146  289.35 0854.47
2009/04/23 16:28:43.2    -299   -287    257    415    488 226.2  34.9  34166  289.67 0854.47
2009/04/23 16:28:43.3    -357   -212    182    416    454 239.3  25.2  34160  289.58 0854.47
2009/04/23 16:28:43.4    -471    -21   -153    472    496 267.4 -23.2  34170  289.73 0854.47
2009/04/23 16:28:43.5    -405   -118   -118    422    439 253.7 -15.7  34164  289.63 0854.47
2009/04/23 16:28:43.6    -248   -274    133    370    393 222.2  20.7  34172  289.79 0854.47
2009/04/23 16:28:43.7    -227   -188     36    295    298 230.4   7.1  34184  289.98 0854.47
2009/04/23 16:28:43.8    -357   -170    -89    396    406 244.5 -12.7  34204  290.33 0854.47
2009/04/23 16:28:43.9    -331    -13    -72    332    340 267.6 -12.3  34192  290.10 0854.47
2009/04/23 16:28:44.0    -438    -76   -150    445    469 260.1 -23.7  34184  289.97 0854.47
2009/04/23 16:28:44.1    -437   -174   -142    471    492 248.3 -16.8  34208  290.40 0854.47
2009/04/23 16:28:44.2    -399     23   -110    400    415 273.4 -15.4  34218  290.56 0854.47
2009/04/23 16:28:44.3    -422    -42   -126    425    444 264.3 -16.5  34204  290.33 0854.47
2009/04/23 16:28:44.4    -426    -45    -85    429    438 263.9 -11.2  34204  290.31 0854.46
2009/04/23 16:28:44.5    -528    -60   -173    532    560 263.5 -18.1  34186  290.01 0854.46
2009/04/23 16:28:44.6    -267   -135   -165    300    342 243.1 -35.7  34182  289.93 0854.46
2009/04/23 16:28:44.7     -54   -246   -126    252    281 192.4 -33.1  34182  289.93 0854.46
2009/04/23 16:28:44.8      35   -282   -130    285    313 172.9 -30.6  34172  289.78 0854.46
2009/04/23 16:28:44.9    -284   -264   -101    389    402 227.1 -14.6  34142  289.25 0854.46
2009/04/23 16:28:45.0    -564   -277   -135    629    644 243.8 -12.2  34156  289.50 0854.46
2009/04/23 16:28:45.1    -582   -193   -218    614    652 251.6 -19.6  34132  289.09 0854.46
2009/04/23 16:28:45.2    -241   -334    -97    413    425 215.8 -13.3  34134  289.14 0854.46
2009/04/23 16:28:45.3    -248   -227     14    337    338 227.6   2.5  34132  289.10 0854.46
2009/04/23 16:28:45.4    -250   -212     -5    329    330 229.7  -0.9  34148  289.37 0854.46
2009/04/23 16:28:45.5    -321   -274   -100    423    435 229.5 -13.4  34138  289.21 0854.46
2009/04/23 16:28:45.6    -463   -183   -138    499    518 248.4 -15.5  34146  289.35 0854.46
2009/04/23 16:28:45.7    -260   -224    -83    344    354 229.2 -13.7  34146  289.32 0854.46
2009/04/23 16:28:45.8    -325   -206    -96    385    397 237.6 -14.1  34154  289.47 0854.46
2009/04/23 16:28:45.9    -507   -189    -69    542    547 249.5  -7.3  34124  288.97 0854.46
2009/04/23 16:28:46.0    -362   -306   -201    475    515 229.8 -28.7  34124  288.95 0854.46
2009/04/23 16:28:46.1    -537    -70   -104    542    553 262.5 -10.9  34128  289.04 0854.46
2009/04/23 16:28:46.2    -328   -117    -23    349    350 250.3  -3.9  34142  289.26 0854.46
2009/04/23 16:28:46.3    -277    -86    -58    291    297 252.7 -11.3  34152  289.44 0854.46
2009/04/23 16:28:46.4    -315    -81    -92    326    339 255.5 -15.9  34146  289.33 0854.46
2009/04/23 16:28:46.5    -126   -264    -79    293    304 205.5 -15.2  34132  289.10 0854.46
2009/04/23 16:28:46.6    -130    -49    113    140    179 249.2  43.3  34154  289.46 0854.46
2009/04/23 16:28:46.7     -91    -23     68     94    116 255.8  39.7  34176  289.84 0854.46
2009/04/23 16:28:46.8    -121    -20    -33    123    128 260.3 -15.4  34156  289.50 0854.46
2009/04/23 16:28:46.9    -410   -258     50    485    488 237.8   5.9  34168  289.71 0854.46
2009/04/23 16:28:47.0     -96    -44    -27    106    110 245.2 -14.5  34136  289.18 0854.46
2009/04/23 16:28:47.1    -179   -323     72    370    378 209.0  11.1  34154  289.47 0854.46
2009/04/23 16:28:47.2    -473   -427   -150    638    656 228.0 -13.3  34110  288.71 0854.46
2009/04/23 16:28:47.3    -524   -388   -222    653    690 233.5 -18.8  34110  288.73 0854.46
2009/04/23 16:28:47.4    -635   -427   -161    766    783 236.1 -11.9  34108  288.68 0854.46
2009/04/23 16:28:47.5    -581   -384    -89    697    703 236.5  -7.3  34114  288.79 0854.46
2009/04/23 16:28:47.6    -473   -397   -103    618    627 230.0  -9.5  34122  288.93 0854.46
2009/04/23 16:28:47.7    -371   -492   -213    617    653 217.0 -19.1  34118  288.87 0854.46
2009/04/23 16:28:47.8    -363   -434   -204    567    603 219.9 -19.8  34120  288.90 0854.46
2009/04/23 16:28:47.9    -282   -414   -189    502    536 214.3 -25.9  34114  288.79 0854.46
2009/04/23 16:28:48.0    -289   -440   -270    527    592 213.3 -33.7  34124  288.95 0854.46
2009/04/23 16:28:48.1    -429   -344   -175    550    577 231.3 -22.8  34124  288.95 0854.46
2009/04/23 16:28:48.2    -537   -303   -105    617    626 240.6  -9.7  34128  289.03 0854.46
2009/04/23 16:28:48.3    -427   -261   -264    501    566 238.5 -34.5  34120  288.91 0854.46
2009/04/23 16:28:48.4    -325   -323   -273    459    534 225.2 -37.9  34124  288.95 0854.46
2009/04/23 16:28:48.5    -213   -378   -213    434    483 209.4 -32.4  34136  289.15 0854.46
2009/04/23 16:28:48.6    -156   -502   -161    526    550 197.3 -21.8  34136  289.18 0854.46
2009/04/23 16:28:48.7    -144   -409   -150    434    459 199.4 -24.3  34112  288.75 0854.46
2009/04/23 16:28:48.8    -105   -317   -190    335    385 198.4 -36.4  34140  289.23 0854.46
2009/04/23 16:28:48.9     -15   -197   -212    198    290 184.5 -56.6  34130  289.07 0854.46
2009/04/23 16:28:49.0      53   -399   -173    403    438 172.3 -29.3  34128  289.02 0854.46
2009/04/23 16:28:49.1     124   -276   -167    303    345 155.7 -35.8  34130  289.06 0854.46
2009/04/23 16:28:49.2     159   -226    -93    277    292 144.8 -23.3  34126  288.98 0854.46
2009/04/23 16:28:49.3      76   -162    -76    180    195 154.7 -28.7  34130  289.08 0854.46
2009/04/23 16:28:49.4     128    -77    -45    150    157 121.1 -16.8  34132  289.09 0854.46
2009/04/23 16:28:49.5     214    -63    112    224    250 106.4  28.2  34138  289.19 0854.46
2009/04/23 16:28:49.6     188   -234    -36    301    304 141.3  -6.9  34138  289.20 0854.46
2009/04/23 16:28:49.7      96   -196    -62    219    228 153.7 -16.0  34128  289.04 0854.46
2009/04/23 16:28:49.8     -35   -207   -122    210    242 189.7 -37.3  34140  289.22 0854.46
2009/04/23 16:28:49.9       0   -200    -93    201    221 180.0 -31.0  34144  289.31 0854.46
2009/04/23 16:28:50.0      24   -176    -86    178    197 172.0 -32.2  34142  289.28 0854.46
2009/04/23 16:28:50.1      28    -60    -84     67    107 154.5 -61.3  34132  289.09 0854.46
2009/04/23 16:28:50.2      18     -5    -49     19     52 108.2 -82.6  34140  289.23 0854.46
2009/04/23 16:28:50.3     105     16     -5    107    108  81.2  -3.1  34136  289.16 0854.46
2009/04/23 16:28:50.5      60     60    -39     85     93  45.1 -31.0  34142  289.26 0854.46
2009/04/23 16:28:50.5      53     51    -15     74     76  45.9 -11.5  34138  289.19 0854.46
2009/04/23 16:28:50.7     113     20     21    115    117  79.9  10.6  34136  289.16 0854.46
2009/04/23 16:28:50.8      92    -99     37    136    142 137.2  15.3  34132  289.09 0854.46
2009/04/23 16:28:50.9      36   -119    -10    125    126 163.0  -4.6  34134  289.13 0854.46
2009/04/23 16:28:51.0      20   -162     92    164    188 172.9  31.6  34136  289.18 0854.46
2009/04/23 16:28:51.1     -22   -289     -5    290    291 184.4  -1.2  34134  289.12 0854.46
2009/04/23 16:28:51.2      62   -305     -6    312    313 168.5  -1.2  34134  289.12 0854.46
2009/04/23 16:28:51.3     106   -322    -13    340    341 161.7  -2.2  34142  289.25 0854.46
2009/04/23 16:28:51.4      35   -309      1    311    312 173.5   0.2  34146  289.34 0854.46
2009/04/23 16:28:51.5      10   -305     65    306    313 178.0  12.0  34154  289.47 0854.46
2009/04/23 16:28:51.6     -67   -349    -39    356    359 190.9  -6.3  34158  289.55 0854.46
2009/04/23 16:28:51.7      28   -392     30    393    395 175.9   4.4  34154  289.47 0854.46
2009/04/23 16:28:51.8     -14   -405    -22    406    407 182.1  -3.2  34160  289.56 0854.46
2009/04/23 16:28:51.9      -5   -340   -101    341    356 180.9 -16.6  34162  289.60 0854.46
2009/04/23 16:28:52.0      10   -301    -66    302    310 178.0 -12.4  34164  289.64 0854.46
2009/04/23 16:28:52.1     113   -283      2    305    306 158.2   0.5  34156  289.51 0854.46
2009/04/23 16:28:52.2      86   -226    -30    243    245 159.1  -7.2  34162  289.61 0854.46
2009/04/23 16:28:52.3      60   -197      8    207    208 163.1   2.3  34160  289.58 0854.46
2009/04/23 16:28:52.4      50   -149     15    158    159 161.5   5.7  34164  289.65 0854.46
2009/04/23 16:28:52.5    -163   -103    -23    194    196 237.6  -6.9  34158  289.55 0854.47
2009/04/23 16:28:52.6    -174   -283     26    333    335 211.5   4.6  34164  289.64 0854.47
2009/04/23 16:28:52.7    -152   -310     35    346    348 206.2   5.8  34162  289.62 0854.47
2009/04/23 16:28:52.8    -191   -327     45    379    382 210.3   6.9  34164  289.65 0854.47
2009/04/23 16:28:52.9    -227   -280     56    361    366 219.0   8.8  34164  289.64 0854.47
2009/04/23 16:28:53.0    -273   -224     63    354    360 230.7  10.2  34164  289.65 0854.47
2009/04/23 16:28:53.1    -231   -217     41    318    321 226.8   7.5  34168  289.71 0854.47
2009/04/23 16:28:53.2    -172   -186    -18    254    255 222.8  -4.1  34146  289.32 0854.47
2009/04/23 16:28:53.3    -187   -212    -25    284    286 221.4  -5.2  34144  289.31 0854.47
2009/04/23 16:28:53.4     -68   -238     -9    248    249 196.0  -2.1  34152  289.42 0854.47
2009/04/23 16:28:53.5     -51   -384    -21    388    389 187.6  -3.2  34152  289.43 0854.47
2009/04/23 16:28:53.6     -55   -351     67    356    363 188.9  10.7  34164  289.64 0854.47
2009/04/23 16:28:53.7       5   -368    103    369    384 179.2  15.7  34194  290.16 0854.47
2009/04/23 16:28:53.8      19   -439     90    440    450 177.4  11.6  34172  289.77 0854.47
2009/04/23 16:28:53.9     -23   -461     30    462    464 182.9   3.8  34174  289.82 0854.47
2009/04/23 16:28:54.0      84   -454     67    462    467 169.5   8.3  34160  289.56 0854.47
2009/04/23 16:28:54.1      59   -569    147    573    592 174.0  14.4  34164  289.64 0854.47
2009/04/23 16:28:54.2     -24   -547    229    548    593 182.6  24.1  34180  289.90 0854.47
2009/04/23 16:28:54.3      28   -464    184    465    500 176.5  22.8  34174  289.81 0854.47
2009/04/23 16:28:54.4      -7   -410    205    411    459 181.0  28.5  34202  290.28 0854.47
2009/04/23 16:28:54.5     -59   -308    208    314    376 190.9  36.7  34178  289.87 0854.48
2009/04/23 16:28:54.6      73   -298     60    307    313 166.2  11.1  34162  289.61 0854.48
2009/04/23 16:28:54.7     150   -170    107    227    250 138.6  27.1  34156  289.49 0854.48
2009/04/23 16:28:54.8     237   -222     50    326    330 133.1   8.8  34160  289.58 0854.48
2009/04/23 16:28:54.9     233   -295     27    377    378 141.7   4.2  34160  289.57 0854.48
2009/04/23 16:28:55.0     103   -334     -7    350    351 162.8  -1.3  34158  289.54 0854.48
2009/04/23 16:28:55.1      43   -346     17    349    350 172.8   2.9  34162  289.62 0854.48
2009/04/23 16:28:55.2      91   -358     80    370    379 165.7  12.3  34174  289.82 0854.48
2009/04/23 16:28:55.3      14   -328    101    329    345 177.4  17.1  34178  289.89 0854.48
2009/04/23 16:28:55.4       6   -410     43    411    414 179.1   6.1  34172  289.77 0854.48
2009/04/23 16:28:55.5       5   -420     25    421    422 179.2   3.5  34176  289.85 0854.48
2009/04/23 16:28:55.6      24   -398    -35    399    401 176.5  -5.1  34174  289.81 0854.48
2009/04/23 16:28:55.7      37   -387     -7    389    390 174.4  -1.2  34180  289.91 0854.48
2009/04/23 16:28:55.8      84   -373     29    383    384 167.3   4.4  34170  289.74 0854.48
2009/04/23 16:28:55.9     120   -319    -40    342    345 159.3  -6.8  34174  289.81 0854.48
2009/04/23 16:28:56.0     162   -287   -114    330    350 150.5 -19.1  34178  289.86 0854.48
2009/04/23 16:28:56.1     177   -304   -114    352    370 149.8 -23.3  34184  289.99 0854.48
2009/04/23 16:28:56.2     150   -289   -108    326    343 152.6 -23.8  34182  289.94 0854.48
2009/04/23 16:28:56.3     100   -315   -160    331    367 162.3 -31.8  34182  289.93 0854.48
2009/04/23 16:28:56.4     147   -302   -106    337    354 154.0 -17.6  34182  289.93 0854.48
2009/04/23 16:28:56.5     143   -325    -64    356    362 156.2 -10.2  34176  289.84 0854.47
2009/04/23 16:28:56.6      84   -221    -74    237    249 159.1 -17.3  34184  289.97 0854.47
2009/04/23 16:28:56.7     118   -180    -70    216    228 146.8 -17.9  34170  289.75 0854.47
2009/04/23 16:28:56.8      83   -177    -45    196    202 154.8 -12.9  34172  289.77 0854.47
2009/04/23 16:28:56.9     114   -127     25    171    173 138.1   8.5  34166  289.67 0854.47
2009/04/23 16:28:57.0      49   -118     98    129    162 157.3  41.2  34174  289.82 0854.47
2009/04/23 16:28:57.1      63    -40    140     75    158 122.5  69.6  34188  290.06 0854.47
2009/04/23 16:28:57.2     -15    -21     93     26     96 216.1  83.9  34192  290.13 0854.47
2009/04/23 16:28:57.3      55    -53    118     77    140 134.1  64.1  34188  290.04 0854.47
2009/04/23 16:28:57.4      98   -111    153    149    213 138.5  50.4  34178  289.89 0854.47
2009/04/23 16:28:57.5     198   -180    219    268    346 132.3  43.7  34154  289.46 0854.47
2009/04/23 16:28:57.6      64    -98    231    118    259 146.6  71.0  34164  289.63 0854.47
2009/04/23 16:28:57.7     240    -79    254    253    358 108.4  50.1  34162  289.61 0854.47
2009/04/23 16:28:57.8     261   -196    289    327    436 126.9  46.1  34148  289.36 0854.47
2009/04/23 16:28:57.9     288   -247    275    380    469 130.6  39.5  34142  289.27 0854.47
2009/04/23 16:28:58.0     124   -246    262    276    380 153.3  48.4  34140  289.23 0854.47
2009/04/23 16:28:58.1     234   -279    132    365    388 140.1  20.7  34146  289.33 0854.47
2009/04/23 16:28:58.2     280   -206    161    348    383 126.4  26.9  34154  289.47 0854.47
2009/04/23 16:28:58.3     359   -158    137    393    417 113.7  19.3  34156  289.51 0854.47
2009/04/23 16:28:58.4     361   -197    110    412    427 118.6  15.0  34150  289.41 0854.47
2009/04/23 16:28:58.5     415   -246     45    483    486 120.7   5.3  34146  289.34 0854.46
2009/04/23 16:28:58.6     446   -273    187    524    556 121.5  20.4  34142  289.26 0854.46
2009/04/23 16:28:58.7     352   -140      2    379    380 111.7   0.4  34162  289.59 0854.46
2009/04/23 16:28:58.8     328   -106     89    345    357 107.9  14.5  34150  289.40 0854.46
2009/04/23 16:28:58.9     167   -214     90    272    287 141.9  18.4  34152  289.42 0854.46
2009/04/23 16:28:59.0     125   -289    123    315    338 156.6  22.5  34154  289.47 0854.46
2009/04/23 16:28:59.1     187   -260    151    321    354 144.2  27.1  34148  289.37 0854.46
2009/04/23 16:28:59.2     221   -287    153    363    393 142.4  24.2  34154  289.48 0854.46
2009/04/23 16:28:59.3     202   -376    164    427    457 151.7  22.1  34154  289.48 0854.46
2009/04/23 16:28:59.4     232   -419    234    480    534 151.0  27.9  34150  289.39 0854.46
2009/04/23 16:28:59.5     322   -441    162    547    571 143.9  16.5  34146  289.35 0854.46
2009/04/23 16:28:59.6     302   -409    123    509    524 143.5  13.7  34150  289.40 0854.46
2009/04/23 16:28:59.7     286   -400    109    492    504 144.4  12.5  34154  289.47 0854.46
2009/04/23 16:28:59.8     352   -361    118    505    519 135.7  13.2  34152  289.44 0854.46
2009/04/23 16:28:59.9     327   -247     77    410    418 127.1  10.7  34160  289.58 0854.46
2009/04/23 16:29:00.0     366   -192     -3    414    415 117.7  -0.5  34156  289.49 0854.46
2009/04/23 16:29:00.1     318   -158    -31    356    358 116.5  -5.1  34156  289.50 0854.46
2009/04/23 16:29:00.2     199   -179    -44    268    272 132.0  -9.3  34158  289.54 0854.46
2009/04/23 16:29:00.3     162   -103    -24    193    195 122.4  -7.3  34152  289.45 0854.46
2009/04/23 16:29:00.4     100   -112     58    151    161 138.1  22.0  34160  289.58 0854.46
2009/04/23 16:29:00.5     149   -145     47    208    214 134.2  12.9  34158  289.55 0854.46
2009/04/23 16:29:00.6     142   -102     61    175    186 125.7  19.2  34160  289.58 0854.46
2009/04/23 16:29:00.7     147    -48     51    155    164 108.2  18.1  34158  289.53 0854.46
2009/04/23 16:29:00.8     220    -52     -9    227    228 103.3  -2.3  34158  289.55 0854.46
2009/04/23 16:29:00.9     213   -128    -17    249    250 121.1  -3.9  34160  289.56 0854.46
2009/04/23 16:29:01.0     241   -253     28    350    352 136.5   4.7  34150  289.40 0854.46
2009/04/23 16:29:01.1     308   -109   -114    328    348 109.6 -19.3  34146  289.33 0854.46
2009/04/23 16:29:01.2     -26   -153     21    156    158 189.8   7.8  34136  289.18 0854.46
2009/04/23 16:29:01.3      17   -225     75    226    239 175.5  18.4  34152  289.42 0854.46
2009/04/23 16:29:01.4      78   -153     52    172    180 152.8  17.1  34152  289.43 0854.46
2009/04/23 16:29:01.5     -39     -7    -60     40     72 259.4 -68.0  34152  289.45 0854.45
2009/04/23 16:29:01.6     -91      0     17     92     94 269.6  11.0  34160  289.57 0854.45
2009/04/23 16:29:01.7     -86    -20    -14     89     91 256.7  -9.3  34148  289.36 0854.45
2009/04/23 16:29:01.8    -123    -97    -58    157    167 231.8 -25.4  34140  289.24 0854.45
2009/04/23 16:29:01.9    -103    -54    -90    117    147 242.5 -46.1  34142  289.26 0854.45
2009/04/23 16:29:02.0      59    -93   -120    111    163 147.4 -56.6  34150  289.41 0854.45
2009/04/23 16:29:02.1     146   -130    -66    196    206 131.8 -23.3  34138  289.21 0854.45
2009/04/23 16:29:02.2     184   -153    -31    240    243 129.6  -7.5  34142  289.27 0854.45
2009/04/23 16:29:02.3     280   -158     30    322    324 119.5   5.3  34142  289.25 0854.45
2009/04/23 16:29:02.4     243    -78    -34    256    259 107.8  -7.7  34144  289.31 0854.45
2009/04/23 16:29:02.5      42     51   -117     67    134  39.6 -71.6  34144  289.31 0854.45
2009/04/23 16:29:02.6     -59     71   -159     93    184 320.4 -71.4  34148  289.38 0854.45
2009/04/23 16:29:02.7     -93     87    -91    128    157 313.1 -43.5  34148  289.36 0854.45
2009/04/23 16:29:02.8       0    -95   -111     96    146 180.0 -59.2  34152  289.43 0854.45
2009/04/23 16:29:02.9      -7   -102    -43    103    111 184.0 -28.0  34150  289.41 0854.45
2009/04/23 16:29:03.0       8    -77     77     78    109 173.8  50.5  34152  289.45 0854.45
2009/04/23 16:29:03.1     -23   -114    167    117    203 191.6  61.8  34154  289.48 0854.45
2009/04/23 16:29:03.2     -75    124    148    146    207 328.8  50.1  34170  289.74 0854.45
2009/04/23 16:29:03.3     -69     55    139     89    165 308.6  64.6  34164  289.65 0854.45
2009/04/23 16:29:03.4     -14     -4    171     15    171 251.6  90.0  34158  289.55 0854.45
2009/04/23 16:29:03.5       5    -76    214     77    227 175.6  79.5  34164  289.63 0854.43
2009/04/23 16:29:03.6     -66   -200    175    211    274 198.5  43.8  34150  289.41 0854.43
2009/04/23 16:29:03.7     -46   -213    236    219    321 192.3  52.3  34150  289.41 0854.43
2009/04/23 16:29:03.8      16    -32    121     37    126 152.8  82.3  34168  289.72 0854.43
2009/04/23 16:29:03.9     120    -52     67    131    147 113.6  29.2  34148  289.36 0854.43
2009/04/23 16:29:04.0     197     22     47    199    205  83.6  13.5  34146  289.33 0854.43
2009/04/23 16:29:04.1     180    -45    116    186    219 104.2  35.2  34144  289.30 0854.43
2009/04/23 16:29:04.2     191     10    138    192    236  87.0  39.3  34146  289.33 0854.43
2009/04/23 16:29:04.3     222    -15    125    223    255  93.9  31.6  34146  289.34 0854.43
2009/04/23 16:29:04.4     155    -31     35    159    163 101.5  12.6  34148  289.36 0854.43
2009/04/23 16:29:04.5     167   -147     94    223    242 131.3  24.1  34144  289.31 0854.43
2009/04/23 16:29:04.6     216   -229    110    316    335 136.7  19.3  34142  289.25 0854.43
2009/04/23 16:29:04.7     199   -126    247    236    341 122.5  51.5  34150  289.39 0854.43
2009/04/23 16:29:04.8     266    -76    191    277    336 106.0  38.0  34144  289.31 0854.43
2009/04/23 16:29:04.9     187    -98    210    212    298 117.8  50.0  34158  289.53 0854.43
2009/04/23 16:29:05.0     157   -104    191    189    268 123.5  50.1  34150  289.39 0854.43
2009/04/23 16:29:05.1     219   -134    186    257    317 121.5  39.5  34146  289.34 0854.43
2009/04/23 16:29:05.2     -21   -270    263    271    377 184.5  49.2  34138  289.21 0854.43
2009/04/23 16:29:05.3      -4   -351    319    352    475 180.7  46.9  34152  289.44 0854.43
2009/04/23 16:29:05.4     -84   -324    184    335    382 194.7  31.3  34148  289.37 0854.43
2009/04/23 16:29:05.5     -87   -399     87    409    419 192.4  12.0  34144  289.29 0854.40
2009/04/23 16:29:05.6     -70   -309    112    317    336 192.9  20.2  34144  289.30 0854.40
2009/04/23 16:29:05.7      11   -117    146    118    187 174.2  56.6  34152  289.45 0854.40
2009/04/23 16:29:05.8      63   -136    204    150    253 155.1  60.3  34148  289.36 0854.40
2009/04/23 16:29:05.9     111   -211    236    239    335 152.1  49.8  34154  289.46 0854.40
2009/04/23 16:29:06.0      99   -379    181    392    431 165.3  26.5  34150  289.39 0854.40
2009/04/23 16:29:06.1      65   -262     95    271    288 166.0  19.4  34148  289.36 0854.40
2009/04/23 16:29:06.2      75   -157    121    175    212 154.4  37.8  34148  289.38 0854.40
2009/04/23 16:29:06.3      98   -185    149    210    257 152.1  38.8  34150  289.39 0854.40
2009/04/23 16:29:06.4      50   -251    197    256    323 168.7  41.5  34148  289.36 0854.40
2009/04/23 16:29:06.5     107   -267    260    288    388 158.2  46.9  34152  289.43 0854.40
2009/04/23 16:29:06.6     125   -418    186    437    474 163.4  24.5  34172  289.77 0854.40
2009/04/23 16:29:06.7      94   -482    278    492    565 168.9  32.0  34160  289.58 0854.40
2009/04/23 16:29:06.8      80   -403    162    412    442 168.7  22.8  34160  289.58 0854.40
2009/04/23 16:29:06.9      68   -352    140    359    385 169.0  22.4  34156  289.52 0854.40
2009/04/23 16:29:07.0      61   -262    134    270    301 166.9  28.2  34156  289.51 0854.40
2009/04/23 16:29:07.1      54   -164    -18    173    174 161.5  -6.0  34156  289.50 0854.40
2009/04/23 16:29:07.2      76   -162    -22    180    182 154.8  -7.2  34158  289.55 0854.40
2009/04/23 16:29:07.3      69   -160      0    175    176 156.6  -0.3  34158  289.53 0854.40
2009/04/23 16:29:07.4      63   -153     27    166    169 157.5   9.5  34156  289.52 0854.40
2009/04/23 16:29:07.5      48   -135    -18    144    146 160.4  -7.2  34156  289.52 0854.42
2009/04/23 16:29:07.6      81    -80     13    114    115 134.6   6.9  34158  289.53 0854.42
2009/04/23 16:29:07.7     123     15     68    124    141  83.0  31.3  34158  289.53 0854.42
2009/04/23 16:29:07.8     107     68     38    127    133  57.6  16.8  34158  289.53 0854.42
2009/04/23 16:29:07.9      90     77     53    119    130  49.6  25.7  34156  289.52 0854.42
2009/04/23 16:29:08.0      24     33     32     42     52  36.1  42.7  34164  289.65 0854.42
2009/04/23 16:29:08.1       3     13     -1     14     15  15.1  -7.3  34158  289.53 0854.42
2009/04/23 16:29:08.2       6      2      0      7      8  64.7  -2.2  34156  289.52 0854.42
2009/04/23 16:29:08.3      29     -4     -3     30     31  97.9  -7.3  34158  289.53 0854.42
2009/04/23 16:29:08.4      69    -24     22     74     78 109.1  16.8  34164  289.65 0854.42
2009/04/23 16:29:08.5      83   -100    127    131    182 140.4  49.2  34158  289.55 0854.42
2009/04/23 16:29:08.6      24   -175    164    177    241 172.0  47.9  34158  289.55 0854.42
2009/04/23 16:29:08.7      31   -156    118    160    198 168.5  40.1  34150  289.41 0854.42
2009/04/23 16:29:08.8      24    -54    115     60    129 156.4  70.8  34152  289.43 0854.42
2009/04/23 16:29:08.9      37     58    118     69    136  32.6  66.8  34162  289.62 0854.42
2009/04/23 16:29:09.0      -1    -62    170     63    181 181.8  78.9  34152  289.45 0854.42
2009/04/23 16:29:09.1       0   -137    182    138    228 180.4  59.0  34152  289.45 0854.42
2009/04/23 16:29:09.2      34   -164    188    168    252 168.2  53.5  34152  289.45 0854.42
2009/04/23 16:29:09.3      25   -128    161    131    207 168.9  56.4  34154  289.48 0854.42
2009/04/23 16:29:09.4      21   -124    154    126    198 170.2  56.4  34174  289.80 0854.41
2009/04/23 16:29:09.5     -68   -143    114    159    195 205.4  39.3  34164  289.65 0854.41
2009/04/23 16:29:09.6     -83    -91    110    124    165 222.3  46.4  34164  289.65 0854.41
2009/04/23 16:29:09.7    -160    -41     77    166    182 255.4  26.6  34160  289.58 0854.41
2009/04/23 16:29:09.8     -82   -139    152    162    222 210.7  48.0  34154  289.46 0854.41
2009/04/23 16:29:09.9     -91   -259     73    275    285 199.4  15.0  34142  289.27 0854.41
2009/04/23 16:29:10.0     -89   -137     97    164    190 213.2  33.5  34150  289.41 0854.41
2009/04/23 16:29:10.1    -125   -133    180    183    256 223.2  49.4  34168  289.70 0854.41
2009/04/23 16:29:10.2    -293   -167     69    338    346 240.2  11.6  34148  289.37 0854.41
2009/04/23 16:29:10.3    -270    -95     84    287    300 250.5  16.3  34154  289.47 0854.41
2009/04/23 16:29:10.4    -288    -78     37    299    302 254.7   7.1  34156  289.51 0854.41
2009/04/23 16:29:10.5    -261   -132    114    293    314 243.1  22.3  34150  289.41 0854.41
2009/04/23 16:29:10.6    -154    133    217    204    297 310.9  52.1  34164  289.63 0854.41
2009/04/23 16:29:10.7       0     88    168     89    190   0.5  70.0  34186  290.02 0854.41
2009/04/23 16:29:10.8       2      1    144      3    144  57.6  90.0  34194  290.16 0854.41
2009/04/23 16:29:10.9     177    -99    141    203    247 119.3  38.4  34166  289.66 0854.41
2009/04/23 16:29:11.0     184   -259    127    318    342 144.6  23.0  34140  289.23 0854.41
2009/04/23 16:29:11.1       6   -228    197    229    302 178.4  45.4  34144  289.29 0854.41
2009/04/23 16:29:11.2      20   -319    131    320    345 176.4  23.5  34154  289.47 0854.41
2009/04/23 16:29:11.3      35   -367     10    369    370 174.4   1.6  34150  289.40 0854.41
2009/04/23 16:29:11.4     -46   -204     49    210    216 192.7  13.2  34148  289.36 0854.40
2009/04/23 16:29:11.5     -53   -225    123    232    262 193.4  30.3  34152  289.44 0854.40
2009/04/23 16:29:11.6      53   -171     -7    180    181 162.6  -2.2  34148  289.38 0854.40
2009/04/23 16:29:11.7      75   -174     30    190    193 156.6   9.0  34142  289.28 0854.40
2009/04/23 16:29:11.8     167   -222      8    278    279 143.0   1.7  34130  289.07 0854.40
2009/04/23 16:29:11.9     152   -256     -6    298    299 149.2  -1.3  34122  288.92 0854.40
2009/04/23 16:29:12.0     141   -182     49    231    237 142.2  12.0  34126  288.98 0854.40
2009/04/23 16:29:12.1     118   -224     40    254    258 152.1   9.0  34130  289.07 0854.40
2009/04/23 16:29:12.2     126   -177     34    218    221 144.4   8.9  34130  289.06 0854.40
2009/04/23 16:29:12.3      95   -124     94    157    182 142.6  34.0  34136  289.16 0854.40
2009/04/23 16:29:12.4     132   -213    105    251    272 148.3  24.1  34124  288.97 0854.40
2009/04/23 16:29:12.5      71   -201    106    214    238 160.6  28.2  34128  289.04 0854.40
2009/04/23 16:29:12.6      39   -194    137    199    241 168.4  37.8  34130  289.06 0854.40
2009/04/23 16:29:12.7      79   -171     90    189    209 155.3  27.2  34134  289.14 0854.40
2009/04/23 16:29:12.8      67   -188     20    200    202 160.2   5.9  34138  289.21 0854.40
2009/04/23 16:29:12.9      94   -148     86    176    195 147.5  28.0  34142  289.28 0854.40
2009/04/23 16:29:13.0     167    -62     60    179    189 110.4  18.6  34152  289.43 0854.40
2009/04/23 16:29:13.1     126   -158     57    203    212 141.5  15.8  34146  289.35 0854.40
2009/04/23 16:29:13.2     116   -123     73    170    185 136.6  24.6  34140  289.24 0854.40
2009/04/23 16:29:13.3     174    -35    147    178    230 101.5  43.7  34156  289.50 0854.40
2009/04/23 16:29:13.4     133     -6    156    134    205  92.6  55.0  34158  289.55 0854.39
2009/04/23 16:29:13.5     153    -34    139    157    209 102.8  45.9  34172  289.77 0854.39
2009/04/23 16:29:13.6     103     45    145    113    183  66.5  58.2  34180  289.92 0854.39
2009/04/23 16:29:13.7      72     59    130     94    160  50.4  60.5  34178  289.89 0854.39
2009/04/23 16:29:13.8      73     46    108     87    138  58.0  56.9  34218  290.55 0854.39
2009/04/23 16:29:13.9     105     71     91    127    156  55.8  39.1  34238  290.89 0854.39
2009/04/23 16:29:14.0      34     45    122     57    134  37.8  73.1  34258  291.23 0854.39
2009/04/23 16:29:14.1     -24    121    119    124    171 348.5  49.0  34224  290.67 0854.39
2009/04/23 16:29:14.2     -40     82     79     92    121 333.7  45.4  34214  290.48 0854.39
2009/04/23 16:29:14.3     -65     41     50     78     92 302.4  35.6  34192  290.13 0854.39
2009/04/23 16:29:14.4     -84     51     59     99    115 301.5  34.4  34190  290.09 0854.39
2009/04/23 16:29:14.5     -88     74     39    116    123 310.0  18.9  34190  290.09 0854.39
2009/04/23 16:29:14.6     -53     53     -9     75     76 315.0  -7.2  34178  289.87 0854.39
2009/04/23 16:29:14.7     -39     42    -38     58     69 316.8 -40.0  34180  289.92 0854.39
2009/04/23 16:29:14.8       6     82    -44     83     93   4.4 -34.7  34188  290.04 0854.39
2009/04/23 16:29:14.9      13     97    -33     98    104   8.0 -19.1  34184  289.99 0854.39
2009/04/23 16:29:15.0      18    107    -13    109    110   9.8  -7.2  34184  289.99 0854.39
2009/04/23 16:29:15.1      23    117     32    120    125  11.5  15.3  34182  289.94 0854.39
2009/04/23 16:29:15.2      22    113     64    116    132  11.1  31.4  34178  289.87 0854.39
2009/04/23 16:29:15.3      58    105     45    121    129  29.0  21.0  34194  290.14 0854.39
2009/04/23 16:29:15.4     135    114      0    177    178  49.8   0.0  34222  290.62 0854.39
2009/04/23 16:29:15.5     139     20    137    141    196  81.6  49.2  34300  291.96 0854.39
2009/04/23 16:29:15.6      46     97    143    108    179  25.5  59.4  34258  291.25 0854.39
2009/04/23 16:29:15.7      36     75    153     84    174  25.9  68.8  34296  291.88 0854.39
2009/04/23 16:29:15.8     -20    142     65    144    157 352.0  25.7  34262  291.32 0854.39
2009/04/23 16:29:15.9     -18    117    -96    119    152 351.1 -48.1  34234  290.82 0854.39
2009/04/23 16:29:16.0     106    150    -21    184    186  35.4  -6.7  34228  290.72 0854.39
2009/04/23 16:29:16.1     106    178    128    208    244  30.7  34.5  34314  292.18 0854.39
2009/04/23 16:29:16.2     126    129     10    181    182  44.3   3.3  34286  291.71 0854.39
2009/04/23 16:29:16.3     213    102    -16    237    238  64.5  -3.9  34220  290.58 0854.39
2009/04/23 16:29:16.4     188    129    -28    229    231  55.6  -7.2  34218  290.57 0854.39
2009/04/23 16:29:16.5     169    173   -104    243    264  44.3 -29.0  34214  290.49 0854.39
2009/04/23 16:29:16.6     194    177    -95    263    279  47.6 -25.3  34202  290.27 0854.39
2009/04/23 16:29:16.7     158    179   -139    239    276  41.4 -37.3  34176  289.85 0854.39
2009/04/23 16:29:16.8     144    156   -210    213    299  42.8 -54.3  34178  289.86 0854.39
2009/04/23 16:29:17.0     134    146   -207    199    287  42.5 -55.6  34202  290.29 0854.39
2009/04/23 16:29:17.0     135    123   -136    183    228  47.6 -44.5  34180  289.92 0854.39
2009/04/23 16:29:17.1      24     52   -116     58    129  25.3 -75.8  34176  289.85 0854.39
2009/04/23 16:29:17.3      54     -7    -48     55     73  97.9 -50.2  34188  290.06 0854.39
2009/04/23 16:29:17.4      73    -24    -76     77    108 108.2 -54.9  34196  290.18 0854.39
2009/04/23 16:29:17.5     131     -5   -132    132    186  92.6 -54.5  34194  290.16 0854.33
2009/04/23 16:29:17.6     141     19   -108    143    179  82.1 -45.1  34162  289.60 0854.33
2009/04/23 16:29:17.7     119     11   -116    120    166  84.3 -53.6  34174  289.82 0854.33
2009/04/23 16:29:17.8      91     58    -89    108    139  57.5 -48.1  34208  290.38 0854.33
2009/04/23 16:29:17.9      45     62    -77     77    108  36.0 -54.5  34218  290.55 0854.33
2009/04/23 16:29:18.0       4   -151    -49     69     84 360.0 -43.0  34212  290.47 0854.33
2009/04/23 16:29:18.1      -3     61    -18     62     65 356.4 -16.6  34220  290.60 0854.33
2009/04/23 16:29:18.2       2      7    -18      8     19  18.7 -81.5  34226  290.70 0854.33
2009/04/23 16:29:18.3      16    -13    -16     21     26 129.5 -46.1  34234  290.84 0854.33
2009/04/23 16:29:18.4      54     17     -2     57     58  72.3  -2.2  34226  290.69 0854.33
2009/04/23 16:29:18.5      83      0      9     84     85  90.0   6.5  34206  290.36 0854.33
2009/04/23 16:29:18.6     111     26     76    115    137  76.7  36.5  34172  289.79 0854.33
2009/04/23 16:29:18.7     145    -24     14    148    149  99.6   5.4  34174  289.80 0854.33
2009/04/23 16:29:18.8     130      3     30    131    135  88.3  13.2  34180  289.91 0854.33
2009/04/23 16:29:18.9      49    135     81    144    165  20.0  31.9  34180  289.92 0854.33
2009/04/23 16:29:19.0      16    258    112    259    282   3.6  24.9  34202  290.27 0854.33
2009/04/23 16:29:19.1      28    257     67    259    268   6.2  14.5  34194  290.15 0854.33
2009/04/23 16:29:19.2     148    352     25    382    383  22.8   3.8  34226  290.69 0854.33
2009/04/23 16:29:19.3      86    320     71    332    340  15.1  12.1  34254  291.18 0854.33
2009/04/23 16:29:19.4     111    359     68    376    383  17.2  10.4  34258  291.25 0854.33
2009/04/23 16:29:19.5      26    393    105    394    408   3.9  15.0  34250  291.11 0854.35
2009/04/23 16:29:19.6     225    226     41    320    323  44.9   7.5  34232  290.78 0854.35
2009/04/23 16:29:19.7     122    379    138    399    423  17.9  19.1  34304  292.01 0854.35
2009/04/23 16:29:19.8     127    337    187    361    406  20.7  29.5  34328  292.41 0854.35
2009/04/23 16:29:19.9     105    311    134    329    355  18.7  23.4  34344  292.71 0854.35
2009/04/23 16:29:20.0      70    297     59    306    312  13.4  11.0  34352  292.82 0854.35
2009/04/23 16:29:20.1     111    252     86    276    290  23.8  17.4  34334  292.53 0854.35
2009/04/23 16:29:20.2      57    307     63    313    320  10.6  11.5  34324  292.36 0854.35
2009/04/23 16:29:20.3      18    336     72    337    345   3.1  12.1  34280  291.61 0854.35
2009/04/23 16:29:20.4     151    210    122    259    286  35.8  27.1  34218  290.54 0854.35
2009/04/23 16:29:20.5     185    223     46    291    295  39.7   9.0  34224  290.66 0854.35
2009/04/23 16:29:20.6     103    248    131    269    299  22.7  27.8  34296  291.89 0854.35
2009/04/23 16:29:20.7     182    164    259    246    357  48.0  51.6  34326  292.38 0854.35
2009/04/23 16:29:20.8     174    266     68    318    326  33.2  12.1  34334  292.53 0854.35
2009/04/23 16:29:20.9     140    273     20    307    308  27.2   3.9  34310  292.13 0854.35
2009/04/23 16:29:21.0      79    231    -70    245    255  18.9 -16.0  34308  292.09 0854.35
2009/04/23 16:29:21.1     191    191   -189    271    330  45.1 -42.7  34218  290.56 0854.35
2009/04/23 16:29:21.2     144    259   -123    297    321  29.0 -28.2  34220  290.58 0854.35
2009/04/23 16:29:21.3      90    237      7    254    255  20.9   1.7  34204  290.31 0854.35
2009/04/23 16:29:21.4     146    192     84    242    257  37.2  19.2  34192  290.10 0854.35
2009/04/23 16:29:21.5     168    193    140    256    291  41.0  31.3  34190  290.09 0854.34
2009/04/23 16:29:21.6     166    153    129    226    260  47.3  32.3  34184  289.97 0854.34
2009/04/23 16:29:21.7     208     21    123    210    243  84.1  33.1  34192  290.10 0854.34
2009/04/23 16:29:21.8     190     14   -127    191    229  85.7 -41.1  34194  290.16 0854.34
2009/04/23 16:29:21.9     188     42    -66    193    205  77.2 -19.1  34206  290.36 0854.34
2009/04/23 16:29:22.0     190     68    -33    202    205  70.3  -9.3  34228  290.72 0854.34
2009/04/23 16:29:22.1     270     31      2    272    273  83.4   0.5  34204  290.31 0854.34
2009/04/23 16:29:22.2     331     22     16    332    333  86.1   2.9  34180  289.91 0854.34
2009/04/23 16:29:22.3     284    -16     14    285    286  93.3   2.9  34138  289.20 0854.34
2009/04/23 16:29:22.4     220     15    160    221    272  86.1  39.5  34120  288.90 0854.34
2009/04/23 16:29:22.5     158    157    177    223    284  45.2  42.7  34102  288.59 0854.35
2009/04/23 16:29:22.6      51    276    173    281    329  10.6  34.8  34108  288.70 0854.35
2009/04/23 16:29:22.7      57    285    122    291    315  11.5  24.1  34112  288.76 0854.35
2009/04/23 16:29:22.8      42     93    135    103    169  24.5  58.7  34142  289.26 0854.35
2009/04/23 16:29:22.9      33     93    184     99    208  20.0  69.6  34158  289.55 0854.35
2009/04/23 16:29:23.0     294    255    180    390    429  49.1  26.5  34182  289.95 0854.35
2009/04/23 16:29:23.1     146    282    223    318    388  27.4  38.5  34184  289.98 0854.35
2009/04/23 16:29:23.2     229    151    265    275    381  56.7  48.8  34182  289.94 0854.35
2009/04/23 16:29:23.3     350    115    326    369    492  71.8  45.9  34182  289.94 0854.35
2009/04/23 16:29:23.4     216    230     55    316    321  43.2   9.9  34176  289.85 0854.35
2009/04/23 16:29:23.5     403    276    222    489    537  55.6  26.2  34152  289.43 0854.35
2009/04/23 16:29:23.6     431    201    184    476    510  64.9  22.3  34140  289.23 0854.35
2009/04/23 16:29:23.7     318    131    188    344    392  67.6  31.0  34152  289.43 0854.35
2009/04/23 16:29:23.8     345    114    179    364    405  71.6  28.2  34146  289.32 0854.35
2009/04/23 16:29:23.9     304     27    158    306    344  84.8  29.4  34178  289.87 0854.35
2009/04/23 16:29:24.0     257     88    177    272    324  70.9  36.0  34162  289.61 0854.35
2009/04/23 16:29:24.1     258     19    235    259    349  85.6  47.0  34126  289.00 0854.35
2009/04/23 16:29:24.2      83     40    239     93    256  64.2  77.6  34166  289.69 0854.35
2009/04/23 16:29:24.3      33     32    197     47    202  46.0  86.9  34166  289.69 0854.35
2009/04/23 16:29:24.4     135     -8    205    136    246  93.5  63.6  34178  289.87 0854.35
2009/04/23 16:29:24.5      87     -6    102     88    134  94.4  54.8  34176  289.84 0854.35
2009/04/23 16:29:24.6     153     97    135    182    226  57.6  40.1  34206  290.35 0854.35
2009/04/23 16:29:24.7     131     37    108    137    174  74.1  42.4  34184  289.99 0854.35
2009/04/23 16:29:24.8     126     30    102    130    165  76.3  42.2  34190  290.08 0854.35
2009/04/23 16:29:24.9     230    -14    153    231    277  93.5  36.7  34182  289.93 0854.35
2009/04/23 16:29:25.0     265   -126    102    294    312 115.4  19.2  34182  289.93 0854.35
2009/04/23 16:29:25.1     302      0    -60    303    310  90.0 -11.3  34178  289.88 0854.35
2009/04/23 16:29:25.2     360     52     15    364    365  81.7   2.5  34184  289.99 0854.35
2009/04/23 16:29:25.3     281     -8    -55    282    288  91.7 -11.1  34194  290.14 0854.35
2009/04/23 16:29:25.4     443    166    162    474    502  69.4  18.9  34166  289.66 0854.35
2009/04/23 16:29:25.5     447     90    196    457    497  78.6  24.6  34216  290.52 0854.35
2009/04/23 16:29:25.6     328    109    167    346    384  71.6  27.3  34146  289.33 0854.35
2009/04/23 16:29:25.7     465    105    228    477    528  77.2  27.3  34168  289.71 0854.35
2009/04/23 16:29:25.8     247    -49     94    252    268 101.4  21.3  34202  290.27 0854.35
2009/04/23 16:29:25.9     313     24    111    315    335  85.5  19.5  34204  290.32 0854.35
2009/04/23 16:29:26.0     378     28    187    379    422  85.7  28.2  34210  290.41 0854.35
2009/04/23 16:29:26.1     311    -43    135    315    342  98.0  24.6  34204  290.32 0854.35
2009/04/23 16:29:26.2     288    -37     53    291    296  97.5  10.3  34200  290.24 0854.35
2009/04/23 16:29:26.3     310    -48    109    314    333  98.8  19.2  34214  290.48 0854.35
2009/04/23 16:29:26.4     222      3     78    223    236  89.2  20.0  34208  290.40 0854.35
2009/04/23 16:29:26.5     240    -77    129    253    283 107.9  29.2  34214  290.49 0854.32
2009/04/23 16:29:26.6     157    -59    101    168    196 110.6  33.7  34214  290.48 0854.32
2009/04/23 16:29:26.7     184    -25    116    186    219  98.0  35.2  34216  290.52 0854.32
2009/04/23 16:29:26.8     164      0    133    165    211  90.0  43.5  34224  290.65 0854.32
2009/04/23 16:29:26.9     156    -58     69    167    180 110.6  23.6  34208  290.38 0854.32
2009/04/23 16:29:27.0     198    -37     55    202    210 100.6  15.3  34208  290.38 0854.32
2009/04/23 16:29:27.1     166     -3     64    167    178  91.3  22.0  34212  290.45 0854.32
2009/04/23 16:29:27.2     201    -31    112    204    232  98.8  31.4  34210  290.41 0854.32
2009/04/23 16:29:27.3     144    -12     90    145    170  94.8  35.0  34212  290.45 0854.32
2009/04/23 16:29:27.4     225     -3     90    226    243  90.8  22.8  34210  290.41 0854.32
2009/04/23 16:29:27.5     267    -12    109    268    289  92.6  23.1  34204  290.32 0854.32
2009/04/23 16:29:27.6     209    -45    164    214    269 102.2  41.6  34214  290.48 0854.32
2009/04/23 16:29:27.7     208    -57    154    216    265 105.5  39.3  34222  290.63 0854.32
2009/04/23 16:29:27.8      77   -121    118    144    186 147.4  43.7  34242  290.96 0854.32
2009/04/23 16:29:27.9      68   -179     81    192    208 159.1  24.1  34238  290.91 0854.32
2009/04/23 16:29:28.0      44   -180    158    186    244 166.2  44.8  34256  291.20 0854.32
2009/04/23 16:29:28.1      24   -211    189    213    284 173.5  45.9  34262  291.31 0854.32
2009/04/23 16:29:28.2     -62   -303    305    310    434 191.6  49.8  34268  291.42 0854.32
2009/04/23 16:29:28.3    -127   -268    275    297    404 205.5  47.7  34270  291.45 0854.32
2009/04/23 16:29:28.4    -166   -187    244    251    350 221.7  49.3  34272  291.46 0854.32
2009/04/23 16:29:28.5    -136   -144    206    199    286 223.3  51.2  34274  291.50 0854.33
2009/04/23 16:29:28.6    -137   -205    211    247    324 213.8  44.8  34252  291.14 0854.33
2009/04/23 16:29:28.7    -157   -262    160    306    345 211.0  30.0  34244  291.00 0854.33
2009/04/23 16:29:28.8    -147   -217    180    263    318 214.1  37.7  34254  291.17 0854.33
2009/04/23 16:29:28.9    -165    -65    155    178    236 248.5  45.6  34254  291.18 0854.33
2009/04/23 16:29:29.0    -167   -121    127    207    242 234.0  34.5  34260  291.26 0854.33
2009/04/23 16:29:29.1    -174   -135    160    221    272 232.2  39.5  34262  291.29 0854.33
2009/04/23 16:29:29.2    -100   -159    138    188    233 212.1  39.7  34260  291.26 0854.33
2009/04/23 16:29:29.3      15   -187    103    188    214 175.3  31.3  34258  291.23 0854.33
2009/04/23 16:29:29.4    -113   -130    136    173    220 221.0  42.2  34264  291.33 0854.33
2009/04/23 16:29:29.5    -102    -78    123    129    178 232.7  48.7  34280  291.62 0854.33
2009/04/23 16:29:29.6     -42   -144     88    151    174 196.5  33.1  34250  291.11 0854.33
2009/04/23 16:29:29.7     -16   -110     82    112    138 188.5  39.7  34256  291.20 0854.33
2009/04/23 16:29:29.8      -1   -102     96    103    140 180.9  47.9  34266  291.37 0854.33
2009/04/23 16:29:29.9     -13    -85    108     87    138 188.9  56.9  34264  291.33 0854.33
2009/04/23 16:29:30.0      -9    -70     98     71    121 188.0  60.5  34260  291.28 0854.33
2009/04/23 16:29:30.1       0    -71     87     72    112 180.0  56.3  34262  291.32 0854.33
2009/04/23 16:29:30.2       5    -75     73     76    105 175.5  49.4  34254  291.18 0854.33
2009/04/23 16:29:30.3      34    -64     56     73     92 151.9  41.7  34256  291.21 0854.33
2009/04/23 16:29:30.4      58    -56     23     81     85 134.1  16.3  34256  291.21 0854.33
2009/04/23 16:29:30.5      22    -17     -3     29     30 127.8  -7.3  34260  291.28 0854.37
2009/04/23 16:29:30.6      -7     10    -32     13     34 323.9 -83.6  34270  291.45 0854.37
2009/04/23 16:29:30.7     -50      0    -28     51     58 270.0 -35.8  34272  291.49 0854.37
2009/04/23 16:29:30.8     -94     -8    -60     95    112 264.8 -39.9  34274  291.52 0854.37
2009/04/23 16:29:30.9      -9    -12    -78     16     79 216.1 -90.0  34270  291.43 0854.37
2009/04/23 16:29:31.0     -63    -79      0    102    103 218.7  -0.3  34264  291.35 0854.37
2009/04/23 16:29:31.1     -37    -33     27     50     56 227.8  30.3  34266  291.37 0854.37
2009/04/23 16:29:31.2     -25    -51     56     57     79 206.3  50.0  34264  291.35 0854.37
2009/04/23 16:29:31.3     -10    -99     43    100    108 185.8  24.6  34266  291.38 0854.37
2009/04/23 16:29:31.4      15   -108     38    110    117 172.0  19.4  34270  291.45 0854.37
2009/04/23 16:29:31.5      -5    -67     34     68     76 184.5  28.2  34278  291.59 0854.37
2009/04/23 16:29:31.6      19    -53    -10     57     58 160.0 -10.3  34282  291.66 0854.37
2009/04/23 16:29:31.7     -29    -59    -57     66     87 206.3 -50.2  34292  291.81 0854.37
2009/04/23 16:29:31.8     -48    -31    -20     58     62 237.6 -19.7  34296  291.89 0854.37
2009/04/23 16:29:31.9     -47     -3     15     48     51 265.6  17.3  34294  291.84 0854.37
2009/04/23 16:29:32.0     -49    -90     62    103    120 208.9  33.5  34276  291.55 0854.37
2009/04/23 16:29:32.1     -89   -134     55    162    172 213.6  18.9  34280  291.62 0854.37
2009/04/23 16:29:32.2    -136   -151     87    204    221 221.9  24.3  34278  291.57 0854.37
2009/04/23 16:29:32.3    -123   -119     98    172    197 225.8  32.4  34296  291.88 0854.37
2009/04/23 16:29:32.4    -120    -92    100    152    181 232.7  36.3  34298  291.91 0854.37
2009/04/23 16:29:32.5    -121    -25     98    124    158 258.1  42.4  34304  292.01 0854.29
2009/04/23 16:29:32.6     -54   -141    145    152    210 200.9  48.7  34278  291.57 0854.29
2009/04/23 16:29:32.7     -80   -211    160    226    276 200.9  38.8  34260  291.27 0854.29
2009/04/23 16:29:32.8    -129   -229    122    263    289 209.4  27.0  34264  291.33 0854.29
2009/04/23 16:29:32.9     -70   -245    150    255    295 196.1  33.4  34242  290.95 0854.29
2009/04/23 16:29:33.0     -65   -181    187    193    268 200.0  49.2  34240  290.92 0854.29
2009/04/23 16:29:33.1    -180   -305    187    355    401 210.5  30.1  34258  291.22 0854.29
2009/04/23 16:29:33.2    -194   -260     78    325    335 216.7  13.6  34254  291.17 0854.29
2009/04/23 16:29:33.3     -78   -207     74    222    235 200.7  18.6  34250  291.11 0854.29
2009/04/23 16:29:33.4     -73   -195     91    209    227 200.7  25.1  34238  290.91 0854.29
2009/04/23 16:29:33.5     -59   -223     47    231    236 195.1  11.6  34220  290.58 0854.29
2009/04/23 16:29:33.6     -87   -214    107    232    255 202.1  26.4  34260  291.27 0854.29
2009/04/23 16:29:33.7      33   -159    218    163    272 168.2  59.8  34252  291.14 0854.29
2009/04/23 16:29:33.8      21     -3    148     22    149  99.7  90.0  34270  291.43 0854.29
2009/04/23 16:29:33.9     -39   -140    201    146    248 195.6  60.5  34242  290.96 0854.29
2009/04/23 16:29:34.0      27    -14    151     31    154 117.1  89.0  34240  290.92 0854.29
2009/04/23 16:29:34.1     113    -12    189    114    220  96.1  66.4  34232  290.81 0854.29
2009/04/23 16:29:34.2     146    -63    122    160    201 113.5  41.4  34226  290.69 0854.29
2009/04/23 16:29:34.3      77   -163     12    181    182 154.8   3.8  34216  290.53 0854.29
2009/04/23 16:29:34.4     189   -159      5    248    249 130.0   1.2  34196  290.19 0854.29
2009/04/23 16:29:34.5     173    -78      3    190    191 114.4   1.0  34192  290.11 0854.28
2009/04/23 16:29:34.6     170    -77    -13    187    188 114.4  -4.1  34166  289.69 0854.28
2009/04/23 16:29:34.7     141   -177    -13    227    228 141.5  -3.3  34150  289.40 0854.28
2009/04/23 16:29:34.8     138   -210    -72    252    262 146.6 -20.7  34156  289.49 0854.28
2009/04/23 16:29:34.9     130   -223     69    259    269 149.7  15.0  34138  289.20 0854.28
2009/04/23 16:29:35.0      23   -211    109    213    239 173.8  29.3  34122  288.94 0854.28
2009/04/23 16:29:35.1     -23   -194    156    196    250 186.9  42.7  34114  288.80 0854.28
2009/04/23 16:29:35.2      73   -220    168    233    287 161.5  39.5  34114  288.80 0854.28
2009/04/23 16:29:35.3     -23   -370    140    371    396 183.6  21.7  34108  288.69 0854.28
2009/04/23 16:29:35.4     -49   -382    247    386    458 187.3  35.6  34114  288.78 0854.28
2009/04/23 16:29:35.5      -5   -354    160    355    389 180.9  25.9  34110  288.74 0854.28
2009/04/23 16:29:35.6     119   -356    171    376    413 161.4  26.2  34116  288.82 0854.28
2009/04/23 16:29:35.7     105   -316    130    334    358 161.5  22.4  34118  288.86 0854.28
2009/04/23 16:29:35.8     125   -210    115    245    270 149.2  27.1  34120  288.90 0854.28
2009/04/23 16:29:35.9     -18   -232     -4    233    234 184.5  -1.2  34104  288.63 0854.28
2009/04/23 16:29:36.0     -78   -257   -171    269    318 196.9 -39.9  34126  288.98 0854.28
2009/04/23 16:29:36.1    -207   -378   -135    431    451 208.7 -22.4  34114  288.78 0854.28
2009/04/23 16:29:36.2    -225   -294   -122    371    391 217.4 -18.3  34116  288.82 0854.28
2009/04/23 16:29:36.3    -167   -275     98    322    337 211.3  17.0  34116  288.84 0854.28
2009/04/23 16:29:36.4    -152   -136    121    205    238 228.2  33.4  34122  288.92 0854.23
2009/04/23 16:29:36.5    -123    -88    106    152    185 234.5  38.4  34122  288.92 0854.23
2009/04/23 16:29:36.6     -83   -117     72    144    160 215.6  28.5  34124  288.96 0854.23
2009/04/23 16:29:36.7     -70   -216     39    228    232 198.0   9.9  34122  288.94 0854.23
2009/04/23 16:29:36.8     -72   -161     57    177    187 204.3  17.9  34130  289.06 0854.23
2009/04/23 16:29:36.9     -47    -72    -32     87     92 213.4 -24.8  34124  288.97 0854.23
2009/04/23 16:29:37.0    -102    -84    -70    133    150 230.5 -34.2  34128  289.02 0854.23
2009/04/23 16:29:37.1     -84    -51     34     99    105 238.9  18.9  34128  289.04 0854.23
2009/04/23 16:29:37.2     -17   -227    166    228    282 184.5  39.7  34138  289.20 0854.23
2009/04/23 16:29:37.3     -16   -221    198    222    297 184.4  46.4  34140  289.24 0854.23
2009/04/23 16:29:37.4     -21   -265    149    266    304 184.7  31.4  34140  289.22 0854.23
2009/04/23 16:29:37.5      -4   -309    142    310    340 180.9  26.3  34140  289.23 0854.23
2009/04/23 16:29:37.6      -3   -275     94    276    292 180.7  18.9  34138  289.19 0854.23
2009/04/23 16:29:37.7      56   -347     91    352    364 170.8  14.6  34142  289.26 0854.23
2009/04/23 16:29:37.8      24   -320    107    321    339 175.6  18.4  34146  289.32 0854.23
2009/04/23 16:29:37.9     105   -220    224    244    331 154.5  47.5  34150  289.41 0854.23
2009/04/23 16:29:38.0      31   -223    267    226    349 171.9  55.7  34150  289.41 0854.23
2009/04/23 16:29:38.1     -41   -218    216    222    309 190.7  49.4  34146  289.32 0854.23
2009/04/23 16:29:38.2      -6   -180    210    181    277 182.0  54.8  34142  289.25 0854.23
2009/04/23 16:29:38.3     103   -161    165    192    253 147.5  45.1  34142  289.25 0854.23
2009/04/23 16:29:38.4      30    -57    140     65    154 151.9  73.1  34130  289.06 0854.25
2009/04/23 16:29:38.5       2   -167    146    168    222 179.1  45.8  34114  288.80 0854.25
2009/04/23 16:29:38.6     -77   -280    102    291    308 195.4  20.0  34106  288.65 0854.25
2009/04/23 16:29:38.7     -93   -317    108    331    349 196.4  18.1  34114  288.79 0854.25
2009/04/23 16:29:38.8    -156   -305     16    343    344 207.1   2.8  34120  288.89 0854.25
2009/04/23 16:29:38.9    -100   -337    -19    352    353 196.6  -3.2  34128  289.04 0854.25
2009/04/23 16:29:39.0     -32   -319     11    321    322 185.8   2.1  34114  288.80 0854.25
2009/04/23 16:29:39.1     -83   -237     87    252    267 199.4  19.2  34130  289.05 0854.25
2009/04/23 16:29:39.2    -138   -149     49    204    210 222.8  13.5  34130  289.08 0854.25
2009/04/23 16:29:39.4    -129    -82     40    153    159 237.5  14.7  34128  289.04 0854.25
2009/04/23 16:29:39.4    -115    -84     41    143    149 233.6  16.3  34132  289.11 0854.25
2009/04/23 16:29:39.5    -107    -42     56    116    128 248.3  27.3  34140  289.23 0854.25
2009/04/23 16:29:39.6     -94     60    -14    112    113 302.4  -7.3  34136  289.18 0854.25
2009/04/23 16:29:39.7    -174    -45   -105    180    208 255.2 -37.5  34142  289.26 0854.25
2009/04/23 16:29:39.8    -160    -93    -60    186    195 239.8 -23.3  34140  289.24 0854.25
2009/04/23 16:29:39.9    -217     -9     17    218    219 267.4   4.6  34130  289.06 0854.25
2009/04/23 16:29:40.0    -234     94     34    253    256 292.0   7.8  34140  289.24 0854.25
2009/04/23 16:29:40.1    -320    105     66    337    344 288.2  11.1  34128  289.03 0854.25
2009/04/23 16:29:40.2    -167     52      8    176    177 287.5   2.9  34128  289.02 0854.25
2009/04/23 16:29:40.3    -144    -59     51    156    165 247.4  18.1  34148  289.38 0854.25
2009/04/23 16:29:40.4    -212   -118    -13    243    244 240.9  -3.3  34162  289.59 0854.25
2009/04/23 16:29:40.6    -278   -224    -54    358    363 231.1  -8.7  34146  289.35 0854.28
2009/04/23 16:29:40.6    -200   -242   -116    315    335 219.6 -25.5  34104  288.64 0854.28
2009/04/23 16:29:40.7    -162   -209    -94    265    282 217.8 -19.7  34118  288.87 0854.28
2009/04/23 16:29:40.8    -243    -25    -53    245    251 263.9 -12.4  34116  288.83 0854.28
2009/04/23 16:29:40.9    -362    -71     16    370    371 258.8   2.5  34130  289.06 0854.28
2009/04/23 16:29:41.0    -355    -42    -32    358    360 263.2  -5.2  34126  289.01 0854.28
2009/04/23 16:29:41.1    -423     35   -120    425    442 274.8 -15.8  34144  289.29 0854.28
2009/04/23 16:29:41.2    -178    103    -50    206    212 300.0 -13.7  34138  289.19 0854.28
2009/04/23 16:29:41.3    -169     72     97    184    208 293.1  29.8  34138  289.19 0854.28
2009/04/23 16:29:41.4     -71     -6     71     72    101 264.8  50.0  34146  289.35 0854.28
2009/04/23 16:29:41.5     -49   -147     58    156    166 198.7  21.5  34150  289.40 0854.28
2009/04/23 16:29:41.6     -46   -127     63    136    149 200.0  27.1  34150  289.40 0854.28
2009/04/23 16:29:41.8     -46   -243    182    248    307 190.7  39.7  34138  289.19 0854.28
2009/04/23 16:29:41.8     -24   -362    203    363    415 183.9  31.6  34146  289.33 0854.28
2009/04/23 16:29:41.9     -44   -348    132    351    375 187.2  21.5  34142  289.28 0854.28
2009/04/23 16:29:42.0       0   -257     91    258    274 180.2  19.4  34138  289.20 0854.28
2009/04/23 16:29:42.1       0   -304    172    305    350 180.0  32.0  34122  288.94 0854.28
2009/04/23 16:29:42.2     -58   -264    255    271    372 192.5  48.0  34128  289.04 0854.28
2009/04/23 16:29:42.3    -121   -121    218    172    277 225.0  57.9  34168  289.70 0854.28
2009/04/23 16:29:42.4     -89   -338     75    350    359 194.9  12.2  34134  289.13 0854.28
2009/04/23 16:29:42.5     -45   -263    105    267    286 189.8  22.8  34126  288.98 0854.29
2009/04/23 16:29:42.6     -94   -216     87    236    251 203.6  21.0  34140  289.24 0854.29
2009/04/23 16:29:42.7    -470   -229   -151    523    545 244.0 -16.2  34178  289.87 0854.29
2009/04/23 16:29:42.8    -475   -276   -173    550    577 239.8 -17.5  34174  289.82 0854.29
2009/04/23 16:29:43.0    -479   -334    -78    585    591 235.1  -7.6  34162  289.61 0854.29
2009/04/23 16:29:43.0    -332   -354   -155    486    510 223.2 -22.8  34152  289.44 0854.29
2009/04/23 16:29:43.1    -261   -320    -84    414    423 219.2 -11.6  34150  289.39 0854.29
2009/04/23 16:29:43.2    -140   -323    -76    353    362 203.5 -12.3  34152  289.42 0854.29
2009/04/23 16:29:43.4     -59   -314    -67    320    328 190.7 -11.9  34140  289.24 0854.29
2009/04/23 16:29:43.5    -158   -419    -16    449    450 200.7  -2.1  34156  289.49 0854.29
2009/04/23 16:29:43.6    -200   -361    -29    413    414 209.0  -4.1  34134  289.14 0854.27
2009/04/23 16:29:43.7    -409   -382    -17    560    561 227.0  -1.8  34152  289.43 0854.27
2009/04/23 16:29:43.8    -489   -377    -78    618    623 232.4  -7.2  34142  289.26 0854.27
2009/04/23 16:29:43.9    -189   -415     75    456    463 204.5   9.3  34134  289.14 0854.27
2009/04/23 16:29:44.0     -89   -271    -52    286    291 198.3 -10.5  34132  289.09 0854.27
2009/04/23 16:29:44.1     -84   -367     91    377    388 192.9  13.7  34140  289.23 0854.27
2009/04/23 16:29:44.2    -266   -392     13    475    476 214.2   1.6  34148  289.37 0854.27
2009/04/23 16:29:44.3    -223   -292    -14    368    369 217.4  -2.2  34148  289.38 0854.27
2009/04/23 16:29:44.4    -507   -272    -65    576    580 241.7  -6.5  34150  289.41 0854.27
2009/04/23 16:29:44.5    -517   -341    -64    620    624 236.6  -6.0  34146  289.35 0854.27
2009/04/23 16:29:44.6    -416   -296   -106    511    523 234.5 -11.8  34130  289.08 0854.27
2009/04/23 16:29:44.7    -472   -354     50    591    594 233.1   4.9  34152  289.42 0854.27
2009/04/23 16:29:44.8    -160   -327    105    365    380 206.1  16.1  34142  289.26 0854.27
2009/04/23 16:29:44.9      26   -475    149    476    499 176.8  17.4  34168  289.71 0854.27
2009/04/23 16:29:45.0     -24   -528    128    529    545 182.6  13.7  34162  289.62 0854.27
2009/04/23 16:29:45.1     -73   -472     62    478    483 188.9   7.4  34166  289.67 0854.27
2009/04/23 16:29:45.2    -125   -413     72    432    438 196.9   9.5  34164  289.63 0854.27
2009/04/23 16:29:45.3     -76   -444     82    451    459 189.7  10.3  34178  289.88
    -28   -456     71    457    463 183.6   8.9  34142  289.26
      0   -401     22    402    403 180.1   3.2  34142  289.26
     19   -416      1    417    418 177.3   0.2  34138  289.21
    -58   -453    -25    457    458 187.4  -3.2  34162  289.60 0854.27
2009/04/23 16:29:45.9    -182   -354    -37    399    401 207.2  -5.3  34148  289.38 0854.28
2009/04/23 16:29:46.0    -483   -317    -73    579    584 236.7  -7.2  34104  288.64 0854.28
2009/04/23 16:29:46.1    -351   -269    -30    443    444 232.6  -3.9  34120  288.89 0854.28
2009/04/23 16:29:46.2     -16   -281    -15    282    283 183.4  -3.2  34158  289.54 0854.28
2009/04/23 16:29:46.3    -126   -288     30    315    317 203.6   5.5  34192  290.10 0854.28
2009/04/23 16:29:46.4       7   -265    -64    266    274 178.4 -13.7  34204  290.31 0854.28
2009/04/23 16:29:46.5      18   -237      0    238    239 175.6   0.0  34196  290.17 0854.28
2009/04/23 16:29:46.6      53   -198     88    206    224 164.9  24.6  34198  290.23 0854.28
2009/04/23 16:29:46.7      79   -133     30    155    158 149.2  11.0  34202  290.28 0854.28
2009/04/23 16:29:46.8     164    -58     -4    175    176 109.7  -1.6  34198  290.23 0854.28
2009/04/23 16:29:46.9     177    -88     -4    198    199 116.6  -1.2  34184  289.97 0854.28
2009/04/23 16:29:47.0     170    -56     84    180    198 108.4  27.0  34154  289.48 0854.28
2009/04/23 16:29:47.1      97    -70     90    120    150 125.9  40.7  34170  289.74 0854.28
2009/04/23 16:29:47.2       1    -64    109     65    126 179.1  66.7  34174  289.80 0854.28
2009/04/23 16:29:47.3     -63    -64     66     91    112 224.5  39.7  34168  289.72 0854.28
2009/04/23 16:29:47.4    -158      8      4    159    160 273.0   1.8  34168  289.70 0854.28
2009/04/23 16:29:47.5    -201     69     -4    213    214 289.1  -1.3  34132  289.09 0854.28
2009/04/23 16:29:47.6    -232    104    -80    255    268 294.2 -17.6  34120  288.88 0854.28
2009/04/23 16:29:47.7    -379     21    -90    380    391 273.2 -13.4  34152  289.42 0854.28
2009/04/23 16:29:47.8    -259    -52     12    265    266 258.6   2.8  34172  289.78 0854.28
2009/04/23 16:29:47.9    -215     -3     18    216    217 269.0   4.9  34168  289.72 0854.28
2009/04/23 16:29:48.0    -181    -45    -65    187    197 255.8 -24.4  34148  289.38 0854.28
2009/04/23 16:29:48.1    -254   -128     83    285    297 243.1  16.3  34190  290.07 0854.28
2009/04/23 16:29:48.2     -77   -128    190    150    242 211.2  57.9  34210  290.43 0854.28
2009/04/23 16:29:48.3     -51   -177    163    185    246 196.0  45.9  34244  291.01 0854.28
2009/04/23 16:29:48.4    -189   -179    138    261    295 226.4  30.1  34206  290.34 0854.28
2009/04/23 16:29:48.5    -184   -176     90    255    271 226.2  19.6  34206  290.36 0854.28
2009/04/23 16:29:48.6    -116   -180    149    215    261 212.7  38.0  34220  290.59 0854.28
2009/04/23 16:29:48.7     -75   -226    -26    239    241 198.5  -6.2  34164  289.63 0854.28
2009/04/23 16:29:48.8    -182   -194     23    267    269 223.2   5.0  34164  289.63 0854.28
2009/04/23 16:29:48.9    -179   -218     57    283    289 219.4  11.6  34168  289.70 0854.28
2009/04/23 16:29:49.0    -241   -290     32    378    380 219.8   4.9  34152  289.43 0854.28
2009/04/23 16:29:49.1    -219   -296     61    369    375 216.5   9.4  34158  289.54 0854.28
2009/04/23 16:29:49.2    -192   -241     24    309    311 218.5   4.6  34196  290.19 0854.28
2009/04/23 16:29:49.3    -296   -193     30    354    356 236.9   4.9  34198  290.20 0854.28
2009/04/23 16:29:49.4    -217   -256     79    336    346 220.3  13.2  34176  289.84 0854.28
2009/04/23 16:29:49.5    -202   -200    132    285    314 225.2  26.5  34184  289.98 0854.28
2009/04/23 16:29:49.6    -111   -216    137    243    278 207.2  31.9  34196  290.17 0854.28
2009/04/23 16:29:49.7     -81   -193    170    210    270 202.7  43.5  34198  290.20 0854.28
2009/04/23 16:29:49.8    -105    -58    157    121    198 241.1  58.5  34216  290.52 0854.28
2009/04/23 16:29:49.9      -4      0    148      5    148 270.0  90.0  34230  290.75 0854.28
2009/04/23 16:29:50.0     -27   -134    102    137    170 191.6  40.4  34208  290.40 0854.28
2009/04/23 16:29:50.1     -61   -157    137    169    217 201.4  43.5  34190  290.08 0854.28
2009/04/23 16:29:50.2     -40   -160    148    166    222 194.3  46.6  34190  290.08 0854.28
2009/04/23 16:29:50.3     -78   -186    101    202    225 202.9  28.2  34176  289.85 0854.28
2009/04/23 16:29:50.4       0   -223     43    224    229 180.0  11.0  34160  289.57 0854.28
2009/04/23 16:29:50.5     -43   -222     79    227    241 191.1  19.2  34158  289.54 0854.28
2009/04/23 16:29:50.6     -33   -171     82    175    193 191.1  27.1  34172  289.77 0854.28
2009/04/23 16:29:50.7      21   -227     62    229    238 174.7  15.3  34154  289.47 0854.28
2009/04/23 16:29:50.8      -5   -233     41    234    238 181.4  10.1  34132  289.10 0854.28
2009/04/23 16:29:50.9      68   -202    122    214    246 161.3  32.4  34146  289.34 0854.28
2009/04/23 16:29:51.0      25   -161     93    163    187 171.1  32.4  34152  289.45 0854.28
2009/04/23 16:29:51.1     -49   -100     95    112    146 206.3  44.3  34152  289.43 0854.28
2009/04/23 16:29:51.2     -21   -107    101    110    149 191.5  47.9  34144  289.30 0854.28
2009/04/23 16:29:51.3      29   -110     59    114    128 164.9  29.2  34140  289.23 0854.28
2009/04/23 16:29:51.4      81   -119     12    145    146 145.7   5.0  34134  289.14 0854.28
2009/04/23 16:29:51.5      -4   -196    123    197    232 181.4  35.5  34126  288.99 0854.28
2009/04/23 16:29:51.6       0   -220    152    221    268 180.2  37.8  34140  289.24 0854.28
2009/04/23 16:29:51.7      23   -154     48    156    164 171.5  17.3  34138  289.21 0854.28
2009/04/23 16:29:51.8      23   -225     32    227    230 174.0   8.0  34144  289.30 0854.28
2009/04/23 16:29:51.9      -2   -155     57    156    166 181.0  20.4  34150  289.40 0854.32
2009/04/23 16:29:52.0      20   -188    110    190    219 173.8  32.7  34132  289.09 0854.32
2009/04/23 16:29:52.1      50   -210    154    216    265 166.6  39.3  34136  289.17 0854.32
2009/04/23 16:29:52.2     -29   -181      9    184    185 189.1   2.9  34136  289.18 0854.32
2009/04/23 16:29:52.3       4   -229     89    230    246 179.0  22.1  34136  289.17 0854.32
2009/04/23 16:29:52.4      50   -160    158    168    230 162.6  48.0  34142  289.26 0854.32
2009/04/23 16:29:52.5     -63   -188    201    199    282 198.5  50.1  34140  289.22 0854.32
2009/04/23 16:29:52.6     -58    -95    128    112    170 211.2  54.6  34142  289.26 0854.32
2009/04/23 16:29:52.7      27     -2     49     28     56  96.1  66.8  34166  289.67 0854.32
2009/04/23 16:29:52.8      89     -1     45     90    100  91.3  28.2  34150  289.41 0854.32
2009/04/23 16:29:52.9      67    -26     14     73     75 111.7  11.1  34144  289.30 0854.32
2009/04/23 16:29:53.0      28    -48     12     56     58 149.3  12.2  34146  289.35 0854.32
2009/04/23 16:29:53.1     -25    -44     -6     51     52 209.9  -7.3  34146  289.35 0854.32
2009/04/23 16:29:53.2     -86     21      1     89     90 284.2   0.8  34154  289.46 0854.32
2009/04/23 16:29:53.3      47     30    -62     56     83  57.6 -57.1  34162  289.62 0854.32
2009/04/23 16:29:53.4      81     80    -38    114    120  45.4 -23.6  34154  289.48 0854.32
2009/04/23 16:29:53.5      63     78    -55    101    115  39.2 -35.8  34150  289.41 0854.32
2009/04/23 16:29:53.6      87      6    -30     88     94  85.6 -19.1  34154  289.48 0854.32
2009/04/23 16:29:53.7     110     39     40    117    124  70.5  18.9  34148  289.38 0854.32
2009/04/23 16:29:53.8      90     40     57     99    114  65.6  32.9  34148  289.36 0854.32
2009/04/23 16:29:53.9      69     26     89     74    115  69.2  56.3  34150  289.40 0854.35
2009/04/23 16:29:54.0      56     31     94     65    114  61.1  62.6  34160  289.58 0854.35
2009/04/23 16:29:54.1      21     42     91     48    102  27.2  70.4  34180  289.92 0854.35
2009/04/23 16:29:54.2      18     59     92     62    110  16.9  63.2  34170  289.74 0854.35
2009/04/23 16:29:54.3      10    109     88    110    140   5.3  43.3  34160  289.58 0854.35
2009/04/23 16:29:54.4      23     68     92     73    117  19.2  56.9  34168  289.70 0854.35
2009/04/23 16:29:54.5      21     62     94     66    114  19.2  61.5  34170  289.75 0854.35
2009/04/23 16:29:54.6     -26      0     96     27     99 270.0  84.4  34176  289.85 0854.35
2009/04/23 16:29:54.7     -81    -67     84    106    135 230.4  42.7  34140  289.23 0854.35
2009/04/23 16:29:54.8      -1     26    110     27    113 357.3  86.4  34150  289.41 0854.35
2009/04/23 16:29:54.9       9     -3    112     10    112 111.7  90.0  34148  289.38 0854.35
2009/04/23 16:29:55.0      12     21     87     25     90  29.0  83.9  34152  289.45 0854.35
2009/04/23 16:29:55.1      -8     -1     76      9     76 258.5  90.0  34168  289.70 0854.35
2009/04/23 16:29:55.2      67    -22     76     71    104 108.6  52.1  34154  289.48 0854.35
2009/04/23 16:29:55.3       0     23     29     24     37 359.1  56.3  34162  289.60 0854.35
2009/04/23 16:29:55.4     -12     12     11     18     21 315.0  33.5  34160  289.57 0854.35
2009/04/23 16:29:55.5      26     17     48     32     57  57.5  64.6  34150  289.41 0854.35
2009/04/23 16:29:55.6      41     14     38     44     58  71.4  45.8  34138  289.19 0854.35
2009/04/23 16:29:55.7      40     34     36     53     64  49.6  37.6  34140  289.23 0854.35
2009/04/23 16:29:55.8      51     36     24     63     67  54.9  21.0  34142  289.28 0854.35
2009/04/23 16:29:55.9      60     12     17     62     65  78.5  15.3  34146  289.35 0854.35
2009/04/23 16:29:56.0      34     25      3     43     44  53.1   4.9  34144  289.31 0854.35
2009/04/23 16:29:56.1      24     13      5     28     29  61.1  11.1  34144  289.31 0854.35
2009/04/23 16:29:56.2      23     -7     10     25     26 108.4  21.0  34148  289.36 0854.35
2009/04/23 16:29:56.3      17    -11     35     21     40 122.5  65.7  34152  289.45 0854.35
2009/04/23 16:29:56.4      20    -16     41     26     48 129.5  64.7  34164  289.63 0854.35
2009/04/23 16:29:56.5       7    -10     25     13     28 143.9  70.8  34160  289.58 0854.35
2009/04/23 16:29:56.6       7      0      1      8      9  90.0  11.1  34154  289.48 0854.35
2009/04/23 16:29:56.7       3      7     -2      8      9  25.4 -15.5  34152  289.43 0854.35
2009/04/23 16:29:56.8      -2     16      2     17     18 352.0   6.9  34148  289.38 0854.35
2009/04/23 16:29:56.9     -18     30     16     36     39 329.3  25.1  34148  289.38 0854.35
2009/04/23 16:29:57.0     -14     24     10     29     31 329.3  18.9  34148  289.38 0854.35
2009/04/23 16:29:57.1     -36     16     -4     40     41 294.4  -6.2  34150  289.41 0854.35
2009/04/23 16:29:57.2     -43     16    -40     47     61 290.8 -49.2  34150  289.40 0854.35
2009/04/23 16:29:57.3     -45     29    -49     54     72 302.5 -52.3  34146  289.35 0854.35
2009/04/23 16:29:57.4     -13     23    -40     27     48 329.3 -68.0  34144  289.30 0854.35
2009/04/23 16:29:57.5       8     48    -24     49     54   9.8 -31.6  34152  289.43 0854.35
2009/04/23 16:29:57.6      28     57     -8     64     65  26.3  -7.2  34160  289.57 0854.35
2009/04/23 16:29:57.7      21     54     -7     59     60  21.8  -7.2  34160  289.57 0854.35
2009/04/23 16:29:57.8      55     55      4     79     80  45.0   2.9  34176  289.85 0854.35
2009/04/23 16:29:57.9      51     27     44     58     72  62.0  41.7  34270  291.43 0854.35
2009/04/23 16:29:58.0      81     24     22     85     88  73.6  14.7  34298  291.93 0854.35
2009/04/23 16:29:58.1     132     63     12    147    148  64.6   4.9  34286  291.71 0854.35
2009/04/23 16:29:58.2     118     52     52    130    140  66.0  23.0  34294  291.84 0854.35
2009/04/23 16:29:58.3      46     64     37     80     88  36.0  26.2  34294  291.86 0854.35
2009/04/23 16:29:58.4     -35     77     60     85    104 335.1  38.6  34278  291.57 0854.35
2009/04/23 16:29:58.5     -48     31     85     58    102 302.4  62.6  34290  291.77 0854.35
2009/04/23 16:29:58.6     -95     31     67    101    121 288.4  37.0  34294  291.84 0854.35
2009/04/23 16:29:58.7     -90     30     35     96    102 288.6  20.4  34296  291.89 0854.35
2009/04/23 16:29:58.8     -79     46     18     92     94 300.2  11.1  34290  291.77 0854.35
2009/04/23 16:29:58.9     -81     11     -1     82     83 277.9  -1.3  34282  291.66 0854.35
2009/04/23 16:29:59.0     -60     -3     46     61     76 266.5  40.7  34292  291.83 0854.35
2009/04/23 16:29:59.1    -145     -4     50    146    155 268.3  18.9  34286  291.72 0854.35
2009/04/23 16:29:59.2    -102   -107      9    149    150 223.7   3.8  34276  291.54 0854.35
2009/04/23 16:29:59.3    -166    -91     46    190    196 241.1  13.7  34278  291.57 0854.35
2009/04/23 16:29:59.4    -152   -114     22    190    192 233.1   6.7  34260  291.26 0854.35
2009/04/23 16:29:59.5    -176    -60     35    187    191 251.2  10.8  34258  291.25 0854.35
2009/04/23 16:29:59.6    -135    -12    -41    136    142 264.8 -21.7  34258  291.23 0854.35
2009/04/23 16:29:59.7    -135    -27    -52    138    147 258.5 -25.9  34244  291.01 0854.35
2009/04/23 16:29:59.8    -118    -85    -81    146    166 234.1 -35.8  34244  291.01 0854.35
2009/04/23 16:29:59.9     -45    -71    -85     85    120 212.5 -54.5  34236  290.86 0854.36
2009/04/23 16:30:00.0       6    -63    -82     64    104 173.8 -62.3  34230  290.77 0854.36
2009/04/23 16:30:00.1       0    -22   -104     23    106 180.9 -90.0  34214  290.50 0854.36
2009/04/23 16:30:00.2    -111    -32   -107    116    157 253.6 -52.1  34184  289.97 0854.36
2009/04/23 16:30:00.3    -115   -110    -92    160    184 226.4 -37.1  34182  289.96 0854.36
2009/04/23 16:30:00.4    -109   -151   -115    187    219 216.0 -39.2  34184  289.97 0854.36
2009/04/23 16:30:00.5    -140   -231   -100    271    288 211.2 -25.4  34188  290.03 0854.36
2009/04/23 16:30:00.6    -129   -273    -32    302    304 205.3  -6.2  34224  290.66 0854.36
2009/04/23 16:30:00.7    -104   -235     -8    258    259 203.8  -1.8  34226  290.68 0854.36
2009/04/23 16:30:00.8     -69   -206    -52    218    225 198.5 -13.4  34202  290.30 0854.36
2009/04/23 16:30:00.9     -39   -243     -7    247    248 189.1  -1.8  34192  290.12 0854.36
2009/04/23 16:30:01.0     -17   -174      3    175    176 185.8   1.0  34176  289.84 0854.36
2009/04/23 16:30:01.1     -81   -168    -51    187    195 205.9 -15.4  34182  289.96 0854.36
2009/04/23 16:30:01.2       2   -163    -21    164    166 179.3  -7.5  34144  289.31 0854.36
2009/04/23 16:30:01.3       0   -142    -47    143    150 180.0 -23.8  34122  288.94 0854.36
2009/04/23 16:30:01.4       8   -172    -59    173    182 177.1 -23.6  34118  288.86 0854.36
2009/04/23 16:30:01.5     -21   -174    -62    176    186 187.1 -24.6  34166  289.69 0854.36
2009/04/23 16:30:01.6     -38   -144    -42    150    155 195.1 -20.4  34194  290.16 0854.36
2009/04/23 16:30:01.7     -45   -131    -55    139    149 199.2 -27.4  34216  290.52 0854.36
2009/04/23 16:30:01.8     -44   -147    -43    154    159 196.9 -20.4  34238  290.89 0854.36
2009/04/23 16:30:01.9     -90    -90    -30    128    132 225.0 -13.4  34230  290.75 0854.37
2009/04/23 16:30:02.0     -90    -50   -106    104    148 240.7 -54.5  34206  290.35 0854.37
2009/04/23 16:30:02.1     -76      0   -108     77    132 270.0 -65.5  34226  290.70 0854.37
2009/04/23 16:30:02.2      13    -41   -129     44    136 162.2 -85.6  34228  290.72 0854.37
2009/04/23 16:30:02.3     -84    -31   -155     90    179 249.2 -71.9  34208  290.40 0854.37
2009/04/23 16:30:02.4    -241    -80   -107    255    276 251.6 -28.5  34210  290.42 0854.37
2009/04/23 16:30:02.5    -152    -66   -155    167    227 246.4 -52.3  34186  290.01 0854.37
2009/04/23 16:30:02.6    -166   -153    -73    226    237 227.3 -22.8  34196  290.19 0854.37
2009/04/23 16:30:02.7    -248    -75    -57    260    267 253.1 -12.4  34190  290.07 0854.37
2009/04/23 16:30:02.8    -295    100   -105    312    329 288.8 -23.5  34180  289.92 0854.37
2009/04/23 16:30:02.9    -332     26    -92    334    346 274.6 -20.0  34196  290.18 0854.37
2009/04/23 16:30:03.0    -391     36   -178    393    431 275.4 -30.4  34196  290.19 0854.37
2009/04/23 16:30:03.1    -227     60     71    235    246 285.0  16.8  34192  290.12 0854.37
2009/04/23 16:30:03.2    -257     28     40    259    263 276.2   8.8  34186  290.00 0854.37
2009/04/23 16:30:03.3    -253     39     40    256    260 278.8   9.0  34188  290.05 0854.37
2009/04/23 16:30:03.4    -166    -41     -6    171    172 256.1  -2.2  34182  289.96 0854.37
2009/04/23 16:30:03.5     -72     72     35    102    109 315.0  19.2  34178  289.89 0854.37
2009/04/23 16:30:03.6     -47     99      5    110    111 334.7   2.9  34184  289.97 0854.37
2009/04/23 16:30:03.7      88     55    -74    104    127  58.0 -43.9  34194  290.14 0854.37
2009/04/23 16:30:03.8     132     26    -53    135    145  78.5 -27.4  34190  290.09 0854.37
2009/04/23 16:30:03.9     153     54      0    163    164  70.3   0.2  34186  290.01 0854.38
2009/04/23 16:30:04.0      95     42      5    104    105  66.0   2.9  34178  289.89 0854.38
2009/04/23 16:30:04.1      70     45    -20     84     87  57.5 -13.4  34178  289.89 0854.38
2009/04/23 16:30:04.2      12      4     27     13     29  71.8  72.8  34184  289.97 0854.38
2009/04/23 16:30:04.3    -129    -17     50    131    140 262.5  21.5  34188  290.06 0854.38
2009/04/23 16:30:04.4    -164     36     26    168    170 282.4   8.8  34176  289.84 0854.38
2009/04/23 16:30:04.5    -191     90    -26    212    214 295.2  -7.2  34168  289.72 0854.38
2009/04/23 16:30:04.6    -129    104     46    167    174 308.9  15.6  34160  289.57 0854.38
2009/04/23 16:30:04.7    -106     77     79    132    153 305.9  34.0  34160  289.57 0854.38
2009/04/23 16:30:04.8    -287    107     48    307    311 290.4   8.9  34158  289.53 0854.38
2009/04/23 16:30:04.9    -400     63     71    406    413 279.0  10.0  34170  289.73 0854.39
2009/04/23 16:30:05.0    -276   -192    -89    337    349 235.1 -14.8  34152  289.42 0854.39
2009/04/23 16:30:05.1    -215   -105     51    240    246 244.0  12.1  34164  289.63 0854.39
2009/04/23 16:30:05.2    -359   -119     -1    379    380 251.7  -0.2  34138  289.21 0854.39
2009/04/23 16:30:05.3    -294    -70     65    303    311 256.5  12.2  34162  289.59 0854.39
2009/04/23 16:30:05.4    -216    -58    -28    224    226 254.9  -7.2  34148  289.38 0854.39
2009/04/23 16:30:05.5    -307     13    -41    308    311 272.5  -7.7  34144  289.29 0854.39
2009/04/23 16:30:05.6    -282      4    -67    283    291 271.0 -13.4  34144  289.29 0854.39
2009/04/23 16:30:05.7    -240    -41   -115    244    269 260.3 -31.5  34142  289.27 0854.39
2009/04/23 16:30:05.8    -226    -45   -121    231    260 258.6 -34.5  34124  288.95 0854.39
2009/04/23 16:30:05.9    -203    -85    -82    221    235 247.2 -25.4  34126  289.01 0854.39
2009/04/23 16:30:06.0    -145   -123    -41    191    196 229.6 -12.2  34130  289.08 0854.39
2009/04/23 16:30:06.1    -236   -110      2    261    262 244.9   0.5  34142  289.25 0854.39
2009/04/23 16:30:06.2    -196   -117    -37    229    233 239.3  -9.3  34140  289.24 0854.39
2009/04/23 16:30:06.3    -259   -116   -101    284    302 245.8 -19.6  34150  289.39 0854.39
2009/04/23 16:30:06.4    -253   -101    -78    273    283 248.2 -20.7  34148  289.37 0854.39
2009/04/23 16:30:06.5    -174     62     12    185    186 289.7   3.8  34156  289.52 0854.39
2009/04/23 16:30:06.6    -183    -41      3    188    189 257.4   1.0  34158  289.55 0854.39
2009/04/23 16:30:06.7    -179   -116    -28    214    216 237.1  -7.5  34160  289.57 0854.39
2009/04/23 16:30:06.8    -148   -119    -23    191    193 231.1  -6.9  34158  289.53 0854.39
2009/04/23 16:30:06.9    -155   -154    -33    219    222 225.1  -8.6  34142  289.26 0854.40
2009/04/23 16:30:07.0    -157   -113    -28    194    197 234.0  -8.2  34146  289.35 0854.40
2009/04/23 16:30:07.1    -174   -130     -6    218    219 233.4  -1.8  34158  289.53 0854.40
2009/04/23 16:30:07.2    -134   -125     33    184    188 226.9  10.3  34162  289.60 0854.40
2009/04/23 16:30:07.3     -94    -93     36    133    138 225.1  15.2  34172  289.77 0854.40
2009/04/23 16:30:07.4    -109    -51    -26    121    124 244.8 -12.4  34160  289.58 0854.40
2009/04/23 16:30:07.5     -54    -58    -24     80     83 223.2 -22.3  34160  289.57 0854.40
2009/04/23 16:30:07.6     -94   -113      7    148    149 219.6   2.8  34158  289.53 0854.40
2009/04/23 16:30:07.7    -101   -109    -18    149    151 222.8  -7.2  34162  289.62 0854.40
2009/04/23 16:30:07.8     -81    -82      1    116    117 224.7   0.8  34162  289.62 0854.40
2009/04/23 16:30:07.9     -54    -78     10     96     97 214.7   6.5  34160  289.57 0854.40
2009/04/23 16:30:08.0      -3    -65      8     66     67 182.7   6.9  34164  289.63 0854.40
2009/04/23 16:30:08.1      41    -72     19     84     87 150.1  13.2  34156  289.52 0854.40
2009/04/23 16:30:08.2      33    -68     20     76     79 153.7  15.2  34154  289.48 0854.40
2009/04/23 16:30:08.3      86    -53     24    102    105 121.5  13.7  34158  289.53 0854.40
2009/04/23 16:30:08.4      99    -26     12    103    104 105.0   6.9  34158  289.53 0854.40
2009/04/23 16:30:08.5      79    -25    -13     83     85 107.7  -9.3  34156  289.50 0854.40
2009/04/23 16:30:08.6      50     -5    -12     51     53  96.1 -13.4  34156  289.50 0854.40
2009/04/23 16:30:08.7      47      8      4     48     49  79.4   4.9  34158  289.53 0854.40
2009/04/23 16:30:08.8      28     -4    -12     29     31  99.7 -27.4  34158  289.55 0854.40
2009/04/23 16:30:08.9       8    -12    -19     15     24 147.5 -60.8  34160  289.58 0854.41
2009/04/23 16:30:09.0       2    -16    -17     17     24 172.0 -54.5  34162  289.60 0854.41
2009/04/23 16:30:09.1      -6    -17    -13     19     23 198.7 -44.1  34160  289.57 0854.41
2009/04/23 16:30:09.2     -12    -54    -19     56     59 192.5 -23.6  34150  289.41 0854.41
2009/04/23 16:30:09.3      -1    -67    -22     68     71 181.0 -23.8  34144  289.31 0854.41
2009/04/23 16:30:09.4       5    -72     19     73     76 175.5  15.2  34148  289.38 0854.41
2009/04/23 16:30:09.5     -14    -94      4     96     97 188.9   2.8  34148  289.36 0854.41
2009/04/23 16:30:09.6     -16    -90     23     92     95 190.2  14.3  34144  289.31 0854.41
2009/04/23 16:30:09.7     -19    -85      8     88     89 192.5   5.4  34148  289.38 0854.41
2009/04/23 16:30:09.8     -68    -63    -16     93     95 227.3  -9.8  34154  289.48 0854.41
2009/04/23 16:30:09.9     -90    -96    -43    132    138 223.3 -23.3  34160  289.58 0854.41
2009/04/23 16:30:10.0     -68   -119    -59    138    150 209.9 -29.0  34148  289.36 0854.41
2009/04/23 16:30:10.1     -53    -99    -51    113    123 208.1 -30.6  34138  289.21 0854.41
2009/04/23 16:30:10.3     -45    -84    -48     96    107 208.5 -32.2  34156  289.50 0854.41
2009/04/23 16:30:10.3     -45    -94     -6    105    106 205.5  -3.7  34164  289.63 0854.41
2009/04/23 16:30:10.4     -39    -54    -32     67     74 216.1 -31.5  34176  289.85 0854.41
2009/04/23 16:30:10.5     -36    -11    -13     38     40 251.8 -23.6  34172  289.79 0854.41
2009/04/23 16:30:10.6     -44    -60     14     75     77 216.1  11.1  34164  289.63 0854.41
2009/04/23 16:30:10.7     -23    -79    -12     83     84 196.5  -8.2  34162  289.62 0854.41
2009/04/23 16:30:10.8     -74    -74    -29    105    110 225.1 -15.5  34156  289.52 0854.41
2009/04/23 16:30:10.9     -80    -60    -32    100    106 233.1 -18.1  34168  289.70 0854.43
2009/04/23 16:30:11.0     -35   -105     -6    111    112 198.7  -3.1  34178  289.87 0854.43
2009/04/23 16:30:11.2     -11    -85    -60     86    104 187.6 -43.0  34176  289.85 0854.43
2009/04/23 16:30:11.3     -14    -72    -47     74     87 191.6 -39.9  34174  289.80 0854.43
2009/04/23 16:30:11.4     -16   -114     -4    116    117 188.0  -2.2  34164  289.63 0854.43
2009/04/23 16:30:11.5     -51    -80     30     95    100 212.5  17.9  34160  289.57 0854.43
2009/04/23 16:30:11.6     -56    -64     16     86     88 221.0  11.1  34162  289.62 0854.43
2009/04/23 16:30:11.7     -34    -67     -3     76     77 207.2  -2.2  34168  289.72 0854.43
2009/04/23 16:30:11.8     -28    -64     24     70     75 203.6  19.4  34168  289.70 0854.43
2009/04/23 16:30:11.9     -28    -55     33     62     70 207.2  30.3  34168  289.70 0854.43
2009/04/23 16:30:12.0     -39    -42      7     58     59 222.3   6.9  34168  289.70 0854.43
2009/04/23 16:30:12.1     -59    -16     -6     62     63 254.9  -6.2  34166  289.67 0854.43
2009/04/23 16:30:12.2     -53    -13     16     55     58 255.8  16.3  34170  289.75 0854.43
2009/04/23 16:30:12.3     -27    -30     47     41     62 222.3  53.3  34176  289.85 0854.43
2009/04/23 16:30:12.4     -36    -38     53     53     74 223.2  50.1  34168  289.72 0854.43
2009/04/23 16:30:12.5     -26    -79     60     84    103 198.5  39.1  34154  289.48 0854.43
2009/04/23 16:30:12.6     -17    -66     68     69     96 194.3  50.5  34160  289.58 0854.43
2009/04/23 16:30:12.7      14   -100     62    102    119 171.9  34.0  34162  289.62 0854.43
2009/04/23 16:30:12.8      44   -130     43    138    145 161.3  17.3  34168  289.72 0854.43
2009/04/23 16:30:12.9      28   -123     44    127    135 167.1  19.4  34172  289.77 0854.43
2009/04/23 16:30:13.0     -28    -83     17     88     90 198.7  11.1  34164  289.65 0854.42
2009/04/23 16:30:13.1     -17    -97     43     99    107 190.2  25.1  34160  289.58 0854.42
2009/04/23 16:30:13.2     -17    -91      6     93     94 190.7   3.8  34166  289.69 0854.42
2009/04/23 16:30:13.3     -21    -95     38     98    105 192.9  22.5  34168  289.72 0854.42
2009/04/23 16:30:13.4       2   -135     74    136    154 179.1  31.3  34144  289.31 0854.42
2009/04/23 16:30:13.5     -11   -146     83    147    168 184.5  32.1  34148  289.38 0854.42
2009/04/23 16:30:13.6      -5   -166     63    167    178 181.8  21.7  34146  289.35 0854.42
2009/04/23 16:30:13.7       0   -154     63    155    167 180.4  23.4  34150  289.41 0854.42
2009/04/23 16:30:13.8       1   -108     91    109    141 179.0  43.8  34162  289.60 0854.42
2009/04/23 16:30:13.9      17   -114    111    116    160 171.1  48.7  34164  289.63 0854.42
2009/04/23 16:30:14.0       3   -138     68    139    154 178.6  27.3  34150  289.40 0854.42
2009/04/23 16:30:14.1       0   -139     98    140    170 180.4  38.6  34154  289.48 0854.42
2009/04/23 16:30:14.2     -21   -117    122    119    170 190.2  50.4  34162  289.60 0854.42
2009/04/23 16:30:14.3      62    -99     94    117    150 147.9  43.7  34166  289.67 0854.42
2009/04/23 16:30:14.4      68   -107     73    128    147 147.4  31.4  34154  289.48 0854.42
2009/04/23 16:30:14.5      30   -110     67    115    133 164.4  33.5  34156  289.52 0854.42
2009/04/23 16:30:14.6      26    -77     46     82     94 161.3  32.4  34156  289.50 0854.42
2009/04/23 16:30:14.7      36    -43     28     57     63 140.4  27.3  34160  289.58 0854.42
2009/04/23 16:30:14.8      19    -14     44     24     50 126.0  68.8  34174  289.80 0854.42
2009/04/23 16:30:14.9       0     -7     42      8     42 184.5  90.0  34190  290.08 0854.42
2009/04/23 16:30:15.0       0      1     45      2     45  18.5  90.0  34200  290.26 0854.41
2009/04/23 16:30:15.1     -11    -57     48     59     76 191.6  43.7  34174  289.82 0854.41
2009/04/23 16:30:15.2     -21    -58     67     62     91 200.0  52.2  34168  289.72 0854.41
2009/04/23 16:30:15.3     -21    -49     83     54     99 203.6  64.1  34194  290.16 0854.41
2009/04/23 16:30:15.4      20     -3     68     21     71  99.7  81.8  34226  290.69 0854.41
2009/04/23 16:30:15.5       0     -3     53      4     53 184.5  90.0  34224  290.65 0854.41
2009/04/23 16:30:15.6      -8    -26     54     28     60 196.9  69.8  34204  290.33 0854.41
2009/04/23 16:30:15.7     -16    -40     46     44     63 201.8  50.1  34200  290.26 0854.41
2009/04/23 16:30:15.8      15    -15     49     22     53 135.0  75.0  34202  290.28 0854.41
2009/04/23 16:30:15.9      36     32     47     49     67  48.7  50.0  34222  290.62 0854.41
2009/04/23 16:30:16.0      96     38     67    104    123  68.2  35.6  34194  290.14 0854.41
2009/04/23 16:30:16.1     158     87    114    181    213  61.2  35.5  34180  289.92 0854.41
2009/04/23 16:30:16.2     167    108    122    200    234  57.1  34.8  34176  289.84 0854.41
2009/04/23 16:30:16.3     184    125     89    223    240  55.8  23.0  34184  289.97 0854.41
2009/04/23 16:30:16.4     222    122    127    254    283  61.1  28.2  34168  289.71 0854.41
2009/04/23 16:30:16.5     185    186    168    263    312  44.8  35.6  34208  290.39 0854.41
2009/04/23 16:30:16.6     190    190    155    269    310  45.0  32.7  34188  290.05 0854.41
2009/04/23 16:30:16.7     197    191    178    275    327  46.0  35.9  34216  290.51 0854.41
2009/04/23 16:30:16.8     207    166    140    266    300  51.1  30.2  34182  289.93 0854.41
2009/04/23 16:30:16.9     189    177    115    260    284  46.9  25.3  34174  289.80 0854.41
2009/04/23 16:30:17.0      67    217     46    228    233  17.2  11.4  34168  289.72 0854.38
2009/04/23 16:30:17.1      41    265     32    269    271   8.9   6.9  34182  289.95 0854.38
2009/04/23 16:30:17.2     -23    297     39    298    301 355.5   7.5  34192  290.12 0854.38
2009/04/23 16:30:17.3      26    395     42    396    399   3.9   6.1  34278  291.59 0854.38
2009/04/23 16:30:17.4      85    355     43    366    369  13.6   6.8  34278  291.57 0854.38
2009/04/23 16:30:17.5     102    282     -6    301    302  20.0  -1.2  34260  291.26 0854.38
2009/04/23 16:30:17.6      85    298     15    311    312  16.0   2.9  34270  291.44 0854.38
2009/04/23 16:30:17.7      82    286     14    298    299  16.0   2.8  34260  291.26 0854.38
2009/04/23 16:30:17.8      11    241    -73    242    253   2.7 -16.8  34244  290.99 0854.38
2009/04/23 16:30:17.9       1    227    -52    228    234   0.5 -12.9  34238  290.89 0854.38
2009/04/23 16:30:18.0      13    178    -54    179    186   4.5 -21.5  34220  290.58 0854.38
2009/04/23 16:30:18.1      46    189    -67    195    207  13.8 -19.1  34222  290.64 0854.38
2009/04/23 16:30:18.2      26    189    -35    191    195   8.0 -10.5  34228  290.74 0854.38
2009/04/23 16:30:18.3      -3    193    -24    194    196 359.0  -7.3  34242  290.98 0854.38
2009/04/23 16:30:18.4     -23    180    -15    182    183 352.7  -4.9  34246  291.03 0854.38
2009/04/23 16:30:18.5      60    197      9    207    208  17.0   2.5  34220  290.60 0854.38
2009/04/23 16:30:18.6      90    272    -73    287    297  18.5 -14.3  34272  291.48 0854.38
2009/04/23 16:30:18.7     141    310   -101    341    355  24.6 -21.5  34262  291.30 0854.38
2009/04/23 16:30:18.8     153    287   -130    326    350  28.1 -27.4  34264  291.35 0854.38
2009/04/23 16:30:18.9     181    283    -96    337    350  32.6 -20.7  34280  291.61 0854.38
2009/04/23 16:30:19.0     203    284     19    350    351  35.6   3.2  34252  291.15 0854.36
2009/04/23 16:30:19.1     221    214    -93    308    322  46.0 -16.8  34246  291.04 0854.36
2009/04/23 16:30:19.2     254    149    -50    295    300  59.6  -9.6  34226  290.68 0854.36
2009/04/23 16:30:19.3     248     96     35    267    270  68.7   7.5  34194  290.15 0854.36
2009/04/23 16:30:19.4     242     99    -20    262    263  67.6  -4.4  34174  289.80 0854.36
2009/04/23 16:30:19.5     150    169     78    227    241  41.7  18.9  34172  289.78 0854.36
2009/04/23 16:30:19.6     217    111     87    244    260  62.9  19.6  34172  289.78 0854.36
2009/04/23 16:30:19.7     123    160    111    203    231  37.6  31.3  34174  289.80 0854.36
2009/04/23 16:30:19.8     142    169    218    221    310  40.1  49.9  34206  290.36 0854.36
2009/04/23 16:30:19.9     109    268    104    290    308  22.1  20.7  34202  290.27 0854.36
2009/04/23 16:30:20.0     320    265    -29    416    418  50.3  -4.0  34158  289.53 0854.36
2009/04/23 16:30:20.1     331    310    -34    454    456  46.9  -4.4  34196  290.19 0854.36
2009/04/23 16:30:20.2     364    176    167    405    438  64.2  23.7  34314  292.20 0854.36
2009/04/23 16:30:20.3     278    357     54    453    457  37.9   6.9  34194  290.16 0854.36
2009/04/23 16:30:20.4     295    277      0    405    406  46.8   0.0  34182  289.94 0854.36
2009/04/23 16:30:20.5     329    322    -18    461    462  45.6  -2.2  34188  290.04 0854.36
2009/04/23 16:30:20.6     354    176    171    396    431  63.5  25.0  34338  292.61 0854.36
2009/04/23 16:30:20.7     157    168    230    231    325  43.0  50.1  34342  292.65 0854.36
2009/04/23 16:30:20.8     151    251     -6    294    295  31.0  -1.3  34324  292.36 0854.36
2009/04/23 16:30:20.9     281    133     86    312    324  64.6  15.4  34312  292.16 0854.36
2009/04/23 16:30:21.0     365     73     71    373    380  78.6  10.8  34310  292.12 0854.33
2009/04/23 16:30:21.1     272     79    108    284    303  73.8  22.0  34366  293.08 0854.33
2009/04/23 16:30:21.2     327     91    -31    340    342  74.4  -5.3  34334  292.53 0854.33
2009/04/23 16:30:21.3     381    267    -85    466    474  54.9 -10.4  34312  292.14 0854.33
2009/04/23 16:30:21.4     316    370    -29    487    488  40.5  -3.5  34240  290.93 0854.33
2009/04/23 16:30:21.5     360    299    -26    469    470  50.3  -3.3  34224  290.66 0854.33
2009/04/23 16:30:21.6     305    345    -88    461    470  41.4 -10.8  34164  289.64 0854.33
2009/04/23 16:30:21.7     468    191     38    506    508  67.8   4.4  34342  292.65 0854.33
2009/04/23 16:30:21.8     467    185    110    503    516  68.3  12.4  34318  292.26 0854.33
2009/04/23 16:30:21.9     392    278     70    481    487  54.6   8.3  34286  291.71 0854.33
2009/04/23 16:30:22.0     426    186    144    466    488  66.4  17.2  34368  293.11 0854.33
2009/04/23 16:30:22.1     447     96    171    458    488  77.8  21.5  34376  293.25 0854.33
2009/04/23 16:30:22.2     535    126    197    550    584  76.7  20.6  34300  291.95 0854.33
2009/04/23 16:30:22.3     324    116    124    345    366  70.2  20.6  34248  291.05 0854.33
2009/04/23 16:30:22.4     393    135     33    416    418  70.9   4.6  34182  289.94 0854.33
2009/04/23 16:30:22.5     395    132    100    417    429  71.5  13.5  34242  290.95 0854.33
2009/04/23 16:30:22.6     378    186     28    422    423  63.8   3.8  34134  289.14 0854.33
2009/04/23 16:30:22.7     382    168     91    418    429  66.3  12.4  34138  289.19 0854.33
2009/04/23 16:30:22.8     340    172    117    382    400  63.1  17.0  34146  289.33 0854.33
2009/04/23 16:30:22.9     352     22    153    353    384  86.4  25.1  34228  290.71 0854.33
2009/04/23 16:30:23.0     317     19     87    318    330  86.5  15.3  34256  291.19 0854.34
2009/04/23 16:30:23.1     272     82    121    285    309  73.2  24.3  34296  291.89 0854.34
2009/04/23 16:30:23.2     159    -41    175    165    240 104.6  52.0  34294  291.84 0854.34
2009/04/23 16:30:23.3      69    -33    118     77    140 115.4  64.1  34300  291.95 0854.34
2009/04/23 16:30:23.4     153      2     76    154    171  89.2  28.0  34294  291.84 0854.34
2009/04/23 16:30:23.5     270   -137    196    303    360 117.0  35.7  34292  291.83 0854.34
2009/04/23 16:30:23.6     251   -159    173    298    344 122.4  32.8  34306  292.05 0854.34
2009/04/23 16:30:23.7     212   -174    178    275    327 129.3  35.9  34306  292.04 0854.34
2009/04/23 16:30:23.8     214   -153    159    264    308 125.5  34.0  34302  291.97 0854.34
2009/04/23 16:30:23.9     246   -172    104    301    319 125.0  19.2  34304  292.01 0854.34
2009/04/23 16:30:24.0     263   -179     86    319    331 124.2  15.1  34294  291.85 0854.34
2009/04/23 16:30:24.1     143   -183     45    233    238 142.1  11.1  34302  291.97 0854.34
2009/04/23 16:30:24.2     143   -196     67    243    253 143.9  15.6  34298  291.92 0854.34
2009/04/23 16:30:24.3      97   -175     -3    201    202 151.0  -1.1  34296  291.88 0854.34
2009/04/23 16:30:24.4      98   -148    -30    178    181 146.4  -9.6  34300  291.96 0854.34
2009/04/23 16:30:24.5      90   -140    -33    167    171 147.0 -11.3  34298  291.91 0854.34
2009/04/23 16:30:24.6     126   -147    -41    194    199 139.5 -12.2  34292  291.83 0854.34
2009/04/23 16:30:24.7     100   -129    -25    164    166 142.4  -8.8  34294  291.84 0854.34
2009/04/23 16:30:24.8      85   -124    -61    151    162 145.7 -27.4  34294  291.86 0854.34
2009/04/23 16:30:24.9      67    -85    -55    109    122 141.7 -33.6  34292  291.83 0854.34
2009/04/23 16:30:25.0      44   -102    -59    112    126 156.8 -34.2  34290  291.79 0854.35
2009/04/23 16:30:25.1     -12    -72   -101     74    125 189.8 -64.9  34270  291.43 0854.35
2009/04/23 16:30:25.2     -32    -50   -123     60    136 212.5 -77.2  34174  289.80 0854.35
2009/04/23 16:30:25.3     -49   -132   -108    141    177 200.5 -45.8  34150  289.41 0854.35
2009/04/23 16:30:25.4     -75   -108    -87    132    158 214.7 -40.9  34184  289.97 0854.35
2009/04/23 16:30:25.5    -102   -107    -63    148    160 223.7 -28.7  34172  289.77 0854.35
2009/04/23 16:30:25.6     -96    -85    -46    129    138 228.6 -19.7  34204  290.33 0854.35
2009/04/23 16:30:25.7     -87    -40    -31     96    101 245.2 -18.1  34212  290.45 0854.35
2009/04/23 16:30:25.8     -91    -61     -7    110    111 236.3  -4.1  34192  290.13 0854.35
2009/04/23 16:30:25.9     -89    -60    -30    108    113 235.8 -15.4  34180  289.92 0854.35
2009/04/23 16:30:26.0    -102    -80    -54    130    140 231.8 -28.0  34164  289.63 0854.36
2009/04/23 16:30:26.1    -167    -86    -37    188    192 242.7 -11.3  34250  291.11 0854.36
2009/04/23 16:30:26.2    -191    -78    -27    207    209 247.8  -7.5  34284  291.67 0854.36
2009/04/23 16:30:26.3    -202    -44    -34    207    210 257.6  -9.3  34242  290.96 0854.36
2009/04/23 16:30:26.4    -215    -65    -57    225    233 253.2 -14.3  34224  290.67 0854.36
2009/04/23 16:30:26.5    -216    -69    -95    227    246 252.1 -28.5  34190  290.09 0854.36
2009/04/23 16:30:26.6    -172    -64    -63    184    194 249.4 -23.3  34152  289.45 0854.36
2009/04/23 16:30:26.7    -223      0    -41    224    228 270.0 -10.5  34202  290.30 0854.36
2009/04/23 16:30:26.8    -262     16    -80    263    276 273.5 -17.0  34232  290.78 0854.36
2009/04/23 16:30:26.9    -246     17    -68    247    257 274.1 -15.5  34220  290.59 0854.36
2009/04/23 16:30:27.0    -257      3    -30    258    260 270.8  -6.7  34228  290.73 0854.36
2009/04/23 16:30:27.1    -218     14    -28    219    221 273.7  -7.5  34248  291.08 0854.36
2009/04/23 16:30:27.2    -260     94    -54    277    283 290.0 -11.1  34242  290.97 0854.36
2009/04/23 16:30:27.3    -235     81    -35    249    252 289.1  -8.0  34254  291.17 0854.36
2009/04/23 16:30:27.4    -226     64    -61    235    243 285.9 -14.7  34216  290.51 0854.36
2009/04/23 16:30:27.5    -251     50   -104    256    276 281.4 -27.5  34186  290.00 0854.36
2009/04/23 16:30:27.6    -242     66    -83    251    265 285.3 -18.3  34216  290.51 0854.36
2009/04/23 16:30:27.7    -312     63   -115    319    340 281.6 -19.8  34162  289.62 0854.36
2009/04/23 16:30:27.8    -275     31    -83    277    290 276.6 -16.8  34158  289.54 0854.36
2009/04/23 16:30:27.9    -239     -1    -91    240    256 269.6 -26.4  34146  289.32 0854.36
2009/04/23 16:30:28.0    -206     14    -89    207    225 273.9 -29.5  34156  289.52 0854.38
2009/04/23 16:30:28.1    -201     -7    -77    202    216 267.9 -26.4  34168  289.70 0854.38
2009/04/23 16:30:28.2    -209      0    -87    210    227 270.0 -28.0  34142  289.26 0854.38
2009/04/23 16:30:28.3    -204     -3    -73    205    217 269.0 -24.8  34142  289.26 0854.38
2009/04/23 16:30:28.4    -251    -46   -115    256    280 259.5 -30.1  34146  289.32 0854.38
2009/04/23 16:30:28.5    -258    -21   -105    259    279 265.2 -27.5  34146  289.32 0854.38
2009/04/23 16:30:28.6    -195     27   -105    197    223 277.9 -35.0  34166  289.69 0854.38
2009/04/23 16:30:28.7    -181      0   -113    182    214 269.9 -39.6  34176  289.84 0854.38
2009/04/23 16:30:28.8    -166     15   -111    167    200 275.2 -41.4  34208  290.38 0854.38
2009/04/23 16:30:28.9    -162     76   -114    180    213 295.2 -39.9  34288  291.74 0854.38
2009/04/23 16:30:29.0    -188     12   -119    189    223 273.9 -39.9  34282  291.64 0854.38
2009/04/23 16:30:29.1    -149   -115    -27    189    191 232.2  -8.2  34284  291.69 0854.38
2009/04/23 16:30:29.2    -189    -71     10    202    203 249.4   2.9  34254  291.18 0854.38
2009/04/23 16:30:29.3    -292    -88    -91    306    320 253.2 -16.5  34246  291.02 0854.38
2009/04/23 16:30:29.4    -227    -70    -42    238    242 252.7 -10.1  34246  291.04 0854.38
2009/04/23 16:30:29.5    -211   -157      2    264    265 233.4   0.5  34242  290.95 0854.38
2009/04/23 16:30:29.6    -138   -261    -17    296    297 207.9  -3.3  34228  290.71 0854.38
2009/04/23 16:30:29.7     -72   -229     72    241    252 197.4  16.8  34220  290.59 0854.38
2009/04/23 16:30:29.8     -94   -193     80    215    229 206.1  21.0  34200  290.25 0854.38
2009/04/23 16:30:29.9     -27   -140     70    143    159 191.1  28.0  34196  290.18 0854.38
2009/04/23 16:30:30.0     101    -95    -12    139    140 133.1  -5.2  34204  290.31 0854.40
2009/04/23 16:30:30.1     -21   -113    -61    116    131 190.7 -33.7  34190  290.08 0854.40
2009/04/23 16:30:30.2      60   -130    -90    144    169 155.1 -39.6  34210  290.41 0854.40
2009/04/23 16:30:30.3     144    -91   -132    171    216 122.5 -46.1  34210  290.43 0854.40
2009/04/23 16:30:30.4     203    -67    -75    214    227 108.4 -19.4  34176  289.84 0854.40
2009/04/23 16:30:30.5     224   -162     54    277    283 126.0  11.1  34194  290.15 0854.40
2009/04/23 16:30:30.6      88   -287    115    301    322 162.8  21.8  34186  290.02 0854.40
2009/04/23 16:30:30.7     160   -347    109    383    399 155.2  15.9  34166  289.67 0854.40
2009/04/23 16:30:30.8     193   -439    170    480    510 156.3  19.5  34162  289.62 0854.40
2009/04/23 16:30:30.9     206   -372     66    426    432 151.0   8.9  34172  289.78 0854.40
2009/04/23 16:30:31.0     138   -303     72    334    342 155.5  12.3  34156  289.52 0854.40
2009/04/23 16:30:31.1      87   -328     66    340    347 165.1  11.0  34156  289.52 0854.40
2009/04/23 16:30:31.2      90   -385     35    396    398 166.7   5.2  34168  289.72 0854.40
2009/04/23 16:30:31.3      43   -369    -42    372    375 173.3  -6.5  34174  289.82 0854.40
2009/04/23 16:30:31.4     144   -361    -96    389    401 158.2 -13.9  34172  289.77 0854.40
2009/04/23 16:30:31.5     218   -426    -37    479    481 152.8  -4.5  34176  289.84 0854.40
2009/04/23 16:30:31.6     160   -372   -138    406    429 156.7 -18.8  34198  290.21 0854.40
2009/04/23 16:30:31.7     138   -379   -144    404    430 160.0 -19.7  34184  289.99 0854.40
2009/04/23 16:30:31.8     209   -393   -124    446    462 152.0 -20.1  34194  290.14 0854.40
2009/04/23 16:30:31.9     179   -367   -140    409    432 153.9 -24.0  34182  289.95 0854.40
2009/04/23 16:30:32.0      64   -269   -204    277    344 166.6 -44.4  34184  289.98 0854.40
2009/04/23 16:30:32.1     156   -230    -15    279    280 145.8  -3.2  34182  289.95 0854.40
2009/04/23 16:30:32.2      96   -317     91    332    345 163.1  15.4  34174  289.82 0854.40
2009/04/23 16:30:32.3      56   -348    121    353    374 170.8  18.9  34168  289.71 0854.40
2009/04/23 16:30:32.4      44   -310    163    314    353 171.9  29.4  34176  289.84 0854.40
2009/04/23 16:30:32.5      93   -316    144    330    360 163.6  25.1  34164  289.64 0854.40
2009/04/23 16:30:32.6      13   -288     79    289    300 177.3  15.3  34162  289.61 0854.40
2009/04/23 16:30:32.7      22   -293    192    294    351 175.6  36.3  34164  289.64 0854.40
2009/04/23 16:30:32.8      28   -338    164    340    377 175.2  27.4  34168  289.72 0854.40
2009/04/23 16:30:32.9     -10   -378     77    379    387 181.6  11.5  34166  289.67 0854.40
2009/04/23 16:30:33.0      22   -317     31    318    320 176.0   5.7  34156  289.51 0854.40
2009/04/23 16:30:33.1     -90   -348    159    360    393 194.5  25.3  34172  289.77 0854.40
2009/04/23 16:30:33.2     -84   -374    230    384    447 192.7  33.8  34182  289.95 0854.40
2009/04/23 16:30:33.3     -66   -322    108    329    347 191.7  18.2  34166  289.69 0854.40
2009/04/23 16:30:33.4     -42   -268    118    272    296 188.9  25.1  34180  289.92 0854.40
2009/04/23 16:30:33.5      80   -203     75    219    232 158.4  18.9  34154  289.48 0854.40
2009/04/23 16:30:33.6     108   -164     42    197    202 146.6  12.0  34148  289.36 0854.40
2009/04/23 16:30:33.7      81   -198     30    215    218 157.7   8.0  34158  289.55 0854.40
2009/04/23 16:30:33.8      46   -224     63    229    238 168.2  15.6  34168  289.70 0854.40
2009/04/23 16:30:33.9    -129   -152     37    200    204 220.3  10.6  34190  290.09 0854.40
2009/04/23 16:30:34.0     -54   -147      0    157    158 200.5   0.2  34178  289.89 0854.40
2009/04/23 16:30:34.1      93   -197    -43    218    223 154.7 -11.3  34164  289.63 0854.40
2009/04/23 16:30:34.2      68   -231     -2    241    242 163.5  -0.5  34152  289.44 0854.40
2009/04/23 16:30:34.3      83   -211     23    227    229 158.4   5.9  34148  289.36 0854.40
2009/04/23 16:30:34.4     135   -190     59    234    242 144.6  14.2  34144  289.31 0854.40
2009/04/23 16:30:34.5     106   -146     25    181    183 143.9   8.0  34140  289.23 0854.40
2009/04/23 16:30:34.6      46   -137    112    145    183 161.3  41.4  34142  289.28 0854.40
2009/04/23 16:30:34.7      61   -115     93    131    160 151.9  39.1  34142  289.28 0854.40
2009/04/23 16:30:34.8     111   -141     54    180    188 141.7  16.8  34140  289.23 0854.40
2009/04/23 16:30:34.9      45    -87     78     99    126 152.4  42.2  34142  289.28 0854.40
2009/04/23 16:30:35.0      60   -149    100    161    189 158.1  35.2  34144  289.31 0854.40
2009/04/23 16:30:35.1      33   -217    117    220    249 171.3  30.2  34124  288.97 0854.40
2009/04/23 16:30:35.2      62   -210    150    220    266 163.5  37.6  34114  288.78 0854.40
2009/04/23 16:30:35.3      29   -198    128    201    238 171.5  35.5  34116  288.82 0854.40
2009/04/23 16:30:35.4      19   -242     84    243    258 175.3  19.2  34122  288.93 0854.40
2009/04/23 16:30:35.5     -27   -232     91    234    251 186.7  22.1  34126  288.98 0854.40
2009/04/23 16:30:35.6     -26   -169     56    172    181 188.9  18.1  34136  289.18 0854.40
2009/04/23 16:30:35.7     -49   -158    102    166    194 197.2  35.0  34134  289.13 0854.40
2009/04/23 16:30:35.8    -127   -148    101    196    220 220.5  29.3  34144  289.30 0854.40
2009/04/23 16:30:35.9     -32   -104     53    110    122 197.4  27.3  34154  289.48 0854.40
2009/04/23 16:30:36.0      13    -88     18     90     92 171.1  11.6  34178  289.89 0854.41
2009/04/23 16:30:36.1       4    -56     46     57     73 175.5  43.7  34178  289.87 0854.41
2009/04/23 16:30:36.2     -14   -100     46    102    111 188.0  26.2  34172  289.79 0854.41
2009/04/23 16:30:36.3    -139   -108     36    177    181 232.2  11.6  34162  289.62 0854.41
2009/04/23 16:30:36.4    -148   -148     57    210    218 225.0  15.2  34182  289.96 0854.41
2009/04/23 16:30:36.5     -56   -166     76    176    191 198.7  24.9  34126  289.01 0854.41
2009/04/23 16:30:36.6     -50   -148     93    157    182 198.7  33.7  34136  289.18 0854.41
2009/04/23 16:30:36.7     -40   -120    106    127    165 198.7  44.3  34144  289.30 0854.41
2009/04/23 16:30:36.8     -32    -83    120     90    150 201.4  59.4  34150  289.41 0854.41
2009/04/23 16:30:36.9    -177    -42    -24    183    185 256.5  -7.7  34166  289.69 0854.41
2009/04/23 16:30:37.1    -187    -54     30    195    198 253.8   8.8  34178  289.87 0854.41
2009/04/23 16:30:37.1    -211     18      4    212    213 275.0   1.2  34178  289.89 0854.41
2009/04/23 16:30:37.2    -185    -37     61    189    199 258.6  18.1  34170  289.74 0854.41
2009/04/23 16:30:37.3    -211    -91     79    230    244 246.7  18.9  34148  289.36 0854.41
2009/04/23 16:30:37.4    -184    -61     69    194    206 251.6  19.6  34144  289.30 0854.41
2009/04/23 16:30:37.5    -160    -84     47    181    188 242.2  14.7  34142  289.26 0854.41
2009/04/23 16:30:37.6    -202     -9     43    203    208 267.4  12.2  34162  289.62 0854.41
2009/04/23 16:30:37.7    -188      2      4    189    190 270.9   1.2  34172  289.79 0854.41
2009/04/23 16:30:37.8    -140     27     57    143    153 281.0  23.0  34170  289.75 0854.41
2009/04/23 16:30:37.9    -124    118    147    172    226 313.6  44.8  34210  290.43 0854.41
2009/04/23 16:30:38.0     -77    106     48    132    140 323.9  20.9  34210  290.43 0854.38
2009/04/23 16:30:38.2      97    -43     57    107    121 114.0  30.3  34192  290.13 0854.38
2009/04/23 16:30:38.2      78    101    161    128    205  37.8  57.5  34208  290.40 0854.38
2009/04/23 16:30:38.3     116     73    134    138    192  57.6  49.4  34200  290.26 0854.38
2009/04/23 16:30:38.4      32     88    116     94    149  20.0  56.4  34198  290.21 0854.38
2009/04/23 16:30:38.5      14     47    107     50    118  16.9  73.5  34208  290.38 0854.38
2009/04/23 16:30:38.6      25     74    112     79    137  19.2  61.1  34226  290.70 0854.38
2009/04/23 16:30:38.7      93     22    149     96    177  76.3  64.4  34274  291.52 0854.38
2009/04/23 16:30:38.8     172     81    154    191    245  64.7  43.3  34280  291.60 0854.38
2009/04/23 16:30:39.0     169     64    133    181    224  69.2  39.9  34260  291.28 0854.38
2009/04/23 16:30:39.1     183     61     89    194    213  71.4  26.6  34214  290.48 0854.38
2009/04/23 16:30:39.2     177     83     88    196    214  64.9  25.9  34250  291.11 0854.38
2009/04/23 16:30:39.3     158     75    126    176    216  64.5  39.5  34364  293.05 0854.38
2009/04/23 16:30:39.4     100     19     97    102    140  79.0  48.0  34354  292.88 0854.38
2009/04/23 16:30:39.5     -39     22     87     46     98 299.8  70.4  34350  292.80 0854.38
2009/04/23 16:30:39.6      19      0     82     20     84  90.8  85.9  34338  292.61 0854.38
2009/04/23 16:30:39.7       8     65     95     66    115   7.1  62.1  34330  292.46 0854.38
2009/04/23 16:30:39.8      17     91    107     93    141  10.7  54.3  34352  292.85 0854.38
2009/04/23 16:30:39.9      70     40    114     81    139  59.8  60.6  34378  293.27 0854.38
2009/04/23 16:30:40.0      81     44    119     93    151  61.1  57.9  34362  293.02 0854.38
2009/04/23 16:30:40.1     121     57    137    134    191  64.6  50.7  34370  293.15 0854.36
2009/04/23 16:30:40.2     103     45    133    113    174  66.5  55.6  34356  292.90 0854.36
2009/04/23 16:30:40.3     104     58     88    120    148  60.7  39.7  34334  292.52 0854.36
2009/04/23 16:30:40.4     130    -61     93    144    171 115.2  35.7  34258  291.25 0854.36
2009/04/23 16:30:40.5      59    -32    116     68    134 118.8  66.8  34268  291.40 0854.36
2009/04/23 16:30:40.6      67      9    127     68    144  82.1  69.3  34264  291.35 0854.36
2009/04/23 16:30:40.7     111    -11    123    112    166  96.1  53.0  34298  291.91 0854.36
2009/04/23 16:30:40.8      66     22    129     70    146  71.6  69.3  34356  292.92 0854.36
2009/04/23 16:30:40.9     105     53     86    118    146  62.9  39.7  34336  292.56 0854.36
2009/04/23 16:30:41.0     154     58    125    165    207  69.2  41.2  34356  292.90 0854.36
2009/04/23 16:30:41.1     179     81    102    197    221  65.6  29.3  34364  293.05 0854.36
2009/04/23 16:30:41.2     137     96    107    168    199  54.9  35.5  34416  293.92 0854.36
2009/04/23 16:30:41.3     119    -23    132    122    179 101.0  52.2  34244  290.99 0854.36
2009/04/23 16:30:41.4     125     -9    131    126    181  94.4  51.2  34258  291.23 0854.36
2009/04/23 16:30:41.5      96      7    122     97    155  85.7  56.9  34282  291.64 0854.36
2009/04/23 16:30:41.6      56      4     69     57     89  85.7  56.4  34232  290.79 0854.36
2009/04/23 16:30:41.7      29    -18     80     35     87 122.4  75.5  34244  290.99 0854.36
2009/04/23 16:30:41.8      16     22     93     28     97  36.1  82.3  34276  291.54 0854.36
2009/04/23 16:30:41.9      16     27     66     32     73  30.7  72.8  34284  291.67 0854.36
2009/04/23 16:30:42.0      -7      4     65      9     65 302.4  90.0  34258  291.23 0854.36
2009/04/23 16:30:42.1      -8      8     49     12     50 316.8  88.0  34224  290.67 0854.36
2009/04/23 16:30:42.2       9     24     61     26     66  21.8  77.0  34254  291.16 0854.36
2009/04/23 16:30:42.3      47     28     54     55     77  59.3  51.1  34292  291.83 0854.36
2009/04/23 16:30:42.4      -2     88     51     89    102 358.2  32.4  34346  292.75 0854.36
2009/04/23 16:30:42.5     -52    130     18    141    143 338.2   7.5  34370  293.15 0854.36
2009/04/23 16:30:42.6     -58     99     13    115    116 329.7   6.9  34334  292.54 0854.36
2009/04/23 16:30:42.7     -84     56     52    101    113 303.7  28.7  34326  292.40 0854.36
2009/04/23 16:30:42.8     -81     54     46     98    108 303.7  27.1  34348  292.76 0854.36
2009/04/23 16:30:42.9     -18     49     55     53     76 339.1  50.1  34348  292.76 0854.36
2009/04/23 16:30:43.0     -39     40     19     57     61 315.8  18.4  34336  292.58 0854.36
2009/04/23 16:30:43.1     -67     91      5    114    115 323.5   2.9  34316  292.23 0854.36
2009/04/23 16:30:43.2     -51     43     13     67     69 310.4  11.0  34318  292.25 0854.36
2009/04/23 16:30:43.3     -68     48     49     84     97 305.5  33.5  34284  291.67 0854.36
2009/04/23 16:30:43.4    -102     48     68    113    131 295.4  34.0  34300  291.96 0854.36
2009/04/23 16:30:43.5    -111    127     23    170    172 318.8   7.8  34322  292.34 0854.36
2009/04/23 16:30:43.6    -119    122     -6    171    172 315.9  -2.2  34320  292.29 0854.36
2009/04/23 16:30:43.7     -83    130     29    155    158 327.5  10.6  34278  291.59 0854.36
2009/04/23 16:30:43.8     -85    148      8    171    172 330.1   2.8  34288  291.74 0854.36
2009/04/23 16:30:43.9    -102    121     33    159    163 320.1  12.0  34274  291.52 0854.36
2009/04/23 16:30:44.0     -89     92     15    129    130 315.9   6.9  34252  291.13 0854.36
2009/04/23 16:30:44.1     -35     63      3     73     74 331.0   2.8  34248  291.08 0854.35
2009/04/23 16:30:44.2      -6     96     -3     97     98 356.0  -2.2  34258  291.23 0854.35
2009/04/23 16:30:44.3      22    111    -22    114    117  11.5 -11.3  34282  291.64 0854.35
2009/04/23 16:30:44.4       0    126     51    127    136   0.0  23.0  34270  291.43 0854.35
2009/04/23 16:30:44.5     -34     29     90     45    100 310.4  71.9  34292  291.81 0854.35
2009/04/23 16:30:44.6     -63     -3     54     64     83 266.5  45.4  34296  291.89 0854.35
2009/04/23 16:30:44.7       8    -26     73     28     78 161.5  79.2  34284  291.67 0854.35
2009/04/23 16:30:44.8     -24     -4     71     25     75 258.5  81.2  34272  291.47 0854.35
2009/04/23 16:30:44.9     -17    -13     47     22     51 232.2  73.1  34272  291.49 0854.35
2009/04/23 16:30:45.0     -36    -74     67     83    106 206.3  43.7  34266  291.38 0854.35
2009/04/23 16:30:45.1     -87    -19    -11     90     91 257.6  -7.2  34260  291.28 0854.35
2009/04/23 16:30:45.2     -40    -82     52     92    105 206.3  31.9  34268  291.42 0854.35
2009/04/23 16:30:45.3     -10    -76     35     77     84 188.1  26.2  34266  291.37 0854.35
2009/04/23 16:30:45.4       6    -66     23     67     72 174.7  19.4  34264  291.35 0854.35
2009/04/23 16:30:45.5       3    -56     24     57     61 176.4  23.1  34270  291.45 0854.35
2009/04/23 16:30:45.6     -36    -55     31     66     72 213.4  27.1  34278  291.57 0854.35
2009/04/23 16:30:45.7     -33    -35     36     49     60 223.2  39.7  34258  291.25 0854.35
2009/04/23 16:30:45.8      -7     -7     50     11     51 225.0  89.0  34252  291.15 0854.35
2009/04/23 16:30:45.9       4      0     36      5     36  90.0  90.0  34266  291.37 0854.35
2009/04/23 16:30:46.0      -8     -5     25     10     26 237.6  79.2  34262  291.32 0854.35
2009/04/23 16:30:46.1     -54    -44     41     70     81 230.5  32.9  34262  291.30 0854.36
2009/04/23 16:30:46.2     -92    -47     14    104    106 242.9   8.0  34290  291.77 0854.36
2009/04/23 16:30:46.3    -160    -15     10    161    162 264.3   3.8  34274  291.52 0854.36
2009/04/23 16:30:46.4    -194    -10    -58    195    204 267.0 -16.8  34202  290.30 0854.36
2009/04/23 16:30:46.5    -198     15    -98    199    221 274.6 -32.4  34214  290.50 0854.36
2009/04/23 16:30:46.6    -170     12     52    171    179 274.1  17.1  34262  291.32 0854.36
2009/04/23 16:30:46.7    -110      5     65    111    128 272.6  33.5  34278  291.59 0854.36
2009/04/23 16:30:46.8     -47    -15     59     50     77 251.4  56.3  34276  291.54 0854.36
2009/04/23 16:30:46.9     -72    -64     85     97    128 228.2  45.8  34262  291.30 0854.36
2009/04/23 16:30:47.0     -83    -54     82    100    129 236.7  43.7  34254  291.18 0854.36
2009/04/23 16:30:47.1     -61    -44     38     76     84 234.0  28.7  34248  291.06 0854.38
2009/04/23 16:30:47.2     -59    -56     49     82     95 226.4  34.4  34252  291.15 0854.38
2009/04/23 16:30:47.3    -146      4     12    147    148 271.7   4.9  34292  291.83 0854.38
2009/04/23 16:30:47.4     -93      4    -17     94     96 273.0 -10.3  34302  291.98 0854.38
2009/04/23 16:30:47.5     -73     12     26     75     80 279.7  19.4  34282  291.64 0854.38
2009/04/23 16:30:47.6     -37      7    -27     38     46 281.5 -43.0  34262  291.30 0854.38
2009/04/23 16:30:47.7     -46    -14     17     49     52 252.3  19.4  34268  291.42 0854.38
2009/04/23 16:30:47.8     -69    -14     42     71     82 258.6  33.5  34272  291.47 0854.38
2009/04/23 16:30:47.9     -47    -13     42     49     64 254.1  45.8  34268  291.42 0854.38
2009/04/23 16:30:48.0    -109      0    -14    110    111 270.0  -7.7  34270  291.43 0854.38
2009/04/23 16:30:48.1    -138     19     22    140    142 277.9   9.0  34284  291.69 0854.38
2009/04/23 16:30:48.2    -174     16     -3    175    176 275.5  -1.2  34270  291.43 0854.38
2009/04/23 16:30:48.3    -130     -1     48    131    139 269.2  20.9  34242  290.98 0854.38
2009/04/23 16:30:48.4     -85    -40     78     95    122 244.7  43.7  34256  291.20 0854.38
2009/04/23 16:30:48.5     -67    -46     84     82    117 235.8  50.2  34278  291.59 0854.38
2009/04/23 16:30:48.6     -99    -92    106    136    172 226.9  42.2  34256  291.21 0854.38
2009/04/23 16:30:48.7     -44   -135     81    143    164 198.3  32.4  34222  290.62 0854.38
2009/04/23 16:30:48.8       0   -134    101    135    168 180.0  40.7  34174  289.80 0854.38
2009/04/23 16:30:48.9     -25   -134    108    137    174 190.7  42.4  34192  290.11 0854.38
2009/04/23 16:30:49.0     -63   -147     45    161    168 203.2  15.8  34174  289.82 0854.38
2009/04/23 16:30:49.1     -54   -164     29    173    176 198.5   9.5  34156  289.52 0854.40
2009/04/23 16:30:49.2     -40   -100     54    108    120 201.8  28.7  34188  290.06 0854.40
2009/04/23 16:30:49.3     -48    -98     72    110    131 206.3  36.0  34192  290.13 0854.40
2009/04/23 16:30:49.4     -28   -160     90    163    186 190.2  31.3  34168  289.72 0854.40
2009/04/23 16:30:49.5     -26   -178     71    180    193 188.5  22.5  34156  289.50 0854.40
2009/04/23 16:30:49.6      41   -189     66    194    206 167.5  18.9  34196  290.19 0854.40
2009/04/23 16:30:49.7      26   -208     54    210    217 172.7  14.5  34202  290.30 0854.40
2009/04/23 16:30:49.8      48   -201     47    207    213 166.6  12.9  34202  290.28 0854.40
2009/04/23 16:30:49.9      32   -158     64    162    174 168.5  22.5  34198  290.23 0854.40
2009/04/23 16:30:50.0      10   -171     52    172    180 176.6  16.8  34192  290.13 0854.40
2009/04/23 16:30:50.1      59   -208    102    217    239 164.0  27.0  34206  290.35 0854.40
2009/04/23 16:30:50.2      68   -193    116    205    235 160.4  31.9  34226  290.69 0854.40
2009/04/23 16:30:50.3      70   -155    146    171    224 155.7  44.5  34234  290.82 0854.40
2009/04/23 16:30:50.4     101    -82    130    131    184 129.1  50.2  34246  291.03 0854.40
2009/04/23 16:30:50.5      63    -96    137    116    179 146.6  55.6  34232  290.79 0854.40
2009/04/23 16:30:50.6      33    -45    144     56    154 143.9  78.2  34196  290.19 0854.40
2009/04/23 16:30:50.7       6    -21    111     23    113 163.1  89.0  34206  290.36 0854.40
2009/04/23 16:30:50.8       9     17     98     20    100  29.0  89.0  34230  290.75 0854.40
2009/04/23 16:30:50.9       0     33    102     34    107 359.1  81.0  34266  291.37 0854.40
2009/04/23 16:30:51.0     -52     16    107     55    120 287.7  70.8  34256  291.21 0854.40
2009/04/23 16:30:51.1     -33     37     82     50     96 318.6  65.1  34256  291.20 0854.43
2009/04/23 16:30:51.2      -7     65     96     66    116 353.8  62.6  34236  290.86 0854.43
2009/04/23 16:30:51.3     -16     61    114     64    130 344.9  68.3  34248  291.08 0854.43
2009/04/23 16:30:51.4       0    103    114    104    154   0.5  52.2  34262  291.32 0854.43
2009/04/23 16:30:51.5     -58    101     74    117    138 330.1  35.5  34236  290.86 0854.43
2009/04/23 16:30:51.6     -17    105     64    107    124 350.7  33.5  34286  291.71 0854.43
2009/04/23 16:30:51.7     -74    101     58    126    138 323.9  27.1  34322  292.34 0854.43
2009/04/23 16:30:51.8    -110     70     34    131    136 302.5  14.7  34246  291.04 0854.43
2009/04/23 16:30:51.9    -116     96     -3    151    152 309.6  -1.2  34208  290.38 0854.43
2009/04/23 16:30:52.0    -148     54    -32    158    162 290.2 -11.6  34198  290.21 0854.43
2009/04/23 16:30:52.1    -163     40      9    168    169 283.9   3.3  34206  290.35 0854.43
2009/04/23 16:30:52.2    -132     94      9    163    164 305.5   3.3  34228  290.74 0854.43
2009/04/23 16:30:52.3    -123     90     -8    153    154 306.4  -3.2  34232  290.81 0854.43
2009/04/23 16:30:52.4     -86    103     13    135    136 320.4   5.9  34228  290.72 0854.43
2009/04/23 16:30:52.5     -32    116     28    121    125 344.4  13.2  34196  290.19 0854.43
2009/04/23 16:30:52.6     -33    113    -37    118    123 343.5 -22.3  34242  290.98 0854.43
2009/04/23 16:30:52.7       7     49    -13     50     52   8.9 -15.5  34250  291.11 0854.43
2009/04/23 16:30:52.8       1     33     19     34     38   2.7  31.4  34248  291.08 0854.43
2009/04/23 16:30:52.9      -3     -9     19     10     21 201.8  70.8  34242  290.98 0854.43
2009/04/23 16:30:53.0       0      9     -2     10     11 357.3 -11.3  34236  290.87 0854.43
2009/04/23 16:30:53.1      30      9     -2     32     33  71.8  -5.2  34238  290.89 0854.42
2009/04/23 16:30:53.2      24     51    -11     57     59  25.4 -11.3  34258  291.23 0854.42
2009/04/23 16:30:53.3       8     15     35     18     39  29.0  72.8  34258  291.25 0854.42
2009/04/23 16:30:53.4      44     14     17     47     49  71.6  20.0  34256  291.21 0854.42
2009/04/23 16:30:53.5      48     35     -7     60     61  54.0  -7.3  34246  291.04 0854.42
2009/04/23 16:30:53.6      60     80    -19    101    103  37.0 -10.9  34232  290.79 0854.42
2009/04/23 16:30:53.7     103     10    -13    104    105  84.3  -7.3  34226  290.70 0854.42
2009/04/23 16:30:53.8      94     50    -64    107    124  61.6 -37.9  34222  290.64 0854.42
2009/04/23 16:30:53.9     109     46    -66    119    136  66.9 -35.8  34230  290.77 0854.42
2009/04/23 16:30:54.0     137     41    -49    144    152  73.2 -23.3  34212  290.47 0854.42
2009/04/23 16:30:54.1     124     48    -56    134    145  68.7 -28.0  34218  290.55 0854.42
2009/04/23 16:30:54.2     109     36    -32    115    120  71.6 -15.5  34210  290.41 0854.42
2009/04/23 16:30:54.3     119     47    -10    129    130  68.2  -4.6  34190  290.09 0854.42
2009/04/23 16:30:54.4      93     -2     71     94    117  91.3  40.7  34192  290.13 0854.42
2009/04/23 16:30:54.5      55    -32     73     64     97 120.7  54.3  34206  290.36 0854.42
2009/04/23 16:30:54.6      43    -26     81     51     95 120.7  64.7  34216  290.53 0854.42
2009/04/23 16:30:54.7      12    -21     65     25     69 151.0  78.2  34230  290.77 0854.42
2009/04/23 16:30:54.8     -16   -115     92    117    148 188.0  42.2  34206  290.35 0854.42
2009/04/23 16:30:54.9      20    -98     96    101    139 168.4  48.5  34202  290.28 0854.42
2009/04/23 16:30:55.0      14   -108     96    109    145 172.4  45.9  34186  290.01 0854.42
2009/04/23 16:30:55.1      30    -18     67     36     76 120.7  68.9  34192  290.11 0854.41
2009/04/23 16:30:55.2      89     18     93     91    130  78.5  50.1  34218  290.57 0854.41
2009/04/23 16:30:55.3      89    -22    131     92    160 104.2  61.5  34236  290.86 0854.41
2009/04/23 16:30:55.4      11     33    106     35    111  18.5  80.7  34252  291.15 0854.41
2009/04/23 16:30:55.5      83     33    129     90    157  68.3  61.5  34264  291.35 0854.41
2009/04/23 16:30:55.6     146     19    147    148    208  82.5  50.0  34254  291.16 0854.41
2009/04/23 16:30:55.7     149     -4    134    150    201  91.7  46.4  34256  291.20 0854.41
2009/04/23 16:30:55.8      35    -78    109     86    138 155.9  57.9  34224  290.67 0854.41
2009/04/23 16:30:55.9      86    -84    145    121    188 134.6  56.3  34204  290.33 0854.41
2009/04/23 16:30:56.0      35    -32     97     48    108 133.1  72.8  34204  290.33 0854.41
2009/04/23 16:30:56.1      96   -124    140    158    211 142.2  46.2  34192  290.11 0854.41
2009/04/23 16:30:56.2     124   -112    133    168    214 132.2  42.4  34174  289.82 0854.41
2009/04/23 16:30:56.3     128   -114    113    172    205 131.6  36.3  34160  289.58 0854.41
2009/04/23 16:30:56.4     144   -101    109    177    207 125.1  34.8  34162  289.60 0854.41
2009/04/23 16:30:56.5     125   -176     95    217    236 144.6  25.1  34168  289.72 0854.41
2009/04/23 16:30:56.6     149   -140     72    205    218 133.2  19.4  34158  289.55 0854.41
2009/04/23 16:30:56.7     227   -108     94    252    268 115.4  21.3  34172  289.78 0854.41
2009/04/23 16:30:56.8     204   -165     48    263    268 129.1  10.3  34152  289.42 0854.41
2009/04/23 16:30:56.9     177    -63     94    189    211 109.7  28.2  34218  290.55 0854.41
2009/04/23 16:30:57.0     109    -85     47    139    147 128.2  18.9  34150  289.41 0854.41
2009/04/23 16:30:57.1     101   -149     92    181    203 145.7  29.2  34144  289.31 0854.40
2009/04/23 16:30:57.2     126   -213    161    248    295 149.3  35.7  34168  289.70 0854.40
2009/04/23 16:30:57.3     152   -302     65    339    346 153.3  11.0  34168  289.71 0854.40
2009/04/23 16:30:57.4     150   -193     96    245    263 142.2  22.5  34172  289.76 0854.40
2009/04/23 16:30:57.5     146   -157    122    215    247 137.2  32.3  34176  289.85 0854.40
2009/04/23 16:30:57.6     137   -169     50    218    224 141.0  13.1  34172  289.77 0854.40
2009/04/23 16:30:57.7     140   -169    -18    220    221 140.3  -4.9  34202  290.28 0854.40
2009/04/23 16:30:57.8      90   -141     74    168    183 147.5  25.1  34210  290.41 0854.40
2009/04/23 16:30:57.9     108   -124    113    165    199 139.0  37.6  34212  290.47 0854.40
2009/04/23 16:30:58.0     209   -134     58    249    256 122.6  13.2  34214  290.49 0854.40
2009/04/23 16:30:58.1     304   -121     21    328    329 111.7   3.8  34204  290.31 0854.40
2009/04/23 16:30:58.2     211    -43    103    216    239 101.5  27.3  34184  289.99 0854.40
2009/04/23 16:30:58.3     145    -54    107    155    188 110.4  38.0  34180  289.92 0854.40
2009/04/23 16:30:58.4     113    -75     96    136    166 123.7  38.8  34168  289.70 0854.40
2009/04/23 16:30:58.5     105    -69     74    126    146 123.3  33.5  34156  289.52 0854.40
2009/04/23 16:30:58.6      97    -58     48    114    123 121.1  24.1  34154  289.46 0854.40
2009/04/23 16:30:58.7      46    -75     61     89    107 148.4  37.6  34154  289.46 0854.40
2009/04/23 16:30:58.8       1   -122     69    123    141 179.5  31.4  34156  289.52 0854.40
2009/04/23 16:30:58.9     -20   -140     44    142    149 188.1  17.3  34166  289.67 0854.40
2009/04/23 16:30:59.0     -18   -105    -15    107    109 189.8  -8.2  34174  289.80 0854.40
2009/04/23 16:30:59.1     -12   -107    -38    108    115 186.7 -19.7  34172  289.77 0854.38
2009/04/23 16:30:59.2     -34    -72    -24     80     83 205.3 -22.3  34172  289.79 0854.38
2009/04/23 16:30:59.3     -61    -58    -17     85     87 226.4 -11.3  34176  289.84 0854.38
2009/04/23 16:30:59.4     -55    -84     -3    101    102 213.4  -2.2  34176  289.85 0854.38
2009/04/23 16:30:59.5     -49    -85    -16     99    101 210.3  -9.3  34184  289.97 0854.38
2009/04/23 16:30:59.6     -55   -102     -4    117    118 208.5  -2.2  34188  290.04 0854.38
2009/04/23 16:30:59.7     -63    -87    -11    108    109 216.0  -6.2  34176  289.85 0854.38
2009/04/23 16:30:59.8     -17    -80    -32     82     88 192.0 -26.4  34162  289.62 0854.38
2009/04/23 16:30:59.9       9   -100    -11    101    102 174.7  -6.2  34160  289.58 0854.38
2009/04/23 16:31:00.0      11    -65    -18     66     69 170.2 -15.5  34160  289.57 0854.38
2009/04/23 16:31:00.1      21    -64      8     68     69 161.5   6.9  34168  289.70 0854.38
2009/04/23 16:31:00.2      -1    -62     42     63     75 181.8  35.6  34168  289.70 0854.38
2009/04/23 16:31:00.3     -19    -60     48     64     80 197.8  40.7  34172  289.79 0854.38
2009/04/23 16:31:00.4      26    -40     33     48     58 146.6  36.5  34164  289.63 0854.38
2009/04/23 16:31:00.5      33    -33     25     47     53 135.0  30.3  34150  289.41 0854.38
2009/04/23 16:31:00.6      24    -73     15     77     79 161.5  11.1  34146  289.33 0854.38
2009/04/23 16:31:00.7      36    -75    -15     84     86 154.6 -10.3  34150  289.41 0854.38
2009/04/23 16:31:00.8      33    -86    -12     93     94 158.6  -7.7  34148  289.36 0854.38
2009/04/23 16:31:00.9      42    -74    -12     86     87 150.6  -8.2  34150  289.40 0854.38
2009/04/23 16:31:01.0      48    -70    -17     86     88 145.3 -11.3  34156  289.50 0854.38
2009/04/23 16:31:01.1      11    -36     43     38     57 163.1  53.3  34168  289.70 0854.37
2009/04/23 16:31:01.2       1     13     77     14     78   8.0  90.0  34172  289.77 0854.37
2009/04/23 16:31:01.3      -6     33     34     34     48 348.5  50.1  34168  289.72 0854.37
2009/04/23 16:31:01.4       6    -32     21     33     39 168.4  35.5  34162  289.62 0854.37
2009/04/23 16:31:01.5      54    -78     96     95    135 145.3  49.7  34180  289.92 0854.37
2009/04/23 16:31:01.6      -3    -86    105     87    136 182.2  56.3  34166  289.69 0854.37
2009/04/23 16:31:01.7      47   -165     35    172    176 164.0  11.6  34154  289.46 0854.37
2009/04/23 16:31:01.8      75   -147    -56    166    176 152.8 -18.7  34154  289.46 0854.37
2009/04/23 16:31:01.9      54   -164    -58    173    182 161.7 -23.6  34150  289.41 0854.37
2009/04/23 16:31:02.0      36   -187    -51    191    198 168.9 -15.0  34150  289.41 0854.37
2009/04/23 16:31:02.1      46   -190    -63    196    206 166.4 -17.9  34152  289.45 0854.37
2009/04/23 16:31:02.2      68   -260    -12    269    270 165.3  -2.6  34138  289.19 0854.37
2009/04/23 16:31:02.3      84   -261     13    275    276 162.1   2.8  34138  289.20 0854.37
2009/04/23 16:31:02.4      56   -275     20    281    282 168.4   4.2  34146  289.34 0854.37
2009/04/23 16:31:02.5      30   -281     29    283    285 173.8   5.9  34136  289.15 0854.37
2009/04/23 16:31:02.6     105   -316      4    334    335 161.6   0.8  34152  289.42 0854.37
2009/04/23 16:31:02.7     149   -316     88    350    361 154.7  14.2  34142  289.26 0854.37
2009/04/23 16:31:02.8     134   -303    148    332    363 156.2  25.7  34142  289.26 0854.37
2009/04/23 16:31:02.9     193   -258    115    323    342 143.3  20.3  34140  289.23 0854.37
2009/04/23 16:31:03.0     251   -219     69    334    342 131.2  11.8  34144  289.30 0854.37
2009/04/23 16:31:03.1     218   -211     95    304    319 134.0  17.4  34140  289.22 0854.37
2009/04/23 16:31:03.2     190   -303    109    358    375 147.9  17.0  34120  288.89 0854.37
2009/04/23 16:31:03.3     179   -349    142    393    418 152.8  19.9  34118  288.87 0854.37
2009/04/23 16:31:03.4     143   -429     97    453    464 161.5  12.1  34120  288.90 0854.37
2009/04/23 16:31:03.5      31   -265    115    267    290 173.3  25.1  34156  289.49 0854.37
2009/04/23 16:31:03.6     -96   -282     46    299    303 198.9   8.8  34162  289.59 0854.37
2009/04/23 16:31:03.7    -150   -243     65    286    294 211.7  12.9  34162  289.59 0854.37
2009/04/23 16:31:03.8     -79   -251      7    264    265 197.6   1.7  34152  289.44 0854.37
2009/04/23 16:31:03.9    -110   -120     25    163    165 222.5   8.8  34158  289.55 0854.37
2009/04/23 16:31:04.0      83   -246     53    260    266 161.3  11.6  34144  289.29 0854.37
2009/04/23 16:31:04.1     102   -204     18    229    230 153.5   4.6  34120  288.89 0854.37
2009/04/23 16:31:04.2     101   -214    103    237    258 154.7  25.1  34132  289.10 0854.37
2009/04/23 16:31:04.3     155   -257     93    301    316 149.0  17.3  34126  288.98 0854.37
2009/04/23 16:31:04.4     149   -301     39    337    340 153.6   6.7  34124  288.96 0854.37
2009/04/23 16:31:04.5     167   -293     47    338    342 150.4   7.9  34124  288.96 0854.37
2009/04/23 16:31:04.6     147   -328     63    360    366 155.9  10.0  34124  288.96 0854.37
2009/04/23 16:31:04.7     139   -282     76    315    325 153.7  13.7  34124  288.97 0854.37
2009/04/23 16:31:04.8     135   -310    118    339    360 156.5  19.2  34126  289.01 0854.37
2009/04/23 16:31:04.9     115   -372    146    390    416 162.8  21.6  34118  288.87 0854.37
2009/04/23 16:31:05.0     161   -377    147    411    436 156.8  20.6  34122  288.92 0854.37
2009/04/23 16:31:05.1     135   -404    124    427    445 161.5  16.3  34122  288.94 0854.37
2009/04/23 16:31:05.2      85   -405    104    414    427 168.1  14.2  34120  288.89 0854.37
2009/04/23 16:31:05.3      89   -277     99    291    308 162.2  18.9  34126  288.98 0854.37
2009/04/23 16:31:05.4     117   -257     88    283    297 155.5  17.3  34124  288.97 0854.37
2009/04/23 16:31:05.5     143   -300     73    333    341 154.5  12.4  34126  289.01 0854.37
2009/04/23 16:31:05.6     165   -304     67    347    354 151.5  11.0  34124  288.96 0854.37
2009/04/23 16:31:05.7      31   -287     29    289    291 173.8   5.9  34128  289.03 0854.37
2009/04/23 16:31:05.9    -105   -214    -15    239    240 206.1  -3.7  34134  289.12 0854.37
2009/04/23 16:31:06.0    -172   -219    127    279    306 218.3  26.2  34148  289.36 0854.37
2009/04/23 16:31:06.0     -94   -198     40    220    224 205.5  10.3  34136  289.18 0854.37
2009/04/23 16:31:06.2     -54   -257     47    263    268 192.0  10.1  34140  289.22 0854.37
2009/04/23 16:31:06.3      86   -258     53    273    279 161.5  11.1  34128  289.03 0854.37
2009/04/23 16:31:06.4     223   -109    120    249    276 116.0  27.3  34124  288.97 0854.37
2009/04/23 16:31:06.5      67   -172    170    185    251 158.6  47.5  34136  289.18 0854.37
2009/04/23 16:31:06.6      46   -135    125    143    189 160.8  45.6  34142  289.26 0854.37
2009/04/23 16:31:06.7      99   -232     26    253    255 156.8   6.0  34126  288.98 0854.37
2009/04/23 16:31:06.8       0   -190     87    191    209 180.2  26.4  34146  289.35 0854.37
2009/04/23 16:31:06.9    -122    -57    133    135    189 244.7  50.0  34152  289.43 0854.37
2009/04/23 16:31:07.0    -105   -108    122    151    194 224.1  43.5  34148  289.38 0854.37
2009/04/23 16:31:07.1    -103    -41     94    112    146 248.2  43.8  34156  289.50 0854.37
2009/04/23 16:31:07.2    -204   -178     74    271    281 228.9  15.3  34148  289.37 0854.38
2009/04/23 16:31:07.3    -302   -176     37    350    353 239.7   6.1  34152  289.43 0854.38
2009/04/23 16:31:07.4    -248    -30   -119    250    276 262.9 -31.6  34148  289.36 0854.38
2009/04/23 16:31:07.5    -162    -79   -123    181    218 244.0 -42.0  34152  289.43 0854.38
2009/04/23 16:31:07.6    -128     -9    -89    129    156 265.6 -42.8  34146  289.35 0854.38
2009/04/23 16:31:07.7    -125     28   -120    129    176 282.8 -52.3  34150  289.41 0854.38
2009/04/23 16:31:07.8    -142    -32   -133    146    197 257.2 -51.5  34164  289.63 0854.38
2009/04/23 16:31:07.9    -175    -18   -107    176    205 264.1 -38.6  34162  289.62 0854.38
2009/04/23 16:31:08.0    -188    -26   -122    190    225 261.9 -40.0  34162  289.62 0854.38
2009/04/23 16:31:08.1    -120    -51    -74    131    150 246.9 -35.8  34162  289.62 0854.38
2009/04/23 16:31:08.2     -87    -65    -70    109    129 233.1 -40.0  34164  289.65 0854.40
2009/04/23 16:31:08.3    -104    -36    -45    111    119 250.9 -27.5  34158  289.53 0854.40
2009/04/23 16:31:08.4     -32    -32   -100     46    110 225.0 -77.5  34162  289.60 0854.40
2009/04/23 16:31:08.5      14    -22    -88     27     92 147.5 -86.7  34168  289.70 0854.40
2009/04/23 16:31:08.6     -72     -8    -80     73    108 263.0 -57.1  34156  289.52 0854.40
2009/04/23 16:31:08.7    -104    -67    -60    124    137 237.1 -31.7  34154  289.48 0854.40
2009/04/23 16:31:08.8     -74    -67    -60    101    117 227.8 -38.4  34144  289.30 0854.40
2009/04/23 16:31:08.9     -29    -48    -90     57    106 211.6 -69.1  34144  289.31 0854.40
2009/04/23 16:31:09.0     -16    -80    -98     82    127 191.6 -60.7  34162  289.60 0854.40
2009/04/23 16:31:09.1      76   -138    -57    158    167 151.1 -24.8  34150  289.41 0854.40
2009/04/23 16:31:09.2     105   -389     71    404    411 164.9  10.0  34138  289.21 0854.40
2009/04/23 16:31:09.3      93   -318    148    332    363 163.6  25.7  34148  289.38 0854.40
2009/04/23 16:31:09.4     106   -345    128    362    383 162.8  20.3  34144  289.30 0854.40
2009/04/23 16:31:09.5     -29   -336    -15    338    339 185.1  -2.7  34146  289.32 0854.40
2009/04/23 16:31:09.6      -8   -270    -45    271    275 181.8  -9.6  34148  289.36 0854.40
2009/04/23 16:31:09.7      18   -266    -84    267    281 176.0 -17.6  34150  289.41 0854.40
2009/04/23 16:31:09.8      16   -323      5    324    325 177.1   0.9  34136  289.17 0854.40
2009/04/23 16:31:09.9      36   -321    -21    324    325 173.5  -3.7  34132  289.10 0854.40
2009/04/23 16:31:10.0      47   -256     66    261    270 169.5  14.2  34156  289.51 0854.40
2009/04/23 16:31:10.1      -7   -182    182    183    258 182.5  50.0  34166  289.66 0854.40
2009/04/23 16:31:10.2     -22   -117    145    120    188 190.7  56.3  34180  289.92 0854.41
2009/04/23 16:31:10.3      39   -205    165    209    266 169.1  42.7  34170  289.73 0854.41
2009/04/23 16:31:10.4      23   -229     95    231    249 174.2  23.8  34144  289.29 0854.41
2009/04/23 16:31:10.5    -115   -247      5    273    274 204.9   1.2  34146  289.34 0854.41
2009/04/23 16:31:10.6    -165   -143    -50    219    225 229.1 -12.9  34150  289.41 0854.41
2009/04/23 16:31:10.7    -220   -122    -45    252    257 240.9 -10.1  34144  289.31 0854.41
2009/04/23 16:31:10.8    -273    -92    -67    289    297 251.4 -13.2  34122  288.93 0854.41
2009/04/23 16:31:10.9    -264   -218    -69    343    350 230.5 -11.5  34110  288.74 0854.41
2009/04/23 16:31:11.0    -302   -208    -47    368    372 235.4  -7.4  34116  288.81 0854.41
2009/04/23 16:31:11.1    -228   -242   -119    333    354 223.3 -19.7  34108  288.69 0854.41
2009/04/23 16:31:11.2    -255   -230   -109    344    361 227.9 -17.6  34106  288.66 0854.41
2009/04/23 16:31:11.3    -256   -186    -91    317    329 234.0 -21.0  34112  288.75 0854.41
2009/04/23 16:31:11.4    -235   -180    -99    297    313 232.5 -23.6  34112  288.76 0854.41
2009/04/23 16:31:11.5    -285   -203   -121    350    370 234.5 -23.9  34116  288.81 0854.41
2009/04/23 16:31:11.6    -318   -158   -112    356    373 243.5 -22.4  34116  288.84 0854.41
2009/04/23 16:31:11.7    -356   -177   -113    398    413 243.5 -20.5  34114  288.80 0854.41
2009/04/23 16:31:11.8    -366   -146   -130    395    415 248.2 -23.5  34118  288.85 0854.41
2009/04/23 16:31:11.9    -268   -190   -122    329    350 234.7 -25.5  34128  289.03 0854.41
2009/04/23 16:31:12.0    -251   -235    -99    345    359 226.9 -16.0  34126  289.01 0854.41
2009/04/23 16:31:12.1    -273   -137   -152    306    341 243.4 -32.8  34128  289.03 0854.41
2009/04/23 16:31:12.2    -302   -163   -117    344    364 241.7 -18.9  34130  289.06 0854.41
2009/04/23 16:31:12.3    -332   -143   -112    362    378 246.6 -22.2  34120  288.89 0854.41
2009/04/23 16:31:12.4    -251   -133   -157    285    325 242.1 -35.8  34114  288.80 0854.41
2009/04/23 16:31:12.5    -271   -118   -197    296    355 246.4 -41.3  34120  288.89 0854.41
2009/04/23 16:31:12.6    -220   -116   -243    249    347 242.2 -53.8  34126  288.98 0854.41
2009/04/23 16:31:12.7    -222   -127   -156    256    299 240.2 -38.8  34128  289.02 0854.41
2009/04/23 16:31:12.8    -201   -151   -155    252    295 233.1 -38.9  34130  289.05 0854.41
2009/04/23 16:31:12.9    -220    -82   -193    236    304 249.4 -48.1  34132  289.09 0854.41
2009/04/23 16:31:13.0    -241    -54   -167    248    298 257.2 -41.8  34140  289.24 0854.41
2009/04/23 16:31:13.1    -158   -287   -116    328    349 208.9 -19.6  34130  289.06 0854.41
2009/04/23 16:31:13.2     -62   -262   -114    270    293 193.4 -28.6  34128  289.02 0854.41
2009/04/23 16:31:13.3     -60   -235    -87    243    259 194.5 -19.7  34130  289.05 0854.41
2009/04/23 16:31:13.4     -60   -248    -52    256    262 193.6 -11.6  34130  289.05 0854.41
2009/04/23 16:31:13.5     -52   -218    -70    225    235 193.4 -22.3  34130  289.08 0854.41
2009/04/23 16:31:13.6      34   -243    -50    246    252 172.0 -11.6  34130  289.05 0854.41
2009/04/23 16:31:13.7      53   -258    -63    264    272 168.2 -13.4  34130  289.07 0854.41
2009/04/23 16:31:13.8      91   -274    -42    289    293 161.5  -8.3  34128  289.02 0854.41
2009/04/23 16:31:13.9      90   -287    -49    301    306 162.6  -9.3  34132  289.10 0854.41
2009/04/23 16:31:14.0     107   -270     -5    291    292 158.4  -1.2  34130  289.05 0854.41
2009/04/23 16:31:14.1     131   -308     57    335    340 157.0   9.7  34132  289.10 0854.41
2009/04/23 16:31:14.2      57   -328    -44    333    336 170.1  -7.7  34126  289.01 0854.41
2009/04/23 16:31:14.3       0   -271    -82    272    284 180.0 -21.7  34132  289.10 0854.41
2009/04/23 16:31:14.4      57   -285   -109    291    310 168.7 -25.7  34136  289.17 0854.41
2009/04/23 16:31:14.5     166   -290    -65    335    342 150.3 -11.1  34130  289.08 0854.41
2009/04/23 16:31:14.6     156   -256    -85    300    311 148.6 -20.7  34132  289.10 0854.41
2009/04/23 16:31:14.7     162   -228    -96    280    296 144.6 -23.8  34130  289.07 0854.41
2009/04/23 16:31:14.8     161   -141    -59    215    222 131.3 -20.0  34130  289.06 0854.41
2009/04/23 16:31:14.9      77   -152   -115    171    206 153.0 -41.8  34134  289.14 0854.41
2009/04/23 16:31:15.0      67   -152   -105    167    197 156.2 -39.9  34138  289.21 0854.41
2009/04/23 16:31:15.1      61   -156    -49    168    175 158.4 -21.5  34136  289.18 0854.41
2009/04/23 16:31:15.2      35   -120    -47    126    134 163.5 -25.3  34134  289.14 0854.41
2009/04/23 16:31:15.3      61   -112    -49    128    137 151.5 -25.9  34134  289.13 0854.41
2009/04/23 16:31:15.4     113   -112    -28    160    163 134.9 -10.1  34136  289.16 0854.41
2009/04/23 16:31:15.5     120    -99    -40    156    162 129.5 -14.5  34134  289.14 0854.41
2009/04/23 16:31:15.6      98    -99     -2    140    141 135.5  -1.2  34136  289.16 0854.41
2009/04/23 16:31:15.7      77   -106      7    132    133 144.0   3.3  34136  289.16 0854.41
2009/04/23 16:31:15.8      60   -167     31    178    181 160.2  10.1  34134  289.14 0854.41
2009/04/23 16:31:15.9      -4   -176    -22    177    179 181.6  -7.2  34140  289.23 0854.41
2009/04/23 16:31:16.0      52   -156     63    165    176 161.5  22.3  34130  289.08 0854.41
2009/04/23 16:31:16.1      58   -167     96    177    201 160.8  30.8  34132  289.11 0854.41
2009/04/23 16:31:16.2      71   -130     81    149    169 151.1  30.8  34134  289.14 0854.38
2009/04/23 16:31:16.3      41   -135    101    142    174 163.0  38.8  34142  289.26 0854.38
2009/04/23 16:31:16.4       0   -132     88    133    159 180.4  36.7  34150  289.41 0854.38
2009/04/23 16:31:16.5     -56   -131     47    143    151 203.2  18.4  34170  289.74 0854.38
2009/04/23 16:31:16.6     -63    -77     52    100    112 219.2  29.3  34168  289.70 0854.38
2009/04/23 16:31:16.7     -51   -110     80    122    145 204.9  36.0  34174  289.82 0854.38
2009/04/23 16:31:16.8     -70   -118     47    138    146 210.8  18.9  34172  289.77 0854.38
2009/04/23 16:31:16.9     -65    -93     35    114    120 215.2  17.4  34178  289.87 0854.38
2009/04/23 16:31:17.0     -46    -73     50     87    100 212.5  32.4  34168  289.72 0854.38
2009/04/23 16:31:17.1     -49   -104     25    116    119 205.3  12.2  34162  289.62 0854.38
2009/04/23 16:31:17.2     -93    -57    -17    110    112 238.5  -8.8  34170  289.75 0854.38
2009/04/23 16:31:17.3     -78    -42     -3     89     90 241.6  -2.2  34176  289.84 0854.38
2009/04/23 16:31:17.4     -30      2     51     31     59 274.3  65.7  34184  289.97 0854.38
2009/04/23 16:31:17.5     -29     -5     82     30     87 258.5  79.7  34196  290.19 0854.38
2009/04/23 16:31:17.6     -20     -9     62     23     66 244.7  80.2  34204  290.33 0854.38
2009/04/23 16:31:17.7     -32      0     49     33     59 270.0  62.6  34194  290.16 0854.38
2009/04/23 16:31:17.8       8    -26     28     28     39 161.3  50.1  34204  290.33 0854.38
2009/04/23 16:31:17.9       6    -61     17     62     65 173.8  15.2  34200  290.26 0854.38
2009/04/23 16:31:18.0      10    -74      9     75     76 172.0   6.9  34188  290.06 0854.38
2009/04/23 16:31:18.1      -1    -39     11     40     42 182.7  16.3  34194  290.16 0854.38
2009/04/23 16:31:18.2     -20    -59    122     63    137 199.2  70.8  34212  290.47 0854.36
2009/04/23 16:31:18.3      33    -90    115     97    150 159.5  56.3  34194  290.14 0854.36
2009/04/23 16:31:18.4      67   -141    104    157    188 154.7  36.5  34196  290.18 0854.36
2009/04/23 16:31:18.5      74   -116    122    138    184 147.5  46.2  34200  290.26 0854.36
2009/04/23 16:31:18.6      86    -62    123    107    163 125.9  54.3  34220  290.58 0854.36
2009/04/23 16:31:18.7      -7    -90     88     91    126 184.5  49.4  34224  290.67 0854.36
2009/04/23 16:31:18.8     -18   -104    121    106    160 190.2  54.3  34236  290.86 0854.36
2009/04/23 16:31:18.9     -84    -67    119    108    160 231.4  53.3  34256  291.20 0854.36
2009/04/23 16:31:19.0     -34   -149    147    153    212 192.9  49.2  34200  290.25 0854.36
2009/04/23 16:31:19.1     -26   -186    138    188    233 188.0  39.7  34166  289.69 0854.36
2009/04/23 16:31:19.2     -11   -154    123    155    197 184.4  42.4  34192  290.11 0854.36
2009/04/23 16:31:19.3      35   -106    132    112    173 161.5  55.4  34194  290.14 0854.36
2009/04/23 16:31:19.4      52    -21     88     57    104 112.6  64.6  34222  290.62 0854.36
2009/04/23 16:31:19.5      23    -19     31     31     43 129.5  50.1  34236  290.86 0854.36
2009/04/23 16:31:19.6       2     -2     27      4     27 135.0  90.0  34228  290.74 0854.36
2009/04/23 16:31:19.7     -22      7     18     24     30 288.2  41.7  34220  290.58 0854.36
2009/04/23 16:31:19.8      -5     13     -6     15     16 338.2 -23.3  34222  290.64 0854.36
2009/04/23 16:31:19.9     -17     12     14     22     26 306.0  35.5  34228  290.74 0854.36
2009/04/23 16:31:20.0     -30    -19     53     36     64 237.5  62.6  34248  291.06 0854.36
2009/04/23 16:31:20.1     -11    -16     74     20     76 214.3  84.8  34256  291.21 0854.36
2009/04/23 16:31:20.2     -10      9     85     14     86 313.3  90.0  34236  290.87 0854.37
2009/04/23 16:31:20.3      -1    -39    123     40    129 182.6  80.7  34214  290.50 0854.37
2009/04/23 16:31:20.4      30      2     88     31     93  85.6  80.7  34204  290.33 0854.37
2009/04/23 16:31:20.5      12    -84     77     85    114 171.5  47.5  34198  290.23 0854.37
2009/04/23 16:31:20.6     -33   -129    105    134    170 194.3  42.2  34170  289.74 0854.37
2009/04/23 16:31:20.7    -155    -55    120    165    204 250.5  39.7  34190  290.08 0854.37
2009/04/23 16:31:20.8    -169   -115     91    205    224 235.6  25.3  34174  289.80 0854.37
2009/04/23 16:31:20.9    -159   -144     53    215    222 227.8  13.9  34146  289.35 0854.37
2009/04/23 16:31:21.0    -134   -117     66    178    189 228.9  21.0  34154  289.48 0854.37
2009/04/23 16:31:21.1    -154   -109    117    189    222 234.7  35.2  34170  289.75 0854.37
2009/04/23 16:31:21.2    -115   -110    112    160    195 226.4  38.4  34174  289.82 0854.37
2009/04/23 16:31:21.3    -111   -141    138    180    226 218.3  41.6  34190  290.08 0854.37
2009/04/23 16:31:21.4     -54   -161    100    170    197 198.7  33.4  34178  289.89 0854.37
2009/04/23 16:31:21.5     -73   -170     66    186    198 203.4  19.6  34166  289.67 0854.37
2009/04/23 16:31:21.7     -78   -169     38    187    191 204.9  11.6  34152  289.45 0854.37
2009/04/23 16:31:21.7     -53   -146     40    156    162 200.0  14.5  34160  289.58 0854.37
2009/04/23 16:31:21.8     -52   -111     61    123    137 205.4  28.2  34164  289.65 0854.37
2009/04/23 16:31:21.9     -86   -113     83    143    165 217.4  32.9  34186  290.01 0854.37
2009/04/23 16:31:22.0     -94   -121    113    154    191 217.9  39.9  34220  290.60 0854.37
2009/04/23 16:31:22.1     -96   -151    109    180    210 212.5  34.0  34194  290.14 0854.37
2009/04/23 16:31:22.2     -31   -164    118    168    205 190.9  38.8  34192  290.11 0854.40
2009/04/23 16:31:22.3      38   -124     87    130    156 163.0  36.5  34176  289.84 0854.40
2009/04/23 16:31:22.4     -11   -158     91    159    183 184.0  32.4  34162  289.60 0854.40
2009/04/23 16:31:22.5     -35   -171     74    175    190 191.6  24.3  34158  289.53 0854.40
2009/04/23 16:31:22.6     -75   -191     91    206    225 201.4  25.3  34168  289.72 0854.40
2009/04/23 16:31:22.7     -24   -180    148    182    234 187.8  43.5  34190  290.09 0854.40
2009/04/23 16:31:22.8     -20   -197    172    199    263 185.8  45.4  34200  290.26 0854.40
2009/04/23 16:31:22.9     -15   -186    159    187    245 184.7  44.8  34206  290.35 0854.40
2009/04/23 16:31:23.0       4   -135    146    136    199 178.2  52.1  34206  290.35 0854.40
2009/04/23 16:31:23.1     -25   -126    138    129    188 191.5  52.1  34190  290.09 0854.40
2009/04/23 16:31:23.2     -27   -169    167    172    239 189.1  49.2  34204  290.33 0854.40
2009/04/23 16:31:23.3      11   -147    151    148    211 175.5  50.4  34186  290.02 0854.40
2009/04/23 16:31:23.4     -20   -204    117    206    236 185.8  32.3  34184  289.97 0854.40
2009/04/23 16:31:23.5     -31   -151     88    155    178 191.6  31.9  34182  289.94 0854.40
2009/04/23 16:31:23.6      -5   -117     97    118    152 182.7  43.7  34186  290.01 0854.40
2009/04/23 16:31:23.7       7   -112     89    113    143 176.0  42.2  34188  290.04 0854.40
2009/04/23 16:31:23.8       0    -96     98     97    137 180.4  50.1  34188  290.06 0854.40
2009/04/23 16:31:23.9     -28   -117    101    121    157 193.8  44.3  34210  290.41 0854.40
2009/04/23 16:31:24.0     -34   -129    144    134    196 195.1  52.2  34232  290.81 0854.40
2009/04/23 16:31:24.1     -24   -115    117    118    166 192.0  50.2  34234  290.82 0854.40
2009/04/23 16:31:24.2     -32    -65    109     73    131 206.3  63.2  34240  290.94 0854.41
2009/04/23 16:31:24.3     -45    -39     65     60     88 228.7  52.2  34224  290.65 0854.41
2009/04/23 16:31:24.4      12     40     37     42     55  16.9  45.8  34224  290.67 0854.41
2009/04/23 16:31:24.5      56     56     50     80     94  45.0  35.5  34212  290.47 0854.41
2009/04/23 16:31:24.6      36     50     82     62    102  36.1  59.0  34222  290.64 0854.41
2009/04/23 16:31:24.7       0    -43    100     44    109 179.1  74.5  34232  290.81 0854.41
2009/04/23 16:31:24.8      43    -24     94     50    106 119.8  69.3  34224  290.65 0854.41
2009/04/23 16:31:24.9       7    -45     81     46     93 170.2  68.3  34196  290.19 0854.41
2009/04/23 16:31:25.0      29    -32     96     44    105 137.7  73.5  34186  290.02 0854.41
2009/04/23 16:31:25.1      26    -28     96     39    103 136.6  77.1  34184  289.97 0854.41
2009/04/23 16:31:25.2       2     30    111     31    115   4.4  84.4  34202  290.28 0854.41
2009/04/23 16:31:25.3     -20    -90    118     93    150 192.9  57.5  34176  289.84 0854.41
2009/04/23 16:31:25.4      17    -97    114     99    150 169.8  54.8  34186  290.02 0854.41
2009/04/23 16:31:25.5       0   -138    171    139    220 180.0  56.4  34196  290.19 0854.41
2009/04/23 16:31:25.6      99   -149    149    180    233 146.4  43.7  34214  290.50 0854.41
2009/04/23 16:31:25.7      83   -143    151    166    224 149.9  47.5  34238  290.91 0854.41
2009/04/23 16:31:25.8      81   -245     98    259    276 161.7  21.7  34160  289.56 0854.41
2009/04/23 16:31:25.9      70   -217    115    229    256 162.0  28.5  34164  289.63 0854.41
2009/04/23 16:31:26.0     149   -259    145    299    332 150.1  27.8  34164  289.64 0854.41
2009/04/23 16:31:26.1      82   -291    170    303    347 164.2  31.7  34182  289.94 0854.41
2009/04/23 16:31:26.2      71   -288    113    297    317 166.0  21.8  34172  289.76 0854.42
2009/04/23 16:31:26.3     114   -326    158    346    380 160.7  26.4  34148  289.38 0854.42
2009/04/23 16:31:26.4      76   -287    144    297    330 165.1  27.7  34150  289.41 0854.42
2009/04/23 16:31:26.5     145   -339     65    369    375 156.8  10.0  34188  290.03 0854.42
2009/04/23 16:31:26.6     140   -217     66    259    268 147.0  14.3  34176  289.83 0854.42
2009/04/23 16:31:26.7     117   -245     58    272    279 154.4  12.2  34164  289.63 0854.42
2009/04/23 16:31:26.8      88   -321     31    333    335 164.6   5.3  34172  289.79 0854.42
2009/04/23 16:31:26.9       3   -358     74    359    367 179.4  11.8  34188  290.06 0854.42
2009/04/23 16:31:27.0      44   -293     25    297    299 171.3   4.9  34174  289.80 0854.42
2009/04/23 16:31:27.1       3   -246     72    247    258 179.1  16.3  34172  289.78 0854.42
2009/04/23 16:31:27.2      17   -223     74    224    237 175.6  18.4  34168  289.70 0854.42
2009/04/23 16:31:27.3      45   -200     55    206    214 167.1  15.0  34164  289.65 0854.42
2009/04/23 16:31:27.4       3   -149     58    150    160 178.6  22.3  34166  289.67 0854.42
2009/04/23 16:31:27.5      13   -126     37    127    133 173.7  16.3  34166  289.67 0854.42
2009/04/23 16:31:27.6      22    -91      4     94     95 166.2   2.9  34168  289.72 0854.42
2009/04/23 16:31:27.7      35    -81    -13     89     91 156.4  -8.8  34168  289.70 0854.42
2009/04/23 16:31:27.8      30    -55    -34     63     71 151.0 -35.7  34164  289.65 0854.42
2009/04/23 16:31:27.9      37    -79      4     88     89 155.1   2.9  34162  289.62 0854.42
2009/04/23 16:31:28.0      63    -48    -10     80     81 127.8  -7.7  34164  289.65 0854.42
2009/04/23 16:31:28.1      50    -19     -9     54     55 110.8 -10.3  34168  289.70 0854.42
2009/04/23 16:31:28.2       6      6      9      9     12  45.0  50.1  34168  289.72 0854.44
2009/04/23 16:31:28.3     -30      0     20     31     36 269.2  35.5  34168  289.72 0854.44
2009/04/23 16:31:28.4     -83     28     30     88     94 289.1  18.9  34178  289.87 0854.44
2009/04/23 16:31:28.5    -120      9     38    121    127 274.3  17.4  34174  289.80 0854.44
2009/04/23 16:31:28.6     -71   -113    131    134    187 212.5  49.4  34192  290.11 0854.44
2009/04/23 16:31:28.7     -21    -39    121     45    129 209.0  79.2  34214  290.48 0854.44
2009/04/23 16:31:28.8     -67     32     35     75     82 295.4  26.6  34206  290.35 0854.44
2009/04/23 16:31:28.9     -49     -8     46     50     67 260.3  48.0  34196  290.18 0854.44
2009/04/23 16:31:29.0     -26    -41    124     49    133 212.5  77.6  34192  290.13 0854.44
2009/04/23 16:31:29.1     -65   -146    156    160    223 204.1  49.8  34218  290.55 0854.44
2009/04/23 16:31:29.2     -78    -73     57    107    121 226.9  30.3  34206  290.36 0854.45
2009/04/23 16:31:29.3     -35     -6     -4     36     37 260.3  -7.2  34214  290.50 0854.45
2009/04/23 16:31:29.4    -101   -189    130    215    251 208.1  34.4  34218  290.54 0854.45
2009/04/23 16:31:29.5    -160    -48     17    168    169 253.2   6.1  34236  290.86 0854.45
2009/04/23 16:31:29.6    -168    -16     12    169    170 264.5   4.4  34228  290.74 0854.45
2009/04/23 16:31:29.7    -263    -55     59    269    276 258.1  12.4  34210  290.42 0854.45
2009/04/23 16:31:29.8    -214    -93      3    234    235 246.5   0.8  34202  290.27 0854.45
2009/04/23 16:31:29.9    -237    -52     38    243    247 257.6   9.0  34220  290.59 0854.45
2009/04/23 16:31:30.0    -207    -90    -12    226    227 246.5  -3.2  34194  290.16 0854.45
2009/04/23 16:31:30.1    -195      0     90    196    215 270.0  26.6  34188  290.04 0854.45
2009/04/23 16:31:30.2     -61      3    133     62    146 273.5  73.1  34198  290.21 0854.45
2009/04/23 16:31:30.3     -90     78    106    120    160 310.9  46.2  34222  290.64 0854.45
2009/04/23 16:31:30.4     -85    179    206    199    286 334.7  51.2  34252  291.14 0854.45
2009/04/23 16:31:30.5     -43    155    129    161    206 344.4  43.3  34288  291.76 0854.45
2009/04/23 16:31:30.6    -148    141     75    205    218 313.6  21.0  34248  291.06 0854.45
2009/04/23 16:31:30.7     -93    164    117    189    222 330.4  35.2  34256  291.20 0854.45
2009/04/23 16:31:30.8     -77     77    115    110    159 314.9  51.2  34294  291.84 0854.45
2009/04/23 16:31:30.9    -127     12     97    128    160 275.7  40.9  34268  291.42 0854.45
2009/04/23 16:31:31.0    -144     71     49    161    169 296.4  17.1  34266  291.37 0854.45
2009/04/23 16:31:31.1    -157    106     45    190    196 304.0  13.5  34262  291.32 0854.45
2009/04/23 16:31:31.2    -131    131     50    186    193 315.1  15.3  34262  291.32 0854.45
2009/04/23 16:31:31.3    -168     30    142    171    222 280.1  43.8  34216  290.52 0854.45
2009/04/23 16:31:31.4    -121     57    123    135    182 295.4  47.5  34230  290.77 0854.45
2009/04/23 16:31:31.5     -56     89     89    106    138 327.5  44.3  34250  291.09 0854.45
2009/04/23 16:31:31.6     -46     72     99     86    131 327.5  54.3  34248  291.08 0854.45
2009/04/23 16:31:31.7     -20     20     71     29     76 315.0  77.1  34268  291.42 0854.45
2009/04/23 16:31:31.8      21      7     90     23     92  71.4  85.9  34278  291.57 0854.45
2009/04/23 16:31:31.9     -45     13     78     47     91 286.8  66.2  34268  291.40 0854.45
2009/04/23 16:31:32.0     -80      8     59     81    100 276.1  39.7  34258  291.23 0854.45
2009/04/23 16:31:32.1    -128     26     51    131    140 281.5  23.0  34262  291.30 0854.45
2009/04/23 16:31:32.3     -86     17     30     88     94 281.5  19.2  34266  291.37 0854.45
2009/04/23 16:31:32.3     -86    -13     34     88     94 261.2  21.5  34256  291.21 0854.45
2009/04/23 16:31:32.4    -116    -38     68    123    140 251.8  31.4  34244  290.99 0854.45
2009/04/23 16:31:32.6    -123    -45     67    132    148 250.0  28.7  34242  290.96 0854.45
2009/04/23 16:31:32.6    -109    -22     41    112    119 258.5  20.9  34244  291.01 0854.45
2009/04/23 16:31:32.8     -55    -23     33     60     68 247.4  31.4  34246  291.04 0854.45
2009/04/23 16:31:32.9     -92    -43     48    102    112 244.7  27.1  34254  291.18 0854.45
2009/04/23 16:31:33.0    -112     -1     74    113    135 269.2  35.6  34258  291.23 0854.45
2009/04/23 16:31:33.1     -93    -23     75     96    121 255.8  41.7  34254  291.16 0854.45
2009/04/23 16:31:33.2     -64    -85     87    107    137 217.0  43.7  34244  290.99 0854.45
2009/04/23 16:31:33.3    -109    -94     61    145    157 229.1  24.1  34236  290.87 0854.45
2009/04/23 16:31:33.4     -72    -59      1     94     95 230.4   0.8  34226  290.70 0854.45
2009/04/23 16:31:33.5     -26    -16     49     31     57 237.6  64.7  34242  290.98 0854.45
2009/04/23 16:31:33.6     -42    -58     40     72     82 216.1  31.4  34234  290.82 0854.45
2009/04/23 16:31:33.7     -39    -47     42     62     74 219.7  36.5  34242  290.96 0854.45
2009/04/23 16:31:33.8     -22    -39      2     45     46 209.9   2.9  34242  290.96 0854.45
2009/04/23 16:31:33.9     -24    -37    -16     45     47 212.5 -23.3  34238  290.89 0854.45
2009/04/23 16:31:34.0     -16    -18     -8     25     26 221.4 -23.8  34226  290.70 0854.45
2009/04/23 16:31:34.1     -61    -19     17     65     68 252.3  15.3  34220  290.60 0854.45
2009/04/23 16:31:34.2     -49    -29     18     58     61 239.3  17.3  34224  290.67 0854.45
2009/04/23 16:31:34.3     -48    -58     45     76     88 219.7  33.5  34244  291.01 0854.45
2009/04/23 16:31:34.4     -73    -38     48     83     95 242.0  32.9  34260  291.28 0854.45
2009/04/23 16:31:34.5    -100      0     87    101    133 270.0  45.8  34260  291.26 0854.45
2009/04/23 16:31:34.6    -102    -27     86    106    136 254.9  43.7  34280  291.62 0854.45
2009/04/23 16:31:34.7     -35    -99    121    106    160 199.6  54.3  34294  291.84 0854.45
2009/04/23 16:31:34.8     -60   -117    120    132    178 207.1  47.5  34288  291.76 0854.45
2009/04/23 16:31:34.9     -98    -41     73    107    129 247.4  37.6  34292  291.83 0854.45
2009/04/23 16:31:35.0     -82    -82     72    117    137 225.0  35.0  34288  291.76 0854.45
2009/04/23 16:31:35.1     -89    -44     54    100    113 243.8  31.3  34282  291.66 0854.45
2009/04/23 16:31:35.2    -101    -23     42    104    112 257.2  23.0  34276  291.54 0854.45
2009/04/23 16:31:35.3    -113    -10     39    114    121 264.8  18.9  34264  291.35 0854.45
2009/04/23 16:31:35.4     -93    -42     63    103    120 245.6  34.4  34276  291.54 0854.45
2009/04/23 16:31:35.5     -75    -32     83     82    116 246.5  49.7  34270  291.45 0854.45
2009/04/23 16:31:35.6     -74    -61     93     96    133 230.5  49.9  34266  291.38 0854.45
2009/04/23 16:31:35.7     -85    -19     90     88    125 257.2  50.1  34276  291.54 0854.45
2009/04/23 16:31:35.8     -60    -65     92     89    128 222.8  50.7  34260  291.26 0854.45
2009/04/23 16:31:35.9    -130    -30     73    134    152 256.7  31.3  34242  290.98 0854.45
2009/04/23 16:31:36.0    -109    -77     50    134    143 234.9  21.0  34252  291.13 0854.45
2009/04/23 16:31:36.1    -131    -57     27    144    147 246.4  10.6  34236  290.86 0854.45
2009/04/23 16:31:36.2    -157    -66      0    171    172 247.2   0.2  34246  291.04 0854.45
2009/04/23 16:31:36.3     -84   -116     21    144    146 216.1   8.5  34262  291.32 0854.45
2009/04/23 16:31:36.4     -80   -118     23    143    145 214.3   9.5  34258  291.23 0854.45
2009/04/23 16:31:36.5     -43    -76      2     88     89 209.4   1.8  34238  290.91 0854.45
2009/04/23 16:31:36.6      -8    -46     18     47     50 190.7  21.0  34232  290.79 0854.45
2009/04/23 16:31:36.7      -4    -56     21     57     60 184.5  21.0  34238  290.91 0854.45
2009/04/23 16:31:36.8     -55    -53    -31     77     83 225.9 -27.4  34188  290.06 0854.45
2009/04/23 16:31:36.9     -69    -70    -35     99    106 224.5 -19.6  34184  289.99 0854.45
2009/04/23 16:31:37.0     -79   -100    -25    128    131 218.3 -11.3  34200  290.25 0854.45
2009/04/23 16:31:37.1     -71    -53     31     89     95 233.1  19.4  34212  290.45 0854.45
2009/04/23 16:31:37.2     -65    -41     59     78     97 237.5  41.2  34206  290.35 0854.45
2009/04/23 16:31:37.3    -113    -27      2    117    118 256.3   1.2  34222  290.62 0854.44
2009/04/23 16:31:37.4    -104    -13     48    105    115 262.5  26.6  34228  290.72 0854.44
2009/04/23 16:31:37.5    -108      4     42    109    116 272.1  21.5  34252  291.13 0854.44
2009/04/23 16:31:37.6    -107      0     50    108    119 269.6  27.1  34240  290.92 0854.44
2009/04/23 16:31:37.7    -146     -6     -8    147    148 267.5  -3.1  34274  291.50 0854.44
2009/04/23 16:31:37.8    -113    -23      2    116    117 258.5   1.2  34276  291.54 0854.44
2009/04/23 16:31:37.9    -108     -1     37    109    116 269.2  18.9  34276  291.54 0854.44
2009/04/23 16:31:38.0    -111     -9     22    112    115 265.2  11.1  34254  291.18 0854.44
2009/04/23 16:31:38.1    -113    -10     25    114    117 264.8  12.6  34238  290.91 0854.44
2009/04/23 16:31:38.2     -95    -31     26    101    105 251.8  14.7  34224  290.67 0854.44
2009/04/23 16:31:38.3     -66    -52     21     85     88 231.8  14.3  34222  290.64 0854.44
2009/04/23 16:31:38.4     -74    -10     36     75     83 262.0  27.2  34248  291.06 0854.44
2009/04/23 16:31:38.5     -75     16     54     77     94 282.4  38.0  34270  291.43 0854.44
2009/04/23 16:31:38.6     -88     17     12     90     91 281.0   8.0  34244  291.01 0854.44
2009/04/23 16:31:38.7     -89     29    -21     94     97 288.6 -12.9  34244  291.01 0854.44
2009/04/23 16:31:38.8     -56     22    -21     61     65 291.7 -19.7  34262  291.30 0854.44
2009/04/23 16:31:38.9     -65     30    -20     72     75 295.3 -15.5  34256  291.20 0854.44
2009/04/23 16:31:39.0     -65     25    -14     70     72 291.7 -11.3  34260  291.28 0854.44
2009/04/23 16:31:39.1     -56     28      7     63     64 297.1   6.9  34266  291.38 0854.44
2009/04/23 16:31:39.2     -48     31     24     58     62 302.4  23.1  34288  291.76 0854.44
2009/04/23 16:31:39.3     -48     27     34     56     65 299.8  35.5  34314  292.18 0854.43
2009/04/23 16:31:39.4     -52     25     31     58     65 296.2  31.3  34312  292.15 0854.43
2009/04/23 16:31:39.5     -32     21     16     39     42 304.2  23.0  34314  292.20 0854.43
2009/04/23 16:31:39.6     -25     24     31     35     46 313.3  46.9  34322  292.32 0854.43
2009/04/23 16:31:39.7     -42     22     19     48     51 298.0  22.0  34334  292.52 0854.43
2009/04/23 16:31:39.8     -26     15     34     31     46 300.7  52.2  34362  293.02 0854.43
2009/04/23 16:31:39.9     -24      4     44     25     50 279.7  67.7  34374  293.22 0854.43
2009/04/23 16:31:40.0     -27      2     54     28     60 276.1  69.8  34372  293.17 0854.43
2009/04/23 16:31:40.1     -56      4     26     57     62 274.4  26.2  34342  292.68 0854.43
2009/04/23 16:31:40.2     -76    -25     15     81     83 251.4  10.6  34324  292.35 0854.43
2009/04/23 16:31:40.3     -81    -13     16     83     85 260.8  11.1  34318  292.27 0854.43
2009/04/23 16:31:40.4     -70    -82     49    108    118 220.5  25.7  34336  292.58 0854.43
2009/04/23 16:31:40.5     -58    -67     45     89     99 221.0  28.7  34324  292.37 0854.43
2009/04/23 16:31:40.6     -44    -30     58     54     79 235.8  51.6  34342  292.68 0854.43
2009/04/23 16:31:40.7      12    -55     61     57     83 167.5  51.6  34350  292.80 0854.43
2009/04/23 16:31:40.8      31    -54     79     63    101 150.1  56.9  34362  293.00 0854.43
2009/04/23 16:31:40.9      -4    -53    123     54    134 184.4  75.0  34378  293.27 0854.43
2009/04/23 16:31:41.0      -9    -90    156     91    180 186.2  67.2  34374  293.21 0854.43
2009/04/23 16:31:41.1     -62    -62     84     89    122 225.0  48.5  34350  292.81 0854.43
2009/04/23 16:31:41.2      33    -92     90     99    133 160.0  47.5  34310  292.12 0854.43
2009/04/23 16:31:41.3      25   -122     94    125    156 168.4  40.7  34268  291.40 0854.41
2009/04/23 16:31:41.4      50   -115     96    126    158 156.4  41.2  34252  291.15 0854.41
2009/04/23 16:31:41.5      47   -101     87    112    141 154.7  41.7  34262  291.32 0854.41
2009/04/23 16:31:41.6      20    -51     81     56     98 158.2  62.6  34330  292.47 0854.41
2009/04/23 16:31:41.7      -4    -72    106     73    128 183.6  62.6  34318  292.25 0854.41
2009/04/23 16:31:41.8     -24    -71    101     76    126 199.2  59.4  34300  291.96 0854.41
2009/04/23 16:31:41.9      23      4     96     24     98  80.3  85.4  34326  292.39 0854.41
2009/04/23 16:31:42.0      50     16     87     53    101  72.3  65.7  34316  292.22 0854.41
2009/04/23 16:31:42.1       0    -15     75     16     76 179.1  89.0  34320  292.29 0854.41
2009/04/23 16:31:42.2       3     -7     59      8     59 154.6  90.0  34326  292.39 0854.41
2009/04/23 16:31:42.3       2    -32     79     33     85 175.6  76.1  34340  292.63 0854.41
2009/04/23 16:31:42.4      -1    -60     87     61    106 181.0  61.5  34328  292.44 0854.41
2009/04/23 16:31:42.5      24    -29     93     38    100 140.3  77.0  34336  292.58 0854.41
2009/04/23 16:31:42.6      17    -14     85     23     88 129.5  84.9  34308  292.10 0854.41
2009/04/23 16:31:42.7      27     17     63     32     70  57.6  71.9  34292  291.83 0854.41
2009/04/23 16:31:42.8      64     17     67     67     94  74.9  50.1  34242  290.96 0854.41
2009/04/23 16:31:42.9      33    -12     66     36     75 110.0  68.8  34266  291.38 0854.41
2009/04/23 16:31:43.0      15      0     76     16     77  90.0  89.0  34304  292.01 0854.41
2009/04/23 16:31:43.1      24    -12     39     28     48 117.1  61.5  34296  291.88 0854.41
2009/04/23 16:31:43.2      34     25     21     43     47  53.1  28.2  34264  291.35 0854.41
2009/04/23 16:31:43.3      53     17     58     56     80  71.8  50.7  34246  291.03 0854.41
2009/04/23 16:31:43.4      41     16     82     45     93  68.3  69.3  34278  291.57 0854.41
2009/04/23 16:31:43.5      52     10     78     54     94  78.5  62.6  34256  291.21 0854.41
2009/04/23 16:31:43.6      57     -4     49     58     75  94.3  43.8  34256  291.21 0854.41
2009/04/23 16:31:43.7      48     -3     19     49     52  94.4  22.0  34276  291.54 0854.41
2009/04/23 16:31:43.8      23    -37     15     44     47 148.4  19.2  34284  291.67 0854.41
2009/04/23 16:31:43.9     -22    -51     11     56     58 203.6  11.0  34284  291.67 0854.41
2009/04/23 16:31:44.0     -24    -50     32     56     64 206.3  32.4  34294  291.84 0854.41
2009/04/23 16:31:44.1      84     -1     89     85    123  91.3  51.2  34332  292.49 0854.41
2009/04/23 16:31:44.2      42     34    112     55    124  50.5  71.9  34340  292.63 0854.41
2009/04/23 16:31:44.3      -2    -23     88     24     91 186.2  84.4  34320  292.29 0854.41
2009/04/23 16:31:44.4       0    -45     92     46    102 180.9  71.9  34298  291.93 0854.41
2009/04/23 16:31:44.5      17    -53     91     56    106 161.3  65.1  34292  291.81 0854.41
2009/04/23 16:31:44.6     -46    -79     57     92    108 210.7  35.5  34302  291.98 0854.41
2009/04/23 16:31:44.7     -54    -46     50     71     86 229.6  38.6  34306  292.05 0854.41
2009/04/23 16:31:44.8     -33    -84     66     91    112 201.8  39.7  34302  291.98 0854.41
2009/04/23 16:31:44.9     -19    -72     77     75    107 195.1  50.1  34302  292.00 0854.41
2009/04/23 16:31:45.0       3    -47     65     48     80 175.6  60.0  34304  292.03 0854.41
2009/04/23 16:31:45.1      -6    -94     75     95    121 183.6  42.2  34282  291.66 0854.41
2009/04/23 16:31:45.2     -21   -106    113    109    157 191.1  51.2  34292  291.83 0854.41
2009/04/23 16:31:45.3      17    -27     90     33     95 147.5  79.7  34312  292.15 0854.41
2009/04/23 16:31:45.4       2     -4     95      5     95 147.5  90.0  34306  292.05 0854.41
2009/04/23 16:31:45.5      -4    -13    101     14    101 198.5  90.0  34284  291.67 0854.41
2009/04/23 16:31:45.6     -17    -97     98     99    139 190.2  50.0  34226  290.69 0854.41
2009/04/23 16:31:45.7       0   -131     88    132    158 180.4  37.0  34206  290.35 0854.41
2009/04/23 16:31:45.8      -2   -151     55    152    161 180.9  20.7  34194  290.16 0854.41
2009/04/23 16:31:45.9     -27   -133     69    136    152 191.5  28.7  34218  290.57 0854.41
2009/04/23 16:31:46.0       1   -151     66    152    165 179.5  24.9  34202  290.30 0854.41
2009/04/23 16:31:46.1      17   -164     32    165    169 174.0  11.1  34200  290.26 0854.41
2009/04/23 16:31:46.2      43   -123     45    131    139 160.4  18.9  34220  290.58 0854.41
2009/04/23 16:31:46.3     -18    -90     28     92     97 191.6  16.8  34252  291.15 0854.41
2009/04/23 16:31:46.4     -23    -88     24     92     96 195.1  14.7  34268  291.40 0854.41
2009/04/23 16:31:46.5     -25    -53     76     59     96 205.3  57.9  34258  291.25 0854.41
2009/04/23 16:31:46.6      38    -60     58     72     92 147.4  43.7  34262  291.30 0854.41
2009/04/23 16:31:46.7      19    -35     33     41     52 151.0  43.7  34272  291.49 0854.41
2009/04/23 16:31:46.8      -6    -10     13     13     18 212.5  50.1  34296  291.89 0854.41
2009/04/23 16:31:46.9       1     18      9     19     21   4.5  27.2  34294  291.84 0854.41
2009/04/23 16:31:47.0      30    -19     17     36     39 122.5  26.2  34290  291.79 0854.41
2009/04/23 16:31:47.1      50    -32      8     60     61 122.5   8.0  34282  291.66 0854.41
2009/04/23 16:31:47.2      51    -17     36     54     64 109.1  36.5  34272  291.49 0854.41
2009/04/23 16:31:47.3      58      0     29     59     65  90.0  28.2  34290  291.77 0854.42
2009/04/23 16:31:47.4      59      0     21     60     64  90.8  19.2  34288  291.74 0854.42
2009/04/23 16:31:47.5      53     -6     45     54     70  97.0  43.8  34280  291.62 0854.42
2009/04/23 16:31:47.6      43    -26     54     51     74 120.7  51.2  34288  291.74 0854.42
2009/04/23 16:31:47.7      10     -7     65     13     66 126.0  89.0  34312  292.17 0854.42
2009/04/23 16:31:47.8     -29     -3     45     30     54 263.9  63.6  34352  292.83 0854.42
2009/04/23 16:31:47.9     -25     -2      9     26     28 263.9  19.2  34348  292.78 0854.42
2009/04/23 16:31:48.0      -2     -1     -3      3      4 237.6 -54.5  34342  292.66 0854.42
2009/04/23 16:31:48.1      -6      6    -14      9     16 316.6 -69.1  34336  292.56 0854.42
2009/04/23 16:31:48.2       8      0    -52      9     52  90.0 -90.0  34342  292.68 0854.42
2009/04/23 16:31:48.3     -13    -28    -55     32     63 205.3 -72.1  34350  292.81 0854.42
2009/04/23 16:31:48.4      19     37    -43     42     60  27.2 -54.5  34396  293.58 0854.42
2009/04/23 16:31:48.5     -30     42    -20     52     55 323.9 -25.4  34400  293.67 0854.42
2009/04/23 16:31:48.6     -31     10    -28     33     43 288.2 -50.2  34410  293.84 0854.42
2009/04/23 16:31:48.7     -47     -3    -15     48     51 265.6 -17.6  34390  293.50 0854.42
2009/04/23 16:31:48.8     -45    -13    -18     48     51 253.2 -25.4  34382  293.36 0854.42
2009/04/23 16:31:48.9     -45      0    -12     46     48 270.0 -15.5  34354  292.86 0854.42
2009/04/23 16:31:49.0     -56      4     -2     57     58 274.4  -2.2  34352  292.85 0854.42
2009/04/23 16:31:49.1     -15     34     16     38     41 336.4  24.1  34364  293.05 0854.42
2009/04/23 16:31:49.2      33     48     42     59     72  34.3  39.5  34400  293.65 0854.42
2009/04/23 16:31:49.3      84     48     49     97    108  60.2  28.7  34412  293.85 0854.43
2009/04/23 16:31:49.4     172     36     84    176    195  78.1  27.3  34372  293.19 0854.43
2009/04/23 16:31:49.5     222     73     17    234    235  71.6   4.2  34286  291.72 0854.43
2009/04/23 16:31:49.6     242     78     64    255    263  72.1  14.2  34268  291.41 0854.43
2009/04/23 16:31:49.7     292    100     92    309    323  70.9  16.6  34278  291.56 0854.43
2009/04/23 16:31:49.8     249    148    132    290    318  59.3  26.2  34342  292.65 0854.43
2009/04/23 16:31:49.9     280    154     70    320    328  61.1  12.4  34306  292.04 0854.43
2009/04/23 16:31:50.0     198    143    129    245    276  54.0  30.1  34342  292.67 0854.43
2009/04/23 16:31:50.1     275    124    140    302    332  65.6  26.9  34298  291.92 0854.43
2009/04/23 16:31:50.2     265    105    117    286    309  68.3  23.1  34326  292.38 0854.43
2009/04/23 16:31:50.3     216     64     98    226    246  73.4  25.1  34284  291.68 0854.44
2009/04/23 16:31:50.4     238    109    108    262    283  65.4  23.8  34320  292.30 0854.44
2009/04/23 16:31:50.5     217    157     83    268    281  54.1  17.3  34284  291.67 0854.44
2009/04/23 16:31:50.6     239    137     43    276    280  60.2   9.0  34302  291.99 0854.44
2009/04/23 16:31:50.7     147     66     64    162    174  65.6  22.5  34328  292.44 0854.44
2009/04/23 16:31:50.8     172     44     70    178    191  75.6  22.8  34356  292.90 0854.44
2009/04/23 16:31:50.9     217     25     82    219    233  83.2  21.0  34372  293.17 0854.44
2009/04/23 16:31:51.0     250     58     49    257    262  76.8  10.8  34370  293.13 0854.44
2009/04/23 16:31:51.1     278     -3    -46    279    283  90.8  -9.4  34360  292.96 0854.44
2009/04/23 16:31:51.2     284     87     30    298    300  72.9   5.9  34296  291.89 0854.44
2009/04/23 16:31:51.3     254     62     36    262    265  76.1   8.0  34322  292.33 0854.44
2009/04/23 16:31:51.4     231    -10    -12    232    233  92.6  -3.1  34320  292.30 0854.44
2009/04/23 16:31:51.5     222      4     -8    223    224  88.7  -2.2  34290  291.77 0854.44
2009/04/23 16:31:51.6     206     16      3    207    208  85.4   1.0  34322  292.32 0854.44
2009/04/23 16:31:51.7     206    -13     42    207    212  93.7  11.4  34360  292.98 0854.44
2009/04/23 16:31:51.8     227     63     33    236    239  74.5   8.0  34278  291.56 0854.44
2009/04/23 16:31:51.9     203     88     63    222    231  66.4  16.0  34290  291.77 0854.44
2009/04/23 16:31:52.0     213     58     28    221    223  74.7   7.5  34332  292.49 0854.44
2009/04/23 16:31:52.1     210     68    -10    221    222  72.1  -2.6  34328  292.44 0854.44
2009/04/23 16:31:52.2     237     70      0    248    249  73.4   0.0  34334  292.53 0854.44
2009/04/23 16:31:52.3     288     67      9    296    297  76.8   1.8  34336  292.55 0854.45
2009/04/23 16:31:52.4     291     49    -81    296    308  80.4 -15.4  34320  292.28 0854.45
2009/04/23 16:31:52.5     233     84    -89    248    263  70.1 -24.6  34272  291.46 0854.45
2009/04/23 16:31:52.6     353    105   -119    369    387  73.3 -23.3  34228  290.71 0854.45
2009/04/23 16:31:52.7     402     -1   -170    403    437  90.3 -28.6  34152  289.44 0854.45
2009/04/23 16:31:52.8     634    120   -232    646    687  79.3 -19.8  34140  289.24 0854.45
2009/04/23 16:31:52.9     558   -107    -89    569    577 100.9  -8.9  34206  290.34 0854.45
2009/04/23 16:31:53.0     358    174    -35    399    401  64.0  -5.1  34202  290.27 0854.45
2009/04/23 16:31:53.1     359    111     10    376    377  72.8   1.6  34210  290.43 0854.45
2009/04/23 16:31:53.2     317     69    128    325    349  77.7  22.7  34218  290.57 0854.45
2009/04/23 16:31:53.3      88     -9     76     89    117  96.1  44.8  34286  291.72 0854.45
2009/04/23 16:31:53.4     119    -88     88    149    173 126.4  33.7  34306  292.06 0854.45
2009/04/23 16:31:53.5     -10   -168    175    169    243 183.6  50.9  34266  291.37 0854.45
2009/04/23 16:31:53.6     -51   -108     96    120    153 205.3  43.3  34264  291.35 0854.45
2009/04/23 16:31:53.7       0   -119     82    120    145 180.4  37.6  34292  291.83 0854.45
2009/04/23 16:31:53.8     -22   -137     92    139    166 189.3  36.5  34298  291.93 0854.45
2009/04/23 16:31:53.9      34   -167     82    171    189 168.4  27.3  34290  291.79 0854.45
2009/04/23 16:31:54.0      21   -152     53    154    164 172.0  19.2  34296  291.89 0854.45
2009/04/23 16:31:54.1     -80   -125     72    149    165 212.5  27.8  34328  292.42 0854.45
2009/04/23 16:31:54.2     -95   -152     92    180    202 212.1  29.3  34338  292.61 0854.45
2009/04/23 16:31:54.3     -45   -159     71    166    180 196.0  24.3  34260  291.28 0854.44
2009/04/23 16:31:54.4      10   -104    155    105    187 174.2  62.8  34290  291.79 0854.44
2009/04/23 16:31:54.6     -17   -108    140    110    178 188.9  57.9  34296  291.88 0854.44
2009/04/23 16:31:54.7     -80   -165    141    184    231 205.9  41.6  34278  291.59 0854.44
2009/04/23 16:31:54.7     -75   -210    151    224    270 199.8  37.3  34246  291.04 0854.44
2009/04/23 16:31:54.8     -66   -206    177    217    280 197.8  43.7  34278  291.56 0854.44
2009/04/23 16:31:54.9     -77   -235    165    248    297 198.3  36.7  34280  291.61 0854.44
2009/04/23 16:31:55.0     -73   -241    112    252    275 196.9  25.3  34296  291.89 0854.44
2009/04/23 16:31:55.1    -112   -248    104    273    292 204.3  21.7  34288  291.75 0854.44
2009/04/23 16:31:55.2     -83   -207    123    224    255 201.9  31.3  34266  291.38 0854.44
2009/04/23 16:31:55.3     -95   -240    151    259    299 201.6  33.1  34292  291.80 0854.44
2009/04/23 16:31:55.4     -42   -250    152    254    296 189.6  33.5  34312  292.14 0854.44
2009/04/23 16:31:55.5     -64   -165    215    178    279 201.4  56.3  34312  292.14 0854.44
2009/04/23 16:31:55.6     -83   -156    172    177    246 208.1  49.2  34296  291.88 0854.44
2009/04/23 16:31:55.8     -31   -158    209    162    264 191.1  58.4  34284  291.68 0854.44
2009/04/23 16:31:55.9     -84   -116    168    144    221 216.1  55.0  34288  291.74 0854.44
2009/04/23 16:31:55.9     -20    -54    181     58    190 200.9  81.2  34314  292.18 0854.44
2009/04/23 16:31:56.0     -16   -119    148    121    191 188.0  56.4  34282  291.66 0854.44
2009/04/23 16:31:56.1     -16     13    115     22    117 309.5  89.6  34316  292.22 0854.44
2009/04/23 16:31:56.2      -4    132    119    133    178 358.2  46.9  34314  292.20 0854.44
2009/04/23 16:31:56.3      38     16    127     42    133  66.5  80.7  34342  292.66 0854.44
2009/04/23 16:31:56.4      -7    -39     86     40     94 190.7  73.1  34330  292.46 0854.44
2009/04/23 16:31:56.5       2      8     44      9     44  18.5  90.0  34338  292.59 0854.44
2009/04/23 16:31:56.6     -26    -28     62     39     73 223.4  64.7  34326  292.40 0854.44
2009/04/23 16:31:56.7      -5    -68     75     69    101 184.5  52.2  34314  292.18 0854.44
2009/04/23 16:31:56.8     -34    -12    110     37    116 250.0  81.0  34318  292.25 0854.44
2009/04/23 16:31:57.0     -65    -17     60     68     90 254.9  45.8  34298  291.91 0854.44
2009/04/23 16:31:57.1     -33    -21     29     40     49 237.6  39.7  34290  291.77 0854.44
2009/04/23 16:31:57.1       0      7     25      8     26   4.5  80.7  34288  291.74 0854.44
2009/04/23 16:31:57.2      -9     28     54     30     61 341.7  68.8  34280  291.62 0854.44
2009/04/23 16:31:57.3     -13     48     69     50     85 344.9  61.1  34296  291.88 0854.44
2009/04/23 16:31:57.4     -44      8     94     45    104 280.6  72.8  34294  291.84 0854.44
2009/04/23 16:31:57.5     -86    -69    118    111    162 231.4  52.0  34268  291.40 0854.44
2009/04/23 16:31:57.6     -60   -153    184    165    247 201.4  53.5  34218  290.55 0854.44
2009/04/23 16:31:57.7       7    -97    141     98    171 175.5  62.1  34250  291.11 0854.44
2009/04/23 16:31:57.8      24   -144    162    147    218 170.2  53.0  34236  290.87 0854.44
2009/04/23 16:31:57.9       7   -112    166    113    200 176.0  62.6  34226  290.70 0854.44
2009/04/23 16:31:58.0     -67   -105    208    125    242 212.5  66.2  34230  290.75 0854.44
2009/04/23 16:31:58.1    -140   -115    140    182    229 230.7  41.7  34242  290.98 0854.44
2009/04/23 16:31:58.2     -53   -186    140    194    239 196.0  39.5  34200  290.26 0854.44
2009/04/23 16:31:58.3     -38   -151    123    156    198 194.3  42.2  34208  290.38 0854.45
2009/04/23 16:31:58.4     -69   -136    125    153    197 207.2  43.7  34220  290.60 0854.45
2009/04/23 16:31:58.5     -88    -88     82    125    149 225.0  35.6  34224  290.65 0854.45
2009/04/23 16:31:58.6     -67    -33    111     75    133 243.8  63.2  34208  290.40 0854.45
2009/04/23 16:31:58.8     -93    -10     59     94    110 263.4  35.5  34234  290.82 0854.45
2009/04/23 16:31:58.8    -103    -78     41    130    137 232.7  17.4  34224  290.67 0854.45
2009/04/23 16:31:59.0    -117   -159     86    198    215 216.5  25.1  34226  290.69 0854.45
2009/04/23 16:31:59.1    -177    -91     69    200    212 242.7  19.2  34206  290.36 0854.45
2009/04/23 16:31:59.2    -345    -22     -1    346    347 266.2  -0.2  34210  290.42 0854.45
2009/04/23 16:31:59.3    -465     49    -97    468    479 276.1 -11.8  34166  289.66 0854.45
2009/04/23 16:31:59.4    -390      0    -56    391    396 269.9  -8.2  34188  290.03 0854.45
2009/04/23 16:31:59.5    -249    -15   -123    250    278 266.5 -32.6  34178  289.88 0854.45
2009/04/23 16:31:59.6    -240    -28   -115    242    267 263.2 -31.6  34184  289.97 0854.45
2009/04/23 16:31:59.7    -274    -57   -132    281    310 258.1 -31.5  34208  290.37 0854.45
2009/04/23 16:31:59.8    -229    -19    -51    230    236 265.0 -12.6  34206  290.34 0854.45
2009/04/23 16:31:59.9    -407   -168    -52    441    445 247.6  -6.8  34208  290.38 0854.45
2009/04/23 16:32:00.0    -352   -165    -95    389    401 244.8 -13.8  34178  289.86 0854.45
2009/04/23 16:32:00.1    -580    122    -79    593    599 281.9  -7.6  34192  290.10 0854.45
2009/04/23 16:32:00.2    -433    -20     22    434    435 267.3   2.9  34180  289.92 0854.45
2009/04/23 16:32:00.3    -451    -84    -82    459    467 259.4 -10.2  34214  290.49 0854.45
2009/04/23 16:32:00.4    -292   -239     49    378    382 230.8   7.4  34220  290.60 0854.44
2009/04/23 16:32:00.5    -401   -227     39    461    463 240.5   4.9  34238  290.90 0854.44
2009/04/23 16:32:00.6    -394   -219   -121    452    468 240.9 -15.0  34184  289.97 0854.44
2009/04/23 16:32:00.7    -237   -130   -123    271    297 241.1 -30.6  34184  289.97 0854.44
2009/04/23 16:32:00.8     -62   -198    -87    208    225 197.6 -28.5  34198  290.23 0854.44
2009/04/23 16:32:00.9    -269   -217   -153    346    378 231.1 -29.7  34164  289.65 0854.44
2009/04/23 16:32:01.0    -368   -251   -200    446    488 235.6 -30.2  34158  289.54 0854.44
2009/04/23 16:32:01.1    -376   -233   -230    443    499 238.3 -34.0  34180  289.91 0854.44
2009/04/23 16:32:01.2    -425   -218   -104    478    490 242.8 -12.3  34178  289.89 0854.44
2009/04/23 16:32:01.3    -323   -433    -29    541    542 216.7  -3.1  34170  289.74 0854.44
2009/04/23 16:32:01.4    -252   -314      7    403    404 218.7   1.0  34178  289.87 0854.44
2009/04/23 16:32:01.5    -263    -86     83    277    290 251.8  16.8  34180  289.92 0854.44
2009/04/23 16:32:01.6    -358   -111    103    375    390 252.7  15.4  34192  290.10 0854.44
2009/04/23 16:32:01.7    -404   -167     45    438    441 247.5   6.0  34234  290.84 0854.44
2009/04/23 16:32:01.8    -517   -423   -110    669    679 230.7  -9.3  34182  289.95 0854.44
2009/04/23 16:32:01.9    -282   -495     66    570    574 209.7   6.7  34166  289.68 0854.44
2009/04/23 16:32:02.0    -344   -367   -140    504    524 223.1 -15.5  34178  289.88 0854.44
2009/04/23 16:32:02.1    -425    -77   -148    432    457 259.6 -18.9  34178  289.87 0854.44
2009/04/23 16:32:02.2    -400    -62    -88    405    415 261.2 -12.4  34182  289.95 0854.44
2009/04/23 16:32:02.3    -293     70    -29    302    304 283.5  -5.6  34232  290.78 0854.44
2009/04/23 16:32:02.4    -320   -105    -47    337    341 251.7  -8.0  34194  290.15 0854.44
2009/04/23 16:32:02.5    -326    -68    -68    334    342 258.1 -11.6  34218  290.54 0854.44
2009/04/23 16:32:02.6    -409     24    -82    410    419 273.4 -11.3  34230  290.75 0854.44
2009/04/23 16:32:02.7    -508    -94   -166    517    542 259.5 -22.9  34116  288.84 0854.44
2009/04/23 16:32:02.8    -658   -130   -241    671    714 258.8 -19.8  34094  288.45 0854.44
2009/04/23 16:32:02.9    -507   -225   -195    555    589 246.1 -19.4  34050  287.70 0854.44
2009/04/23 16:32:03.0    -583    -55   -221    586    626 264.6 -26.1  34144  289.29 0854.44
2009/04/23 16:32:03.1    -461    -15   -108    462    475 268.1 -13.2  34182  289.96 0854.44
2009/04/23 16:32:03.2    -444   -261    -94    516    525 239.5 -10.4  34150  289.40 0854.44
2009/04/23 16:32:03.3    -530    -92   -119    539    553 260.1 -12.5  34148  289.36 0854.44
2009/04/23 16:32:03.4    -601    -39   -196    603    634 266.3 -23.1  34074  288.11 0854.44
2009/04/23 16:32:03.5    -588   -101   -203    597    630 260.2 -23.9  34092  288.42 0854.44
2009/04/23 16:32:03.6    -554   -133   -256    570    624 256.5 -30.2  34080  288.22 0854.44
2009/04/23 16:32:03.7    -583   -298   -237    655    696 242.9 -25.2  34088  288.36 0854.44
2009/04/23 16:32:03.8    -536    -50   -170    539    566 264.6 -17.6  34116  288.84 0854.44
2009/04/23 16:32:03.9    -672    -98   -222    680    715 261.7 -23.2  34120  288.91 0854.44
2009/04/23 16:32:04.0    -802    -76   -255    806    845 264.5 -22.6  34126  289.01 0854.44
2009/04/23 16:32:04.1    -662    -93   -229    669    708 262.0 -18.9  34068  288.00 0854.44
2009/04/23 16:32:04.2    -581   -178   -213    608    644 252.9 -24.5  34094  288.47 0854.44
2009/04/23 16:32:04.3    -612    -76   -206    617    650 262.9 -23.6  34136  289.16 0854.44
2009/04/23 16:32:04.4    -717    -22   -209    718    747 268.2 -21.0  34086  288.31 0854.43
2009/04/23 16:32:04.5    -698   -142   -244    713    753 258.4 -24.0  34072  288.08 0854.43
2009/04/23 16:32:04.6    -629   -153   -233    648    688 256.3 -25.1  34056  287.80 0854.43
2009/04/23 16:32:04.7    -533   -212   -191    574    604 248.3 -23.8  34062  287.92 0854.43
2009/04/23 16:32:04.8    -498   -188   -184    533    563 249.3 -24.3  34050  287.70 0854.43
2009/04/23 16:32:04.9    -489   -105   -265    501    566 257.9 -34.6  34058  287.84 0854.43
2009/04/23 16:32:05.0    -531    -51   -256    534    592 264.4 -31.7  34068  288.00 0854.43
2009/04/23 16:32:05.1    -483   -101   -171    494    522 258.1 -24.3  34056  287.80 0854.43
2009/04/23 16:32:05.2    -387   -141   -121    413    430 249.9 -21.2  34060  287.87 0854.43
2009/04/23 16:32:05.3    -351   -152   -153    383    412 246.5 -27.4  34070  288.04 0854.43
2009/04/23 16:32:05.4    -128   -313   -150    339    370 202.3 -29.6  34098  288.52 0854.43
2009/04/23 16:32:05.5    -220   -233    -99    321    337 223.4 -17.2  34100  288.54 0854.43
2009/04/23 16:32:05.6    -272   -168   -204    320    379 238.2 -40.0  34090  288.37 0854.43
2009/04/23 16:32:05.7    -131   -170   -115    215    243 217.6 -34.7  34086  288.32 0854.43
2009/04/23 16:32:05.8    -174   -121    -77    213    226 235.1 -25.3  34110  288.74 0854.43
2009/04/23 16:32:05.9    -187    -74   -134    202    242 248.3 -40.9  34110  288.72 0854.43
2009/04/23 16:32:06.0    -208    -99   -144    231    272 244.5 -39.9  34104  288.63 0854.43
2009/04/23 16:32:06.1    -157   -100   -138    187    232 237.6 -44.1  34108  288.69 0854.43
2009/04/23 16:32:06.2    -119   -124   -146    173    226 223.9 -48.5  34136  289.16 0854.43
2009/04/23 16:32:06.3     -42   -139   -154    146    212 197.0 -56.0  34140  289.23 0854.43
2009/04/23 16:32:06.4       0    -98   -171     99    197 180.4 -71.6  34132  289.11 0854.44
2009/04/23 16:32:06.5     -86    -15   -199     88    217 259.9 -79.3  34116  288.82 0854.44
2009/04/23 16:32:06.6    -248     34   -353    251    433 278.0 -65.6  34120  288.89 0854.44
2009/04/23 16:32:06.7     -76    -96   -237    123    267 218.3 -75.0  34158  289.53 0854.44
2009/04/23 16:32:06.8    -115   -394   -357    411    544 196.3 -49.9  34174  289.81 0854.44
2009/04/23 16:32:06.9      18   -217   -283    218    357 175.1 -63.0  34158  289.53 0854.44
2009/04/23 16:32:07.0      68   -280   -325    289    434 166.2 -58.4  34146  289.33 0854.44
2009/04/23 16:32:07.1     222   -410   -361    467    590 151.6 -46.0  34148  289.38 0854.44
2009/04/23 16:32:07.2     467   -403   -170    618    640 130.8 -20.1  34146  289.35 0854.44
2009/04/23 16:32:07.3     424   -473      1    636    637 138.1   0.1  34142  289.26 0854.44
2009/04/23 16:32:07.4     338   -565     74    659    664 149.1   6.5  34136  289.17 0854.44
2009/04/23 16:32:07.5     408   -382    303    559    635 133.1  30.8  34146  289.32 0854.44
2009/04/23 16:32:07.6     344   -349    337    491    595 135.5  37.6  34140  289.23 0854.44
2009/04/23 16:32:07.7     395   -337    308    520    604 130.4  33.5  34130  289.07 0854.44
2009/04/23 16:32:07.8     102    -79    342    130    365 127.8  78.3  34124  288.95 0854.44
2009/04/23 16:32:07.9     210   -157    313    263    408 126.9  55.8  34128  289.04 0854.44
2009/04/23 16:32:08.0    -134     44    230    142    270 288.2  65.1  34188  290.05 0854.44
2009/04/23 16:32:08.1     -67     59    258     90    273 311.3  80.2  34192  290.11 0854.44
2009/04/23 16:32:08.2    -144     15    182    145    232 276.1  57.5  34202  290.30 0854.44
2009/04/23 16:32:08.3       0    131    351    132    375 359.6  78.6  34186  290.02 0854.44
2009/04/23 16:32:08.4     145     14    317    146    349  84.3  73.6  34146  289.34 0854.44
2009/04/23 16:32:08.5    -110   -175    249    207    323 212.1  56.2  34184  289.97 0854.44
2009/04/23 16:32:08.6    -171   -351     35    391    393 206.0   5.2  34128  289.03 0854.44
2009/04/23 16:32:08.7    -128   -394    235    415    476 198.1  32.1  34152  289.44 0854.44
2009/04/23 16:32:08.8    -414   -253    211    486    529 238.6  25.1  34152  289.42 0854.44
2009/04/23 16:32:08.9    -473   -284     92    552    560 239.0   9.5  34148  289.38 0854.44
2009/04/23 16:32:09.0    -424   -386     67    574    578 227.7   6.7  34148  289.37 0854.44
2009/04/23 16:32:09.1    -296   -276     79    406    414 227.0  11.1  34154  289.48 0854.44
2009/04/23 16:32:09.2      74   -375    374    383    535 168.8  49.4  34142  289.27 0854.44
2009/04/23 16:32:09.3    -145   -598     35    616    617 193.7   3.3  34144  289.31 0854.44
2009/04/23 16:32:09.4    -124   -467      7    484    485 194.9   0.9  34146  289.34 0854.44
2009/04/23 16:32:09.5    -279   -292    109    404    419 223.7  15.2  34156  289.49 0854.44
2009/04/23 16:32:09.6    -159   -250     41    297    300 212.6   8.0  34144  289.29 0854.44
2009/04/23 16:32:09.7     126   -226    275    260    378 150.8  52.0  34148  289.38 0854.44
2009/04/23 16:32:09.8      42   -357    251    360    438 173.2  38.3  34150  289.39 0854.44
2009/04/23 16:32:09.9      69   -313    165    321    360 167.5  29.3  34142  289.25 0854.44
2009/04/23 16:32:10.0     315    -83    275    326    426 104.9  44.3  34154  289.48 0854.44
2009/04/23 16:32:10.1     212   -197    299    290    416 132.9  51.2  34174  289.82 0854.44
2009/04/23 16:32:10.2    -142   -255    292    293    413 209.2  50.0  34180  289.91 0854.44
2009/04/23 16:32:10.3    -276    -44     97    280    297 260.8  19.2  34176  289.85 0854.44
2009/04/23 16:32:10.4      -6   -154    181    155    238 182.2  55.3  34150  289.40 0854.44
2009/04/23 16:32:10.5     200    -55    172    208    269 105.5  43.8  34154  289.46 0854.44
2009/04/23 16:32:10.6     133   -156    244    206    319 139.5  55.6  34140  289.24 0854.44
2009/04/23 16:32:10.7     -67   -322    233    329    403 191.8  38.7  34154  289.47 0854.44
2009/04/23 16:32:10.8    -134   -306    112    335    354 203.7  18.6  34152  289.43 0854.44
2009/04/23 16:32:10.9       1   -368    186    369    413 179.8  28.7  34140  289.23 0854.44
2009/04/23 16:32:11.0     159   -303    120    343    363 152.4  20.1  34132  289.11 0854.44
2009/04/23 16:32:11.1      26   -352    -60    353    359 175.8  -9.7  34132  289.11 0854.44
2009/04/23 16:32:11.2     -80   -339     43    349    352 193.4   7.1  34142  289.25 0854.44
2009/04/23 16:32:11.3       0   -177    176    178    250 180.2  50.0  34160  289.57 0854.44
2009/04/23 16:32:11.4      26    -69    142     74    160 159.1  70.4  34176  289.85 0854.45
2009/04/23 16:32:11.5    -161   -160    172    228    285 225.1  40.7  34166  289.68 0854.45
2009/04/23 16:32:11.6      35    -95    225    102    247 159.5  74.0  34180  289.91 0854.45
2009/04/23 16:32:11.7      65     41    164     78    181  57.6  72.9  34206  290.36 0854.45
2009/04/23 16:32:11.8     132    -94    152    163    222 125.5  47.9  34170  289.74 0854.45
2009/04/23 16:32:11.9     291   -282    -15    406    407 134.1  -2.2  34144  289.29 0854.45
2009/04/23 16:32:12.0     235   -426    -26    487    488 151.1  -3.1  34152  289.44 0854.45
2009/04/23 16:32:12.1     249   -317    126    404    424 141.8  17.3  34146  289.34 0854.45
2009/04/23 16:32:12.2     274   -367    134    459    479 143.3  16.3  34148  289.37 0854.45
2009/04/23 16:32:12.3     353   -393    128    529    545 138.1  13.7  34142  289.28 0854.45
2009/04/23 16:32:12.4     305   -331    105    451    464 137.4  13.1  34152  289.44 0854.45
2009/04/23 16:32:12.5     181   -273    170    328    369 146.4  29.4  34156  289.52 0854.45
2009/04/23 16:32:12.6     238   -308    108    390    405 142.4  15.6  34156  289.52 0854.45
2009/04/23 16:32:12.7     241   -343    104    420    433 144.9  13.9  34156  289.49 0854.45
2009/04/23 16:32:12.8      87   -261     28    276    278 161.5   6.0  34148  289.36 0854.45
2009/04/23 16:32:12.9     -54   -268      5    274    275 191.5   1.2  34152  289.44 0854.45
2009/04/23 16:32:13.0     171   -398    -56    434    438 156.7  -7.5  34156  289.49 0854.45
2009/04/23 16:32:13.1     218   -411     53    466    470 152.1   6.6  34162  289.61 0854.45
2009/04/23 16:32:13.2     231   -304    113    382    399 142.8  16.5  34166  289.69 0854.45
2009/04/23 16:32:13.3     206   -249    113    324    344 140.3  19.2  34162  289.60 0854.45
2009/04/23 16:32:13.4      27   -295    -20    297    298 174.7  -3.9  34158  289.53 0854.45
2009/04/23 16:32:13.5     242   -394    -62    463    468 148.4  -7.7  34146  289.34 0854.45
2009/04/23 16:32:13.6      68   -374     18    381    382 169.7   2.8  34158  289.54 0854.45
2009/04/23 16:32:13.7     172   -393     60    430    435 156.3   8.0  34162  289.60 0854.45
2009/04/23 16:32:13.8     190   -406     34    449    451 155.0   4.3  34162  289.60 0854.45
2009/04/23 16:32:13.9      87   -389     22    399    400 167.4   3.3  34156  289.52 0854.45
2009/04/23 16:32:14.0      14   -350    -70    351    358 177.7 -11.3  34152  289.45 0854.45
2009/04/23 16:32:14.1      -4   -280    -97    281    297 180.9 -24.0  34154  289.47 0854.45
2009/04/23 16:32:14.2     -57   -308    -92    314    328 190.6 -16.4  34152  289.42 0854.45
2009/04/23 16:32:14.3     -46   -319    -33    323    325 188.2  -5.9  34148  289.37 0854.45
2009/04/23 16:32:14.4     -17   -354     90    355    367 182.9  14.3  34164  289.65 0854.45
2009/04/23 16:32:14.5     -38   -420    -23    422    423 185.2  -3.1  34162  289.61 0854.45
2009/04/23 16:32:14.6     -21   -463      1    464    465 182.7   0.2  34162  289.60 0854.45
2009/04/23 16:32:14.7     -93   -547    -10    555    556 189.7  -1.1  34146  289.35 0854.45
2009/04/23 16:32:14.8      -6   -427     71    428    434 180.9   9.4  34142  289.27 0854.45
2009/04/23 16:32:14.9     199   -357      0    409    410 150.8   0.0  34168  289.70 0854.45
2009/04/23 16:32:15.0     245   -340     99    420    432 144.2  13.3  34160  289.58 0854.45
2009/04/23 16:32:15.1     186   -391    171    434    466 154.5  22.8  34156  289.49 0854.45
2009/04/23 16:32:15.2      64   -286    103    294    312 167.3  19.4  34158  289.54 0854.45
2009/04/23 16:32:15.3      44   -314    114    318    337 172.0  20.6  34152  289.43 0854.45
2009/04/23 16:32:15.4      66   -352    103    359    374 169.3  16.0  34146  289.35 0854.46
2009/04/23 16:32:15.5      12   -403     56    404    409 178.3   8.0  34142  289.27 0854.46
2009/04/23 16:32:15.6     -77   -378     98    387    400 191.6  14.3  34152  289.45 0854.46
2009/04/23 16:32:15.7      61   -490    310    494    583 172.9  35.2  34166  289.67 0854.46
2009/04/23 16:32:15.8       5   -373    345    374    508 179.2  47.5  34172  289.76 0854.46
2009/04/23 16:32:15.9     -51   -319    278    324    426 189.1  44.9  34178  289.86 0854.46
2009/04/23 16:32:16.0    -120   -516     13    530    531 193.1   1.5  34170  289.74 0854.46
2009/04/23 16:32:16.1      82   -481     51    488    491 170.3   6.0  34172  289.78 0854.46
2009/04/23 16:32:16.2     138   -413     85    436    445 161.4  11.1  34166  289.68 0854.46
2009/04/23 16:32:16.3       2   -418    120    419    436 179.7  16.0  34174  289.80 0854.46
2009/04/23 16:32:16.4      85   -531    139    538    556 170.9  14.5  34172  289.79 0854.46
2009/04/23 16:32:16.5      98   -497     66    507    512 168.8   7.5  34170  289.74 0854.46
2009/04/23 16:32:16.6      11   -537    -69    538    543 178.7  -7.3  34160  289.58 0854.46
2009/04/23 16:32:16.7     -22   -492   -109    493    506 182.6 -12.5  34164  289.64 0854.46
2009/04/23 16:32:16.8     127   -425    153    444    470 163.3  19.1  34172  289.77 0854.46
2009/04/23 16:32:16.9     163   -524    268    549    610 162.7  27.9  34164  289.63 0854.46
2009/04/23 16:32:17.0     129   -631    314    645    717 168.4  27.9  34148  289.38 0854.46
2009/04/23 16:32:17.1     299   -563    276    638    695 152.0  25.0  34156  289.49 0854.46
2009/04/23 16:32:17.2     304   -558    268    636    690 151.4  24.2  34134  289.14 0854.46
2009/04/23 16:32:17.3     275   -496    154    568    589 151.0  15.2  34150  289.39 0854.46
2009/04/23 16:32:17.4     131   -441    -35    461    463 163.5  -4.4  34152  289.44 0854.48
2009/04/23 16:32:17.5      88   -340    -54    352    357 165.4  -8.7  34160  289.57 0854.48
2009/04/23 16:32:17.6     120   -382     63    401    407 162.5   9.0  34162  289.60 0854.48
2009/04/23 16:32:17.7     185   -370     74    414    421 153.4  10.2  34158  289.53 0854.48
2009/04/23 16:32:17.8     174   -301    131    348    371 150.0  21.6  34160  289.57 0854.48
2009/04/23 16:32:17.9     113   -395     43    412    415 164.0   6.0  34158  289.53 0854.48
2009/04/23 16:32:18.0     248   -337    159    419    448 143.6  21.8  34154  289.48 0854.48
2009/04/23 16:32:18.1     230   -248    147    339    369 137.2  25.1  34156  289.52 0854.48
2009/04/23 16:32:18.2     203   -317    181    377    418 147.3  27.3  34162  289.60 0854.48
2009/04/23 16:32:18.3     137   -348    182    375    416 158.5  27.8  34156  289.49 0854.48
2009/04/23 16:32:18.4     230   -290    128    371    393 141.6  19.1  34148  289.37 0854.48
2009/04/23 16:32:18.5     220   -356     87    419    429 148.3  11.8  34140  289.24 0854.48
2009/04/23 16:32:18.6     204   -389     51    440    444 152.3   6.7  34142  289.26 0854.48
2009/04/23 16:32:18.7     163   -328    169    367    404 153.6  26.5  34142  289.28 0854.48
2009/04/23 16:32:18.8     203   -351    200    406    452 149.9  28.2  34136  289.16 0854.48
2009/04/23 16:32:18.9     174   -341     86    383    393 152.9  12.8  34120  288.91 0854.48
2009/04/23 16:32:19.0     -53   -496    136    499    518 186.2  15.3  34132  289.10 0854.48
2009/04/23 16:32:19.1    -102   -468    -21    480    481 192.4  -2.6  34134  289.13 0854.48
2009/04/23 16:32:19.2     -59   -409     34    414    416 188.2   4.7  34116  288.83 0854.48
2009/04/23 16:32:19.3      11   -262    -53    263    269 177.5 -11.6  34134  289.12 0854.48
2009/04/23 16:32:19.4     -51   -251    -81    257    270 191.5 -17.6  34138  289.20 0854.49
2009/04/23 16:32:19.5    -158   -169    -74    232    243 223.2 -22.9  34142  289.27 0854.49
2009/04/23 16:32:19.6    -198    -61    -47    208    214 252.9 -12.9  34146  289.33 0854.49
2009/04/23 16:32:19.7    -188    -49      9    195    196 255.4   2.9  34160  289.58 0854.49
2009/04/23 16:32:19.8    -171      0     74    172    187 269.9  24.9  34168  289.72 0854.49
2009/04/23 16:32:19.9    -123     -9     98    124    158 265.7  42.4  34158  289.53 0854.49
2009/04/23 16:32:20.0      -9     28     47     30     55 341.3  64.7  34148  289.36 0854.49
2009/04/23 16:32:20.1     -21     56    -22     60     63 339.1 -24.4  34152  289.45 0854.49
2009/04/23 16:32:20.2     -43    124      0    132    133 340.8  -0.3  34158  289.55 0854.49
2009/04/23 16:32:20.3      25     98    -33    102    107  14.7 -23.8  34154  289.46 0854.49
2009/04/23 16:32:20.4     -44    110    -23    119    122 338.2 -10.9  34156  289.50 0854.49
2009/04/23 16:32:20.5     -22     53    -29     58     64 337.3 -32.6  34154  289.46 0854.49
2009/04/23 16:32:20.6     -43     14    -52     46     69 288.4 -57.7  34154  289.46 0854.49
2009/04/23 16:32:20.7     -65     30    -56     72     91 295.4 -46.6  34148  289.36 0854.49
2009/04/23 16:32:20.8     -27    -22   -105     36    111 230.5 -85.6  34128  289.04 0854.49
2009/04/23 16:32:20.9     -28      2   -110     29    113 274.3 -89.3  34118  288.87 0854.49
2009/04/23 16:32:21.0    -193     60   -118    203    234 287.3 -37.3  34122  288.92 0854.49
2009/04/23 16:32:21.1     -66    152     34    166    170 336.4  11.6  34124  288.97 0854.49
2009/04/23 16:32:21.2     -46    179     14    185    186 345.5   4.6  34138  289.21 0854.49
2009/04/23 16:32:21.3     -61    148     49    161    169 337.7  17.1  34132  289.11 0854.49
2009/04/23 16:32:21.4     -25     75     69     80    105 341.3  45.4  34140  289.24 0854.49
2009/04/23 16:32:21.5      19     32    103     38    109  30.7  79.7  34160  289.57 0854.49
2009/04/23 16:32:21.6     -34     27    115     44    123 308.6  78.6  34146  289.33 0854.49
2009/04/23 16:32:21.7     -40    -63     84     75    112 212.5  53.3  34132  289.11 0854.49
2009/04/23 16:32:21.8       0     -8     82      9     82 184.5  90.0  34150  289.40 0854.49
2009/04/23 16:32:21.9       0    -50     90     51    103 180.9  68.8  34156  289.50 0854.49
2009/04/23 16:32:22.0     -27     12    117     30    120 295.2  85.9  34166  289.69 0854.49
2009/04/23 16:32:22.1     -28      0    108     29    111 269.2  84.9  34150  289.40 0854.49
2009/04/23 16:32:22.2     -27    -86    180     91    201 197.8  71.1  34134  289.13 0854.49
2009/04/23 16:32:22.3      -2     14    127     15    127 352.0  90.0  34134  289.13 0854.49
2009/04/23 16:32:22.4     163    -30    181    166    245 100.6  53.0  34138  289.21 0854.49
2009/04/23 16:32:22.5      46    -20    142     51    150 113.5  80.2  34144  289.31 0854.49
2009/04/23 16:32:22.6       0   -134    160    135    209 180.4  55.8  34130  289.08 0854.49
2009/04/23 16:32:22.7      16   -277    193    278    338 176.5  38.3  34112  288.75 0854.49
2009/04/23 16:32:22.8      44   -223    174    228    286 168.7  41.4  34118  288.85 0854.49
2009/04/23 16:32:22.9      34   -199    177    203    269 170.2  45.6  34114  288.80 0854.49
2009/04/23 16:32:23.0      83    -55    117    100    153 123.7  55.4  34122  288.94 0854.49
2009/04/23 16:32:23.1      51   -133     85    143    166 159.1  33.5  34116  288.84 0854.49
2009/04/23 16:32:23.2     128   -125    100    180    205 134.4  31.4  34104  288.64 0854.49
2009/04/23 16:32:23.3      86    -69     90    111    142 128.6  43.7  34108  288.69 0854.49
2009/04/23 16:32:23.4      91    -75    101    119    156 129.5  44.8  34106  288.67 0854.49
2009/04/23 16:32:23.5     100   -120    125    157    200 140.3  42.7  34112  288.77 0854.49
2009/04/23 16:32:23.6      94   -108     90    144    169 139.0  35.2  34122  288.94 0854.49
2009/04/23 16:32:23.7     117    -77     58    141    152 123.3  23.1  34136  289.18 0854.49
2009/04/23 16:32:23.8      86    -95     45    129    137 138.1  19.4  34116  288.84 0854.49
2009/04/23 16:32:23.9      74    -65     64     99    117 131.3  35.6  34116  288.84 0854.49
2009/04/23 16:32:24.0      93    -82     66    125    141 131.3  29.8  34112  288.77 0854.49
2009/04/23 16:32:24.1      53   -107    103    120    158 153.7  45.4  34130  289.06 0854.49
2009/04/23 16:32:24.2      76    -84     96    114    149 138.1  43.8  34148  289.38 0854.49
2009/04/23 16:32:24.3       5    -75     89     76    117 175.6  55.4  34180  289.91 0854.49
2009/04/23 16:32:24.4       9    -74     84     75    112 172.9  53.3  34168  289.72 0854.49
2009/04/23 16:32:24.5       0    -71     87     72    112 180.0  56.3  34166  289.67 0854.49
2009/04/23 16:32:24.6      12    -74     65     76    100 170.2  44.8  34158  289.55 0854.49
2009/04/23 16:32:24.8      24    -70     59     75     95 160.8  42.7  34160  289.58 0854.49
2009/04/23 16:32:24.8      67   -126     64    143    156 151.9  25.7  34152  289.43 0854.49
2009/04/23 16:32:24.9     223   -257     78    341    350 139.1  12.9  34134  289.13 0854.49
2009/04/23 16:32:25.1      29   -275    210    277    347 173.8  40.9  34126  288.98 0854.49
2009/04/23 16:32:25.2     140   -273    197    308    365 152.8  35.6  34138  289.21 0854.49
2009/04/23 16:32:25.3     227   -242     75    333    342 136.8  12.8  34154  289.47 0854.49
2009/04/23 16:32:25.4     232   -260     74    349    357 138.2  12.0  34146  289.35 0854.49
2009/04/23 16:32:25.5     132   -283     96    313    328 155.1  17.0  34142  289.27 0854.48
2009/04/23 16:32:25.6      64   -292    157    300    338 167.5  29.8  34156  289.51 0854.48
2009/04/23 16:32:25.7      55   -290    210    296    362 169.1  39.0  34146  289.35 0854.48
2009/04/23 16:32:25.8      78   -278    205    289    354 164.2  38.8  34148  289.37 0854.48
2009/04/23 16:32:25.9       9   -294    170    295    340 178.2  32.7  34148  289.36 0854.48
2009/04/23 16:32:26.0     -19   -143    123    145    190 187.6  44.5  34150  289.40 0854.48
2009/04/23 16:32:26.1       2   -155    111    156    191 179.1  39.1  34152  289.45 0854.48
2009/04/23 16:32:26.2     -20   -156    136    158    208 187.6  45.1  34154  289.48 0854.48
2009/04/23 16:32:26.3       1   -139    115    140    181 179.5  43.7  34144  289.31 0854.48
2009/04/23 16:32:26.4       0   -184    152    185    239 180.2  43.7  34132  289.11 0854.48
2009/04/23 16:32:26.5     -16   -148    219    149    264 186.2  62.6  34142  289.25 0854.48
2009/04/23 16:32:26.6      10   -125    223    126    256 175.1  68.3  34160  289.58 0854.48
2009/04/23 16:32:26.7      12   -121    210    122    242 174.2  67.2  34146  289.33 0854.48
2009/04/23 16:32:26.8      35   -106    129    112    170 161.5  54.8  34146  289.35 0854.48
2009/04/23 16:32:26.9      57   -106     90    121    150 151.9  40.1  34138  289.19 0854.48
2009/04/23 16:32:27.0     114   -139    121    180    216 140.6  37.3  34128  289.04 0854.48
2009/04/23 16:32:27.1      78    -78     99    111    148 134.9  46.4  34136  289.18 0854.48
2009/04/23 16:32:27.2      19   -127     83    129    153 171.1  35.6  34156  289.52 0854.48
2009/04/23 16:32:27.3      41    -70     85     82    118 149.3  51.2  34150  289.41 0854.48
2009/04/23 16:32:27.4     100   -128     96    163    189 142.1  33.1  34134  289.13 0854.48
2009/04/23 16:32:27.5      93   -157     51    183    191 149.3  15.8  34132  289.09 0854.46
2009/04/23 16:32:27.6      63   -107     67    125    141 149.7  30.8  34124  288.96 0854.46
2009/04/23 16:32:27.7      32    -78     86     85    120 157.7  50.1  34134  289.13 0854.46
2009/04/23 16:32:27.8      28    -92     65     97    116 163.1  36.5  34136  289.18 0854.46
2009/04/23 16:32:27.9      26    -78     66     83    106 161.5  42.7  34134  289.14 0854.46
2009/04/23 16:32:28.0       5    -70     50     71     86 175.6  38.6  34132  289.09 0854.46
2009/04/23 16:32:28.1      -5    -66     66     67     94 184.5  50.5  34140  289.23 0854.46
2009/04/23 16:32:28.2     -10    -19     61     22     64 207.2  81.2  34150  289.41 0854.46
2009/04/23 16:32:28.3     -25     25     35     36     50 315.0  51.1  34158  289.55 0854.46
2009/04/23 16:32:28.4     -28     45     33     54     63 328.4  34.4  34160  289.58 0854.46
2009/04/23 16:32:28.5     -24     52     33     58     66 334.7  32.4  34164  289.65 0854.46
2009/04/23 16:32:28.6       0     50     39     51     64   0.9  40.7  34166  289.67 0854.46
2009/04/23 16:32:28.7      -2     59     49     60     77 357.3  43.7  34156  289.50 0854.46
2009/04/23 16:32:28.8       9     28     58     30     65  18.7  69.8  34170  289.75 0854.46
2009/04/23 16:32:28.9      26     25     66     37     75  46.7  68.8  34176  289.85 0854.46
2009/04/23 16:32:29.0      53     55     82     77    112  44.1  52.1  34166  289.67 0854.46
2009/04/23 16:32:29.1      69     70     94     99    136  44.7  49.0  34150  289.41 0854.46
2009/04/23 16:32:29.2      33     55    104     65    122  30.7  65.1  34172  289.77 0854.46
2009/04/23 16:32:29.3      49    128    110    138    176  20.9  43.0  34196  290.19 0854.46
2009/04/23 16:32:29.4     -14    103     80    105    132 351.9  41.6  34184  289.99 0854.46
2009/04/23 16:32:29.5     -22    112     84    115    142 348.5  39.7  34174  289.82 0854.45
2009/04/23 16:32:29.6      15     64     86     66    108  13.4  58.5  34166  289.69 0854.45
2009/04/23 16:32:29.7      -8    101     51    102    114 355.1  28.2  34164  289.65 0854.45
2009/04/23 16:32:29.8     -49    102     43    114    121 334.1  21.0  34168  289.72 0854.45
2009/04/23 16:32:29.9     -63     99     50    118    128 327.4  24.6  34166  289.69 0854.45
2009/04/23 16:32:30.0     113     60     87    128    154  62.0  37.4  34172  289.79 0854.45
2009/04/23 16:32:30.1     198    152     99    250    268  52.5  22.8  34206  290.34 0854.45
2009/04/23 16:32:30.2     126     44    153    134    203  70.5  54.3  34204  290.33 0854.45
2009/04/23 16:32:30.3     118     78    170    142    221  56.3  56.1  34212  290.47 0854.45
2009/04/23 16:32:30.4     160    199    129    256    286  38.8  28.7  34244  290.99 0854.45
2009/04/23 16:32:30.5      82     53    112     98    148  57.1  54.3  34224  290.67 0854.45
2009/04/23 16:32:30.6      45     45    114     64    130  45.0  68.3  34218  290.57 0854.45
2009/04/23 16:32:30.7     104      0     96    105    142  89.6  47.9  34182  289.94 0854.45
2009/04/23 16:32:30.8      52     18     64     56     85  70.9  54.3  34188  290.06 0854.45
2009/04/23 16:32:30.9      71     23     97     75    122  71.4  58.4  34200  290.25 0854.45
2009/04/23 16:32:31.0      70     14    131     72    149  78.5  68.9  34234  290.82 0854.45
2009/04/23 16:32:31.1      14     40     52     43     67  19.2  56.3  34270  291.43 0854.45
2009/04/23 16:32:31.2       6     53     32     54     62   7.1  33.5  34278  291.59 0854.45
2009/04/23 16:32:31.3      26     25     32     37     48  46.7  46.9  34296  291.88 0854.45
2009/04/23 16:32:31.4      92    -44     58    103    118 115.8  31.4  34310  292.12 0854.45
2009/04/23 16:32:31.5     103      7     35    104    111  85.6  18.9  34314  292.20 0854.44
2009/04/23 16:32:31.6      36     22     51     43     66  58.5  55.4  34320  292.29 0854.44
2009/04/23 16:32:31.7      38     38     49     55     73  45.1  47.9  34312  292.15 0854.44
2009/04/23 16:32:31.8      66     79     57    104    118  40.1  31.3  34302  291.98 0854.44
2009/04/23 16:32:31.9      46    165     60    172    183  15.8  19.4  34268  291.40 0854.44
2009/04/23 16:32:32.0      17    124     44    126    134   8.1  19.2  34304  292.01 0854.44
2009/04/23 16:32:32.1     100     60     31    117    122  58.9  15.2  34314  292.20 0854.44
2009/04/23 16:32:32.2     139     45     50    147    156  71.8  18.9  34334  292.52 0854.44
2009/04/23 16:32:32.3     117     42     32    125    130  70.1  14.7  34340  292.64 0854.44
2009/04/23 16:32:32.4     107     29     74    112    134  74.5  36.0  34338  292.61 0854.44
2009/04/23 16:32:32.5     155    -19    118    157    196  97.0  40.9  34352  292.83 0854.44
2009/04/23 16:32:32.6     166     18     92    168    191  83.6  31.3  34368  293.10 0854.44
2009/04/23 16:32:32.7     152     32     98    156    184  78.1  35.5  34290  291.79 0854.44
2009/04/23 16:32:32.8     107     86    107    138    174  51.4  41.7  34318  292.25 0854.44
2009/04/23 16:32:32.9     162    126     50    206    212  52.0  13.7  34336  292.58 0854.44
2009/04/23 16:32:33.0     185      3    151    186    239  89.0  43.3  34412  293.85 0854.44
2009/04/23 16:32:33.1     228     62    191    237    304  74.7  43.5  34436  294.27 0854.44
2009/04/23 16:32:33.2     231     77    217    244    326  71.6  46.3  34252  291.14 0854.44
2009/04/23 16:32:33.3     194     92    170    216    274  64.5  42.2  34260  291.27 0854.44
2009/04/23 16:32:33.4     171    155    161    231    281  47.8  38.4  34256  291.19 0854.44
2009/04/23 16:32:33.5     201    104    117    227    255  62.5  29.3  34288  291.73 0854.44
2009/04/23 16:32:33.6     122    155    126    198    234  38.3  35.5  34236  290.86 0854.44
2009/04/23 16:32:33.7     125    169    167    211    269  36.5  42.7  34232  290.80 0854.44
2009/04/23 16:32:33.8      74    162    147    179    231  24.7  43.7  34248  291.06 0854.44
2009/04/23 16:32:33.9      11    209    168    210    268   3.1  43.0  34264  291.33 0854.44
2009/04/23 16:32:34.0      32    158    116    162    199  11.5  39.3  34312  292.15 0854.44
2009/04/23 16:32:34.1       6    203     98    204    226   1.8  27.3  34286  291.71 0854.44
2009/04/23 16:32:34.2      18    128     90    130    158   8.1  38.0  34270  291.43 0854.44
2009/04/23 16:32:34.3      77    116     58    140    151  33.4  23.6  34252  291.15 0854.44
2009/04/23 16:32:34.4      62    134     88    148    172  24.9  34.0  34234  290.82 0854.44
2009/04/23 16:32:34.5     -23    196     90    198    217 353.3  26.2  34278  291.59 0854.44
2009/04/23 16:32:34.6      63    172    117    184    218  20.3  35.5  34266  291.38 0854.44
2009/04/23 16:32:34.7      83    168     96    188    211  26.3  29.2  34230  290.75 0854.44
2009/04/23 16:32:34.8     116    156     92    195    215  36.7  27.1  34226  290.70 0854.44
2009/04/23 16:32:34.9      64     40     23     76     80  57.6  16.8  34226  290.69 0854.44
2009/04/23 16:32:35.0      56    101    -27    116    120  29.0 -13.4  34244  291.01 0854.44
2009/04/23 16:32:35.1      41     60    -40     73     83  34.3 -35.2  34244  290.99 0854.44
2009/04/23 16:32:35.2      43    -46    -38     64     74 136.8 -39.9  34254  291.18 0854.44
2009/04/23 16:32:35.3      23    -59    -17     64     67 158.2 -15.5  34246  291.04 0854.44
2009/04/23 16:32:35.4      14   -137    -23    138    141 173.8  -9.8  34246  291.03 0854.44
2009/04/23 16:32:35.5     -81   -149    -71    170    184 208.7 -28.0  34230  290.75 0854.44
2009/04/23 16:32:35.6    -231    -71    -93    242    259 252.9 -26.4  34238  290.90 0854.44
2009/04/23 16:32:35.7    -177   -138   -123    225    256 232.0 -35.7  34234  290.83 0854.44
2009/04/23 16:32:35.8    -113   -178    -94    212    231 212.5 -29.7  34256  291.21 0854.44
2009/04/23 16:32:35.9     -88    -88   -147    125    192 225.0 -59.8  34242  290.98 0854.44
2009/04/23 16:32:36.0     -30   -230   -101    233    253 187.6 -29.5  34246  291.02 0854.44
2009/04/23 16:32:36.1     -19   -255    -98    256    274 184.5 -26.4  34228  290.71 0854.44
2009/04/23 16:32:36.2      35   -285   -129    288    315 172.9 -30.1  34202  290.27 0854.44
2009/04/23 16:32:36.3     114   -309   -112    330    349 159.7 -18.8  34238  290.88 0854.44
2009/04/23 16:32:36.4     110   -302    -91    322    335 160.0 -15.9  34216  290.52 0854.44
2009/04/23 16:32:36.5     124   -294   -107    320    338 157.2 -18.6  34208  290.40 0854.43
2009/04/23 16:32:36.6      33   -292     35    294    297 173.5   6.9  34226  290.70 0854.43
2009/04/23 16:32:36.7      79   -274    -68    286    294 163.9 -13.4  34226  290.68 0854.43
2009/04/23 16:32:36.8      88   -276    -93    290    305 162.2 -17.9  34212  290.44 0854.43
2009/04/23 16:32:36.9     169   -280   -107    328    345 148.9 -23.3  34222  290.64 0854.43
2009/04/23 16:32:37.0     347   -144    -23    376    377 112.6  -3.5  34198  290.20 0854.43
2009/04/23 16:32:37.1     304    -86     25    317    319 105.9   4.6  34166  289.66 0854.43
2009/04/23 16:32:37.2     171   -138     76    220    233 128.9  19.2  34192  290.11 0854.43
2009/04/23 16:32:37.3     247     46    121    252    279  79.4  27.3  34136  289.17 0854.43
2009/04/23 16:32:37.4     253    -35     68    256    265  98.0  15.0  34164  289.64 0854.43
2009/04/23 16:32:37.5     177     33     88    181    201  79.2  27.8  34202  290.28 0854.43
2009/04/23 16:32:37.6     107      8     84    108    136  85.7  41.7  34184  289.97 0854.43
2009/04/23 16:32:37.7     -26     82     97     87    130 342.2  53.7  34194  290.16 0854.43
2009/04/23 16:32:37.8     -51     50     49     72     87 314.1  37.0  34182  289.96 0854.43
2009/04/23 16:32:37.9     -73     78     75    108    131 316.8  38.0  34188  290.04 0854.43
2009/04/23 16:32:38.0     -74     69     92    102    137 312.7  47.5  34200  290.25 0854.43
2009/04/23 16:32:38.1     -64     80     98    103    142 321.3  48.5  34214  290.50 0854.43
2009/04/23 16:32:38.2     -28     55    116     62    131 332.8  69.8  34254  291.16 0854.43
2009/04/23 16:32:38.3     -61      0     91     62    110 269.2  62.6  34250  291.09 0854.43
2009/04/23 16:32:38.4    -102    -64     63    121    136 237.6  29.3  34238  290.89 0854.43
2009/04/23 16:32:38.5    -114    -73     39    136    142 237.1  16.3  34224  290.65 0854.42
2009/04/23 16:32:38.6     -92   -107     -5    142    143 220.5  -2.2  34224  290.67 0854.42
2009/04/23 16:32:38.7     -85    -68    -14    110    111 231.4  -7.3  34218  290.55 0854.42
2009/04/23 16:32:38.8     -69    -22    -40     73     83 251.8 -35.2  34214  290.48 0854.42
2009/04/23 16:32:38.9     -66     -1    -60     67     89 268.3 -50.8  34216  290.52 0854.42
2009/04/23 16:32:39.0      17     97    -76     99    124  10.2 -46.0  34228  290.72 0854.42
2009/04/23 16:32:39.1       9     91    -92     92    130   6.2 -54.5  34234  290.84 0854.42
2009/04/23 16:32:39.2     117    212    -99    243    262  29.0 -27.5  34236  290.87 0854.42
2009/04/23 16:32:39.3      63    296    -86    303    314  12.0 -20.5  34242  290.95 0854.42
2009/04/23 16:32:39.4      74    181    -33    196    199  22.5  -9.6  34240  290.94 0854.42
2009/04/23 16:32:39.5     229    185     35    295    298  51.1   6.9  34220  290.59 0854.42
2009/04/23 16:32:39.6     225    163     49    278    283  54.1  10.1  34186  290.00 0854.42
2009/04/23 16:32:39.7     170     75    -47    187    194  66.0 -14.3  34172  289.77 0854.42
2009/04/23 16:32:39.8     170     20    -55    172    181  83.0 -17.9  34198  290.23 0854.42
2009/04/23 16:32:39.9     190    -10    -45    191    197  93.3 -13.4  34204  290.31 0854.42
2009/04/23 16:32:40.0     153    -37     55    158    168 103.9  19.4  34206  290.35 0854.42
2009/04/23 16:32:40.1     104   -138    -13    174    175 143.0  -4.4  34210  290.41 0854.42
2009/04/23 16:32:40.2      59   -183    -35    193    197 162.2 -10.5  34216  290.52 0854.42
2009/04/23 16:32:40.3     106   -132    -54    170    179 141.3 -17.6  34212  290.45 0854.42
2009/04/23 16:32:40.4      86   -114    -45    143    150 143.0 -17.5  34206  290.36 0854.42
2009/04/23 16:32:40.5      96    -85    -35    129    134 131.8 -15.4  34214  290.48 0854.42
2009/04/23 16:32:40.6      97    -90    -59    133    145 132.7 -29.6  34210  290.41 0854.42
2009/04/23 16:32:40.7     113    -63    -68    130    146 119.3 -33.7  34216  290.52 0854.42
2009/04/23 16:32:40.8     103    -80   -100    131    164 127.8 -45.6  34216  290.53 0854.42
2009/04/23 16:32:40.9     126   -128    -69    181    193 135.5 -26.1  34206  290.36 0854.42
2009/04/23 16:32:41.0     221    -87    -66    238    247 111.7 -15.5  34206  290.36 0854.42
2009/04/23 16:32:41.1      94   -182    -83    205    221 152.6 -27.5  34214  290.48 0854.42
2009/04/23 16:32:41.2      14   -179    -66    180    191 175.5 -25.4  34238  290.89 0854.42
2009/04/23 16:32:41.3      13   -201     18    202    203 176.2   5.2  34224  290.65 0854.42
2009/04/23 16:32:41.4      36   -151     21    156    158 166.6   8.0  34222  290.62 0854.42
2009/04/23 16:32:41.5      36   -184    -30    188    191 168.9  -9.3  34218  290.57 0854.42
2009/04/23 16:32:41.6      29   -194     46    197    203 171.3  13.2  34220  290.58 0854.42
2009/04/23 16:32:41.7     -33   -268     -5    271    272 187.1  -1.3  34218  290.54 0854.42
2009/04/23 16:32:41.8    -123   -278    -27    305    307 203.8  -5.2  34222  290.61 0854.42
2009/04/23 16:32:41.9    -238   -299    -95    383    395 218.5 -14.1  34232  290.79 0854.42
2009/04/23 16:32:42.0    -162   -229   -127    281    308 215.2 -30.6  34232  290.78 0854.42
2009/04/23 16:32:42.1    -100   -194   -219    219    309 207.2 -54.5  34218  290.56 0854.42
2009/04/23 16:32:42.2     -75    -59   -205     96    226 231.4 -77.5  34208  290.40 0854.42
2009/04/23 16:32:42.3      19   -178   -123    180    218 173.8 -42.0  34200  290.26 0854.42
2009/04/23 16:32:42.4      37   -139    -48    145    153 164.8 -18.3  34184  289.99 0854.42
2009/04/23 16:32:42.5     -72    -64      4     97     98 228.7   2.9  34184  289.97 0854.42
2009/04/23 16:32:42.6    -207   -172   -117    270    294 230.2 -29.5  34174  289.81 0854.42
2009/04/23 16:32:42.7    -153   -208   -202    259    328 216.3 -46.4  34140  289.24 0854.42
2009/04/23 16:32:42.8     -44   -154   -198    161    255 196.0 -61.0  34148  289.36 0854.42
2009/04/23 16:32:42.9    -137   -176   -215    224    310 217.9 -53.4  34150  289.39 0854.42
2009/04/23 16:32:43.0      12    -99    -80    100    128 172.9 -48.1  34158  289.53 0854.42
2009/04/23 16:32:43.1       9   -150    -45    151    157 176.4 -21.5  34154  289.46 0854.42
2009/04/23 16:32:43.2      61   -256     17    264    265 166.6   3.8  34188  290.03 0854.42
2009/04/23 16:32:43.3     125   -220      7    254    255 150.4   1.8  34160  289.58 0854.42
2009/04/23 16:32:43.4     122   -162   -101    204    227 143.0 -32.4  34160  289.58 0854.42
2009/04/23 16:32:43.5     117   -111    -48    162    170 133.3 -16.6  34152  289.45 0854.42
2009/04/23 16:32:43.6      66   -196    -43    207    212 161.3 -11.9  34170  289.75 0854.42
2009/04/23 16:32:43.7     107   -134     -6    172    173 141.5  -2.2  34172  289.79 0854.42
2009/04/23 16:32:43.8      58   -177    -56    187    196 161.7 -16.8  34176  289.85 0854.42
2009/04/23 16:32:43.9      30   -182    -52    185    192 170.7 -20.2  34190  290.08 0854.42
2009/04/23 16:32:44.0      36   -111    -67    117    134 161.7 -37.3  34192  290.11 0854.42
2009/04/23 16:32:44.1      43    -68    -57     81     99 147.5 -43.5  34198  290.23 0854.42
2009/04/23 16:32:44.2      31    -48    -54     58     79 147.5 -52.9  34200  290.25 0854.42
2009/04/23 16:32:44.3      44      8    -41     45     60  79.4 -52.3  34196  290.19 0854.42
2009/04/23 16:32:44.4      54     34    -23     65     70  57.6 -19.6  34194  290.16 0854.42
2009/04/23 16:32:44.5     112     98    -99    150    179  48.7 -40.9  34184  289.97 0854.42
2009/04/23 16:32:44.6      76    126   -107    148    182  31.2 -43.9  34170  289.75 0854.42
2009/04/23 16:32:44.7      80    128   -105    152    184  32.1 -42.2  34176  289.85 0854.42
2009/04/23 16:32:44.8     136    176   -102    223    245  37.6 -30.6  34170  289.75 0854.42
2009/04/23 16:32:44.9     219    139    -14    260    261  57.5  -3.1  34164  289.63 0854.42
2009/04/23 16:32:45.0     119    125    -56    173    182  43.7 -17.9  34168  289.72 0854.42
2009/04/23 16:32:45.1     214    181     51    281    286  49.8  10.3  34222  290.63 0854.42
2009/04/23 16:32:45.2      92    195     98    216    237  25.4  26.2  34220  290.60 0854.42
2009/04/23 16:32:45.3     103    252    157    273    314  22.3  32.6  34240  290.92 0854.42
2009/04/23 16:32:45.4      26    259    117    261    286   5.8  25.9  34248  291.05 0854.42
2009/04/23 16:32:45.5      14    191    103    192    217   4.5  30.8  34242  290.98 0854.42
2009/04/23 16:32:45.6       5    186     95    187    209   1.8  29.1  34230  290.75 0854.42
2009/04/23 16:32:45.7     -18    232     14    233    234 355.5   3.6  34218  290.54 0854.42
2009/04/23 16:32:45.8       3    216    -11    217    218   1.0  -3.1  34224  290.65 0854.42
2009/04/23 16:32:45.9      -2    246     -5    247    248 359.5  -1.2  34228  290.71 0854.42
2009/04/23 16:32:46.0    -183    307     43    358    361 329.1   6.9  34124  288.96 0854.42
2009/04/23 16:32:46.1    -233    334    -15    408    409 325.2  -2.2  34142  289.26 0854.42
2009/04/23 16:32:46.2    -247    314    -15    400    401 321.7  -2.2  34114  288.79 0854.42
2009/04/23 16:32:46.3    -216    318     73    385    392 325.7  10.8  34182  289.94 0854.42
2009/04/23 16:32:46.4    -227    307      0    383    384 323.5   0.1  34112  288.77 0854.42
2009/04/23 16:32:46.5    -285    300    -60    415    420 316.5  -8.2  34108  288.68 0854.44
2009/04/23 16:32:46.6    -255    338   -100    424    436 323.0 -13.3  34106  288.65 0854.44
2009/04/23 16:32:46.7    -229    303   -134    381    405 322.9 -19.4  34102  288.59 0854.44
2009/04/23 16:32:46.8     -98    317    -94    332    345 342.7 -20.5  34116  288.81 0854.44
2009/04/23 16:32:46.9     -68    263    -78    272    282 345.5 -20.8  34136  289.15 0854.44
2009/04/23 16:32:47.0     -51    253    -61    259    267 348.4 -13.4  34112  288.76 0854.44
2009/04/23 16:32:47.1     -19    294     -2    295    296 356.2  -0.5  34138  289.20 0854.44
2009/04/23 16:32:47.2    -172    269    -37    320    323 327.4  -6.7  34136  289.17 0854.44
2009/04/23 16:32:47.3    -156    229    -30    278    280 325.7  -6.2  34124  288.95 0854.44
2009/04/23 16:32:47.4    -181    218    -16    284    285 320.3  -3.3  34132  289.09 0854.44
2009/04/23 16:32:47.5    -245    202    -45    318    322 309.5  -8.1  34140  289.24 0854.44
2009/04/23 16:32:47.6    -166    269     24    317    319 328.4   4.5  34176  289.85 0854.44
2009/04/23 16:32:47.7    -205    279     45    347    350 323.6   7.4  34186  290.01 0854.44
2009/04/23 16:32:47.8    -228    313    -15    388    389 323.9  -2.2  34182  289.96 0854.44
2009/04/23 16:32:47.9    -164    284     42    328    331 330.0   7.4  34222  290.64 0854.44
2009/04/23 16:32:48.0    -124    315     79    339    349 338.5  13.1  34234  290.84 0854.44
2009/04/23 16:32:48.1    -227    292     58    371    376 322.2   9.0  34208  290.37 0854.44
2009/04/23 16:32:48.2    -174    272     91    324    337 327.4  15.8  34186  290.01 0854.44
2009/04/23 16:32:48.3    -265    271     30    380    382 315.7   4.6  34212  290.45 0854.44
2009/04/23 16:32:48.4    -235    346     48    419    422 325.8   6.6  34254  291.16 0854.44
2009/04/23 16:32:48.5    -180    280     42    334    337 327.2   7.2  34258  291.25 0854.43
2009/04/23 16:32:48.6    -193    265     -5    329    330 323.9  -0.9  34238  290.88 0854.43
2009/04/23 16:32:48.7    -188    227     -6    295    296 320.3  -1.3  34240  290.93 0854.43
2009/04/23 16:32:48.8    -160    163     22    229    231 315.7   5.7  34260  291.26 0854.43
2009/04/23 16:32:48.9    -197     71     76    210    223 290.0  20.7  34264  291.33 0854.43
2009/04/23 16:32:49.0     -11     62     95     64    114 349.3  63.6  34276  291.54 0854.43
2009/04/23 16:32:49.1      59     86    121    105    160  34.7  54.6  34278  291.57 0854.43
2009/04/23 16:32:49.2      27    121    125    125    176  12.9  50.1  34268  291.40 0854.43
2009/04/23 16:32:49.3      33    144     83    148    169  12.9  31.9  34266  291.37 0854.43
2009/04/23 16:32:49.4      72    268     77    278    289  15.2  15.6  34306  292.04 0854.43
2009/04/23 16:32:49.5       3    221     10    222    223   0.9   2.8  34286  291.72 0854.43
2009/04/23 16:32:49.6      69    221     59    232    240  17.4  14.3  34328  292.43 0854.43
2009/04/23 16:32:49.7      45    321    118    325    345   8.1  20.7  34352  292.85 0854.43
2009/04/23 16:32:49.8      33    311    112    313    332   6.2  20.3  34334  292.52 0854.43
2009/04/23 16:32:49.9      97    224    109    245    268  23.4  25.9  34328  292.43 0854.43
2009/04/23 16:32:50.0     102    200    145    225    267  27.1  35.6  34332  292.50 0854.43
2009/04/23 16:32:50.1     101    153    116    184    217  33.6  35.5  34324  292.37 0854.43
2009/04/23 16:32:50.2      48    201     59    207    216  13.6  16.0  34336  292.58 0854.43
2009/04/23 16:32:50.3       0    317     18    318    319   0.0   3.3  34386  293.42 0854.43
2009/04/23 16:32:50.4     -28    303    100    305    321 354.7  18.2  34406  293.75 0854.43
2009/04/23 16:32:50.5     -62    386     70    392    399 350.9  10.1  34284  291.68 0854.41
2009/04/23 16:32:50.6     -15    351     80    352    362 357.4  12.9  34368  293.12 0854.41
2009/04/23 16:32:50.7      -1    320     55    321    326 359.8   9.9  34404  293.73 0854.41
2009/04/23 16:32:50.8      81    325     35    335    337  14.1   6.0  34360  292.97 0854.41
2009/04/23 16:32:50.9     -55    410     28    414    415 352.3   3.9  34352  292.83 0854.41
2009/04/23 16:32:51.1      -5    372    102    373    387 359.2  15.3  34348  292.78 0854.41
2009/04/23 16:32:51.2     192    299    142    356    383  32.8  23.0  34334  292.54 0854.41
2009/04/23 16:32:51.2     115    381     20    398    399  16.8   2.9  34312  292.14 0854.41
2009/04/23 16:32:51.4      50    390     -9    394    395   7.3  -1.4  34230  290.77 0854.41
2009/04/23 16:32:51.5      29    359      9    361    362   4.7   1.5  34308  292.10 0854.41
2009/04/23 16:32:51.6      15    335     14    336    337   2.7   2.4  34294  291.86 0854.41
2009/04/23 16:32:51.7      70    411    -32    417    419   9.7  -4.4  34204  290.31 0854.41
2009/04/23 16:32:51.8     118    431    -62    448    453  15.4  -7.9  34188  290.05 0854.41
2009/04/23 16:32:51.9     168    420     35    453    455  21.8   4.5  34200  290.26 0854.41
2009/04/23 16:32:52.0     141    463      1    485    486  17.0   0.2  34176  289.83 0854.41
2009/04/23 16:32:52.1      76    445    -49    452    455   9.8  -6.3  34130  289.07 0854.41
2009/04/23 16:32:52.2       4    427    -87    428    437   0.6 -11.5  34116  288.82 0854.41
2009/04/23 16:32:52.3      -6    395    -94    396    408 359.0 -13.4  34120  288.90 0854.41
2009/04/23 16:32:52.4      -7    391    -36    392    394 358.9  -5.4  34136  289.18 0854.41
2009/04/23 16:32:52.5       0    384    -64    385    391   0.0  -9.5  34146  289.33 0854.41
2009/04/23 16:32:52.6      27    413    -87    414    424   3.8 -11.9  34144  289.29 0854.42
2009/04/23 16:32:52.7      52    402    -44    406    409   7.4  -6.2  34146  289.34 0854.42
2009/04/23 16:32:52.8      40    426    -14    429    430   5.4  -1.9  34140  289.22 0854.42
2009/04/23 16:32:52.9      56    426     26    430    431   7.6   3.5  34124  288.95 0854.42
2009/04/23 16:32:53.0       8    452     -2    453    454   1.1  -0.3  34116  288.83 0854.42
2009/04/23 16:32:53.1      -8    455    -17    456    457 358.9  -2.2  34120  288.90 0854.42
2009/04/23 16:32:53.2     -19    451     34    452    454 357.5   4.3  34130  289.05 0854.42
2009/04/23 16:32:53.3       0    412      0    413    414 359.9   0.0  34122  288.94 0854.42
2009/04/23 16:32:53.4      39    392    -63    394    400   5.7  -9.1  34152  289.42 0854.42
2009/04/23 16:32:53.5      61    383    -41    388    391   9.1  -6.1  34148  289.38 0854.42
2009/04/23 16:32:53.6      46    349     17    353    354   7.6   2.8  34262  291.30 0854.42
2009/04/23 16:32:53.7       9    340     10    341    342   1.6   1.8  34196  290.18 0854.42
2009/04/23 16:32:53.8      -6    335    -14    336    337 358.9  -2.5  34172  289.77 0854.42
2009/04/23 16:32:53.9      15    341     -4    342    343   2.6  -0.7  34166  289.67 0854.42
2009/04/23 16:32:54.0      35    325     13    327    328   6.2   2.3  34182  289.95 0854.42
2009/04/23 16:32:54.1     120    341     59    362    367  19.5   9.3  34142  289.25 0854.42
2009/04/23 16:32:54.2     101    337    -67    352    359  16.7 -10.9  34172  289.76 0854.42
2009/04/23 16:32:54.3      84    276    -66    289    297  17.0 -12.9  34154  289.47 0854.42
2009/04/23 16:32:54.4     100    220    -74    242    254  24.5 -17.0  34152  289.44 0854.42
2009/04/23 16:32:54.5      66    233   -164    243    293  15.8 -41.8  34158  289.53 0854.42
2009/04/23 16:32:54.6      56    334     11    339    340   9.6   1.9  34152  289.42 0854.42
2009/04/23 16:32:54.7       7    327    -12    328    329   1.4  -2.2  34150  289.39 0854.42
2009/04/23 16:32:54.8     -34    367    -14    369    370 354.6  -2.2  34142  289.26 0854.42
2009/04/23 16:32:54.9     -22    352     40    353    356 356.4   6.6  34136  289.16 0854.42
2009/04/23 16:32:55.0       0    367     18    368    369 359.9   2.9  34132  289.10 0854.42
2009/04/23 16:32:55.1      -4    384      4    385    386 359.4   0.7  34130  289.06 0854.42
2009/04/23 16:32:55.2     -67    372     19    379    380 349.7   3.0  34132  289.10 0854.42
2009/04/23 16:32:55.3     -52    365     10    369    370 351.8   1.6  34128  289.04 0854.42
2009/04/23 16:32:55.4    -100    347     -8    362    363 343.9  -1.4  34126  288.99 0854.42
2009/04/23 16:32:55.5    -145    339    -61    369    375 336.8  -9.4  34174  289.82 0854.42
2009/04/23 16:32:55.6     -89    292    -62    306    313 343.0 -11.5  34156  289.51 0854.42
2009/04/23 16:32:55.7     -88    242   -133    258    290 339.9 -33.7  34148  289.36 0854.42
2009/04/23 16:32:55.8     -53    237   -191    243    309 347.3 -46.6  34180  289.90 0854.42
2009/04/23 16:32:55.9    -235    266   -100    356    370 318.6 -15.8  34210  290.42 0854.42
2009/04/23 16:32:56.0    -268    228    -69    353    360 310.4 -11.1  34272  291.49 0854.42
2009/04/23 16:32:56.1    -225    218   -107    314    332 314.0 -18.8  34248  291.07 0854.42
2009/04/23 16:32:56.2    -290     95    -33    306    308 288.2  -6.2  34262  291.29 0854.42
2009/04/23 16:32:56.3    -217     86    -31    234    237 291.7  -7.7  34256  291.21 0854.42
2009/04/23 16:32:56.4    -162    103    -70    193    205 302.5 -24.8  34240  290.92 0854.42
2009/04/23 16:32:56.5    -119    132    -53    179    186 317.9 -21.2  34242  290.96 0854.42
2009/04/23 16:32:56.6     -86    268    -90    282    296 342.2 -22.9  34236  290.85 0854.42
2009/04/23 16:32:56.7     -51    252    -78    258    270 348.5 -17.0  34232  290.78 0854.42
2009/04/23 16:32:56.8     -58    186   -127    195    232 342.6 -40.0  34278  291.57 0854.42
2009/04/23 16:32:56.9     -88    181    -72    202    215 333.9 -19.6  34218  290.57 0854.42
2009/04/23 16:32:57.0    -102    135    -28    170    173 322.8  -9.3  34186  290.01 0854.42
2009/04/23 16:32:57.1    -122     67    -37    140    145 298.8 -15.0  34176  289.85 0854.42
2009/04/23 16:32:57.2     -44     31    -44     54     69 305.1 -48.1  34178  289.89 0854.42
2009/04/23 16:32:57.3     -63     29    -62     70     93 295.3 -50.8  34178  289.89 0854.42
2009/04/23 16:32:57.4     -79    -29    -89     85    123 250.0 -55.6  34202  290.30 0854.42
2009/04/23 16:32:57.5     -51    -63    -82     82    115 219.2 -54.5  34216  290.53 0854.42
2009/04/23 16:32:57.6     -24   -100    -86    103    134 193.8 -48.2  34198  290.21 0854.42
2009/04/23 16:32:57.7       0   -145    -76    146    164 180.0 -34.2  34200  290.26 0854.42
2009/04/23 16:32:57.8      63   -117    -95    134    164 151.5 -43.0  34208  290.40 0854.42
2009/04/23 16:32:57.9     139   -139   -112    197    226 135.0 -36.5  34214  290.50 0854.42
2009/04/23 16:32:58.0     105   -220   -111    244    268 154.5 -30.6  34226  290.68 0854.42
2009/04/23 16:32:58.1      39   -240   -105    244    265 170.7 -29.3  34250  291.09 0854.42
2009/04/23 16:32:58.2     -30   -241   -112    243    267 187.2 -30.8  34240  290.93 0854.42
2009/04/23 16:32:58.3      29   -186   -163    189    249 170.9 -49.5  34230  290.77 0854.42
2009/04/23 16:32:58.4      13   -179   -113    180    212 175.8 -39.9  34216  290.52 0854.42
2009/04/23 16:32:58.5     -81   -178   -204    196    282 204.5 -55.6  34212  290.44 0854.42
2009/04/23 16:32:58.6     -41   -151   -207    157    259 195.2 -63.6  34212  290.45 0854.42
2009/04/23 16:32:58.7       3   -299   -267    300    401 179.3 -50.7  34214  290.50 0854.42
2009/04/23 16:32:58.8      -7   -294   -205    295    359 181.4 -42.4  34178  289.86 0854.42
2009/04/23 16:32:58.9     128   -162   -152    207    256 141.7 -44.1  34200  290.24 0854.42
2009/04/23 16:32:59.0     146    -29   -163    149    220 101.4 -56.9  34218  290.55 0854.42
2009/04/23 16:32:59.1     111     17    -98    113    149  81.2 -49.8  34238  290.91 0854.42
2009/04/23 16:32:59.2     150    -16    -60    151    162  96.2 -26.9  34242  290.96 0854.42
2009/04/23 16:32:59.3     193    -10    -24    194    196  93.0  -7.2  34242  290.96 0854.42
2009/04/23 16:32:59.4     174      1     34    175    179  89.6  11.1  34238  290.91 0854.42
2009/04/23 16:32:59.5     159     -7     88    160    182  92.6  31.4  34242  290.96 0854.42
2009/04/23 16:32:59.6     146     74    126    164    206  62.9  41.7  34234  290.82 0854.42
2009/04/23 16:32:59.7      85     57    152    103    183  56.3  62.8  34242  290.98 0854.42
2009/04/23 16:32:59.8      19     94     60     96    113  11.6  35.5  34216  290.52 0854.42
2009/04/23 16:32:59.9     -30    107     90    112    143 344.0  43.3  34202  290.30 0854.42
2009/04/23 16:33:00.0    -116    118    140    166    217 315.5  44.5  34210  290.41 0854.42
2009/04/23 16:33:00.1    -122     59     95    136    165 295.8  38.4  34204  290.33 0854.42
2009/04/23 16:33:00.2    -124     37    136    130    188 286.8  51.4  34210  290.43 0854.42
2009/04/23 16:33:00.3    -146    159    118    217    247 317.5  30.8  34200  290.24 0854.42
2009/04/23 16:33:00.4    -165    183    128    247    278 318.1  29.3  34196  290.17 0854.42
2009/04/23 16:33:00.5    -149    149    123    211    244 315.0  33.1  34210  290.41 0854.42
2009/04/23 16:33:00.6     -84    108     83    138    161 322.2  33.7  34218  290.57 0854.42
2009/04/23 16:33:00.7    -168     46     66    175    187 285.3  21.7  34204  290.33 0854.42
2009/04/23 16:33:00.8     -55    163     41    173    178 341.3  13.5  34196  290.19 0854.42
2009/04/23 16:33:00.9      -6    222     82    223    237 358.4  21.0  34188  290.03 0854.42
2009/04/23 16:33:01.0      -6    178    133    179    223 358.0  40.1  34208  290.38 0854.42
2009/04/23 16:33:01.1     -51    151     96    160    186 341.3  34.0  34208  290.38 0854.42
2009/04/23 16:33:01.2      96    101    106    140    175  43.7  41.2  34204  290.33 0854.42
2009/04/23 16:33:01.3     120     87    138    149    203  54.1  47.9  34208  290.40 0854.42
2009/04/23 16:33:01.4     112     38    129    119    175  70.9  52.2  34202  290.28 0854.42
2009/04/23 16:33:01.5      27    106     95    110    145  14.7  45.4  34204  290.31 0854.42
2009/04/23 16:33:01.6      15     74    100     76    125  11.5  59.0  34206  290.36 0854.43
2009/04/23 16:33:01.7      52    130     99    141    172  21.9  38.4  34206  290.36 0854.43
2009/04/23 16:33:01.8     136    178    134    225    261  37.4  33.5  34218  290.54 0854.43
2009/04/23 16:33:01.9      41    288    121    292    316   8.2  23.8  34234  290.83 0854.43
2009/04/23 16:33:02.0      67    306    120    314    336  12.5  22.2  34214  290.50 0854.43
2009/04/23 16:33:02.1     192    239    137    307    336  38.7  25.7  34224  290.66 0854.43
2009/04/23 16:33:02.2      83    130    140    155    208  32.5  46.9  34228  290.72 0854.43
2009/04/23 16:33:02.3      13    246     91    247    263   3.1  21.0  34230  290.75 0854.43
2009/04/23 16:33:02.4      43    252    107    256    277   9.7  24.1  34240  290.93 0854.43
2009/04/23 16:33:02.5      92    200     87    221    237  24.7  22.8  34242  290.98 0854.43
2009/04/23 16:33:02.6     137    194    102    238    258  35.2  24.6  34266  291.36 0854.43
2009/04/23 16:33:02.7     171    145    127    225    258  49.6  31.9  34274  291.50 0854.43
2009/04/23 16:33:02.8     218    162     93    272    288  53.4  18.9  34282  291.63 0854.43
2009/04/23 16:33:02.9     213    150    123    261    288  54.9  27.1  34292  291.80 0854.43
2009/04/23 16:33:03.0     144     48    181    152    236  71.4  55.6  34262  291.30 0854.43
2009/04/23 16:33:03.1     178     14    197    179    266  85.2  53.2  34250  291.10 0854.43
2009/04/23 16:33:03.2     218    105    124    243    272  64.2  29.2  34230  290.75 0854.43
2009/04/23 16:33:03.3     284    151     21    322    323  61.9   3.8  34204  290.32 0854.43
2009/04/23 16:33:03.4     292    207     18    359    360  54.6   2.9  34202  290.30 0854.43
2009/04/23 16:33:03.5     380    179     52    421    425  64.8   7.1  34284  291.67 0854.43
2009/04/23 16:33:03.6     343    176     54    386    390  62.7   8.0  34292  291.81 0854.44
2009/04/23 16:33:03.7     295    196     82    355    365  56.3  13.1  34206  290.35 0854.44
2009/04/23 16:33:03.8     319    151     32    354    356  64.6   5.2  34204  290.32 0854.44
2009/04/23 16:33:03.9     273    199     87    339    350  53.9  14.4  34210  290.42 0854.44
2009/04/23 16:33:04.0     347    146     82    377    386  67.2  12.3  34224  290.67 0854.44
2009/04/23 16:33:04.1     320    190     85    373    383  59.3  12.9  34218  290.54 0854.44
2009/04/23 16:33:04.2     299    205     80    363    372  55.5  12.5  34192  290.11 0854.44
2009/04/23 16:33:04.3     325    158     99    362    376  64.1  15.4  34258  291.23 0854.44
2009/04/23 16:33:04.4     329    169    101    370    384  62.8  15.4  34342  292.66 0854.44
2009/04/23 16:33:04.5     322    199    129    379    401  58.3  18.8  34254  291.17 0854.44
2009/04/23 16:33:04.6     221    160    136    274    305  54.1  28.2  34240  290.92 0854.44
2009/04/23 16:33:04.7     104    264    181    284    336  21.6  35.5  34218  290.56 0854.44
2009/04/23 16:33:04.8     267    293    164    397    429  42.3  23.7  34220  290.60 0854.44
2009/04/23 16:33:04.9     233    283    130    367    390  39.5  19.5  34220  290.59 0854.44
2009/04/23 16:33:05.0      92    310     13    324    325  16.5   2.4  34230  290.76 0854.44
2009/04/23 16:33:05.1      52    304     15    309    310   9.8   2.9  34220  290.58 0854.44
2009/04/23 16:33:05.2      58    285     79    292    303  11.6  15.3  34212  290.46 0854.44
2009/04/23 16:33:05.3      19    248    -31    249    251   4.4  -7.2  34232  290.78 0854.44
2009/04/23 16:33:05.4     148    233     23    277    279  32.5   4.9  34240  290.92 0854.44
2009/04/23 16:33:05.5     203    208     39    291    294  44.3   7.8  34242  290.95 0854.44
2009/04/23 16:33:05.6     211    210     89    298    312  45.1  16.6  34238  290.88 0854.44
2009/04/23 16:33:05.7     255    221     92    338    351  49.0  15.3  34250  291.10 0854.44
2009/04/23 16:33:05.8     217    172     45    277    281  51.6   9.3  34272  291.46 0854.44
2009/04/23 16:33:05.9     233    148     75    277    288  57.5  15.3  34248  291.07 0854.44
2009/04/23 16:33:06.0     268    142     83    304    316  62.0  15.4  34254  291.16 0854.44
2009/04/23 16:33:06.1     212    180    102    279    297  49.6  21.0  34210  290.42 0854.44
2009/04/23 16:33:06.2     195    191    105    273    292  45.6  22.1  34208  290.39 0854.44
2009/04/23 16:33:06.3     232    198    120    306    328  49.5  22.5  34208  290.39 0854.44
2009/04/23 16:33:06.4     320    202    146    379    406  57.7  22.1  34278  291.56 0854.44
2009/04/23 16:33:06.5     282    179    151    334    366  57.6  25.9  34298  291.93 0854.44
2009/04/23 16:33:06.6     309    143    157    341    375  65.2  26.5  34350  292.80 0854.44
2009/04/23 16:33:06.7     273    193    122    335    356  54.6  20.9  34282  291.66 0854.44
2009/04/23 16:33:06.8     266    246     71    363    370  47.2  11.1  34202  290.30 0854.44
2009/04/23 16:33:06.9     267    198     26    333    335  53.4   4.6  34288  291.73 0854.44
2009/04/23 16:33:07.0     320    115    110    341    359  70.2  17.9  34434  294.25 0854.44
2009/04/23 16:33:07.1     321    107    129    339    362  71.6  21.8  34418  293.96 0854.44
2009/04/23 16:33:07.2     350    128    101    373    387  69.8  15.1  34340  292.63 0854.44
2009/04/23 16:33:07.3     247    174     71    303    312  54.9  13.2  34302  291.99 0854.44
2009/04/23 16:33:07.4     208    170     -1    269    270  50.7  -0.3  34234  290.82 0854.44
2009/04/23 16:33:07.5     216    153    -12    265    266  54.7  -2.8  34224  290.65 0854.44
2009/04/23 16:33:07.6     204    149     34    253    256  53.8   7.8  34220  290.58 0854.45
2009/04/23 16:33:07.7     186    152      8    241    242  50.7   2.1  34208  290.37 0854.45
2009/04/23 16:33:07.8     151    204     21    255    257  36.5   4.9  34170  289.75 0854.45
2009/04/23 16:33:07.9     146    197     24    246    248  36.5   5.7  34160  289.58 0854.45
2009/04/23 16:33:08.0     164    200     32    259    262  39.4   7.2  34160  289.56 0854.45
2009/04/23 16:33:08.1     156    245    -37    291    294  32.5  -7.3  34164  289.64 0854.45
2009/04/23 16:33:08.2     201    202    -26    286    288  44.8  -5.4  34156  289.49 0854.45
2009/04/23 16:33:08.3     195    195     12    277    278  45.0   2.5  34220  290.58 0854.45
2009/04/23 16:33:08.4     173    176      0    247    248  44.5   0.0  34240  290.92 0854.45
2009/04/23 16:33:08.5     142    203      3    248    249  35.0   0.8  34218  290.56 0854.45
2009/04/23 16:33:08.6     208    214     -6    299    300  44.1  -1.3  34192  290.10 0854.45
2009/04/23 16:33:08.7     195    217     14    292    293  41.9   2.9  34204  290.32 0854.45
2009/04/23 16:33:08.8     167    209     47    268    273  38.7  10.0  34214  290.49 0854.45
2009/04/23 16:33:08.9     152    213     64    262    270  35.6  13.9  34298  291.92 0854.45
2009/04/23 16:33:09.0     170    187     92    254    271  42.3  19.9  34308  292.09 0854.45
2009/04/23 16:33:09.1     228    208     28    309    311  47.6   5.2  34192  290.12 0854.45
2009/04/23 16:33:09.2     224    202     15    302    303  48.0   2.9  34184  289.97 0854.45
2009/04/23 16:33:09.3     261    207    -13    334    335  51.6  -2.3  34178  289.89 0854.45
2009/04/23 16:33:09.4     229    215     71    315    324  46.9  12.8  34172  289.76 0854.45
2009/04/23 16:33:09.5     225    238     94    328    342  43.3  16.0  34184  289.99 0854.45
2009/04/23 16:33:09.6     228    223    136    320    347  45.6  24.3  34186  290.01 0854.45
2009/04/23 16:33:09.7     321    249     82    407    416  52.2  11.4  34186  290.02 0854.45
2009/04/23 16:33:09.8     255    231     93    345    358  47.8  15.1  34196  290.18 0854.45
2009/04/23 16:33:09.9     255    247    109    356    373  45.9  17.1  34182  289.94 0854.45
2009/04/23 16:33:10.0     249    298    108    389    404  39.9  15.6  34216  290.52 0854.45
2009/04/23 16:33:10.1     254    316     37    406    408  38.8   5.3  34220  290.60 0854.45
2009/04/23 16:33:10.2     225    284    124    363    384  38.4  18.9  34218  290.57 0854.45
2009/04/23 16:33:10.3     170    319    128    362    385  28.1  19.6  34208  290.38 0854.45
2009/04/23 16:33:10.4     201    380     77    430    437  27.9  10.2  34200  290.26 0854.45
2009/04/23 16:33:10.5     237    410     40    474    476  30.0   4.9  34204  290.32 0854.45
2009/04/23 16:33:10.6     225    360     82    425    433  32.0  11.0  34190  290.07 0854.45
2009/04/23 16:33:10.7     266    386     66    469    474  34.6   8.1  34182  289.96 0854.45
2009/04/23 16:33:10.8     152    353      3    385    386  23.3   0.5  34192  290.10 0854.45
2009/04/23 16:33:10.9     149    352     33    383    385  22.9   5.0  34182  289.96 0854.45
2009/04/23 16:33:11.0     103    382      4    396    397  15.2   0.7  34182  289.96 0854.45
2009/04/23 16:33:11.1      51    354    -64    358    364   8.3 -10.2  34192  290.13 0854.45
2009/04/23 16:33:11.2      56    312    -17    318    319  10.2  -3.1  34186  290.00 0854.45
2009/04/23 16:33:11.3     133    280    -39    311    314  25.5  -7.2  34184  289.98 0854.45
2009/04/23 16:33:11.4      76    314    -75    324    333  13.6 -13.1  34184  289.99 0854.45
2009/04/23 16:33:11.5      69    327    -73    335    344  12.0 -12.4  34180  289.91 0854.45
2009/04/23 16:33:11.6      49    347   -104    351    367   8.1 -16.5  34178  289.87 0854.46
2009/04/23 16:33:11.7     122    425    -24    443    444  16.0  -3.2  34204  290.31 0854.46
2009/04/23 16:33:11.8     172    455    -26    487    488  20.8  -3.1  34252  291.13 0854.46
2009/04/23 16:33:11.9     230    388     37    451    453  30.7   4.7  34244  290.99 0854.46
2009/04/23 16:33:12.0     200    356     51    409    413  29.4   7.1  34238  290.90 0854.46
2009/04/23 16:33:12.1     132    377     12    400    401  19.3   1.8  34206  290.35 0854.46
2009/04/23 16:33:12.2     187    382     21    426    427  26.1   2.9  34170  289.75 0854.46
2009/04/23 16:33:12.3     223    329    -45    398    401  34.2  -6.5  34154  289.48 0854.46
2009/04/23 16:33:12.4     221    325    -67    394    400  34.3  -9.8  34152  289.43 0854.46
2009/04/23 16:33:12.5     177    318    -57    365    370  29.1  -9.0  34152  289.45 0854.46
2009/04/23 16:33:12.6     142    326    -28    356    358  23.5  -4.6  34158  289.55 0854.46
2009/04/23 16:33:12.7     157    312     -5    350    351  26.7  -0.9  34164  289.65 0854.46
2009/04/23 16:33:12.8     158    309    -18    348    349  27.1  -3.0  34164  289.65 0854.46
2009/04/23 16:33:12.9     154    333    -10    367    368  24.8  -1.7  34156  289.52 0854.46
2009/04/23 16:33:13.0     138    334    -17    362    363  22.5  -2.8  34162  289.60 0854.46
2009/04/23 16:33:13.1     120    301      5    325    326  21.8   1.0  34160  289.58 0854.46
2009/04/23 16:33:13.2     208    325    -41    387    390  32.6  -6.1  34158  289.54 0854.46
2009/04/23 16:33:13.3     184    328    -20    377    378  29.3  -3.2  34158  289.55 0854.46
2009/04/23 16:33:13.4     195    414    -81    458    466  25.3 -10.1  34154  289.48 0854.46
2009/04/23 16:33:13.5     219    354    -76    417    424  31.7 -10.4  34160  289.56 0854.46
2009/04/23 16:33:13.6     148    324    -99    357    371  24.5 -15.5  34160  289.57 0854.47
2009/04/23 16:33:13.7      88    328    -61    340    346  15.1 -10.3  34164  289.65 0854.47
2009/04/23 16:33:13.8      87    303     -3    316    317  16.0  -0.7  34162  289.61 0854.47
2009/04/23 16:33:13.9     191    308    -45    363    366  31.9  -7.2  34158  289.55 0854.47
2009/04/23 16:33:14.0     193    303    -20    360    361  32.5  -3.3  34158  289.54 0854.47
2009/04/23 16:33:14.1     226    312    -39    386    389  36.0  -5.9  34158  289.54 0854.47
2009/04/23 16:33:14.2     247    343    -31    423    425  35.8  -4.2  34160  289.56 0854.47
2009/04/23 16:33:14.3     224    340    -15    408    409  33.3  -2.2  34160  289.58 0854.47
2009/04/23 16:33:14.4     233    342      8    414    415  34.3   1.2  34190  290.09 0854.47
2009/04/23 16:33:14.5     179    345     54    389    393  27.5   7.9  34196  290.18 0854.47
2009/04/23 16:33:14.6     169    358     72    396    403  25.3  10.3  34172  289.79 0854.47
2009/04/23 16:33:14.7     191    245    110    311    329  37.9  20.1  34228  290.71 0854.47
2009/04/23 16:33:14.8     198    231    107    305    324  40.6  19.4  34282  291.65 0854.47
2009/04/23 16:33:14.9     180    207    127    275    302  41.0  27.0  34300  291.96 0854.47
2009/04/23 16:33:15.0     165    268     61    315    321  31.6  11.0  34160  289.56 0854.47
2009/04/23 16:33:15.1     154    234     55    281    287  33.4  11.1  34174  289.81 0854.47
2009/04/23 16:33:15.2     125    243     77    274    285  27.2  15.8  34180  289.92 0854.47
2009/04/23 16:33:15.3     149    235     44    279    283  32.5   9.0  34156  289.51 0854.47
2009/04/23 16:33:15.4     132    207     66    246    255  32.6  15.0  34160  289.56 0854.47
2009/04/23 16:33:15.5     144    172     53    225    232  39.9  13.2  34158  289.53 0854.47
2009/04/23 16:33:15.6     156    168     58    230    238  43.0  14.3  34158  289.53 0854.47
2009/04/23 16:33:15.7     184    138     57    231    238  53.1  13.9  34160  289.58 0854.47
2009/04/23 16:33:15.8     160     76     95    178    201  64.6  30.3  34170  289.75 0854.47
2009/04/23 16:33:15.9     106     88     88    138    163  50.4  35.6  34176  289.85 0854.47
2009/04/23 16:33:16.0      81    127     75    151    168  32.6  28.2  34170  289.75 0854.47
2009/04/23 16:33:16.1      47    125     60    134    146  20.9  26.2  34168  289.70 0854.47
2009/04/23 16:33:16.2      73    120     52    141    150  31.6  20.9  34174  289.82 0854.47
2009/04/23 16:33:16.3      77     93     80    121    145  39.6  36.0  34170  289.74 0854.47
2009/04/23 16:33:16.4     139     19     48    141    150  82.0  18.9  34224  290.67 0854.47
2009/04/23 16:33:16.5     101     27     14    105    107  74.9   8.0  34252  291.15 0854.47
2009/04/23 16:33:16.6      79     48     14     93     95  58.5   9.0  34270  291.45 0854.47
2009/04/23 16:33:16.7      60     62     41     87     96  43.7  27.2  34292  291.83 0854.47
2009/04/23 16:33:16.8      35     72     52     81     96  26.3  35.6  34298  291.91 0854.47
2009/04/23 16:33:16.9      42     81     -6     92     93  27.6  -4.1  34290  291.77 0854.47
2009/04/23 16:33:17.0     -44     60    -20     75     78 323.9 -15.5  34302  291.98 0854.47
2009/04/23 16:33:17.1     -72     37    -40     82     91 297.5 -32.2  34284  291.69 0854.47
2009/04/23 16:33:17.2    -152      3    -61    153    164 271.3 -26.9  34234  290.84 0854.47
2009/04/23 16:33:17.3    -413     75   -138    420    442 280.4 -23.5  34120  288.90 0854.47
2009/04/23 16:33:17.4    -353    -33   -121    355    376 264.5 -18.8  34136  289.16 0854.47
2009/04/23 16:33:17.5    -125    108    -25    166    168 310.7  -8.6  34180  289.92 0854.47
2009/04/23 16:33:17.6     -54     37    -85     66    107 304.2 -62.3  34160  289.57 0854.47
2009/04/23 16:33:17.7     -30    -96    -52    101    113 197.4 -33.1  34156  289.52 0854.47
2009/04/23 16:33:17.8      36   -220    115    223    250 170.7  29.3  34192  290.10 0854.47
2009/04/23 16:33:17.9      34   -202     32    206    209 170.2   8.8  34142  289.28 0854.47
2009/04/23 16:33:18.0      22   -200     23    202    204 173.7   6.7  34142  289.26 0854.47
2009/04/23 16:33:18.1      10   -208    -11    209    210 177.1  -3.2  34142  289.28 0854.47
2009/04/23 16:33:18.3      14   -145      3    146    147 174.2   1.2  34146  289.35 0854.47
2009/04/23 16:33:18.3      93    -43     12    103    104 115.2   6.9  34164  289.65 0854.47
2009/04/23 16:33:18.4      85      0     16     86     88  90.0  10.6  34162  289.62 0854.47
2009/04/23 16:33:18.5      83     -9     64     84    105  96.6  41.2  34218  290.55 0854.47
2009/04/23 16:33:18.6      40    -44     66     60     89 137.7  52.7  34210  290.41 0854.47
2009/04/23 16:33:18.7      18    -47     52     51     72 159.1  49.1  34198  290.21 0854.47
2009/04/23 16:33:18.8      60    -48     44     78     89 128.6  32.4  34168  289.72 0854.47
2009/04/23 16:33:19.0      24    -72     74     77    106 161.3  49.0  34182  289.94 0854.47
2009/04/23 16:33:19.1      68    -87     50    111    121 142.2  25.7  34154  289.48 0854.47
2009/04/23 16:33:19.2      55    -62     72     84    110 138.6  44.8  34156  289.52 0854.47
2009/04/23 16:33:19.3      45    -62     32     77     83 143.9  23.6  34148  289.38 0854.47
2009/04/23 16:33:19.4      24      8    -29     26     38  71.6 -56.6  34146  289.35 0854.47
2009/04/23 16:33:19.5       1     20    -10     21     23   4.4 -29.5  34146  289.33 0854.47
2009/04/23 16:33:19.6     -28    -13      1     31     32 244.8   2.8  34146  289.33 0854.47
2009/04/23 16:33:19.7     -44    -36     31     58     65 230.5  31.3  34146  289.35 0854.47
2009/04/23 16:33:19.8       6    -26     66     27     71 166.6  77.1  34160  289.57 0854.47
2009/04/23 16:33:19.9       3    -30     98     31    102 173.8  81.8  34152  289.45 0854.47
2009/04/23 16:33:20.0     -14     10     88     18     89 306.0  89.0  34158  289.53 0854.47
2009/04/23 16:33:20.1     -71    -39     78     82    113 241.1  49.0  34146  289.33 0854.47
2009/04/23 16:33:20.2    -137    -33     59    142    153 256.3  23.1  34174  289.80 0854.47
2009/04/23 16:33:20.3    -164      0     -6    165    166 270.0  -2.3  34202  290.30 0854.47
2009/04/23 16:33:20.4    -140      7     19    141    143 273.0   8.0  34204  290.33 0854.47
2009/04/23 16:33:20.5     -95    -52      9    109    110 241.1   4.9  34228  290.72 0854.47
2009/04/23 16:33:20.6     -16    -16      8     23     25 225.0  18.9  34196  290.18 0854.47
2009/04/23 16:33:20.7     -47     18    -26     51     57 291.7 -32.6  34184  289.99 0854.48
2009/04/23 16:33:20.8     -72     42     -3     84     85 300.2  -2.2  34176  289.84 0854.48
2009/04/23 16:33:20.9     -93    -18    -23     95     98 259.0 -13.9  34186  290.01 0854.48
2009/04/23 16:33:21.0    -117    -97    -10    153    154 230.4  -3.7  34172  289.77 0854.48
2009/04/23 16:33:21.1     -38    -46     44     61     75 219.6  39.5  34180  289.92 0854.48
2009/04/23 16:33:21.2     -49    -40     30     64     70 230.5  27.2  34196  290.18 0854.48
2009/04/23 16:33:21.3     -37    -58      5     69     70 212.6   4.9  34200  290.25 0854.48
2009/04/23 16:33:21.4       0    -81      5     82     83 179.5   3.8  34194  290.16 0854.48
2009/04/23 16:33:21.5      49    -90     47    103    113 151.5  26.6  34222  290.64 0854.48
2009/04/23 16:33:21.6      42    -38     13     57     59 132.2  13.2  34208  290.40 0854.48
2009/04/23 16:33:21.7      50    -59     30     78     83 139.5  21.5  34200  290.26 0854.48
2009/04/23 16:33:21.8      50    -79     54     94    108 147.4  32.4  34198  290.23 0854.48
2009/04/23 16:33:21.9      83   -156     74    177    191 151.9  23.8  34202  290.28 0854.48
2009/04/23 16:33:22.0      14   -171    -29    172    175 175.1  -9.6  34194  290.16 0854.48
2009/04/23 16:33:22.1     -10   -181     -7    182    183 183.4  -2.2  34200  290.26 0854.48
2009/04/23 16:33:22.2      15   -185      8    186    187 175.3   2.5  34222  290.62 0854.48
2009/04/23 16:33:22.3      25   -136    -21    139    141 169.3  -8.8  34224  290.67 0854.48
2009/04/23 16:33:22.4      52   -123    -15    134    135 156.8  -6.7  34220  290.58 0854.48
2009/04/23 16:33:22.5      97    -62     27    116    120 122.4  13.1  34200  290.26 0854.48
2009/04/23 16:33:22.6     140    -55     49    151    159 111.7  18.1  34178  289.87 0854.48
2009/04/23 16:33:22.7     172    -42     21    178    180 103.9   6.9  34184  289.97 0854.48
2009/04/23 16:33:22.8     115   -108     69    158    172 133.2  25.1  34164  289.65 0854.48
2009/04/23 16:33:22.9     114    -72     47    135    144 122.4  19.4  34168  289.72 0854.48
2009/04/23 16:33:23.0     139    -66     42    154    160 115.4  15.6  34168  289.72 0854.48
2009/04/23 16:33:23.1     137    -27    -23    140    142 101.4  -9.4  34186  290.01 0854.48
2009/04/23 16:33:23.2     152    -40      0    158    159 105.0   0.0  34182  289.94 0854.48
2009/04/23 16:33:23.3     121    -64     -7    138    139 118.0  -3.2  34184  289.97 0854.48
2009/04/23 16:33:23.4     138    -64      7    153    154 114.8   2.9  34162  289.60 0854.48
2009/04/23 16:33:23.5      73    -14     44     75     86 101.4  33.5  34150  289.40 0854.48
2009/04/23 16:33:23.6      79    -11     32     80     86  97.9  22.5  34146  289.35 0854.48
2009/04/23 16:33:23.7     104    -35     13    110    111 108.6   6.9  34138  289.19 0854.48
2009/04/23 16:33:23.8      22   -107     71    110    130 168.0  35.6  34138  289.21 0854.48
2009/04/23 16:33:23.9      96   -134     85    166    186 144.4  29.1  34118  288.87 0854.48
2009/04/23 16:33:24.0     102   -109    108    150    184 136.8  39.5  34142  289.26 0854.48
2009/04/23 16:33:24.1      56   -140    101    151    181 158.2  36.7  34134  289.13 0854.48
2009/04/23 16:33:24.2      37   -166    114    171    205 167.3  36.7  34126  289.01 0854.48
2009/04/23 16:33:24.3       7   -157    125    158    201 177.4  42.4  34130  289.06 0854.48
2009/04/23 16:33:24.4      -8   -167     81    168    186 182.9  27.3  34132  289.11 0854.48
2009/04/23 16:33:24.5       4    -81    132     82    155 176.9  64.7  34148  289.36 0854.48
2009/04/23 16:33:24.6      56   -110    144    124    190 152.8  55.0  34142  289.26 0854.48
2009/04/23 16:33:24.7     -17   -232    181    233    295 184.4  41.7  34148  289.36 0854.50
2009/04/23 16:33:24.8     -23   -217    205    219    299 186.2  48.0  34148  289.36 0854.50
2009/04/23 16:33:24.9     -50   -123    189    134    231 202.3  61.3  34152  289.43 0854.50
2009/04/23 16:33:25.0    -139    -95     98    169    195 235.4  32.9  34150  289.40 0854.50
2009/04/23 16:33:25.1     -58    -58    106     83    134 225.0  58.4  34162  289.62 0854.50
2009/04/23 16:33:25.2     -14     -5     77     16     78 248.3  89.0  34154  289.46 0854.50
2009/04/23 16:33:25.3      44    -23     12     50     52 118.0  14.3  34158  289.53 0854.50
2009/04/23 16:33:25.4      14     -5     74     16     75 111.7  89.0  34158  289.55 0854.50
2009/04/23 16:33:25.5    -100    -72     81    124    148 234.0  35.6  34160  289.57 0854.50
2009/04/23 16:33:25.6    -116     21     88    118    147 280.6  40.7  34158  289.55 0854.50
2009/04/23 16:33:25.7      45      5    120     46    128  83.0  78.2  34188  290.04 0854.50
2009/04/23 16:33:25.8      60    -26     84     66    106 113.5  57.5  34172  289.77 0854.50
2009/04/23 16:33:25.9      57    -18     89     60    107 108.2  63.2  34162  289.60 0854.50
2009/04/23 16:33:26.0     104    -32    115    109    158 107.3  51.4  34162  289.60 0854.50
2009/04/23 16:33:26.1     112     67     92    131    160  58.9  38.6  34164  289.63 0854.50
2009/04/23 16:33:26.2     148     42     40    154    160  74.1  14.7  34162  289.60 0854.50
2009/04/23 16:33:26.3      64     64     63     91    110  45.1  38.0  34170  289.75 0854.50
2009/04/23 16:33:26.4      59    124    141    138    197  25.3  50.7  34180  289.91 0854.50
2009/04/23 16:33:26.5      30     22    119     38    124  54.0  81.2  34184  289.97 0854.50
2009/04/23 16:33:26.6      59     47    137     76    156  51.4  68.5  34178  289.87 0854.50
2009/04/23 16:33:26.7     188    -13     89    189    208  94.1  27.1  34150  289.41 0854.52
2009/04/23 16:33:26.8     244    -63    103    253    273 104.6  23.1  34156  289.49 0854.52
2009/04/23 16:33:26.9     223    -58     99    231    251 104.8  24.6  34156  289.49 0854.52
2009/04/23 16:33:27.0     229    -68     53    240    246 106.6  12.6  34146  289.32 0854.52
2009/04/23 16:33:27.1     163    -98    123    191    227 121.1  35.6  34144  289.31 0854.52
2009/04/23 16:33:27.2     123    -69    130    142    192 119.3  47.7  34156  289.50 0854.52
2009/04/23 16:33:27.3     113    -82     90    140    166 125.9  35.7  34148  289.36 0854.52
2009/04/23 16:33:27.4      86    -70     62    111    127 129.1  31.4  34150  289.40 0854.52
2009/04/23 16:33:27.5      54    -63     59     84    102 139.5  39.1  34152  289.43 0854.52
2009/04/23 16:33:27.6      12     -6     67     14     68 118.9  89.0  34156  289.52 0854.52
2009/04/23 16:33:27.7       7    -35     90     36     96 168.4  77.6  34154  289.46 0854.52
2009/04/23 16:33:27.8     -16    -50     85     53    100 198.7  64.7  34160  289.57 0854.52
2009/04/23 16:33:27.9      56     16     66     59     88  74.1  53.3  34152  289.43 0854.52
2009/04/23 16:33:28.0      31    -27     48     42     63 130.4  53.3  34158  289.53 0854.52
2009/04/23 16:33:28.1      19      8     75     21     77  66.5  83.9  34182  289.94 0854.52
2009/04/23 16:33:28.2      15     31     79     35     86  27.2  75.0  34182  289.96 0854.52
2009/04/23 16:33:28.3     -15    -45     73     48     87 198.5  64.1  34162  289.60 0854.52
2009/04/23 16:33:28.4      -9    -76    112     77    135 187.1  62.6  34166  289.67 0854.52
2009/04/23 16:33:28.5     -53    -74     63     92    111 215.6  37.6  34160  289.57 0854.52
2009/04/23 16:33:28.6      -5    -72     44     73     85 184.5  34.4  34178  289.89 0854.52
2009/04/23 16:33:28.7       5    -64     56     65     85 175.5  45.4  34176  289.84 0854.52
2009/04/23 16:33:28.8      16    -49     77     52     92 161.5  63.2  34180  289.91 0854.52
2009/04/23 16:33:28.9       5    -67     81     68    105 175.5  55.8  34170  289.75 0854.52
2009/04/23 16:33:29.0      -9    -79     92     80    121 187.1  54.3  34170  289.75 0854.52
2009/04/23 16:33:29.1     -47    -55     69     73    100 220.5  48.0  34174  289.82 0854.52
2009/04/23 16:33:29.2     -62    -67     65     92    112 222.8  39.1  34178  289.87 0854.52
2009/04/23 16:33:29.3     -63    -53     -3     83     84 229.6  -2.6  34174  289.82 0854.52
2009/04/23 16:33:29.4     -80    -57     21     99    102 234.5  12.2  34182  289.94 0854.52
2009/04/23 16:33:29.5     -58    -40     20     71     74 234.9  16.3  34180  289.92 0854.52
2009/04/23 16:33:29.6     -26    -36     35     45     57 216.1  42.7  34182  289.96 0854.52
2009/04/23 16:33:29.7     -19     -6     36     20     41 251.8  68.8  34178  289.89 0854.52
2009/04/23 16:33:29.8      25     -7     -1     27     28 106.8  -2.2  34172  289.77 0854.52
2009/04/23 16:33:29.9      57    -26    -21     63     66 114.4 -23.6  34166  289.69 0854.52
2009/04/23 16:33:30.0      48      0    -13     49     51  90.0 -15.4  34174  289.82 0854.52
2009/04/23 16:33:30.1      40     54      3     68     69  37.0   2.9  34186  290.01 0854.52
2009/04/23 16:33:30.2      29     64     -9     71     72  24.5  -7.2  34190  290.08 0854.52
2009/04/23 16:33:30.3     -22     98    -20    101    104 347.1 -11.5  34186  290.01 0854.52
2009/04/23 16:33:30.4     -56    110    -49    124    133 332.9 -26.9  34180  289.92 0854.52
2009/04/23 16:33:30.5     -68     42    -49     81     94 302.0 -39.4  34182  289.94 0854.52
2009/04/23 16:33:30.6    -107     50    -71    119    138 295.3 -37.9  34194  290.16 0854.52
2009/04/23 16:33:30.7     -22     30   -107     38    113 323.9 -85.1  34196  290.18 0854.52
2009/04/23 16:33:30.8      -6     81    -67     82    105 355.6 -48.1  34194  290.14 0854.52
2009/04/23 16:33:30.9      32     11     39     35     52  70.0  53.3  34180  289.91 0854.52
2009/04/23 16:33:31.0      36    -27     34     45     56 126.9  40.7  34174  289.80 0854.52
2009/04/23 16:33:31.1      85     68     72    110    131  51.4  36.0  34186  290.02 0854.52
2009/04/23 16:33:31.2     108      4    -37    109    116  87.9 -19.1  34178  289.89 0854.52
2009/04/23 16:33:31.3      74     52    -11     91     92  54.5  -7.3  34190  290.09 0854.52
2009/04/23 16:33:31.4     183     29     36    186    190  81.0  11.0  34240  290.94 0854.52
2009/04/23 16:33:31.5      17    100    147    102    178   9.8  61.8  34256  291.21 0854.52
2009/04/23 16:33:31.6      90     57    119    107    160  57.6  53.5  34260  291.28 0854.52
2009/04/23 16:33:31.7      29     46     98     55    112  32.5  68.8  34304  292.03 0854.52
2009/04/23 16:33:31.8      26     26     80     37     88  45.1  74.0  34302  291.98 0854.52
2009/04/23 16:33:31.9     -31      9     74     33     81 286.8  74.5  34316  292.22 0854.52
2009/04/23 16:33:32.0     -56     26    101     63    119 295.3  64.7  34280  291.60 0854.52
2009/04/23 16:33:32.1     -42    -13    101     45    110 252.3  74.0  34262  291.32 0854.52
2009/04/23 16:33:32.2     -79    -84    101    116    153 223.3  45.8  34270  291.45 0854.52
2009/04/23 16:33:32.3     -66    -13     58     68     89 258.5  44.8  34270  291.43 0854.52
2009/04/23 16:33:32.4    -235     70     67    246    256 286.6  15.3  34324  292.36 0854.52
2009/04/23 16:33:32.5    -234    114    117    261    286 296.0  25.9  34262  291.31 0854.52
2009/04/23 16:33:32.6    -255    105    104    276    294 292.4  21.7  34248  291.07 0854.52
2009/04/23 16:33:32.7    -264    101    108    283    302 291.1  22.0  34228  290.71 0854.52
2009/04/23 16:33:32.8    -242     97     94    261    278 292.0  19.9  34212  290.46 0854.52
2009/04/23 16:33:32.9    -262    -67     50    271    276 255.6  10.6  34250  291.10 0854.52
2009/04/23 16:33:33.0    -297     65    114    305    325 282.4  21.4  34252  291.14 0854.52
2009/04/23 16:33:33.1    -237   -130     95    271    287 241.2  20.0  34258  291.22 0854.52
2009/04/23 16:33:33.2    -243   -169    122    297    321 235.1  23.6  34284  291.67 0854.52
2009/04/23 16:33:33.3    -200   -218    123    296    320 222.5  23.8  34264  291.34 0854.52
2009/04/23 16:33:33.4    -150   -180     58    235    243 219.7  13.9  34270  291.44 0854.52
2009/04/23 16:33:33.5    -114    -94     50    148    157 230.5  18.9  34274  291.50 0854.52
2009/04/23 16:33:33.6    -120   -153     26    195    197 218.3   7.8  34262  291.32 0854.52
2009/04/23 16:33:33.7    -106   -130     12    169    170 219.2   4.4  34262  291.32 0854.52
2009/04/23 16:33:33.8    -145   -146     91    206    225 224.8  25.3  34276  291.55 0854.52
2009/04/23 16:33:33.9    -186    -98     10    211    212 242.2   2.8  34250  291.09 0854.52
2009/04/23 16:33:34.0     -49    -20    -27     54     60 247.4 -32.6  34246  291.04 0854.52
2009/04/23 16:33:34.1     -73     -7      6     74     75 263.9   4.9  34248  291.08 0854.52
2009/04/23 16:33:34.2    -103     13    -38    104    110 277.5 -25.4  34230  290.77 0854.52
2009/04/23 16:33:34.3     -50    -23    -20     56     60 245.6 -19.7  34218  290.55 0854.52
2009/04/23 16:33:34.4     -13   -123     17    124    126 186.2   8.0  34220  290.60 0854.52
2009/04/23 16:33:34.5       2   -240     29    241    243 179.3   6.9  34230  290.76 0854.52
2009/04/23 16:33:34.6      -2   -186     58    187    196 180.7  17.4  34234  290.84 0854.52
2009/04/23 16:33:34.7     -49   -204    103    210    233 193.6  27.8  34246  291.03 0854.52
2009/04/23 16:33:34.8     -30   -164    107    167    198 190.5  35.6  34254  291.16 0854.52
2009/04/23 16:33:34.9    -235   -145     97    277    293 238.4  20.0  34264  291.34 0854.52
2009/04/23 16:33:35.0    -288    -44     -1    292    293 261.2  -0.3  34240  290.92 0854.52
2009/04/23 16:33:35.1    -350   -104    -22    366    367 253.5  -3.5  34218  290.54 0854.52
2009/04/23 16:33:35.2    -350    -23     95    351    364 266.2  15.1  34252  291.15 0854.52
2009/04/23 16:33:35.3    -483     90    -84    492    500 280.6  -9.7  34202  290.30 0854.52
2009/04/23 16:33:35.4    -521    -89    -94    529    538 260.3 -10.1  34170  289.75 0854.52
2009/04/23 16:33:35.5    -521   -152   -164    543    567 253.7 -21.7  34176  289.85 0854.52
2009/04/23 16:33:35.6    -419   -248   -171    487    516 239.4 -24.5  34156  289.50 0854.52
2009/04/23 16:33:35.7    -332   -275    -38    432    434 230.3  -5.1  34192  290.11 0854.54
2009/04/23 16:33:35.8    -330   -260    -12    421    422 231.8  -1.7  34166  289.66 0854.54
2009/04/23 16:33:35.9    -393   -181     -2    433    434 245.2  -0.4  34224  290.67 0854.54
2009/04/23 16:33:36.0    -410   -232    -18    472    473 240.5  -2.2  34242  290.95 0854.54
2009/04/23 16:33:36.1    -243   -194     87    311    324 231.4  15.7  34224  290.65 0854.54
2009/04/23 16:33:36.2    -261   -123    187    289    344 244.8  35.9  34212  290.46 0854.54
2009/04/23 16:33:36.3    -245    -61    211    253    329 255.8  44.1  34212  290.46 0854.54
2009/04/23 16:33:36.4    -112     65     94    130    160 300.2  39.7  34218  290.57 0854.54
2009/04/23 16:33:36.5    -212    161    110    267    288 307.3  23.6  34200  290.24 0854.54
2009/04/23 16:33:36.6    -146    224    -40    268    272 326.8  -8.6  34204  290.31 0854.54
2009/04/23 16:33:36.7     -69    232    -52    243    249 343.5 -12.2  34224  290.65 0854.54
2009/04/23 16:33:36.8     -41    161    -75    167    183 345.5 -30.1  34224  290.65 0854.54
2009/04/23 16:33:36.9       0    232    -66    233    242   0.2 -20.7  34216  290.53 0854.54
2009/04/23 16:33:37.0      34    108    -13    114    115  17.8  -6.7  34214  290.48 0854.54
2009/04/23 16:33:37.1      61     33      3     70     71  61.1   2.9  34214  290.50 0854.54
2009/04/23 16:33:37.2      82     -1     -1     83     84  90.8  -0.7  34214  290.48 0854.54
2009/04/23 16:33:37.3      82    -52     -2     98     99 122.5  -1.3  34214  290.48 0854.54
2009/04/23 16:33:37.4      70    -65     34     96    101 133.1  20.0  34216  290.53 0854.54
2009/04/23 16:33:37.5     152    -46      0    159    160 106.9   0.2  34216  290.52 0854.54
2009/04/23 16:33:37.6     140    -54     68    151    165 111.3  25.7  34218  290.55 0854.54
2009/04/23 16:33:37.7     139    -79     68    161    174 119.8  24.3  34208  290.38 0854.53
2009/04/23 16:33:37.8     210    -20    214    212    301  95.7  50.1  34180  289.90 0854.53
2009/04/23 16:33:37.9     255   -140    125    292    317 118.8  24.5  34184  289.98 0854.53
2009/04/23 16:33:38.0     107     95     28    144    147  48.2  11.1  34190  290.08 0854.53
2009/04/23 16:33:38.1     128    198   -147    237    278  33.0 -39.2  34186  290.02 0854.53
2009/04/23 16:33:38.2     114    128    -46    172    179  41.7 -15.0  34166  289.67 0854.53
2009/04/23 16:33:38.3      42     55     66     70     96  37.8  49.0  34174  289.82 0854.53
2009/04/23 16:33:38.4       1     80     98     81    127   0.9  56.3  34190  290.09 0854.53
2009/04/23 16:33:38.5      50     88    103    102    144  29.9  50.1  34194  290.16 0854.53
2009/04/23 16:33:38.6     145     95    158    174    235  56.7  46.9  34224  290.65 0854.53
2009/04/23 16:33:38.7     104    116     78    156    174  41.9  28.5  34208  290.38 0854.53
2009/04/23 16:33:38.8     161    167     62    233    242  43.9  15.0  34204  290.32 0854.53
2009/04/23 16:33:38.9      91    136    155    164    225  33.8  48.0  34220  290.60 0854.53
2009/04/23 16:33:39.0     208     98     81    231    244  64.7  20.0  34222  290.61 0854.53
2009/04/23 16:33:39.1     276     21    101    277    294  85.6  21.0  34208  290.39 0854.53
2009/04/23 16:33:39.2     345     69    228    352    419  78.6  35.9  34216  290.52 0854.53
2009/04/23 16:33:39.3     484    179     71    517    522  69.7   7.9  34210  290.43 0854.53
2009/04/23 16:33:39.4     320    191    160    373    405  59.1  24.8  34208  290.40 0854.53
2009/04/23 16:33:39.5     278    290    205    403    452  43.8  29.2  34230  290.77 0854.53
2009/04/23 16:33:39.6     254    348    202    431    475  36.1  27.0  34272  291.46 0854.53
2009/04/23 16:33:39.7     206    342    226    400    459  31.1  32.0  34274  291.52 0854.52
2009/04/23 16:33:39.8     248    483     89    544    552  27.2   9.3  34256  291.21 0854.52
2009/04/23 16:33:39.9     187    490     21    525    526  20.9   2.3  34230  290.75 0854.52
2009/04/23 16:33:40.0      71    364    -28    372    373  11.1  -4.4  34224  290.66 0854.52
2009/04/23 16:33:40.1     102    247    141    268    302  22.5  29.8  34258  291.24 0854.52
2009/04/23 16:33:40.2     132    327    252    353    433  22.1  39.1  34330  292.47 0854.52
2009/04/23 16:33:40.3     115    224    232    252    342  27.2  47.6  34326  292.40 0854.52
2009/04/23 16:33:40.4     264    245    246    361    436  47.2  37.6  34334  292.54 0854.52
2009/04/23 16:33:40.5     251    250    166    355    391  45.1  27.0  34340  292.63 0854.52
2009/04/23 16:33:40.6     310    388    335    497    599  38.6  37.3  34296  291.88 0854.52
2009/04/23 16:33:40.7     357    479    228    598    639  36.7  22.0  34224  290.65 0854.52
2009/04/23 16:33:40.8     367    521    198    638    669  35.2  17.3  34216  290.51 0854.52
2009/04/23 16:33:40.9      70    457    202    463    505   8.8  25.1  34218  290.54 0854.52
2009/04/23 16:33:41.0     -98    563    224    572    614 350.1  22.5  34214  290.49 0854.52
2009/04/23 16:33:41.1     222    435    245    489    546  27.1  28.6  34214  290.48 0854.52
2009/04/23 16:33:41.2     152    451    235    477    531  18.7  28.2  34216  290.52 0854.52
2009/04/23 16:33:41.3     155    447     96    474    484  19.2  11.5  34228  290.71 0854.52
2009/04/23 16:33:41.4     316    293      3    432    433  47.2   0.5  34290  291.77 0854.52
2009/04/23 16:33:41.5     265    236    -25    355    356  48.3  -4.1  34316  292.22 0854.52
2009/04/23 16:33:41.6     196    415    -41    460    462  25.3  -5.2  34166  289.66 0854.52
2009/04/23 16:33:41.7     235    290    -24    374    375  39.1  -3.7  34146  289.33 0854.49
2009/04/23 16:33:41.8     190    469     98    507    517  22.1  11.0  34142  289.28 0854.49
2009/04/23 16:33:41.9     230    486     87    538    546  25.4   9.2  34178  289.89 0854.49
2009/04/23 16:33:42.0     255    456     39    523    525  29.2   4.3  34262  291.31 0854.49
2009/04/23 16:33:42.1     377    525     18    647    648  35.7   1.6  34206  290.35 0854.49
2009/04/23 16:33:42.2     386    284    125    480    497  53.7  14.7  34252  291.12 0854.49
2009/04/23 16:33:42.3     318    264    195    414    457  50.2  27.1  34270  291.43 0854.49
2009/04/23 16:33:42.4     245    252    185    352    397  44.2  30.0  34266  291.37 0854.49
2009/04/23 16:33:42.5     179    454    100    489    500  21.6  11.6  34214  290.49 0854.49
2009/04/23 16:33:42.6     384    256    154    462    488  56.3  18.5  34254  291.17 0854.49
2009/04/23 16:33:42.7     428    317    185    533    565  53.5  19.2  34296  291.88 0854.49
2009/04/23 16:33:42.8     404    308    152    509    532  52.7  16.6  34224  290.67 0854.49
2009/04/23 16:33:42.9     392    364    104    536    547  47.1  11.0  34158  289.55 0854.49
2009/04/23 16:33:43.0     310    291    133    426    447  46.8  17.4  34280  291.60 0854.49
2009/04/23 16:33:43.1     320     98    139    335    362  73.0  23.8  34254  291.18 0854.49
2009/04/23 16:33:43.2     365     97    116    378    396  75.0  17.1  34242  290.96 0854.49
2009/04/23 16:33:43.3     446    197    186    488    522  66.1  22.0  34212  290.45 0854.49
2009/04/23 16:33:43.4     428    223    256    483    546  62.5  30.2  34198  290.21 0854.49
2009/04/23 16:33:43.5     378    326     33    500    502  49.2   3.8  34170  289.73 0854.49
2009/04/23 16:33:43.6     445    254    154    513    536  60.2  16.8  34192  290.13 0854.49
2009/04/23 16:33:43.7     394    279    172    484    514  54.7  19.6  34172  289.78 0854.41
2009/04/23 16:33:43.8     524    326    145    618    635  58.1  13.3  34158  289.53 0854.41
2009/04/23 16:33:43.9     583    297    212    655    689  63.0  17.9  34148  289.38 0854.41
2009/04/23 16:33:44.0     513    204    105    553    563  68.3  10.8  34216  290.52 0854.41
2009/04/23 16:33:44.1     490    228     26    541    542  65.1   2.8  34154  289.46 0854.41
2009/04/23 16:33:44.2     417    246   -102    485    496  59.5 -11.9  34152  289.44 0854.41
2009/04/23 16:33:44.3     364    273   -154    455    481  53.1 -18.7  34194  290.15 0854.41
2009/04/23 16:33:44.4     327    252    -90    414    424  52.4 -12.4  34138  289.21 0854.41
2009/04/23 16:33:44.5     300    194    -70    358    365  57.1 -11.1  34148  289.38 0854.41
2009/04/23 16:33:44.6     244     78     13    257    258  72.3   2.9  34186  290.00 0854.41
2009/04/23 16:33:44.7     360    156    138    393    417  66.5  19.4  34162  289.60 0854.41
2009/04/23 16:33:44.8     306    157     80    344    354  62.8  13.2  34178  289.87 0854.41
2009/04/23 16:33:44.9     280    144     51    316    321  62.7   9.2  34160  289.56 0854.41
2009/04/23 16:33:45.0     287    154     31    326    328  61.8   5.5  34164  289.64 0854.41
2009/04/23 16:33:45.1     146    272    139    309    338  28.3  25.9  34180  289.91 0854.41
2009/04/23 16:33:45.2     313    149    140    347    374  64.5  23.1  34166  289.69 0854.41
2009/04/23 16:33:45.3     239    255     65    350    356  43.1  10.6  34208  290.38 0854.41
2009/04/23 16:33:45.4     170     34     81    174    191  78.5  27.0  34264  291.35 0854.41
2009/04/23 16:33:45.5     -66    222    -12    232    233 343.3  -3.1  34218  290.56 0854.41
2009/04/23 16:33:45.6     -77    253      5    265    266 343.1   1.2  34260  291.26 0854.41
2009/04/23 16:33:45.7      32    255    107    258    279   7.2  23.6  34272  291.46 0854.38
2009/04/23 16:33:45.8     -56    244    135    251    285 346.9  30.3  34258  291.24 0854.38
2009/04/23 16:33:45.9     -65    148     87    162    183 336.3  30.8  34248  291.08 0854.38
2009/04/23 16:33:46.0     -37    124     76    130    150 343.1  33.4  34262  291.32 0854.38
2009/04/23 16:33:46.1     -70    208     57    220    228 341.3  14.5  34258  291.25 0854.38
2009/04/23 16:33:46.2     -53    197     25    205    207 344.9   7.1  34276  291.54 0854.38
2009/04/23 16:33:46.3    -101    213     56    236    243 334.5  13.5  34254  291.16 0854.38
2009/04/23 16:33:46.4     -61    224     84    233    247 344.8  20.7  34322  292.33 0854.38
2009/04/23 16:33:46.5     -12    203     73    204    216 356.6  20.4  34336  292.56 0854.38
2009/04/23 16:33:46.6     -29    142     38    146    151 348.4  14.7  34310  292.13 0854.38
2009/04/23 16:33:46.8    -129     26     81    132    154 281.4  35.5  34286  291.72 0854.38
2009/04/23 16:33:46.9     -43    -87    124     98    158 206.3  57.7  34294  291.86 0854.38
2009/04/23 16:33:47.0     -86   -135    113    161    196 212.6  38.6  34280  291.62 0854.38
2009/04/23 16:33:47.1    -147   -124    178    193    262 229.8  47.9  34288  291.75 0854.38
2009/04/23 16:33:47.2    -169   -155    146    230    272 227.6  35.5  34286  291.72 0854.38
2009/04/23 16:33:47.3    -179   -158    102    239    259 228.6  24.3  34272  291.46 0854.38
2009/04/23 16:33:47.4    -213   -108     83    239    254 243.0  19.2  34314  292.19 0854.38
2009/04/23 16:33:47.5    -161    -10    -34    162    166 266.3 -11.9  34256  291.21 0854.38
2009/04/23 16:33:47.6    -149     67    -73    164    179 294.4 -30.1  34236  290.86 0854.38
2009/04/23 16:33:47.7    -120    120    -75    170    185 315.0 -29.5  34270  291.45 0854.38
2009/04/23 16:33:47.8    -204    172    -80    268    280 310.2 -16.6  34198  290.22 0854.39
2009/04/23 16:33:47.9    -321    145    -23    353    354 294.3  -3.7  34194  290.16 0854.39
2009/04/23 16:33:48.0    -300    148    -22    335    336 296.3  -3.8  34204  290.32 0854.39
2009/04/23 16:33:48.1    -222     52     69    229    240 283.3  16.8  34228  290.71 0854.39
2009/04/23 16:33:48.2    -201     -5     94    202    222 268.5  27.1  34240  290.94 0854.39
2009/04/23 16:33:48.3    -224     33     11    227    228 278.4   2.8  34200  290.26 0854.39
2009/04/23 16:33:48.4    -154     21     -5    156    157 278.0  -2.1  34200  290.26 0854.39
2009/04/23 16:33:48.5    -163      8    -40    164    169 273.0 -13.9  34202  290.30 0854.39
2009/04/23 16:33:48.6    -258    -35     -2    261    262 262.1  -0.5  34236  290.85 0854.39
2009/04/23 16:33:48.7    -268    -54     -5    274    275 258.5  -1.2  34234  290.83 0854.39
2009/04/23 16:33:48.8    -262   -107    -37    284    287 247.8  -7.5  34238  290.90 0854.39
2009/04/23 16:33:48.9    -218   -126    -32    252    255 240.0  -7.3  34228  290.73 0854.39
2009/04/23 16:33:49.0    -159    -76     33    177    181 244.2  10.6  34232  290.79 0854.39
2009/04/23 16:33:49.1    -179    -86     44    199    204 244.2  12.6  34240  290.92 0854.39
2009/04/23 16:33:49.2    -210    -53     11    217    218 255.8   2.9  34252  291.15 0854.39
2009/04/23 16:33:49.3    -202    -66    -24    213    215 251.8  -6.5  34210  290.43 0854.39
2009/04/23 16:33:49.4    -180    -81    -77    198    212 245.8 -26.7  34226  290.70 0854.39
2009/04/23 16:33:49.5    -156    -58    -72    167    181 249.4 -29.0  34208  290.40 0854.39
2009/04/23 16:33:49.6    -197    -39    -33    201    204 258.6  -9.3  34194  290.14 0854.39
2009/04/23 16:33:49.7    -153     20    -10    155    156 277.5  -3.9  34200  290.25 0854.39
2009/04/23 16:33:49.8    -147    -18     15    149    150 263.0   5.9  34204  290.31 0854.38
2009/04/23 16:33:49.9    -162      2     47    163    170 270.9  16.3  34204  290.33 0854.38
2009/04/23 16:33:50.0    -196     -7     29    197    200 267.9   8.5  34196  290.19 0854.38
2009/04/23 16:33:50.1    -219     26     60    221    230 277.0  15.3  34210  290.43 0854.38
2009/04/23 16:33:50.2    -248     99     57    268    275 291.8  12.2  34270  291.44 0854.38
2009/04/23 16:33:50.3    -241    147    125    283    309 301.5  25.3  34318  292.24 0854.38
2009/04/23 16:33:50.4    -249    106    102    271    289 293.1  21.3  34306  292.04 0854.38
2009/04/23 16:33:50.5    -238     51      0    244    245 282.2   0.2  34276  291.55 0854.38
2009/04/23 16:33:50.6    -177    -18    -21    179    181 263.9  -6.7  34274  291.50 0854.38
2009/04/23 16:33:50.7    -164    -26      9    167    168 260.8   3.3  34248  291.08 0854.38
2009/04/23 16:33:50.8    -264     57    -19    271    272 282.3  -4.1  34264  291.33 0854.38
2009/04/23 16:33:50.9    -198     37    -18    202    203 280.6  -5.2  34278  291.59 0854.38
2009/04/23 16:33:51.0     -68    -61      4     92     93 228.2   2.8  34278  291.59 0854.38
2009/04/23 16:33:51.1    -119   -208     93    240    257 209.9  22.3  34270  291.44 0854.38
2009/04/23 16:33:51.2    -142   -259     89    296    310 208.9  16.7  34270  291.43 0854.38
2009/04/23 16:33:51.3    -214   -218    100    306    323 224.5  18.1  34274  291.50 0854.38
2009/04/23 16:33:51.4    -263   -239    100    356    370 227.8  15.8  34252  291.13 0854.38
2009/04/23 16:33:51.5    -261   -244    117    358    377 226.9  18.1  34246  291.03 0854.38
2009/04/23 16:33:51.6    -239   -238    106    338    355 225.1  17.4  34252  291.15 0854.38
2009/04/23 16:33:51.7    -145   -289    112    324    343 206.6  19.1  34250  291.10 0854.38
2009/04/23 16:33:51.8    -110   -251    106    275    294 203.6  22.1  34238  290.88 0854.37
2009/04/23 16:33:51.9    -121   -421    273    439    516 196.1  35.0  34248  291.07 0854.37
2009/04/23 16:33:52.0       3   -380    266    381    464 179.4  38.4  34236  290.87 0854.37
2009/04/23 16:33:52.1    -184   -333     97    381    394 209.0  14.4  34246  291.03 0854.37
2009/04/23 16:33:52.2    -243   -457    185    518    550 208.0  20.4  34256  291.20 0854.37
2009/04/23 16:33:52.3    -208   -430     24    478    479 205.9   2.9  34242  290.96 0854.37
2009/04/23 16:33:52.4    -342   -472     14    584    585 216.0   1.4  34268  291.41 0854.37
2009/04/23 16:33:52.5    -440   -459    -17    636    637 223.8  -1.6  34242  290.96 0854.37
2009/04/23 16:33:52.6    -527   -597     16    797    798 221.4   1.2  34258  291.24 0854.37
2009/04/23 16:33:52.7    -420   -653     99    777    784 212.8   7.3  34252  291.14 0854.37
2009/04/23 16:33:52.8    -305   -577     77    653    658 207.9   6.8  34222  290.61 0854.37
2009/04/23 16:33:52.9    -513   -338    -71    615    620 236.6  -6.6  34214  290.50 0854.37
2009/04/23 16:33:53.0    -513   -283    -44    586    588 241.1  -4.4  34188  290.05 0854.37
2009/04/23 16:33:53.1    -420   -121   -104    438    451 253.9 -13.4  34192  290.12 0854.37
2009/04/23 16:33:53.2    -593   -135   -201    609    641 257.1 -23.5  34172  289.76 0854.37
2009/04/23 16:33:53.3    -565   -407   -119    697    708 234.2  -9.7  34192  290.13 0854.37
2009/04/23 16:33:53.4    -662   -448   -170    800    818 235.9 -12.0  34210  290.42 0854.37
2009/04/23 16:33:53.5    -473   -406   -104    624    633 229.4  -9.5  34206  290.35 0854.37
2009/04/23 16:33:53.6    -422   -401    -74    583    588 226.4  -7.3  34196  290.19 0854.37
2009/04/23 16:33:53.7    -438   -353    132    563    579 231.1  13.2  34186  290.00 0854.37
2009/04/23 16:33:53.8    -464   -444     92    643    650 226.3   8.2  34224  290.65 0854.37
2009/04/23 16:33:53.9    -206   -539    246    578    628 200.9  24.5  34202  290.29 0854.37
2009/04/23 16:33:54.0    -276   -498    253    570    623 209.0  25.6  34206  290.34 0854.37
2009/04/23 16:33:54.1    -320   -508    203    601    635 212.2  18.7  34200  290.25 0854.37
2009/04/23 16:33:54.2    -254   -381    304    459    550 213.7  36.5  34202  290.30 0854.37
2009/04/23 16:33:54.3    -290   -375    280    475    551 217.8  33.3  34200  290.26 0854.37
2009/04/23 16:33:54.4    -433   -294    186    524    556 235.8  20.4  34222  290.62 0854.37
2009/04/23 16:33:54.5    -316   -315    232    447    503 225.1  29.6  34208  290.37 0854.37
2009/04/23 16:33:54.6    -271   -225    178    353    395 230.2  28.9  34202  290.27 0854.37
2009/04/23 16:33:54.7    -263   -178    132    318    344 235.9  23.9  34208  290.38 0854.37
2009/04/23 16:33:54.8    -187   -213     88    284    298 221.2  17.3  34198  290.20 0854.37
2009/04/23 16:33:54.9    -150     22     85    152    174 278.4  31.9  34198  290.23 0854.37
2009/04/23 16:33:55.0    -182     72     83    196    212 291.7  24.3  34196  290.19 0854.37
2009/04/23 16:33:55.1    -101     73     74    126    146 306.0  33.5  34198  290.23 0854.37
2009/04/23 16:33:55.2      -9     64    168     65    180 351.9  78.2  34224  290.65 0854.37
2009/04/23 16:33:55.3     -43   -180    244    186    306 193.6  58.7  34228  290.73 0854.37
2009/04/23 16:33:55.4     121    168    245    208    321  35.8  55.4  34198  290.22 0854.37
2009/04/23 16:33:55.5     496    220    242    543    594  66.1  25.6  34206  290.34 0854.37
2009/04/23 16:33:55.6     591    328    428    677    800  61.0  35.3  34230  290.75 0854.37
2009/04/23 16:33:55.7     586    355    312    686    753  58.8  26.2  34162  289.62 0854.37
2009/04/23 16:33:55.8     884    612    304   1076   1119  55.3  15.8  34200  290.26 0854.37
2009/04/23 16:33:55.9     925    479    362   1042   1104  62.6  19.2  34200  290.25 0854.37
2009/04/23 16:33:56.0    1123    648    306   1297   1333  60.0  13.3  34194  290.14 0854.37
2009/04/23 16:33:56.1     987    757    415   1245   1313  52.5  18.5  34172  289.76 0854.37
2009/04/23 16:33:56.2    1077    448    337   1167   1215  67.4  16.1  34172  289.76 0854.37
2009/04/23 16:33:56.3     471    689   -298    835    886  34.4 -24.8  34120  288.89 0854.37
2009/04/23 16:33:56.4     560    582   -172    808    827  43.9 -12.0  34130  289.06 0854.37
2009/04/23 16:33:56.5     679    373      6    775    776  61.2   0.5  34134  289.12 0854.37
2009/04/23 16:33:56.6     748    378    -27    839    840  63.2  -1.9  34120  288.88 0854.37
2009/04/23 16:33:56.7    1070    292    -17   1110   1111  74.7  -0.9  34114  288.80 0854.37
2009/04/23 16:33:56.8     910    283   -238    953    983  72.7 -14.1  34126  289.01 0854.36
2009/04/23 16:33:56.9     904    232    -36    934    935  75.6  -2.2  34124  288.96 0854.36
2009/04/23 16:33:57.0     824     -8    200    825    849  90.6  13.7  34116  288.83 0854.36
2009/04/23 16:33:57.1     694    152    133    711    724  77.6  10.6  34104  288.61 0854.36
2009/04/23 16:33:57.2     598     92    206    606    641  81.2  18.8  34122  288.93 0854.36
2009/04/23 16:33:57.3     611     -3    277    612    671  90.4  25.9  34194  290.16 0854.36
2009/04/23 16:33:57.4     604     53    292    607    673  84.9  27.4  34146  289.33 0854.36
2009/04/23 16:33:57.5     505    137    153    524    546  74.8  16.3  34148  289.38 0854.36
2009/04/23 16:33:57.6     420    105     68    433    439  75.9   9.0  34136  289.17 0854.36
2009/04/23 16:33:57.7     196    182    298    268    400  47.1  53.5  34150  289.40 0854.36
2009/04/23 16:33:57.8     277    157    345    319    469  60.5  52.7  34158  289.53 0854.36
2009/04/23 16:33:57.9     149    115    240    189    305  52.2  57.7  34218  290.54 0854.36
2009/04/23 16:33:58.0      81     76    274    112    296  46.9  76.8  34250  291.10 0854.36
2009/04/23 16:33:58.1       0    -84    204     85    221 180.4  76.6  34172  289.77 0854.36
2009/04/23 16:33:58.2     203   -131    230    242    333 122.9  48.5  34166  289.68 0854.36
2009/04/23 16:33:58.3     235    -84    265    250    364 109.7  52.0  34172  289.76 0854.36
2009/04/23 16:33:58.4     181   -205    201    274    339 138.5  39.8  34172  289.78 0854.36
2009/04/23 16:33:58.5     111   -219    212    246    324 153.0  45.2  34174  289.80 0854.36
2009/04/23 16:33:58.6      34     -6    164     35    167 101.5  88.8  34182  289.94 0854.36
2009/04/23 16:33:58.7     -20     77    174     80    191 344.9  73.5  34212  290.47 0854.36
2009/04/23 16:33:58.8      56     32    158     65    170  60.2  76.6  34192  290.13 0854.36
2009/04/23 16:33:58.9      85   -117    181    145    231 143.9  56.9  34184  289.99 0854.36
2009/04/23 16:33:59.0      92    -94    139    132    191 135.5  51.6  34186  290.01 0854.36
2009/04/23 16:33:59.1      71    -33    147     79    166 115.4  69.8  34198  290.23 0854.36
2009/04/23 16:33:59.2      32    -97    185    103    211 161.5  68.5  34206  290.35 0854.36
2009/04/23 16:33:59.3      11   -122    192    123    228 174.7  64.6  34202  290.28 0854.36
2009/04/23 16:33:59.4      11   -143    204    144    249 175.6  61.5  34198  290.21 0854.36
2009/04/23 16:33:59.5     -50   -187    193    194    273 195.1  50.0  34192  290.10 0854.36
2009/04/23 16:33:59.6     -22   -193    197    195    277 186.7  50.2  34206  290.36 0854.36
2009/04/23 16:33:59.7      92   -263    233    279    363 160.6  44.1  34238  290.89 0854.36
2009/04/23 16:33:59.8     -16   -259    261    260    368 183.6  50.1  34238  290.89 0854.36
2009/04/23 16:33:59.9      -2   -142    153    143    209 181.0  52.1  34224  290.67 0854.36
2009/04/23 16:34:00.0     -99   -357    -61    371    377 195.6  -9.4  34218  290.55 0854.36
2009/04/23 16:34:00.1    -103   -173     19    202    203 210.7   5.4  34210  290.43 0854.36
2009/04/23 16:34:00.2     -32   -170    156    174    233 190.7  46.9  34212  290.45 0854.36
2009/04/23 16:34:00.3     205   -256     71    329    337 141.3  12.3  34198  290.23 0854.36
2009/04/23 16:34:00.4     151   -337     24    370    371 155.8   3.7  34208  290.38 0854.36
2009/04/23 16:34:00.5     267   -169    -63    317    324 122.4 -11.2  34216  290.51 0854.36
2009/04/23 16:34:00.6     137   -199    -35    242    245 145.5  -8.3  34198  290.20 0854.36
2009/04/23 16:34:00.7     145    -92   -112    172    205 122.5 -40.4  34218  290.55 0854.36
2009/04/23 16:34:00.8     134   -143   -117    197    229 136.8 -37.9  34210  290.43 0854.37
2009/04/23 16:34:00.9     305   -181   -130    355    378 120.7 -25.4  34206  290.35 0854.37
2009/04/23 16:34:01.0     202   -168   -130    263    293 129.8 -32.6  34166  289.66 0854.37
2009/04/23 16:34:01.1     155   -118    -14    195    196 127.3  -4.1  34190  290.09 0854.37
2009/04/23 16:34:01.2      31    -59    -88     67    110 151.9 -63.4  34152  289.43 0854.37
2009/04/23 16:34:01.3      32    -86    -90     92    128 159.5 -54.4  34142  289.26 0854.37
2009/04/23 16:34:01.4     -48    -16    -57     51     76 251.4 -56.6  34156  289.52 0854.37
2009/04/23 16:34:01.5     -20     -6    -71     21     74 253.2 -86.2  34170  289.74 0854.37
2009/04/23 16:34:01.6      62    -63    -41     89     97 135.3 -31.0  34174  289.80 0854.37
2009/04/23 16:34:01.7     136    -75     -6    156    157 118.9  -2.2  34162  289.62 0854.37
2009/04/23 16:34:01.8     143    -68     90    159    182 115.4  32.1  34164  289.63 0854.37
2009/04/23 16:34:01.9     110   -104     44    152    159 133.6  16.3  34158  289.55 0854.37
2009/04/23 16:34:02.0     135   -104     81    171    189 127.5  27.2  34156  289.50 0854.37
2009/04/23 16:34:02.1      89    -84     -3    123    124 133.1  -1.8  34164  289.65 0854.37
2009/04/23 16:34:02.2     -22   -246     10    248    249 185.3   2.3  34168  289.70 0854.37
2009/04/23 16:34:02.3       3   -230     -5    231    232 179.1  -1.3  34174  289.82 0854.37
2009/04/23 16:34:02.4     -92   -211     11    231    232 203.6   2.9  34182  289.94 0854.37
2009/04/23 16:34:02.5      13   -121    -15    122    123 173.7  -7.3  34172  289.79 0854.37
2009/04/23 16:34:02.6    -189   -127    -48    229    235 236.0 -11.9  34176  289.84 0854.37
2009/04/23 16:34:02.7    -266   -198   -106    332    349 233.4 -17.7  34170  289.74 0854.37
2009/04/23 16:34:02.8    -283    -99    -43    300    304 250.7  -8.3  34172  289.78 0854.38
2009/04/23 16:34:02.9    -365    -80      7    374    375 257.5   1.1  34178  289.89 0854.38
2009/04/23 16:34:03.0     -91   -182    -56    204    212 206.7 -15.4  34166  289.69 0854.38
2009/04/23 16:34:03.1    -213   -367     34    425    427 210.2   4.6  34178  289.87 0854.38
2009/04/23 16:34:03.2    -216   -357    103    418    431 211.1  13.9  34190  290.07 0854.38
2009/04/23 16:34:03.3    -199   -337     94    392    404 210.6  13.5  34192  290.10 0854.38
2009/04/23 16:34:03.4    -245   -329     61    411    416 216.6   8.5  34212  290.46 0854.38
2009/04/23 16:34:03.5    -360   -338     26    495    496 226.8   3.0  34198  290.23 0854.38
2009/04/23 16:34:03.6    -326   -363     73    488    494 221.9   8.6  34186  290.00 0854.38
2009/04/23 16:34:03.7    -227   -251     59    339    345 222.1   9.9  34166  289.69 0854.38
2009/04/23 16:34:03.8    -279   -184    124    335    357 236.5  21.1  34186  290.01 0854.38
2009/04/23 16:34:03.9     -56   -276     66    282    290 191.6  13.2  34166  289.66 0854.38
2009/04/23 16:34:04.0      66    -53    173     85    192 128.6  72.1  34164  289.65 0854.38
2009/04/23 16:34:04.1      42   -250    106    254    275 170.3  24.1  34158  289.54 0854.38
2009/04/23 16:34:04.2       3   -222     77    223    237 179.1  19.2  34160  289.57 0854.38
2009/04/23 16:34:04.3      31   -154    184    158    242 168.5  54.8  34174  289.82 0854.38
2009/04/23 16:34:04.4    -318   -218    -74    386    394 235.5 -10.9  34182  289.93 0854.38
2009/04/23 16:34:04.5    -336   -255   -160    422    451 232.8 -26.4  34156  289.51 0854.38
2009/04/23 16:34:04.6    -294   -281     16    408    409 226.3   2.3  34162  289.61 0854.38
2009/04/23 16:34:04.7    -218   -227     82    315    326 223.8  14.7  34160  289.58 0854.38
2009/04/23 16:34:04.8     -42   -119    -48    127    135 199.6 -25.4  34170  289.74 0854.39
2009/04/23 16:34:04.9      57   -115     25    129    132 153.7  11.0  34172  289.79 0854.39
2009/04/23 16:34:05.0     -60   -189    138    199    242 197.6  38.0  34154  289.46 0854.39
2009/04/23 16:34:05.1    -128   -190    -34    230    233 214.1  -8.6  34168  289.72 0854.39
2009/04/23 16:34:05.2      47   -331    112    335    354 171.9  18.5  34154  289.48 0854.39
2009/04/23 16:34:05.3      28   -200    -52    203    210 172.0 -14.5  34166  289.69 0854.39
2009/04/23 16:34:05.4      63   -113     50    130    139 150.6  22.0  34158  289.55 0854.39
2009/04/23 16:34:05.5      98    -95     68    137    152 134.0  27.8  34134  289.13 0854.39
2009/04/23 16:34:05.6     171     -5     42    172    178  91.9  13.7  34138  289.19 0854.39
2009/04/23 16:34:05.7     263    -23    -30    265    267  95.2  -6.5  34146  289.34 0854.39
2009/04/23 16:34:05.8     182     13    -56    183    191  85.7 -22.1  34150  289.40 0854.39
2009/04/23 16:34:05.9     128    -21    -16    130    132  99.7  -7.3  34144  289.31 0854.39
2009/04/23 16:34:06.0      40    -97     21    106    109 157.3  11.1  34126  289.01 0854.39
2009/04/23 16:34:06.1      69   -118    -65    137    151 149.7 -31.6  34136  289.18 0854.39
2009/04/23 16:34:06.2     106   -106     82    151    171 134.9  30.8  34118  288.86 0854.39
2009/04/23 16:34:06.3     160   -171    142    235    274 136.8  34.0  34100  288.54 0854.39
2009/04/23 16:34:06.4     108   -142    117    179    213 142.8  36.0  34108  288.69 0854.39
2009/04/23 16:34:06.6     110   -130    105    171    200 139.7  34.4  34110  288.72 0854.39
2009/04/23 16:34:06.6     196    -54     72    204    217 105.5  19.6  34106  288.67 0854.39
2009/04/23 16:34:06.7     272     63     54    280    286  77.0  11.0  34128  289.02 0854.39
2009/04/23 16:34:06.8      36   -199    189    203    277 169.8  47.9  34112  288.75 0854.40
2009/04/23 16:34:06.9       4   -312    195    313    368 179.1  35.2  34120  288.88 0854.40
2009/04/23 16:34:07.0     -12   -536    248    537    591 181.4  26.5  34110  288.71 0854.40
2009/04/23 16:34:07.1      67   -389    197    395    441 170.1  28.5  34110  288.73 0854.40
2009/04/23 16:34:07.2    -178   -280    292    333    442 212.5  45.8  34112  288.75 0854.40
2009/04/23 16:34:07.3    -382   -331    -29    506    507 229.1  -3.3  34144  289.30 0854.40
2009/04/23 16:34:07.4    -147   -465     81    488    495 197.6   9.5  34140  289.23 0854.40
2009/04/23 16:34:07.5      -2   -446      6    447    448 180.3   0.9  34120  288.90 0854.40
2009/04/23 16:34:07.6     125   -317    109    341    359 158.4  17.8  34112  288.77 0854.40
2009/04/23 16:34:07.7     315   -143    132    347    371 114.4  21.8  34122  288.93 0854.40
2009/04/23 16:34:07.8     270   -167    115    318    338 121.8  20.7  34126  288.99 0854.40
2009/04/23 16:34:07.9     366   -122    106    386    401 108.5  15.4  34128  289.04 0854.40
2009/04/23 16:34:08.0     367   -365    180    518    549 134.8  19.2  34124  288.97 0854.40
2009/04/23 16:34:08.1     253   -443    241    511    564 150.2  27.1  34104  288.62 0854.40
2009/04/23 16:34:08.2     567   -439      8    718    719 127.8   0.7  34130  289.05 0854.40
2009/04/23 16:34:08.3     385   -391     22    550    551 135.5   2.3  34120  288.89 0854.40
2009/04/23 16:34:08.4      56   -204    136    212    251 164.6  35.6  34126  289.00 0854.40
2009/04/23 16:34:08.5    -110   -304    185    324    373 200.0  32.1  34118  288.86 0854.40
2009/04/23 16:34:08.6     -52   -418    115    422    438 187.1  15.3  34124  288.97 0854.40
2009/04/23 16:34:08.7    -121   -311      6    334    335 201.3   1.1  34130  289.06 0854.40
2009/04/23 16:34:08.8    -130   -346    -60    370    376 200.6  -9.3  34136  289.15 0854.41
2009/04/23 16:34:08.9       0   -348    -69    349    356 180.1 -11.3  34136  289.15 0854.41
2009/04/23 16:34:09.0      80   -312    -38    323    326 165.6  -6.9  34136  289.17 0854.41
2009/04/23 16:34:09.1     322   -341    -24    470    471 136.7  -3.0  34134  289.13 0854.41
2009/04/23 16:34:09.2     215   -300     41    370    373 144.4   6.4  34140  289.23 0854.41
2009/04/23 16:34:09.3     157   -246     80    293    304 147.4  15.3  34142  289.27 0854.41
2009/04/23 16:34:09.4      85   -291    -41    304    307 163.7  -7.7  34148  289.36 0854.41
2009/04/23 16:34:09.5     295   -306    -41    426    429 136.1  -5.6  34140  289.22 0854.41
2009/04/23 16:34:09.6     327   -241      5    407    408 126.4   0.8  34142  289.26 0854.41
2009/04/23 16:34:09.7     321   -438     46    544    547 143.7   4.9  34138  289.19 0854.41
2009/04/23 16:34:09.8     293   -308     37    426    428 136.5   5.1  34130  289.05 0854.41
2009/04/23 16:34:09.9     233   -359    151    429    454 147.0  20.2  34126  289.00 0854.41
2009/04/23 16:34:10.0     341   -492    245    599    647 145.3  23.5  34104  288.62 0854.41
2009/04/23 16:34:10.1     -22   -599    199    600    633 182.1  18.4  34110  288.72 0854.41
2009/04/23 16:34:10.2     110   -622    339    632    717 169.9  30.5  34110  288.72 0854.41
2009/04/23 16:34:10.3     105   -287     72    306    315 159.9  13.2  34112  288.75 0854.41
2009/04/23 16:34:10.4      65   -556     65    560    564 173.3   6.7  34112  288.75 0854.41
2009/04/23 16:34:10.5    -119   -469   -148    485    508 194.3 -17.0  34120  288.90 0854.41
2009/04/23 16:34:10.6      31   -298    -35    300    303 174.0  -6.7  34108  288.70 0854.41
2009/04/23 16:34:10.7    -165   -250    126    300    325 213.4  24.2  34140  289.22 0854.41
2009/04/23 16:34:10.8    -212   -344     48    405    408 211.6   6.9  34140  289.22 0854.42
2009/04/23 16:34:10.9    -151   -455     57    480    484 198.4   6.9  34108  288.69 0854.42
2009/04/23 16:34:11.0    -264   -674     41    725    727 201.4   3.3  34106  288.67 0854.42
2009/04/23 16:34:11.1      37   -604   -100    606    615 176.5  -9.4  34100  288.56 0854.42
2009/04/23 16:34:11.2    -439   -398   -176    593    619 227.8 -16.5  34110  288.71 0854.42
2009/04/23 16:34:11.3    -197   -594   -168    626    649 198.4 -15.0  34100  288.54 0854.42
2009/04/23 16:34:11.4    -277   -473    114    549    561 210.4  11.8  34106  288.65 0854.42
2009/04/23 16:34:11.5    -282   -201    156    347    380 234.5  25.9  34120  288.91 0854.42
2009/04/23 16:34:11.6    -238   -253     78    348    357 223.3  12.8  34120  288.91 0854.42
2009/04/23 16:34:11.7    -275    -38   -170    278    325 262.1 -38.8  34120  288.90 0854.42
2009/04/23 16:34:11.8    -232   -250   -122    342    364 222.8 -19.7  34116  288.84 0854.42
2009/04/23 16:34:11.9    -273   -253      2    373    374 227.2   0.4  34118  288.86 0854.42
2009/04/23 16:34:12.0    -258   -227    -15    344    345 228.7  -2.6  34112  288.76 0854.42
2009/04/23 16:34:12.1    -196   -203    -40    283    286 224.1  -8.2  34120  288.90 0854.42
2009/04/23 16:34:12.2    -205   -198     98    286    303 226.0  18.9  34120  288.88 0854.42
2009/04/23 16:34:12.3    -227   -248    -74    337    346 222.4 -12.5  34114  288.79 0854.42
2009/04/23 16:34:12.4     -98     25   -192    102    217 284.6 -74.0  34114  288.79 0854.42
2009/04/23 16:34:12.5    -439    -98    158    450    476 257.3  20.1  34120  288.90 0854.42
2009/04/23 16:34:12.6    -501    -78     15    508    509 261.1   1.8  34130  289.06 0854.42
2009/04/23 16:34:12.7    -669    -64   -197    673    701 264.5 -21.1  34110  288.73 0854.42
2009/04/23 16:34:12.8    -618   -251   -224    668    704 247.9 -23.7  34106  288.65 0854.40
2009/04/23 16:34:12.9    -250   -238    -66    346    353 226.5 -10.8  34112  288.76 0854.40
2009/04/23 16:34:13.0    -286    -16      3    287    288 266.7   0.7  34122  288.92 0854.40
2009/04/23 16:34:13.1    -206   -220    -38    302    305 223.0  -7.3  34114  288.78 0854.40
2009/04/23 16:34:13.2    -422    -83   -229    431    488 258.9 -34.7  34110  288.73 0854.40
2009/04/23 16:34:13.3    -325    -47   -219    329    395 261.6 -41.3  34106  288.66 0854.40
2009/04/23 16:34:13.4    -381   -231   -209    446    492 238.8 -31.4  34110  288.73 0854.40
2009/04/23 16:34:13.5     -88   -416     38    426    428 192.0   5.2  34116  288.82 0854.40
2009/04/23 16:34:13.6     113   -282     16    305    306 158.1   3.1  34112  288.76 0854.40
2009/04/23 16:34:13.7     -94   -441    -92    452    462 192.1 -11.6  34108  288.70 0854.40
2009/04/23 16:34:13.8     -34   -271   -154    274    314 187.3 -36.1  34108  288.68 0854.40
2009/04/23 16:34:13.9    -139   -122   -153    186    240 228.7 -48.1  34118  288.87 0854.40
2009/04/23 16:34:14.0    -215    -81   -214    230    314 249.2 -52.2  34112  288.75 0854.40
2009/04/23 16:34:14.1    -242   -379   -195    451    491 212.6 -29.3  34110  288.74 0854.40
2009/04/23 16:34:14.2    -112   -284   -219    306    376 201.6 -43.6  34102  288.59 0854.40
2009/04/23 16:34:14.3     200   -331   -107    387    401 148.8 -20.1  34102  288.60 0854.40
2009/04/23 16:34:14.4     198   -336    -21    390    391 149.5  -3.2  34114  288.79 0854.40
2009/04/23 16:34:14.6      42   -294     35    298    301 171.9   6.9  34112  288.75 0854.40
2009/04/23 16:34:14.7     -29   -223     22    225    227 187.6   5.7  34116  288.84 0854.40
2009/04/23 16:34:14.8     -33   -265    -35    268    271 187.1  -7.5  34120  288.90 0854.40
2009/04/23 16:34:14.9      -8   -256   -116    257    281 181.8 -30.3  34118  288.87 0854.39
2009/04/23 16:34:15.0     151   -559     18    580    581 164.9   1.8  34114  288.80 0854.39
2009/04/23 16:34:15.1     200   -726     88    754    760 164.6   6.7  34110  288.72 0854.39
2009/04/23 16:34:15.2     416   -527    305    672    737 141.7  26.2  34106  288.67 0854.39
2009/04/23 16:34:15.3     478   -422    106    638    647 131.4   9.4  34116  288.84 0854.39
2009/04/23 16:34:15.4     489   -309    124    579    593 122.3  12.2  34114  288.80 0854.39
2009/04/23 16:34:15.5     511   -287    164    587    610 119.3  15.7  34104  288.64 0854.39
2009/04/23 16:34:15.6     380   -312    158    492    517 129.4  17.8  34108  288.68 0854.39
2009/04/23 16:34:15.7     354   -283    118    454    470 128.6  14.6  34106  288.67 0854.39
2009/04/23 16:34:15.8     347   -303     92    461    471 131.1  11.3  34110  288.73 0854.39
2009/04/23 16:34:15.9     266   -237     70    357    364 131.7  11.1  34118  288.86 0854.39
2009/04/23 16:34:16.0     296   -325     80    440    448 137.7  10.3  34118  288.87 0854.39
2009/04/23 16:34:16.1     335   -275     38    434    436 129.3   5.1  34122  288.92 0854.39
2009/04/23 16:34:16.2     334   -390    139    514    533 139.4  15.2  34116  288.82 0854.39
2009/04/23 16:34:16.3     278   -467    181    544    574 149.3  18.5  34116  288.84 0854.39
2009/04/23 16:34:16.4     286   -491    206    569    606 149.8  19.9  34118  288.85 0854.39
2009/04/23 16:34:16.5     175   -472    217    504    548 159.6  24.8  34124  288.97 0854.39
2009/04/23 16:34:16.6     162   -451    234    480    534 160.2  27.9  34124  288.96 0854.39
2009/04/23 16:34:16.7      64   -195    297    206    361 161.7  62.2  34152  289.44 0854.39
2009/04/23 16:34:16.8     232   -329    300    403    502 144.8  40.2  34130  289.08 0854.39
2009/04/23 16:34:16.9      17   -567    200    568    602 178.2  20.1  34130  289.05 0854.39
2009/04/23 16:34:17.0      86   -512    185    520    553 170.4  19.6  34136  289.16 0854.39
2009/04/23 16:34:17.1     106   -393    307    408    510 164.9  40.7  34140  289.23 0854.39
2009/04/23 16:34:17.2      12   -655    241    656    698 178.9  21.0  34144  289.29 0854.39
2009/04/23 16:34:17.3      56   -591    266    594    650 174.6  25.8  34130  289.06 0854.39
2009/04/23 16:34:17.4     -39   -576    236    578    624 183.9  23.5  34138  289.19 0854.39
2009/04/23 16:34:17.5      11   -518    122    519    534 178.7  13.2  34150  289.40 0854.39
2009/04/23 16:34:17.6     -19   -519     91    520    529 182.1  10.0  34150  289.40 0854.39
2009/04/23 16:34:17.7     -67   -417    163    423    453 189.1  22.2  34134  289.12 0854.39
2009/04/23 16:34:17.8      38   -305    307    308    434 172.9  50.0  34148  289.38 0854.39
2009/04/23 16:34:17.9      -3   -283    275    284    395 180.7  49.1  34144  289.30 0854.39
2009/04/23 16:34:18.0    -194   -395    292    441    528 206.2  36.6  34142  289.25 0854.39
2009/04/23 16:34:18.1     -72   -548    170    553    579 187.6  17.1  34128  289.03 0854.39
2009/04/23 16:34:18.2     -48   -625     79    628    634 184.5   7.2  34120  288.91 0854.39
2009/04/23 16:34:18.3      76   -538    176    544    572 171.9  17.9  34122  288.92 0854.39
2009/04/23 16:34:18.4     -27   -503    204    504    543 183.1  23.1  34128  289.04 0854.39
2009/04/23 16:34:18.5    -109   -580    184    591    619 190.7  17.3  34128  289.03 0854.39
2009/04/23 16:34:18.6    -124   -631    151    644    662 191.1  13.2  34136  289.18 0854.39
2009/04/23 16:34:18.7     -67   -558    147    563    582 186.9  14.7  34132  289.10 0854.39
2009/04/23 16:34:18.8      48   -634     38    636    638 175.7   3.5  34120  288.91 0854.39
2009/04/23 16:34:18.9      -9   -632    180    633    659 180.9  15.9  34124  288.96 0854.38
2009/04/23 16:34:19.0     -75   -537    126    543    558 188.0  13.1  34128  289.02 0854.38
2009/04/23 16:34:19.1    -115   -522     66    535    540 192.5   7.1  34122  288.92 0854.38
2009/04/23 16:34:19.2     -70   -641    150    645    663 186.3  13.1  34126  289.00 0854.38
2009/04/23 16:34:19.3    -183   -648     70    674    678 195.8   6.0  34142  289.27 0854.38
2009/04/23 16:34:19.4    -297   -539    -45    616    618 208.9  -4.2  34138  289.21 0854.38
2009/04/23 16:34:19.5    -255   -616     75    667    672 202.5   6.5  34124  288.95 0854.38
2009/04/23 16:34:19.6    -100   -605      3    614    615 189.4   0.3  34130  289.05 0854.38
2009/04/23 16:34:19.7    -167   -505    193    532    565 198.3  20.9  34126  289.01 0854.38
2009/04/23 16:34:19.8    -246   -379    267    452    524 213.0  33.4  34130  289.06 0854.38
2009/04/23 16:34:19.9    -166   -368    156    404    433 204.3  22.2  34128  289.02 0854.36
2009/04/23 16:34:20.0    -135   -399    149    422    448 198.7  19.5  34124  288.97 0854.36
2009/04/23 16:34:20.1    -247   -235     88    342    354 226.5  14.5  34126  288.98 0854.36
2009/04/23 16:34:20.2    -323   -155    100    359    373 244.3  15.6  34150  289.40 0854.36
2009/04/23 16:34:20.3    -233   -224     53    324    329 226.1   9.4  34130  289.05 0854.36
2009/04/23 16:34:20.4    -296   -328    150    442    468 222.1  18.8  34136  289.17 0854.36
2009/04/23 16:34:20.5    -225   -233    121    325    346 224.0  21.4  34142  289.25 0854.36
2009/04/23 16:34:20.6    -170   -267    -21    317    318 212.6  -3.8  34124  288.97 0854.36
2009/04/23 16:34:20.7    -107   -318    -19    336    337 198.6  -3.3  34126  289.01 0854.36
2009/04/23 16:34:20.8     -43   -351    -58    354    359 187.1  -9.4  34116  288.82 0854.36
2009/04/23 16:34:20.9     -22   -355    -45    356    359 183.6  -7.3  34110  288.72 0854.36
2009/04/23 16:34:21.0      25   -399    -22    400    401 176.4  -3.2  34112  288.77 0854.36
2009/04/23 16:34:21.1     -48   -460     71    463    469 186.1   8.8  34114  288.79 0854.36
2009/04/23 16:34:21.2     112   -376     16    393    394 163.4   2.4  34114  288.79 0854.36
2009/04/23 16:34:21.3       2   -345    -38    346    349 179.5  -6.3  34118  288.86 0854.36
2009/04/23 16:34:21.4      43   -306     90    310    323 172.0  16.3  34122  288.92 0854.36
2009/04/23 16:34:21.5     133   -277    131    308    334 154.4  24.5  34116  288.81 0854.36
2009/04/23 16:34:21.6     218   -442    182    493    525 153.7  21.0  34116  288.81 0854.36
2009/04/23 16:34:21.7     134   -375     93    399    410 160.3  13.1  34112  288.75 0854.36
2009/04/23 16:34:21.8     272   -173     74    323    332 122.5  12.9  34110  288.74 0854.36
2009/04/23 16:34:21.9     188    -72     78    202    216 111.1  22.5  34110  288.72 0854.36
2009/04/23 16:34:22.0      62   -186    150    197    247 161.5  41.2  34114  288.79 0854.36
2009/04/23 16:34:22.1     100   -138    140    171    221 143.9  43.7  34120  288.91 0854.36
2009/04/23 16:34:22.2      39   -110    116    117    164 160.4  50.2  34124  288.96 0854.36
2009/04/23 16:34:22.3      17    -36    116     40    122 154.6  80.7  34130  289.06 0854.36
2009/04/23 16:34:22.4       7    -34    147     35    151 168.4  86.9  34136  289.18 0854.36
2009/04/23 16:34:22.5     212    -74    216    225    311 109.3  49.0  34114  288.80 0854.36
2009/04/23 16:34:22.6     100    -52    200    113    229 117.5  68.5  34114  288.79 0854.36
2009/04/23 16:34:22.7       4    -64    199     65    209 176.4  81.0  34116  288.82 0854.36
2009/04/23 16:34:22.8      60    -77    187     98    211 142.2  70.6  34120  288.89 0854.36
2009/04/23 16:34:22.9      32    -87    218     93    237 159.5  75.9  34130  289.06 0854.36
2009/04/23 16:34:23.0      47   -218    271    224    351 167.7  56.4  34150  289.41 0854.36
2009/04/23 16:34:23.1     -14   -281    379    282    472 182.9  59.8  34122  288.92 0854.36
2009/04/23 16:34:23.2    -111   -265    328    288    436 202.8  54.3  34142  289.26 0854.36
2009/04/23 16:34:23.3    -223   -387    178    447    481 210.0  23.0  34138  289.20 0854.36
2009/04/23 16:34:23.4     240    -68    276    250    372 105.9  53.2  34156  289.52 0854.36
2009/04/23 16:34:23.5     173   -134    236    219    321 127.8  52.3  34160  289.58 0854.36
2009/04/23 16:34:23.6     -60   -243    258    251    359 194.0  50.8  34178  289.88 0854.36
2009/04/23 16:34:23.7    -121   -172    203    211    292 215.0  49.0  34186  290.00 0854.36
2009/04/23 16:34:23.8    -255   -162    171    303    347 237.6  31.9  34164  289.64 0854.36
2009/04/23 16:34:23.9    -121    -82    135    147    199 235.9  47.5  34174  289.82 0854.37
2009/04/23 16:34:24.0     -61   -165    190    176    258 200.3  52.2  34162  289.61 0854.37
2009/04/23 16:34:24.1     -64   -211    214    221    307 196.9  49.0  34142  289.25 0854.37
2009/04/23 16:34:24.2       3   -136    232    137    269 178.6  66.8  34148  289.36 0854.37
2009/04/23 16:34:24.3     -59   -246    296    254    390 193.6  55.0  34146  289.32 0854.37
2009/04/23 16:34:24.4    -136   -162    217    212    303 219.9  50.4  34144  289.29 0854.37
2009/04/23 16:34:24.5    -148   -148    236    210    315 225.1  53.7  34144  289.31 0854.37
2009/04/23 16:34:24.6     -86   -118    115    147    186 216.0  42.4  34140  289.24 0854.37
2009/04/23 16:34:24.7     -29   -100    244    105    265 196.0  75.3  34148  289.38 0854.37
2009/04/23 16:34:24.8     -24    -33    176     42    180 216.1  86.7  34170  289.75 0854.37
2009/04/23 16:34:24.9     -97    -40    136    106    172 247.4  57.9  34162  289.60 0854.37
2009/04/23 16:34:25.0     -98    -65    150    118    190 236.3  57.7  34160  289.58 0854.37
2009/04/23 16:34:25.1    -146    121    103    190    216 309.6  30.8  34176  289.84 0854.37
2009/04/23 16:34:25.2    -179    -40    117    184    218 257.4  35.5  34154  289.46 0854.37
2009/04/23 16:34:25.3    -236    107    122    260    287 294.4  27.1  34156  289.51 0854.37
2009/04/23 16:34:25.4     -64    204     97    215    235 342.4  26.2  34152  289.43 0854.37
2009/04/23 16:34:25.5     -81    180     79    198    213 335.7  22.8  34156  289.52 0854.37
2009/04/23 16:34:25.6     -76    207    135    221    258 339.7  34.4  34172  289.76 0854.37
2009/04/23 16:34:25.7      49    230    136    236    272  12.0  32.7  34164  289.63 0854.37
2009/04/23 16:34:25.8     -27    261     61    263    271 354.0  13.1  34180  289.92 0854.37
2009/04/23 16:34:25.9      27    242    115    244    269   6.5  27.1  34178  289.86 0854.37
2009/04/23 16:34:26.0     -23    227    120    229    258 354.0  30.1  34168  289.70 0854.37
2009/04/23 16:34:26.1     193    123    113    230    256  57.5  28.0  34138  289.19 0854.37
2009/04/23 16:34:26.2     217    106    148    242    283  63.8  34.4  34148  289.36 0854.37
2009/04/23 16:34:26.3     134    108     61    173    184  51.1  19.6  34158  289.53 0854.37
2009/04/23 16:34:26.4     167     47    171    174    243  74.1  49.9  34160  289.58 0854.37
2009/04/23 16:34:26.5     121     37    156    127    201  72.7  56.6  34160  289.57 0854.37
2009/04/23 16:34:26.6      80    131     94    154    180  31.6  34.4  34170  289.74 0854.37
2009/04/23 16:34:26.7      40    113     47    121    129  19.6  22.0  34168  289.70 0854.37
2009/04/23 16:34:26.8       3    125    102    126    162   1.4  43.3  34172  289.77 0854.37
2009/04/23 16:34:26.9     -25    125     63    128    142 348.4  27.8  34178  289.87 0854.37
2009/04/23 16:34:27.0      -7     91     44     92    101 355.5  27.2  34194  290.14 0854.37
2009/04/23 16:34:27.1     -86    104     82    136    158 320.4  34.0  34182  289.94 0854.37
2009/04/23 16:34:27.2     -84    139     16    163    164 328.6   5.9  34172  289.79 0854.37
2009/04/23 16:34:27.3    -119    123    -22    172    174 315.9  -7.3  34176  289.84 0854.37
2009/04/23 16:34:27.4     -97     97     28    138    141 314.8  11.6  34180  289.92 0854.37
2009/04/23 16:34:27.5     -18     49     12     53     55 339.1  13.2  34176  289.84 0854.37
2009/04/23 16:34:27.6     -43    -76     51     88    101 209.4  32.4  34174  289.80 0854.37
2009/04/23 16:34:27.7     -33    -55     56     65     85 210.7  45.4  34166  289.69 0854.37
2009/04/23 16:34:27.8      71   -129    113    148    186 151.0  41.4  34146  289.35 0854.37
2009/04/23 16:34:27.9     149    -92     38    176    181 121.8  12.4  34152  289.43 0854.37
2009/04/23 16:34:28.0     278   -200    100    343    358 125.7  16.3  34114  288.79 0854.37
2009/04/23 16:34:28.1     285   -313    149    424    449 137.7  20.1  34092  288.43 0854.37
2009/04/23 16:34:28.2     287   -236    180    372    413 129.4  27.7  34090  288.37 0854.37
2009/04/23 16:34:28.3     268   -153    207    309    371 119.8  37.2  34104  288.62 0854.37
2009/04/23 16:34:28.4     184   -184    134    261    293 135.1  29.3  34100  288.54 0854.37
2009/04/23 16:34:28.5     143   -223    111    266    288 147.3  24.1  34108  288.68 0854.37
2009/04/23 16:34:28.6     130   -233    103    267    286 150.8  22.1  34112  288.76 0854.37
2009/04/23 16:34:28.7      92   -223    132    242    275 157.5  31.3  34110  288.71 0854.37
2009/04/23 16:34:28.8      20   -236    149    237    279 175.1  35.5  34124  288.95 0854.37
2009/04/23 16:34:28.9     -29   -245     86    247    262 186.9  19.2  34132  289.09 0854.37
2009/04/23 16:34:29.0      14   -203     35    204    208 176.0   9.9  34124  288.97 0854.37
2009/04/23 16:34:29.1      97   -172      8    198    199 150.6   2.5  34120  288.89 0854.37
2009/04/23 16:34:29.2      65   -162     -9    175    176 157.9  -3.1  34124  288.96 0854.37
2009/04/23 16:34:29.3      14   -189      0    190    191 175.5   0.2  34126  289.01 0854.37
2009/04/23 16:34:29.4      51   -158     69    167    180 162.0  23.6  34128  289.02 0854.37
2009/04/23 16:34:29.5       1   -112     94    113    146 179.1  43.8  34128  289.02 0854.37
2009/04/23 16:34:29.6     -38   -113     46    120    128 198.7  22.0  34130  289.06 0854.37
2009/04/23 16:34:29.7     -89    -81     42    121    129 227.8  19.2  34128  289.04 0854.37
2009/04/23 16:34:29.8    -277    -40     21    280    281 261.6   4.4  34148  289.37 0854.37
2009/04/23 16:34:29.9    -197    -11      0    198    199 266.7   0.0  34154  289.46 0854.36
2009/04/23 16:34:30.0    -187     -4      4    188    189 268.7   1.2  34154  289.48 0854.36
2009/04/23 16:34:30.1    -174     60     -7    185    186 289.1  -2.2  34152  289.45 0854.36
2009/04/23 16:34:30.2    -197     43     17    202    203 282.4   5.0  34154  289.48 0854.36
2009/04/23 16:34:30.3    -167    -30     94    170    194 259.6  31.4  34162  289.62 0854.36
2009/04/23 16:34:30.4     -88   -101     98    135    166 221.0  39.9  34162  289.62 0854.36
2009/04/23 16:34:30.5     -68    -63     58     93    109 227.3  35.5  34162  289.62 0854.36
2009/04/23 16:34:30.6      -7    -65     -8     66     67 186.2  -7.2  34164  289.63 0854.36
2009/04/23 16:34:30.7     -12    -27     27     30     40 205.4  46.9  34162  289.60 0854.36
2009/04/23 16:34:30.8     -10    -49     71     51     87 191.6  61.1  34162  289.60 0854.36
2009/04/23 16:34:30.9      75    -24      8     79     80 108.2   5.9  34142  289.26 0854.36
2009/04/23 16:34:31.0      76     11    -41     77     87  81.2 -34.7  34148  289.36 0854.36
2009/04/23 16:34:31.1      46    -15    -43     49     65 108.4 -51.3  34158  289.53 0854.36
2009/04/23 16:34:31.2      62     -3    -34     63     71  93.5 -35.7  34158  289.53 0854.36
2009/04/23 16:34:31.3      57     27    -65     64     91  64.7 -54.5  34162  289.60 0854.36
2009/04/23 16:34:31.4      50     14    -51     52     72  74.1 -55.5  34152  289.43 0854.36
2009/04/23 16:34:31.5      42     29    -63     52     81  54.9 -60.8  34146  289.35 0854.36
2009/04/23 16:34:31.6      20     -3    -46     21     50  99.7 -77.5  34152  289.43 0854.36
2009/04/23 16:34:31.7      30    -35    -16     47     49 139.5 -23.6  34146  289.33 0854.36
2009/04/23 16:34:31.8      43    -36     62     57     84 129.5  52.2  34130  289.08 0854.36
2009/04/23 16:34:31.9      39    -32     -2     51     52 129.5  -2.2  34130  289.06 0854.35
2009/04/23 16:34:32.0      19     23    -19     30     35  39.6 -39.9  34126  289.01 0854.35
2009/04/23 16:34:32.1      14     27     36     31     47  27.2  54.3  34132  289.11 0854.35
2009/04/23 16:34:32.2      63    -45    107     78    132 125.9  60.5  34136  289.16 0854.35
2009/04/23 16:34:32.3      52   -376    237    380    447 172.0  35.1  34144  289.31 0854.35
2009/04/23 16:34:32.4      30   -251    249    253    354 173.1  49.8  34176  289.83 0854.35
2009/04/23 16:34:32.5      59   -179    198    189    273 161.5  51.2  34158  289.54 0854.35
2009/04/23 16:34:32.6       8     43    160     44    165  11.6  84.4  34192  290.13 0854.35
2009/04/23 16:34:32.7     213     43    183    218    284  78.5  44.1  34222  290.61 0854.35
2009/04/23 16:34:32.8     170      0    106    171    201  90.0  34.8  34214  290.50 0854.35
2009/04/23 16:34:32.9     182     15    114    183    215  85.2  35.2  34220  290.60 0854.35
2009/04/23 16:34:33.0     149     63     -6    163    164  66.9  -2.3  34198  290.21 0854.35
2009/04/23 16:34:33.1      -4     63     22     64     68 356.4  18.9  34190  290.09 0854.35
2009/04/23 16:34:33.2       0     90     28     91     96 359.5  17.3  34182  289.96 0854.35
2009/04/23 16:34:33.3      -7     55    -10     56     57 352.0 -10.3  34178  289.87 0854.35
2009/04/23 16:34:33.4       2     36      0     37     38   4.5  -1.3  34174  289.80 0854.35
2009/04/23 16:34:33.5      56     33    -36     66     75  59.3 -35.8  34188  290.06 0854.35
2009/04/23 16:34:33.6      55    104    -32    118    123  28.1 -15.5  34172  289.77 0854.35
2009/04/23 16:34:33.7    -105     45     94    115    148 293.5  43.7  34174  289.80 0854.35
2009/04/23 16:34:33.8     -80    122    107    147    181 326.6  39.7  34192  290.11 0854.35
2009/04/23 16:34:33.9      24     72     95     77    122  18.7  56.4  34210  290.41 0854.34
2009/04/23 16:34:34.0      81     26     66     86    108  71.8  41.7  34198  290.21 0854.34
2009/04/23 16:34:34.1     -37      0     92     38     99 270.0  77.0  34210  290.41 0854.34
2009/04/23 16:34:34.2     -16    -49    153     52    161 198.3  81.0  34200  290.26 0854.34
2009/04/23 16:34:34.3      92    -23    143     95    171 104.2  63.4  34180  289.92 0854.34
2009/04/23 16:34:34.4       4      0    132      5    132 101.5  90.0  34180  289.92 0854.34
2009/04/23 16:34:34.5      87     -8    153     88    176  95.7  67.7  34166  289.69 0854.34
2009/04/23 16:34:34.6      37    -14    113     40    119 111.7  80.2  34174  289.82 0854.34
2009/04/23 16:34:34.7      42     33    124     54    135  51.4  75.0  34178  289.89 0854.34
2009/04/23 16:34:34.8      65     -8    129     66    144  97.0  70.8  34180  289.92 0854.34
2009/04/23 16:34:34.9      58     45    123     74    143  52.2  66.2  34190  290.09 0854.34
2009/04/23 16:34:35.0      -4    -93    147     94    174 182.7  64.6  34190  290.09 0854.34
2009/04/23 16:34:35.1     -36    -75    149     84    171 205.9  68.3  34180  289.92 0854.34
2009/04/23 16:34:35.2     -84   -101    156    132    204 219.7  55.6  34170  289.75 0854.34
2009/04/23 16:34:35.3    -153    -23    155    155    219 261.2  50.1  34182  289.94 0854.34
2009/04/23 16:34:35.4    -177     -3     49    178    185 268.7  15.6  34180  289.92 0854.34
2009/04/23 16:34:35.5    -108     -2    113    109    157 268.7  51.2  34184  289.97 0854.34
2009/04/23 16:34:35.6    -106      8    102    107    147 274.4  48.5  34184  289.97 0854.34
2009/04/23 16:34:35.7    -137     75    140    157    210 298.8  46.2  34174  289.80 0854.34
2009/04/23 16:34:35.8    -157     32    128    161    205 281.5  42.7  34182  289.96 0854.34
2009/04/23 16:34:35.9    -125    137    125    186    224 317.5  37.0  34166  289.69 0854.32
2009/04/23 16:34:36.0    -204     73     79    217    230 289.7  20.7  34182  289.94 0854.32
2009/04/23 16:34:36.1    -206     10     13    207    208 273.0   3.8  34186  290.02 0854.32
2009/04/23 16:34:36.2    -124     67     36    142    147 298.4  14.3  34182  289.96 0854.32
2009/04/23 16:34:36.3    -100    107    125    147    192 316.8  44.8  34198  290.23 0854.32
2009/04/23 16:34:36.4     -29    143    131    147    196 348.4  46.4  34210  290.41 0854.32
2009/04/23 16:34:36.5     -29    222     81    224    238 352.4  20.7  34210  290.42 0854.32
2009/04/23 16:34:36.6      88    174     78    196    210  27.0  23.0  34202  290.30 0854.32
2009/04/23 16:34:36.7     131    224    117    260    285  30.3  25.9  34218  290.56 0854.32
2009/04/23 16:34:36.8     134    330    102    357    372  22.1  16.0  34238  290.91 0854.32
2009/04/23 16:34:36.9     168    191    145    255    293  41.4  32.3  34216  290.51 0854.32
2009/04/23 16:34:37.0     269    283    137    391    415  43.5  19.4  34218  290.55 0854.32
2009/04/23 16:34:37.1     333    297     96    447    458  48.2  12.2  34248  291.07 0854.32
2009/04/23 16:34:37.2     290    322    164    434    463  42.1  21.7  34280  291.62 0854.32
2009/04/23 16:34:37.3     282    325    144    431    455  40.9  18.5  34286  291.72 0854.32
2009/04/23 16:34:37.4     181    325    221    373    433  29.2  33.5  34280  291.62 0854.32
2009/04/23 16:34:37.5     322    269    222    420    475  50.1  30.2  34256  291.21 0854.32
2009/04/23 16:34:37.6     336    264    156    428    455  51.9  20.9  34236  290.85 0854.32
2009/04/23 16:34:37.7     280    158    180    322    368  60.5  31.7  34318  292.27 0854.32
2009/04/23 16:34:37.8      80    282    219    294    366  15.8  40.4  34316  292.22 0854.32
2009/04/23 16:34:37.9      66    223    140    233    271  16.7  34.2  34304  292.02 0854.31
2009/04/23 16:34:38.0      51    317    113    322    341   9.1  20.0  34302  291.97 0854.31
2009/04/23 16:34:38.1     -11    334    123    335    356 358.0  21.0  34318  292.25 0854.31
2009/04/23 16:34:38.2      52    278    103    283    301  10.6  20.9  34310  292.13 0854.31
2009/04/23 16:34:38.3     136    166     14    215    216  39.4   3.8  34304  292.03 0854.31
2009/04/23 16:34:38.4     219     79     32    233    236  70.1   8.0  34284  291.67 0854.31
2009/04/23 16:34:38.5     109     64     53    127    137  59.3  23.6  34286  291.71 0854.31
2009/04/23 16:34:38.6     116    103     50    156    164  48.2  17.9  34268  291.40 0854.31
2009/04/23 16:34:38.7      84    171    -26    191    193  26.3  -8.0  34268  291.42 0854.31
2009/04/23 16:34:38.8     175    223    -56    284    290  38.1 -11.3  34306  292.04 0854.31
2009/04/23 16:34:38.9     282    174    -80    332    342  58.3 -13.6  34288  291.76 0854.31
2009/04/23 16:34:39.0     279    231    -55    363    368  50.3  -8.7  34288  291.73 0854.31
2009/04/23 16:34:39.1     364    213      6    422    423  59.6   0.8  34332  292.50 0854.31
2009/04/23 16:34:39.2     322    186     89    372    383  60.0  13.6  34228  290.74 0854.31
2009/04/23 16:34:39.3     308    271      6    411    412  48.7   0.9  34202  290.29 0854.31
2009/04/23 16:34:39.4     267    267     35    379    381  45.0   5.3  34230  290.77 0854.31
2009/04/23 16:34:39.5     196    272    138    336    363  35.8  23.6  34264  291.35 0854.31
2009/04/23 16:34:39.6     288    153     66    327    334  62.0  11.5  34218  290.54 0854.31
2009/04/23 16:34:39.7     191    130     11    232    233  55.8   2.9  34210  290.41 0854.31
2009/04/23 16:34:39.8     197    125   -129    234    267  57.5 -35.8  34218  290.56 0854.31
2009/04/23 16:34:39.9     262    139     12    297    298  62.0   2.3  34244  290.99 0854.29
2009/04/23 16:34:40.0     337    149    -21    369    370  66.0  -3.3  34274  291.52 0854.29
2009/04/23 16:34:40.1     197    156    -35    252    255  51.6  -8.0  34284  291.67 0854.29
2009/04/23 16:34:40.2     258    217    -13    338    339  50.0  -2.2  34312  292.17 0854.29
2009/04/23 16:34:40.4     346    157    135    381    404  65.6  20.3  34288  291.76 0854.29
2009/04/23 16:34:40.4     151    152    -62    215    223  44.9 -21.0  34288  291.74 0854.29
2009/04/23 16:34:40.5       6    124    -69    125    142   3.1 -35.8  34302  292.00 0854.29
2009/04/23 16:34:40.6     -85     96    -46    129    138 318.6 -19.7  34314  292.18 0854.29
2009/04/23 16:34:40.7     -79     29    -50     85     98 290.4 -37.3  34316  292.22 0854.29
2009/04/23 16:34:40.8       0    -76   -105     77    130 180.0 -64.9  34276  291.54 0854.29
2009/04/23 16:34:41.0      17   -118     -7    120    121 171.5  -3.7  34212  290.47 0854.28
2009/04/23 16:34:41.1     -21    -25     85     33     91 219.6  78.2  34234  290.82 0854.28
2009/04/23 16:34:41.2      11    -26    153     29    155 156.4  89.1  34252  291.15 0854.28
2009/04/23 16:34:41.3      -2    166    258    167    307 359.0  64.6  34278  291.58 0854.28
2009/04/23 16:34:41.4    -116     31    289    121    313 285.1  76.1  34268  291.41 0854.28
2009/04/23 16:34:41.5     -37     20    261     43    264 298.0  90.0  34252  291.15 0854.28
2009/04/23 16:34:41.6      -9   -195    319    196    374 182.7  65.7  34298  291.90 0854.28
2009/04/23 16:34:41.7    -159   -218    314    270    414 216.1  55.0  34296  291.88 0854.28
2009/04/23 16:34:41.8    -341   -174    256    383    460 242.9  37.0  34314  292.18 0854.28
2009/04/23 16:34:41.9    -248   -295    191    386    430 220.0  28.2  34256  291.21 0854.28
2009/04/23 16:34:42.0    -332   -189    275    383    471 240.3  39.2  34264  291.33 0854.28
2009/04/23 16:34:42.1    -247   -167    225    299    374 235.9  40.7  34244  291.01 0854.28
2009/04/23 16:34:42.2     -42    -28    165     51    172 235.8  82.0  34266  291.37 0854.28
2009/04/23 16:34:42.3      20   -156    277    158    318 172.4  67.9  34232  290.78 0854.28
2009/04/23 16:34:42.4     -95     95    195    135    237 315.0  62.1  34224  290.67 0854.28
2009/04/23 16:34:42.5     -57    -19    131     61    144 251.4  73.1  34224  290.65 0854.28
2009/04/23 16:34:42.6     272    103    222    291    366  69.2  41.3  34202  290.27 0854.28
2009/04/23 16:34:42.7     163    158    224    228    319  46.0  49.8  34212  290.44 0854.28
2009/04/23 16:34:42.8     116     39    176    123    214  71.4  62.1  34214  290.48 0854.28
2009/04/23 16:34:42.9      32   -111    277    116    300 163.5  76.1  34204  290.31 0854.28
2009/04/23 16:34:43.0      22     39    210     46    214  29.9  88.2  34226  290.70 0854.27
2009/04/23 16:34:43.1       0     28    195     29    197 359.1  90.0  34264  291.33 0854.27
2009/04/23 16:34:43.2     -56   -136    229    148    272 202.3  64.6  34274  291.50 0854.27
2009/04/23 16:34:43.3     -33   -115    253    120    280 196.0  72.9  34262  291.31 0854.27
2009/04/23 16:34:43.4    -153   -185    242    241    341 219.7  49.9  34270  291.43 0854.27
2009/04/23 16:34:43.5     -28   -124    140    128    189 192.9  52.7  34248  291.06 0854.27
2009/04/23 16:34:43.6     -52   -208    161    215    268 194.0  40.7  34210  290.42 0854.27
2009/04/23 16:34:43.7     -41   -279    194    283    343 188.5  37.8  34202  290.27 0854.27
2009/04/23 16:34:43.8     141    -44    116    148    188 107.3  42.2  34182  289.96 0854.27
2009/04/23 16:34:43.9     230   -138    188    269    328 120.9  38.4  34178  289.86 0854.27
2009/04/23 16:34:44.0     203    -52    248    210    324 104.4  55.6  34184  289.98 0854.27
2009/04/23 16:34:44.1     171     -5    175    172    245  91.7  50.4  34194  290.16 0854.27
2009/04/23 16:34:44.2     173    -19     95    175    199  96.4  31.0  34204  290.31 0854.27
2009/04/23 16:34:44.3     165    -43     53    171    180 104.8  17.3  34216  290.52 0854.27
2009/04/23 16:34:44.4     136   -164    -10    214    215 140.4  -2.8  34214  290.50 0854.27
2009/04/23 16:34:44.5      -6   -104    150    105    183 183.6  61.8  34224  290.67 0854.27
2009/04/23 16:34:44.6    -190   -108     36    219    223 240.2   9.5  34206  290.35 0854.27
2009/04/23 16:34:44.7    -164   -173     -9    239    240 223.4  -2.2  34226  290.68 0854.27
2009/04/23 16:34:44.8    -186   -219    102    288    305 220.3  20.2  34250  291.09 0854.27
2009/04/23 16:34:44.9     -76   -300    144    310    341 194.3  27.0  34248  291.05 0854.27
2009/04/23 16:34:45.0    -178   -195    101    265    283 222.4  21.7  34234  290.82 0854.27
2009/04/23 16:34:45.1    -229   -136     74    267    278 239.3  15.6  34226  290.70 0854.27
2009/04/23 16:34:45.2    -283   -105    105    302    320 249.6  19.2  34232  290.80 0854.27
2009/04/23 16:34:45.3    -282     11    127    283    310 272.4  25.9  34236  290.87 0854.27
2009/04/23 16:34:45.4    -248     20     48    249    254 274.8  11.0  34234  290.82 0854.27
2009/04/23 16:34:45.5    -250     -3     44    251    255 269.2  10.1  34236  290.85 0854.27
2009/04/23 16:34:45.6    -266      8     57    267    274 271.9  12.2  34238  290.90 0854.27
2009/04/23 16:34:45.7    -202    -21     38    204    208 263.9  10.6  34250  291.09 0854.27
2009/04/23 16:34:45.8    -206     28    122    208    241 277.9  33.4  34250  291.11 0854.27
2009/04/23 16:34:45.9    -197     47     -7    203    204 283.5  -2.1  34226  290.70 0854.27
2009/04/23 16:34:46.0    -158    -55    171    168    239 250.7  50.4  34240  290.94 0854.27
2009/04/23 16:34:46.1    -102   -132    163    168    234 217.8  49.4  34246  291.03 0854.27
2009/04/23 16:34:46.2      35    -55    103     66    122 147.5  64.6  34248  291.08 0854.27
2009/04/23 16:34:46.3      38    -38     62     55     82 135.0  53.7  34244  291.01 0854.27
2009/04/23 16:34:46.4      70    -13     37     72     80 100.6  29.3  34236  290.86 0854.27
2009/04/23 16:34:46.5     -25     -1     49     26     55 265.6  69.8  34230  290.75 0854.27
2009/04/23 16:34:46.6      -9     59     38     60     71 351.1  35.5  34232  290.81 0854.27
2009/04/23 16:34:46.7     -14    -27     24     31     39 207.2  43.7  34220  290.58 0854.27
2009/04/23 16:34:46.8      18    -19     -1     27     28 136.6  -2.2  34212  290.45 0854.27
2009/04/23 16:34:46.9      34     11    -23     36     42  71.4 -39.9  34212  290.45 0854.27
2009/04/23 16:34:47.0      44     14      2     47     48  71.8   2.9  34210  290.43 0854.27
2009/04/23 16:34:47.1      34    -21      5     41     42 122.4   6.9  34208  290.40 0854.27
2009/04/23 16:34:47.2       3    -97     28     98    103 177.8  16.3  34200  290.26 0854.27
2009/04/23 16:34:47.3      14   -157    104    158    189 174.7  36.3  34200  290.26 0854.27
2009/04/23 16:34:47.4     -52   -178    132    186    228 196.3  39.1  34202  290.28 0854.27
2009/04/23 16:34:47.5     -64   -174     81    186    202 200.3  25.1  34194  290.14 0854.27
2009/04/23 16:34:47.6     -33   -216    124    219    251 188.7  32.3  34200  290.24 0854.27
2009/04/23 16:34:47.7    -166   -204     85    264    278 219.2  17.9  34232  290.78 0854.27
2009/04/23 16:34:47.8    -143   -143    -66    203    214 225.1 -18.1  34220  290.60 0854.27
2009/04/23 16:34:47.9    -135    -53    -24    146    148 248.3  -9.4  34216  290.52 0854.27
2009/04/23 16:34:48.0    -310   -140    120    341    361 245.6  20.1  34194  290.15 0854.27
2009/04/23 16:34:48.1    -167   -149    109    224    249 228.2  27.8  34196  290.19 0854.27
2009/04/23 16:34:48.2    -130   -203     88    242    257 212.6  21.0  34192  290.12 0854.27
2009/04/23 16:34:48.3    -114    -96     52    150    158 230.0  20.0  34202  290.30 0854.27
2009/04/23 16:34:48.4      61   -227    153    236    281 164.9  35.7  34156  289.51 0854.27
2009/04/23 16:34:48.5       7   -173    240    174    296 177.5  60.5  34156  289.51 0854.27
2009/04/23 16:34:48.6     302   -116    122    324    346 111.1  21.7  34176  289.84 0854.27
2009/04/23 16:34:48.7     203   -153     66    255    264 127.1  14.7  34184  289.97 0854.27
2009/04/23 16:34:48.8     210   -179    110    277    298 130.4  23.0  34166  289.66 0854.27
2009/04/23 16:34:48.9     217    -86     64    234    243 111.8  15.3  34170  289.75 0854.27
2009/04/23 16:34:49.0     288   -186     17    344    345 122.9   2.9  34152  289.42 0854.29
2009/04/23 16:34:49.1     333   -173     47    376    379 117.4   7.2  34148  289.38 0854.29
2009/04/23 16:34:49.2     270   -180     78    325    335 123.7  13.6  34152  289.42 0854.29
2009/04/23 16:34:49.3     248    -56    100    255    273 102.8  22.3  34162  289.61 0854.29
2009/04/23 16:34:49.4     176     16     16    177    178  84.8   5.2  34172  289.77 0854.29
2009/04/23 16:34:49.5     153     45     46    160    167  73.6  16.0  34172  289.77 0854.29
2009/04/23 16:34:49.6     106    201    -56    228    235  27.9 -13.9  34180  289.91 0854.29
2009/04/23 16:34:49.7     102     94     35    139    144  47.3  14.3  34172  289.77 0854.29
2009/04/23 16:34:49.8      44     44     62     63     88  45.0  50.5  34172  289.77 0854.29
2009/04/23 16:34:49.9     -28     72     84     78    114 338.2  52.1  34170  289.75 0854.29
2009/04/23 16:34:50.0     -57     19     65     61     89 288.4  51.6  34166  289.67 0854.29
2009/04/23 16:34:50.1    -100     68     22    122    125 304.2  10.6  34160  289.57 0854.29
2009/04/23 16:34:50.2     -84    133    -45    158    164 327.9 -20.7  34180  289.92 0854.29
2009/04/23 16:34:50.3    -125    133    -24    183    185 316.7  -7.7  34168  289.72 0854.29
2009/04/23 16:34:50.4     -93    135     -6    165    166 325.5  -2.3  34170  289.75 0854.29
2009/04/23 16:34:50.5     -30    117     42    121    129 345.3  19.4  34174  289.82 0854.29
2009/04/23 16:34:50.6     -22    170     13    172    173 352.4   4.4  34186  290.02 0854.29
2009/04/23 16:34:50.7     -72    144     46    162    169 333.3  16.0  34188  290.04 0854.29
2009/04/23 16:34:50.8    -148    111     24    185    187 306.9   7.5  34180  289.91 0854.29
2009/04/23 16:34:50.9     -64    -21    172     68    184 251.8  77.4  34162  289.62 0854.29
2009/04/23 16:34:51.0     -44    177     75    183    197 346.0  23.4  34190  290.08 0854.30
2009/04/23 16:34:51.1      35    -74    122     82    146 154.6  63.2  34164  289.65 0854.30
2009/04/23 16:34:51.2      13    -34    147     37    151 158.2  85.9  34182  289.96 0854.30
2009/04/23 16:34:51.3      57     47    157     75    173  50.4  72.8  34186  290.01 0854.30
2009/04/23 16:34:51.4     -41    -97    120    106    160 203.2  54.0  34172  289.77 0854.30
2009/04/23 16:34:51.5      18    -96    175     98    200 168.9  68.5  34164  289.65 0854.30
2009/04/23 16:34:51.6     -70    -47    103     85    133 235.8  56.4  34178  289.89 0854.30
2009/04/23 16:34:51.7    -105     -8    131    106    168 265.6  56.9  34172  289.77 0854.30
2009/04/23 16:34:51.8      40     49    -94     64    113  39.6 -67.6  34170  289.74 0854.30
2009/04/23 16:34:51.9     -74     61    -12     96     97 309.5  -7.3  34168  289.70 0854.30
2009/04/23 16:34:52.0    -186    147     -1    238    239 308.2  -0.3  34164  289.64 0854.30
2009/04/23 16:34:52.1    -273    199     -7    339    340 306.1  -1.3  34142  289.28 0854.30
2009/04/23 16:34:52.2    -316    156    -50    353    357 296.4  -8.1  34120  288.91 0854.30
2009/04/23 16:34:52.3    -222    192    -23    294    295 310.9  -4.6  34122  288.93 0854.30
2009/04/23 16:34:52.4    -250    304    -75    394    402 320.5 -10.9  34106  288.67 0854.30
2009/04/23 16:34:52.5    -176    312    -10    359    360 330.5  -1.7  34118  288.86 0854.30
2009/04/23 16:34:52.6     -74    311    -95    320    333 346.6 -21.2  34110  288.72 0854.30
2009/04/23 16:34:52.7    -169    383    -98    419    431 336.1 -13.2  34110  288.72 0854.30
2009/04/23 16:34:52.8    -305    290   -148    422    448 313.6 -19.4  34094  288.46 0854.30
2009/04/23 16:34:52.9    -357    242   -123    432    449 304.2 -20.7  34100  288.55 0854.30
2009/04/23 16:34:53.0    -314    286    -23    425    426 312.3  -3.1  34096  288.50 0854.32
2009/04/23 16:34:53.1    -341    357   -113    495    508 316.3 -12.9  34116  288.83 0854.32
2009/04/23 16:34:53.2    -290    414   -150    506    528 325.0 -16.5  34118  288.85 0854.32
2009/04/23 16:34:53.3    -324    356    -61    482    486 317.7  -7.3  34104  288.62 0854.32
2009/04/23 16:34:53.4    -387    198   -149    435    460 297.1 -18.9  34106  288.67 0854.32
2009/04/23 16:34:53.5    -382    242   -139    453    473 302.4 -22.1  34100  288.56 0854.32
2009/04/23 16:34:53.6    -289    302   -142    419    442 316.3 -23.7  34114  288.78 0854.32
2009/04/23 16:34:53.7    -195    356   -175    406    442 331.3 -29.3  34100  288.55 0854.32
2009/04/23 16:34:53.8    -144    323   -138    354    379 335.9 -26.8  34096  288.50 0854.32
2009/04/23 16:34:53.9     -76    225    -84    238    252 341.3 -24.4  34100  288.56 0854.32
2009/04/23 16:34:54.0    -168    206    -80    266    277 320.8 -21.7  34100  288.54 0854.32
2009/04/23 16:34:54.1    -121    196    -42    231    235 328.4 -10.5  34104  288.63 0854.32
2009/04/23 16:34:54.2    -109    189      2    219    220 329.9   0.7  34100  288.57 0854.32
2009/04/23 16:34:54.3    -130    239    -34    273    276 331.5  -7.2  34110  288.71 0854.32
2009/04/23 16:34:54.4    -104    284    -82    303    314 339.9 -15.2  34118  288.85 0854.32
2009/04/23 16:34:54.5     -88    281    -46    295    299 342.6  -9.0  34128  289.02 0854.32
2009/04/23 16:34:54.6    -121    267    -59    294    300 335.5 -11.5  34130  289.05 0854.32
2009/04/23 16:34:54.7    -226    245   -101    334    348 317.4 -21.7  34112  288.77 0854.32
2009/04/23 16:34:54.8    -252    208   -152    327    360 309.5 -31.0  34118  288.86 0854.32
2009/04/23 16:34:54.9    -207    219    -91    302    315 316.6 -21.6  34128  289.03 0854.32
2009/04/23 16:34:55.0    -162    180    -80    243    255 318.1 -23.6  34128  289.02 0854.31
2009/04/23 16:34:55.1     -85    144    -22    168    170 329.3  -7.5  34126  289.01 0854.31
2009/04/23 16:34:55.2    -179    149   -191    234    302 309.8 -48.1  34212  290.46 0854.31
2009/04/23 16:34:55.3    -345    130   -226    369    432 290.7 -38.8  34196  290.19 0854.31
2009/04/23 16:34:55.4    -124    111   -186    167    249 311.8 -57.9  34186  290.01 0854.31
2009/04/23 16:34:55.5    -248     32   -185    251    311 277.5 -44.4  34130  289.05 0854.31
2009/04/23 16:34:55.6    -274    -55   -128    280    307 258.6 -30.8  34154  289.46 0854.31
2009/04/23 16:34:55.7    -153    -16    -96    154    181 263.8 -39.6  34158  289.55 0854.31
2009/04/23 16:34:55.8       0     -7    -81      8     81 182.7 -90.0  34164  289.65 0854.31
2009/04/23 16:34:55.9     -70    -71    -27    101    105 224.5 -15.0  34156  289.52 0854.31
2009/04/23 16:34:56.0      45    -35     80     58     98 127.8  60.5  34158  289.53 0854.31
2009/04/23 16:34:56.1      15    -41    145     44    151 160.0  82.8  34190  290.08 0854.31
2009/04/23 16:34:56.2     103     27    104    107    149  75.0  49.4  34174  289.80 0854.31
2009/04/23 16:34:56.3     -53    186     45    194    200 344.0  13.2  34152  289.45 0854.31
2009/04/23 16:34:56.4     -60    220     -9    229    230 344.6  -2.3  34164  289.63 0854.31
2009/04/23 16:34:56.5     200    127    -39    238    242  57.6  -9.3  34158  289.53 0854.31
2009/04/23 16:34:56.6     203    142    -58    248    255  55.0 -13.3  34156  289.51 0854.31
2009/04/23 16:34:56.7      88    103   -103    136    170  40.5 -45.6  34154  289.46 0854.31
2009/04/23 16:34:56.8     -10     69   -105     70    126 351.1 -68.0  34158  289.53 0854.31
2009/04/23 16:34:56.9      26    107    -38    111    117  13.8 -23.3  34154  289.46 0854.31
2009/04/23 16:34:57.0      -5    227     -4    228    229 358.6  -1.2  34160  289.58 0854.30
2009/04/23 16:34:57.1    -137    263    195    297    355 332.4  36.5  34184  289.98 0854.30
2009/04/23 16:34:57.2    -145    220    179    264    318 326.6  37.4  34178  289.86 0854.30
2009/04/23 16:34:57.3    -134    166    158    214    266 321.0  39.9  34174  289.81 0854.30
2009/04/23 16:34:57.4     -27    164    191    167    253 350.7  54.3  34196  290.18 0854.30
2009/04/23 16:34:57.5     -58    152    144    163    217 339.1  45.9  34182  289.96 0854.30
2009/04/23 16:34:57.6     -18    138     81    140    161 352.4  32.7  34186  290.02 0854.30
2009/04/23 16:34:57.7    -137    174     55    222    229 321.9  13.9  34180  289.91 0854.30
2009/04/23 16:34:57.8    -152    204    127    255    284 323.3  28.2  34182  289.95 0854.30
2009/04/23 16:34:57.9     -47    115    115    125    169 337.7  47.5  34202  290.28 0854.30
2009/04/23 16:34:58.0    -137    231    -74    269    280 329.2 -15.4  34166  289.66 0854.30
2009/04/23 16:34:58.1     -26    209     -8    211    212 352.9  -2.2  34204  290.31 0854.30
2009/04/23 16:34:58.2     -40    221     11    225    226 349.5   2.9  34200  290.25 0854.30
2009/04/23 16:34:58.3     -34    270     74    273    284 352.8  15.3  34196  290.17 0854.30
2009/04/23 16:34:58.4     -68    280    131    289    317 346.2  26.2  34192  290.12 0854.30
2009/04/23 16:34:58.5     -82    270     70    283    292 343.1  13.9  34254  291.17 0854.30
2009/04/23 16:34:58.6     -18    284     95    285    301 356.4  18.4  34194  290.15 0854.30
2009/04/23 16:34:58.7      14    262     60    263    270   3.1  12.9  34190  290.07 0854.30
2009/04/23 16:34:58.8      62    244    -11    252    253  14.3  -2.6  34204  290.31 0854.30
2009/04/23 16:34:58.9       0    199     88    200    218   0.0  25.2  34244  290.99 0854.30
2009/04/23 16:34:59.0      19    250     48    251    256   4.5  11.0  34290  291.77 0854.29
2009/04/23 16:34:59.1      40    197     -4    201    202  11.5  -1.3  34284  291.69 0854.29
2009/04/23 16:34:59.2       5    192      7    193    194   1.6   2.3  34322  292.32 0854.29
2009/04/23 16:34:59.3      20    181    -14    183    184   6.5  -4.4  34330  292.47 0854.29
2009/04/23 16:34:59.4      36    180    -20    184    186  11.6  -6.2  34324  292.37 0854.29
2009/04/23 16:34:59.5      64    193    -43    204    209  18.5 -11.9  34224  290.67 0854.29
2009/04/23 16:34:59.6      57    160    -15    171    172  19.8  -5.2  34204  290.33 0854.29
2009/04/23 16:34:59.7      44    124    -16    132    134  19.6  -7.2  34204  290.31 0854.29
2009/04/23 16:34:59.8      57     86     58    104    119  33.4  31.4  34248  291.06 0854.29
2009/04/23 16:34:59.9      53     98     39    112    119  28.5  19.4  34220  290.58 0854.29
2009/04/23 16:35:00.0      83    130      7    155    156  32.5   2.8  34186  290.01 0854.29
2009/04/23 16:35:00.1     111    186     28    217    219  30.8   7.5  34238  290.89 0854.29
2009/04/23 16:35:00.2      92    175     90    198    217  27.9  26.2  34246  291.03 0854.29
2009/04/23 16:35:00.3     -23    189     74    191    204 352.9  22.0  34236  290.86 0854.29
2009/04/23 16:35:00.4     -65    188     82    200    216 340.8  23.4  34208  290.40 0854.29
2009/04/23 16:35:00.5       0    270     69    271    280   0.0  14.3  34196  290.19 0854.29
2009/04/23 16:35:00.6     -17    287     14    288    289 356.6   2.9  34220  290.58 0854.29
2009/04/23 16:35:00.7     -45    293     31    297    299 351.1   6.0  34266  291.36 0854.29
2009/04/23 16:35:00.8     -27    347     42    349    352 355.4   6.9  34202  290.27 0854.29
2009/04/23 16:35:00.9     -62    364     52    370    374 350.2   8.1  34208  290.37 0854.29
2009/04/23 16:35:01.0    -101    299     71    316    325 341.3  12.8  34208  290.39 0854.29
2009/04/23 16:35:01.1     -81    239    -14    253    254 341.3  -3.3  34264  291.33 0854.29
2009/04/23 16:35:01.2     -19    248    131    249    281 355.5  30.2  34292  291.82 0854.29
2009/04/23 16:35:01.3       8    224    112    225    251   2.2  28.2  34302  291.97 0854.29
2009/04/23 16:35:01.4     104    152     36    185    189  34.5  11.0  34258  291.23 0854.29
2009/04/23 16:35:01.5      91    209     61    229    238  23.6  15.0  34264  291.33 0854.29
2009/04/23 16:35:01.6     123    231     64    263    271  28.1  13.7  34260  291.27 0854.29
2009/04/23 16:35:01.7      85    208     89    225    241  22.3  22.8  34266  291.38 0854.29
2009/04/23 16:35:01.8     162    329    106    368    384  26.3  16.1  34324  292.37 0854.29
2009/04/23 16:35:01.9     137    363    115    389    406  20.7  16.5  34288  291.74 0854.29
2009/04/23 16:35:02.0     250    167     82    301    313  56.3  15.3  34276  291.55 0854.31
2009/04/23 16:35:02.1     170    409     95    444    455  22.6  12.2  34258  291.24 0854.31
2009/04/23 16:35:02.2     235    378    159    446    473  31.9  20.4  34276  291.53 0854.31
2009/04/23 16:35:02.3     208    384    105    437    450  28.5  13.6  34232  290.78 0854.31
2009/04/23 16:35:02.4     193    518     98    554    563  20.5  10.1  34190  290.07 0854.31
2009/04/23 16:35:02.5     120    481    185    496    529  14.1  21.5  34286  291.70 0854.31
2009/04/23 16:35:02.6     334    337    218    475    522  44.8  26.4  34258  291.24 0854.31
2009/04/23 16:35:02.7     651    279    311    709    774  66.8  25.2  34230  290.77 0854.31
2009/04/23 16:35:02.8     457    199    -47    499    502  66.4  -5.5  34166  289.69 0854.31
2009/04/23 16:35:02.9     557    227    313    602    678  67.8  29.6  34144  289.30 0854.31
2009/04/23 16:35:03.0     556    178    203    584    619  72.2  19.2  34156  289.49 0854.31
2009/04/23 16:35:03.1     508    235     58    560    564  65.2   6.0  34154  289.48 0854.31
2009/04/23 16:35:03.2     410    137    -38    433    435  71.4  -5.1  34152  289.43 0854.31
2009/04/23 16:35:03.3     388     91    -68    399    405  76.7  -9.8  34148  289.38 0854.31
2009/04/23 16:35:03.4     707    193    100    733    740  74.7   7.8  34156  289.51 0854.31
2009/04/23 16:35:03.5     836    262    101    877    883  72.6   6.6  34136  289.18 0854.31
2009/04/23 16:35:03.6     904    261     89    942    947  73.9   5.4  34114  288.80 0854.31
2009/04/23 16:35:03.7     830    258   -170    870    887  72.7 -11.1  34148  289.38 0854.31
2009/04/23 16:35:03.8     727    118   -211    737    767  80.8 -16.0  34116  288.82 0854.31
2009/04/23 16:35:03.9     901    180    203    919    942  78.7  12.5  34122  288.93 0854.31
2009/04/23 16:35:04.0     832    306     12    887    888  69.8   0.8  34166  289.67 0854.33
2009/04/23 16:35:04.1     731    138    158    745    762  79.3  12.0  34168  289.70 0854.33
2009/04/23 16:35:04.2     816     68    190    819    841  85.2  13.1  34172  289.79 0854.33
2009/04/23 16:35:04.3     802     91    301    808    862  83.5  21.5  34164  289.65 0854.33
2009/04/23 16:35:04.4     653     91    223    660    697  82.0  18.7  34134  289.14 0854.33
2009/04/23 16:35:04.5     596    262    329    652    730  66.3  28.8  34192  290.13 0854.33
2009/04/23 16:35:04.6     680    227    516    718    884  71.5  39.3  34308  292.08 0854.33
2009/04/23 16:35:04.7     583    201    219    617    656  71.0  19.6  34154  289.48 0854.33
2009/04/23 16:35:04.8     545    257    176    603    629  64.7  16.3  34184  289.99 0854.33
2009/04/23 16:35:04.9     574    116    -57    586    589  78.6  -5.6  34170  289.75 0854.33
2009/04/23 16:35:05.0     597    191     20    627    628  72.2   1.9  34218  290.57 0854.33
2009/04/23 16:35:05.1     482    205    174    524    553  66.9  18.4  34162  289.62 0854.33
2009/04/23 16:35:05.2     463    164    369    492    615  70.5  40.6  34158  289.54 0854.33
2009/04/23 16:35:05.3     413    219    327    468    570  62.0  38.5  34134  289.13 0854.33
2009/04/23 16:35:05.4     382    181    349    423    548  64.6  43.7  34136  289.17 0854.33
2009/04/23 16:35:05.6     250    226    331    338    473  47.9  49.4  34130  289.05 0854.33
2009/04/23 16:35:05.6     224    185    272    291    398  50.4  47.9  34138  289.20 0854.33
2009/04/23 16:35:05.7     329    264    154    422    449  51.3  21.0  34154  289.48 0854.33
2009/04/23 16:35:05.8     270    135    185    303    355  63.4  34.3  34146  289.33 0854.33
2009/04/23 16:35:05.9     444    288    165    530    556  57.0  17.3  34162  289.60 0854.33
2009/04/23 16:35:06.0     373    252    157    451    477  55.9  20.0  34182  289.95 0854.35
2009/04/23 16:35:06.1     316     64     70    323    331  78.6  12.4  34206  290.34 0854.35
2009/04/23 16:35:06.2     327     63     59    334    340  79.1  10.0  34218  290.54 0854.35
2009/04/23 16:35:06.3     490    270    128    560    575  61.2  12.9  34162  289.59 0854.35
2009/04/23 16:35:06.4     527    248    152    583    603  64.8  14.7  34202  290.29 0854.35
2009/04/23 16:35:06.5     273    394    296    480    563  34.8  34.5  34258  291.23 0854.35
2009/04/23 16:35:06.6     435    236    206    495    536  61.5  23.8  34164  289.63 0854.35
2009/04/23 16:35:06.7     434    259    225    506    553  59.1  25.6  34184  289.99 0854.35
2009/04/23 16:35:06.8     414    232    293    475    558  60.7  34.6  34176  289.84 0854.35
2009/04/23 16:35:06.9     409    261    271    486    556  57.4  31.6  34174  289.80 0854.35
2009/04/23 16:35:07.0     290    306    221    422    476  43.5  29.9  34168  289.72 0854.35
2009/04/23 16:35:07.1     232    262    187    351    397  41.5  30.3  34154  289.47 0854.35
2009/04/23 16:35:07.3     243    314    140    398    423  37.8  19.4  34184  289.97 0854.35
2009/04/23 16:35:07.4     250    293     93    386    398  40.5  13.6  34204  290.33 0854.35
2009/04/23 16:35:07.5     112    177    169    210    269  32.5  43.3  34276  291.55 0854.35
2009/04/23 16:35:07.6      37    312    251    315    402   6.9  42.7  34236  290.86 0854.35
2009/04/23 16:35:07.6      67    637    228    641    681   6.1  19.6  34294  291.85 0854.35
2009/04/23 16:35:07.8     314    659    178    731    753  25.5  13.7  34196  290.18 0854.35
2009/04/23 16:35:07.9     331    656    180    735    757  26.8  13.8  34130  289.06 0854.35
2009/04/23 16:35:08.0     334    727    207    801    828  24.7  14.5  34130  289.08 0854.35
2009/04/23 16:35:08.1      80    742    205    747    775   6.2  15.4  34124  288.97 0854.36
2009/04/23 16:35:08.2    -123    662    -74    674    679 349.4  -6.3  34138  289.21 0854.36
2009/04/23 16:35:08.3     -26    575    -32    576    577 357.4  -3.2  34148  289.37 0854.36
2009/04/23 16:35:08.4    -223    545   -180    590    617 337.7 -17.0  34120  288.88 0854.36
2009/04/23 16:35:08.5    -458    245   -213    520    561 298.1 -28.0  34118  288.87 0854.36
2009/04/23 16:35:08.6    -424    221    -54    479    483 297.5  -6.5  34110  288.71 0854.36
2009/04/23 16:35:08.7    -590    349    -73    686    690 300.6  -6.1  34106  288.66 0854.36
2009/04/23 16:35:08.8    -271    295    110    401    416 317.4  15.4  34118  288.85 0854.36
2009/04/23 16:35:08.9    -408    240   -131    474    491 300.5 -20.1  34130  289.06 0854.36
2009/04/23 16:35:09.0      62      6    234     63    242  83.9  84.9  34136  289.16 0854.36
2009/04/23 16:35:09.1     -26    336    -45    338    341 355.5  -7.6  34138  289.20 0854.36
2009/04/23 16:35:09.2     -29    347    -38    349    352 355.1  -6.2  34132  289.10 0854.36
2009/04/23 16:35:09.3    -258    371    108    452    465 325.2  13.5  34142  289.26 0854.36
2009/04/23 16:35:09.4    -194    184     57    268    275 313.6  12.1  34146  289.32 0854.36
2009/04/23 16:35:09.5    -178   -157      7    238    239 228.6   1.8  34142  289.27 0854.36
2009/04/23 16:35:09.6    -120     -6     33    121    126 267.0  15.3  34146  289.35 0854.36
2009/04/23 16:35:09.7      73     53    147     91    172  54.0  64.9  34146  289.33 0854.36
2009/04/23 16:35:09.8      76    217    158    231    279  19.4  37.6  34132  289.10 0854.36
2009/04/23 16:35:09.9      55     86    145    103    177  32.6  61.1  34144  289.30 0854.36
2009/04/23 16:35:10.0     -22     40    135     46    142 331.0  81.2  34146  289.33 0854.36
2009/04/23 16:35:10.1     -56    -17    184     59    193 252.3  81.2  34150  289.40 0854.37
2009/04/23 16:35:10.2      14    -38    243     41    246 160.0  90.0  34166  289.69 0854.37
2009/04/23 16:35:10.3     -28     87    223     92    241 341.7  76.6  34160  289.57 0854.37
2009/04/23 16:35:10.4     -36    109    196    115    227 341.7  66.8  34160  289.58 0854.37
2009/04/23 16:35:10.5     -24    102    208    105    233 346.6  71.4  34166  289.67 0854.37
2009/04/23 16:35:10.6    -125    102    211    162    266 309.1  58.5  34164  289.64 0854.37
2009/04/23 16:35:10.7    -179    199    145    268    304 318.1  30.8  34158  289.54 0854.37
2009/04/23 16:35:10.8     -81    128     68    152    166 327.5  25.9  34152  289.45 0854.37
2009/04/23 16:35:10.9    -113    275    128    298    324 337.5  24.9  34178  289.86 0854.37
2009/04/23 16:35:11.0    -244    110     63    268    276 294.4  13.2  34166  289.66 0854.37
2009/04/23 16:35:11.1    -181    124    -65    220    229 304.6 -21.5  34156  289.50 0854.37
2009/04/23 16:35:11.2     -47     30   -157     56    166 302.4 -84.3  34170  289.74 0854.37
2009/04/23 16:35:11.3     -86     18    -62     88    107 281.9 -43.9  34170  289.75 0854.37
2009/04/23 16:35:11.4     -40    -12     49     42     64 253.2  54.3  34176  289.84 0854.37
2009/04/23 16:35:11.5     -56    -59     95     82    125 223.2  54.3  34176  289.85 0854.37
2009/04/23 16:35:11.6      20   -204    176    206    270 174.4  44.8  34172  289.78 0854.37
2009/04/23 16:35:11.7     -75     62    157     98    185 309.5  64.9  34188  290.04 0854.37
2009/04/23 16:35:11.8     -41    265    177    269    322 351.1  36.4  34152  289.44 0854.37
2009/04/23 16:35:11.9     128    100    243    163    292  52.0  63.2  34168  289.70 0854.37
2009/04/23 16:35:12.0     152    132    194    202    280  48.9  49.0  34150  289.41 0854.37
2009/04/23 16:35:12.1     147    142    113    205    234  46.0  31.4  34168  289.70 0854.39
2009/04/23 16:35:12.2      52    107    140    120    184  25.9  55.0  34174  289.82 0854.39
2009/04/23 16:35:12.3      21     80    -18     83     86  15.1 -12.4  34172  289.77 0854.39
2009/04/23 16:35:12.4    -114     22    -10    117    118 281.0  -5.1  34168  289.70 0854.39
2009/04/23 16:35:12.5    -135     53    -40    146    152 291.7 -15.5  34164  289.65 0854.39
2009/04/23 16:35:12.6    -134     88     28    161    164 303.3  10.1  34158  289.55 0854.39
2009/04/23 16:35:12.7    -166    132      6    213    214 308.4   1.8  34160  289.57 0854.39
2009/04/23 16:35:12.8     -51     98    -49    111    121 332.4 -29.6  34160  289.57 0854.39
2009/04/23 16:35:12.9       2    103    -31    104    109   1.4 -17.0  34164  289.65 0854.39
2009/04/23 16:35:13.0      23     19     17     31     35  50.5  33.5  34176  289.84 0854.39
2009/04/23 16:35:13.1       5    -82    121     83    146 176.4  62.1  34182  289.94 0854.39
2009/04/23 16:35:13.2     133    -27    191    136    234 101.5  61.3  34186  290.02 0854.39
2009/04/23 16:35:13.3     215     34    220    218    309  81.0  50.1  34184  289.97 0854.39
2009/04/23 16:35:13.4     166     35    213    170    272  77.8  57.5  34206  290.34 0854.39
2009/04/23 16:35:13.5     226     82    191    241    307  70.0  42.7  34198  290.22 0854.39
2009/04/23 16:35:13.6     142     91    149    169    225  57.4  45.8  34204  290.31 0854.39
2009/04/23 16:35:13.7     351     76    172    360    398  77.7  27.3  34210  290.43 0854.39
2009/04/23 16:35:13.8     316    -97    211    331    392 107.1  35.6  34194  290.15 0854.39
2009/04/23 16:35:13.9     107    -51    172    119    209 115.4  62.4  34202  290.28 0854.39
2009/04/23 16:35:14.0     155    135    176    206    270  48.9  44.8  34208  290.39 0854.39
2009/04/23 16:35:14.1     163    163    217    231    316  45.0  48.2  34272  291.48 0854.37
2009/04/23 16:35:14.2     -31    281    240    283    371 353.5  44.5  34258  291.23 0854.37
2009/04/23 16:35:14.3     -56    415    190    419    460 352.2  26.2  34226  290.68 0854.37
2009/04/23 16:35:14.4    -100    432    139    444    466 346.9  17.4  34214  290.50 0854.37
2009/04/23 16:35:14.5     -94    339     90    352    364 344.4  14.4  34208  290.37 0854.37
2009/04/23 16:35:14.6     -31    323    189    325    375 354.4  32.9  34210  290.43 0854.37
2009/04/23 16:35:14.7     -19    382    136    383    406 357.1  20.2  34234  290.83 0854.37
2009/04/23 16:35:14.8     -10    323    165    324    363 358.2  29.1  34244  291.01 0854.37
2009/04/23 16:35:14.9      -4    218    156    219    268 358.9  39.1  34240  290.93 0854.37
2009/04/23 16:35:15.0    -107    143    113    179    211 323.3  35.5  34244  290.99 0854.37
2009/04/23 16:35:15.1     -74    109    178    133    222 325.7  60.0  34240  290.94 0854.37
2009/04/23 16:35:15.2     -90    102     62    137    150 318.6  26.2  34236  290.86 0854.37
2009/04/23 16:35:15.3     -39     99     29    107    111 338.1  15.2  34238  290.91 0854.37
2009/04/23 16:35:15.4    -105     33     51    111    122 287.3  26.2  34228  290.72 0854.37
2009/04/23 16:35:15.5    -138     52     70    148    163 290.8  27.2  34248  291.08 0854.37
2009/04/23 16:35:15.6    -201     -3     73    202    214 269.1  20.7  34262  291.32 0854.37
2009/04/23 16:35:15.7    -100   -184    125    210    244 208.7  33.5  34260  291.27 0854.37
2009/04/23 16:35:15.8      97    -32    135    103    169 108.6  58.7  34270  291.45 0854.37
2009/04/23 16:35:15.9       0     12     94     13     94 359.1  90.0  34290  291.79 0854.37
2009/04/23 16:35:16.0      88    -25    134     92    162 106.4  62.4  34304  292.03 0854.37
2009/04/23 16:35:16.1     -51    -73    180     90    201 214.7  71.4  34292  291.81 0854.39
2009/04/23 16:35:16.2      -1    -20    114     21    115 184.5  90.0  34300  291.96 0854.39
2009/04/23 16:35:16.3       2   -136    163    137    212 179.0  56.1  34234  290.84 0854.39
2009/04/23 16:35:16.4      85    -88    157    123    199 135.9  58.2  34246  291.04 0854.39
2009/04/23 16:35:16.5      15   -196    160    197    253 175.5  43.5  34232  290.78 0854.39
2009/04/23 16:35:16.6       8   -237    208    238    316 178.0  45.7  34258  291.22 0854.39
2009/04/23 16:35:16.7      -3   -217     67    218    229 180.9  17.1  34248  291.06 0854.39
2009/04/23 16:35:16.8     -80   -278    175    290    338 196.1  34.0  34246  291.02 0854.39
2009/04/23 16:35:16.9     -16   -218    318    219    386 184.4  62.4  34232  290.81 0854.39
2009/04/23 16:35:17.0     -65   -198    202    209    290 198.3  49.2  34240  290.93 0854.39
2009/04/23 16:35:17.1       0   -210    324    211    386 180.2  64.1  34248  291.05 0854.39
2009/04/23 16:35:17.2    -109   -145    106    182    210 217.0  33.1  34250  291.11 0854.39
2009/04/23 16:35:17.3    -204   -202    220    288    362 225.3  41.4  34246  291.03 0854.39
2009/04/23 16:35:17.4    -337   -230    206    409    457 235.7  28.7  34258  291.24 0854.39
2009/04/23 16:35:17.5    -315   -112    -78    335    344 250.4 -13.1  34210  290.42 0854.39
2009/04/23 16:35:17.6    -188     15     -5    189    190 274.6  -1.6  34208  290.38 0854.39
2009/04/23 16:35:17.7    -145    -37     73    150    166 255.4  27.4  34258  291.23 0854.39
2009/04/23 16:35:17.8     -95     19     47     97    107 281.5  27.3  34242  290.96 0854.39
2009/04/23 16:35:17.9     -87   -183    -51    203    210 205.5 -14.3  34178  289.89 0854.39
2009/04/23 16:35:18.0     -18      1    120     19    121 274.3  90.0  34204  290.33 0854.39
2009/04/23 16:35:18.1    -234   -242    209    337    396 224.0  34.8  34218  290.54 0854.40
2009/04/23 16:35:18.2    -375   -231    -17    441    442 238.4  -2.2  34188  290.05 0854.40
2009/04/23 16:35:18.3    -466   -117    -38    481    483 255.8  -4.6  34240  290.93 0854.40
2009/04/23 16:35:18.4    -550     -8    -84    551    558 269.1  -8.7  34216  290.52 0854.40
2009/04/23 16:35:18.5    -600    -45    -51    602    605 265.7  -4.9  34190  290.07 0854.40
2009/04/23 16:35:18.6    -574     48    -82    577    583 274.8  -8.1  34164  289.64 0854.40
2009/04/23 16:35:18.7    -528    110   -108    540    551 281.8 -11.3  34186  290.01 0854.40
2009/04/23 16:35:18.8    -555    109   -103    566    576 281.1 -10.4  34182  289.93 0854.40
2009/04/23 16:35:18.9    -485    -88     58    494    498 259.6   6.7  34212  290.44 0854.40
2009/04/23 16:35:19.0    -523    -66    -71    528    533 262.8  -7.7  34184  289.97 0854.40
2009/04/23 16:35:19.1    -476   -103    -46    488    491 257.7  -5.5  34178  289.86 0854.40
2009/04/23 16:35:19.2    -508   -166    -77    535    541 251.8  -8.2  34136  289.16 0854.40
2009/04/23 16:35:19.3    -435   -109   -146    449    473 255.8 -18.0  34162  289.59 0854.40
2009/04/23 16:35:19.4    -447    -75   -156    454    480 260.4 -24.0  34156  289.50 0854.40
2009/04/23 16:35:19.5    -367     37    -76    369    377 275.8 -11.8  34222  290.64 0854.40
2009/04/23 16:35:19.6    -394     17   -178    395    433 272.5 -30.3  34224  290.67 0854.40
2009/04/23 16:35:19.7    -294   -232   -149    375    403 231.8 -27.3  34184  289.98 0854.40
2009/04/23 16:35:19.8    -241   -187   -144    306    338 232.2 -31.5  34182  289.93 0854.40
2009/04/23 16:35:19.9    -258    -75   -111    269    291 253.6 -28.2  34192  290.12 0854.40
2009/04/23 16:35:20.0    -269     -3    -83    270    282 269.2 -21.8  34182  289.95 0854.40
2009/04/23 16:35:20.1    -276      0    -93    277    293 270.0 -18.6  34208  290.37 0854.38
2009/04/23 16:35:20.2    -265      0    -74    266    276 270.0 -20.2  34210  290.41 0854.38
2009/04/23 16:35:20.3    -234     62    -31    243    245 285.0  -7.3  34242  290.97 0854.38
2009/04/23 16:35:20.4    -170     20      0    172    173 277.0   0.0  34222  290.64 0854.38
2009/04/23 16:35:20.5     -76     47    -62     90    109 301.5 -42.4  34222  290.62 0854.38
2009/04/23 16:35:20.6     -65     21    -49     69     84 288.6 -43.0  34226  290.69 0854.38
2009/04/23 16:35:20.7    -105   -146    -51    181    188 215.8 -20.4  34176  289.84 0854.38
2009/04/23 16:35:20.8    -152   -132    -33    202    205 228.9  -9.3  34186  290.01 0854.38
2009/04/23 16:35:20.9    -247   -113    -39    272    275 245.4  -8.2  34206  290.36 0854.38
2009/04/23 16:35:21.0    -187   -118     14    222    223 237.6   3.6  34186  290.02 0854.38
2009/04/23 16:35:21.1    -161    -14     -3    162    163 264.8  -1.1  34204  290.33 0854.38
2009/04/23 16:35:21.2     -87     15     42     89     98 279.7  27.1  34216  290.52 0854.38
2009/04/23 16:35:21.3     -37    -17     18     41     44 244.6  24.1  34214  290.50 0854.38
2009/04/23 16:35:21.4     -28     40    -35     50     61 324.8 -43.0  34220  290.58 0854.38
2009/04/23 16:35:21.5     -10    131    -68    132    148 355.5 -33.7  34214  290.48 0854.38
2009/04/23 16:35:21.6     -71     11    -35     72     80 278.8 -32.2  34206  290.35 0854.38
2009/04/23 16:35:21.7     -45   -112     42    121    129 201.9  19.4  34198  290.23 0854.38
2009/04/23 16:35:21.8     -20   -142      3    144    145 188.0   1.2  34176  289.84 0854.38
2009/04/23 16:35:21.9     -32   -128     39    133    139 194.3  16.3  34174  289.80 0854.38
2009/04/23 16:35:22.0     -40   -149     23    155    157 195.1   8.5  34174  289.80 0854.38
2009/04/23 16:35:22.1    -140   -220     12    262    263 212.5   2.8  34182  289.93 0854.35
2009/04/23 16:35:22.2    -203   -216     58    297    303 223.2  11.1  34210  290.41 0854.35
2009/04/23 16:35:22.3    -206   -219     73    301    310 223.3  13.7  34210  290.41 0854.35
2009/04/23 16:35:22.4     -55   -121    134    133    188 204.5  49.9  34176  289.85 0854.35
2009/04/23 16:35:22.5     -36   -133    155    138    207 195.2  54.0  34164  289.63 0854.35
2009/04/23 16:35:22.6      13    -50     67     52     84 164.9  58.5  34158  289.53 0854.35
2009/04/23 16:35:22.7     -19   -101     55    103    116 191.1  30.8  34142  289.26 0854.35
2009/04/23 16:35:22.8     -70    -66     92     97    133 226.9  49.0  34142  289.26 0854.35
2009/04/23 16:35:22.9     -63    -58     63     86    106 227.3  39.7  34148  289.38 0854.35
2009/04/23 16:35:23.0      -4    -54     69     55     88 184.5  56.4  34160  289.58 0854.35
2009/04/23 16:35:23.1     -21    -40     72     46     85 207.2  64.6  34168  289.70 0854.36
2009/04/23 16:35:23.2      15    -98     97    100    139 171.1  49.4  34170  289.74 0854.36
2009/04/23 16:35:23.3     -92    -34     34     99    105 249.6  18.9  34172  289.77 0854.36
2009/04/23 16:35:23.4     -41     13     41     44     60 287.7  48.0  34184  289.99 0854.36
2009/04/23 16:35:23.5     -32     56     22     65     69 330.1  18.9  34166  289.67 0854.36
2009/04/23 16:35:23.6    -140     98      8    172    173 305.1   2.9  34166  289.67 0854.36
2009/04/23 16:35:23.7     -91    281     18    296    297 342.0   3.6  34176  289.83 0854.36
2009/04/23 16:35:23.8     -67    315     73    323    332 348.0  12.8  34182  289.95 0854.36
2009/04/23 16:35:23.9     -69    198    110    210    237 340.8  30.1  34180  289.91 0854.36
2009/04/23 16:35:24.0      -2    152     74    153    169 359.1  27.4  34180  289.92 0854.36
2009/04/23 16:35:24.1     193    154    -44    247    251  51.4 -10.1  34170  289.75 0854.36
2009/04/23 16:35:24.2     139     96    -86    170    190  55.4 -33.1  34230  290.77 0854.36
2009/04/23 16:35:24.3     196     78    133    212    250  68.2  35.2  34348  292.77 0854.36
2009/04/23 16:35:24.4      44     57     72     73    102  37.8  50.0  34342  292.66 0854.36
2009/04/23 16:35:24.5      63    181     78    192    207  19.2  23.4  34312  292.17 0854.36
2009/04/23 16:35:24.6     222    229    177    319    364  44.1  31.5  34308  292.10 0854.36
2009/04/23 16:35:24.7     307    185    245    359    434  59.0  37.6  34296  291.87 0854.36
2009/04/23 16:35:24.8     208    254    159    329    365  39.2  27.4  34212  290.47 0854.36
2009/04/23 16:35:24.9     335    301    189    451    489  48.0  24.2  34194  290.15 0854.36
2009/04/23 16:35:25.0      -7    405    182    406    444 359.0  25.8  34248  291.06 0854.36
2009/04/23 16:35:25.1      -8    272    204    273    340 358.2  40.4  34246  291.02 0854.39
2009/04/23 16:35:25.2      89    103    133    137    190  41.0  49.2  34216  290.52 0854.39
2009/04/23 16:35:25.3     311    256    237    403    467  50.5  33.3  34220  290.60 0854.39
2009/04/23 16:35:25.4     273    213    147    347    376  52.0  24.3  34222  290.62 0854.39
2009/04/23 16:35:25.5      39    385    319    388    502   5.8  43.7  34234  290.83 0854.39
2009/04/23 16:35:25.6     -15    383    245    384    455 357.7  35.6  34244  290.99 0854.39
2009/04/23 16:35:25.7     -34    310    283    312    421 353.7  46.9  34280  291.62 0854.39
2009/04/23 16:35:25.8     -56    241    296    248    386 346.7  56.2  34258  291.25 0854.39
2009/04/23 16:35:25.9     -85    269    228    283    363 342.4  43.1  34244  291.00 0854.39
2009/04/23 16:35:26.0      48    283    253    288    383   9.6  45.8  34246  291.03 0854.39
2009/04/23 16:35:26.1      87    305    226    318    390  16.0  38.8  34242  290.98 0854.39
2009/04/23 16:35:26.2      56    370    139    375    399   8.6  21.1  34252  291.15 0854.39
2009/04/23 16:35:26.3     -97    446     -2    457    458 347.7  -0.4  34196  290.19 0854.39
2009/04/23 16:35:26.4     -47    482     78    485    492 354.4   9.2  34206  290.35 0854.39
2009/04/23 16:35:26.5      -7    445    101    446    458 359.0  12.8  34244  290.99 0854.39
2009/04/23 16:35:26.6    -107    502    106    514    525 347.9  11.7  34304  292.01 0854.39
2009/04/23 16:35:26.7     111    343    223    361    424  17.9  34.8  34272  291.46 0854.39
2009/04/23 16:35:26.8     157    386    245    417    483  22.2  33.1  34298  291.91 0854.39
2009/04/23 16:35:26.9     157    399    128    429    448  21.5  16.6  34248  291.07 0854.39
2009/04/23 16:35:27.0     248    300     31    390    392  39.6   4.6  34250  291.11 0854.39
2009/04/23 16:35:27.1     138    320    -96    349    363  23.4 -15.4  34172  289.79 0854.40
2009/04/23 16:35:27.2       1    290   -100    291    308   0.2 -19.1  34184  289.98 0854.40
2009/04/23 16:35:27.3     176    259    143    314    345  34.2  26.3  34234  290.83 0854.40
2009/04/23 16:35:27.4     250    224    138    336    363  48.1  23.6  34278  291.57 0854.40
2009/04/23 16:35:27.5     218    218    108    309    328  45.0  19.4  34256  291.19 0854.40
2009/04/23 16:35:27.6     284    201     81    348    358  54.7  13.1  34288  291.73 0854.40
2009/04/23 16:35:27.7     215    255    237    334    409  40.1  38.8  34322  292.32 0854.40
2009/04/23 16:35:27.8     233    233     83    330    341  45.0  14.2  34342  292.68 0854.40
2009/04/23 16:35:27.9     371    223    150    434    460  59.0  19.1  34286  291.72 0854.40
2009/04/23 16:35:28.0     448    313    102    547    557  55.0  10.6  34190  290.07 0854.40
2009/04/23 16:35:28.1     498    269     59    566    570  61.6   6.0  34176  289.83 0854.40
2009/04/23 16:35:28.2     485    342    209    594    630  54.8  19.4  34146  289.33 0854.40
2009/04/23 16:35:28.3     689    184    354    714    796  75.0  28.4  34218  290.56 0854.40
2009/04/23 16:35:28.4     543     67    194    548    582  82.9  19.5  34240  290.93 0854.40
2009/04/23 16:35:28.5     648    166    173    670    693  75.6  14.5  34284  291.67 0854.40
2009/04/23 16:35:28.6     698     55     91    701    707  85.4   7.4  34280  291.61 0854.40
2009/04/23 16:35:28.7     659     64    130    663    676  84.4  11.1  34274  291.50 0854.40
2009/04/23 16:35:28.8     875    105    193    882    904  83.1  12.4  34222  290.62 0854.40
2009/04/23 16:35:28.9     732    148    320    747    812  78.5  24.6  34210  290.42 0854.40
2009/04/23 16:35:29.0     842    128    106    852    859  81.3   7.1  34194  290.14 0854.40
2009/04/23 16:35:29.1     861    -60    -69    864    867  94.0  -4.6  34154  289.48 0854.36
2009/04/23 16:35:29.2     614    106    194    624    654  80.2  17.3  34142  289.28 0854.36
2009/04/23 16:35:29.3     641    413    163    763    781  57.2  12.1  34142  289.25 0854.36
2009/04/23 16:35:29.4     633    348    108    723    732  61.2   8.5  34146  289.32 0854.36
2009/04/23 16:35:29.5     532    654    -78    844    848  39.1  -5.3  34194  290.15 0854.36
2009/04/23 16:35:29.6     379    585     95    698    705  33.0   7.8  34200  290.25 0854.36
2009/04/23 16:35:29.7     310    487     57    578    581  32.5   5.7  34222  290.63 0854.36
2009/04/23 16:35:29.8     545    449    -91    707    713  50.5  -7.4  34278  291.59 0854.36
2009/04/23 16:35:29.9     558    441     36    712    713  51.7   2.9  34280  291.61 0854.36
2009/04/23 16:35:30.0     572    438     89    721    727  52.5   7.1  34272  291.47 0854.36
2009/04/23 16:35:30.1     996    429    -62   1085   1087  66.7  -3.3  34254  291.17 0854.36
2009/04/23 16:35:30.2     638    272    297    694    754  66.9  24.6  34238  290.91 0854.36
2009/04/23 16:35:30.3     715    416    516    828    975  59.8  34.9  34234  290.83 0854.36
2009/04/23 16:35:30.4     909    323     -3    966    967  70.4  -0.2  34240  290.92 0854.36
2009/04/23 16:35:30.5     766    257    102    809    816  71.4   7.2  34218  290.57 0854.36
2009/04/23 16:35:30.6     808    380     21    894    895  64.8   1.4  34184  289.99 0854.36
2009/04/23 16:35:30.7     775    555    -33    954    955  54.4  -2.0  34180  289.90 0854.36
2009/04/23 16:35:30.8     560    460     -7    725    726  50.6  -0.6  34170  289.74 0854.36
2009/04/23 16:35:30.9     634    431      6    767    768  55.8   0.5  34164  289.63 0854.36
2009/04/23 16:35:31.0     431    259     66    504    509  59.0   7.5  34178  289.86 0854.36
2009/04/23 16:35:31.1     320    387   -102    503    514  39.6 -11.5  34174  289.81 0854.32
2009/04/23 16:35:31.2     213    397   -138    451    471  28.2 -21.9  34176  289.84 0854.32
2009/04/23 16:35:31.3     -33    477     47    479    482 356.0   5.7  34178  289.88 0854.32
2009/04/23 16:35:31.4     -63    445    136    450    471 351.9  16.8  34180  289.92 0854.32
2009/04/23 16:35:31.5      58    174    -65    184    196  18.5 -19.6  34182  289.96 0854.32
2009/04/23 16:35:31.6    -103    216    -31    240    243 334.5  -7.5  34184  289.97 0854.32
2009/04/23 16:35:31.7    -287    206   -126    354    377 305.6 -19.7  34188  290.04 0854.32
2009/04/23 16:35:31.8    -331    227   -142    402    427 304.4 -19.5  34168  289.72 0854.32
2009/04/23 16:35:31.9    -405    430   -135    591    607 316.7 -12.9  34164  289.64 0854.32
2009/04/23 16:35:32.0    -425    422    -56    600    603 314.8  -5.4  34154  289.47 0854.32
2009/04/23 16:35:32.1    -503    404    -77    646    651 308.8  -6.9  34156  289.50 0854.32
2009/04/23 16:35:32.2    -567    321    -78    652    657 299.5  -6.9  34170  289.74 0854.32
2009/04/23 16:35:32.3    -387    244    116    458    473 302.3  14.3  34178  289.89 0854.32
2009/04/23 16:35:32.4    -202    210     92    292    307 316.1  17.5  34174  289.81 0854.32
2009/04/23 16:35:32.5    -170    293    151    339    371 329.9  25.6  34168  289.72 0854.32
2009/04/23 16:35:32.6    -238    351    297    425    518 325.8  38.5  34180  289.91 0854.32
2009/04/23 16:35:32.7    -277    344    315    442    542 321.2  39.1  34172  289.78 0854.32
2009/04/23 16:35:32.8    -285    367    276    465    540 322.1  33.5  34178  289.88 0854.32
2009/04/23 16:35:32.9    -300    332    263    448    519 317.9  33.1  34184  289.98 0854.32
2009/04/23 16:35:33.0    -127    341    287    365    464 339.5  42.2  34236  290.87 0854.32
2009/04/23 16:35:33.1     -92    278    258    293    390 341.7  45.8  34270  291.45 0854.35
2009/04/23 16:35:33.2      58    297    230    303    380  11.1  40.9  34312  292.17 0854.35
2009/04/23 16:35:33.3      36    467    403    469    618   4.5  45.0  34200  290.25 0854.35
2009/04/23 16:35:33.4      70    321    354    329    483  12.4  52.3  34228  290.73 0854.35
2009/04/23 16:35:33.6      58    214    277    222    354  15.4  57.3  34304  292.02 0854.35
2009/04/23 16:35:33.6      45    233    180    238    298  11.1  40.9  34280  291.61 0854.35
2009/04/23 16:35:33.7      14    281    -43    282    286   2.9  -8.8  34264  291.33 0854.35
2009/04/23 16:35:33.9      -4    274    -76    275    286 359.1 -15.5  34220  290.58 0854.35
2009/04/23 16:35:34.0      50    210   -145    217    260  13.6 -41.1  34188  290.05 0854.35
2009/04/23 16:35:34.1     285    233   -118    369    387  50.7 -23.0  34164  289.65 0854.35
2009/04/23 16:35:34.2     471    178    -93    504    513  69.2 -10.5  34212  290.44 0854.35
2009/04/23 16:35:34.3     556    324   -256    644    693  59.7 -27.4  34134  289.14 0854.35
2009/04/23 16:35:34.4     642    267   -247    696    739  67.4 -19.6  34230  290.76 0854.35
2009/04/23 16:35:34.5     789    270    -33    835    836  71.1  -2.3  34246  291.03 0854.35
2009/04/23 16:35:34.6     676    357     79    765    769  62.1   5.9  34250  291.09 0854.35
2009/04/23 16:35:34.7     683    214     15    716    717  72.6   1.2  34228  290.73 0854.35
2009/04/23 16:35:34.8     376     62   -201    382    431  80.6 -34.4  34170  289.73 0854.35
2009/04/23 16:35:34.9     232    168   -202    287    350  54.0 -43.0  34142  289.25 0854.35
2009/04/23 16:35:35.0     242    219   -149    327    359  47.9 -30.6  34158  289.55 0854.35
2009/04/23 16:35:35.1     -32    228    -69    231    242 351.9 -16.8  34164  289.64 0854.35
2009/04/23 16:35:35.2     205    180    265    273    380  48.7  49.3  34150  289.40 0854.38
2009/04/23 16:35:35.3     131    448     48    467    470  16.4   5.9  34160  289.57 0854.38
2009/04/23 16:35:35.4     266    414     25    493    494  32.7   3.0  34152  289.45 0854.38
2009/04/23 16:35:35.5     251    216    254    332    418  49.3  41.3  34146  289.33 0854.38
2009/04/23 16:35:35.6     196   -215    263    292    392 137.7  46.8  34156  289.52 0854.38
2009/04/23 16:35:35.7     -61   -385     91    391    402 189.1  13.1  34144  289.30 0854.38
2009/04/23 16:35:35.8    -162   -230    -78    282    293 215.2 -15.5  34154  289.47 0854.38
2009/04/23 16:35:35.9     -55   -327    -99    332    346 189.7 -21.5  34156  289.50 0854.38
2009/04/23 16:35:36.0     -28   -304    -28    306    308 185.4  -5.4  34148  289.36 0854.38
2009/04/23 16:35:36.1     -33   -204    -31    207    210 189.3  -8.6  34150  289.40 0854.38
2009/04/23 16:35:36.2      17    -26     31     32     44 147.4  51.1  34168  289.70 0854.38
2009/04/23 16:35:36.3      33    -27    175     43    180 129.5  86.2  34180  289.91 0854.38
2009/04/23 16:35:36.4     -69   -258    123    268    294 195.1  26.4  34172  289.78 0854.38
2009/04/23 16:35:36.5    -348   -181   -269    393    476 242.5 -42.1  34188  290.04 0854.38
2009/04/23 16:35:36.6    -228   -301   -191    378    423 217.2 -33.1  34188  290.04 0854.38
2009/04/23 16:35:36.7    -192    -45   -300    198    359 256.7 -68.0  34158  289.53 0854.38
2009/04/23 16:35:36.8     -78    -60   -209     99    231 232.2 -77.3  34144  289.31 0854.38
2009/04/23 16:35:36.9     130   -185   -196    227    299 145.0 -49.8  34148  289.37 0854.38
2009/04/23 16:35:37.0     259    -32   -297    262    396  97.2 -58.6  34146  289.35 0854.38
2009/04/23 16:35:37.1     314     48   -483    318    578  81.2 -68.0  34142  289.27 0854.38
2009/04/23 16:35:37.2     197    -59   -353    206    408 106.8 -71.5  34148  289.37 0854.40
2009/04/23 16:35:37.3     337    155   -260    371    453  65.3 -42.9  34142  289.27 0854.40
2009/04/23 16:35:37.4     175     90   -149    198    247  62.7 -45.1  34174  289.80 0854.40
2009/04/23 16:35:37.5     261     -7   -164    262    309  91.7 -39.9  34170  289.73 0854.40
2009/04/23 16:35:37.6      26    -50   -224     57    231 151.9 -90.0  34162  289.60 0854.40
2009/04/23 16:35:37.7     -12    466   -242    467    525 358.5 -33.8  34118  288.86 0854.40
2009/04/23 16:35:37.8      78    455   -208    462    506   9.8 -30.2  34082  288.24 0854.40
2009/04/23 16:35:37.9     230    423    -70    482    488  28.5  -8.3  34112  288.76 0854.40
2009/04/23 16:35:38.0     -24    413   -175    414    449 356.6 -28.6  34142  289.27 0854.40
2009/04/23 16:35:38.1    -280    209   -129    350    373 306.8 -25.5  34152  289.42 0854.40
2009/04/23 16:35:38.2     -45    203   -108    208    234 347.5 -33.9  34152  289.45 0854.40
2009/04/23 16:35:38.3    -194      7    -56    195    202 272.1 -21.0  34140  289.24 0854.40
2009/04/23 16:35:38.4    -313      3   -112    314    334 270.6 -19.7  34142  289.25 0854.40
2009/04/23 16:35:38.5    -146    -61     88    159    181 247.4  31.4  34156  289.52 0854.40
2009/04/23 16:35:38.6     -55   -305   -115    310    330 190.2 -25.5  34142  289.25 0854.40
2009/04/23 16:35:38.7     102   -297   -268    315    413 161.1 -49.2  34138  289.20 0854.40
2009/04/23 16:35:38.8     307   -222   -167    380    415 125.9 -29.6  34134  289.14 0854.40
2009/04/23 16:35:38.9      96    221   -207    242    318  23.6 -49.4  34126  289.00 0854.40
2009/04/23 16:35:39.0     191    290   -145    348    377  33.3 -28.2  34136  289.16 0854.40
2009/04/23 16:35:39.1     -42    466   -152    468    493 354.8 -18.1  34140  289.22 0854.40
2009/04/23 16:35:39.2    -165    475   -143    504    523 340.8 -20.5  34132  289.10 0854.40
2009/04/23 16:35:39.3    -245    297   -255    386    462 320.5 -40.9  34106  288.67 0854.40
2009/04/23 16:35:39.4     140    488   -199    508    545  16.1 -26.9  34122  288.94 0854.40
2009/04/23 16:35:39.5     -12    308   -201    309    368 357.8 -40.3  34126  288.98 0854.40
2009/04/23 16:35:39.6    -174    365   -130    405    425 334.5 -22.9  34108  288.70 0854.40
2009/04/23 16:35:39.7    -199    474   -165    515    540 337.2 -22.9  34080  288.23 0854.40
2009/04/23 16:35:39.8    -174    436   -198    470    510 338.2 -28.6  34074  288.12 0854.40
2009/04/23 16:35:39.9      -6    391   -236    392    457 359.0 -38.4  34070  288.04 0854.40
2009/04/23 16:35:40.0      -1    286   -258    287    385 359.8 -51.0  34090  288.38 0854.40
2009/04/23 16:35:40.1      58    286   -260    293    391  11.6 -50.6  34120  288.89 0854.40
2009/04/23 16:35:40.2    -277    176      2    329    330 302.4   0.4  34094  288.47 0854.40
2009/04/23 16:35:40.3    -151    455     26    480    481 341.6   3.1  34106  288.66 0854.40
2009/04/23 16:35:40.4    -186    348    -33    395    397 331.8  -4.8  34106  288.67 0854.40
2009/04/23 16:35:40.5    -337    303   -167    454    483 312.0 -25.4  34094  288.47 0854.40
2009/04/23 16:35:40.6    -473    409   -228    626    666 310.9 -25.4  34044  287.62 0854.40
2009/04/23 16:35:40.7    -520    383   -247    646    691 306.4 -26.4  34062  287.90 0854.40
2009/04/23 16:35:40.8    -494    415   -206    646    678 310.1 -22.8  34088  288.36 0854.40
2009/04/23 16:35:40.9    -485    230   -137    537    555 295.4 -14.3  34094  288.47 0854.40
2009/04/23 16:35:41.0    -399    362   -164    539    564 312.2 -17.0  34064  287.94 0854.40
2009/04/23 16:35:41.1    -441    316   -232    543    590 305.6 -29.0  34074  288.12 0854.40
2009/04/23 16:35:41.2    -518    313   -194    606    636 301.1 -22.9  34090  288.37 0854.39
2009/04/23 16:35:41.3    -428    261   -172    502    531 301.4 -19.0  34088  288.36 0854.39
2009/04/23 16:35:41.4    -449    253    -86    516    524 299.4  -9.5  34086  288.33 0854.39
2009/04/23 16:35:41.5    -468    239   -155    526    548 297.1 -21.1  34054  287.77 0854.39
2009/04/23 16:35:41.6    -432    256   -158    503    527 300.7 -22.4  34070  288.06 0854.39
2009/04/23 16:35:41.7    -366    144   -148    394    420 291.5 -26.0  34058  287.84 0854.39
2009/04/23 16:35:41.8    -348    145   -121    378    396 292.7 -22.8  34026  287.32 0854.39
2009/04/23 16:35:41.9    -310    147   -133    344    368 295.4 -26.6  34032  287.39 0854.39
2009/04/23 16:35:42.0    -285    147   -130    321    346 297.3 -27.6  34040  287.54 0854.39
2009/04/23 16:35:42.1    -187    207   -128    279    306 317.9 -30.8  34078  288.17 0854.39
2009/04/23 16:35:42.2    -186    224   -124    292    317 320.3 -28.7  34066  287.97 0854.39
2009/04/23 16:35:42.3    -198    236   -123    309    332 319.9 -27.4  34078  288.19 0854.39
2009/04/23 16:35:42.4    -188    220   -137    290    320 319.5 -31.5  34096  288.48 0854.39
2009/04/23 16:35:42.5    -176    205   -118    271    295 319.5 -29.5  34100  288.54 0854.39
2009/04/23 16:35:42.6    -136    150   -119    203    235 317.7 -37.3  34094  288.45 0854.39
2009/04/23 16:35:42.7     -91    100   -158    136    208 317.7 -59.4  34082  288.26 0854.39
2009/04/23 16:35:42.8     -81     73   -145    110    182 312.2 -63.6  34090  288.40 0854.39
2009/04/23 16:35:42.9     -54    157   -135    167    214 340.8 -47.9  34090  288.40 0854.39
2009/04/23 16:35:43.0    -186    147    -63    238    247 308.2 -15.0  34100  288.54 0854.39
2009/04/23 16:35:43.1    -304    164   -117    346    365 298.4 -23.6  34106  288.67 0854.39
2009/04/23 16:35:43.2    -494    192   -190    531    563 291.3 -24.8  34108  288.69 0854.34
2009/04/23 16:35:43.3    -444    129   -192    463    501 286.2 -28.2  34106  288.66 0854.34
2009/04/23 16:35:43.4    -375    104   -169    390    425 285.5 -29.4  34098  288.53 0854.34
2009/04/23 16:35:43.5    -338    111   -141    356    382 288.2 -27.3  34102  288.60 0854.34
2009/04/23 16:35:43.6    -167    106   -173    199    263 302.5 -49.8  34106  288.65 0854.34
2009/04/23 16:35:43.7     -91     46   -182    103    209 297.1 -72.7  34102  288.60 0854.34
2009/04/23 16:35:43.8     -95    -13   -126     96    158 262.1 -63.4  34108  288.70 0854.34
2009/04/23 16:35:43.9     -25    -30   -126     40    132 219.6 -85.6  34112  288.77 0854.34
2009/04/23 16:35:44.0      52     -9    -83     53     98 100.6 -69.0  34118  288.87 0854.34
2009/04/23 16:35:44.1      86    -54    -36    102    108 122.4 -23.8  34108  288.69 0854.34
2009/04/23 16:35:44.2      81    -22    -35     85     91 105.5 -28.0  34100  288.55 0854.32
2009/04/23 16:35:44.3      76    -24    -32     80     86 107.7 -26.9  34100  288.57 0854.32
2009/04/23 16:35:44.4      27    -43     30     51     59 147.5  34.4  34100  288.55 0854.32
2009/04/23 16:35:44.5     -42    -18     20     46     50 246.5  26.2  34104  288.62 0854.32
2009/04/23 16:35:44.6     -59    -49     -9     77     78 230.4  -7.3  34104  288.64 0854.32
2009/04/23 16:35:44.7     -80    -15    -81     82    115 259.4 -55.5  34096  288.48 0854.32
2009/04/23 16:35:44.8      47    -77    -31     91     96 148.4 -23.3  34092  288.42 0854.32
2009/04/23 16:35:44.9      76    -97     68    124    141 141.7  31.3  34090  288.40 0854.32
2009/04/23 16:35:45.0     132    -29    222    136    260 102.4  65.6  34096  288.48 0854.32
2009/04/23 16:35:45.1     -24    -16    147     30    150 235.8  89.1  34116  288.82 0854.32
2009/04/23 16:35:45.2     -74     15    106     76    130 281.5  60.6  34128  289.02 0854.32
2009/04/23 16:35:45.3    -129     -4    119    130    176 267.9  47.5  34122  288.94 0854.32
2009/04/23 16:35:45.4     -45     45     90     64    110 315.0  60.6  34116  288.82 0854.32
2009/04/23 16:35:45.5    -152    111     42    189    194 306.2  12.6  34114  288.80 0854.32
2009/04/23 16:35:45.6    -149    -90    123    175    213 238.7  38.4  34114  288.80 0854.32
2009/04/23 16:35:45.7    -199      0    128    200    237 269.9  35.6  34110  288.74 0854.32
2009/04/23 16:35:45.8     -74    -48     96     89    130 237.1  52.2  34116  288.82 0854.32
2009/04/23 16:35:45.9      99     72    211    123    244  53.6  67.0  34104  288.62 0854.32
2009/04/23 16:35:46.0     -98    -27    138    102    171 254.1  59.8  34114  288.80 0854.32
2009/04/23 16:35:46.1     -33      2    138     34    142 274.4  85.9  34114  288.79 0854.32
2009/04/23 16:35:46.2      30     19    112     36    117  57.6  81.2  34114  288.79 0854.31
2009/04/23 16:35:46.3      96     32     92    102    137  71.4  47.5  34104  288.64 0854.31
2009/04/23 16:35:46.4       9    134     74    135    153   4.0  31.4  34092  288.42 0854.31
2009/04/23 16:35:46.5      56    142     96    153    180  21.8  35.2  34094  288.47 0854.31
2009/04/23 16:35:46.6      37    123    134    129    186  16.9  51.2  34110  288.74 0854.31
2009/04/23 16:35:46.7      41    125     86    132    157  18.5  36.3  34110  288.74 0854.31
2009/04/23 16:35:46.8     -54     55     77     78    109 315.8  50.5  34106  288.67 0854.31
2009/04/23 16:35:46.9     -96     60    105    114    154 302.0  47.9  34118  288.87 0854.31
2009/04/23 16:35:47.0     -22     65     85     69    109 340.8  56.4  34126  288.99 0854.31
2009/04/23 16:35:47.1    -104    -31    -14    109    110 253.2  -7.3  34114  288.80 0854.31
2009/04/23 16:35:47.2      82      0    -83     83    117  90.0 -54.5  34126  289.01 0854.31
2009/04/23 16:35:47.3     124     23   -100    127    161  79.4 -46.6  34118  288.86 0854.31
2009/04/23 16:35:47.4     195     58    -73    204    217  73.2 -19.7  34112  288.77 0854.31
2009/04/23 16:35:47.5     213    117     -9    244    245  61.1  -2.2  34166  289.66 0854.31
2009/04/23 16:35:47.6     201    126    -13    238    239  57.8  -3.3  34182  289.95 0854.31
2009/04/23 16:35:47.7     206    142     54    251    257  55.4  12.2  34152  289.42 0854.31
2009/04/23 16:35:47.8     142     75    141    161    214  62.2  45.8  34130  289.06 0854.31
2009/04/23 16:35:47.9     -84     24    157     88    179 286.4  68.5  34150  289.41 0854.31
2009/04/23 16:35:48.0    -141     99     72    173    187 305.1  23.8  34138  289.19 0854.31
2009/04/23 16:35:48.1    -156     82      0    177    178 297.8  -0.3  34166  289.69 0854.31
2009/04/23 16:35:48.2     -89     -4      0     90     91 267.4   0.2  34152  289.45 0854.27
2009/04/23 16:35:48.3     -95     -1     11     96     97 269.2   6.9  34154  289.46 0854.27
2009/04/23 16:35:48.4     -99      4     -5    100    101 272.6  -3.1  34146  289.35 0854.27
2009/04/23 16:35:48.5     -85      0     47     86     98 270.0  30.8  34148  289.36 0854.27
2009/04/23 16:35:48.6    -133     42      0    140    141 287.7  -0.3  34146  289.33 0854.27
2009/04/23 16:35:48.7     -89     33     45     96    106 290.4  27.1  34178  289.87 0854.27
2009/04/23 16:35:48.8     -44      5     65     45     79 277.0  62.1  34174  289.80 0854.27
2009/04/23 16:35:48.9     -12      0     47     13     48 270.0  82.8  34166  289.67 0854.27
2009/04/23 16:35:49.0     -28     15     55     33     64 298.9  64.7  34166  289.69 0854.27
2009/04/23 16:35:49.1      15    101     72    103    125   8.5  38.0  34174  289.80 0854.27
2009/04/23 16:35:49.2     -37    123     25    129    132 343.0  11.0  34162  289.60 0854.27
2009/04/23 16:35:49.3     -47    139     99    147    177 341.3  37.3  34154  289.46 0854.27
2009/04/23 16:35:49.4      -7     98    113     99    150 355.5  54.3  34168  289.70 0854.27
2009/04/23 16:35:49.5     117    193    138    226    264  31.2  34.4  34142  289.27 0854.27
2009/04/23 16:35:49.6     211    275    241    347    422  37.5  38.3  34132  289.10 0854.27
2009/04/23 16:35:49.7     156    256    148    300    334  31.4  28.1  34130  289.05 0854.27
2009/04/23 16:35:49.8      59    260     31    267    269  12.9   6.7  34132  289.10 0854.27
2009/04/23 16:35:49.9       4    271     32    272    274   0.9   6.9  34130  289.07 0854.27
2009/04/23 16:35:50.0     199    271    131    337    361  36.4  22.5  34130  289.06 0854.27
2009/04/23 16:35:50.1     199    280    141    344    371  35.5  23.5  34142  289.26 0854.27
2009/04/23 16:35:50.2     120    275     93    301    316  23.6  17.3  34154  289.46 0854.27
2009/04/23 16:35:50.3     115    222    -80    251    263  27.4 -22.9  34146  289.32 0854.27
2009/04/23 16:35:50.4       0    228    -97    229    248 359.8 -28.6  34166  289.66 0854.27
2009/04/23 16:35:50.5     -28    205    -23    208    210 352.0  -6.5  34182  289.94 0854.27
2009/04/23 16:35:50.6    -101    167     31    196    199 328.8   9.0  34212  290.47 0854.27
2009/04/23 16:35:50.7     -92    172    -13    196    197 331.9  -3.9  34224  290.65 0854.27
2009/04/23 16:35:50.8    -117    166    -15    204    205 324.8  -4.4  34234  290.84 0854.27
2009/04/23 16:35:50.9    -139     94    -37    169    174 304.2 -12.6  34202  290.28 0854.27
2009/04/23 16:35:51.0    -221     96   -110    241    264 293.5 -30.6  34118  288.87 0854.27
2009/04/23 16:35:51.1    -179     84   -105    198    224 295.2 -34.7  34120  288.91 0854.27
2009/04/23 16:35:51.2    -109     69    -93    130    159 302.5 -43.5  34120  288.89 0854.27
2009/04/23 16:35:51.3     -69    156    -44    171    177 336.2 -14.5  34114  288.79 0854.27
2009/04/23 16:35:51.4    -225    131   -112    261    284 300.2 -29.5  34130  289.07 0854.27
2009/04/23 16:35:51.5    -314     94   -160    328    364 286.7 -32.2  34118  288.86 0854.27
2009/04/23 16:35:51.6     -51     80    -90     96    131 327.5 -52.4  34120  288.91 0854.27
2009/04/23 16:35:51.7    -105    -40    -66    113    130 249.2 -37.8  34134  289.14 0854.27
2009/04/23 16:35:51.8    -298    -41   -238    301    383 262.1 -46.8  34156  289.52 0854.27
2009/04/23 16:35:51.9    -258    -50   -412    263    488 259.0 -69.0  34160  289.58 0854.27
2009/04/23 16:35:52.0     -24    -73   -247     77    258 198.5 -86.4  34154  289.48 0854.27
2009/04/23 16:35:52.1     -15    -87   -176     89    197 190.2 -75.8  34158  289.53 0854.27
2009/04/23 16:35:52.2      67   -121   -157    139    209 151.1 -58.6  34146  289.35 0854.24
2009/04/23 16:35:52.3     141    -77   -142    161    214 118.9 -50.2  34154  289.46 0854.24
2009/04/23 16:35:52.4     154    -29    -62    157    168 101.0 -26.9  34160  289.57 0854.24
2009/04/23 16:35:52.5     167     -1    -20    168    170  90.4  -6.9  34160  289.57 0854.24
2009/04/23 16:35:52.6      82     26     25     87     91  72.3  16.3  34158  289.53 0854.24
2009/04/23 16:35:52.7      33    -10     60     35     69 108.2  66.8  34162  289.62 0854.24
2009/04/23 16:35:52.8    -114    -37     82    120    145 251.8  37.6  34158  289.55 0854.24
2009/04/23 16:35:52.9     -79   -109    128    135    186 216.0  48.2  34162  289.62 0854.24
2009/04/23 16:35:53.0    -159   -103     97    190    213 236.9  29.2  34166  289.69 0854.24
2009/04/23 16:35:53.1    -135   -171    101    219    241 218.3  26.4  34160  289.56 0854.24
2009/04/23 16:35:53.2    -160   -149     77    219    232 227.1  20.0  34160  289.57 0854.24
2009/04/23 16:35:53.3    -209   -162     71    265    275 232.2  15.0  34162  289.59 0854.24
2009/04/23 16:35:53.4    -214   -166     48    272    277 232.2  10.1  34166  289.66 0854.24
2009/04/23 16:35:53.5     -79   -183    166    200    259 203.4  43.8  34146  289.32 0854.24
2009/04/23 16:35:53.6     -56   -325    333    330    468 189.8  50.2  34158  289.53 0854.24
2009/04/23 16:35:53.7    -171   -313    198    357    408 208.7  31.4  34202  290.30 0854.24
2009/04/23 16:35:53.8    -149   -341    132    373    395 203.6  20.2  34166  289.69 0854.24
2009/04/23 16:35:53.9    -135   -243     65    279    287 209.0  13.2  34162  289.59 0854.24
2009/04/23 16:35:54.0    -146   -200    -27    248    250 216.1  -6.2  34168  289.70 0854.24
2009/04/23 16:35:54.1    -239    201    191    313    366 310.0  34.3  34172  289.76 0854.24
2009/04/23 16:35:54.2     -94    283     15    299    300 341.5   2.9  34172  289.76 0854.26
2009/04/23 16:35:54.3     -48    238     -5    244    245 348.4  -1.3  34170  289.75 0854.26
2009/04/23 16:35:54.4      18    225     27    226    228   4.7   6.9  34170  289.75 0854.26
2009/04/23 16:35:54.5       4    312     34    313    315   0.9   6.4  34166  289.68 0854.26
2009/04/23 16:35:54.6       3    244    -35    245    248   0.9  -8.2  34170  289.75 0854.26
2009/04/23 16:35:54.7     -85    127     10    154    155 326.2   3.8  34174  289.82 0854.26
2009/04/23 16:35:54.8    -149    105     48    183    190 305.3  14.7  34174  289.82 0854.26
2009/04/23 16:35:54.9    -254    248     10    356    357 314.3   1.7  34154  289.48 0854.26
2009/04/23 16:35:55.0    -260    188     45    322    326 305.9   8.0  34158  289.54 0854.26
2009/04/23 16:35:55.1    -196    100    101    221    242 297.0  26.2  34164  289.64 0854.26
2009/04/23 16:35:55.2    -186    169     45    252    257 312.4  10.1  34156  289.49 0854.26
2009/04/23 16:35:55.3    -176    145    -72    229    241 309.5 -17.6  34168  289.71 0854.26
2009/04/23 16:35:55.4    -112    201    -96    231    250 331.0 -28.5  34168  289.71 0854.26
2009/04/23 16:35:55.5    -170    287    -67    334    341 329.4 -11.5  34158  289.54 0854.26
2009/04/23 16:35:55.6    -218    306   -103    376    391 324.5 -15.4  34166  289.67 0854.26
2009/04/23 16:35:55.7    -189    268   -111    328    347 324.8 -18.8  34158  289.54 0854.26
2009/04/23 16:35:55.8    -139    293    -90    325    337 334.5 -20.1  34164  289.64 0854.26
2009/04/23 16:35:55.9     -52    273   -145    279    314 349.1 -34.0  34172  289.76 0854.26
2009/04/23 16:35:56.0      48    222    -81    228    243  12.3 -19.7  34178  289.86 0854.26
2009/04/23 16:35:56.1      26    242     -4    244    245   6.3  -1.2  34166  289.66 0854.26
2009/04/23 16:35:56.2    -120    104    -82    159    178 310.9 -33.9  34168  289.70 0854.25
2009/04/23 16:35:56.3    -131     59    -60    144    156 294.4 -28.0  34160  289.58 0854.25
2009/04/23 16:35:56.4    -128     60     12    142    143 295.4   4.9  34164  289.65 0854.25
2009/04/23 16:35:56.5    -262      0   -101    263    281 269.9 -26.4  34148  289.37 0854.25
2009/04/23 16:35:56.6    -166    -43   -193    172    258 255.4 -57.9  34146  289.34 0854.25
2009/04/23 16:35:56.7    -213   -102   -216    237    320 244.5 -51.5  34154  289.47 0854.25
2009/04/23 16:35:56.8    -220      8   -183    221    286 272.1 -48.2  34152  289.42 0854.25
2009/04/23 16:35:56.9    -222     17    -77    223    235 274.4 -24.3  34160  289.57 0854.25
2009/04/23 16:35:57.0    -328   -151    -45    362    365 245.3  -7.2  34162  289.59 0854.25
2009/04/23 16:35:57.1    -247   -161     38    296    299 236.9   7.5  34166  289.68 0854.25
2009/04/23 16:35:57.2    -393    -33   -135    395    418 265.2 -18.9  34144  289.29 0854.25
2009/04/23 16:35:57.3    -353    -78    -77    362    371 257.5 -12.0  34146  289.33 0854.25
2009/04/23 16:35:57.4    -306   -171     -5    351    352 240.8  -0.9  34146  289.35 0854.25
2009/04/23 16:35:57.5    -188   -193     -9    270    271 224.3  -2.1  34152  289.42 0854.25
2009/04/23 16:35:57.6    -230   -163    -87    282    295 234.7 -21.8  34132  289.09 0854.25
2009/04/23 16:35:57.7    -236    -58    -84    244    259 256.1 -19.1  34122  288.93 0854.25
2009/04/23 16:35:57.8    -387   -106   -182    402    441 254.7 -30.6  34132  289.11 0854.25
2009/04/23 16:35:57.9    -522    -43   -161    524    548 265.2 -22.1  34158  289.55 0854.25
2009/04/23 16:35:58.0    -419    -73   -248    426    492 260.0 -37.3  34162  289.61 0854.25
2009/04/23 16:35:58.1    -462     75   -191    469    506 279.2 -27.9  34172  289.78 0854.25
2009/04/23 16:35:58.2    -444    153   -131    470    487 289.1 -20.2  34190  290.08 0854.24
2009/04/23 16:35:58.3    -258    265    -36    370    372 315.8  -5.6  34172  289.76 0854.24
2009/04/23 16:35:58.4    -304    229     77    381    389 307.0  11.5  34168  289.72 0854.24
2009/04/23 16:35:58.5    -316    100    -78    332    342 287.6 -13.3  34172  289.79 0854.24
2009/04/23 16:35:58.6    -235    111     -5    261    262 295.3  -1.3  34174  289.80 0854.24
2009/04/23 16:35:58.7    -224   -180   -162    288    330 231.1 -36.4  34156  289.49 0854.24
2009/04/23 16:35:58.8    -425   -185   -153    464    489 246.5 -18.3  34142  289.28 0854.24
2009/04/23 16:35:58.9    -432   -144   -214    456    503 251.6 -31.5  34152  289.44 0854.24
2009/04/23 16:35:59.0    -425    -41   -100    428    440 264.4 -13.2  34180  289.90 0854.24
2009/04/23 16:35:59.1    -211   -138    -13    253    254 236.9  -3.1  34182  289.93 0854.24
2009/04/23 16:35:59.3    -286   -116    110    309    329 247.8  19.6  34188  290.03 0854.24
2009/04/23 16:35:59.3    -257   -200    -49    326    330 232.2  -8.7  34194  290.15 0854.24
2009/04/23 16:35:59.4    -291   -235   -132    375    398 231.1 -19.4  34152  289.43 0854.24
2009/04/23 16:35:59.5    -391   -309   -101    499    510 231.6 -11.5  34154  289.47 0854.24
2009/04/23 16:35:59.6    -306   -209   -110    371    388 235.6 -16.5  34162  289.62 0854.24
2009/04/23 16:35:59.8    -262     -7     13    263    264 268.3   2.9  34168  289.70 0854.24
2009/04/23 16:35:59.9    -411    154     65    440    445 290.6   8.5  34182  289.94 0854.24
2009/04/23 16:36:00.0    -257    133     51    290    295 297.5  10.0  34182  289.95 0854.24
2009/04/23 16:36:00.1    -275    197     56    339    344 305.7   9.5  34162  289.62 0854.24
2009/04/23 16:36:00.2    -289    243    -94    378    390 310.1 -14.1  34178  289.89 0854.24
2009/04/23 16:36:00.3    -193    169   -102    257    276 311.3 -27.4  34178  289.86 0854.26
2009/04/23 16:36:00.4    -175     71    -57    190    198 292.2 -21.7  34156  289.52 0854.26
2009/04/23 16:36:00.5     -82    -71   -103    109    149 229.1 -52.4  34172  289.79 0854.26
2009/04/23 16:36:00.6     -68    -83    -98    108    145 219.7 -52.3  34168  289.70 0854.26
2009/04/23 16:36:00.7    -222    -78    -38    236    240 250.5  -9.3  34168  289.70 0854.26
2009/04/23 16:36:00.8    -223    -38     93    227    245 260.1  23.8  34168  289.71 0854.26
2009/04/23 16:36:00.9    -127    -75    114    148    186 239.3  42.0  34174  289.82 0854.26
2009/04/23 16:36:01.0    -215     71      4    227    228 288.4   1.2  34178  289.89 0854.26
2009/04/23 16:36:01.1    -152     72     69    169    182 295.5  23.1  34182  289.96 0854.26
2009/04/23 16:36:01.2     -30     38     55     49     73 322.2  52.2  34192  290.13 0854.26
2009/04/23 16:36:01.3     -67      4     36     68     76 273.5  30.3  34190  290.09 0854.26
2009/04/23 16:36:01.4     -22     86     83     89    121 345.3  48.0  34182  289.94 0854.26
2009/04/23 16:36:01.5      62    295    262    302    399  12.0  45.4  34142  289.25 0854.26
2009/04/23 16:36:01.6    -120    299    156    323    358 338.2  27.7  34168  289.71 0854.26
2009/04/23 16:36:01.7    -238    197    106    310    328 309.6  18.9  34180  289.92 0854.26
2009/04/23 16:36:01.8    -185    197     24    271    273 316.8   5.2  34166  289.68 0854.26
2009/04/23 16:36:01.9    -170    235    150    291    327 324.0  29.4  34166  289.68 0854.26
2009/04/23 16:36:02.0    -277    196     69    340    348 305.2  11.6  34162  289.60 0854.26
2009/04/23 16:36:02.1    -289    384    113    481    495 323.0  13.2  34146  289.32 0854.26
2009/04/23 16:36:02.2    -378    306    -49    487    490 309.0  -5.8  34172  289.79 0854.26
2009/04/23 16:36:02.3    -456    401     -9    608    609 311.3  -0.9  34190  290.07 0854.30
2009/04/23 16:36:02.4    -432    207   -102    480    491 295.7 -12.0  34164  289.64 0854.30
2009/04/23 16:36:02.5    -423    185   -165    462    491 293.6 -19.7  34126  289.01 0854.30
2009/04/23 16:36:02.6    -351     62   -222    357    420 280.1 -39.4  34036  287.47 0854.30
2009/04/23 16:36:02.7    -246     47   -276    251    373 280.8 -57.4  34032  287.39 0854.30
2009/04/23 16:36:02.8    -196     75   -275    211    346 291.1 -63.1  34076  288.15 0854.30
2009/04/23 16:36:02.9     -90     44   -217    101    239 296.2 -77.9  34082  288.25 0854.30
2009/04/23 16:36:03.0    -127      0   -285    128    312 270.0 -78.7  34084  288.29 0854.30
2009/04/23 16:36:03.1     -81     -6   -188     82    205 265.2 -79.3  34138  289.19 0854.30
2009/04/23 16:36:03.2     -33    -27   -182     43    187 230.5 -90.0  34140  289.23 0854.30
2009/04/23 16:36:03.3     -87    -55   -203    104    228 237.5 -75.4  34084  288.30 0854.30
2009/04/23 16:36:03.4     -24    -81   -223     85    238 196.5 -82.6  34098  288.53 0854.30
2009/04/23 16:36:03.5     -29    -99   -162    104    192 196.5 -69.0  34150  289.40 0854.30
2009/04/23 16:36:03.6     -22   -210   -182    212    279 186.2 -49.5  34170  289.75 0854.30
2009/04/23 16:36:03.7     -45   -215   -130    220    255 192.0 -37.9  34158  289.54 0854.30
2009/04/23 16:36:03.8    -105   -228   -128    252    282 204.7 -33.6  34136  289.17 0854.30
2009/04/23 16:36:03.9     116   -172   -167    208    266 145.8 -47.7  34124  288.95 0854.30
2009/04/23 16:36:04.0     222    -23    -80    224    237  95.9 -24.8  34112  288.76 0854.30
2009/04/23 16:36:04.1     133     48     12    142    143  70.0   5.0  34136  289.18 0854.30
2009/04/23 16:36:04.2      96    174    -68    199    210  28.9 -23.3  34140  289.23 0854.30
2009/04/23 16:36:04.3      91    125    -73    155    171  36.0 -31.5  34140  289.23 0854.33
2009/04/23 16:36:04.4     113     71   -109    134    172  57.5 -48.1  34134  289.14 0854.33
2009/04/23 16:36:04.5     118     39   -163    125    205  71.4 -62.9  34138  289.21 0854.33
2009/04/23 16:36:04.6     240    186   -163    304    344  52.2 -35.0  34100  288.57 0854.33
2009/04/23 16:36:04.7     293    110    -30    314    316  69.4  -5.6  34134  289.12 0854.33
2009/04/23 16:36:04.8     257    101     23    277    279  68.5   4.9  34118  288.87 0854.33
2009/04/23 16:36:04.9     279    148    130    317    342  62.0  23.5  34064  287.96 0854.33
2009/04/23 16:36:05.0     208    132    155    247    291  57.5  35.5  34066  287.97 0854.33
2009/04/23 16:36:05.1     174    118    123    211    244  55.8  33.1  34060  287.88 0854.33
2009/04/23 16:36:05.2     133    120     95    180    203  48.0  30.1  34062  287.92 0854.33
2009/04/23 16:36:05.3      46    118     78    127    149  21.4  35.0  34054  287.79 0854.36
2009/04/23 16:36:05.4      17    131     60    133    145   7.6  25.7  34058  287.86 0854.36
2009/04/23 16:36:05.5       8    112     37    113    120   4.4  18.4  34060  287.89 0854.36
2009/04/23 16:36:05.6      14     82     47     84     96   9.8  31.9  34066  287.98 0854.36
2009/04/23 16:36:05.7      -1     71     31     72     78 359.0  24.1  34064  287.96 0854.36
2009/04/23 16:36:05.8      -5     75     28     76     81 355.6  21.0  34062  287.92 0854.36
2009/04/23 16:36:05.9      18     79     38     82     90  12.9  27.1  34066  287.98 0854.36
2009/04/23 16:36:06.0      26     80     41     85     94  18.5  27.3  34106  288.65 0854.36
2009/04/23 16:36:06.1      -8     90     70     91    114 354.7  41.7  34178  289.87 0854.36
2009/04/23 16:36:06.2      10     95     71     96    119   6.2  40.1  34174  289.82 0854.36
2009/04/23 16:36:06.3      -7    101     85    102    132 355.5  43.8  34160  289.57 0854.36
2009/04/23 16:36:06.4     -22     96     79     99    126 347.1  42.7  34138  289.21 0854.36
2009/04/23 16:36:06.5     -31    115     58    120    133 344.9  27.3  34132  289.09 0854.36
2009/04/23 16:36:06.6     -42    115     50    123    132 339.9  23.0  34126  289.01 0854.36
2009/04/23 16:36:06.7     -61    113      4    129    130 331.5   1.8  34136  289.16 0854.36
2009/04/23 16:36:06.8     -55     53     39     77     86 314.1  29.3  34132  289.11 0854.36
2009/04/23 16:36:06.9     -71     33     52     79     94 295.4  35.6  34132  289.09 0854.36
2009/04/23 16:36:07.0     -81     51    -20     97    100 302.4 -11.9  34132  289.11 0854.36
2009/04/23 16:36:07.1     -63     46    -12     79     80 306.0  -8.8  34136  289.16 0854.36
2009/04/23 16:36:07.2     -64     54     18     84     87 310.0  12.6  34138  289.19 0854.36
2009/04/23 16:36:07.3     -20     87     15     90     92 347.1   9.5  34138  289.19 0854.36
2009/04/23 16:36:07.4      -2    124     31    125    129 359.0  14.3  34142  289.28 0854.36
2009/04/23 16:36:07.5      -6     87     17     88     90 355.5  11.1  34142  289.26 0854.36
2009/04/23 16:36:07.6      -8    114     39    115    122 355.5  18.9  34144  289.30 0854.36
2009/04/23 16:36:07.7     -21    122     50    124    133 350.2  23.0  34152  289.43 0854.36
2009/04/23 16:36:07.8     -46    115     29    125    129 338.1  13.2  34152  289.45 0854.36
2009/04/23 16:36:07.9     -20     71     37     74     82 344.0  28.2  34156  289.52 0854.36
2009/04/23 16:36:08.0       9     66     49     67     83   8.0  40.1  34156  289.52 0854.36
2009/04/23 16:36:08.1     -19     44     81     49     94 336.4  65.1  34172  289.77 0854.36
2009/04/23 16:36:08.2      -9     15     85     18     86 327.5  88.5  34176  289.84 0854.36
2009/04/23 16:36:08.3     -51    -12     45     53     69 256.7  43.8  34170  289.75 0854.36
2009/04/23 16:36:08.4     -64     13     29     66     72 281.5  25.1  34170  289.75 0854.36
2009/04/23 16:36:08.5     -92    -66     31    114    119 234.5  15.2  34170  289.74 0854.36
2009/04/23 16:36:08.6    -136    -75     18    156    158 241.1   6.7  34176  289.85 0854.36
2009/04/23 16:36:08.7     -88    -63     13    109    110 234.5   6.9  34180  289.91 0854.36
2009/04/23 16:36:08.8     -97    -55    -34    112    118 240.2 -17.0  34180  289.92 0854.36
2009/04/23 16:36:08.9    -163    -45    -13    170    171 254.3  -4.6  34176  289.84 0854.36
2009/04/23 16:36:09.0    -172    -68    -12    186    187 248.3  -3.9  34182  289.96 0854.36
2009/04/23 16:36:09.1    -162    -19    -41    164    170 263.0 -14.3  34168  289.70 0854.36
2009/04/23 16:36:09.2    -301    -40   -112    304    323 262.3 -25.5  34116  288.81 0854.36
2009/04/23 16:36:09.3    -310    -68   -127    318    342 257.6 -27.4  34106  288.67 0854.37
2009/04/23 16:36:09.4    -288   -116    -86    311    322 248.0 -20.2  34102  288.59 0854.37
2009/04/23 16:36:09.5    -351   -166    -79    389    398 244.7 -11.6  34116  288.81 0854.37
2009/04/23 16:36:09.6    -359   -180   -187    402    443 243.4 -31.3  34102  288.58 0854.37
2009/04/23 16:36:09.7    -282   -179   -155    334    368 237.6 -31.3  34098  288.52 0854.37
2009/04/23 16:36:09.8    -196   -162   -152    255    296 230.5 -37.9  34098  288.53 0854.37
2009/04/23 16:36:09.9    -241   -174   -119    298    320 234.1 -27.3  34098  288.51 0854.37
2009/04/23 16:36:10.0    -254   -112   -133    278    308 246.0 -31.7  34102  288.59 0854.37
2009/04/23 16:36:10.1    -231   -116   -121    259    285 243.4 -31.5  34104  288.63 0854.37
2009/04/23 16:36:10.2    -190   -126   -118    229    257 236.5 -33.7  34104  288.63 0854.37
2009/04/23 16:36:10.3    -156   -135   -136    207    247 229.1 -40.9  34100  288.54 0854.37
2009/04/23 16:36:10.4    -103   -145   -119    178    214 215.4 -41.1  34100  288.57 0854.37
2009/04/23 16:36:10.5     -87   -130    -94    157    182 213.8 -38.4  34096  288.50 0854.37
2009/04/23 16:36:10.6    -111    -74   -125    134    183 236.3 -52.4  34102  288.60 0854.37
2009/04/23 16:36:10.7    -120    -87    -94    149    176 234.1 -39.9  34104  288.62 0854.37
2009/04/23 16:36:10.8     -70   -100   -116    123    169 215.2 -52.9  34102  288.60 0854.37
2009/04/23 16:36:10.9     -83   -105    -75    134    153 218.3 -35.8  34100  288.57 0854.37
2009/04/23 16:36:11.0      33   -122    -50    127    136 164.9 -26.9  34100  288.57 0854.37
2009/04/23 16:36:11.1      43   -150    -80    157    176 164.0 -33.5  34102  288.58 0854.37
2009/04/23 16:36:11.2      69   -146    -50    162    169 154.7 -22.5  34102  288.58 0854.37
2009/04/23 16:36:11.3      79   -123    -46    147    154 147.4 -22.8  34098  288.53 0854.38
2009/04/23 16:36:11.4      53    -91    -26    106    110 149.7 -13.9  34104  288.62 0854.38
2009/04/23 16:36:11.5       0    -35    -50     36     61 180.9 -64.9  34106  288.65 0854.38
2009/04/23 16:36:11.6     -90      4     -3     91     92 272.6  -2.2  34114  288.79 0854.38
2009/04/23 16:36:11.7      -4     54     46     55     71 355.5  43.8  34122  288.94 0854.38
2009/04/23 16:36:11.8    -100    147    -15    179    180 325.7  -4.9  34124  288.96 0854.38
2009/04/23 16:36:11.9    -196    109    -57    225    233 299.1 -14.3  34132  289.11 0854.38
2009/04/23 16:36:12.0    -229     69    -66    240    250 286.8 -15.5  34142  289.25 0854.38
2009/04/23 16:36:12.1    -148    193    -44    244    248 322.4 -10.3  34146  289.34 0854.38
2009/04/23 16:36:12.2      73    200    -81    213    227  20.1 -26.1  34132  289.09 0854.38
2009/04/23 16:36:12.3      91    257    -75    273    283  19.6 -20.0  34126  289.00 0854.38
2009/04/23 16:36:12.4     154    264   -149    306    340  30.3 -32.2  34106  288.67 0854.38
2009/04/23 16:36:12.5     227    182    -63    291    298  51.3 -12.4  34130  289.05 0854.38
2009/04/23 16:36:12.6     181    115    145    215    259  57.6  37.4  34118  288.87 0854.38
2009/04/23 16:36:12.7    -167    219     66    276    284 322.6  13.5  34124  288.95 0854.38
2009/04/23 16:36:12.8    -207    202     55    290    296 314.2  10.8  34146  289.34 0854.38
2009/04/23 16:36:12.9    -290    244     19    380    381 310.1   2.9  34138  289.21 0854.38
2009/04/23 16:36:13.0    -418    183    -48    457    460 293.7  -6.1  34112  288.77 0854.38
2009/04/23 16:36:13.1    -424    176   -101    460    472 292.6 -12.4  34100  288.54 0854.38
2009/04/23 16:36:13.2    -484     89   -156    493    518 280.5 -17.6  34100  288.56 0854.38
2009/04/23 16:36:13.3    -415    151   -140    442    463 290.1 -22.8  34092  288.43 0854.40
2009/04/23 16:36:13.4    -369    109     -8    385    386 286.5  -1.3  34110  288.74 0854.40
2009/04/23 16:36:13.5    -275    171    -68    324    332 301.9 -11.9  34096  288.49 0854.40
2009/04/23 16:36:13.6    -296    147   -101    331    346 296.5 -22.1  34090  288.38 0854.40
2009/04/23 16:36:13.7    -287    102   -191    305    359 289.7 -39.6  34094  288.45 0854.40
2009/04/23 16:36:13.8    -240    103   -171    262    312 293.3 -40.7  34102  288.58 0854.40
2009/04/23 16:36:13.9    -240     95    -47    259    264 291.7 -10.3  34128  289.02 0854.40
2009/04/23 16:36:14.0    -349    140   -123    377    397 291.8 -18.2  34134  289.13 0854.40
2009/04/23 16:36:14.1    -404    195   -139    449    471 295.8 -17.2  34130  289.07 0854.40
2009/04/23 16:36:14.2    -402     99     29    415    417 283.9   4.0  34138  289.21 0854.40
2009/04/23 16:36:14.3    -341    110    -20    359    360 287.9  -3.3  34138  289.20 0854.40
2009/04/23 16:36:14.4    -484     67   -226    489    538 277.9 -31.0  34122  288.94 0854.40
2009/04/23 16:36:14.5    -527     15   -151    528    549 271.7 -20.7  34126  288.99 0854.40
2009/04/23 16:36:14.6    -524     68   -197    529    564 277.5 -25.9  34096  288.50 0854.40
2009/04/23 16:36:14.7    -425    114   -193    441    481 285.1 -29.6  34092  288.42 0854.40
2009/04/23 16:36:14.8    -515     28   -113    516    529 273.2 -12.4  34106  288.67 0854.40
2009/04/23 16:36:14.9    -440      4   -145    441    464 270.6 -23.7  34106  288.65 0854.40
2009/04/23 16:36:15.0    -417     18   -226    418    475 272.6 -35.2  34122  288.92 0854.40
2009/04/23 16:36:15.1    -314    -24   -225    315    387 265.6 -43.6  34132  289.10 0854.40
2009/04/23 16:36:15.2    -326   -108   -253    344    427 251.7 -44.3  34110  288.74 0854.40
2009/04/23 16:36:15.3    -436   -249   -211    503    545 240.3 -28.5  34126  289.01 0854.41
2009/04/23 16:36:15.4    -600   -200   -315    633    707 251.5 -32.9  34108  288.70 0854.41
2009/04/23 16:36:15.5    -538   -195   -301    573    647 250.1 -34.4  34102  288.60 0854.41
2009/04/23 16:36:15.6    -537   -211   -229    578    621 248.5 -27.4  34128  289.03 0854.41
2009/04/23 16:36:15.7    -494   -232   -246    546    598 244.8 -30.4  34096  288.49 0854.41
2009/04/23 16:36:15.8    -514   -243   -311    569    648 244.6 -35.4  34086  288.32 0854.41
2009/04/23 16:36:15.9    -494   -192   -267    531    594 248.7 -33.2  34090  288.37 0854.41
2009/04/23 16:36:16.0    -439   -110   -260    453    522 255.9 -36.8  34110  288.74 0854.41
2009/04/23 16:36:16.1    -355   -195   -176    406    442 241.2 -29.5  34094  288.46 0854.41
2009/04/23 16:36:16.2    -357   -145   -107    386    400 247.8 -20.2  34118  288.86 0854.41
2009/04/23 16:36:16.3    -227   -102    -17    249    250 245.8  -4.1  34130  289.07 0854.41
2009/04/23 16:36:16.4    -166    -46   -129    173    215 254.5 -44.8  34132  289.11 0854.41
2009/04/23 16:36:16.5    -138     -6   -219    139    259 267.5 -69.1  34120  288.91 0854.41
2009/04/23 16:36:16.6     -98     26    -88    102    134 285.1 -49.8  34128  289.02 0854.41
2009/04/23 16:36:16.7    -117    -73    -17    139    141 238.0  -7.2  34126  289.01 0854.41
2009/04/23 16:36:16.8    -219   -261      5    341    342 220.0   1.0  34142  289.26 0854.41
2009/04/23 16:36:16.9    -153   -253    -21    296    297 211.2  -4.1  34146  289.34 0854.41
2009/04/23 16:36:17.0    -362   -149     -8    392    393 247.5  -1.3  34136  289.18 0854.41
2009/04/23 16:36:17.1    -415   -222    -50    471    474 241.8  -6.1  34134  289.13 0854.41
2009/04/23 16:36:17.2    -466   -289    -30    549    550 238.2  -3.1  34134  289.13 0854.41
2009/04/23 16:36:17.3    -454   -265     -8    526    527 239.7  -0.9  34138  289.21 0854.40
2009/04/23 16:36:17.4    -540   -311    -24    624    625 240.1  -2.2  34146  289.35 0854.40
2009/04/23 16:36:17.5    -479   -187   -156    515    539 248.6 -16.9  34154  289.48 0854.40
2009/04/23 16:36:17.6    -432   -266    -71    508    514 238.4  -8.0  34152  289.44 0854.40
2009/04/23 16:36:17.7    -222   -229     29    320    322 224.1   5.3  34148  289.37 0854.40
2009/04/23 16:36:17.8    -187   -165    -82    250    264 228.6 -18.3  34146  289.34 0854.40
2009/04/23 16:36:17.9    -250   -301    -45    392    395 219.6  -6.6  34144  289.30 0854.40
2009/04/23 16:36:18.0    -119   -359   -126    379    399 198.4 -23.7  34142  289.26 0854.40
2009/04/23 16:36:18.1     -89   -397    -63    407    412 192.7  -8.8  34128  289.04 0854.40
2009/04/23 16:36:18.2    -141   -381     41    407    410 200.4   5.8  34124  288.97 0854.40
2009/04/23 16:36:18.3    -244   -353     28    430    431 214.7   3.7  34130  289.07 0854.40
2009/04/23 16:36:18.4    -170   -376     15    413    414 204.4   2.1  34132  289.11 0854.40
2009/04/23 16:36:18.5    -213   -182    -36    281    284 229.5  -7.3  34148  289.36 0854.40
2009/04/23 16:36:18.6    -314   -328     63    455    460 223.7   7.9  34130  289.07 0854.40
2009/04/23 16:36:18.7    -182   -401     29    441    442 204.5   3.8  34122  288.94 0854.40
2009/04/23 16:36:18.8    -226   -109    -88    252    266 244.2 -24.3  34146  289.34 0854.40
2009/04/23 16:36:18.9    -434   -181     29    471    472 247.3   3.6  34158  289.54 0854.40
2009/04/23 16:36:19.0    -274   -271    -70    386    393 225.4 -10.3  34154  289.47 0854.40
2009/04/23 16:36:19.1     -31   -369     72    371    378 184.8  11.0  34124  288.96 0854.40
2009/04/23 16:36:19.2     -61   -332    145    338    367 190.5  24.8  34136  289.16 0854.40
2009/04/23 16:36:19.3    -135   -170     49    218    224 218.5  12.9  34142  289.28 0854.38
2009/04/23 16:36:19.4     -90   -315      0    328    329 196.1   0.0  34122  288.92 0854.38
2009/04/23 16:36:19.5     -48   -340    -95    344    357 188.1 -15.5  34124  288.96 0854.38
2009/04/23 16:36:19.6      55   -328    256    333    420 170.4  41.5  34132  289.11 0854.38
2009/04/23 16:36:19.7      -4   -272    213    273    346 180.9  42.0  34130  289.07 0854.38
2009/04/23 16:36:19.8      17   -281    163    282    325 176.4  32.7  34132  289.09 0854.38
2009/04/23 16:36:19.9      -1   -286    113    287    308 180.2  23.0  34132  289.09 0854.38
2009/04/23 16:36:20.0     -88   -260    100    275    292 198.7  20.9  34134  289.14 0854.38
2009/04/23 16:36:20.1     -26   -244    209    246    322 186.2  44.5  34132  289.09 0854.38
2009/04/23 16:36:20.2     -55   -327    200    332    387 189.6  34.0  34132  289.11 0854.38
2009/04/23 16:36:20.3      53   -105    168    118    205 153.3  61.3  34138  289.19 0854.38
2009/04/23 16:36:20.4     199   -241    202    313    372 140.4  35.7  34136  289.15 0854.38
2009/04/23 16:36:20.5     216   -223    234    311    389 135.9  40.8  34158  289.54 0854.38
2009/04/23 16:36:20.6     269   -346    385    439    583 142.2  45.8  34184  289.99 0854.38
2009/04/23 16:36:20.7     197   -167    285    259    385 130.4  53.2  34228  290.72 0854.38
2009/04/23 16:36:20.8     108    -42    239    116    265 111.3  72.8  34220  290.60 0854.38
2009/04/23 16:36:20.9     142    -37    226    147    269 104.6  64.4  34238  290.90 0854.38
2009/04/23 16:36:21.0      24     10    236     27    237  66.5  90.0  34238  290.89 0854.38
2009/04/23 16:36:21.1      -7     97    189     98    212 355.5  70.8  34196  290.19 0854.38
2009/04/23 16:36:21.2       0     14    176     15    176 359.1  90.0  34170  289.75 0854.38
2009/04/23 16:36:21.3     225     45    304    230    381  78.5  59.1  34186  290.01 0854.37
2009/04/23 16:36:21.4     313    112    263    333    424  70.2  42.4  34188  290.03 0854.37
2009/04/23 16:36:21.5      65   -109    168    128    211 149.2  58.7  34158  289.53 0854.37
2009/04/23 16:36:21.6       3    -43    158     44    164 175.5  84.1  34170  289.75 0854.37
2009/04/23 16:36:21.7      35    -34    140     50    148 134.1  79.7  34176  289.85 0854.37
2009/04/23 16:36:21.8       9    -75    173     76    188 172.9  75.0  34164  289.65 0854.37
2009/04/23 16:36:21.9     -26     36    117     45    125 323.9  78.2  34178  289.87 0854.37
2009/04/23 16:36:22.0     203     -8    161    204    259  92.4  42.4  34140  289.24 0854.37
2009/04/23 16:36:22.1      57    -52    186     78    201 132.2  76.1  34150  289.41 0854.37
2009/04/23 16:36:22.2       8   -191    251    192    316 177.5  59.0  34144  289.31 0854.37
2009/04/23 16:36:22.3    -123   -439    302    457    547 195.7  36.5  34142  289.27 0854.37
2009/04/23 16:36:22.4      -6   -394    177    395    432 180.9  25.8  34134  289.12 0854.37
2009/04/23 16:36:22.5     131   -369    176    392    429 160.4  25.8  34160  289.58 0854.37
2009/04/23 16:36:22.6      86   -134    250    160    296 147.4  64.6  34162  289.59 0854.37
2009/04/23 16:36:22.7      53      6    209     54    215  83.0  85.4  34180  289.91 0854.37
2009/04/23 16:36:22.8      67   -153    249    168    300 156.2  62.8  34154  289.47 0854.37
2009/04/23 16:36:22.9     105   -223    297    247    386 154.6  56.3  34128  289.03 0854.37
2009/04/23 16:36:23.0     102   -271    307    290    422 159.3  52.1  34166  289.69 0854.37
2009/04/23 16:36:23.1     150   -375    253    405    477 158.2  35.0  34174  289.80 0854.37
2009/04/23 16:36:23.2     126   -299    263    325    418 157.2  43.3  34176  289.84 0854.37
2009/04/23 16:36:23.3     155    -51    217    164    272 108.4  59.4  34168  289.70 0854.36
2009/04/23 16:36:23.4     257    -79    194    269    331 107.1  39.3  34144  289.29 0854.36
2009/04/23 16:36:23.5     304    -97    317    320    450 107.8  49.9  34168  289.72 0854.36
2009/04/23 16:36:23.6     100   -142    289    175    337 144.8  66.1  34168  289.70 0854.36
2009/04/23 16:36:23.7      59   -181    311    191    364 161.7  65.6  34168  289.70 0854.36
2009/04/23 16:36:23.8     118   -124    242    172    296 136.3  61.1  34164  289.63 0854.36
2009/04/23 16:36:23.9     102    -48    196    113    226 115.2  67.7  34154  289.46 0854.36
2009/04/23 16:36:24.0      -8    -22    190     24    191 200.0  90.0  34174  289.80 0854.36
2009/04/23 16:36:24.1     137     -1    207    138    248  90.8  63.4  34168  289.70 0854.36
2009/04/23 16:36:24.2      10   -136    195    137    238 175.6  61.5  34184  289.99 0854.36
2009/04/23 16:36:24.3    -114   -166    164    202    260 214.5  43.5  34180  289.90 0854.36
2009/04/23 16:36:24.4      59    -91    188    109    217 147.0  67.5  34182  289.94 0854.36
2009/04/23 16:36:24.5      91    -58    199    108    226 122.5  69.3  34138  289.19 0854.36
2009/04/23 16:36:24.6     104   -128    187    166    250 140.8  54.0  34130  289.06 0854.36
2009/04/23 16:36:24.7     211   -134    225    251    337 122.5  46.6  34118  288.85 0854.36
2009/04/23 16:36:24.8      94   -169    192    194    272 151.0  50.0  34116  288.83 0854.36
2009/04/23 16:36:24.9      77   -237    248    250    352 162.0  50.0  34140  289.22 0854.36
2009/04/23 16:36:25.0      77   -245    264    258    369 162.4  50.6  34106  288.67 0854.36
2009/04/23 16:36:25.1      16   -220    312    221    382 175.6  61.2  34128  289.03 0854.36
2009/04/23 16:36:25.2      69   -219    246    230    336 162.4  52.2  34120  288.88 0854.36
2009/04/23 16:36:25.3      15   -207    244    208    320 175.6  55.3  34144  289.31 0854.34
2009/04/23 16:36:25.4       4   -159    247    160    294 178.2  64.4  34160  289.58 0854.34
2009/04/23 16:36:25.5     -27   -277    329    279    431 185.6  55.5  34198  290.20 0854.34
2009/04/23 16:36:25.6       3   -250    239    251    346 179.1  48.5  34148  289.37 0854.34
2009/04/23 16:36:25.8      -1   -187    284    188    340 180.5  63.6  34134  289.12 0854.34
2009/04/23 16:36:25.8      17    -64    191     67    202 164.8  80.2  34130  289.06 0854.34
2009/04/23 16:36:25.9      46   -153    232    160    281 163.1  62.6  34144  289.29 0854.34
2009/04/23 16:36:26.0      53   -201    263    208    335 165.1  57.7  34154  289.46 0854.34
2009/04/23 16:36:26.1      80   -107    200    134    240 143.0  63.2  34160  289.57 0854.34
2009/04/23 16:36:26.2    -122   -236    283    266    388 207.4  52.1  34152  289.43 0854.34
2009/04/23 16:36:26.3     106    -48    211    117    241 114.4  68.5  34166  289.69 0854.35
2009/04/23 16:36:26.4     -75    -90    126    118    172 219.6  52.0  34146  289.33 0854.35
2009/04/23 16:36:26.5     -93   -166    121    191    226 209.4  35.5  34130  289.08 0854.35
2009/04/23 16:36:26.7     -67    -89    121    112    164 217.0  52.2  34160  289.57 0854.35
2009/04/23 16:36:26.8      32    -29     53     44     68 132.2  56.3  34174  289.80 0854.35
2009/04/23 16:36:26.9      17     18     13     25     28  43.4  29.3  34188  290.06 0854.35
2009/04/23 16:36:27.0      -1    105     86    106    136 359.1  43.7  34198  290.23 0854.35
2009/04/23 16:36:27.1     114    116     77    163    180  44.5  27.2  34236  290.87 0854.35
2009/04/23 16:36:27.2     109    213     37    240    243  27.1   8.9  34278  291.56 0854.35
2009/04/23 16:36:27.3     -30    132    120    136    181 347.1  46.2  34248  291.08 0854.35
2009/04/23 16:36:27.4      12     73    176     75    191   9.8  75.9  34210  290.41 0854.35
2009/04/23 16:36:27.5     -92     42    117    102    155 294.4  54.3  34222  290.62 0854.35
2009/04/23 16:36:27.6     -28    -67     -4     73     74 202.7  -3.1  34200  290.26 0854.35
2009/04/23 16:36:27.7     142     22     96    144    173  81.2  36.5  34188  290.04 0854.35
2009/04/23 16:36:27.8     105    -91     81    139    160 130.9  32.9  34186  290.02 0854.35
2009/04/23 16:36:27.9      72    -87    126    113    169 140.4  53.5  34178  289.87 0854.35
2009/04/23 16:36:28.0     187   -232    219    299    370 141.2  39.7  34116  288.84 0854.35
2009/04/23 16:36:28.1     242   -176    154    300    337 126.0  29.4  34126  289.00 0854.35
2009/04/23 16:36:28.2     144   -130    200    195    279 132.2  50.7  34128  289.02 0854.35
2009/04/23 16:36:28.3     134   -289    263    319    413 155.1  43.7  34116  288.84 0854.35
2009/04/23 16:36:28.4     219   -134    242    257    353 121.5  48.0  34136  289.17 0854.38
2009/04/23 16:36:28.5     294   -128    214    321    385 113.5  36.7  34130  289.06 0854.38
2009/04/23 16:36:28.6     144   -199    154    246    290 144.0  35.5  34128  289.02 0854.38
2009/04/23 16:36:28.7     -48   -257    231    262    349 190.7  45.8  34128  289.03 0854.38
2009/04/23 16:36:28.8     -84   -319    225    330    399 194.8  37.6  34146  289.32 0854.38
2009/04/23 16:36:28.9    -138   -373    140    398    421 200.4  20.1  34162  289.61 0854.38
2009/04/23 16:36:29.0    -101   -431    145    443    467 193.3  18.1  34162  289.60 0854.38
2009/04/23 16:36:29.1    -184   -389    101    431    443 205.3  13.2  34146  289.33 0854.38
2009/04/23 16:36:29.2    -104   -343     35    359    361 197.0   5.7  34140  289.23 0854.38
2009/04/23 16:36:29.3    -133   -250     13    284    285 208.1   2.8  34140  289.22 0854.38
2009/04/23 16:36:29.4    -158   -232    -42    281    285 214.3  -8.6  34150  289.39 0854.38
2009/04/23 16:36:29.5     -90   -149    -22    175    177 211.2  -7.3  34156  289.50 0854.38
2009/04/23 16:36:29.6     -44   -106     41    115    122 202.7  20.4  34156  289.52 0854.38
2009/04/23 16:36:29.7      90   -130     80    159    177 145.3  28.7  34160  289.57 0854.38
2009/04/23 16:36:29.8     104   -122     46    161    168 139.5  16.0  34154  289.46 0854.38
2009/04/23 16:36:29.9      54   -149     59    159    169 159.9  21.0  34136  289.18 0854.38
2009/04/23 16:36:30.0      59   -229    198    237    308 165.5  43.8  34140  289.22 0854.38
2009/04/23 16:36:30.1     -23   -227    182    229    292 186.0  42.7  34140  289.22 0854.38
2009/04/23 16:36:30.2     -12   -210    150    211    258 183.4  39.1  34144  289.31 0854.38
2009/04/23 16:36:30.3      30   -179     73    182    196 170.4  23.0  34142  289.28 0854.38
2009/04/23 16:36:30.4     167   -165    -12    235    236 134.7  -3.1  34146  289.34 0854.40
2009/04/23 16:36:30.5     255   -125     22    285    286 116.2   4.6  34152  289.42 0854.40
2009/04/23 16:36:30.6     126   -113     -6    170    171 131.8  -2.2  34152  289.45 0854.40
2009/04/23 16:36:30.7     102   -123     21    160    162 140.4   7.5  34152  289.43 0854.40
2009/04/23 16:36:30.8     151   -266    -47    307    311 150.4  -8.8  34150  289.41 0854.40
2009/04/23 16:36:30.9     108   -224    -41    249    253 154.1  -9.3  34148  289.36 0854.40
2009/04/23 16:36:31.0     123   -219    -46    252    257 150.6 -10.5  34140  289.24 0854.40
2009/04/23 16:36:31.1     160   -298     14    339    340 151.7   2.4  34112  288.77 0854.40
2009/04/23 16:36:31.2     218   -217     56    308    314 134.8  10.3  34114  288.78 0854.40
2009/04/23 16:36:31.3     198   -130     81    238    252 123.3  18.9  34118  288.85 0854.40
2009/04/23 16:36:31.4     236    -62    102    245    265 104.8  24.1  34122  288.93 0854.40
2009/04/23 16:36:31.5     188    -60     93    198    218 107.7  27.1  34128  289.04 0854.40
2009/04/23 16:36:31.6      -7     21     49     23     54 341.5  73.1  34126  289.01 0854.40
2009/04/23 16:36:31.7    -119   -119    131    169    213 225.0  41.7  34130  289.08 0854.40
2009/04/23 16:36:31.8      39    -29    127     49    136 126.9  78.2  34144  289.30 0854.40
2009/04/23 16:36:31.9     -15   -109    137    111    176 188.1  56.6  34136  289.18 0854.40
2009/04/23 16:36:32.0      14    -66    138     68    153 167.5  72.4  34140  289.23 0854.40
2009/04/23 16:36:32.1       7     22    108     24    110  18.7  88.5  34152  289.45 0854.40
2009/04/23 16:36:32.2     133    -76    214    154    263 119.8  60.6  34138  289.20 0854.40
2009/04/23 16:36:32.3      24    -36     98     44    107 145.7  74.0  34140  289.24 0854.40
2009/04/23 16:36:32.4      84      0    112     85    140  89.6  59.0  34136  289.18 0854.40
2009/04/23 16:36:32.5     127    -91    142    157    211 125.9  46.9  34144  289.31 0854.40
2009/04/23 16:36:32.6      77    -44    121     89    150 119.8  60.5  34158  289.53 0854.40
2009/04/23 16:36:32.7     109   -132    182    172    250 140.6  51.6  34148  289.36 0854.40
2009/04/23 16:36:32.8      63   -145    143    159    213 156.3  46.9  34148  289.38 0854.40
2009/04/23 16:36:32.9     110    -80    144    137    198 126.0  51.6  34138  289.19 0854.40
2009/04/23 16:36:33.0     -15    -15    125     22    126 225.0  90.0  34154  289.48 0854.40
2009/04/23 16:36:33.1       4    -26    155     27    157 170.2  90.0  34154  289.46 0854.40
2009/04/23 16:36:33.2      -6    -28    122     29    125 193.4  86.9  34156  289.50 0854.40
2009/04/23 16:36:33.3    -123     30    156    127    201 283.7  56.6  34144  289.30 0854.40
2009/04/23 16:36:33.4     -74     -1     77     75    107 269.1  50.1  34142  289.26 0854.40
2009/04/23 16:36:33.5     -59    -23     81     64    103 248.3  57.5  34152  289.45 0854.40
2009/04/23 16:36:33.6     -29     21     32     36     48 306.0  47.9  34152  289.43 0854.40
2009/04/23 16:36:33.7     -38   -131    123    137    184 196.5  46.9  34134  289.13 0854.40
2009/04/23 16:36:33.8      -1   -181    171    182    249 180.5  48.2  34130  289.08 0854.40
2009/04/23 16:36:33.9     -35   -225    221    228    317 188.9  49.1  34136  289.17 0854.40
2009/04/23 16:36:34.0      43   -178    214    184    282 166.2  54.8  34148  289.36 0854.40
2009/04/23 16:36:34.1     -20   -148    210    150    258 188.0  60.8  34146  289.33 0854.40
2009/04/23 16:36:34.2      11   -147    218    148    263 175.5  62.7  34138  289.21 0854.40
2009/04/23 16:36:34.3      67    -53    157     86    179 128.2  68.9  34158  289.55 0854.40
2009/04/23 16:36:34.4      33    -12    116     36    121 110.0  82.3  34160  289.57 0854.40
2009/04/23 16:36:34.5     141   -115    134    183    226 129.3  39.7  34150  289.40 0854.40
2009/04/23 16:36:34.6     126    -42    130    133    185 108.6  49.4  34150  289.40 0854.40
2009/04/23 16:36:34.7     -47    -34    157     59    167 234.0  78.6  34156  289.50 0854.40
2009/04/23 16:36:34.8     -51    -80    159     96    185 212.5  66.0  34154  289.48 0854.40
2009/04/23 16:36:34.9     -56    -37     90     68    112 236.7  59.0  34154  289.48 0854.40
2009/04/23 16:36:35.0      12      4     54     13     55  71.8  88.0  34166  289.69 0854.40
2009/04/23 16:36:35.1     -29    -92    121     97    155 197.8  56.4  34152  289.43 0854.40
2009/04/23 16:36:35.2     -35   -106     89    112    143 198.7  42.7  34142  289.26 0854.40
2009/04/23 16:36:35.3     -67   -152     85    167    187 203.8  29.1  34130  289.06 0854.40
2009/04/23 16:36:35.4     -72   -213    124    225    256 198.7  31.4  34140  289.24 0854.40
2009/04/23 16:36:35.5     -16   -110    173    112    206 188.5  64.4  34148  289.36 0854.40
2009/04/23 16:36:35.6     -20   -140    107    142    177 188.1  40.7  34140  289.23 0854.40
2009/04/23 16:36:35.7     -69   -166      9    181    182 202.7   2.9  34130  289.08 0854.40
2009/04/23 16:36:35.8    -116   -159     16    197    198 216.1   4.9  34130  289.08 0854.40
2009/04/23 16:36:35.9    -139   -133     28    193    196 226.2   8.5  34130  289.08 0854.40
2009/04/23 16:36:36.0    -117   -117     27    166    169 225.0   9.5  34132  289.09 0854.40
2009/04/23 16:36:36.1     -94   -138     46    168    175 214.3  15.3  34138  289.21 0854.40
2009/04/23 16:36:36.2    -100   -202      7    226    227 206.5   1.8  34138  289.21 0854.40
2009/04/23 16:36:36.3     -76   -235     62    247    255 197.9  14.2  34142  289.25 0854.40
2009/04/23 16:36:36.4     -12   -155    100    156    185 184.5  35.6  34144  289.30 0854.43
2009/04/23 16:36:36.5      57   -179    139    189    234 162.2  40.1  34138  289.19 0854.43
2009/04/23 16:36:36.6     -88   -233    170    250    302 200.7  37.4  34126  288.98 0854.43
2009/04/23 16:36:36.7     -52   -282    166    287    331 190.5  32.8  34128  289.03 0854.43
2009/04/23 16:36:36.8     100   -242    174    262    314 157.5  36.7  34138  289.19 0854.43
2009/04/23 16:36:36.9     147   -252    143    292    325 149.7  27.9  34134  289.14 0854.43
2009/04/23 16:36:37.0      89   -265    111    280    301 161.3  23.0  34134  289.14 0854.43
2009/04/23 16:36:37.1     139   -283     45    316    320 153.7   8.2  34138  289.19 0854.43
2009/04/23 16:36:37.2     169   -274     75    323    332 148.3  13.2  34138  289.20 0854.43
2009/04/23 16:36:37.3     195   -214    -11    290    291 137.7  -2.2  34138  289.19 0854.43
2009/04/23 16:36:37.4     199   -220     15    297    298 137.9   2.9  34136  289.17 0854.43
2009/04/23 16:36:37.5     192   -263     92    326    339 143.9  15.9  34140  289.23 0854.43
2009/04/23 16:36:37.6      66   -301    106    309    327 167.6  19.1  34138  289.19 0854.43
2009/04/23 16:36:37.7     -66   -345    206    352    407 190.9  33.3  34142  289.28 0854.43
2009/04/23 16:36:37.8    -137   -387    167    411    443 199.6  23.2  34142  289.26 0854.43
2009/04/23 16:36:37.9    -231   -429    167    488    516 208.3  18.9  34138  289.20 0854.43
2009/04/23 16:36:38.0    -106   -508    119    520    534 191.8  12.9  34142  289.26 0854.43
2009/04/23 16:36:38.1     -61   -535    204    539    576 186.6  21.7  34154  289.48 0854.43
2009/04/23 16:36:38.2     -72   -504    100    510    520 188.2  11.1  34132  289.10 0854.43
2009/04/23 16:36:38.3    -234   -560    174    608    633 202.7  16.0  34128  289.03 0854.43
2009/04/23 16:36:38.4    -293   -506     81    585    591 210.1   7.9  34138  289.20 0854.42
2009/04/23 16:36:38.5    -141   -316    -15    347    348 204.1  -2.5  34134  289.13 0854.42
2009/04/23 16:36:38.6      -6    -77    172     78    188 184.5  73.8  34152  289.45 0854.42
2009/04/23 16:36:38.7    -126    -80    149    150    211 237.6  50.0  34146  289.35 0854.42
2009/04/23 16:36:38.8    -171     -6    173    172    243 267.9  50.1  34150  289.41 0854.42
2009/04/23 16:36:38.9    -268     32    148    271    308 277.0  31.3  34148  289.37 0854.42
2009/04/23 16:36:39.0    -188     37     20    192    194 281.2   6.1  34140  289.24 0854.42
2009/04/23 16:36:39.1     -95     40    142    104    176 293.1  60.3  34144  289.31 0854.42
2009/04/23 16:36:39.2    -205     72    163    218    272 289.3  40.4  34154  289.47 0854.42
2009/04/23 16:36:39.3    -120     55    177    133    221 294.8  59.4  34156  289.52 0854.42
2009/04/23 16:36:39.4    -341   -131     56    366    371 249.0   8.8  34142  289.25 0854.42
2009/04/23 16:36:39.5    -279     14     24    280    282 273.0   5.0  34146  289.32 0854.42
2009/04/23 16:36:39.6    -318     83    122    329    350 284.6  21.1  34158  289.54 0854.42
2009/04/23 16:36:39.7     -50    -72    219     88    236 214.7  77.1  34154  289.48 0854.42
2009/04/23 16:36:39.8      32   -294    339    296    450 173.7  54.4  34144  289.31 0854.42
2009/04/23 16:36:39.9      32   -138    271    142    305 166.6  70.4  34140  289.22 0854.42
2009/04/23 16:36:40.0      37   -258    289    261    389 171.8  53.4  34140  289.23 0854.42
2009/04/23 16:36:40.1     110   -261    170    284    330 157.2  34.0  34138  289.19 0854.42
2009/04/23 16:36:40.2     113   -202     51    232    238 150.6  12.4  34140  289.22 0854.42
2009/04/23 16:36:40.3    -153   -219    -36    268    271 215.0  -7.7  34130  289.05 0854.42
2009/04/23 16:36:40.4    -117   -144     89    186    206 219.0  27.3  34136  289.16 0854.41
2009/04/23 16:36:40.5    -120   -276    170    302    346 203.6  31.9  34142  289.25 0854.41
2009/04/23 16:36:40.6     -81   -347    160    357    391 193.1  25.8  34136  289.18 0854.41
2009/04/23 16:36:40.7      93   -265     88    282    296 160.6  17.3  34134  289.14 0854.41
2009/04/23 16:36:40.8     -21   -188     77    190    205 186.5  23.1  34128  289.02 0854.41
2009/04/23 16:36:40.9     -91   -142     19    169    171 212.7   6.7  34126  289.01 0854.41
2009/04/23 16:36:41.0    -214   -118     65    245    254 241.2  15.0  34138  289.19 0854.41
2009/04/23 16:36:41.1     -65   -164    154    177    234 201.8  45.6  34138  289.19 0854.41
2009/04/23 16:36:41.2       9    -25    180     27    182 160.0  90.0  34150  289.40 0854.41
2009/04/23 16:36:41.3      51   -175    179    183    255 163.7  49.2  34152  289.42 0854.41
2009/04/23 16:36:41.4      45   -221    243    226    331 168.4  52.2  34140  289.24 0854.41
2009/04/23 16:36:41.5     -50   -248    252    254    357 191.6  50.0  34120  288.88 0854.41
2009/04/23 16:36:41.6      -5   -184    197    185    270 181.8  52.1  34114  288.80 0854.41
2009/04/23 16:36:41.7    -391    -84    113    401    417 257.8  15.8  34122  288.92 0854.41
2009/04/23 16:36:41.8    -341    -99    131    356    379 253.8  21.0  34128  289.03 0854.41
2009/04/23 16:36:41.9    -342    110     91    360    372 287.9  14.3  34120  288.91 0854.41
2009/04/23 16:36:42.0    -358    161     79    393    401 294.3  11.4  34126  288.99 0854.41
2009/04/23 16:36:42.1       2    -25    141     26    143 175.5  90.0  34132  289.11 0854.41
2009/04/23 16:36:42.2      53   -156    130    165    210 161.1  42.2  34126  288.99 0854.41
2009/04/23 16:36:42.3      20   -266    161    267    311 175.5  34.0  34126  289.00 0854.41
2009/04/23 16:36:42.4    -131   -261    120    293    316 206.7  23.6  34130  289.05 0854.39
2009/04/23 16:36:42.5     -34   -317     25    319    321 186.2   4.5  34124  288.97 0854.39
2009/04/23 16:36:42.6     -96   -386     14    398    399 194.1   2.1  34130  289.06 0854.39
2009/04/23 16:36:42.7    -275   -322    -75    424    431 220.5 -10.1  34118  288.87 0854.39
2009/04/23 16:36:42.8    -222   -261     29    343    345 220.4   4.9  34124  288.96 0854.39
2009/04/23 16:36:42.9     -74   -181    -13    196    197 202.3  -3.9  34122  288.92 0854.39
2009/04/23 16:36:43.0     -10   -374     53    375    379 181.6   8.1  34104  288.64 0854.39
2009/04/23 16:36:43.1     -59   -417    -19    422    423 188.1  -2.7  34108  288.70 0854.39
2009/04/23 16:36:43.2     -79   -405     58    413    418 191.1   8.0  34106  288.65 0854.39
2009/04/23 16:36:43.3     -17   -443     63    444    449 182.2   8.1  34108  288.68 0854.39
2009/04/23 16:36:43.4    -208   -456    -52    502    505 204.5  -6.0  34098  288.51 0854.39
2009/04/23 16:36:43.5    -100   -352    -41    367    370 195.9  -6.5  34108  288.69 0854.39
2009/04/23 16:36:43.6     -34   -320    116    322    343 186.1  19.9  34112  288.77 0854.39
2009/04/23 16:36:43.7    -151   -320    216    355    415 205.3  34.2  34120  288.91 0854.39
2009/04/23 16:36:43.8    -252   -183     89    312    325 234.1  16.0  34122  288.92 0854.39
2009/04/23 16:36:43.9    -139   -273    101    307    324 207.1  18.2  34114  288.80 0854.39
2009/04/23 16:36:44.0    -232   -240    144    335    364 224.0  24.9  34112  288.77 0854.39
2009/04/23 16:36:44.1    -259   -145     76    297    307 240.7  14.5  34104  288.63 0854.39
2009/04/23 16:36:44.2    -283   -123    -15    309    310 246.5  -2.8  34116  288.83 0854.39
2009/04/23 16:36:44.3    -276    -62    -11    284    285 257.2  -2.2  34116  288.83 0854.39
2009/04/23 16:36:44.4    -218    -75    -77    231    243 250.9 -23.6  34118  288.85 0854.38
2009/04/23 16:36:44.5    -171    -41     16    176    177 256.5   5.2  34120  288.91 0854.38
2009/04/23 16:36:44.6    -259     99     88    278    292 291.1  17.7  34126  288.98 0854.38
2009/04/23 16:36:44.7    -281     72     24    291    293 284.4   4.9  34134  289.14 0854.38
2009/04/23 16:36:44.8    -252    -47    -77    257    269 259.4 -16.8  34138  289.19 0854.38
2009/04/23 16:36:44.9    -345    -54   -138    350    376 261.1 -27.3  34120  288.89 0854.38
2009/04/23 16:36:45.0    -321   -161   -108    360    375 243.4 -21.7  34110  288.72 0854.38
2009/04/23 16:36:45.1    -512   -105   -104    523    534 258.3 -11.3  34128  289.04 0854.38
2009/04/23 16:36:45.2    -613   -102   -206    622    656 260.5 -18.3  34116  288.82 0854.38
2009/04/23 16:36:45.3    -579   -229   -134    623    638 248.4 -12.2  34120  288.89 0854.38
2009/04/23 16:36:45.4    -406   -135   -177    428    463 251.6 -28.1  34102  288.60 0854.38
2009/04/23 16:36:45.5    -409   -157   -134    439    458 249.0 -21.8  34108  288.68 0854.38
2009/04/23 16:36:45.6    -468   -125    -73    485    491 255.0  -8.6  34120  288.90 0854.38
2009/04/23 16:36:45.7    -502     18   -180    503    535 272.1 -19.7  34144  289.29 0854.38
2009/04/23 16:36:45.8    -529   -107   -201    540    576 258.6 -25.8  34114  288.80 0854.38
2009/04/23 16:36:45.9    -630     -1   -128    631    644 269.9 -11.5  34124  288.96 0854.38
2009/04/23 16:36:46.0    -402     23   -132    403    424 273.3 -23.5  34118  288.87 0854.38
2009/04/23 16:36:46.1    -390    149     -9    418    419 290.9  -1.3  34128  289.02 0854.38
2009/04/23 16:36:46.2    -457    158    -82    484    491 289.1  -9.7  34114  288.79 0854.38
2009/04/23 16:36:46.3    -442     29    -67    443    449 273.8  -8.7  34102  288.60 0854.38
2009/04/23 16:36:46.4    -420    190    -44    462    465 294.4  -5.5  34114  288.80 0854.39
2009/04/23 16:36:46.5    -345    -58    -33    350    352 260.4  -5.5  34130  289.08 0854.39
2009/04/23 16:36:46.6    -366    -53   -181    370    411 261.7 -32.4  34124  288.96 0854.39
2009/04/23 16:36:46.7    -211   -301     31    368    370 215.0   4.9  34116  288.84 0854.39
2009/04/23 16:36:46.8    -159   -237    106    286    305 213.8  21.0  34124  288.97 0854.39
2009/04/23 16:36:46.9    -166   -146     98    222    242 228.7  25.2  34132  289.09 0854.39
2009/04/23 16:36:47.0    -227    -88     12    244    245 248.7   2.9  34130  289.05 0854.39
2009/04/23 16:36:47.1    -504   -318    -33    596    597 237.8  -3.2  34128  289.02 0854.39
2009/04/23 16:36:47.2    -438    -88     86    447    456 258.6  11.0  34130  289.05 0854.39
2009/04/23 16:36:47.3    -477   -125     69    494    499 255.3   8.0  34124  288.96 0854.39
2009/04/23 16:36:47.4    -536    -95    -64    545    549 259.9  -6.7  34120  288.89 0854.37
2009/04/23 16:36:47.5    -583     71   -129    588    603 277.0 -12.4  34092  288.41 0854.37
2009/04/23 16:36:47.6    -499   -135   -177    518    547 254.9 -23.9  34090  288.40 0854.37
2009/04/23 16:36:47.7    -449   -130   -113    468    482 253.8 -13.7  34114  288.78 0854.37
2009/04/23 16:36:47.8    -691    -87   -156    697    715 262.8 -12.7  34110  288.74 0854.37
2009/04/23 16:36:47.9    -621    -32   -120    622    634 267.0 -11.0  34124  288.96 0854.37
2009/04/23 16:36:48.0    -702    -31   -247    703    745 267.4 -24.6  34098  288.51 0854.37
2009/04/23 16:36:48.1    -570    -88   -225    577    619 261.2 -26.9  34108  288.68 0854.37
2009/04/23 16:36:48.2    -548    -81   -171    555    581 261.5 -17.2  34118  288.86 0854.37
2009/04/23 16:36:48.3    -741   -130   -206    753    780 260.0 -20.0  34092  288.42 0854.37
2009/04/23 16:36:48.4    -495    -49   -189    498    532 264.3 -26.2  34086  288.33 0854.37
2009/04/23 16:36:48.5    -671     22   -209    672    703 271.9 -22.3  34082  288.24 0854.37
2009/04/23 16:36:48.6    -706     99   -271    714    763 278.0 -26.4  34096  288.48 0854.37
2009/04/23 16:36:48.7    -671     24   -239    672    713 272.1 -24.7  34116  288.81 0854.37
2009/04/23 16:36:48.8    -675     67   -319    679    750 275.7 -31.5  34084  288.30 0854.37
2009/04/23 16:36:48.9    -528    134   -264    545    605 284.3 -32.1  34102  288.59 0854.37
2009/04/23 16:36:49.0    -533    125   -224    548    592 283.3 -27.9  34096  288.48 0854.37
2009/04/23 16:36:49.1    -552    157   -303    574    649 285.9 -34.5  34080  288.23 0854.37
2009/04/23 16:36:49.2    -474     56   -316    478    573 276.8 -40.9  34078  288.19 0854.37
2009/04/23 16:36:49.3    -430    176   -352    465    583 292.3 -45.2  34080  288.23 0854.37
2009/04/23 16:36:49.4    -398    174   -175    435    468 293.6 -27.5  34112  288.75 0854.40
2009/04/23 16:36:49.5    -380     40   -221    383    442 276.1 -37.1  34084  288.29 0854.40
2009/04/23 16:36:49.6    -355    -27   -180    356    398 265.6 -33.3  34086  288.32 0854.40
2009/04/23 16:36:49.7    -227     45   -245    232    337 281.4 -56.3  34108  288.68 0854.40
2009/04/23 16:36:49.8    -414    -83   -131    423    442 258.6 -22.3  34126  288.99 0854.40
2009/04/23 16:36:49.9    -238     81   -179    252    309 288.8 -43.5  34112  288.76 0854.40
2009/04/23 16:36:50.0    -263    103    -99    283    301 291.5 -19.4  34122  288.93 0854.40
2009/04/23 16:36:50.1    -273     61    -89    280    293 282.6 -22.8  34116  288.83 0854.40
2009/04/23 16:36:50.2    -208     22   -219    210    303 276.1 -55.8  34098  288.51 0854.40
2009/04/23 16:36:50.3    -382    189    -56    427    431 296.4  -7.5  34096  288.48 0854.40
2009/04/23 16:36:50.4    -547     40   -186    549    579 274.3 -23.7  34098  288.51 0854.40
2009/04/23 16:36:50.5    -629     -3   -157    630    650 269.7 -14.1  34112  288.76 0854.40
2009/04/23 16:36:50.6    -825    -63   -191    828    850 265.6 -13.0  34108  288.68 0854.40
2009/04/23 16:36:50.7    -722   -133    -42    735    737 259.5  -3.3  34102  288.60 0854.40
2009/04/23 16:36:50.8    -626   -202    -14    658    659 252.1  -1.3  34100  288.55 0854.40
2009/04/23 16:36:50.9    -373   -450     61    585    589 219.6   6.0  34112  288.76 0854.40
2009/04/23 16:36:51.0    -280   -268   -126    388    407 226.3 -23.3  34104  288.64 0854.40
2009/04/23 16:36:51.1    -326   -275   -152    427    454 229.8 -19.7  34110  288.72 0854.40
2009/04/23 16:36:51.2    -285   -390   -166    484    512 216.1 -19.0  34104  288.62 0854.40
2009/04/23 16:36:51.3    -276   -334   -271    434    511 219.6 -39.4  34090  288.40 0854.40
2009/04/23 16:36:51.4    -240   -290   -319    377    493 219.7 -48.9  34092  288.43 0854.43
2009/04/23 16:36:51.5    -348   -285   -264    450    521 230.7 -37.7  34098  288.52 0854.43
2009/04/23 16:36:51.6    -424   -312   -259    527    587 233.6 -32.6  34096  288.50 0854.43
2009/04/23 16:36:51.7    -393   -498   -220    635    672 218.3 -24.3  34078  288.17 0854.43
2009/04/23 16:36:51.8    -174   -526   -119    554    567 198.3 -12.2  34084  288.28 0854.43
2009/04/23 16:36:51.9    -249   -580     44    632    634 203.2   4.0  34092  288.43 0854.43
2009/04/23 16:36:52.0    -355   -512    -58    624    627 214.7  -5.3  34098  288.52 0854.43
2009/04/23 16:36:52.1    -437   -358     71    566    571 230.7   7.2  34102  288.58 0854.43
2009/04/23 16:36:52.2    -535   -263    -14    597    598 243.8  -1.4  34098  288.53 0854.43
2009/04/23 16:36:52.3    -497   -244    -33    554    555 243.8  -3.5  34110  288.72 0854.43
2009/04/23 16:36:52.4    -377   -311     86    489    497 230.5  10.0  34098  288.51 0854.43
2009/04/23 16:36:52.5    -554   -319    -62    640    644 240.1  -5.6  34096  288.50 0854.43
2009/04/23 16:36:52.6    -499   -374   -193    624    653 233.2 -22.2  34102  288.59 0854.43
2009/04/23 16:36:52.7    -243   -653     66    697    701 200.4   5.4  34096  288.49 0854.43
2009/04/23 16:36:52.8    -533   -340    -53    633    636 237.4  -4.8  34076  288.16 0854.43
2009/04/23 16:36:52.9    -534   -287    -99    607    616 241.7  -9.3  34092  288.42 0854.43
2009/04/23 16:36:53.0    -702   -321   -269    773    818 245.4 -24.4  34116  288.81 0854.43
2009/04/23 16:36:53.1    -628   -243   -226    674    712 248.8 -18.6  34100  288.57 0854.43
2009/04/23 16:36:53.2    -586   -472    -18    753    754 231.2  -1.4  34090  288.38 0854.43
2009/04/23 16:36:53.3    -551   -595      5    812    813 222.8   0.4  34072  288.08 0854.43
2009/04/23 16:36:53.4    -354   -541    112    647    657 213.2   9.9  34094  288.47 0854.42
2009/04/23 16:36:53.5    -411   -468    150    624    642 221.3  13.6  34090  288.40 0854.42
2009/04/23 16:36:53.6    -488   -470    149    678    695 226.1  12.4  34104  288.63 0854.42
2009/04/23 16:36:53.7    -643   -357     57    736    739 241.0   4.5  34104  288.62 0854.42
2009/04/23 16:36:53.8    -538   -296   -144    614    631 241.2 -13.3  34128  289.03 0854.42
2009/04/23 16:36:53.9    -386   -430    226    578    620 221.9  22.5  34100  288.54 0854.42
2009/04/23 16:36:54.0    -331   -351    381    483    615 223.3  42.3  34110  288.71 0854.42
2009/04/23 16:36:54.1    -507   -316    224    598    638 238.1  21.6  34106  288.65 0854.42
2009/04/23 16:36:54.2    -378   -470     87    604    611 218.8   8.2  34098  288.53 0854.42
2009/04/23 16:36:54.3    -301   -488    256    574    628 211.6  25.7  34102  288.58 0854.42
2009/04/23 16:36:54.5    -228   -452    133    507    525 206.8  14.7  34100  288.57 0854.42
2009/04/23 16:36:54.6     -85   -280    148    293    328 197.0  28.7  34108  288.70 0854.42
2009/04/23 16:36:54.7     -23   -422    124    423    441 183.2  16.4  34106  288.65 0854.42
2009/04/23 16:36:54.8      67   -310    256    318    408 167.7  43.0  34100  288.57 0854.42
2009/04/23 16:36:54.9     -15   -323    243    324    405 182.8  40.7  34086  288.33 0854.42
2009/04/23 16:36:55.0     127   -472    230    490    541 164.9  27.1  34100  288.55 0854.42
2009/04/23 16:36:55.1     194   -475    144    514    534 157.8  15.7  34100  288.57 0854.42
2009/04/23 16:36:55.2     256   -398    221    474    522 147.2  26.9  34100  288.54 0854.42
2009/04/23 16:36:55.3     245   -341    241    420    484 144.3  32.4  34094  288.46 0854.42
2009/04/23 16:36:55.4     247   -398    167    469    497 148.1  20.4  34096  288.49 0854.42
2009/04/23 16:36:55.5     260   -440    140    512    531 149.4  15.3  34094  288.45 0854.43
2009/04/23 16:36:55.6     240   -376    275    447    524 147.5  34.5  34090  288.40 0854.43
2009/04/23 16:36:55.7      95   -331    323    345    472 164.0  48.0  34104  288.63 0854.43
2009/04/23 16:36:55.8      67   -348    304    355    467 169.0  44.8  34094  288.46 0854.43
2009/04/23 16:36:55.9     200   -182    298    271    402 132.2  53.2  34100  288.55 0854.43
2009/04/23 16:36:56.0     194    -61    306    204    367 107.7  63.3  34114  288.78 0854.43
2009/04/23 16:36:56.1     -50     11    263     52    268 282.4  89.1  34128  289.02 0854.43
2009/04/23 16:36:56.2      32   -328    327    330    464 174.3  49.9  34112  288.75 0854.43
2009/04/23 16:36:56.3     -12   -404    301    405    504 181.8  40.2  34104  288.61 0854.43
2009/04/23 16:36:56.4     -53   -451    290    455    539 186.7  35.6  34102  288.59 0854.43
2009/04/23 16:36:56.5     -51   -367    308    371    482 188.0  43.8  34106  288.65 0854.43
2009/04/23 16:36:56.6    -114   -426    292    442    529 195.1  36.6  34100  288.54 0854.43
2009/04/23 16:36:56.7     -76   -446    245    453    515 189.7  30.8  34104  288.61 0854.43
2009/04/23 16:36:56.8      18   -165    287    167    332 173.5  67.2  34112  288.76 0854.43
2009/04/23 16:36:56.9     -52    -22    239     57    245 246.5  86.9  34122  288.94 0854.43
2009/04/23 16:36:57.0     106     13    243    107    265  82.5  74.8  34140  289.23 0854.43
2009/04/23 16:36:57.1     264   -120    233    291    372 114.4  42.9  34124  288.96 0854.43
2009/04/23 16:36:57.2    -111   -174    336    207    394 212.5  65.6  34152  289.42 0854.43
2009/04/23 16:36:57.3       1    -49    261     50    265 178.2  89.6  34140  289.24 0854.43
2009/04/23 16:36:57.4     -65     -8    222     66    231 263.0  82.8  34152  289.43 0854.43
2009/04/23 16:36:57.5     -71     -1     92     72    116 269.2  57.5  34136  289.18 0854.40
2009/04/23 16:36:57.6     -70      1    170     71    184 270.9  76.6  34148  289.38 0854.40
2009/04/23 16:36:57.7     -10   -124    185    125    223 184.9  62.8  34126  288.99 0854.40
2009/04/23 16:36:57.8     -36      0    140     37    144 270.0  84.9  34140  289.23 0854.40
2009/04/23 16:36:57.9     -55    -66    191     87    209 219.6  73.8  34134  289.14 0854.40
2009/04/23 16:36:58.0     -88    -99    194    133    235 221.5  62.6  34126  288.99 0854.40
2009/04/23 16:36:58.1    -264    -54    152    270    309 258.3  31.9  34142  289.25 0854.40
2009/04/23 16:36:58.2    -191    -55    150    199    249 253.8  40.7  34134  289.12 0854.40
2009/04/23 16:36:58.3    -152     46    198    159    253 286.9  57.3  34144  289.31 0854.40
2009/04/23 16:36:58.4    -376   -113    263    393    472 253.2  37.0  34142  289.27 0854.40
2009/04/23 16:36:58.5    -328    -10    184    329    376 268.2  31.5  34152  289.42 0854.40
2009/04/23 16:36:58.6    -280    -60    117    287    309 257.8  23.1  34132  289.09 0854.40
2009/04/23 16:36:58.7    -338    -93     50    351    355 254.5   8.1  34126  289.01 0854.40
2009/04/23 16:36:58.8    -413    -90    -55    423    427 257.6  -7.5  34128  289.02 0854.40
2009/04/23 16:36:58.9    -327    -52    -14    332    333 260.9  -2.5  34110  288.74 0854.40
2009/04/23 16:36:59.0    -346    -36    -16    348    349 264.0  -2.7  34104  288.62 0854.40
2009/04/23 16:36:59.1    -261    -25     -9    263    264 264.5  -2.1  34096  288.49 0854.40
2009/04/23 16:36:59.2    -249     50    -18    254    255 281.4  -4.1  34140  289.24 0854.40
2009/04/23 16:36:59.3       0     28    134     29    137 359.1  89.0  34152  289.45 0854.40
2009/04/23 16:36:59.4       0     39    156     40    161 359.1  85.6  34162  289.60 0854.40
2009/04/23 16:36:59.5      -6      5    147      8    147 309.5  90.0  34160  289.58 0854.35
2009/04/23 16:36:59.6     124    -28    127    128    180 102.8  50.2  34148  289.36 0854.35
2009/04/23 16:36:59.7      -5     91     91     92    129 356.9  50.0  34146  289.33 0854.35
2009/04/23 16:36:59.8      26     79    122     84    148  18.7  62.6  34164  289.65 0854.35
2009/04/23 16:36:59.9      57     44     90     73    115  52.2  56.4  34162  289.62 0854.35
2009/04/23 16:37:00.0      88    151     32    176    179  30.3  10.3  34138  289.21 0854.35
2009/04/23 16:37:00.1     195     98     60    219    228  63.4  15.3  34136  289.16 0854.35
2009/04/23 16:37:00.2     153     58     85    164    184  69.2  29.5  34136  289.18 0854.35
2009/04/23 16:37:00.3     203     88     63    222    231  66.5  16.0  34140  289.24 0854.35
2009/04/23 16:37:00.4     216     52    148    223    267  76.5  36.5  34176  289.83 0854.35
2009/04/23 16:37:00.5     197     77    131    212    249  68.5  34.8  34168  289.71 0854.35
2009/04/23 16:37:00.6     232     25    221    234    321  83.8  48.4  34164  289.64 0854.35
2009/04/23 16:37:00.7     246     55    189    253    315  77.4  40.6  34182  289.95 0854.35
2009/04/23 16:37:00.8     248    152     89    292    306  58.5  17.1  34182  289.93 0854.35
2009/04/23 16:37:00.9     214    119    116    245    271  60.9  27.1  34182  289.93 0854.35
2009/04/23 16:37:01.0     179    114     82    213    228  57.6  22.0  34186  290.01 0854.35
2009/04/23 16:37:01.1     107     72     92    130    159  55.9  38.8  34190  290.08 0854.35
2009/04/23 16:37:01.2       0     52    117     53    128   0.9  74.0  34196  290.19 0854.35
2009/04/23 16:37:01.3     -72     64     78     97    124 311.8  42.7  34182  289.94 0854.35
2009/04/23 16:37:01.4     -18     55     66     58     87 341.5  53.7  34182  289.94 0854.35
2009/04/23 16:37:01.5      90    123     36    153    158  36.1  13.2  34230  290.77 0854.32
2009/04/23 16:37:01.6      72     91     44    117    125  38.3  21.0  34234  290.84 0854.32
2009/04/23 16:37:01.7      95     55     73    111    132  59.8  36.0  34238  290.89 0854.32
2009/04/23 16:37:01.8     136    155     56    207    215  41.2  15.3  34224  290.67 0854.32
2009/04/23 16:37:01.9     203     74    135    217    255  70.0  35.0  34222  290.61 0854.32
2009/04/23 16:37:02.0     175    132    121    220    251  52.9  31.3  34202  290.27 0854.32
2009/04/23 16:37:02.1      59    -52    156     79    174 131.3  71.4  34162  289.62 0854.32
2009/04/23 16:37:02.2     110    150    108    187    215  36.3  32.4  34190  290.09 0854.32
2009/04/23 16:37:02.3       7     -6    179     10    179 129.5  90.0  34208  290.40 0854.32
2009/04/23 16:37:02.4      46     36    107     59    122  51.4  68.8  34182  289.94 0854.32
2009/04/23 16:37:02.5     -34    -94     68    100    120 200.0  37.6  34180  289.92 0854.32
2009/04/23 16:37:02.6     152     11    146    153    211  85.7  48.7  34186  290.02 0854.32
2009/04/23 16:37:02.7     263      8    184    264    321  88.1  38.3  34178  289.88 0854.32
2009/04/23 16:37:02.8     273      0    221    274    352  90.0  43.0  34172  289.76 0854.32
2009/04/23 16:37:02.9     226     26    239    228    330  83.4  51.4  34176  289.85 0854.32
2009/04/23 16:37:03.0     210     24    257    212    333  83.4  56.4  34180  289.90 0854.32
2009/04/23 16:37:03.1     181     51    258    189    319  74.1  60.3  34202  290.27 0854.32
2009/04/23 16:37:03.2      80     35    219     88    236  66.5  77.1  34180  289.92 0854.32
2009/04/23 16:37:03.3      72     27    173     78    189  69.2  74.0  34180  289.92 0854.32
2009/04/23 16:37:03.4       2     43    147     44    153   3.6  82.8  34208  290.40 0854.32
2009/04/23 16:37:03.5      18     39    155     44    161  25.4  84.1  34216  290.53 0854.34
2009/04/23 16:37:03.6       6     29    167     30    169  11.6  90.0  34224  290.65 0854.34
2009/04/23 16:37:03.7     -41     92    140    101    172 335.9  61.1  34194  290.16 0854.34
2009/04/23 16:37:03.8    -166     71    100    181    206 293.3  31.3  34178  289.89 0854.34
2009/04/23 16:37:03.9    -316     64   -141    323    352 281.5 -29.5  34178  289.89 0854.34
2009/04/23 16:37:04.0    -189    200   -234    276    361 316.6 -48.9  34176  289.84 0854.34
2009/04/23 16:37:04.1    -234     83   -157    249    294 289.7 -39.9  34176  289.83 0854.34
2009/04/23 16:37:04.2    -111   -118    -52    163    171 223.2 -23.0  34178  289.89 0854.34
2009/04/23 16:37:04.3    -192     54     65    200    211 285.9  18.1  34184  289.99 0854.34
2009/04/23 16:37:04.4    -192    122     63    228    237 302.5  15.6  34172  289.76 0854.34
2009/04/23 16:37:04.5    -207    165    108    265    286 308.6  23.4  34188  290.05 0854.34
2009/04/23 16:37:04.6    -124    280    117    307    328 336.2  21.8  34224  290.66 0854.34
2009/04/23 16:37:04.7    -136    203    103    245    265 326.2  24.2  34182  289.93 0854.34
2009/04/23 16:37:04.8    -103     97    -48    142    149 313.1 -23.3  34164  289.63 0854.34
2009/04/23 16:37:04.9    -192    -42    -54    197    205 257.4 -15.4  34162  289.62 0854.34
2009/04/23 16:37:05.0    -223      1     29    224    226 270.4   7.5  34166  289.69 0854.34
2009/04/23 16:37:05.1      20    103     46    105    114  11.1  25.1  34214  290.48 0854.34
2009/04/23 16:37:05.2     -32    115    115    120    166 344.4  49.0  34244  290.99 0854.34
2009/04/23 16:37:05.3       5     89    128     90    156   3.6  61.5  34250  291.11 0854.34
2009/04/23 16:37:05.4     -17     64    113     67    131 344.9  66.7  34246  291.03 0854.34
2009/04/23 16:37:05.5     -24     51    106     57    120 334.7  69.3  34240  290.94 0854.35
2009/04/23 16:37:05.6    -104     -1     50    105    116 269.1  27.2  34210  290.43 0854.35
2009/04/23 16:37:05.7    -138    -22     40    140    146 260.8  16.3  34200  290.26 0854.35
2009/04/23 16:37:05.8    -127    -70     68    145    160 241.1  27.0  34212  290.45 0854.35
2009/04/23 16:37:05.9    -108    -95     65    145    158 228.7  25.9  34204  290.33 0854.35
2009/04/23 16:37:06.0    -135    -96      6    167    168 234.5   2.1  34186  290.01 0854.35
2009/04/23 16:37:06.1    -120    -85     29    148    151 234.5  11.1  34182  289.96 0854.35
2009/04/23 16:37:06.2    -229    -64     -5    238    239 254.3  -1.3  34176  289.83 0854.35
2009/04/23 16:37:06.3    -227    -21    -10    229    230 264.5  -2.6  34190  290.08 0854.35
2009/04/23 16:37:06.4    -169    -21    -57    171    180 262.8 -23.6  34186  290.01 0854.35
2009/04/23 16:37:06.5     -35    -24    115     43    122 234.9  79.1  34206  290.35 0854.35
2009/04/23 16:37:06.6      -4    -58    114     59    128 184.4  71.0  34212  290.47 0854.35
2009/04/23 16:37:06.7     -48   -103     65    114    131 205.3  32.4  34204  290.33 0854.35
2009/04/23 16:37:06.8     -44   -113    113    122    166 201.4  47.7  34210  290.41 0854.35
2009/04/23 16:37:06.9     -35    -60     88     70    112 210.7  56.4  34212  290.45 0854.35
2009/04/23 16:37:07.0      42   -125     11    133    134 161.3   4.9  34178  289.89 0854.35
2009/04/23 16:37:07.1      -2    -83      0     84     85 181.8   0.2  34182  289.94 0854.35
2009/04/23 16:37:07.2       0    -89     54     90    104 179.5  34.4  34186  290.02 0854.35
2009/04/23 16:37:07.3       4   -120     42    121    129 177.8  19.4  34184  289.97 0854.35
2009/04/23 16:37:07.4       8    -95     68     96    117 174.7  39.5  34184  289.97 0854.35
2009/04/23 16:37:07.5      27   -101     56    105    119 164.8  30.3  34168  289.70 0854.34
2009/04/23 16:37:07.6       7    -92     11     93     94 175.6   6.9  34160  289.58 0854.34
2009/04/23 16:37:07.7      19    -93    -61     95    112 168.4 -40.0  34144  289.31 0854.34
2009/04/23 16:37:07.8      67    -55    -46     88     99 129.5 -34.7  34144  289.31 0854.34
2009/04/23 16:37:07.9      89    -96     -2    132    133 137.2  -1.3  34146  289.33 0854.34
2009/04/23 16:37:08.0     130    -83     -1    155    156 122.4  -0.5  34134  289.14 0854.34
2009/04/23 16:37:08.1     216   -170    -49    275    280 128.2 -10.3  34134  289.12 0854.34
2009/04/23 16:37:08.2     231   -147    -33    275    277 122.5  -6.9  34140  289.24 0854.34
2009/04/23 16:37:08.3     221   -190     46    292    296 130.7   9.0  34140  289.24 0854.34
2009/04/23 16:37:08.4     143   -217     97    261    278 146.6  21.0  34138  289.19 0854.34
2009/04/23 16:37:08.5      39   -257     35    260    263 171.3   7.8  34136  289.15 0854.37
2009/04/23 16:37:08.6     -31   -189     44    192    198 189.3  13.1  34136  289.16 0854.37
2009/04/23 16:37:08.7     -83   -230    -52    245    251 200.0 -12.2  34132  289.09 0854.37
2009/04/23 16:37:08.8    -177   -264     72    318    327 213.9  12.9  34118  288.85 0854.37
2009/04/23 16:37:08.9     -50   -348      5    352    353 188.3   0.8  34128  289.03 0854.37
2009/04/23 16:37:09.0    -103   -245    -76    266    277 202.8 -16.0  34132  289.09 0854.37
2009/04/23 16:37:09.1     -79   -219    -77    233    245 200.0 -23.8  34134  289.14 0854.37
2009/04/23 16:37:09.2     -60   -229    -81    237    250 194.7 -23.6  34132  289.10 0854.37
2009/04/23 16:37:09.3     -52   -193    -84    201    217 195.2 -28.2  34120  288.91 0854.37
2009/04/23 16:37:09.4      21   -278    -10    279    280 175.5  -2.2  34130  289.07 0854.37
2009/04/23 16:37:09.5     -60   -351     -4    357    358 189.7  -0.7  34148  289.37 0854.37
2009/04/23 16:37:09.6      -4   -294     90    295    309 180.9  17.1  34156  289.51 0854.37
2009/04/23 16:37:09.7      58   -239    124    247    276 166.2  28.5  34156  289.49 0854.37
2009/04/23 16:37:09.8      74   -314    146    323    354 166.7  25.9  34142  289.25 0854.37
2009/04/23 16:37:09.9      -5   -349     42    350    353 180.9   6.9  34138  289.20 0854.37
2009/04/23 16:37:10.0     -84   -396     -7    405    406 192.0  -1.1  34134  289.12 0854.37
2009/04/23 16:37:10.1       8   -419     27    420    421 178.8   3.7  34122  288.92 0854.37
2009/04/23 16:37:10.2      35   -396     85    398    408 174.8  12.1  34126  289.00 0854.37
2009/04/23 16:37:10.3      30   -394     85    396    406 175.5  12.2  34130  289.08 0854.37
2009/04/23 16:37:10.4     -16   -335     86    336    347 182.8  14.4  34132  289.10 0854.37
2009/04/23 16:37:10.5     -65   -275     74    283    293 193.4  14.7  34126  289.00 0854.42
2009/04/23 16:37:10.6     -57   -349     83    354    364 189.3  13.2  34142  289.26 0854.42
2009/04/23 16:37:10.7       8   -382     29    383    385 178.8   4.3  34134  289.13 0854.42
2009/04/23 16:37:10.8     -79   -398     57    406    411 191.3   8.0  34126  288.99 0854.42
2009/04/23 16:37:10.9       1   -355      9    356    357 179.7   1.6  34120  288.91 0854.42
2009/04/23 16:37:11.0     -24   -318    -12    319    320 184.4  -2.2  34120  288.90 0854.42
2009/04/23 16:37:11.1      53   -311     23    316    317 170.2   4.3  34122  288.93 0854.42
2009/04/23 16:37:11.2      90   -259     91    275    290 160.8  18.4  34128  289.02 0854.42
2009/04/23 16:37:11.3      47   -276     92    281    296 170.2  18.1  34120  288.88 0854.42
2009/04/23 16:37:11.4     -48   -254     36    259    262 190.9   8.0  34120  288.88 0854.42
2009/04/23 16:37:11.5     -69   -154     73    169    184 204.1  24.9  34122  288.94 0854.42
2009/04/23 16:37:11.6    -121   -169     74    209    221 215.6  20.0  34118  288.87 0854.42
2009/04/23 16:37:11.7     -84   -206     95    223    242 202.3  24.3  34126  288.98 0854.42
2009/04/23 16:37:11.8    -139   -226     62    266    274 211.7  13.2  34138  289.19 0854.42
2009/04/23 16:37:11.9    -143   -196     61    243    251 216.1  14.3  34130  289.07 0854.42
2009/04/23 16:37:12.0    -187   -198     93    273    289 223.4  18.9  34134  289.14 0854.42
2009/04/23 16:37:12.1    -273   -188     89    332    344 235.4  15.1  34114  288.79 0854.42
2009/04/23 16:37:12.2    -187   -133    126    230    262 234.5  31.3  34112  288.76 0854.42
2009/04/23 16:37:12.3    -248   -145     14    288    289 239.6   2.9  34112  288.76 0854.42
2009/04/23 16:37:12.4    -260    -35      3    263    264 262.3   0.8  34094  288.44 0854.42
2009/04/23 16:37:12.5    -296     -6    -31    297    299 268.7  -6.1  34098  288.53 0854.43
2009/04/23 16:37:12.6    -317     24    -17    318    319 274.4  -3.2  34100  288.56 0854.43
2009/04/23 16:37:12.7    -176     58    -49    186    193 288.4 -15.0  34106  288.67 0854.43
2009/04/23 16:37:12.8    -160      7    -23    161    163 272.8  -8.2  34098  288.53 0854.43
2009/04/23 16:37:12.9    -126    -25    -31    129    133 258.5 -13.9  34104  288.64 0854.43
2009/04/23 16:37:13.0    -105    -26    -30    109    114 255.8 -15.5  34106  288.67 0854.43
2009/04/23 16:37:13.1    -112     -8    -33    113    118 265.7 -16.6  34122  288.92 0854.43
2009/04/23 16:37:13.2     -91     18      4     93     94 281.5   2.8  34122  288.94 0854.43
2009/04/23 16:37:13.3     -87     -3     17     88     90 267.9  11.1  34126  288.99 0854.43
2009/04/23 16:37:13.4     -81    -24     17     85     87 253.6  11.6  34130  289.08 0854.43
2009/04/23 16:37:13.5     -91    -34     11     98     99 249.2   6.9  34124  288.97 0854.43
2009/04/23 16:37:13.6    -136    -54     -5    147    148 248.2  -2.2  34136  289.16 0854.43
2009/04/23 16:37:13.7    -150    -40     44    156    163 254.9  15.8  34130  289.06 0854.43
2009/04/23 16:37:13.8    -144     11     28    145    148 274.4  11.1  34128  289.04 0854.43
2009/04/23 16:37:13.9    -151     16    -14    152    153 276.2  -5.6  34130  289.06 0854.43
2009/04/23 16:37:14.0    -102     34    -36    108    115 288.4 -18.7  34108  288.69 0854.43
2009/04/23 16:37:14.1    -121     16    -27    123    126 277.9 -12.4  34118  288.87 0854.43
2009/04/23 16:37:14.2    -169      3    -26    170    173 271.3  -8.8  34126  288.99 0854.43
2009/04/23 16:37:14.3    -106      0      5    107    108 270.4   2.9  34122  288.94 0854.43
2009/04/23 16:37:14.4     -62      0    -36     63     72 269.1 -35.8  34120  288.91 0854.43
2009/04/23 16:37:14.5     -24      0   -103     25    105 270.8 -90.0  34114  288.79 0854.41
2009/04/23 16:37:14.6     -35      7   -103     36    109 281.5 -85.6  34134  289.13 0854.41
2009/04/23 16:37:14.7      67    101    -36    122    127  33.4 -21.7  34130  289.06 0854.41
2009/04/23 16:37:14.8      89     91      6    128    129  44.5   2.9  34142  289.28 0854.41
2009/04/23 16:37:14.9      77     46      4     90     91  59.3   2.9  34144  289.30 0854.41
2009/04/23 16:37:15.0     111     26    -14    115    116  76.7  -7.3  34142  289.28 0854.41
2009/04/23 16:37:15.1     146    -48     -3    154    155 108.2  -1.3  34124  288.97 0854.41
2009/04/23 16:37:15.2     143    -38     -5    149    150 105.1  -2.2  34122  288.94 0854.41
2009/04/23 16:37:15.3     109    -97     28    147    150 131.8  11.0  34138  289.21 0854.41
2009/04/23 16:37:15.4     155    -70     28    171    174 114.4   9.5  34122  288.94 0854.41
2009/04/23 16:37:15.5     219      9     23    220    222  87.5   6.1  34116  288.84 0854.41
2009/04/23 16:37:15.6     240     78    -70    253    263  71.8 -15.5  34116  288.83 0854.41
2009/04/23 16:37:15.7     209     79    -45    224    229  69.2 -11.6  34092  288.42 0854.41
2009/04/23 16:37:15.8     248    -18    148    249    289  94.3  33.5  34116  288.83 0854.41
2009/04/23 16:37:15.9     281     13     17    282    283  87.2   3.6  34094  288.46 0854.41
2009/04/23 16:37:16.0     227    -22     94    229    247  95.7  23.6  34112  288.75 0854.41
2009/04/23 16:37:16.1     210     68     45    221    226  72.1  11.6  34102  288.58 0854.41
2009/04/23 16:37:16.2     164     77    -23    182    184  64.7  -7.2  34096  288.50 0854.41
2009/04/23 16:37:16.3     292    -50    -21    297    298  99.7  -4.1  34116  288.83 0854.41
2009/04/23 16:37:16.4     229   -234    -86    328    340 135.7 -14.7  34102  288.59 0854.41
2009/04/23 16:37:16.5     246   -203    -94    320    333 129.5 -21.1  34100  288.57 0854.40
2009/04/23 16:37:16.6     156   -214   -185    266    324 143.9 -42.8  34114  288.78 0854.40
2009/04/23 16:37:16.7     161   -140   -162    214    268 131.1 -45.3  34110  288.73 0854.40
2009/04/23 16:37:16.8     170    -86   -160    191    249 116.9 -48.5  34124  288.97 0854.40
2009/04/23 16:37:16.9     166     22   -201    168    261  82.3 -60.5  34132  289.10 0854.40
2009/04/23 16:37:17.0     203     27   -179    205    272  82.3 -50.2  34118  288.87 0854.40
2009/04/23 16:37:17.1     312     60   -119    318    339  79.0 -25.8  34104  288.62 0854.40
2009/04/23 16:37:17.2     280    -17    -25    281    283  93.5  -5.2  34120  288.88 0854.40
2009/04/23 16:37:17.3     262    -36    -38    265    268  98.0  -8.2  34110  288.73 0854.40
2009/04/23 16:37:17.4     276    -30    -72    278    288  96.2 -14.5  34104  288.63 0854.40
2009/04/23 16:37:17.5     271    -20     -1    272    273  94.3  -0.3  34100  288.54 0854.40
2009/04/23 16:37:17.6     262    -79     64    274    282 106.8  13.1  34116  288.83 0854.40
2009/04/23 16:37:17.7     292    -99     15    309    310 108.8   2.9  34124  288.97 0854.40
2009/04/23 16:37:17.8     310    -43     66    313    321  97.9  12.0  34118  288.87 0854.40
2009/04/23 16:37:17.9     288   -131    110    317    336 114.4  19.2  34122  288.93 0854.40
2009/04/23 16:37:18.0     312   -129    100    338    353 112.6  16.5  34120  288.88 0854.40
2009/04/23 16:37:18.1     245   -137    140    282    314 119.3  28.4  34136  289.17 0854.40
2009/04/23 16:37:18.2     205   -150    125    255    283 126.2  28.0  34152  289.44 0854.40
2009/04/23 16:37:18.3     240   -127    129    272    301 117.9  27.1  34142  289.27 0854.40
2009/04/23 16:37:18.4     216   -145    184    261    319 124.0  38.7  34152  289.42 0854.40
2009/04/23 16:37:18.5     117   -222    221    252    335 152.1  45.7  34136  289.17 0854.38
2009/04/23 16:37:18.6     143   -235    198    276    339 148.6  39.2  34136  289.17 0854.38
2009/04/23 16:37:18.7     267   -350    265    441    514 142.6  33.8  34128  289.03 0854.38
2009/04/23 16:37:18.8     171   -375    194    413    456 155.5  27.1  34128  289.02 0854.38
2009/04/23 16:37:18.9     294   -493     53    575    578 149.2   5.3  34140  289.24 0854.38
2009/04/23 16:37:19.0     278   -347    -17    445    446 141.3  -2.2  34144  289.31 0854.38
2009/04/23 16:37:19.1     224   -284    -53    362    366 141.7  -8.4  34142  289.28 0854.38
2009/04/23 16:37:19.2      97   -324      7    339    340 163.2   1.2  34114  288.79 0854.38
2009/04/23 16:37:19.3      83   -309    -12    321    322 164.9  -2.2  34108  288.68 0854.38
2009/04/23 16:37:19.4     -37   -485     46    487    490 184.5   5.5  34124  288.95 0854.38
2009/04/23 16:37:19.5     -36   -458     86    460    468 184.6  10.6  34124  288.95 0854.38
2009/04/23 16:37:19.6      70   -365    -57    372    377 169.0  -8.8  34122  288.94 0854.38
2009/04/23 16:37:19.7      65   -363     31    369    371 169.8   4.9  34116  288.82 0854.38
2009/04/23 16:37:19.8     -96   -378    -64    391    397 194.3  -9.4  34136  289.16 0854.38
2009/04/23 16:37:19.9    -114   -286    -53    309    314 201.8  -9.8  34136  289.17 0854.38
2009/04/23 16:37:20.0      27   -256    -52    258    264 173.8 -11.5  34138  289.20 0854.38
2009/04/23 16:37:20.1     115   -343   -126    362    384 161.4 -19.3  34120  288.89 0854.38
2009/04/23 16:37:20.2     125   -318    -72    342    350 158.5 -11.9  34122  288.94 0854.38
2009/04/23 16:37:20.3     126   -289    -29    316    318 156.4  -5.4  34124  288.95 0854.38
2009/04/23 16:37:20.4      14   -217     85    218    233 176.2  22.3  34126  289.01 0854.38
2009/04/23 16:37:20.5     -63   -248     35    256    259 194.3   7.8  34130  289.07 0854.42
2009/04/23 16:37:20.6      16   -251   -104    252    272 176.2 -28.0  34130  289.05 0854.42
2009/04/23 16:37:20.7      11   -265   -126    266    294 177.5 -31.6  34110  288.73 0854.42
2009/04/23 16:37:20.8     -24   -365   -188    366    411 183.9 -33.7  34112  288.77 0854.42
2009/04/23 16:37:20.9     -80   -287   -131    298    325 195.6 -29.6  34114  288.78 0854.42
2009/04/23 16:37:21.0     -92   -261    -76    277    288 199.4 -15.4  34122  288.92 0854.42
2009/04/23 16:37:21.1    -125   -141    -66    189    200 221.4 -24.0  34122  288.94 0854.42
2009/04/23 16:37:21.2       0   -245    -17    246    247 180.0  -4.1  34116  288.83 0854.42
2009/04/23 16:37:21.3     117   -202     18    234    235 149.9   4.6  34118  288.85 0854.42
2009/04/23 16:37:21.4      68   -241     88    251    267 164.2  19.4  34108  288.68 0854.42
2009/04/23 16:37:21.5     113   -263     14    287    288 156.8   2.9  34106  288.65 0854.42
2009/04/23 16:37:21.6      57   -213    -61    221    230 164.8 -15.5  34110  288.72 0854.42
2009/04/23 16:37:21.7     185   -244   -103    307    324 142.9 -18.6  34104  288.61 0854.42
2009/04/23 16:37:21.8      79   -418      7    426    427 169.2   1.0  34100  288.56 0854.42
2009/04/23 16:37:21.9     136   -295    -14    326    327 155.2  -2.6  34108  288.70 0854.42
2009/04/23 16:37:22.0     294   -423     44    516    519 145.2   5.0  34108  288.68 0854.42
2009/04/23 16:37:22.1     179   -410    185    448    484 156.4  23.7  34106  288.66 0854.42
2009/04/23 16:37:22.2      33   -380    194    382    428 174.9  29.2  34122  288.94 0854.42
2009/04/23 16:37:22.4     -39   -274    115    277    299 188.2  23.8  34116  288.81 0854.42
2009/04/23 16:37:22.5      54   -147    142    157    211 159.5  46.9  34128  289.02 0854.42
2009/04/23 16:37:22.6     -29    -81    140     87    164 200.0  65.1  34126  288.99 0854.43
2009/04/23 16:37:22.7     -72    -94     73    119    139 217.4  35.0  34124  288.96 0854.43
2009/04/23 16:37:22.8     -67   -201     93    213    232 198.5  25.1  34118  288.86 0854.43
2009/04/23 16:37:22.9    -168   -351     59    390    395 205.6   8.7  34116  288.82 0854.43
2009/04/23 16:37:23.0    -124   -339     70    362    369 200.2  11.0  34118  288.86 0854.43
2009/04/23 16:37:23.1     -61   -318     51    324    329 190.9   9.0  34120  288.88 0854.43
2009/04/23 16:37:23.2    -142   -254     59    292    298 209.2  11.4  34126  288.98 0854.43
2009/04/23 16:37:23.3    -150   -271      8    311    312 209.0   1.6  34128  289.03 0854.43
2009/04/23 16:37:23.4    -134    -85   -133    159    207 237.6 -48.5  34126  289.01 0854.43
2009/04/23 16:37:23.5      15   -117   -134    119    179 172.4 -58.1  34134  289.14 0854.43
2009/04/23 16:37:23.6     -30   -147   -142    151    207 191.6 -52.4  34128  289.04 0854.43
2009/04/23 16:37:23.7      60      8   -110     61    125  82.1 -73.2  34128  289.02 0854.43
2009/04/23 16:37:23.8      97   -104    -39    143    149 136.8 -15.4  34120  288.91 0854.43
2009/04/23 16:37:23.9     153   -105    -12    186    187 124.6  -3.7  34120  288.89 0854.43
2009/04/23 16:37:24.0     148   -109    -48    184    191 126.4 -14.7  34120  288.91 0854.43
2009/04/23 16:37:24.1     177     25    -70    179    192  81.9 -26.9  34114  288.79 0854.43
2009/04/23 16:37:24.2     234     24    -38    236    240  83.9  -9.3  34118  288.87 0854.43
2009/04/23 16:37:24.3      82     19    -69     85    109  76.7 -48.1  34120  288.89 0854.43
2009/04/23 16:37:24.4      87     72   -166    114    201  50.4 -67.0  34120  288.91 0854.43
2009/04/23 16:37:24.5      38     99   -129    107    167  20.9 -60.5  34124  288.97 0854.43
2009/04/23 16:37:24.6      23     40    -45     47     65  29.9 -53.4  34128  289.04 0854.44
2009/04/23 16:37:24.7      -5     -1     34      6     34 251.6  90.0  34126  289.01 0854.44
2009/04/23 16:37:24.8      60      4     -2     61     62  85.7  -2.2  34122  288.94 0854.44
2009/04/23 16:37:24.9     110     56     47    124    132  63.0  21.0  34118  288.86 0854.44
2009/04/23 16:37:25.0     117     96    -13    152    153  50.5  -5.2  34118  288.87 0854.44
2009/04/23 16:37:25.1      43    162    -57    168    178  15.1 -18.7  34116  288.82 0854.44
2009/04/23 16:37:25.2      27    100    109    104    150  15.6  51.6  34128  289.02 0854.44
2009/04/23 16:37:25.3     108     68     51    128    137  57.6  23.0  34120  288.89 0854.44
2009/04/23 16:37:25.4      26     64     73     70    101  21.8  51.6  34126  289.01 0854.44
2009/04/23 16:37:25.5     -29    104     67    108    127 344.4  35.5  34128  289.02 0854.44
2009/04/23 16:37:25.6     -18    104     42    106    114 349.8  22.5  34128  289.04 0854.44
2009/04/23 16:37:25.7     -12     59     36     61     70 348.5  33.5  34128  289.02 0854.44
2009/04/23 16:37:25.8      15     47     32     50     59  18.3  35.6  34130  289.08 0854.44
2009/04/23 16:37:25.9       6    101     15    102    104   3.6   8.5  34132  289.09 0854.44
2009/04/23 16:37:26.0     -55     88     36    105    112 327.9  18.9  34138  289.21 0854.44
2009/04/23 16:37:26.1      51     78     17     94     96  33.4  10.6  34156  289.50 0854.44
2009/04/23 16:37:26.2      62     67     -3     92     93  42.8  -2.2  34158  289.55 0854.44
2009/04/23 16:37:26.3      18     59    -43     62     75  16.9 -42.0  34160  289.58 0854.44
2009/04/23 16:37:26.4     -28      0    -18     29     34 270.0 -39.9  34184  289.99 0854.44
2009/04/23 16:37:26.5     -77     -1     43     78     89 269.2  31.4  34160  289.57 0854.44
2009/04/23 16:37:26.6    -112    -41     47    120    128 249.6  22.5  34134  289.13 0854.44
2009/04/23 16:37:26.7     -87   -136     68    162    175 212.6  24.1  34128  289.02 0854.44
2009/04/23 16:37:26.8    -133    -63    134    148    199 244.8  46.9  34134  289.14 0854.44
2009/04/23 16:37:26.9    -116     -8    109    117    159 265.7  47.9  34152  289.45 0854.44
2009/04/23 16:37:27.0    -148     57     93    159    184 291.3  33.1  34234  290.82 0854.44
2009/04/23 16:37:27.1    -124     71    148    143    205 299.8  51.2  34200  290.26 0854.44
2009/04/23 16:37:27.2     -46     -1    152     47    159 268.3  82.5  34190  290.08 0854.44
2009/04/23 16:37:27.3     -46   -157    220    164    274 196.3  59.6  34144  289.31 0854.44
2009/04/23 16:37:27.4      39   -308    287    311    423 172.7  47.7  34154  289.47 0854.44
2009/04/23 16:37:27.5     167   -401    279    435    516 157.4  35.6  34146  289.34 0854.44
2009/04/23 16:37:27.6     211   -397    183    450    485 152.0  23.5  34126  289.00 0854.44
2009/04/23 16:37:27.7     171   -373    239    411    475 155.3  32.9  34124  288.95 0854.44
2009/04/23 16:37:27.8     131   -383    255    405    478 161.1  35.3  34122  288.92 0854.44
2009/04/23 16:37:27.9     111   -369    226    386    447 163.2  33.3  34124  288.97 0854.44
2009/04/23 16:37:28.0     220   -269    206    348    404 140.8  33.5  34124  288.96 0854.44
2009/04/23 16:37:28.1     195   -339    186    392    433 150.1  27.2  34120  288.89 0854.44
2009/04/23 16:37:28.2      27   -313    253    315    404 174.9  43.0  34128  289.03 0854.44
2009/04/23 16:37:28.3     -32   -344    249    346    426 185.4  39.5  34126  288.99 0854.44
2009/04/23 16:37:28.4     -92   -361    282    373    467 194.3  40.8  34124  288.97 0854.44
2009/04/23 16:37:28.5      94   -463    141    473    494 168.5  16.7  34126  288.98 0854.44
2009/04/23 16:37:28.6     153   -373    -35    404    406 157.7  -5.1  34124  288.97 0854.45
2009/04/23 16:37:28.7     130   -295    113    323    343 156.2  19.4  34122  288.93 0854.45
2009/04/23 16:37:28.8     177   -314     69    361    368 150.5  10.8  34122  288.93 0854.45
2009/04/23 16:37:28.9     130   -269      3    300    301 154.1   0.7  34126  289.00 0854.45
2009/04/23 16:37:29.0      28   -193    -12    196    197 171.8  -3.7  34126  289.01 0854.45
2009/04/23 16:37:29.1      16   -161      2    162    163 174.2   1.0  34126  289.01 0854.45
2009/04/23 16:37:29.2      -7   -115     85    116    143 183.6  39.7  34130  289.08 0854.45
2009/04/23 16:37:29.3     -57   -112    161    126    204 207.2  58.4  34132  289.11 0854.45
2009/04/23 16:37:29.4     -15     -1    120     16    121 265.6  90.0  34150  289.40 0854.45
2009/04/23 16:37:29.5     -81    -58    186    100    211 234.5  69.6  34132  289.11 0854.45
2009/04/23 16:37:29.6    -132   -238    169    273    321 209.0  34.9  34132  289.09 0854.42
2009/04/23 16:37:29.7    -128      2    142    129    191 271.3  53.0  34162  289.62 0854.42
2009/04/23 16:37:29.8     -98    107     44    146    153 317.7  17.1  34162  289.62 0854.42
2009/04/23 16:37:29.9      70    199     92    212    231  19.4  25.1  34140  289.23 0854.42
2009/04/23 16:37:30.0      80    264     93    277    293  17.0  18.6  34138  289.19 0854.42
2009/04/23 16:37:30.1     172    237    124    294    319  36.0  24.3  34130  289.05 0854.42
2009/04/23 16:37:30.2     190    268     97    329    344  35.4  16.5  34136  289.15 0854.42
2009/04/23 16:37:30.3     226    275     93    357    369  39.4  14.6  34126  289.01 0854.42
2009/04/23 16:37:30.4     380    242     98    451    462  57.5  12.3  34126  288.99 0854.42
2009/04/23 16:37:30.5     172    215     98    276    294  38.7  19.6  34130  289.05 0854.42
2009/04/23 16:37:30.6     128      1    166    129    210  89.2  58.4  34132  289.11 0854.42
2009/04/23 16:37:30.7       0    -90    184     91    205 180.4  72.1  34120  288.89 0854.42
2009/04/23 16:37:30.8     -61   -154    231    166    284 201.6  60.6  34122  288.93 0854.42
2009/04/23 16:37:30.9     -31   -293    201    295    356 186.2  37.6  34122  288.94 0854.42
2009/04/23 16:37:31.0      86   -197    147    216    261 156.4  37.4  34126  288.98 0854.42
2009/04/23 16:37:31.1     150   -216    164    264    310 145.3  35.5  34122  288.93 0854.42
2009/04/23 16:37:31.2       4   -188    148    189    240 178.6  42.0  34122  288.94 0854.42
2009/04/23 16:37:31.3     -66   -201    -16    212    213 198.3  -4.4  34120  288.89 0854.42
2009/04/23 16:37:31.4     -50   -153    -31    162    166 198.3 -10.9  34114  288.79 0854.42
2009/04/23 16:37:31.5     -66   -127    -51    144    153 207.6 -19.7  34118  288.86 0854.42
2009/04/23 16:37:31.6       7   -141    -91    142    168 176.9 -40.0  34118  288.86 0854.40
2009/04/23 16:37:31.7      44    -91   -124    102    160 154.1 -60.8  34118  288.87 0854.40
2009/04/23 16:37:31.8      31    -31    -36     45     57 135.0 -48.1  34122  288.92 0854.40
2009/04/23 16:37:31.9      30     44    -18     54     56  34.3 -23.6  34130  289.08 0854.40
2009/04/23 16:37:32.0      28     35    -57     46     73  38.7 -60.8  34136  289.18 0854.40
2009/04/23 16:37:32.1     156     -8    -45    157    163  93.0 -21.0  34124  288.96 0854.40
2009/04/23 16:37:32.2     141    -36    -29    146    149 104.6 -11.3  34122  288.94 0854.40
2009/04/23 16:37:32.3      89    101    -79    135    156  41.4 -37.5  34140  289.24 0854.40
2009/04/23 16:37:32.4      61     39    -51     73     89  57.6 -43.0  34172  289.79 0854.40
2009/04/23 16:37:32.5      47     82    -53     95    108  30.3 -35.8  34162  289.62 0854.40
2009/04/23 16:37:32.6     134    134   -139    190    235  45.1 -44.3  34190  290.08 0854.40
2009/04/23 16:37:32.7      41    105    -60    113    127  21.4 -34.2  34236  290.86 0854.40
2009/04/23 16:37:32.8      11     91    -29     92     96   7.1 -23.3  34226  290.69 0854.40
2009/04/23 16:37:32.9      14     46    -39     49     62  17.8 -48.1  34222  290.64 0854.40
2009/04/23 16:37:33.0      -4      8    -39     10     40 331.0 -90.0  34210  290.41 0854.40
2009/04/23 16:37:33.1      -8      2    -32      9     33 288.2 -87.2  34196  290.19 0854.40
2009/04/23 16:37:33.2     -47      0    -43     48     64 270.0 -52.3  34210  290.41 0854.40
2009/04/23 16:37:33.3    -135     23    -68    137    152 279.7 -32.2  34208  290.38 0854.40
2009/04/23 16:37:33.4    -105     75    -66    130    145 305.5 -33.6  34210  290.43 0854.40
2009/04/23 16:37:33.5     -72     87    -58    113    127 320.4 -33.7  34196  290.19 0854.40
2009/04/23 16:37:33.6    -128     -3     46    129    136 268.3  20.0  34146  289.33 0854.41
2009/04/23 16:37:33.7     -59    -90     47    108    117 213.4  25.1  34156  289.50 0854.41
2009/04/23 16:37:33.8      51    -78     70     94    117 146.6  40.1  34128  289.04 0854.41
2009/04/23 16:37:33.9      31    -59    127     67    143 151.9  69.8  34140  289.24 0854.41
2009/04/23 16:37:34.0      -7    -96     89     97    131 184.5  47.9  34128  289.02 0854.41
2009/04/23 16:37:34.1     181   -184    135    259    292 135.5  29.8  34122  288.92 0854.41
2009/04/23 16:37:34.2     113   -283    179    305    353 158.2  33.3  34112  288.76 0854.41
2009/04/23 16:37:34.3     151   -297     85    334    345 153.0  14.3  34116  288.84 0854.41
2009/04/23 16:37:34.4     123   -299     31    324    326 157.5   5.5  34110  288.73 0854.41
2009/04/23 16:37:34.5     -24   -314    -26    315    317 184.4  -4.8  34116  288.81 0854.41
2009/04/23 16:37:34.6     -57   -258    -35    265    268 192.5  -7.7  34120  288.88 0854.41
2009/04/23 16:37:34.7     -93   -306     -9    320    321 196.9  -1.7  34126  289.00 0854.41
2009/04/23 16:37:34.8     111    -93     39    145    151 130.0  15.3  34120  288.91 0854.41
2009/04/23 16:37:34.9     119    -76    -50    142    151 122.4 -19.7  34120  288.89 0854.41
2009/04/23 16:37:35.0     187    -61     -7    197    198 108.2  -2.2  34122  288.94 0854.41
2009/04/23 16:37:35.1      57   -103    108    118    159 151.0  47.5  34126  288.99 0854.41
2009/04/23 16:37:35.2     -16   -179    185    180    258 185.3  50.9  34126  289.00 0854.41
2009/04/23 16:37:35.3       7   -282    122    283    308 178.4  24.9  34122  288.92 0854.41
2009/04/23 16:37:35.4      19   -336    125    337    359 176.6  21.1  34120  288.88 0854.41
2009/04/23 16:37:35.5      32   -206    183    209    277 171.1  45.8  34116  288.83 0854.41
2009/04/23 16:37:35.6      70   -291    226    300    375 166.4  40.8  34114  288.79 0854.39
2009/04/23 16:37:35.7      94   -177    107    201    227 151.9  30.6  34110  288.74 0854.39
2009/04/23 16:37:35.8     120   -122    121    172    210 135.5  38.6  34120  288.89 0854.39
2009/04/23 16:37:35.9     123   -134    103    182    209 137.5  31.9  34114  288.80 0854.39
2009/04/23 16:37:36.0     168   -209    210    269    341 141.2  41.9  34116  288.83 0854.39
2009/04/23 16:37:36.1     183   -188    230    263    349 135.9  45.6  34116  288.83 0854.39
2009/04/23 16:37:36.2      92   -279    251    294    386 161.7  44.8  34116  288.82 0854.39
2009/04/23 16:37:36.3     265   -120    214    292    362 114.4  39.9  34118  288.86 0854.39
2009/04/23 16:37:36.4     138   -289    107    321    339 154.5  18.5  34110  288.74 0854.39
2009/04/23 16:37:36.5     189   -332     15    383    384 150.4   2.3  34110  288.72 0854.39
2009/04/23 16:37:36.6     216   -423     92    476    485 152.9  11.0  34110  288.73 0854.39
2009/04/23 16:37:36.7     267   -405     99    486    497 146.6  11.6  34106  288.66 0854.39
2009/04/23 16:37:36.8     318   -378     32    495    497 139.9   3.8  34108  288.68 0854.39
2009/04/23 16:37:36.9     253   -357     35    438    440 144.7   4.6  34106  288.65 0854.39
2009/04/23 16:37:37.0     260   -409     30    485    486 147.5   3.6  34110  288.73 0854.39
2009/04/23 16:37:37.1     231   -463     26    518    519 153.5   2.9  34102  288.59 0854.39
2009/04/23 16:37:37.2     194   -443     99    484    495 156.3  11.6  34110  288.71 0854.39
2009/04/23 16:37:37.3     214   -374     87    431    440 150.2  11.5  34092  288.41 0854.39
2009/04/23 16:37:37.4     146   -401    103    427    440 160.0  13.6  34090  288.38 0854.39
2009/04/23 16:37:37.5     133   -358    120    383    402 159.5  17.4  34098  288.52 0854.39
2009/04/23 16:37:37.6     158   -347     75    382    390 155.5  11.1  34094  288.45 0854.40
2009/04/23 16:37:37.7     127   -389    -51    410    414 161.9  -7.2  34100  288.56 0854.40
2009/04/23 16:37:37.8     119   -356     19    376    377 161.5   3.0  34116  288.82 0854.40
2009/04/23 16:37:37.9      74   -243      3    255    256 163.1   0.8  34106  288.66 0854.40
2009/04/23 16:37:38.0      51   -172    -55    180    189 163.3 -17.0  34110  288.72 0854.40
2009/04/23 16:37:38.1      97   -198      1    221    222 153.7   0.5  34112  288.77 0854.40
2009/04/23 16:37:38.2     144   -298    -36    332    335 154.1  -6.3  34106  288.66 0854.40
2009/04/23 16:37:38.3     202   -389     21    439    440 152.6   2.8  34094  288.46 0854.40
2009/04/23 16:37:38.4     199   -436    -17    480    481 155.4  -2.1  34094  288.44 0854.40
2009/04/23 16:37:38.5     133   -445     85    465    473 163.3  10.4  34100  288.57 0854.40
2009/04/23 16:37:38.6      85   -471     60    479    483 169.7   7.2  34110  288.71 0854.40
2009/04/23 16:37:38.7      56   -398     33    403    405 172.0   4.7  34104  288.63 0854.40
2009/04/23 16:37:38.8     171   -403     -2    438    439 157.0  -0.3  34094  288.46 0854.40
2009/04/23 16:37:38.9     216   -422     45    475    478 152.9   5.4  34096  288.49 0854.40
2009/04/23 16:37:39.0     151   -357    -44    388    391 157.0  -6.5  34104  288.64 0854.40
2009/04/23 16:37:39.1     120   -362     -2    382    383 161.6  -0.4  34110  288.72 0854.40
2009/04/23 16:37:39.2      84   -417    -40    426    429 168.5  -5.4  34112  288.75 0854.40
2009/04/23 16:37:39.3      59   -395    -71    400    407 171.5 -10.1  34112  288.75 0854.40
2009/04/23 16:37:39.4     148   -374     36    403    405 158.3   5.2  34100  288.55 0854.40
2009/04/23 16:37:39.5     131   -384     20    407    408 161.1   2.9  34098  288.53 0854.40
2009/04/23 16:37:39.6     156   -430     -9    458    459 160.0  -1.2  34096  288.48 0854.42
2009/04/23 16:37:39.7     166   -469     20    498    499 160.4   2.4  34094  288.46 0854.42
2009/04/23 16:37:39.8     206   -411     55    460    464 153.4   6.9  34094  288.46 0854.42
2009/04/23 16:37:39.9     226   -510     17    559    560 156.1   1.8  34096  288.48 0854.42
2009/04/23 16:37:40.0     180   -444     17    480    481 157.9   2.1  34100  288.54 0854.42
2009/04/23 16:37:40.1     137   -368    -15    393    394 159.6  -2.2  34100  288.54 0854.42
2009/04/23 16:37:40.2      44   -260     13    264    265 170.4   2.9  34102  288.59 0854.42
2009/04/23 16:37:40.3      52   -268     98    274    291 168.9  20.2  34100  288.56 0854.42
2009/04/23 16:37:40.4      55   -344     22    349    350 170.8   3.6  34100  288.55 0854.42
2009/04/23 16:37:40.5      70   -380    152    387    415 169.5  22.7  34098  288.51 0854.42
2009/04/23 16:37:40.6      53   -386     96    390    402 172.1  13.9  34096  288.50 0854.42
2009/04/23 16:37:40.7     -17   -377     69    378    385 182.6  10.3  34100  288.57 0854.42
2009/04/23 16:37:40.8     -10   -304     65    305    312 182.0  12.1  34104  288.61 0854.42
2009/04/23 16:37:40.9       9   -284      8    285    286 178.0   1.7  34106  288.65 0854.42
2009/04/23 16:37:41.0      81   -350     40    360    363 167.0   6.4  34104  288.62 0854.42
2009/04/23 16:37:41.1      85   -355     72    366    374 166.4  11.1  34102  288.59 0854.42
2009/04/23 16:37:41.2     115   -330     54    350    355 160.7   8.9  34098  288.52 0854.42
2009/04/23 16:37:41.3     254   -293     14    388    389 139.1   2.1  34094  288.45 0854.42
2009/04/23 16:37:41.4     253   -335     72    421    428 142.9   9.7  34092  288.43 0854.42
2009/04/23 16:37:41.5     135   -315     77    343    352 156.8  12.8  34100  288.54 0854.42
2009/04/23 16:37:41.6     154   -289    -41    328    331 151.9  -7.2  34096  288.49 0854.39
2009/04/23 16:37:41.7      90   -260     64    276    284 160.9  13.2  34098  288.53 0854.39
2009/04/23 16:37:41.8     127   -285     39    313    316 155.9   7.2  34098  288.53 0854.39
2009/04/23 16:37:41.9     108   -325     64    343    349 161.5  10.6  34104  288.62 0854.39
2009/04/23 16:37:42.0     106   -338     39    355    358 162.5   6.4  34110  288.72 0854.39
2009/04/23 16:37:42.1     175   -378     74    417    424 155.2  10.1  34104  288.61 0854.39
2009/04/23 16:37:42.2     199   -436    115    480    494 155.4  13.6  34100  288.54 0854.39
2009/04/23 16:37:42.3     191   -436     32    477    479 156.3   3.9  34098  288.52 0854.39
2009/04/23 16:37:42.4     208   -474     49    518    521 156.3   5.5  34096  288.50 0854.39
2009/04/23 16:37:42.5     232   -386    123    451    468 149.0  15.3  34096  288.48 0854.39
2009/04/23 16:37:42.6     247   -346    154    426    452 144.5  20.9  34104  288.63 0854.39
2009/04/23 16:37:42.7     213   -279    210    352    409 142.7  33.6  34108  288.69 0854.39
2009/04/23 16:37:42.8     166   -270    259    318    410 148.4  43.5  34104  288.64 0854.39
2009/04/23 16:37:42.9     101   -328    270    344    437 162.8  42.1  34102  288.60 0854.39
2009/04/23 16:37:43.0     188   -310    196    363    412 148.7  30.7  34104  288.62 0854.39
2009/04/23 16:37:43.1     214   -273    207    347    404 141.9  33.6  34104  288.62 0854.39
2009/04/23 16:37:43.2     221   -160    173    274    324 126.0  35.3  34110  288.73 0854.39
2009/04/23 16:37:43.3     305    -98    102    321    337 107.8  17.7  34108  288.69 0854.39
2009/04/23 16:37:43.4     268   -133    141    300    331 116.4  27.0  34108  288.68 0854.39
2009/04/23 16:37:43.5     215   -113    127    244    275 117.8  29.3  34110  288.73 0854.39
2009/04/23 16:37:43.6     223    -73    104    235    256 108.2  25.2  34112  288.75 0854.42
2009/04/23 16:37:43.7     175   -158    129    236    268 132.0  31.3  34112  288.75 0854.42
2009/04/23 16:37:43.8     162   -102    107    192    219 122.4  31.4  34114  288.80 0854.42
2009/04/23 16:37:43.9     233   -262     82    351    361 138.3  13.2  34110  288.72 0854.42
2009/04/23 16:37:44.0     236   -226     97    327    342 133.8  16.6  34110  288.74 0854.42
2009/04/23 16:37:44.1     256   -185    116    316    336 125.9  21.1  34110  288.72 0854.42
2009/04/23 16:37:44.2     220   -149     92    266    282 124.1  19.2  34112  288.76 0854.42
2009/04/23 16:37:44.3     215   -127     -5    250    251 120.7  -1.3  34112  288.76 0854.42
2009/04/23 16:37:44.4     235   -207     58    314    320 131.4  10.6  34114  288.78 0854.42
2009/04/23 16:37:44.5     134   -211    107    251    272 147.5  24.3  34118  288.87 0854.42
2009/04/23 16:37:44.6     160   -219    122    272    298 143.9  25.9  34114  288.80 0854.42
2009/04/23 16:37:44.7     169   -138    168    219    276 129.1  41.6  34118  288.85 0854.42
2009/04/23 16:37:44.8     140   -218    209    260    333 147.4  43.0  34120  288.88 0854.42
2009/04/23 16:37:44.9     200   -145     -9    248    249 126.0  -2.1  34114  288.80 0854.42
2009/04/23 16:37:45.0     115   -243    -63    270    278 154.6 -13.3  34112  288.75 0854.42
2009/04/23 16:37:45.1     109   -220    -98    246    264 153.5 -27.4  34114  288.78 0854.42
2009/04/23 16:37:45.2     114   -122    -57    168    177 137.0 -23.6  34118  288.87 0854.42
2009/04/23 16:37:45.3     140   -161    -61    214    223 139.0 -16.0  34116  288.84 0854.42
2009/04/23 16:37:45.4      65   -196    -44    207    212 161.7 -12.2  34116  288.82 0854.42
2009/04/23 16:37:45.5      17   -219     67    220    231 175.5  17.1  34110  288.72 0854.42
2009/04/23 16:37:45.6      38   -184     83    188    205 168.2  25.3  34110  288.72 0854.47
2009/04/23 16:37:45.7     112   -157    123    194    229 144.4  35.5  34110  288.74 0854.47
2009/04/23 16:37:45.8     161   -116    111    199    227 126.0  31.4  34120  288.89 0854.47
2009/04/23 16:37:45.9     207   -116     48    238    244 119.3  11.6  34126  288.98 0854.47
2009/04/23 16:37:46.0     179    -84     85    198    215 115.3  24.9  34124  288.97 0854.47
2009/04/23 16:37:46.1      99    -73    148    124    193 126.4  56.3  34122  288.94 0854.47
2009/04/23 16:37:46.2     180    -78    133    197    237 113.5  37.4  34120  288.91 0854.47
2009/04/23 16:37:46.3     140   -115    119    182    217 129.5  36.0  34114  288.80 0854.47
2009/04/23 16:37:46.4     111   -109    144    156    212 134.4  47.9  34124  288.97 0854.47
2009/04/23 16:37:46.5     109   -141    131    179    221 142.2  39.7  34120  288.89 0854.47
2009/04/23 16:37:46.6     109   -177    135    208    247 148.4  36.0  34120  288.88 0854.47
2009/04/23 16:37:46.7     128   -168    122    212    244 142.6  32.4  34122  288.92 0854.47
2009/04/23 16:37:46.8      31   -152    151    156    217 168.4  49.0  34124  288.97 0854.47
2009/04/23 16:37:46.9      10   -142    200    143    245 176.0  60.8  34132  289.11 0854.47
2009/04/23 16:37:47.0      80    -54    158     97    185 124.2  65.4  34128  289.04 0854.47
2009/04/23 16:37:47.1      23    -57     97     62    115 158.2  64.7  34128  289.02 0854.47
2009/04/23 16:37:47.2     -37   -113    102    119    156 198.3  45.1  34126  289.01 0854.47
2009/04/23 16:37:47.3      12    -62     97     64    116 168.5  64.6  34128  289.04 0854.47
2009/04/23 16:37:47.4     -76   -198     96    213    233 200.9  26.2  34124  288.96 0854.47
2009/04/23 16:37:47.5    -108   -227     94    252    268 205.4  21.3  34130  289.05 0854.47
2009/04/23 16:37:47.7     -92   -120     32    152    156 217.4  12.2  34132  289.11 0854.50
2009/04/23 16:37:47.7      39    -98     33    106    112 158.2  17.3  34136  289.16 0854.50
2009/04/23 16:37:47.8      48    -89     65    102    120 151.9  35.5  34142  289.26 0854.50
2009/04/23 16:37:47.9     114    -94     60    148    159 129.5  23.4  34142  289.28 0854.50
2009/04/23 16:37:48.0     151    -90     66    177    188 120.9  21.3  34234  290.84 0854.50
2009/04/23 16:37:48.1     157     87     78    180    196  60.9  25.1  34208  290.40 0854.50
2009/04/23 16:37:48.2      77    176     36    193    197  23.8  10.6  34176  289.84 0854.50
2009/04/23 16:37:48.3     -20    145     70    147    162 352.0  27.2  34178  289.89 0854.50
2009/04/23 16:37:48.4    -130    190     92    231    248 325.7  22.8  34184  289.98 0854.50
2009/04/23 16:37:48.5     -80    166     57    185    194 334.1  17.3  34204  290.33 0854.50
2009/04/23 16:37:48.6     -15    101      6    103    104 351.1   3.8  34198  290.23 0854.50
2009/04/23 16:37:48.7      10     77      1     78     79   8.0   0.8  34206  290.35 0854.50
2009/04/23 16:37:48.8     -75     24      6     79     80 287.7   4.9  34206  290.35 0854.50
2009/04/23 16:37:49.0    -106     63     -4    124    125 300.7  -2.2  34196  290.19 0854.50
2009/04/23 16:37:49.0     -70    166      0    181    182 337.1   0.0  34202  290.28 0854.50
2009/04/23 16:37:49.1     -25    187     17    189    190 352.2   5.2  34204  290.31 0854.50
2009/04/23 16:37:49.2       4    238     25    239    241   1.1   6.1  34206  290.34 0854.50
2009/04/23 16:37:49.4      39    252    -14    256    257   8.9  -3.1  34200  290.24 0854.50
2009/04/23 16:37:49.4      78    199    -43    214    219  21.4 -11.3  34204  290.31 0854.50
2009/04/23 16:37:49.6      25    142     29    145    149  10.2  11.6  34228  290.74 0854.50
2009/04/23 16:37:49.7      65    180      0    192    193  19.8   0.2  34220  290.58 0854.50
2009/04/23 16:37:49.8      83    163     20    183    185  27.0   6.5  34212  290.47 0854.50
2009/04/23 16:37:49.9     127    180     26    221    223  35.2   6.9  34220  290.60 0854.50
2009/04/23 16:37:50.0      66    160     59    174    185  22.3  18.9  34242  290.96 0854.50
2009/04/23 16:37:50.1      29    131     52    135    144  12.5  21.5  34234  290.82 0854.50
2009/04/23 16:37:50.2      50    108     18    120    122  24.9   8.5  34228  290.72 0854.50
2009/04/23 16:37:50.3      51     54     44     75     86  43.3  33.5  34248  291.06 0854.50
2009/04/23 16:37:50.4      85     32     48     91    102  69.2  29.8  34264  291.35 0854.50
2009/04/23 16:37:50.5      64     17     60     67     89  74.9  46.4  34268  291.40 0854.50
2009/04/23 16:37:50.6      24     36     38     44     58  34.3  45.8  34266  291.38 0854.50
2009/04/23 16:37:50.7       8     32     35     34     48  15.1  49.1  34264  291.33 0854.47
2009/04/23 16:37:50.8      38     69     99     79    126  29.0  57.5  34238  290.89 0854.47
2009/04/23 16:37:50.9     107     68    123    127    176  57.6  49.0  34242  290.96 0854.47
2009/04/23 16:37:51.0      29    125    106    129    166  13.3  43.7  34262  291.32 0854.47
2009/04/23 16:37:51.1     127     46     91    136    163  70.0  36.7  34308  292.08 0854.47
2009/04/23 16:37:51.2      97     73    101    122    158  53.1  44.1  34310  292.13 0854.47
2009/04/23 16:37:51.3      88     64    106    109    152  54.0  49.4  34292  291.83 0854.47
2009/04/23 16:37:51.4      93     88    131    129    183  46.4  50.1  34292  291.83 0854.47
2009/04/23 16:37:51.5     119     76    128    142    191  57.5  46.9  34310  292.13 0854.47
2009/04/23 16:37:51.6     120    104    126    160    203  49.1  42.2  34310  292.13 0854.47
2009/04/23 16:37:51.7     117     63     94    133    162  61.6  38.6  34276  291.55 0854.47
2009/04/23 16:37:51.8      82     90     90    122    151  42.3  39.7  34266  291.37 0854.47
2009/04/23 16:37:51.9      66     49    135     83    158  53.6  65.7  34320  292.30 0854.47
2009/04/23 16:37:52.0      73     60    138     95    167  50.5  62.4  34316  292.22 0854.47
2009/04/23 16:37:52.1     113     95    112    148    185  50.0  41.2  34240  290.92 0854.47
2009/04/23 16:37:52.2     138     70    107    155    188  62.9  38.0  34234  290.84 0854.47
2009/04/23 16:37:52.3     153     66     94    167    191  66.7  31.6  34302  291.98 0854.47
2009/04/23 16:37:52.4      92     66    130    114    172  54.0  54.3  34330  292.46 0854.47
2009/04/23 16:37:52.5     125     81    110    150    186  57.1  39.9  34370  293.14 0854.47
2009/04/23 16:37:52.6     101     81     89    130    157  51.4  37.8  34304  292.03 0854.47
2009/04/23 16:37:52.7      76     85     75    115    137  41.9  36.0  34288  291.74 0854.41
2009/04/23 16:37:52.8      89     54     62    105    121  58.9  33.4  34274  291.52 0854.41
2009/04/23 16:37:52.9      92     34     50     99    110  69.6  28.2  34284  291.67 0854.41
2009/04/23 16:37:53.0      87     48     45    100    109  61.2  26.2  34294  291.84 0854.41
2009/04/23 16:37:53.1      62     56     57     84    101  47.8  37.6  34264  291.33 0854.41
2009/04/23 16:37:53.2      43     83     60     94    111  27.6  35.6  34266  291.38 0854.41
2009/04/23 16:37:53.3      64     65     56     92    107  44.7  35.0  34294  291.86 0854.41
2009/04/23 16:37:53.4      28     33     63     44     76  40.5  62.6  34292  291.83 0854.41
2009/04/23 16:37:53.5       6     53     47     54     71   7.1  44.8  34284  291.69 0854.41
2009/04/23 16:37:53.6      10     53     24     54     59  10.7  25.1  34292  291.81 0854.41
2009/04/23 16:37:53.7       8     51     18     52     56   8.9  19.2  34282  291.66 0854.41
2009/04/23 16:37:53.8       0     67     13     68     70   0.0  11.0  34270  291.45 0854.41
2009/04/23 16:37:53.9      15     68     -7     70     71  12.5  -6.2  34246  291.03 0854.41
2009/04/23 16:37:54.0      35     49     -7     61     62  36.1  -7.2  34230  290.77 0854.41
2009/04/23 16:37:54.1      41     58    -14     72     74  35.2 -11.3  34230  290.77 0854.41
2009/04/23 16:37:54.2      47     80    -18     94     96  30.7 -10.9  34230  290.75 0854.41
2009/04/23 16:37:54.3      86    103      1    135    136  39.7   0.8  34258  291.23 0854.41
2009/04/23 16:37:54.4      82    102     -2    132    133  38.7  -1.3  34264  291.35 0854.41
2009/04/23 16:37:54.5      90     87    -45    126    134  46.0 -19.7  34260  291.28 0854.41
2009/04/23 16:37:54.6      77     72    -13    106    107  46.9  -7.2  34270  291.45 0854.41
2009/04/23 16:37:54.7      67     68    -14     96     98  44.7  -8.2  34254  291.18 0854.37
2009/04/23 16:37:54.8      65     79    -10    103    104  39.6  -5.6  34250  291.11 0854.37
2009/04/23 16:37:54.9     134     59    -18    147    149  66.0  -7.3  34300  291.96 0854.37
2009/04/23 16:37:55.0      86    124    -30    152    156  34.7 -11.3  34268  291.42 0854.37
2009/04/23 16:37:55.1     -18    105    -13    107    108 350.2  -7.3  34276  291.55 0854.37
2009/04/23 16:37:55.2     -91     50    -37    104    110 298.8 -23.8  34274  291.52 0854.37
2009/04/23 16:37:55.3     -73     47    -51     87    100 302.9 -37.3  34286  291.71 0854.37
2009/04/23 16:37:55.4     -54     34    -17     64     67 302.4 -15.5  34284  291.69 0854.37
2009/04/23 16:37:55.5     -26     44     18     52     56 329.3  18.9  34276  291.54 0854.37
2009/04/23 16:37:55.6     -32     26     32     42     52 309.5  42.7  34268  291.40 0854.37
2009/04/23 16:37:55.7     -77     31     25     84     88 292.2  16.8  34264  291.35 0854.37
2009/04/23 16:37:55.8    -104     41     12    112    113 291.7   6.5  34276  291.55 0854.37
2009/04/23 16:37:55.9     -99     62     11    117    118 302.0   5.4  34274  291.50 0854.37
2009/04/23 16:37:56.0     -95     83     40    127    134 311.3  17.4  34264  291.35 0854.37
2009/04/23 16:37:56.1     -99     92     21    136    138 312.7   9.0  34266  291.38 0854.37
2009/04/23 16:37:56.2    -129     82     13    153    154 302.5   4.9  34268  291.40 0854.37
2009/04/23 16:37:56.3    -116     84     33    144    148 305.9  13.1  34254  291.16 0854.37
2009/04/23 16:37:56.4    -111     86      1    141    142 307.7   0.7  34230  290.77 0854.37
2009/04/23 16:37:56.5     -89    148     -6    173    174 328.8  -2.2  34166  289.69 0854.37
2009/04/23 16:37:56.6     -85    170    -21    191    193 333.5  -6.5  34188  290.04 0854.37
2009/04/23 16:37:56.7     -65    166     -9    179    180 338.4  -3.1  34216  290.53 0854.32
2009/04/23 16:37:56.8     -93    157    -37    183    187 329.3 -11.6  34214  290.50 0854.32
2009/04/23 16:37:56.9     -72    172    -32    187    190 337.1  -9.8  34170  289.75 0854.32
2009/04/23 16:37:57.0     -59    177      1    187    188 341.5   0.5  34172  289.77 0854.32
2009/04/23 16:37:57.1     -51    149    -17    158    159 340.8  -6.2  34172  289.79 0854.32
2009/04/23 16:37:57.2    -110    103    -74    151    168 313.2 -32.2  34174  289.82 0854.32
2009/04/23 16:37:57.3     -65    165     -6    178    179 338.4  -2.2  34172  289.77 0854.32
2009/04/23 16:37:57.4     -30    244    -69    246    255 352.9 -20.0  34160  289.56 0854.32
2009/04/23 16:37:57.5     -44    231    -87    236    251 349.1 -25.4  34166  289.66 0854.32
2009/04/23 16:37:57.6      38    242    -79    246    258   8.9 -22.9  34164  289.64 0854.32
2009/04/23 16:37:57.7      61    234    -84    242    256  14.7 -24.3  34166  289.68 0854.32
2009/04/23 16:37:57.8      64    188    -62    199    209  18.9 -17.5  34176  289.84 0854.32
2009/04/23 16:37:57.9      49    185    -58    192    201  15.1 -17.0  34168  289.72 0854.32
2009/04/23 16:37:58.0      23    171      7    173    174   7.8   2.5  34184  289.99 0854.32
2009/04/23 16:37:58.1      28    166    -52    169    176   9.6 -22.1  34178  289.89 0854.32
2009/04/23 16:37:58.2      41    155    -51    161    169  14.9 -17.6  34196  290.19 0854.32
2009/04/23 16:37:58.3      95     83     14    127    128  49.1   6.5  34186  290.02 0854.32
2009/04/23 16:37:58.4     132     44     53    140    149  71.6  21.0  34204  290.31 0854.32
2009/04/23 16:37:58.5     140      3     70    141    157  88.7  28.2  34238  290.89 0854.32
2009/04/23 16:37:58.6     125     26     25    128    131  78.1  11.1  34270  291.43 0854.32
2009/04/23 16:37:58.7      94      7     26     95     99  85.6  15.3  34276  291.55 0854.34
2009/04/23 16:37:58.8      86      3     35     87     93  87.9  22.5  34258  291.25 0854.34
2009/04/23 16:37:58.9      69     11     57     71     91  80.3  43.7  34238  290.91 0854.34
2009/04/23 16:37:59.0      79     47     37     92     99  59.3  23.0  34218  290.57 0854.34
2009/04/23 16:37:59.1      49     69    -34     85     91  35.6 -26.9  34232  290.79 0854.34
2009/04/23 16:37:59.2      49     65    -51     82     96  37.4 -39.9  34202  290.28 0854.34
2009/04/23 16:37:59.3      50     53    -45     74     86  43.3 -38.8  34202  290.28 0854.34
2009/04/23 16:37:59.4      31     70    -20     77     80  24.5 -14.5  34198  290.23 0854.34
2009/04/23 16:37:59.5      24     71     -9     75     76  18.7  -7.2  34202  290.28 0854.34
2009/04/23 16:37:59.6      20     40     -1     45     46  27.2  -1.3  34216  290.53 0854.34
2009/04/23 16:37:59.7      61     -4     12     62     64  94.3  11.1  34244  290.99 0854.34
2009/04/23 16:37:59.8      56    -33      4     66     67 120.7   3.8  34244  290.99 0854.34
2009/04/23 16:37:59.9      40    -28      2     49     50 125.1   2.9  34248  291.08 0854.34
2009/04/23 16:38:00.0      29    -29     11     42     44 135.0  15.3  34240  290.92 0854.34
2009/04/23 16:38:00.1      21    -21      8     31     33 135.0  15.3  34226  290.70 0854.34
2009/04/23 16:38:00.2       7    -19     -2     21     22 158.2  -7.3  34214  290.48 0854.34
2009/04/23 16:38:00.3     -20    -21    -12     30     32 223.2 -27.4  34214  290.50 0854.34
2009/04/23 16:38:00.4      -7    -15    -22     17     27 205.4 -62.9  34210  290.43 0854.34
2009/04/23 16:38:00.5     -31    -31    -31     44     53 225.0 -43.0  34210  290.43 0854.34
2009/04/23 16:38:00.6     -53    -43    -30     69     75 230.5 -29.5  34216  290.53 0854.34
2009/04/23 16:38:00.7     -63    -20    -24     67     71 252.3 -23.3  34218  290.55 0854.38
2009/04/23 16:38:00.8     -50     16    -12     53     55 288.4 -13.4  34236  290.87 0854.38
2009/04/23 16:38:00.9     -56     -4    -10     57     58 265.6 -10.3  34240  290.94 0854.38
2009/04/23 16:38:01.0     -57     17      1     60     61 286.8   1.8  34242  290.96 0854.38
2009/04/23 16:38:01.1     -54     17     -2     57     58 287.7  -2.2  34252  291.13 0854.38
2009/04/23 16:38:01.2     -38     25     -5     46     47 304.2  -7.3  34232  290.81 0854.38
2009/04/23 16:38:01.3      -4     28    -19     29     34 350.2 -40.0  34228  290.72 0854.38
2009/04/23 16:38:01.4      -1     33    -27     34     43 357.4 -47.1  34230  290.75 0854.38
2009/04/23 16:38:01.5      -6     31    -16     32     35 348.5 -31.7  34234  290.82 0854.38
2009/04/23 16:38:01.6     -28     28    -14     40     42 315.0 -24.4  34230  290.77 0854.38
2009/04/23 16:38:01.7     -51     17    -16     54     56 288.4 -22.8  34250  291.09 0854.38
2009/04/23 16:38:01.8     -84     30     12     90     91 290.0   8.0  34240  290.92 0854.38
2009/04/23 16:38:01.9     -84     79     -6    116    117 313.1  -3.1  34220  290.58 0854.38
2009/04/23 16:38:02.0     -70     68    -27     98    102 314.1 -15.5  34220  290.60 0854.38
2009/04/23 16:38:02.1     -56     81    -42     99    107 325.3 -28.0  34250  291.11 0854.38
2009/04/23 16:38:02.2    -119     98    -32    155    159 309.5 -11.9  34286  291.71 0854.38
2009/04/23 16:38:02.3    -147     99    -35    178    182 304.0 -11.3  34290  291.77 0854.38
2009/04/23 16:38:02.4    -145     63    -49    159    166 293.5 -22.3  34288  291.76 0854.38
2009/04/23 16:38:02.5    -121     44     -5    129    130 290.0  -2.2  34282  291.66 0854.38
2009/04/23 16:38:02.6    -123     15      7    124    125 277.0   3.3  34288  291.76 0854.38
2009/04/23 16:38:02.7     -76     37     51     85     99 296.2  34.0  34278  291.59 0854.40
2009/04/23 16:38:02.8     -66     13     65     68     94 281.5  49.4  34280  291.60 0854.40
2009/04/23 16:38:02.9     -36    -18     62     41     74 242.9  64.6  34284  291.67 0854.40
2009/04/23 16:38:03.0     -43    -33     47     55     72 232.2  44.8  34286  291.71 0854.40
2009/04/23 16:38:03.1     -42    -31     55     53     76 234.0  50.1  34292  291.81 0854.40
2009/04/23 16:38:03.2     -50    -23     56     56     79 244.7  50.1  34294  291.86 0854.40
2009/04/23 16:38:03.3     -13    -47     68     49     83 196.0  60.5  34294  291.84 0854.40
2009/04/23 16:38:03.4     -17    -48     63     52     81 200.0  56.4  34284  291.69 0854.40
2009/04/23 16:38:03.5      -9    -44     49     46     67 192.5  52.1  34280  291.62 0854.40
2009/04/23 16:38:03.6      -6    -53     51     54     74 187.1  49.0  34280  291.62 0854.40
2009/04/23 16:38:03.7       6    -63     64     64     90 173.8  50.1  34290  291.77 0854.40
2009/04/23 16:38:03.8       3    -38     52     39     65 175.5  60.5  34298  291.91 0854.40
2009/04/23 16:38:03.9      12    -40     47     42     63 163.1  52.2  34298  291.93 0854.40
2009/04/23 16:38:04.0      24     -4     52     25     57  99.7  72.9  34302  291.98 0854.40
2009/04/23 16:38:04.1      13    -16     47     21     51 140.4  74.0  34310  292.12 0854.40
2009/04/23 16:38:04.2      11    -20     32     23     39 151.0  60.5  34308  292.10 0854.40
2009/04/23 16:38:04.3      43    -15     27     46     53 110.0  33.5  34300  291.96 0854.40
2009/04/23 16:38:04.4      51    -28     33     59     67 118.9  31.4  34296  291.88 0854.40
2009/04/23 16:38:04.5      52    -17     37     55     66 108.4  36.5  34298  291.91 0854.40
2009/04/23 16:38:04.6      64     -6     42     65     77  96.1  35.6  34352  292.85 0854.40
2009/04/23 16:38:04.7      52      4     58     53     78  85.7  52.2  34390  293.48 0854.42
2009/04/23 16:38:04.8      57     -4     75     58     94  94.4  58.5  34400  293.65 0854.42
2009/04/23 16:38:04.9      66     22     53     70     87  71.4  41.2  34398  293.62 0854.42
2009/04/23 16:38:05.0      36     15     42     40     58  67.4  49.1  34404  293.72 0854.42
2009/04/23 16:38:05.1      17     17     52     25     57  45.1  72.9  34394  293.56 0854.42
2009/04/23 16:38:05.2      22     11     40     25     47  62.9  64.7  34392  293.53 0854.42
2009/04/23 16:38:05.3      12      0     27     13     29  90.0  72.8  34386  293.41 0854.42
2009/04/23 16:38:05.4      -8     -6     18     11     21 230.5  66.8  34374  293.21 0854.42
2009/04/23 16:38:05.5     -13    -11     43     18     46 230.5  77.1  34350  292.80 0854.42
2009/04/23 16:38:05.6      -2    -16     24     17     29 188.0  62.6  34346  292.73 0854.42
2009/04/23 16:38:05.7      14    -17     14     23     26 140.4  35.5  34342  292.68 0854.42
2009/04/23 16:38:05.8       5    -15     13     16     20 161.7  43.7  34358  292.95 0854.42
2009/04/23 16:38:05.9      17     -4     14     18     22 105.1  43.7  34374  293.21 0854.42
2009/04/23 16:38:06.0      23     11     24     26     35  62.9  50.0  34398  293.63 0854.42
2009/04/23 16:38:06.1      11     44     24     46     51  15.1  29.3  34410  293.82 0854.42
2009/04/23 16:38:06.2     -11     41     24     43     49 344.9  31.4  34402  293.68 0854.42
2009/04/23 16:38:06.3     -27     48     21     56     59 331.0  21.0  34384  293.39 0854.42
2009/04/23 16:38:06.4     -27     46     11     54     56 329.3  12.2  34380  293.31 0854.42
2009/04/23 16:38:06.5     -10     50     36     52     63 348.4  38.6  34390  293.48 0854.42
2009/04/23 16:38:06.6       5     57     36     58     68   5.3  35.5  34392  293.51 0854.42
2009/04/23 16:38:06.7      19     51     40     55     68  20.9  39.7  34390  293.50 0854.43
2009/04/23 16:38:06.8      35     68     41     77     87  27.2  30.3  34384  293.38 0854.43
2009/04/23 16:38:06.9      63     61     61     88    107  46.0  38.0  34362  293.02 0854.43
2009/04/23 16:38:07.0      48     62     53     79     95  37.8  36.5  34364  293.04 0854.43
2009/04/23 16:38:07.1      11     86     66     87    109   7.6  41.2  34368  293.12 0854.43
2009/04/23 16:38:07.2      30     60     62     68     92  26.3  47.5  34370  293.14 0854.43
2009/04/23 16:38:07.3      32     83     46     90    101  21.4  29.3  34364  293.04 0854.43
2009/04/23 16:38:07.4      23     89     32     93     99  14.7  18.9  34362  293.00 0854.43
2009/04/23 16:38:07.5       4     73     35     74     81   3.6  26.6  34366  293.07 0854.43
2009/04/23 16:38:07.6     -19     72     31     75     81 344.9  23.6  34372  293.17 0854.43
2009/04/23 16:38:07.7     -14     49     50     52     72 344.0  50.0  34372  293.19 0854.43
2009/04/23 16:38:07.8     -27     57     54     64     83 334.5  45.4  34374  293.22 0854.43
2009/04/23 16:38:07.9     -43     56     47     71     85 322.2  36.5  34372  293.19 0854.43
2009/04/23 16:38:08.0     -44     52     45     69     82 319.5  36.5  34370  293.15 0854.43
2009/04/23 16:38:08.1     -47     57     25     75     80 320.4  18.9  34366  293.09 0854.43
2009/04/23 16:38:08.2     -65     45     18     80     83 305.1  13.2  34338  292.59 0854.43
2009/04/23 16:38:08.3     -70     69     19     99    101 314.6  11.0  34312  292.15 0854.43
2009/04/23 16:38:08.4     -72     77     40    106    113 316.7  21.5  34292  291.81 0854.43
2009/04/23 16:38:08.5     -62     58     21     85     88 313.1  14.3  34290  291.79 0854.43
2009/04/23 16:38:08.6     -75     31      2     82     83 292.6   1.8  34314  292.18 0854.43
2009/04/23 16:38:08.7     -95     14     -3     97     98 278.8  -2.2  34360  292.98 0854.43
2009/04/23 16:38:08.8     -74      0      3     75     76 270.0   2.9  34364  293.05 0854.43
2009/04/23 16:38:08.9     -68    -13     29     70     75 258.5  23.1  34350  292.81 0854.43
2009/04/23 16:38:09.0     -73    -34     34     81     87 244.8  23.6  34378  293.29 0854.43
2009/04/23 16:38:09.1     -71    -54     15     90     92 232.7   9.5  34382  293.34 0854.43
2009/04/23 16:38:09.2     -66    -46     34     81     87 234.9  23.6  34378  293.27 0854.43
2009/04/23 16:38:09.3     -89    -37     42     97    105 247.4  24.6  34374  293.21 0854.43
2009/04/23 16:38:09.4     -87    -53     41    103    110 238.5  23.0  34368  293.10 0854.43
2009/04/23 16:38:09.5     -78    -68     41    104    111 228.7  22.5  34368  293.10 0854.43
2009/04/23 16:38:09.6     -86    -91     51    126    135 223.2  23.0  34346  292.75 0854.43
2009/04/23 16:38:09.7     -86   -110     70    140    156 217.9  28.5  34258  291.25 0854.43
2009/04/23 16:38:09.8    -113   -109     54    158    168 226.0  18.9  34240  290.94 0854.43
2009/04/23 16:38:09.9     -93   -123     19    155    157 217.0   7.2  34196  290.19 0854.43
2009/04/23 16:38:10.0    -119   -144     22    188    190 219.6   6.9  34192  290.11 0854.43
2009/04/23 16:38:10.1    -127   -165      6    209    210 217.8   1.8  34194  290.16 0854.43
2009/04/23 16:38:10.2    -157   -130      8    204    205 230.4   2.3  34216  290.53 0854.43
2009/04/23 16:38:10.3    -143   -142      7    202    203 225.1   2.1  34224  290.65 0854.43
2009/04/23 16:38:10.4    -141   -142      7    201    202 224.8   2.1  34226  290.70 0854.43
2009/04/23 16:38:10.5    -146   -134     40    199    204 227.6  11.4  34242  290.96 0854.43
2009/04/23 16:38:10.6    -101   -143     39    176    181 215.4  12.6  34308  292.08 0854.43
2009/04/23 16:38:10.7     -46   -157     58    164    173 196.3  20.0  34312  292.17 0854.44
2009/04/23 16:38:10.8     -38   -159     74    164    179 193.4  26.2  34276  291.54 0854.44
2009/04/23 16:38:10.9     -36   -213     86    217    233 189.8  22.8  34272  291.47 0854.44
2009/04/23 16:38:11.0      42   -184    144    189    237 166.9  41.2  34266  291.38 0854.44
2009/04/23 16:38:11.1     -14   -187    100    188    212 184.4  30.3  34232  290.81 0854.44
2009/04/23 16:38:11.2     -23   -176     72    178    192 187.6  23.1  34246  291.04 0854.44
2009/04/23 16:38:11.3     -22   -134     39    136    142 189.3  16.3  34252  291.13 0854.44
2009/04/23 16:38:11.4     -13    -99     56    100    114 188.0  31.9  34266  291.37 0854.44
2009/04/23 16:38:11.5     -16    -98     80    100    128 189.8  43.7  34268  291.42 0854.44
2009/04/23 16:38:11.6     -17   -108     99    110    147 188.9  46.9  34286  291.71 0854.44
2009/04/23 16:38:11.7     -46   -137     79    145    165 198.7  31.0  34282  291.64 0854.45
2009/04/23 16:38:11.8     -14   -183    128    184    224 184.4  38.0  34226  290.69 0854.45
2009/04/23 16:38:11.9     -15   -194    117    195    227 184.5  34.0  34228  290.74 0854.45
2009/04/23 16:38:12.0     -17   -194    125    195    231 185.1  35.6  34196  290.18 0854.45
2009/04/23 16:38:12.1      -6   -169    164    170    236 182.2  49.0  34232  290.79 0854.45
2009/04/23 16:38:12.2     -13   -173    142    174    224 184.5  43.7  34234  290.82 0854.45
2009/04/23 16:38:12.3      -2   -177    148    178    231 180.7  43.8  34212  290.45 0854.45
2009/04/23 16:38:12.4       4   -178    175    179    250 178.6  49.8  34188  290.06 0854.45
2009/04/23 16:38:12.5      17   -172    148    173    227 174.2  44.8  34202  290.28 0854.45
2009/04/23 16:38:12.6      11   -184    145    185    235 176.4  42.2  34194  290.16 0854.45
2009/04/23 16:38:12.7       0   -182    140    183    230 180.0  41.4  34190  290.09 0854.45
2009/04/23 16:38:12.8     -14   -201    119    202    234 184.2  33.4  34204  290.33 0854.45
2009/04/23 16:38:12.9     -63   -215    116    225    253 196.5  29.3  34184  289.97 0854.45
2009/04/23 16:38:13.0     -24   -210    131    212    249 186.7  34.8  34188  290.05 0854.45
2009/04/23 16:38:13.1     -17   -239    156    240    286 184.2  36.0  34184  289.97 0854.45
2009/04/23 16:38:13.2     -68   -284    125    293    318 193.6  24.6  34184  289.98 0854.45
2009/04/23 16:38:13.3     -39   -253    139    257    292 188.9  31.3  34184  289.98 0854.45
2009/04/23 16:38:13.4     -36   -259    109    262    283 188.0  24.1  34188  290.05 0854.45
2009/04/23 16:38:13.5     -44   -310     99    314    330 188.1  17.5  34200  290.24 0854.45
2009/04/23 16:38:13.6     -26   -287     74    289    299 185.3  14.5  34194  290.14 0854.45
2009/04/23 16:38:13.7     -24   -234     98    236    255 186.0  24.1  34202  290.27 0854.44
2009/04/23 16:38:13.8       0   -230     67    231    241 180.2  16.3  34192  290.10 0854.44
2009/04/23 16:38:13.9     -48   -281     98    286    303 189.8  18.9  34194  290.14 0854.44
2009/04/23 16:38:14.0     -78   -344    108    353    370 192.8  17.0  34178  289.89 0854.44
2009/04/23 16:38:14.1    -116   -363     79    382    391 197.8  11.8  34180  289.91 0854.44
2009/04/23 16:38:14.2    -126   -389     80    410    418 198.0  11.1  34176  289.83 0854.44
2009/04/23 16:38:14.3     -38   -437     42    439    442 185.0   5.5  34178  289.87 0854.44
2009/04/23 16:38:14.4     -47   -556     42    559    561 184.9   4.4  34166  289.68 0854.44
2009/04/23 16:38:14.5    -115   -521     97    534    543 192.5  10.4  34178  289.87 0854.44
2009/04/23 16:38:14.6    -196   -458     84    499    507 203.2   9.6  34190  290.08 0854.44
2009/04/23 16:38:14.7    -244   -370     21    444    445 213.4   2.8  34122  288.92 0854.44
2009/04/23 16:38:14.8    -224   -318    -92    390    401 215.2 -13.4  34096  288.49 0854.44
2009/04/23 16:38:14.9    -250   -264    -86    364    375 223.5 -13.4  34094  288.44 0854.44
2009/04/23 16:38:15.0    -288   -251    -26    383    384 228.9  -4.0  34122  288.94 0854.44
2009/04/23 16:38:15.1    -326   -253    -52    413    417 232.2  -7.2  34108  288.68 0854.44
2009/04/23 16:38:15.2    -366   -244    -88    440    449 236.3 -11.3  34096  288.48 0854.44
2009/04/23 16:38:15.4    -314   -198   -106    372    386 237.8 -20.5  34094  288.47 0854.44
2009/04/23 16:38:15.4    -286   -194   -106    346    361 235.8 -22.2  34104  288.64 0854.44
2009/04/23 16:38:15.6    -196   -207    -83    286    297 223.4 -20.8  34140  289.22 0854.44
2009/04/23 16:38:15.7    -170   -191     17    257    258 221.7   3.8  34166  289.68 0854.44
2009/04/23 16:38:15.8    -132   -182     77    226    239 216.0  18.9  34172  289.78 0854.45
2009/04/23 16:38:15.9    -189   -230      3    298    299 219.4   0.7  34176  289.85 0854.45
2009/04/23 16:38:16.0    -200   -317     -8    375    376 212.3  -1.3  34168  289.71 0854.45
2009/04/23 16:38:16.1    -127   -291    -53    318    323 203.7  -9.6  34166  289.68 0854.45
2009/04/23 16:38:16.2    -127   -186     27    226    228 214.3   6.9  34154  289.48 0854.45
2009/04/23 16:38:16.3     -74   -145    -36    163    168 207.2 -12.6  34158  289.55 0854.45
2009/04/23 16:38:16.4     -94   -197    -67    219    230 205.5 -17.0  34162  289.62 0854.45
2009/04/23 16:38:16.5    -129   -191    -64    231    240 214.1 -15.5  34156  289.51 0854.45
2009/04/23 16:38:16.6    -157   -159    -80    224    237 224.5 -24.8  34158  289.54 0854.45
2009/04/23 16:38:16.7     -71   -174     29    189    192 202.3   8.8  34168  289.70 0854.45
2009/04/23 16:38:16.8     -31   -221      2    224    225 188.1   0.7  34170  289.74 0854.45
2009/04/23 16:38:16.9     -63   -209     -8    219    220 196.9  -2.2  34162  289.62 0854.45
2009/04/23 16:38:17.0    -139    -95   -103    169    197 235.4 -38.6  34186  290.02 0854.45
2009/04/23 16:38:17.1     -87    -37    -90     95    130 246.5 -52.9  34190  290.09 0854.45
2009/04/23 16:38:17.2     -58     18   -123     61    137 287.7 -76.3  34186  290.01 0854.45
2009/04/23 16:38:17.3     -27     14    -83     31     88 297.1 -83.6  34182  289.94 0854.45
2009/04/23 16:38:17.4     -12     30    -26     33     42 338.2 -47.1  34174  289.80 0854.45
2009/04/23 16:38:17.5     -22     -6     -7     23     25 254.9 -17.6  34178  289.87 0854.45
2009/04/23 16:38:17.6      16     21     -1     27     28  37.8  -3.1  34186  290.02 0854.45
2009/04/23 16:38:17.7      23     -4    -15     24     28  99.7 -39.9  34178  289.89 0854.45
2009/04/23 16:38:17.8      -6    -82    -29     83     89 184.4 -19.7  34180  289.92 0854.45
2009/04/23 16:38:17.9     -23   -139    -33    142    146 189.7 -13.4  34176  289.85 0854.45
2009/04/23 16:38:18.0     -16   -111    -31    113    117 188.5 -20.2  34176  289.84 0854.45
2009/04/23 16:38:18.1     -18   -123    -47    125    133 188.5 -25.4  34172  289.79 0854.45
2009/04/23 16:38:18.2      40   -101    -63    109    125 158.2 -37.8  34178  289.89 0854.45
2009/04/23 16:38:18.3      78    -82    -47    114    123 136.7 -27.5  34182  289.96 0854.45
2009/04/23 16:38:18.4      77    -49    -18     92     94 122.4 -11.3  34182  289.94 0854.45
2009/04/23 16:38:18.5      48    -41    -24     64     68 130.4 -24.4  34182  289.96 0854.45
2009/04/23 16:38:18.6      83    -19    -19     86     89 103.3 -12.4  34176  289.84 0854.45
2009/04/23 16:38:18.7     105    -32     44    110    118 107.3  23.0  34178  289.87 0854.45
2009/04/23 16:38:18.8     133    -44     22    141    143 108.2   8.9  34184  289.97 0854.45
2009/04/23 16:38:18.9      93    -81     -2    124    125 130.9  -1.3  34192  290.13 0854.45
2009/04/23 16:38:19.0      83   -113    -60    141    153 143.5 -28.5  34190  290.09 0854.45
2009/04/23 16:38:19.1     112   -100    -46    151    157 131.8 -21.7  34182  289.96 0854.45
2009/04/23 16:38:19.2     114    -98   -108    151    185 130.9 -43.5  34178  289.87 0854.45
2009/04/23 16:38:19.3      98    -60    -91    115    146 121.5 -47.7  34172  289.77 0854.45
2009/04/23 16:38:19.4     160    -29    -81    163    182 100.6 -32.6  34156  289.52 0854.45
2009/04/23 16:38:19.5     167    -60    -38    178    183 110.0 -12.2  34160  289.58 0854.45
2009/04/23 16:38:19.6     176    -13    -39    177    182  94.4 -12.4  34160  289.57 0854.45
2009/04/23 16:38:19.7     173    -68      1    187    188 111.5   0.5  34156  289.50 0854.45
2009/04/23 16:38:19.8     187    -88     32    207    210 115.2   9.0  34170  289.74 0854.49
2009/04/23 16:38:19.9     172    -97     28    198    201 119.5   8.2  34158  289.55 0854.49
2009/04/23 16:38:20.0     141    -90    -41    168    174 122.5 -13.9  34144  289.30 0854.49
2009/04/23 16:38:20.1      73    -93    -21    119    121 142.2 -10.3  34144  289.30 0854.49
2009/04/23 16:38:20.2      67   -114     -8    133    134 149.7  -3.7  34142  289.26 0854.49
2009/04/23 16:38:20.3      73   -123     18    144    146 149.3   7.1  34140  289.23 0854.49
2009/04/23 16:38:20.4     128   -149      1    197    198 139.2   0.5  34140  289.24 0854.49
2009/04/23 16:38:20.5     115   -160      0    198    199 144.4   0.2  34134  289.14 0854.49
2009/04/23 16:38:20.6     113   -126     45    170    177 138.3  15.0  34136  289.18 0854.49
2009/04/23 16:38:20.7     102   -162     77    192    206 147.7  23.0  34130  289.08 0854.49
2009/04/23 16:38:20.8      88   -170     84    192    209 152.6  25.2  34136  289.18 0854.49
2009/04/23 16:38:20.9      79   -198     79    214    228 158.2  21.0  34136  289.18 0854.49
2009/04/23 16:38:21.0     144   -228     58    270    277 147.7  12.1  34136  289.17 0854.49
2009/04/23 16:38:21.1     113   -269     56    292    298 157.2  11.0  34142  289.25 0854.49
2009/04/23 16:38:21.2     119   -186    163    221    274 147.4  40.1  34130  289.05 0854.49
2009/04/23 16:38:21.3     155   -186    152    243    286 140.3  35.2  34132  289.09 0854.49
2009/04/23 16:38:21.4     176   -221    148    283    319 141.5  29.8  34136  289.15 0854.49
2009/04/23 16:38:21.5     209   -254    138    330    357 140.5  23.9  34142  289.28 0854.49
2009/04/23 16:38:21.6     263   -260    130    371    394 134.7  19.4  34148  289.38 0854.49
2009/04/23 16:38:21.7     182   -267    163    324    362 145.7  28.7  34136  289.15 0854.49
2009/04/23 16:38:21.8     132   -314    120    341    361 157.2  20.1  34136  289.16 0854.49
2009/04/23 16:38:21.9      24   -320    132    321    347 175.6  23.6  34142  289.28 0854.49
2009/04/23 16:38:22.0     172   -463    234    495    547 159.6  27.1  34128  289.02 0854.49
2009/04/23 16:38:22.1     193   -560    134    593    609 160.9  12.8  34140  289.22 0854.49
2009/04/23 16:38:22.2     140   -558    219    576    616 165.9  22.0  34164  289.64 0854.49
2009/04/23 16:38:22.3      90   -493    206    502    542 169.7  23.5  34150  289.41 0854.49
2009/04/23 16:38:22.4      56   -417    129    421    441 172.3  17.0  34126  288.99 0854.49
2009/04/23 16:38:22.5       0   -321     42    322    325 179.9   7.5  34122  288.92 0854.49
2009/04/23 16:38:22.6     -24   -314     -6    315    316 184.4  -1.1  34126  288.98 0854.49
2009/04/23 16:38:22.7    -144   -306     39    339    342 205.3   6.7  34132  289.11 0854.49
2009/04/23 16:38:22.8    -162   -404    118    436    452 201.9  15.2  34130  289.07 0854.49
2009/04/23 16:38:22.9    -204   -510     24    550    551 201.9   2.5  34150  289.41 0854.49
2009/04/23 16:38:23.0    -197   -475     16    515    516 202.6   1.8  34150  289.39 0854.49
2009/04/23 16:38:23.1    -102   -429     -8    441    442 193.4  -1.2  34146  289.33 0854.49
2009/04/23 16:38:23.2    -188   -387    -54    431    435 205.9  -7.2  34130  289.07 0854.49
2009/04/23 16:38:23.3    -172   -451   -134    483    502 200.9 -15.5  34136  289.18 0854.49
2009/04/23 16:38:23.4    -159   -478    -92    504    513 198.4 -10.4  34142  289.25 0854.49
2009/04/23 16:38:23.5    -214   -280    -44    353    356 217.5  -7.2  34148  289.38 0854.49
2009/04/23 16:38:23.6    -163   -464   -112    493    506 199.4 -12.9  34136  289.18 0854.49
2009/04/23 16:38:23.7    -144   -433   -124    457    474 198.4 -15.2  34118  288.86 0854.49
2009/04/23 16:38:23.8     -16   -373   -114    374    392 182.5 -16.9  34122  288.94 0854.42
2009/04/23 16:38:23.9     -56   -397   -130    402    423 188.1 -17.9  34132  289.11 0854.42
2009/04/23 16:38:24.0      -5   -384    -56    385    390 180.8  -8.4  34128  289.04 0854.42
2009/04/23 16:38:24.1      91   -414   -113    425    440 167.5 -15.0  34126  289.00 0854.42
2009/04/23 16:38:24.2      76   -376   -149    384    411 168.4 -26.8  34136  289.16 0854.42
2009/04/23 16:38:24.3      68   -268   -140    277    310 165.7 -33.1  34144  289.29 0854.42
2009/04/23 16:38:24.4      -4   -296    -96    297    313 180.9 -17.9  34144  289.31 0854.42
2009/04/23 16:38:24.5     -62   -276   -115    283    305 192.7 -27.5  34144  289.31 0854.42
2009/04/23 16:38:24.6     -91   -379   -126    390    409 193.6 -23.0  34146  289.34 0854.42
2009/04/23 16:38:24.7     -33   -426   -139    428    451 184.5 -18.0  34142  289.27 0854.42
2009/04/23 16:38:24.8     -40   -426   -153    429    456 185.4 -19.7  34138  289.19 0854.42
2009/04/23 16:38:24.9       7   -426   -100    427    439 179.0 -13.3  34136  289.16 0854.42
2009/04/23 16:38:25.0     -10   -501    -51    502    505 181.2  -5.8  34136  289.18 0854.42
2009/04/23 16:38:25.1    -135   -396   -130    419    438 198.8 -22.2  34144  289.31 0854.42
2009/04/23 16:38:25.2    -206   -323   -182    384    424 212.5 -31.6  34144  289.29 0854.42
2009/04/23 16:38:25.3    -135   -314   -219    342    406 203.3 -40.0  34146  289.32 0854.42
2009/04/23 16:38:25.4    -159   -279   -121    322    343 209.6 -26.0  34136  289.18 0854.42
2009/04/23 16:38:25.5    -134   -298   -101    327    343 204.3 -17.3  34138  289.21 0854.42
2009/04/23 16:38:25.6    -163   -218    -24    273    275 216.7  -5.2  34146  289.32 0854.42
2009/04/23 16:38:25.7    -135   -213    -10    253    254 212.5  -2.3  34146  289.32 0854.42
2009/04/23 16:38:25.8    -144   -197    -35    245    248 216.3  -8.2  34148  289.37 0854.39
2009/04/23 16:38:25.9     -79   -249    -74    262    272 197.6 -20.7  34150  289.39 0854.39
2009/04/23 16:38:26.0     -53   -204     29    211    214 194.7   8.0  34144  289.31 0854.39
2009/04/23 16:38:26.1     -69   -159     15    174    175 203.4   5.2  34146  289.33 0854.39
2009/04/23 16:38:26.2    -138   -269    -20    303    304 207.1  -3.9  34144  289.29 0854.39
2009/04/23 16:38:26.3    -173   -339     19    381    382 207.1   2.9  34136  289.18 0854.39
2009/04/23 16:38:26.4    -221   -332    -47    400    403 213.7  -6.8  34128  289.03 0854.39
2009/04/23 16:38:26.5    -124   -366   -112    387    403 198.8 -16.2  34132  289.10 0854.39
2009/04/23 16:38:26.6    -116   -307   -102    329    344 200.7 -22.3  34128  289.04 0854.39
2009/04/23 16:38:26.7    -145   -334   -109    365    380 203.5 -21.7  34136  289.15 0854.39
2009/04/23 16:38:26.8    -116   -247   -115    274    297 205.2 -28.5  34138  289.20 0854.39
2009/04/23 16:38:26.9    -111   -233   -141    259    294 205.5 -35.7  34138  289.19 0854.39
2009/04/23 16:38:27.0    -120   -175   -107    213    238 214.5 -33.1  34138  289.19 0854.39
2009/04/23 16:38:27.1    -151   -182    -65    237    246 219.7 -15.5  34144  289.29 0854.39
2009/04/23 16:38:27.2    -113   -316   -133    336    361 199.7 -27.2  34134  289.13 0854.39
2009/04/23 16:38:27.3     -81   -347   -174    357    397 193.1 -32.4  34126  288.99 0854.39
2009/04/23 16:38:27.4    -179   -254   -162    311    350 215.2 -34.2  34142  289.25 0854.39
2009/04/23 16:38:27.5    -156   -239   -218    286    359 213.2 -45.6  34136  289.16 0854.39
2009/04/23 16:38:27.6    -200   -216   -195    295    353 222.8 -41.0  34138  289.20 0854.39
2009/04/23 16:38:27.7    -279   -228   -131    361    384 230.8 -25.3  34132  289.11 0854.39
2009/04/23 16:38:27.8    -260   -324    -75    416    423 218.8 -10.2  34136  289.16 0854.37
2009/04/23 16:38:27.9    -169   -422     -2    455    456 201.9  -0.3  34132  289.11 0854.37
2009/04/23 16:38:28.0      -6   -370    -40    371    374 181.0  -6.2  34128  289.03 0854.37
2009/04/23 16:38:28.1     112   -383   -100    400    413 163.6 -14.1  34130  289.07 0854.37
2009/04/23 16:38:28.2      80   -360    -86    369    379 167.4 -13.1  34128  289.04 0854.37
2009/04/23 16:38:28.3      -6   -391    -99    392    405 181.0 -14.3  34130  289.06 0854.37
2009/04/23 16:38:28.4      98   -528    -54    538    541 169.4  -5.8  34122  288.92 0854.37
2009/04/23 16:38:28.5     145   -507    -47    528    531 164.0  -5.1  34120  288.89 0854.37
2009/04/23 16:38:28.6     324   -366     91    490    499 138.5  10.6  34120  288.91 0854.37
2009/04/23 16:38:28.7     264   -368    -24    454    455 144.3  -3.1  34104  288.61 0854.37
2009/04/23 16:38:28.8     202   -364    -55    417    421 151.0  -7.6  34118  288.85 0854.37
2009/04/23 16:38:28.9     148   -332    -85    364    374 155.9 -13.3  34122  288.93 0854.37
2009/04/23 16:38:29.0     136   -288    -34    319    321 154.6  -6.2  34126  289.00 0854.37
2009/04/23 16:38:29.1     112   -293    110    314    333 159.1  19.3  34122  288.92 0854.37
2009/04/23 16:38:29.2     175   -250    147    306    339 144.9  27.3  34122  288.93 0854.37
2009/04/23 16:38:29.3     166   -288    225    333    401 150.1  37.4  34126  288.98 0854.37
2009/04/23 16:38:29.4     146   -274    240    311    392 151.9  41.6  34152  289.43 0854.37
2009/04/23 16:38:29.5      37   -333    282    336    438 173.5  44.3  34136  289.16 0854.37
2009/04/23 16:38:29.6      -6   -401     71    402    409 180.9  10.0  34134  289.12 0854.37
2009/04/23 16:38:29.7      86   -360     42    371    374 166.5   6.6  34130  289.08 0854.37
2009/04/23 16:38:29.8      24   -371    146    372    399 176.3  22.5  34126  289.01 0854.33
2009/04/23 16:38:29.9      69   -320    117    328    348 167.7  20.3  34122  288.94 0854.33
2009/04/23 16:38:30.0      95   -411     69    422    428 166.9   9.3  34122  288.94 0854.33
2009/04/23 16:38:30.1     109   -385     65    401    407 164.2   9.2  34128  289.04 0854.33
2009/04/23 16:38:30.2     195   -466     35    506    508 157.3   4.0  34116  288.81 0854.33
2009/04/23 16:38:30.3     157   -422     47    451    454 159.6   6.0  34118  288.85 0854.33
2009/04/23 16:38:30.4     199   -391     -5    439    440 153.0  -0.7  34124  288.95 0854.33
2009/04/23 16:38:30.5     174   -378    -39    417    419 155.3  -5.4  34126  288.99 0854.33
2009/04/23 16:38:30.6     113   -372    -33    389    391 163.1  -4.9  34126  288.99 0854.33
2009/04/23 16:38:30.7     112   -329    -47    348    352 161.1  -7.7  34130  289.06 0854.33
2009/04/23 16:38:30.8     176   -291     -2    341    342 148.9  -0.5  34116  288.81 0854.33
2009/04/23 16:38:30.9     217   -333     36    398    400 146.9   5.2  34112  288.77 0854.33
2009/04/23 16:38:31.0     115   -326     -7    346    347 160.5  -1.3  34122  288.93 0854.33
2009/04/23 16:38:31.1      80   -326    -97    336    349 166.2 -21.0  34128  289.03 0854.33
2009/04/23 16:38:31.2     164   -344     18    382    383 154.5   2.8  34128  289.04 0854.33
2009/04/23 16:38:31.3     116   -345     23    365    366 161.3   3.7  34134  289.13 0854.33
2009/04/23 16:38:31.4     119   -343    -14    364    365 160.8  -2.2  34128  289.04 0854.33
2009/04/23 16:38:31.5     112   -276    -45    298    302 157.9  -8.6  34128  289.03 0854.33
2009/04/23 16:38:31.6     187   -139     52    234    240 126.6  12.6  34104  288.63 0854.33
2009/04/23 16:38:31.7     217   -128    104    253    273 120.6  23.4  34128  289.03 0854.33
2009/04/23 16:38:31.8      23   -252    231    254    343 174.7  47.0  34168  289.70 0854.27
2009/04/23 16:38:31.9     -55   -224    231    231    326 194.0  50.1  34140  289.22 0854.27
2009/04/23 16:38:32.0     -13   -294    244    295    382 182.7  43.7  34128  289.04 0854.27
2009/04/23 16:38:32.1      36   -319    200    322    379 173.5  35.1  34120  288.89 0854.27
2009/04/23 16:38:32.2      40   -271    155    275    315 171.5  32.0  34124  288.95 0854.27
2009/04/23 16:38:32.3      44   -283    151    287    324 171.1  30.0  34128  289.03 0854.27
2009/04/23 16:38:32.4     107   -280    126    300    325 159.1  24.2  34122  288.93 0854.27
2009/04/23 16:38:32.5      99   -246    117    266    290 158.1  25.2  34118  288.85 0854.27
2009/04/23 16:38:32.6     -52   -267     35    273    276 191.1   7.5  34130  289.05 0854.27
2009/04/23 16:38:32.7     -65   -324     67    331    339 191.3  11.6  34136  289.16 0854.27
2009/04/23 16:38:32.8      -5   -329     90    330    343 180.9  15.3  34132  289.11 0854.27
2009/04/23 16:38:32.9     106   -315     87    333    345 161.3  14.6  34132  289.10 0854.27
2009/04/23 16:38:33.0     132   -284     58    314    320 155.1  10.6  34130  289.07 0854.27
2009/04/23 16:38:33.1     140   -211    113    254    278 146.4  25.2  34126  289.00 0854.27
2009/04/23 16:38:33.2     164   -267     90    314    327 148.4  16.1  34128  289.03 0854.27
2009/04/23 16:38:33.3      68   -276     41    285    288 166.0   8.2  34130  289.05 0854.27
2009/04/23 16:38:33.4      31   -279     -6    281    282 173.5  -1.3  34140  289.24 0854.27
2009/04/23 16:38:33.5      48   -280    -36    285    288 170.2  -7.2  34134  289.14 0854.27
2009/04/23 16:38:33.6     110   -310    -34    330    332 160.4  -6.0  34130  289.06 0854.27
2009/04/23 16:38:33.7      82   -305    -17    317    318 164.9  -3.1  34136  289.17 0854.27
2009/04/23 16:38:33.8      55   -240     12    247    248 167.1   2.8  34128  289.02 0854.27
2009/04/23 16:38:33.9      25   -204    -18    206    207 172.9  -5.2  34128  289.02 0854.27
2009/04/23 16:38:34.0      15   -216    -11    217    218 176.0  -3.1  34130  289.06 0854.27
2009/04/23 16:38:34.1      39   -185    -52    190    198 168.0 -15.5  34132  289.11 0854.27
2009/04/23 16:38:34.2      61   -158    -53    170    178 158.8 -22.3  34134  289.13 0854.27
2009/04/23 16:38:34.3      84   -132    -43    157    162 147.5 -20.2  34132  289.11 0854.27
2009/04/23 16:38:34.4      79   -124    -53    148    157 147.5 -24.8  34136  289.18 0854.27
2009/04/23 16:38:34.5      61    -76    -46     98    108 141.3 -31.5  34138  289.21 0854.27
2009/04/23 16:38:34.6      62    -55      6     84     85 131.8   4.4  34134  289.14 0854.27
2009/04/23 16:38:34.7      42    -43     36     61     70 135.9  33.5  34138  289.19 0854.27
2009/04/23 16:38:34.8      37    -58     66     69     95 147.5  49.0  34136  289.16 0854.30
2009/04/23 16:38:34.9     114    -83     94    142    170 126.0  36.5  34132  289.11 0854.30
2009/04/23 16:38:35.0     120   -120    103    170    198 135.0  34.0  34138  289.19 0854.30
2009/04/23 16:38:35.1      59    -77     98     98    138 142.6  50.1  34146  289.35 0854.30
2009/04/23 16:38:35.2      21    -21     48     31     57 135.0  64.6  34156  289.50 0854.30
2009/04/23 16:38:35.3      12      4     34     13     36  71.8  81.2  34152  289.45 0854.30
2009/04/23 16:38:35.4      -1      8     64      9     64 350.3  90.0  34154  289.48 0854.30
2009/04/23 16:38:35.6       4     45     58     46     74   5.3  56.4  34160  289.58 0854.30
2009/04/23 16:38:35.6      -5     19     51     20     54 343.1  79.2  34168  289.70 0854.30
2009/04/23 16:38:35.7      -3     48     81     49     94 355.6  65.1  34184  289.97 0854.30
2009/04/23 16:38:35.8     -51     76    106     92    140 325.7  54.3  34160  289.57 0854.30
2009/04/23 16:38:35.9     -51     63     92     82    123 321.3  53.3  34152  289.43 0854.30
2009/04/23 16:38:36.0     -36     36     92     52    105 315.0  68.3  34162  289.60 0854.30
2009/04/23 16:38:36.1     -39     21    110     45    118 298.9  77.0  34160  289.58 0854.30
2009/04/23 16:38:36.2     -34     32    108     47    117 313.1  75.0  34160  289.58 0854.30
2009/04/23 16:38:36.3     -70      7    119     71    138 276.1  66.7  34144  289.31 0854.30
2009/04/23 16:38:36.4      15     94     92     96    132   9.3  49.4  34134  289.13 0854.30
2009/04/23 16:38:36.5     -27     86     96     91    132 342.2  51.6  34138  289.21 0854.30
2009/04/23 16:38:36.6     -76     81     67    112    130 316.8  33.5  34140  289.24 0854.30
2009/04/23 16:38:36.8     -40     25     90     48    102 302.5  69.3  34148  289.38 0854.34
2009/04/23 16:38:36.8     -65     31     65     73     97 295.4  46.9  34148  289.38 0854.34
2009/04/23 16:38:36.9    -117    -69     80    137    158 239.4  32.9  34150  289.40 0854.34
2009/04/23 16:38:37.0     -74   -110     73    133    151 213.8  31.3  34136  289.16 0854.34
2009/04/23 16:38:37.1     -51   -107     93    119    151 205.4  42.2  34136  289.18 0854.34
2009/04/23 16:38:37.2      -6   -137    133    138    191 182.7  49.0  34140  289.24 0854.34
2009/04/23 16:38:37.3      10   -140    124    141    187 175.5  45.8  34138  289.21 0854.34
2009/04/23 16:38:37.4       0   -156    135    157    207 180.0  45.4  34140  289.24 0854.34
2009/04/23 16:38:37.5       2   -197    115    198    228 179.3  32.9  34134  289.13 0854.34
2009/04/23 16:38:37.6     -16   -228     65    229    239 184.2  15.8  34132  289.09 0854.34
2009/04/23 16:38:37.7     -37   -260     40    263    267 188.1   8.8  34136  289.15 0854.34
2009/04/23 16:38:37.8     -19   -249     90    250    265 184.4  20.4  34134  289.14 0854.34
2009/04/23 16:38:37.9       4   -268    123    269    295 179.1  26.2  34130  289.05 0854.34
2009/04/23 16:38:38.0     -12   -330     50    331    335 182.2   8.7  34124  288.96 0854.34
2009/04/23 16:38:38.1      34   -515    140    517    536 176.2  15.1  34120  288.89 0854.34
2009/04/23 16:38:38.2      92   -404    238    415    478 167.1  32.4  34134  289.12 0854.34
2009/04/23 16:38:38.3     117   -357    145    376    402 161.9  22.1  34128  289.04 0854.34
2009/04/23 16:38:38.4     179   -342     15    387    388 152.4   2.3  34126  289.01 0854.34
2009/04/23 16:38:38.5      95   -312     42    327    330 163.1   7.4  34120  288.89 0854.34
2009/04/23 16:38:38.6     203   -295    -13    359    360 145.5  -2.1  34154  289.48 0854.34
2009/04/23 16:38:38.7     239   -288     -3    375    376 140.3  -0.5  34132  289.10 0854.34
2009/04/23 16:38:38.8     209   -264      8    337    338 141.6   1.5  34134  289.13 0854.36
2009/04/23 16:38:38.9     195   -201    -12    281    282 135.9  -2.6  34162  289.59 0854.36
2009/04/23 16:38:39.0     289   -183     16    343    344 122.4   2.8  34168  289.71 0854.36
2009/04/23 16:38:39.1     251   -159    -60    298    304 122.4 -11.5  34154  289.46 0854.36
2009/04/23 16:38:39.2     279   -110    -28    300    302 111.5  -5.4  34160  289.56 0854.36
2009/04/23 16:38:39.3     223    -85    -52    239    245 111.1 -12.4  34152  289.44 0854.36
2009/04/23 16:38:39.4     173   -134    -61    219    227 127.8 -20.0  34134  289.13 0854.36
2009/04/23 16:38:39.5      78   -176    -57    193    201 155.9 -21.5  34126  288.99 0854.36
2009/04/23 16:38:39.6      53   -332     77    337    346 170.8  12.9  34140  289.23 0854.36
2009/04/23 16:38:39.7    -137   -512     92    531    540 195.0   9.9  34140  289.24 0854.36
2009/04/23 16:38:39.8    -111   -537    132    549    565 191.7  13.6  34146  289.33 0854.36
2009/04/23 16:38:39.9    -162   -531    173    556    583 197.0  17.3  34144  289.30 0854.36
2009/04/23 16:38:40.0    -187   -477     51    513    516 201.4   5.7  34144  289.30 0854.36
2009/04/23 16:38:40.1    -160   -401     66    433    438 201.8   8.7  34142  289.27 0854.36
2009/04/23 16:38:40.2     -35   -420     80    422    430 184.8  10.8  34144  289.31 0854.36
2009/04/23 16:38:40.3     -54   -391    148    395    421 188.0  21.6  34138  289.21 0854.36
2009/04/23 16:38:40.4     -16   -355    143    356    383 182.7  23.0  34122  288.94 0854.36
2009/04/23 16:38:40.5     -63   -402    254    408    480 189.0  35.0  34130  289.05 0854.36
2009/04/23 16:38:40.6     113   -238    248    264    362 154.6  48.0  34132  289.10 0854.36
2009/04/23 16:38:40.7     226   -225     85    320    332 134.9  14.9  34132  289.10 0854.36
2009/04/23 16:38:40.8     150   -239    -51    283    288 147.9 -10.4  34142  289.25 0854.37
2009/04/23 16:38:40.9     118   -248     -1    275    276 154.4  -0.3  34144  289.29 0854.37
2009/04/23 16:38:41.0     100   -215    -17    238    239 155.1  -4.1  34132  289.10 0854.37
2009/04/23 16:38:41.1      87   -288     31    302    304 163.1   5.9  34128  289.02 0854.37
2009/04/23 16:38:41.2     105   -397    -81    411    420 165.1 -11.2  34132  289.11 0854.37
2009/04/23 16:38:41.3     130   -389     12    411    412 161.4   1.7  34110  288.73 0854.37
2009/04/23 16:38:41.4     105   -521    121    532    546 168.5  12.9  34106  288.67 0854.37
2009/04/23 16:38:41.5     151   -445     77    471    478 161.2   9.3  34126  289.01 0854.37
2009/04/23 16:38:41.6     130   -434    176    454    486 163.3  22.4  34140  289.22 0854.37
2009/04/23 16:38:41.7      77   -413    140    421    444 169.4  18.5  34116  288.83 0854.37
2009/04/23 16:38:41.9      23   -278    -12    280    281 175.1  -2.6  34108  288.70 0854.37
2009/04/23 16:38:42.0    -178   -161    -17    241    242 227.8  -4.1  34120  288.88 0854.37
2009/04/23 16:38:42.1    -112      1    -80    113    138 270.8 -43.5  34110  288.74 0854.37
2009/04/23 16:38:42.1       9    -35    -65     37     74 164.9 -72.1  34120  288.89 0854.37
2009/04/23 16:38:42.3     -34   -164   -138    168    217 191.8 -48.1  34108  288.69 0854.37
2009/04/23 16:38:42.3      35   -145    -84    150    171 166.2 -36.3  34108  288.70 0854.37
2009/04/23 16:38:42.5     195    -68    -65    207    218 109.3 -17.5  34096  288.50 0854.37
2009/04/23 16:38:42.6     158   -126    115    203    233 128.6  32.1  34118  288.86 0854.37
2009/04/23 16:38:42.7      30   -134    135    138    193 167.1  49.8  34122  288.92 0854.37
2009/04/23 16:38:42.8     -26   -155     86    158    179 189.7  31.0  34120  288.89 0854.37
2009/04/23 16:38:42.9    -130   -174     85    218    233 216.7  22.3  34118  288.86 0854.39
2009/04/23 16:38:43.0     -39   -118     96    125    157 198.3  41.7  34122  288.94 0854.39
2009/04/23 16:38:43.1     -26    -92    116     96    150 196.0  56.3  34124  288.97 0854.39
2009/04/23 16:38:43.2     -36    -74    107     83    135 206.3  58.4  34126  288.99 0854.39
2009/04/23 16:38:43.3      22     22    125     32    129  45.1  85.9  34138  289.21 0854.39
2009/04/23 16:38:43.4     -15      9    140     18    141 302.4  90.0  34166  289.69 0854.39
2009/04/23 16:38:43.5     -47     50    188     69    200 316.8  79.2  34204  290.31 0854.39
2009/04/23 16:38:43.6       0    101    151    102    182 359.6  63.2  34190  290.09 0854.39
2009/04/23 16:38:43.7      73     10    232     74    243  82.1  81.7  34214  290.50 0854.39
2009/04/23 16:38:43.8    -116     77    213    140    254 303.7  63.6  34258  291.23 0854.39
2009/04/23 16:38:43.9    -222    -15     77    223    237 266.1  19.2  34186  290.01 0854.39
2009/04/23 16:38:44.0     -99   -178     39    205    209 209.2  11.0  34244  290.99 0854.39
2009/04/23 16:38:44.1    -234   -127    197    267    331 241.4  40.0  34254  291.16 0854.39
2009/04/23 16:38:44.2      57    -21     16     61     64 110.8  15.2  34186  290.02 0854.39
2009/04/23 16:38:44.3      -6   -142     21    143    145 182.7   8.5  34174  289.82 0854.39
2009/04/23 16:38:44.4     -78    -65     14    102    104 230.4   8.0  34172  289.77 0854.39
2009/04/23 16:38:44.5    -101   -155     49    186    193 213.2  15.0  34166  289.69 0854.39
2009/04/23 16:38:44.6      -9   -203    103    204    228 182.6  28.7  34150  289.41 0854.39
2009/04/23 16:38:44.7     -66   -219     75    229    242 196.9  18.1  34142  289.25 0854.39
2009/04/23 16:38:44.8     -32   -267    140    269    303 186.9  29.3  34132  289.10 0854.39
2009/04/23 16:38:44.9     -51   -199    105    206    231 194.5  29.1  34144  289.31 0854.41
2009/04/23 16:38:45.0      25   -146    137    149    202 170.3  47.7  34148  289.38 0854.41
2009/04/23 16:38:45.1      45   -296    189    300    354 171.3  35.2  34136  289.15 0854.41
2009/04/23 16:38:45.2    -109   -326    154    345    377 198.6  25.7  34134  289.13 0854.41
2009/04/23 16:38:45.3    -112   -336    156    355    387 198.4  25.2  34128  289.03 0854.41
2009/04/23 16:38:45.4     -37   -345     87    348    359 186.3  14.2  34140  289.23 0854.41
2009/04/23 16:38:45.5      76   -375     45    383    386 168.4   6.7  34152  289.43 0854.41
2009/04/23 16:38:45.6      46   -332    197    336    389 172.0  33.3  34172  289.79 0854.41
2009/04/23 16:38:45.7    -126   -268     15    297    298 205.3   2.9  34168  289.70 0854.41
2009/04/23 16:38:45.8    -167   -311    188    354    400 208.3  30.2  34168  289.72 0854.41
2009/04/23 16:38:45.9    -283   -459     76    540    546 211.7   8.0  34162  289.62 0854.41
2009/04/23 16:38:46.0    -144   -433    132    457    476 198.5  16.1  34156  289.50 0854.41
2009/04/23 16:38:46.1    -131   -415    173    436    469 197.6  22.8  34174  289.82 0854.41
2009/04/23 16:38:46.2     -95   -476    150    486    509 191.3  17.2  34162  289.62 0854.41
2009/04/23 16:38:46.3     -29   -493    120    494    509 183.4  13.7  34142  289.25 0854.41
2009/04/23 16:38:46.4       3   -357    199    358    409 179.5  31.4  34142  289.26 0854.41
2009/04/23 16:38:46.5     -27   -374    174    375    413 184.2  26.6  34128  289.03 0854.41
2009/04/23 16:38:46.6      -7   -279    209    280    349 181.6  40.4  34154  289.46 0854.41
2009/04/23 16:38:46.7     -88   -388    174    398    434 192.8  25.1  34228  290.73 0854.41
2009/04/23 16:38:46.8      -9   -357    126    358    380 181.5  19.4  34218  290.55 0854.41
2009/04/23 16:38:46.9      22   -347    144    348    376 176.3  23.7  34198  290.21 0854.42
2009/04/23 16:38:47.0      24   -318    166    320    360 175.5  29.6  34172  289.79 0854.42
2009/04/23 16:38:47.1      17   -294    103    295    313 176.6  19.4  34152  289.44 0854.42
2009/04/23 16:38:47.2     -15   -297     46    298    302 182.9   8.9  34142  289.27 0854.42
2009/04/23 16:38:47.3      15   -250     37    251    254 176.4   8.5  34152  289.44 0854.42
2009/04/23 16:38:47.4      30   -147     35    151    156 168.4  13.2  34158  289.55 0854.42
2009/04/23 16:38:47.5      29    -54    107     62    123 151.9  66.8  34168  289.70 0854.42
2009/04/23 16:38:47.6     -15    -33     93     37    100 205.3  77.1  34188  290.06 0854.42
2009/04/23 16:38:47.7      35   -171     96    175    199 168.4  31.3  34134  289.14 0854.42
2009/04/23 16:38:47.8      62   -131    146    146    206 154.7  50.1  34166  289.69 0854.42
2009/04/23 16:38:47.9       5   -169    160    170    233 178.2  48.2  34152  289.43 0854.42
2009/04/23 16:38:48.0     -39   -249    251    253    356 188.9  50.0  34142  289.27 0854.42
2009/04/23 16:38:48.1     -15   -338    237    339    413 182.6  38.5  34122  288.93 0854.42
2009/04/23 16:38:48.2     -43   -311    229    315    389 188.0  39.7  34118  288.86 0854.42
2009/04/23 16:38:48.3     -69   -345    201    352    405 191.3  32.3  34120  288.89 0854.42
2009/04/23 16:38:48.4     -23   -356    227    357    423 183.7  35.5  34142  289.26 0854.42
2009/04/23 16:38:48.5      -8   -515    233    516    566 181.0  26.2  34144  289.31 0854.42
2009/04/23 16:38:48.6      35   -505    244    507    562 176.0  27.4  34170  289.74 0854.42
2009/04/23 16:38:48.7      36   -510    307    512    596 175.9  33.7  34190  290.08 0854.42
2009/04/23 16:38:48.8      36   -400    373    402    548 174.8  47.7  34162  289.59 0854.42
2009/04/23 16:38:48.9      74   -388    175    395    432 169.2  25.3  34128  289.04 0854.43
2009/04/23 16:38:49.0     -16   -459    154    460    486 182.1  18.6  34128  289.03 0854.43
2009/04/23 16:38:49.1     -83   -445    101    453    465 190.6  12.6  34124  288.97 0854.43
2009/04/23 16:38:49.2     -44   -488    118    491    505 185.2  13.5  34120  288.88 0854.43
2009/04/23 16:38:49.3     -80   -333    181    343    387 193.5  30.1  34126  289.01 0854.43
2009/04/23 16:38:49.4      70   -199    214    212    301 160.6  50.1  34136  289.15 0854.43
2009/04/23 16:38:49.5     121   -191    188    227    294 147.5  43.8  34142  289.25 0854.43
2009/04/23 16:38:49.6      76   -121    165    143    218 147.9  54.6  34150  289.41 0854.43
2009/04/23 16:38:49.7      65      0    138     66    152  89.2  72.9  34154  289.48 0854.43
2009/04/23 16:38:49.8      32   -215    166    218    274 171.5  41.4  34112  288.75 0854.43
2009/04/23 16:38:49.9      -2   -242    223    243    329 180.5  47.3  34098  288.53 0854.43
2009/04/23 16:38:50.0      71     -6    141     72    158  95.2  70.8  34128  289.04 0854.43
2009/04/23 16:38:50.1      77   -253    154    265    306 163.1  32.9  34110  288.71 0854.43
2009/04/23 16:38:50.2     115   -319    242    340    417 160.1  39.1  34120  288.88 0854.43
2009/04/23 16:38:50.3     100   -288    243    306    390 160.8  42.4  34120  288.89 0854.43
2009/04/23 16:38:50.4      39   -332    208    335    394 173.3  34.8  34120  288.88 0854.43
2009/04/23 16:38:50.5     -79   -429    189    437    476 190.5  24.9  34112  288.75 0854.43
2009/04/23 16:38:50.6     -42   -543    230    545    591 184.5  24.2  34110  288.71 0854.43
2009/04/23 16:38:50.7     -89   -493    213    502    545 190.2  24.3  34116  288.82 0854.43
2009/04/23 16:38:50.8      30   -461    272    462    536 176.3  33.4  34120  288.91 0854.43
2009/04/23 16:38:50.9      73   -379    257    387    464 169.1  36.6  34118  288.87 0854.44
2009/04/23 16:38:51.0      33   -440    315    442    542 175.6  39.1  34120  288.90 0854.44
2009/04/23 16:38:51.1       9   -294    263    295    395 178.2  46.4  34132  289.10 0854.44
2009/04/23 16:38:51.2      99   -341    273    356    448 163.7  41.4  34126  288.99 0854.44
2009/04/23 16:38:51.3     163   -396    149    429    454 157.6  20.0  34116  288.82 0854.44
2009/04/23 16:38:51.4     196   -431    158    474    500 155.5  18.5  34126  289.00 0854.44
2009/04/23 16:38:51.5     173   -303    143    350    378 150.3  23.2  34126  288.98 0854.44
2009/04/23 16:38:51.6      93   -147    161    175    237 147.5  47.7  34130  289.06 0854.44
2009/04/23 16:38:51.7      43   -157    136    163    212 164.6  43.8  34134  289.14 0854.44
2009/04/23 16:38:51.8     109   -234    157    259    302 155.1  34.4  34128  289.03 0854.44
2009/04/23 16:38:51.9      54   -248    148    254    293 167.6  32.9  34124  288.95 0854.44
2009/04/23 16:38:52.0      -3   -380    219    381    439 180.5  32.6  34132  289.11 0854.44
2009/04/23 16:38:52.1     -72   -321    125    330    352 192.8  21.7  34124  288.96 0854.44
2009/04/23 16:38:52.2     -97   -345    127    359    381 195.8  19.5  34116  288.84 0854.44
2009/04/23 16:38:52.3     -83   -409    199    418    462 191.5  27.3  34110  288.72 0854.44
2009/04/23 16:38:52.4     -73   -493    180    499    530 188.5  20.8  34112  288.77 0854.44
2009/04/23 16:38:52.5     -80   -557    196    563    596 188.2  20.0  34116  288.81 0854.44
2009/04/23 16:38:52.6     -85   -600    111    607    617 188.1  10.4  34116  288.81 0854.44
2009/04/23 16:38:52.7    -122   -533     44    547    549 192.9   4.7  34116  288.82 0854.44
2009/04/23 16:38:52.8     -99   -449     87    460    469 192.5  10.7  34116  288.84 0854.44
2009/04/23 16:38:52.9     -56   -376   -112    381    397 188.6 -21.1  34124  288.96 0854.44
2009/04/23 16:38:53.0     -83   -240   -132    255    287 199.2 -33.7  34122  288.92 0854.44
2009/04/23 16:38:53.1    -127   -221      3    255    256 209.9   0.8  34122  288.92 0854.44
2009/04/23 16:38:53.2     -72   -270    130    280    308 195.1  27.1  34128  289.03 0854.44
2009/04/23 16:38:53.3     -12   -189    130    190    230 183.8  37.6  34132  289.09 0854.44
2009/04/23 16:38:53.4      62   -142     86    156    178 156.4  31.4  34126  288.99 0854.44
2009/04/23 16:38:53.5      -6   -176    -21    177    179 182.2  -6.9  34128  289.02 0854.44
2009/04/23 16:38:53.6     -27   -171     13    174    175 189.1   4.4  34122  288.92 0854.44
2009/04/23 16:38:53.7     -20   -248    128    249    279 184.7  29.3  34116  288.83 0854.44
2009/04/23 16:38:53.8    -101   -318    116    334    354 197.7  19.2  34120  288.89 0854.44
2009/04/23 16:38:53.9    -131   -362    171    386    422 200.0  25.3  34112  288.77 0854.42
2009/04/23 16:38:54.0    -143   -317    176    348    389 204.3  29.2  34112  288.76 0854.42
2009/04/23 16:38:54.1     -20   -297    227    298    374 184.0  41.2  34116  288.81 0854.42
2009/04/23 16:38:54.2     -57   -258    196    265    329 192.5  40.2  34116  288.83 0854.42
2009/04/23 16:38:54.3     -31   -292     97    294    310 186.2  18.4  34116  288.83 0854.42
2009/04/23 16:38:54.4     -42   -222     28    227    229 190.9   7.1  34114  288.79 0854.42
2009/04/23 16:38:54.5     -19   -240      3    241    242 184.7   0.7  34108  288.68 0854.42
2009/04/23 16:38:54.6       7   -248      3    249    250 178.2   0.8  34116  288.81 0854.42
2009/04/23 16:38:54.7     -68   -353     37    360    362 190.9   6.0  34120  288.89 0854.42
2009/04/23 16:38:54.8    -108   -334     36    352    354 198.0   6.0  34114  288.79 0854.42
2009/04/23 16:38:54.9    -245   -439     33    504    506 209.2   3.8  34120  288.88 0854.42
2009/04/23 16:38:55.0    -297   -385    -29    487    488 217.7  -3.5  34126  288.98 0854.42
2009/04/23 16:38:55.1     -80   -360    166    369    404 192.6  25.9  34112  288.76 0854.42
2009/04/23 16:38:55.2     -55   -386    210    391    443 188.2  30.6  34114  288.80 0854.42
2009/04/23 16:38:55.3     -92   -345    160    358    392 195.0  25.8  34110  288.72 0854.42
2009/04/23 16:38:55.4     -85   -292    128    305    330 196.3  24.1  34110  288.73 0854.42
2009/04/23 16:38:55.5     -36   -253    169    256    306 188.1  36.5  34112  288.75 0854.42
2009/04/23 16:38:55.6     -37   -177    221    181    285 192.0  56.4  34118  288.87 0854.42
2009/04/23 16:38:55.7      29    -46    174     55    182 147.5  81.8  34134  289.14 0854.42
2009/04/23 16:38:55.8     -68   -124    169    142    220 209.0  56.1  34130  289.08 0854.42
2009/04/23 16:38:55.9      -5    -90     76     91    118 183.6  44.3  34134  289.14 0854.42
2009/04/23 16:38:56.0     -10    -66     69     67     96 188.9  50.1  34136  289.16 0854.42
2009/04/23 16:38:56.1    -186    100     32    212    215 298.2   8.8  34124  288.97 0854.42
2009/04/23 16:38:56.2    -219    159     80    271    283 306.0  16.6  34128  289.03 0854.42
2009/04/23 16:38:56.3     159    155    165    223    277  45.8  40.1  34124  288.97 0854.42
2009/04/23 16:38:56.4      38     40    160     56    169  44.1  80.5  34134  289.14 0854.42
2009/04/23 16:38:56.5      85    -53     61    101    117 122.0  34.0  34120  288.89 0854.42
2009/04/23 16:38:56.6      92   -172     10    196    197 151.7   3.1  34122  288.92 0854.42
2009/04/23 16:38:56.7      13   -174    -55    175    184 175.5 -17.6  34128  289.02 0854.42
2009/04/23 16:38:56.8    -123   -173    -67    213    224 215.4 -17.6  34128  289.04 0854.42
2009/04/23 16:38:56.9     -25    -80    -51     84     98 197.4 -38.8  34122  288.92 0854.42
2009/04/23 16:38:57.0     -11    -33    -16     35     38 198.5 -29.5  34124  288.97 0854.42
2009/04/23 16:38:57.1      14     -5     -8     16     17 111.7 -31.6  34118  288.87 0854.42
2009/04/23 16:38:57.2      49     23    -46     55     71  64.7 -48.2  34120  288.91 0854.42
2009/04/23 16:38:57.3     120     61     -7    135    136  62.9  -3.1  34118  288.87 0854.42
2009/04/23 16:38:57.4     162     73      3    179    180  65.6   1.2  34122  288.92 0854.42
2009/04/23 16:38:57.5     121    105      3    161    162  49.1   1.2  34124  288.96 0854.42
2009/04/23 16:38:57.6      88     -8    -21     89     92  95.2 -13.4  34126  288.99 0854.42
2009/04/23 16:38:57.7      88    -82    -47    121    129 133.2 -26.4  34128  289.02 0854.42
2009/04/23 16:38:57.8      91    -61    -34    110    115 124.2 -23.3  34116  288.82 0854.42
2009/04/23 16:38:57.9      87    -84    -33    121    126 134.0 -15.4  34122  288.94 0854.40
2009/04/23 16:38:58.0      38   -125    -85    131    156 163.0 -40.0  34122  288.92 0854.40
2009/04/23 16:38:58.1      16   -194   -106    195    221 175.1 -35.7  34122  288.94 0854.40
2009/04/23 16:38:58.2      61   -153    -68    165    178 158.2 -27.8  34122  288.94 0854.40
2009/04/23 16:38:58.3      66   -135    -81    151    171 153.7 -35.0  34124  288.96 0854.40
2009/04/23 16:38:58.4      61   -112    -62    128    142 151.5 -31.7  34124  288.96 0854.40
2009/04/23 16:38:58.5     -15   -102    -10    104    105 188.5  -5.6  34124  288.96 0854.40
2009/04/23 16:38:58.6     -78    -63    -31    101    105 231.4 -22.3  34128  289.02 0854.40
2009/04/23 16:38:58.7     -95    -12    -37     96    102 262.5 -26.4  34126  288.99 0854.40
2009/04/23 16:38:58.8     -21    -10     13     24     27 242.9  31.4  34130  289.06 0854.40
2009/04/23 16:38:58.9      15    -26     35     31     46 149.3  53.3  34130  289.08 0854.40
2009/04/23 16:38:59.0      36    -50     31     62     69 143.9  27.3  34124  288.97 0854.40
2009/04/23 16:38:59.1       6    -91     59     92    109 176.0  35.6  34116  288.84 0854.40
2009/04/23 16:38:59.2      10   -108    123    109    164 174.7  53.7  34120  288.91 0854.40
2009/04/23 16:38:59.3      18   -208    196    209    286 174.9  48.0  34116  288.83 0854.40
2009/04/23 16:38:59.4      -9   -175    167    176    242 183.1  48.7  34124  288.96 0854.40
2009/04/23 16:38:59.5     -12   -183    205    184    275 183.8  53.5  34118  288.85 0854.40
2009/04/23 16:38:59.6       7   -269    211    270    342 178.4  42.1  34124  288.95 0854.40
2009/04/23 16:38:59.7      -8   -256    144    257    294 181.8  31.4  34118  288.85 0854.40
2009/04/23 16:38:59.8     -24   -195    152    197    248 187.1  41.7  34114  288.78 0854.40
2009/04/23 16:38:59.9     -72   -180    192    194    272 201.9  50.0  34140  289.24 0854.39
2009/04/23 16:39:00.0    -108   -170    157    202    255 212.5  41.7  34150  289.39 0854.39
2009/04/23 16:39:00.1     -68   -130    166    147    221 207.6  54.0  34146  289.35 0854.39
2009/04/23 16:39:00.2     -86   -138    130    163    208 212.1  42.7  34134  289.14 0854.39
2009/04/23 16:39:00.3    -101   -126     96    162    188 218.7  33.7  34130  289.06 0854.39
2009/04/23 16:39:00.4    -128   -157    107    203    229 219.2  30.1  34140  289.23 0854.39
2009/04/23 16:39:00.5    -112   -201    155    231    278 209.0  37.3  34128  289.03 0854.39
2009/04/23 16:39:00.6     -96   -163    145    190    239 210.7  41.2  34138  289.19 0854.39
2009/04/23 16:39:00.7    -180   -196    113    267    289 222.5  24.3  34164  289.63 0854.39
2009/04/23 16:39:00.8    -150   -149     43    212    217 225.1  11.6  34154  289.48 0854.39
2009/04/23 16:39:00.9     -82   -144     29    166    169 209.6   9.9  34150  289.41 0854.39
2009/04/23 16:39:01.0    -142   -134     -5    196    197 226.7  -1.6  34146  289.35 0854.39
2009/04/23 16:39:01.1    -189   -122     29    226    228 237.1   7.5  34148  289.38 0854.39
2009/04/23 16:39:01.2    -161   -121     70    202    214 232.9  19.2  34160  289.57 0854.39
2009/04/23 16:39:01.3    -219   -137     93    259    276 238.0  19.9  34158  289.53 0854.39
2009/04/23 16:39:01.4    -311   -145     67    344    351 245.0  11.1  34154  289.48 0854.39
2009/04/23 16:39:01.5    -285   -115     56    308    314 248.0  10.4  34158  289.53 0854.39
2009/04/23 16:39:01.6    -220   -206     98    302    318 226.8  18.1  34168  289.71 0854.39
2009/04/23 16:39:01.7    -207   -171     80    269    281 230.4  16.6  34178  289.86 0854.39
2009/04/23 16:39:01.8    -202   -195    139    282    314 226.0  28.1  34192  290.12 0854.39
2009/04/23 16:39:01.9    -156   -153    115    219    247 225.6  30.1  34192  290.10 0854.37
2009/04/23 16:39:02.0     -93   -129    114    160    196 216.0  39.3  34188  290.04 0854.37
2009/04/23 16:39:02.1    -136   -120    144    182    232 228.7  42.4  34180  289.92 0854.37
2009/04/23 16:39:02.2     -85   -198    178    216    279 203.2  43.7  34188  290.05 0854.37
2009/04/23 16:39:02.3     -39   -192    195    197    277 191.6  49.9  34194  290.14 0854.37
2009/04/23 16:39:02.4     -68   -185    168    198    259 200.3  44.8  34164  289.64 0854.37
2009/04/23 16:39:02.5     -75   -206    167    220    276 200.0  40.9  34160  289.58 0854.37
2009/04/23 16:39:02.6     -39   -221    124    225    256 190.2  31.4  34158  289.54 0854.37
2009/04/23 16:39:02.7     -19   -260    172    261    312 184.2  36.5  34170  289.75 0854.37
2009/04/23 16:39:02.8     -47   -244    110    249    272 191.1  25.2  34168  289.71 0854.37
2009/04/23 16:39:02.9      29   -228    121    230    259 172.7  30.1  34162  289.61 0854.37
2009/04/23 16:39:03.0      67   -287    132    295    323 166.7  25.8  34162  289.61 0854.37
2009/04/23 16:39:03.1      64   -243    133    252    284 165.1  29.8  34152  289.44 0854.37
2009/04/23 16:39:03.2      53   -313    110    318    337 170.4  19.2  34148  289.38 0854.37
2009/04/23 16:39:03.3      21   -273    132    274    304 175.5  27.3  34142  289.25 0854.37
2009/04/23 16:39:03.4      23   -273    127    275    302 175.1  27.0  34128  289.02 0854.37
2009/04/23 16:39:03.5       0   -293    110    294    313 179.9  21.5  34132  289.10 0854.37
2009/04/23 16:39:03.6      -6   -233     98    234    253 181.6  23.8  34134  289.14 0854.37
2009/04/23 16:39:03.7     -29   -266     87    268    282 186.3  18.1  34130  289.05 0854.37
2009/04/23 16:39:03.8     -46   -228     61    233    241 191.6  14.7  34126  289.00 0854.37
2009/04/23 16:39:03.9     -18   -238     56    239    246 184.5  13.2  34126  289.00 0854.36
2009/04/23 16:39:04.0     -11   -241    110    242    265 182.7  26.2  34132  289.09 0854.36
2009/04/23 16:39:04.1      95   -328    133    342    366 163.9  22.4  34146  289.33 0854.36
2009/04/23 16:39:04.2      47   -295    141    299    330 170.9  27.1  34142  289.27 0854.36
2009/04/23 16:39:04.3       0   -291    101    292    310 180.0  19.2  34122  288.93 0854.36
2009/04/23 16:39:04.4      22   -260     93    262    279 175.1  19.6  34124  288.95 0854.36
2009/04/23 16:39:04.5     -20   -268    145    269    305 184.5  30.8  34128  289.02 0854.36
2009/04/23 16:39:04.6     -35   -261    102    264    283 187.8  22.1  34126  288.98 0854.36
2009/04/23 16:39:04.7     -70   -194    148    207    254 200.0  39.1  34134  289.12 0854.36
2009/04/23 16:39:04.8    -114   -254    159    279    321 204.3  32.4  34146  289.32 0854.36
2009/04/23 16:39:04.9    -116   -205    140    236    274 209.6  33.4  34142  289.25 0854.36
2009/04/23 16:39:05.0     -60   -224    134    232    267 195.1  32.7  34134  289.14 0854.36
2009/04/23 16:39:05.1     -86   -237     98    253    271 200.0  22.1  34142  289.25 0854.36
2009/04/23 16:39:05.2     -42   -230    129    234    267 190.5  31.4  34146  289.34 0854.36
2009/04/23 16:39:05.3     -28   -197    133    200    240 188.1  36.7  34152  289.45 0854.36
2009/04/23 16:39:05.4    -135   -153     10    205    206 221.5   2.8  34150  289.41 0854.36
2009/04/23 16:39:05.5    -142   -150      1    207    208 223.4   0.5  34144  289.30 0854.36
2009/04/23 16:39:05.6     -77   -179      2    196    197 203.4   0.8  34146  289.35 0854.36
2009/04/23 16:39:05.7    -221   -125     98    254    272 240.5  22.1  34170  289.73 0854.36
2009/04/23 16:39:05.8    -248   -126     65    279    287 243.1  13.2  34196  290.19 0854.36
2009/04/23 16:39:05.9    -242   -101    -33    263    266 247.3  -7.3  34182  289.93 0854.38
2009/04/23 16:39:06.0    -209    -41    -12    214    215 258.8  -3.3  34182  289.96 0854.38
2009/04/23 16:39:06.1    -232    -33    -45    235    240 261.9 -10.9  34152  289.44 0854.38
2009/04/23 16:39:06.2    -294      8     15    295    296 271.7   2.9  34162  289.61 0854.38
2009/04/23 16:39:06.3    -240    -52     39    246    250 257.7   9.0  34154  289.47 0854.38
2009/04/23 16:39:06.4    -243     18      4    244    245 274.4   1.0  34166  289.68 0854.38
2009/04/23 16:39:06.5    -165      0     -6    166    167 270.1  -2.3  34168  289.72 0854.38
2009/04/23 16:39:06.7    -290    -93     64    305    312 252.2  12.0  34176  289.83 0854.38
2009/04/23 16:39:06.7    -295     -8    -73    296    305 268.3 -13.9  34168  289.71 0854.38
2009/04/23 16:39:06.8    -336     14    110    337    355 272.5  18.2  34166  289.69 0854.38
2009/04/23 16:39:06.9    -349     -8    -45    350    353 268.6  -7.5  34178  289.86 0854.38
2009/04/23 16:39:07.0    -387     17     31    388    390 272.6   4.7  34182  289.96 0854.38
2009/04/23 16:39:07.1    -299     22    -70    300    309 274.3 -13.2  34190  290.07 0854.38
2009/04/23 16:39:07.2    -207   -131    -86    246    260 237.6 -24.3  34170  289.75 0854.38
2009/04/23 16:39:07.3     -32   -169    -93    173    196 190.7 -35.0  34146  289.35 0854.38
2009/04/23 16:39:07.4      25    -80    -66     84    106 162.6 -47.1  34138  289.21 0854.38
2009/04/23 16:39:07.5     -45     36    -40     58     70 308.6 -43.0  34142  289.26 0854.38
2009/04/23 16:39:07.6     -71     59     72     93    117 309.6  41.7  34162  289.60 0854.38
2009/04/23 16:39:07.7    -110    172     31    205    208 327.5   8.8  34152  289.45 0854.38
2009/04/23 16:39:07.8    -185    223     57    291    297 320.3  11.1  34150  289.41 0854.38
2009/04/23 16:39:07.9    -126    293     72    319    328 336.7  12.8  34146  289.34 0854.36
2009/04/23 16:39:08.1    -124    254     66    283    291 333.9  13.1  34140  289.22 0854.36
2009/04/23 16:39:08.2    -250    181    130    309    335 305.9  24.1  34160  289.58 0854.36
2009/04/23 16:39:08.3    -263    144    225    301    375 298.8  40.4  34174  289.81 0854.36
2009/04/23 16:39:08.3    -246    156    242    292    379 302.4  43.8  34168  289.71 0854.36
2009/04/23 16:39:08.5    -227    120    246    257    355 297.9  48.6  34172  289.78 0854.36
2009/04/23 16:39:08.6    -286    203    -17    351    352 305.4  -2.8  34158  289.55 0854.36
2009/04/23 16:39:08.7    -336    252     20    420    421 306.9   2.8  34148  289.36 0854.36
2009/04/23 16:39:08.8    -263    277     76    383    391 316.5  11.3  34152  289.42 0854.36
2009/04/23 16:39:08.9    -324    120     19    346    347 290.5   3.2  34170  289.74 0854.36
2009/04/23 16:39:09.0    -224     74     42    237    241 288.4  10.1  34168  289.70 0854.36
2009/04/23 16:39:09.1    -183    -49     85    190    208 254.9  25.7  34156  289.50 0854.36
2009/04/23 16:39:09.2       8   -173    158    174    235 177.3  46.9  34168  289.72 0854.36
2009/04/23 16:39:09.3      58   -140    156    152    217 157.3  50.7  34162  289.60 0854.36
2009/04/23 16:39:09.4      -3   -255    175    256    310 180.9  37.6  34144  289.29 0854.36
2009/04/23 16:39:09.5    -116   -245    124    272    298 205.3  26.2  34150  289.41 0854.36
2009/04/23 16:39:09.6      67   -397    -26    403    404 170.3  -3.7  34146  289.33 0854.36
2009/04/23 16:39:09.7     -38   -590   -139    592    609 183.7 -13.3  34140  289.22 0854.36
2009/04/23 16:39:09.8     -45   -505   -162    508    534 185.2 -17.7  34138  289.21 0854.36
2009/04/23 16:39:09.9       9   -590    -82    591    597 179.1  -7.9  34152  289.44 0854.36
2009/04/23 16:39:10.0      71   -608     -2    613    614 173.3  -0.3  34144  289.29 0854.36
2009/04/23 16:39:10.1      91   -482     13    491    492 169.3   1.6  34138  289.20 0854.36
2009/04/23 16:39:10.2      80   -466     -4    474    475 170.2  -0.5  34144  289.30 0854.36
2009/04/23 16:39:10.3      65   -494     24    499    500 172.4   2.8  34158  289.54 0854.36
2009/04/23 16:39:10.4      28   -486     27    487    488 176.6   3.2  34152  289.45 0854.36
2009/04/23 16:39:10.5     124   -476    174    492    523 165.3  19.5  34172  289.76 0854.36
2009/04/23 16:39:10.6     -17   -502    285    503    578 182.0  32.0  34186  290.01 0854.36
2009/04/23 16:39:10.7    -181   -370    141    413    437 206.1  18.9  34176  289.83 0854.36
2009/04/23 16:39:10.8    -104   -332    131    348    371 197.4  21.6  34190  290.08 0854.36
2009/04/23 16:39:10.9    -131   -304    161    332    368 203.3  27.7  34182  289.94 0854.36
2009/04/23 16:39:11.0    -135   -307    181    336    381 203.7  30.7  34172  289.79 0854.36
2009/04/23 16:39:11.1    -138   -455    234    476    530 196.9  28.2  34198  290.22 0854.36
2009/04/23 16:39:11.2     -67   -471    263    476    543 188.1  31.4  34164  289.65 0854.36
2009/04/23 16:39:11.3     -75   -464    175    471    502 189.2  21.5  34162  289.59 0854.36
2009/04/23 16:39:11.4     -26   -429    260    430    502 183.5  34.1  34158  289.54 0854.36
2009/04/23 16:39:11.5      57   -338    200    343    397 170.4  32.9  34184  289.99 0854.36
2009/04/23 16:39:11.6      84   -345     95    356    369 166.3  15.0  34158  289.55 0854.36
2009/04/23 16:39:11.7      23   -294    105    295    314 175.5  19.6  34146  289.34 0854.36
2009/04/23 16:39:11.8      76   -281     68    292    300 164.9  13.1  34142  289.27 0854.36
2009/04/23 16:39:11.9     118   -281    -16    305    306 157.2  -3.1  34146  289.32 0854.36
2009/04/23 16:39:12.0     243   -287     -7    377    378 139.7  -1.2  34154  289.47 0854.37
2009/04/23 16:39:12.1     250   -159    137    297    327 122.5  26.6  34164  289.64 0854.37
2009/04/23 16:39:12.2     150   -220    -38    267    270 145.7  -8.2  34154  289.46 0854.37
2009/04/23 16:39:12.3     111   -261    -55    284    290 156.8 -11.1  34162  289.59 0854.37
2009/04/23 16:39:12.4     124   -126     90    177    198 135.5  29.2  34154  289.48 0854.37
2009/04/23 16:39:12.5     230    -28    132    232    266  97.0  32.3  34164  289.63 0854.37
2009/04/23 16:39:12.6     186   -110    124    217    249 120.7  32.4  34166  289.66 0854.37
2009/04/23 16:39:12.7     176   -177     79    250    263 135.1  17.7  34160  289.58 0854.37
2009/04/23 16:39:12.8      94   -149     72    177    191 147.7  23.1  34160  289.58 0854.37
2009/04/23 16:39:12.9      23   -115     89    118    147 168.4  41.2  34162  289.62 0854.37
2009/04/23 16:39:13.0      35   -100     99    107    145 160.4  47.9  34168  289.72 0854.37
2009/04/23 16:39:13.1      78   -158    102    177    204 153.5  32.7  34168  289.70 0854.37
2009/04/23 16:39:13.2      77   -134    118    155    194 150.1  41.2  34168  289.70 0854.37
2009/04/23 16:39:13.3      44    -61    131     76    151 144.0  67.2  34182  289.94 0854.37
2009/04/23 16:39:13.4      25     25     79     36     86  45.0  74.5  34180  289.91 0854.37
2009/04/23 16:39:13.5     145    -73     57    163    173 117.0  19.4  34162  289.60 0854.37
2009/04/23 16:39:13.6     245   -114    100    271    288 115.1  21.0  34162  289.59 0854.37
2009/04/23 16:39:13.7     203    -93    158    224    274 114.6  38.8  34164  289.64 0854.37
2009/04/23 16:39:13.8     168    -56    190    178    260 108.4  52.1  34166  289.68 0854.37
2009/04/23 16:39:13.9     114    -83    161    142    214 126.0  54.3  34170  289.74 0854.37
2009/04/23 16:39:14.0     132   -134    201    189    275 135.5  52.1  34174  289.80 0854.37
2009/04/23 16:39:14.1      -7     42    148     43    154 349.3  83.3  34184  289.99 0854.37
2009/04/23 16:39:14.2      11    -41    124     43    131 164.9  81.2  34176  289.85 0854.37
2009/04/23 16:39:14.3     154   -168    201    228    303 137.5  45.8  34168  289.71 0854.37
2009/04/23 16:39:14.4      14   -114    201    115    231 172.9  67.5  34164  289.65 0854.37
2009/04/23 16:39:14.5       9    -89    228     90    245 174.2  77.1  34168  289.70 0854.37
2009/04/23 16:39:14.6      30     55    228     63    236  29.0  84.6  34176  289.84 0854.37
2009/04/23 16:39:14.7     145    -19    261    147    299  97.5  68.5  34178  289.86 0854.37
2009/04/23 16:39:14.8      56    -94    180    110    210 148.8  65.7  34180  289.91 0854.37
2009/04/23 16:39:14.9     190   -147    114    241    266 127.8  27.1  34174  289.81 0854.37
2009/04/23 16:39:15.0     169   -169    105    240    261 134.9  25.1  34174  289.80 0854.38
2009/04/23 16:39:15.1     220   -122     64    252    261 119.1  14.3  34172  289.76 0854.38
2009/04/23 16:39:15.2     191   -186    130    267    296 134.2  27.8  34170  289.73 0854.38
2009/04/23 16:39:15.3     212   -211     95    300    315 134.9  17.7  34162  289.61 0854.38
2009/04/23 16:39:15.4     277   -194     88    339    351 125.0  14.6  34162  289.60 0854.38
2009/04/23 16:39:15.5     282   -111     86    304    317 111.5  15.9  34164  289.64 0854.38
2009/04/23 16:39:15.6     270   -125    151    298    334 114.8  28.9  34158  289.53 0854.38
2009/04/23 16:39:15.7     284    -94    166    300    342 108.4  31.4  34166  289.67 0854.38
2009/04/23 16:39:15.8     187    -88    187    207    278 115.4  46.9  34174  289.81 0854.38
2009/04/23 16:39:15.9     171   -124    158    212    264 125.9  40.6  34176  289.85 0854.38
2009/04/23 16:39:16.0     136   -146    109    200    227 137.0  31.3  34172  289.79 0854.38
2009/04/23 16:39:16.1     132   -166     55    213    221 141.5  14.5  34166  289.69 0854.38
2009/04/23 16:39:16.2     109   -186    122    216    248 149.5  32.1  34164  289.63 0854.38
2009/04/23 16:39:16.3     100   -176     95    203    224 150.4  27.1  34160  289.57 0854.38
2009/04/23 16:39:16.4      83   -209    113    226    252 158.2  28.5  34168  289.70 0854.38
2009/04/23 16:39:16.5     161   -211    103    266    285 142.6  22.1  34164  289.63 0854.38
2009/04/23 16:39:16.6     127   -199     76    237    250 147.5  17.9  34164  289.64 0854.38
2009/04/23 16:39:16.7     120   -120     28    171    174 135.0   9.3  34166  289.69 0854.38
2009/04/23 16:39:16.8      74   -124     12    145    146 149.2   5.0  34172  289.77 0854.38
2009/04/23 16:39:16.9      68   -128     28    146    149 151.9  11.1  34168  289.72 0854.38
2009/04/23 16:39:17.0      85   -135     26    160    163 147.9   9.3  34170  289.74 0854.38
2009/04/23 16:39:17.1      94   -156      7    183    184 148.8   2.3  34174  289.80 0854.38
2009/04/23 16:39:17.2      97   -160    -67    188    200 148.6 -19.7  34170  289.75 0854.38
2009/04/23 16:39:17.3      91   -112    -97    145    174 140.8 -41.1  34170  289.75 0854.38
2009/04/23 16:39:17.4      99    -55    -92    114    146 118.9 -48.1  34168  289.72 0854.38
2009/04/23 16:39:17.5      90    -57    -74    107    130 122.5 -42.0  34170  289.74 0854.38
2009/04/23 16:39:17.6     129    -18    -52    131    140  97.9 -27.4  34164  289.63 0854.38
2009/04/23 16:39:17.7     116     45    -65    125    140  68.7 -33.7  34166  289.69 0854.38
2009/04/23 16:39:17.8      80     66    -85    104    134  50.5 -48.1  34172  289.77 0854.38
2009/04/23 16:39:17.9      64     40    -92     76    119  57.6 -60.8  34172  289.79 0854.38
2009/04/23 16:39:18.0      47     22    -74     53     91  64.8 -65.5  34174  289.82 0854.38
2009/04/23 16:39:18.1      48     31    -68     58     89  56.7 -59.8  34178  289.87 0854.38
2009/04/23 16:39:18.2      26    -29    -55     40     68 138.6 -64.9  34174  289.82 0854.38
2009/04/23 16:39:18.3      18    -43    -26     47     53 157.3 -35.8  34170  289.75 0854.38
2009/04/23 16:39:18.4      -7    -21      3     23     24 200.0   9.0  34176  289.84 0854.38
2009/04/23 16:39:18.5     -25    -19     16     32     35 232.2  27.3  34182  289.96 0854.38
2009/04/23 16:39:18.6     -24    -24     44     34     55 225.0  57.5  34198  290.21 0854.38
2009/04/23 16:39:18.7     -40    -73     59     84    102 209.0  39.1  34180  289.92 0854.38
2009/04/23 16:39:18.8     -54    -70     55     89    104 217.8  35.5  34178  289.87 0854.38
2009/04/23 16:39:18.9     -97    -53      3    111    112 241.1   1.8  34170  289.75 0854.38
2009/04/23 16:39:19.0      34    -35     68     49     83 135.8  60.5  34176  289.84 0854.39
2009/04/23 16:39:19.1      -2   -102    116    103    155 181.4  54.2  34176  289.85 0854.39
2009/04/23 16:39:19.2      55    -44     87     71    112 128.6  56.4  34184  289.97 0854.39
2009/04/23 16:39:19.3     147    -53     54    157    167 109.9  19.2  34172  289.79 0854.39
2009/04/23 16:39:19.4     224   -250     72    336    344 138.1  12.1  34156  289.52 0854.39
2009/04/23 16:39:19.5     333   -124     35    356    358 110.5   5.7  34158  289.55 0854.39
2009/04/23 16:39:19.6     295   -140     93    327    340 115.5  15.9  34152  289.42 0854.39
2009/04/23 16:39:19.7     156   -180     84    239    254 139.0  19.4  34152  289.44 0854.39
2009/04/23 16:39:19.8     256   -279    186    379    422 137.5  28.0  34160  289.56 0854.39
2009/04/23 16:39:19.9     135   -315    162    343    379 156.8  27.1  34142  289.25 0854.39
2009/04/23 16:39:20.0     102   -318    247    335    416 162.2  40.0  34142  289.28 0854.39
2009/04/23 16:39:20.1     273   -204    214    341    402 126.8  35.2  34138  289.21 0854.39
2009/04/23 16:39:20.2      66   -346    292    353    458 169.2  43.8  34144  289.29 0854.39
2009/04/23 16:39:20.3      96   -276    263    293    393 160.8  46.6  34166  289.69 0854.39
2009/04/23 16:39:20.4     157   -140    191    211    284 131.6  46.9  34156  289.51 0854.39
2009/04/23 16:39:20.5      94   -174    206    199    286 151.5  51.2  34154  289.47 0854.39
2009/04/23 16:39:20.6     146    -86    161    170    234 120.6  48.7  34150  289.41 0854.39
2009/04/23 16:39:20.7     221     29     55    223    230  82.3  13.9  34150  289.40 0854.39
2009/04/23 16:39:20.8     270     41     -2    274    275  81.2  -0.5  34146  289.32 0854.39
2009/04/23 16:39:20.9     149    -66    -23    164    166 114.0  -8.2  34146  289.35 0854.39
2009/04/23 16:39:21.0      42    -80      4     91     92 152.4   2.8  34148  289.36 0854.39
2009/04/23 16:39:21.1     102   -114     54    154    164 138.1  19.4  34150  289.41 0854.39
2009/04/23 16:39:21.2     136    -83     66    160    173 121.5  23.6  34154  289.46 0854.39
2009/04/23 16:39:21.3     200    -86     96    218    238 113.3  25.2  34156  289.52 0854.39
2009/04/23 16:39:21.4     183   -102     74    210    223 119.1  19.4  34160  289.57 0854.39
2009/04/23 16:39:21.5     282   -167    -18    328    329 120.6  -3.2  34162  289.62 0854.39
2009/04/23 16:39:21.6     192   -170     57    257    264 131.6  12.6  34160  289.58 0854.39
2009/04/23 16:39:21.7     140    -66     38    156    161 115.4  13.7  34162  289.60 0854.39
2009/04/23 16:39:21.8     183    -13     22    184    186  94.1   6.9  34160  289.57 0854.39
2009/04/23 16:39:21.9     219     59   -136    227    264  74.9 -38.1  34164  289.63 0854.39
2009/04/23 16:39:22.0     177    -26    -87    179    199  98.4 -32.2  34158  289.53 0854.39
2009/04/23 16:39:22.1     177     -3    -68    178    190  91.3 -26.4  34160  289.57 0854.39
2009/04/23 16:39:22.2     159     74    -80    176    193  64.8 -30.8  34172  289.77 0854.39
2009/04/23 16:39:22.3     179    106    -77    209    222  59.3 -25.4  34188  290.06 0854.39
2009/04/23 16:39:22.4     146    105    -55    180    189  54.3 -17.0  34196  290.19 0854.39
2009/04/23 16:39:22.5      97     76    -16    124    126  52.2  -7.7  34190  290.09 0854.39
2009/04/23 16:39:22.6     110     22      8    113    114  78.5   4.4  34194  290.16 0854.39
2009/04/23 16:39:22.7     108     53    -34    121    126  63.8 -16.0  34188  290.06 0854.39
2009/04/23 16:39:22.8      88     66    -27    110    114  53.1 -13.9  34192  290.11 0854.39
2009/04/23 16:39:22.9      66     77    -38    102    108  40.5 -25.4  34186  290.02 0854.39
2009/04/23 16:39:23.0      45     77     -6     90     91  30.7  -4.1  34196  290.18 0854.40
2009/04/23 16:39:23.1      20    100    -32    103    107  11.6 -22.8  34188  290.06 0854.40
2009/04/23 16:39:23.2     -14     95    -11     97     98 351.5  -6.7  34190  290.08 0854.40
2009/04/23 16:39:23.3     -38     85     15     94     96 335.5   9.0  34194  290.16 0854.40
2009/04/23 16:39:23.4      47     68     48     83     95  34.7  32.9  34200  290.26 0854.40
2009/04/23 16:39:23.5      65     21     41     69     80  71.8  33.5  34184  289.99 0854.40
2009/04/23 16:39:23.6       5     58     44     59     73   5.3  40.7  34196  290.19 0854.40
2009/04/23 16:39:23.7       6     42     26     43     50   8.9  34.4  34186  290.02 0854.40
2009/04/23 16:39:23.8       2     37     36     38     52   4.4  50.0  34182  289.94 0854.40
2009/04/23 16:39:23.9     -20     45     54     50     73 336.4  52.1  34182  289.94 0854.40
2009/04/23 16:39:24.0      35     28     40     46     60  51.4  45.8  34178  289.87 0854.40
2009/04/23 16:39:24.1       0     23     19     24     30 359.1  43.7  34184  289.99 0854.40
2009/04/23 16:39:24.2     -72     46      5     86     87 302.9   3.8  34186  290.02 0854.40
2009/04/23 16:39:24.3     -72     59      8     94     95 309.5   5.4  34194  290.14 0854.40
2009/04/23 16:39:24.4     -29     47     41     56     69 328.4  39.7  34194  290.16 0854.40
2009/04/23 16:39:24.5      23     23     49     33     59  45.0  62.6  34188  290.04 0854.40
2009/04/23 16:39:24.6      56     -4     35     57     66  94.3  35.5  34182  289.94 0854.40
2009/04/23 16:39:24.7      93    -16     42     95    103 100.1  25.1  34174  289.80 0854.40
2009/04/23 16:39:24.8      80    -75     38    110    117 133.1  19.4  34164  289.65 0854.40
2009/04/23 16:39:24.9      84   -102     58    133    145 140.3  25.1  34154  289.46 0854.40
2009/04/23 16:39:25.0       8    -86     63     87    107 174.7  39.7  34160  289.58 0854.40
2009/04/23 16:39:25.1      38   -115     42    122    130 161.7  18.9  34152  289.45 0854.40
2009/04/23 16:39:25.2     123   -140     51    187    194 138.6  15.3  34152  289.45 0854.40
2009/04/23 16:39:25.3     128   -223     88    258    273 150.1  18.9  34150  289.39 0854.40
2009/04/23 16:39:25.4      40   -196     76    201    214 168.4  21.3  34148  289.36 0854.40
2009/04/23 16:39:25.5     113   -206     41    236    240 151.3  10.0  34144  289.29 0854.40
2009/04/23 16:39:25.6     110   -182    105    213    237 148.8  28.2  34146  289.35 0854.40
2009/04/23 16:39:25.7     147   -180    120    233    262 140.6  29.3  34148  289.36 0854.40
2009/04/23 16:39:25.8      95   -225    126    245    275 157.1  29.3  34144  289.29 0854.40
2009/04/23 16:39:25.9      83   -182    131    201    239 155.5  36.5  34150  289.40 0854.40
2009/04/23 16:39:26.0      55   -166    148    176    229 161.5  44.1  34152  289.43 0854.40
2009/04/23 16:39:26.1      18   -186    132    187    228 174.2  38.8  34140  289.24 0854.40
2009/04/23 16:39:26.2      22   -107    179    110    210 168.4  65.4  34146  289.33 0854.40
2009/04/23 16:39:26.3      77     37    101     86    132  64.2  55.4  34156  289.52 0854.40
2009/04/23 16:39:26.4      10    -31     90     33     95 161.3  79.7  34170  289.75 0854.40
2009/04/23 16:39:26.5      55     40    115     69    134  54.0  65.7  34168  289.72 0854.40
2009/04/23 16:39:26.6     120     20     28    122    126  80.4  13.2  34164  289.65 0854.40
2009/04/23 16:39:26.7      91    -17     18     93     95 100.6  11.1  34146  289.35 0854.40
2009/04/23 16:39:26.8      67    -60     31     91     97 131.8  18.9  34140  289.23 0854.40
2009/04/23 16:39:26.9      29   -117     20    121    123 165.7   9.5  34136  289.18 0854.40
2009/04/23 16:39:27.0       0   -147     -3    148    149 180.0  -1.2  34144  289.30 0854.40
2009/04/23 16:39:27.1      13   -108    -32    109    114 172.9 -16.6  34150  289.40 0854.40
2009/04/23 16:39:27.2     -27    -92    -37     96    102 196.5 -26.4  34150  289.41 0854.40
2009/04/23 16:39:27.3     -25    -75    -58     80     98 198.7 -44.1  34146  289.35 0854.40
2009/04/23 16:39:27.4       6    -77    -15     78     80 175.5 -10.9  34144  289.31 0854.40
2009/04/23 16:39:27.5      35    -23      9     42     43 123.3  12.2  34146  289.33 0854.40
2009/04/23 16:39:27.6      73    -14    -27     75     79 101.4 -24.8  34148  289.38 0854.40
2009/04/23 16:39:27.7      57     26    -58     63     85  65.6 -52.3  34154  289.46 0854.40
2009/04/23 16:39:27.8      65     33    -20     73     76  62.9 -15.5  34148  289.38 0854.40
2009/04/23 16:39:27.9      88     17     25     90     94  78.5  15.8  34144  289.30 0854.40
2009/04/23 16:39:28.0      93      7     25     94     98  85.6  15.3  34146  289.35 0854.40
2009/04/23 16:39:28.1      72     14     -6     74     75  78.6  -5.2  34150  289.41 0854.40
2009/04/23 16:39:28.2      75     45    -29     88     92  58.9 -23.8  34150  289.41 0854.40
2009/04/23 16:39:28.3      85     32    -69     91    114  69.2 -45.6  34154  289.48 0854.40
2009/04/23 16:39:28.4      98     45    -70    108    128  65.2 -40.0  34156  289.52 0854.40
2009/04/23 16:39:28.5      84     29    -68     89    112  70.9 -46.1  34156  289.52 0854.40
2009/04/23 16:39:28.6      96      2    -83     97    127  88.3 -49.8  34154  289.48 0854.40
2009/04/23 16:39:28.7     107     21    -72    110    131  78.5 -40.4  34156  289.52 0854.40
2009/04/23 16:39:28.8      95     -7    -71     96    119  94.3 -44.5  34154  289.48 0854.40
2009/04/23 16:39:28.9     113      0    -54    114    126  90.0 -31.6  34152  289.45 0854.40
2009/04/23 16:39:29.0     148     -2    -27    149    152  90.8 -10.3  34150  289.41 0854.39
2009/04/23 16:39:29.1     116     19     30    118    122  80.3  14.3  34156  289.52 0854.39
2009/04/23 16:39:29.2      84     41     -2     94     95  63.8  -1.8  34156  289.52 0854.39
2009/04/23 16:39:29.3     120     16    -11    122    123  82.1  -5.2  34158  289.55 0854.39
2009/04/23 16:39:29.4     107     78     20    133    135  53.6   8.9  34158  289.53 0854.39
2009/04/23 16:39:29.5      75    143     -7    162    163  27.6  -2.8  34156  289.50 0854.39
2009/04/23 16:39:29.6      32    160    -58    164    175  11.3 -19.6  34164  289.63 0854.39
2009/04/23 16:39:29.7      28    107    -35    111    117  15.1 -17.6  34166  289.67 0854.39
2009/04/23 16:39:29.8     104    -11     46    105    114  96.1  25.1  34166  289.67 0854.39
2009/04/23 16:39:29.9     -94    -30     98     99    139 251.8  50.0  34172  289.77 0854.39
2009/04/23 16:39:30.0     -47    -22    152     53    160 244.7  80.5  34176  289.84 0854.39
2009/04/23 16:39:30.1     -13     -4    111     14    111 251.4  90.0  34188  290.04 0854.39
2009/04/23 16:39:30.2      16     16     91     24     94  45.0  84.9  34178  289.89 0854.39
2009/04/23 16:39:30.3     -11    -74     74     75    105 188.9  50.5  34184  289.97 0854.39
2009/04/23 16:39:30.4      21    -10     64     24     68 117.1  80.2  34202  290.30 0854.39
2009/04/23 16:39:30.5      14      2     63     15     64  78.5  86.9  34200  290.26 0854.39
2009/04/23 16:39:30.6      38     21     42     44     60  61.1  49.0  34200  290.25 0854.39
2009/04/23 16:39:30.7      13      4     65     14     66  71.6  89.0  34194  290.16 0854.39
2009/04/23 16:39:30.8      10    -18     51     21     55 151.0  76.1  34200  290.25 0854.39
2009/04/23 16:39:30.9      43    -36     69     57     89 129.6  56.4  34182  289.96 0854.39
2009/04/23 16:39:31.0      21    -96     39     99    106 167.5  22.5  34174  289.80 0854.41
2009/04/23 16:39:31.1      31    -76    -10     83     84 157.7  -7.3  34172  289.77 0854.41
2009/04/23 16:39:31.2      35    -63    -37     73     81 151.0 -33.1  34174  289.80 0854.41
2009/04/23 16:39:31.3      49    -53    -41     73     83 137.7 -36.8  34174  289.82 0854.41
2009/04/23 16:39:31.4      50    -75      4     91     92 146.6   2.9  34174  289.80 0854.41
2009/04/23 16:39:31.5      23    -66     -1     70     71 160.8  -1.3  34174  289.80 0854.41
2009/04/23 16:39:31.6      14    -85    -11     87     88 170.7  -7.2  34174  289.80 0854.41
2009/04/23 16:39:31.7       7    -98      4     99    100 175.6   2.3  34174  289.80 0854.41
2009/04/23 16:39:31.8      31   -115    -10    120    121 164.8  -5.1  34174  289.82 0854.41
2009/04/23 16:39:31.9      55    -87      8    104    105 147.5   4.9  34172  289.77 0854.41
2009/04/23 16:39:32.0      40    -92     -3    101    102 156.4  -1.8  34170  289.74 0854.41
2009/04/23 16:39:32.1     -35    -83    -31     91     96 203.2 -23.3  34174  289.80 0854.41
2009/04/23 16:39:32.2     -31   -106    -34    111    117 196.5 -17.0  34174  289.82 0854.41
2009/04/23 16:39:32.3     -81   -149    -36    170    174 208.5 -12.2  34176  289.85 0854.41
2009/04/23 16:39:32.4    -110   -175    -65    207    218 212.1 -17.6  34178  289.89 0854.41
2009/04/23 16:39:32.5    -136   -158    -51    209    216 220.8 -13.7  34176  289.84 0854.41
2009/04/23 16:39:32.6    -168   -116    -32    205    208 235.4  -9.0  34188  290.06 0854.41
2009/04/23 16:39:32.7     -94   -113    -68    148    162 219.6 -30.6  34180  289.91 0854.41
2009/04/23 16:39:32.8     -46   -141    -46    149    155 198.3 -22.8  34172  289.79 0854.41
2009/04/23 16:39:32.9     -25   -179      9    181    182 188.0   3.1  34170  289.75 0854.41
2009/04/23 16:39:33.0     -15   -200      2    201    202 184.4   0.7  34170  289.74 0854.41
2009/04/23 16:39:33.1       7   -142    -51    143    151 176.9 -24.4  34176  289.85 0854.41
2009/04/23 16:39:33.2      47   -100    -30    111    116 154.5 -15.4  34174  289.80 0854.41
2009/04/23 16:39:33.3      25   -152     29    155    158 170.7  10.8  34178  289.89 0854.41
2009/04/23 16:39:33.4      57   -162     60    172    183 160.6  19.2  34194  290.14 0854.41
2009/04/23 16:39:33.5      84   -157     21    179    181 151.7   6.9  34190  290.09 0854.41
2009/04/23 16:39:33.6     114   -202     17    233    234 150.6   4.2  34186  290.00 0854.41
2009/04/23 16:39:33.7     107   -157    -34    191    195 145.7 -10.1  34176  289.85 0854.41
2009/04/23 16:39:33.8      59   -116    -36    131    136 152.9 -15.5  34178  289.87 0854.41
2009/04/23 16:39:33.9      -1   -127     -8    128    129 180.5  -3.7  34182  289.94 0854.41
2009/04/23 16:39:34.0      24   -175     -3    177    178 172.0  -1.1  34184  289.97 0854.41
2009/04/23 16:39:34.1      20   -151    -30    153    156 172.4 -11.1  34180  289.92 0854.41
2009/04/23 16:39:34.2     -28   -145     30    148    152 191.1  11.6  34186  290.01 0854.41
2009/04/23 16:39:34.3     -28   -155     25    158    160 190.2   9.0  34190  290.09 0854.41
2009/04/23 16:39:34.5     -51   -129     47    139    147 201.8  18.9  34194  290.16 0854.41
2009/04/23 16:39:34.6     -69   -169     29    183    186 202.5   9.0  34184  289.99 0854.41
2009/04/23 16:39:34.6     -41   -119     37    127    133 199.2  16.3  34190  290.09 0854.41
2009/04/23 16:39:34.8       7    -50     84     51     98 172.0  65.7  34208  290.40 0854.41
2009/04/23 16:39:34.8       0    -90     97     91    133 180.4  51.6  34208  290.40 0854.41
2009/04/23 16:39:34.9     -22    -90     86     93    126 194.3  47.9  34210  290.41 0854.41
2009/04/23 16:39:35.1     -18   -115     73    117    137 188.9  35.5  34206  290.36 0854.42
2009/04/23 16:39:35.2     -24   -100     76    103    128 193.8  40.1  34206  290.35 0854.42
2009/04/23 16:39:35.2       4    -85     86     86    121 176.9  50.1  34212  290.45 0854.42
2009/04/23 16:39:35.4      47    -74     76     88    116 147.5  45.4  34228  290.74 0854.42
2009/04/23 16:39:35.5      74    -39     82     84    117 118.0  49.9  34242  290.96 0854.42
2009/04/23 16:39:35.6      20      3     73     21     75  80.3  82.8  34252  291.15 0854.42
2009/04/23 16:39:35.7      79    -13     82     81    115  99.7  49.1  34242  290.96 0854.42
2009/04/23 16:39:35.8      69    -43     87     82    119 122.4  51.6  34240  290.94 0854.42
2009/04/23 16:39:35.9      46    -24     63     53     82 118.0  55.4  34252  291.13 0854.42
2009/04/23 16:39:36.0      24    -33    107     42    114 143.9  78.2  34264  291.35 0854.42
2009/04/23 16:39:36.1      -3    -48     85     49     98 183.6  67.2  34252  291.13 0854.41
2009/04/23 16:39:36.2     -14    -49     60     52     79 196.0  54.8  34232  290.79 0854.41
2009/04/23 16:39:36.3     -19   -128     83    130    154 188.5  35.5  34222  290.62 0854.41
2009/04/23 16:39:36.4     -33   -147    111    151    187 192.9  39.9  34214  290.48 0854.41
2009/04/23 16:39:36.5     -40   -293    155    296    334 187.8  29.8  34170  289.73 0854.41
2009/04/23 16:39:36.6      -4   -326    130    327    351 180.8  22.9  34174  289.81 0854.41
2009/04/23 16:39:36.7     -38   -327    129    330    354 186.7  22.5  34174  289.81 0854.41
2009/04/23 16:39:36.8     -18   -340    133    341    366 183.2  22.5  34172  289.76 0854.41
2009/04/23 16:39:36.9     -26   -252    144    254    291 186.0  32.1  34178  289.86 0854.41
2009/04/23 16:39:37.0     -25   -347     60    348    354 184.2   9.9  34162  289.60 0854.41
2009/04/23 16:39:37.1      99   -396     -9    409    410 165.9  -1.3  34160  289.56 0854.41
2009/04/23 16:39:37.2      77   -382     95    390    402 168.5  13.7  34164  289.64 0854.41
2009/04/23 16:39:37.3     -97   -372     29    385    387 194.6   4.4  34164  289.64 0854.41
2009/04/23 16:39:37.4       8   -394    -26    395    396 178.8  -3.9  34160  289.57 0854.41
2009/04/23 16:39:37.5      87   -330      5    342    343 165.2   1.0  34156  289.50 0854.41
2009/04/23 16:39:37.6     116   -252     25    278    280 155.3   5.2  34160  289.56 0854.41
2009/04/23 16:39:37.7      50   -328    -31    332    334 171.3  -5.4  34172  289.76 0854.41
2009/04/23 16:39:37.8      71   -267    -22    277    278 165.1  -4.6  34162  289.59 0854.41
2009/04/23 16:39:37.9      10   -213     -7    214    215 177.1  -2.1  34164  289.65 0854.41
2009/04/23 16:39:38.0     -92   -230     34    248    251 201.8   8.0  34160  289.56 0854.41
2009/04/23 16:39:38.1     -89   -294    107    308    327 197.0  19.2  34156  289.51 0854.42
2009/04/23 16:39:38.2     -28   -358     86    360    371 184.5  13.5  34160  289.57 0854.42
2009/04/23 16:39:38.3     -26   -436     83    437    445 183.5  10.8  34152  289.44 0854.42
2009/04/23 16:39:38.4     -94   -503    -65    512    517 190.6  -7.3  34152  289.42 0854.42
2009/04/23 16:39:38.5      11   -470     -2    471    472 178.6  -0.3  34160  289.56 0854.42
2009/04/23 16:39:38.6      29   -360    -42    362    365 175.3  -6.7  34156  289.52 0854.42
2009/04/23 16:39:38.7      96   -408     50    420    424 166.8   6.9  34162  289.61 0854.42
2009/04/23 16:39:38.8     107   -400      2    415    416 165.0   0.4  34162  289.60 0854.42
2009/04/23 16:39:38.9     -93   -392    -93    403    414 193.4 -13.1  34154  289.46 0854.42
2009/04/23 16:39:39.0     -34   -425     -1    427    428 184.7  -0.3  34154  289.46 0854.42
2009/04/23 16:39:39.1    -142   -393   -136    418    440 199.9 -18.0  34150  289.39 0854.42
2009/04/23 16:39:39.2     -19   -246   -111    247    270 184.5 -30.6  34156  289.49 0854.42
2009/04/23 16:39:39.3       4   -245    -96    246    264 179.0 -26.9  34144  289.31 0854.42
2009/04/23 16:39:39.4      97   -210     -5    232    233 155.3  -1.3  34174  289.82 0854.42
2009/04/23 16:39:39.5     -34   -181    -26    185    187 190.7  -8.2  34144  289.30 0854.42
2009/04/23 16:39:39.6     -57   -154      0    165    166 200.5   0.2  34148  289.36 0854.42
2009/04/23 16:39:39.7     -16   -212    -42    213    218 184.4 -11.3  34152  289.43 0854.42
2009/04/23 16:39:39.8      19   -254    -21    255    257 175.6  -4.9  34146  289.34 0854.42
2009/04/23 16:39:39.9     -12   -190    173    191    257 183.6  47.0  34180  289.92 0854.42
2009/04/23 16:39:40.0      13   -121     88    122    150 173.8  39.7  34186  290.02 0854.42
2009/04/23 16:39:40.1      30   -144     -3    148    149 168.0  -1.2  34164  289.65 0854.42
2009/04/23 16:39:40.2      14   -191     17    192    193 175.5   5.2  34158  289.55 0854.42
2009/04/23 16:39:40.3    -111   -308   -101    328    343 200.0 -22.1  34154  289.47 0854.42
2009/04/23 16:39:40.4    -117   -167    -59    205    213 215.0 -21.2  34158  289.53 0854.42
2009/04/23 16:39:40.5      21   -184    -82    186    203 173.3 -29.5  34162  289.62 0854.42
2009/04/23 16:39:40.6    -124   -116    -39    170    175 226.9 -13.2  34164  289.65 0854.42
2009/04/23 16:39:40.7      36   -208     -4    212    213 170.2  -1.3  34162  289.62 0854.42
2009/04/23 16:39:40.8     102   -215     41    239    243 154.5   9.9  34168  289.71 0854.42
2009/04/23 16:39:40.9     103   -171     -2    200    201 148.8  -0.7  34158  289.55 0854.42
2009/04/23 16:39:41.0      42   -206     17    211    212 168.5   4.9  34160  289.58 0854.42
2009/04/23 16:39:41.1      38   -229      3    233    234 170.4   0.8  34158  289.54 0854.42
2009/04/23 16:39:41.2     121   -190    -74    226    238 147.5 -18.3  34164  289.63 0854.42
2009/04/23 16:39:41.3     221   -228     13    318    319 135.9   2.4  34150  289.41 0854.42
2009/04/23 16:39:41.4     178   -177    -19    252    253 134.9  -4.4  34154  289.46 0854.42
2009/04/23 16:39:41.5     115   -302   -239    324    402 159.1 -44.5  34146  289.35 0854.42
2009/04/23 16:39:41.6     190   -230    -84    299    310 140.4 -20.2  34150  289.41 0854.42
2009/04/23 16:39:41.7     147   -263    -38    302    305 150.8  -7.3  34148  289.36 0854.42
2009/04/23 16:39:41.8     101   -314    -13    331    332 162.1  -2.3  34134  289.13 0854.42
2009/04/23 16:39:41.9     130   -323    -13    349    350 158.1  -2.3  34146  289.33 0854.42
2009/04/23 16:39:42.0     131   -327     20    353    354 158.1   3.2  34144  289.30 0854.42
2009/04/23 16:39:42.1     175   -313    -51    359    363 150.8  -8.1  34110  288.71 0854.43
2009/04/23 16:39:42.2     109   -316    -96    335    349 161.0 -16.0  34146  289.32 0854.43
2009/04/23 16:39:42.3     213   -352    -54    412    416 148.8  -7.6  34118  288.85 0854.43
2009/04/23 16:39:42.4     168   -384   -104    420    433 156.4 -13.9  34112  288.75 0854.43
2009/04/23 16:39:42.5     118   -404    -99    421    433 163.7 -13.3  34088  288.34 0854.43
2009/04/23 16:39:42.6     121   -481    -19    497    498 165.8  -2.2  34078  288.20 0854.43
2009/04/23 16:39:42.7      91   -506      1    515    516 169.8   0.2  34084  288.30 0854.43
2009/04/23 16:39:42.8      71   -453    -17    459    460 171.0  -2.2  34086  288.33 0854.43
2009/04/23 16:39:42.9       9   -455     23    456    457 178.8   2.9  34096  288.50 0854.43
2009/04/23 16:39:43.0       7   -450    -77    451    458 179.1  -9.8  34106  288.67 0854.43
2009/04/23 16:39:43.1      15   -502    -93    503    512 178.2 -10.5  34104  288.64 0854.43
2009/04/23 16:39:43.2     -39   -543    -13    545    546 184.1  -1.4  34114  288.79 0854.43
2009/04/23 16:39:43.3     -49   -506     16    509    510 185.6   1.9  34120  288.91 0854.43
2009/04/23 16:39:43.4     -89   -516     26    524    525 189.8   2.9  34112  288.75 0854.43
2009/04/23 16:39:43.5    -170   -523    -60    551    555 198.1  -6.3  34114  288.80 0854.43
2009/04/23 16:39:43.6    -189   -495    -54    530    533 200.9  -5.9  34090  288.38 0854.43
2009/04/23 16:39:43.7     -98   -563    -11    572    573 189.9  -1.2  34114  288.78 0854.43
2009/04/23 16:39:43.8     -97   -569    -52    578    581 189.7  -5.2  34106  288.66 0854.43
2009/04/23 16:39:43.9       9   -622   -167    623    646 179.1 -15.1  34104  288.62 0854.43
2009/04/23 16:39:44.0     -47   -562    -45    564    566 184.8  -4.6  34112  288.77 0854.43
2009/04/23 16:39:44.1      39   -607   -125    609    622 176.3 -11.7  34110  288.72 0854.43
2009/04/23 16:39:44.2     -74   -489    -75    495    501 188.7  -8.7  34114  288.79 0854.43
2009/04/23 16:39:44.3       6   -493    -79    494    501 179.3  -9.1  34120  288.88 0854.43
2009/04/23 16:39:44.4      21   -455    -69    456    462 177.3  -8.6  34110  288.72 0854.43
2009/04/23 16:39:44.5      32   -424    -87    426    436 175.6 -11.6  34118  288.85 0854.43
2009/04/23 16:39:44.6     -18   -418    -24    419    420 182.5  -3.3  34130  289.05 0854.43
2009/04/23 16:39:44.7    -102   -423      8    436    437 193.6   1.1  34136  289.16 0854.43
2009/04/23 16:39:44.8     -74   -381     19    389    390 191.0   2.9  34128  289.04 0854.43
2009/04/23 16:39:44.9     -32   -360     50    362    366 185.1   7.9  34134  289.13 0854.43
2009/04/23 16:39:45.0     -60   -364     58    369    374 189.4   9.0  34136  289.18 0854.43
2009/04/23 16:39:45.1     -81   -300     38    311    314 195.2   7.1  34132  289.09 0854.43
2009/04/23 16:39:45.2    -116   -357     19    376    377 198.0   2.9  34126  288.98 0854.43
2009/04/23 16:39:45.3    -192   -186   -116    268    292 226.0 -29.3  34138  289.20 0854.43
2009/04/23 16:39:45.4    -164   -136   -181    214    280 230.2 -49.2  34124  288.95 0854.43
2009/04/23 16:39:45.5    -294   -138    -99    325    340 244.8 -17.0  34116  288.81 0854.43
2009/04/23 16:39:45.6    -230   -152    -65    276    284 236.5 -13.4  34124  288.95 0854.43
2009/04/23 16:39:45.7    -242   -145   -126    283    309 239.1 -30.1  34128  289.02 0854.43
2009/04/23 16:39:45.8    -281   -113   -140    303    333 248.0 -30.9  34128  289.02 0854.43
2009/04/23 16:39:45.9    -241   -118   -202    269    336 243.8 -45.0  34130  289.07 0854.43
2009/04/23 16:39:46.0    -179    -36   -175    183    253 258.6 -53.4  34114  288.80 0854.43
2009/04/23 16:39:46.1    -145   -155    -57    213    221 223.0 -15.2  34126  289.01 0854.44
2009/04/23 16:39:46.2    -138   -158   -113    210    238 221.2 -35.0  34124  288.97 0854.44
2009/04/23 16:39:46.3     -82   -161    -62    181    191 207.2 -23.3  34126  289.01 0854.44
2009/04/23 16:39:46.4      23    -70   -117     74    138 161.7 -69.1  34128  289.02 0854.44
2009/04/23 16:39:46.5      60     -3    -90     61    108  93.5 -67.6  34134  289.14 0854.44
2009/04/23 16:39:46.6      75     69   -123    103    160  47.3 -60.2  34140  289.23 0854.44
2009/04/23 16:39:46.7      87     47   -126    100    160  61.6 -61.9  34146  289.35 0854.44
2009/04/23 16:39:46.8      64    125   -155    141    209  27.2 -57.4  34144  289.31 0854.44
2009/04/23 16:39:46.9      25    130    -79    133    154  11.1 -38.4  34144  289.30 0854.44
2009/04/23 16:39:47.0     -56     38   -220     68    230 304.2 -86.4  34146  289.35 0854.44
2009/04/23 16:39:47.1     -23    216   -206    218    299 353.8 -52.4  34140  289.24 0854.44
2009/04/23 16:39:47.2    -169    189   -163    254    301 318.1 -40.0  34148  289.37 0854.44
2009/04/23 16:39:47.3     150    157    -88    218    235  43.7 -27.8  34140  289.24 0854.44
2009/04/23 16:39:47.4     179    193    -71    264    274  42.8 -15.2  34138  289.19 0854.44
2009/04/23 16:39:47.5     149    132    -45    200    206  48.6 -12.9  34140  289.24 0854.44
2009/04/23 16:39:47.6      51     70    -52     87    101  36.1 -37.9  34146  289.35 0854.44
2009/04/23 16:39:47.7     -14    105    -29    107    112 352.0 -15.4  34146  289.33 0854.44
2009/04/23 16:39:47.8    -113     76   -142    137    197 303.7 -55.6  34156  289.50 0854.44
2009/04/23 16:39:47.9     -31    152   -131    156    203 348.4 -48.7  34156  289.52 0854.44
2009/04/23 16:39:48.0      38    170     13    175    176  12.7   4.4  34144  289.31 0854.44
2009/04/23 16:39:48.1     -87    149     78    173    189 329.7  26.2  34148  289.36 0854.43
2009/04/23 16:39:48.2    -228     88     80    245    258 291.1  18.1  34136  289.15 0854.43
2009/04/23 16:39:48.3    -377     48    -35    381    383 277.4  -5.4  34142  289.28 0854.43
2009/04/23 16:39:48.4    -319     33    -81    321    332 276.0 -14.3  34140  289.24 0854.43
2009/04/23 16:39:48.5    -384    -40   -156    387    417 263.9 -27.5  34164  289.65 0854.43
2009/04/23 16:39:48.6    -354    -35   -144    356    384 264.2 -27.5  34180  289.91 0854.43
2009/04/23 16:39:48.7    -343    -50   -114    347    365 261.6 -23.5  34178  289.86 0854.43
2009/04/23 16:39:48.8    -263      0   -142    264    299 270.0 -35.2  34166  289.66 0854.43
2009/04/23 16:39:48.9    -174    -33    -51    178    185 259.2 -21.0  34178  289.89 0854.43
2009/04/23 16:39:49.0    -120   -105     -8    160    161 228.7  -3.1  34154  289.46 0854.43
2009/04/23 16:39:49.1    -138    -37    -39    143    149 255.0 -15.5  34158  289.55 0854.43
2009/04/23 16:39:49.2    -153   -110    -54    189    197 234.3 -16.0  34158  289.55 0854.43
2009/04/23 16:39:49.3    -327    -77   -106    336    353 256.7 -17.6  34162  289.62 0854.43
2009/04/23 16:39:49.4    -305   -151    -49    341    345 243.7  -8.2  34162  289.62 0854.43
2009/04/23 16:39:49.5    -258   -136    -42    292    296 242.2  -8.2  34158  289.54 0854.43
2009/04/23 16:39:49.6    -255   -151   -106    297    316 239.3 -19.7  34164  289.63 0854.43
2009/04/23 16:39:49.7    -276   -210    -57    348    353 232.7  -9.3  34162  289.59 0854.43
2009/04/23 16:39:49.8    -178   -153   -109    236    259 229.3 -30.8  34166  289.66 0854.43
2009/04/23 16:39:49.9    -169   -175    -86    244    258 223.9 -24.4  34170  289.75 0854.43
2009/04/23 16:39:50.0     -18   -212    -20    213    215 184.9  -5.6  34156  289.52 0854.43
2009/04/23 16:39:50.1     -17   -278    -69    279    288 183.6 -13.9  34142  289.27 0854.44
2009/04/23 16:39:50.2      31   -216   -115    219    247 171.8 -34.5  34146  289.32 0854.44
2009/04/23 16:39:50.3      96   -251    -36    269    272 159.1  -7.7  34146  289.34 0854.44
2009/04/23 16:39:50.4      32   -227     11    230    231 171.9   2.8  34162  289.60 0854.44
2009/04/23 16:39:50.5      31   -197    -54    200    208 170.9 -15.2  34158  289.55 0854.44
2009/04/23 16:39:50.6     112   -149      8    187    188 143.0   2.5  34154  289.46 0854.44
2009/04/23 16:39:50.7      53   -104    -32    118    123 152.8 -15.5  34148  289.38 0854.44
2009/04/23 16:39:50.8      84   -139    -19    163    165 148.6  -6.7  34136  289.16 0854.44
2009/04/23 16:39:50.9     119   -162     72    202    214 143.7  20.2  34124  288.96 0854.44
2009/04/23 16:39:51.0      55   -116    -46    129    138 154.5 -19.6  34128  289.02 0854.44
2009/04/23 16:39:51.1      47   -114    -48    124    132 157.3 -26.4  34134  289.13 0854.44
2009/04/23 16:39:51.2      30    -65     -5     72     73 154.6  -4.1  34142  289.28 0854.44
2009/04/23 16:39:51.3      66    -59      7     89     90 131.8   4.9  34148  289.38 0854.44
2009/04/23 16:39:51.4      49    -67     35     84     91 143.9  24.1  34126  288.99 0854.44
2009/04/23 16:39:51.5      13    -63     74     65     98 168.4  53.7  34130  289.06 0854.44
2009/04/23 16:39:51.6      38   -172    131    177    220 167.5  40.1  34134  289.14 0854.44
2009/04/23 16:39:51.7      20   -256    148    257    296 175.5  32.4  34134  289.12 0854.44
2009/04/23 16:39:51.8       4   -307    133    308    335 179.1  24.8  34130  289.07 0854.44
2009/04/23 16:39:51.9    -140   -220    123    261    288 212.5  27.1  34132  289.10 0854.44
2009/04/23 16:39:52.0    -183   -184      8    260    261 224.8   1.8  34132  289.09 0854.44
2009/04/23 16:39:52.1     -80   -221     92    236    253 200.0  22.3  34128  289.02 0854.45
2009/04/23 16:39:52.2     -63   -196     82    206    221 197.8  23.0  34128  289.02 0854.45
2009/04/23 16:39:52.3     -46   -248    211    253    329 190.6  44.1  34128  289.03 0854.45
2009/04/23 16:39:52.4     140   -123    189    187    265 131.3  50.1  34142  289.25 0854.45
2009/04/23 16:39:52.5     187   -159     48    246    251 130.4  11.1  34132  289.09 0854.45
2009/04/23 16:39:52.6     165   -260    -24    309    311 147.5  -4.5  34126  289.00 0854.45
2009/04/23 16:39:52.7     156   -318    -44    355    358 153.8  -7.2  34126  288.99 0854.45
2009/04/23 16:39:52.8     122   -272    -22    299    300 155.9  -4.4  34128  289.02 0854.45
2009/04/23 16:39:52.9     148   -225     21    270    271 146.6   4.6  34126  288.98 0854.45
2009/04/23 16:39:53.0      97   -215    -25    236    238 155.7  -6.1  34130  289.07 0854.45
2009/04/23 16:39:53.1     150   -185      2    239    240 141.0   0.5  34136  289.15 0854.45
2009/04/23 16:39:53.2     100   -172     47    200    206 149.7  13.2  34132  289.09 0854.45
2009/04/23 16:39:53.3      28   -176     26    179    182 170.9   8.5  34134  289.13 0854.45
2009/04/23 16:39:53.4      57   -212    -52    220    227 164.8 -13.3  34130  289.08 0854.45
2009/04/23 16:39:53.5     -11   -191    -42    192    197 183.4 -12.6  34138  289.19 0854.45
2009/04/23 16:39:53.6     -31   -111    -32    116    121 195.6 -15.4  34138  289.21 0854.45
2009/04/23 16:39:53.7     -44    -61      1     76     77 216.1   0.8  34134  289.14 0854.45
2009/04/23 16:39:53.8     -85    -68      0    110    111 231.4  -0.3  34140  289.24 0854.45
2009/04/23 16:39:53.9     -84    -48     -1     97     98 240.2  -1.2  34136  289.18 0854.45
2009/04/23 16:39:54.0     -14    -66     -3     68     69 192.5  -3.2  34134  289.13 0854.45
2009/04/23 16:39:54.1      99      0     48    100    110  90.0  27.3  34140  289.24 0854.45
2009/04/23 16:39:54.2     133   -115     46    177    183 130.9  14.7  34138  289.21 0854.45
2009/04/23 16:39:54.3     190   -163     16    251    252 130.7   3.8  34146  289.32 0854.45
2009/04/23 16:39:54.4     124   -232     61    264    272 151.9  13.1  34142  289.27 0854.45
2009/04/23 16:39:54.5     142   -297    104    330    347 154.5  17.5  34128  289.03 0854.45
2009/04/23 16:39:54.6     -60   -237    227    245    333 194.3  47.8  34132  289.09 0854.45
2009/04/23 16:39:54.7     -53   -162    166    171    238 198.3  49.2  34136  289.18 0854.45
2009/04/23 16:39:54.8     -25    -97     87    101    133 194.7  45.8  34132  289.11 0854.45
2009/04/23 16:39:54.9      35    -99     37    106    113 160.4  19.4  34136  289.18 0854.45
2009/04/23 16:39:55.0      30     16     90     35     96  61.1  78.6  34154  289.46 0854.45
2009/04/23 16:39:55.1      55     17    115     58    128  72.3  71.4  34154  289.46 0854.45
2009/04/23 16:39:55.2      -6    -21     93     23     95 196.9  86.4  34174  289.80 0854.45
2009/04/23 16:39:55.3       0     15     93     16     94 357.3  90.0  34164  289.63 0854.45
2009/04/23 16:39:55.4     -61      8     76     62     98 277.9  56.4  34160  289.57 0854.45
2009/04/23 16:39:55.5     -61      8     58     62     84 277.9  48.5  34154  289.46 0854.45
2009/04/23 16:39:55.6     -82     39     61     92    110 295.8  36.0  34150  289.41 0854.45
2009/04/23 16:39:55.7     -79     59     48     99    110 306.9  27.3  34148  289.36 0854.45
2009/04/23 16:39:55.8     -53     55     28     77     81 315.8  20.4  34152  289.45 0854.45
2009/04/23 16:39:55.9     -42     79     16     90     92 331.5  10.6  34148  289.38 0854.45
2009/04/23 16:39:56.0     -42     73     94     85    126 329.7  52.7  34160  289.58 0854.45
2009/04/23 16:39:56.1     -99     72     96    123    156 305.9  41.7  34160  289.58 0854.44
2009/04/23 16:39:56.2    -157     35    120    162    201 282.8  40.4  34156  289.52 0854.44
2009/04/23 16:39:56.3    -153     10    118    154    194 273.9  41.4  34150  289.41 0854.44
2009/04/23 16:39:56.4     -71     92     98    117    152 322.2  43.8  34146  289.33 0854.44
2009/04/23 16:39:56.5      38    139     76    145    163  15.6  30.1  34162  289.60 0854.44
2009/04/23 16:39:56.6      73     91     81    117    142  38.7  38.0  34228  290.74 0854.44
2009/04/23 16:39:56.7      13     44    109     47    118  16.9  75.0  34246  291.04 0854.44
2009/04/23 16:39:56.8     -23     35    109     43    117 326.6  77.6  34236  290.86 0854.44
2009/04/23 16:39:56.9       3     31     93     32     98   6.2  81.2  34220  290.60 0854.44
2009/04/23 16:39:57.0     122     12    149    123    193  84.3  56.4  34216  290.53 0854.44
2009/04/23 16:39:57.1      96     79    165    125    207  50.4  59.0  34194  290.16 0854.45
2009/04/23 16:39:57.2     163     54    154    172    230  71.6  46.6  34180  289.91 0854.45
2009/04/23 16:39:57.3     147    -19    162    149    220  97.5  52.5  34208  290.38 0854.45
2009/04/23 16:39:57.4     200     14    114    201    231  85.9  31.9  34186  290.01 0854.45
2009/04/23 16:39:57.5     108    -59    126    124    176 118.8  50.4  34230  290.75 0854.45
2009/04/23 16:39:57.6     116     12    194    117    226  83.9  66.2  34224  290.65 0854.45
2009/04/23 16:39:57.7     191      7    207    192    282  87.9  52.2  34196  290.17 0854.45
2009/04/23 16:39:57.8     293     17    121    294    317  86.5  23.6  34176  289.83 0854.45
2009/04/23 16:39:57.9     200      0    182    201    271  89.9  46.9  34196  290.19 0854.45
2009/04/23 16:39:58.0     -16   -109    124    111    166 188.5  53.7  34174  289.80 0854.45
2009/04/23 16:39:58.1      23   -122    125    125    176 169.3  50.1  34160  289.58 0854.45
2009/04/23 16:39:58.2      88    -51    176    102    203 120.2  67.0  34172  289.77 0854.45
2009/04/23 16:39:58.3     -19   -218    163    219    273 185.1  40.4  34150  289.39 0854.45
2009/04/23 16:39:58.4     -51   -236    143    242    281 192.3  33.5  34144  289.31 0854.45
2009/04/23 16:39:58.5     -53   -281    116    287    309 190.7  23.0  34144  289.29 0854.45
2009/04/23 16:39:58.6       9    -68    126     69    143 172.0  68.8  34192  290.13 0854.45
2009/04/23 16:39:58.7    -121     -5     90    122    151 267.4  39.7  34182  289.96 0854.45
2009/04/23 16:39:58.8     -63     70    126     95    157 318.1  59.2  34198  290.21 0854.45
2009/04/23 16:39:58.9     -25     40    120     48    129 327.4  77.1  34188  290.04 0854.45
2009/04/23 16:39:59.0     -56     -6    149     57    159 263.0  78.4  34172  289.77 0854.45
2009/04/23 16:39:59.1    -135   -135     55    192    200 225.0  16.0  34154  289.48 0854.45
2009/04/23 16:39:59.2    -144    -91     13    171    172 237.6   4.6  34164  289.63 0854.45
2009/04/23 16:39:59.3    -124   -253     94    282    298 206.1  18.5  34164  289.63 0854.45
2009/04/23 16:39:59.4    -151   -216    138    264    297 215.0  29.8  34158  289.54 0854.45
2009/04/23 16:39:59.5    -173   -217     63    278    286 218.5  12.9  34158  289.54 0854.45
2009/04/23 16:39:59.6    -157   -265     70    309    317 210.7  12.9  34160  289.58 0854.45
2009/04/23 16:39:59.7     -82   -225     67    240    250 200.1  15.6  34166  289.66 0854.45
2009/04/23 16:39:59.8     -25   -147    169    150    225 189.8  54.2  34168  289.72 0854.45
2009/04/23 16:39:59.9     -71   -119    170    139    219 210.8  56.4  34178  289.89 0854.45
2009/04/23 16:40:00.0     -74   -112    109    135    173 213.4  43.3  34174  289.80 0854.45
2009/04/23 16:40:00.1     -36   -184    128    188    227 191.3  37.6  34170  289.74 0854.45
2009/04/23 16:40:00.2      -8   -176    251    177    307 182.9  61.5  34184  289.98 0854.45
2009/04/23 16:40:00.3     -64   -116    197    133    237 209.0  62.7  34190  290.08 0854.45
2009/04/23 16:40:00.4      -8   -114    190    115    222 184.5  66.0  34214  290.48 0854.45
2009/04/23 16:40:00.5     -11     25    105     28    108 336.4  84.9  34224  290.67 0854.45
2009/04/23 16:40:00.6       2     46     74     47     87   3.6  64.7  34214  290.48 0854.45
2009/04/23 16:40:00.7      99     21      2    102    103  77.6   1.2  34206  290.36 0854.45
2009/04/23 16:40:00.8      -5   -152    179    153    235 182.2  55.3  34174  289.80 0854.45
2009/04/23 16:40:00.9      83    -69    181    109    211 129.6  66.0  34190  290.09 0854.45
2009/04/23 16:40:01.0      -4   -112    171    113    204 182.2  63.6  34162  289.62 0854.45
2009/04/23 16:40:01.1     -43   -119    128    127    180 200.0  49.9  34168  289.70 0854.43
2009/04/23 16:40:01.2     -76    -88    130    117    174 221.0  53.5  34168  289.72 0854.43
2009/04/23 16:40:01.3    -180     -4     63    181    192 268.5  19.2  34196  290.18 0854.43
2009/04/23 16:40:01.4    -200    -18     31    201    204 264.8   8.9  34180  289.91 0854.43
2009/04/23 16:40:01.5    -146    -48     23    154    156 251.6   8.5  34170  289.74 0854.43
2009/04/23 16:40:01.6     -62    -34      0     71     72 241.1  -0.3  34172  289.77 0854.43
2009/04/23 16:40:01.7     -60    -79     42    100    108 217.0  24.1  34180  289.91 0854.43
2009/04/23 16:40:01.8     -26    -70     75     75    106 200.9  50.1  34184  289.99 0854.43
2009/04/23 16:40:01.9       0    -89     91     90    127 180.4  50.1  34192  290.13 0854.43
2009/04/23 16:40:02.0      -9    -41    102     43    110 193.4  76.1  34198  290.23 0854.43
2009/04/23 16:40:02.1     114     37     93    120    151  71.8  41.7  34188  290.06 0854.43
2009/04/23 16:40:02.3      51     58    104     78    130  41.4  59.0  34212  290.45 0854.43
2009/04/23 16:40:02.4     -26     -4     66     27     71 260.3  77.1  34216  290.52 0854.43
2009/04/23 16:40:02.5     -68    -53     75     87    114 231.8  44.8  34212  290.45 0854.43
2009/04/23 16:40:02.6     -52    -26    133     59    145 243.8  74.9  34218  290.57 0854.43
2009/04/23 16:40:02.7      -2      3     58      4     58 327.5  90.0  34218  290.57 0854.43
2009/04/23 16:40:02.8     -77     64     55    101    115 309.5  31.4  34200  290.26 0854.43
2009/04/23 16:40:02.9    -121     71     98    141    171 300.7  38.0  34182  289.94 0854.43
2009/04/23 16:40:03.0     -73    -55     79     92    121 232.7  45.4  34200  290.25 0854.43
2009/04/23 16:40:03.1    -119   -133    127    179    219 221.7  39.1  34160  289.58 0854.43
2009/04/23 16:40:03.2    -172    -79     89    190    209 245.2  27.1  34152  289.43 0854.42
2009/04/23 16:40:03.3    -155    -60     44    167    173 248.7  15.0  34158  289.53 0854.42
2009/04/23 16:40:03.4    -144    -25     32    147    151 259.9  12.6  34172  289.77 0854.42
2009/04/23 16:40:03.5    -202     15     32    203    206 274.4   9.0  34178  289.89 0854.42
2009/04/23 16:40:03.6    -168      3     17    169    170 271.3   6.1  34180  289.91 0854.42
2009/04/23 16:40:03.7    -203     61     77    213    226 286.8  20.9  34196  290.19 0854.42
2009/04/23 16:40:03.8    -221     41     92    225    243 280.6  23.4  34186  290.02 0854.42
2009/04/23 16:40:03.9    -199     -9    134    200    240 267.2  37.0  34180  289.91 0854.42
2009/04/23 16:40:04.0    -229    -69    107    240    262 253.1  25.3  34186  290.00 0854.42
2009/04/23 16:40:04.1    -178    -19     58    180    190 263.6  17.9  34182  289.94 0854.42
2009/04/23 16:40:04.2    -152    -50     56    161    171 251.6  19.2  34184  289.97 0854.42
2009/04/23 16:40:04.3    -113    -69     47    133    141 238.5  20.4  34166  289.69 0854.42
2009/04/23 16:40:04.4     -69   -103     10    124    125 213.8   4.9  34180  289.92 0854.42
2009/04/23 16:40:04.5     -23    -94     15     97     99 193.8   9.0  34184  289.99 0854.42
2009/04/23 16:40:04.6     -35    -68    -26     77     82 207.2 -19.1  34174  289.80 0854.42
2009/04/23 16:40:04.7     -11    -39     14     41     44 196.0  18.9  34170  289.74 0854.42
2009/04/23 16:40:04.8     -29    -10     10     31     33 250.0  19.2  34168  289.70 0854.42
2009/04/23 16:40:04.9     -71    -14    -21     73     75 258.6 -21.7  34174  289.82 0854.42
2009/04/23 16:40:05.0     -77     31    -63     84    105 292.2 -44.5  34198  290.21 0854.42
2009/04/23 16:40:05.1     -37     61    -70     72    100 328.4 -53.8  34208  290.40 0854.42
2009/04/23 16:40:05.2      13     90    -54     92    106   8.5 -37.9  34222  290.64 0854.39
2009/04/23 16:40:05.3      41     40      2     58     59  46.0   2.9  34234  290.82 0854.39
2009/04/23 16:40:05.4      58     23     45     63     77  68.3  39.5  34232  290.79 0854.39
2009/04/23 16:40:05.5       0     48     45     49     66 359.1  47.9  34226  290.69 0854.39
2009/04/23 16:40:05.6      25     60     35     66     74  22.7  30.3  34238  290.89 0854.39
2009/04/23 16:40:05.7     102     33     58    108    122  71.8  30.8  34280  291.60 0854.39
2009/04/23 16:40:05.8      84     30     50     90    102  70.0  31.4  34292  291.81 0854.39
2009/04/23 16:40:05.9      91     35     36     98    104  68.7  20.4  34274  291.52 0854.39
2009/04/23 16:40:06.0      85     37     32     93     99  66.5  19.4  34302  291.98 0854.39
2009/04/23 16:40:06.1      69     23      3     73     74  71.4   2.9  34300  291.96 0854.39
2009/04/23 16:40:06.2      67     39     -3     78     79  59.3  -2.2  34282  291.66 0854.39
2009/04/23 16:40:06.3      80     51    -21     95     98  57.5 -12.9  34272  291.49 0854.39
2009/04/23 16:40:06.4     122     17      6    124    125  82.0   2.9  34266  291.37 0854.39
2009/04/23 16:40:06.5     163     31      2    167    168  79.0   1.0  34252  291.13 0854.39
2009/04/23 16:40:06.6     145     40     22    151    153  74.5   8.5  34252  291.13 0854.39
2009/04/23 16:40:06.7     271     69     76    280    291  75.6  15.2  34306  292.06 0854.39
2009/04/23 16:40:06.8     323    103     73    339    347  72.3  12.3  34254  291.18 0854.39
2009/04/23 16:40:06.9     264     77     54    276    282  73.6  11.1  34234  290.83 0854.39
2009/04/23 16:40:07.0     338    109     56    356    361  72.1   9.0  34278  291.59 0854.39
2009/04/23 16:40:07.1     272     73     82    282    294  74.9  16.3  34290  291.77 0854.39
2009/04/23 16:40:07.2     258     24     52    260    266  84.5  11.4  34310  292.11 0854.38
2009/04/23 16:40:07.3     185     35     59    189    199  79.2  17.4  34294  291.86 0854.38
2009/04/23 16:40:07.4     120     23     72    123    142  79.0  32.9  34322  292.34 0854.38
2009/04/23 16:40:07.5     102    -65     87    122    149 122.5  39.5  34324  292.35 0854.38
2009/04/23 16:40:07.6     107    -68     98    127    160 122.4  41.7  34314  292.20 0854.38
2009/04/23 16:40:07.7      67    -82     90    107    139 140.8  43.8  34332  292.49 0854.38
2009/04/23 16:40:07.8     122    -72     87    142    166 120.7  34.4  34328  292.44 0854.38
2009/04/23 16:40:07.9     181    -65    148    193    243 110.0  41.4  34260  291.26 0854.38
2009/04/23 16:40:08.0     169    -90    108    192    220 118.0  31.6  34270  291.45 0854.38
2009/04/23 16:40:08.1     128   -135    101    187    212 136.6  31.0  34230  290.75 0854.38
2009/04/23 16:40:08.2     125   -154     69    199    211 141.0  19.2  34216  290.53 0854.38
2009/04/23 16:40:08.3     146   -125     37    193    197 130.7  11.0  34172  289.77 0854.38
2009/04/23 16:40:08.4      75   -189    152    204    254 158.2  40.6  34192  290.10 0854.38
2009/04/23 16:40:08.5      67   -212     77    223    237 162.4  19.2  34194  290.14 0854.38
2009/04/23 16:40:08.6      30   -216     68    219    230 171.9  17.4  34130  289.06 0854.38
2009/04/23 16:40:08.7      54   -208    140    216    257 165.3  36.0  34142  289.27 0854.38
2009/04/23 16:40:08.8      75   -160    109    177    207 154.7  34.8  34132  289.09 0854.38
2009/04/23 16:40:08.9      -6   -197    167    198    259 181.8  44.3  34132  289.09 0854.38
2009/04/23 16:40:09.0      22   -209    151    211    259 173.8  39.3  34118  288.87 0854.38
2009/04/23 16:40:09.1      34   -225    143    228    269 171.3  35.5  34150  289.39 0854.38
2009/04/23 16:40:09.2     -30   -291     94    293    308 186.0  17.9  34142  289.27 0854.38
2009/04/23 16:40:09.3     -13   -283    100    284    302 182.7  19.4  34100  288.56 0854.38
2009/04/23 16:40:09.4      19   -248     41    249    253 175.6   9.5  34112  288.76 0854.38
2009/04/23 16:40:09.5      51   -217     12    224    225 166.6   3.3  34138  289.21 0854.38
2009/04/23 16:40:09.6     100   -157    -20    187    189 147.5  -6.2  34146  289.33 0854.38
2009/04/23 16:40:09.7      49   -184    -52    191    199 164.9 -15.4  34144  289.30 0854.38
2009/04/23 16:40:09.8       2    -94    -75     95    121 178.2 -46.6  34152  289.45 0854.38
2009/04/23 16:40:09.9      -1   -118    -37    119    125 180.5 -17.5  34150  289.40 0854.38
2009/04/23 16:40:10.0     -10    -95    -38     96    103 186.2 -27.4  34146  289.33 0854.38
2009/04/23 16:40:10.1    -155    -51    -49    164    171 251.8 -21.5  34120  288.91 0854.38
2009/04/23 16:40:10.2    -149    105    -95    183    206 305.1 -33.7  34126  289.01 0854.38
2009/04/23 16:40:10.3    -197    125    -78    234    247 302.4 -18.6  34140  289.24 0854.38
2009/04/23 16:40:10.4    -189     32   -125    192    229 279.7 -40.1  34132  289.09 0854.38
2009/04/23 16:40:10.5     -69     46   -140     84    163 303.7 -70.6  34148  289.36 0854.38
2009/04/23 16:40:10.6    -152    125    -69    198    210 309.5 -19.4  34148  289.38 0854.38
2009/04/23 16:40:10.7     -94     65    -78    115    138 304.6 -42.0  34178  289.87 0854.38
2009/04/23 16:40:10.8     -98     58     -6    115    116 300.7  -3.2  34166  289.69 0854.38
2009/04/23 16:40:10.9    -120     22     25    123    126 280.6  11.6  34162  289.60 0854.38
2009/04/23 16:40:11.0    -155    -20     57    157    167 262.5  20.7  34158  289.53 0854.38
2009/04/23 16:40:11.1    -228    -35    108    231    255 261.2  27.0  34156  289.51 0854.38
2009/04/23 16:40:11.2    -238    -65     89    247    263 254.7  19.9  34174  289.80 0854.38
2009/04/23 16:40:11.3    -201   -120     81    235    249 239.3  19.2  34192  290.12 0854.38
2009/04/23 16:40:11.4    -103     85    105    134    170 309.5  42.2  34182  289.94 0854.38
2009/04/23 16:40:11.5     -52    130    128    141    190 338.2  47.1  34164  289.63 0854.38
2009/04/23 16:40:11.6     -61     90     89    110    141 325.7  43.7  34160  289.57 0854.38
2009/04/23 16:40:11.7      -4    107     63    108    125 357.8  33.4  34162  289.62 0854.38
2009/04/23 16:40:11.8      -9    231     84    232    247 357.8  19.9  34166  289.66 0854.38
2009/04/23 16:40:11.9       5    333     80    334    344   0.9  13.6  34170  289.74 0854.38
2009/04/23 16:40:12.0      -8    198     10    199    200 357.5   2.9  34170  289.75 0854.38
2009/04/23 16:40:12.1     -61    180      0    191    192 341.1  -0.3  34170  289.75 0854.38
2009/04/23 16:40:12.2     -55    138     75    149    166 338.2  28.5  34180  289.91 0854.38
2009/04/23 16:40:12.3     -67    200    103    212    235 341.3  27.8  34184  289.99 0854.38
2009/04/23 16:40:12.4     -52    157    140    166    217 341.7  44.5  34204  290.33 0854.38
2009/04/23 16:40:12.5      80    216     84    231    245  20.3  20.7  34186  290.00 0854.38
2009/04/23 16:40:12.6      79    149     61    169    179  27.9  20.4  34182  289.94 0854.38
2009/04/23 16:40:12.7     144     17     79    146    166  83.0  30.8  34186  290.01 0854.38
2009/04/23 16:40:12.8     143     95    112    173    206  56.3  35.7  34182  289.94 0854.38
2009/04/23 16:40:12.9     122     47    100    132    165  68.7  40.9  34182  289.96 0854.38
2009/04/23 16:40:13.0      55     22     83     60    102  68.3  60.5  34186  290.02 0854.38
2009/04/23 16:40:13.1       6    -26     88     27     92 166.6  82.3  34214  290.48 0854.38
2009/04/23 16:40:13.2      50    -77    118     93    150 147.0  57.5  34190  290.09 0854.36
2009/04/23 16:40:13.3       0    -86    108     87    138 180.4  56.9  34196  290.19 0854.36
2009/04/23 16:40:13.4       8   -107     73    108    130 175.6  37.4  34188  290.06 0854.36
2009/04/23 16:40:13.5      20    -32     85     39     93 147.5  73.5  34202  290.28 0854.36
2009/04/23 16:40:13.6      16    -12     50     21     54 127.8  77.1  34198  290.23 0854.36
2009/04/23 16:40:13.7     -31    -12     38     34     50 248.3  53.3  34202  290.30 0854.36
2009/04/23 16:40:13.8    -132    -57     41    145    151 246.5  15.8  34220  290.58 0854.36
2009/04/23 16:40:13.9    -110    -49     50    121    130 246.0  23.6  34220  290.58 0854.36
2009/04/23 16:40:14.0     -96    -52     51    110    121 241.6  26.6  34214  290.50 0854.36
2009/04/23 16:40:14.1    -128    -62     56    143    153 244.2  22.5  34214  290.50 0854.36
2009/04/23 16:40:14.2    -110    -37     18    117    119 251.4   8.9  34214  290.48 0854.36
2009/04/23 16:40:14.3    -106    -67     16    126    128 237.5   7.5  34214  290.50 0854.36
2009/04/23 16:40:14.4     -22    -65     58     69     90 199.2  43.8  34204  290.31 0854.36
2009/04/23 16:40:14.5     -25   -171     25    173    175 188.5   8.5  34192  290.13 0854.36
2009/04/23 16:40:14.6     -81   -240     42    254    258 198.7   9.5  34208  290.37 0854.36
2009/04/23 16:40:14.7    -121   -283     48    308    312 203.2   8.9  34218  290.54 0854.36
2009/04/23 16:40:14.8    -134   -269     47    301    305 206.5   8.9  34214  290.48 0854.36
2009/04/23 16:40:14.9    -170   -313     27    357    358 208.6   4.3  34214  290.50 0854.36
2009/04/23 16:40:15.0    -174   -308     47    354    358 209.5   7.6  34196  290.18 0854.36
2009/04/23 16:40:15.1    -155   -254     57    298    304 211.4  11.0  34196  290.17 0854.36
2009/04/23 16:40:15.2    -118   -248     83    275    288 205.5  16.8  34184  289.98 0854.34
2009/04/23 16:40:15.3    -116   -255     -3    281    282 204.5  -0.7  34182  289.93 0854.34
2009/04/23 16:40:15.4     -77   -271    -47    282    287 196.0  -9.6  34168  289.70 0854.34
2009/04/23 16:40:15.5      15   -289    -47    290    294 176.9  -9.3  34166  289.66 0854.34
2009/04/23 16:40:15.6     -12   -279    -61    280    287 182.6 -12.4  34168  289.71 0854.34
2009/04/23 16:40:15.7      -7   -297    -47    298    302 181.4  -9.0  34166  289.66 0854.34
2009/04/23 16:40:15.8     -12   -269    -34    270    273 182.7  -7.3  34176  289.85 0854.34
2009/04/23 16:40:15.9      39   -220    -64    224    232 169.8 -21.0  34166  289.67 0854.34
2009/04/23 16:40:16.0     -20   -258    -33    259    262 184.5  -7.3  34166  289.66 0854.34
2009/04/23 16:40:16.1      30   -212    -43    215    220 171.9 -11.5  34168  289.72 0854.34
2009/04/23 16:40:16.2     -73   -168     71    184    197 203.6  22.3  34174  289.82 0854.34
2009/04/23 16:40:16.3      19   -188     22    190    192 174.0   6.9  34174  289.82 0854.34
2009/04/23 16:40:16.4     -56   -157     87    167    188 199.8  29.8  34176  289.84 0854.34
2009/04/23 16:40:16.5     -48   -146     61    154    165 198.5  22.5  34178  289.89 0854.34
2009/04/23 16:40:16.6     -57    -68     79     90    119 220.1  45.8  34182  289.96 0854.34
2009/04/23 16:40:16.7       0    -38     73     39     82 179.1  69.8  34200  290.26 0854.34
2009/04/23 16:40:16.8      15      0     32     16     35  90.0  72.8  34198  290.23 0854.34
2009/04/23 16:40:16.9      41      7     26     42     49  80.3  35.5  34182  289.94 0854.34
2009/04/23 16:40:17.0      33     29      2     44     45  48.7   3.8  34174  289.80 0854.34
2009/04/23 16:40:17.1      54      7     -5     55     56  82.1  -5.2  34174  289.80 0854.34
2009/04/23 16:40:17.2      52      4     44     53     68  85.7  43.8  34172  289.79 0854.35
2009/04/23 16:40:17.3      61     15     43     63     76  75.8  36.5  34156  289.50 0854.35
2009/04/23 16:40:17.4       9    -29     23     31     38 161.3  41.7  34158  289.53 0854.35
2009/04/23 16:40:17.5     -74    -64     40     98    105 229.1  23.1  34158  289.55 0854.35
2009/04/23 16:40:17.6     -82   -114     70    141    157 215.6  28.2  34160  289.58 0854.35
2009/04/23 16:40:17.7     -49   -121     67    131    147 202.3  29.2  34160  289.57 0854.35
2009/04/23 16:40:17.8     -23   -133     66    136    151 189.8  27.3  34160  289.58 0854.35
2009/04/23 16:40:17.9     -13   -145     64    146    159 185.3  25.3  34154  289.46 0854.35
2009/04/23 16:40:18.0     -53   -177     71    185    198 196.7  22.0  34162  289.62 0854.35
2009/04/23 16:40:18.1     -27   -177     64    180    191 188.7  20.0  34170  289.75 0854.35
2009/04/23 16:40:18.2    -112   -227     40    254    258 206.3   9.0  34196  290.17 0854.34
2009/04/23 16:40:18.3    -134   -225     48    263    268 210.8  10.3  34184  289.98 0854.34
2009/04/23 16:40:18.4    -126   -199     28    236    238 212.5   6.9  34176  289.85 0854.34
2009/04/23 16:40:18.5      -7   -255     49    256    261 181.8  11.0  34180  289.90 0854.34
2009/04/23 16:40:18.6     -13   -290     76    291    301 182.7  14.7  34152  289.44 0854.34
2009/04/23 16:40:18.7     -19   -239     94    240    257 184.7  22.8  34154  289.46 0854.34
2009/04/23 16:40:18.8     -21   -207     94    209    229 186.0  25.9  34156  289.50 0854.34
2009/04/23 16:40:18.9     -17   -207    118    208    239 184.9  32.3  34154  289.48 0854.34
2009/04/23 16:40:19.0     -50   -244    164    250    298 191.6  36.5  34172  289.76 0854.34
2009/04/23 16:40:19.1    -100   -200    111    224    249 206.7  28.2  34164  289.63 0854.34
2009/04/23 16:40:19.2     -33   -168     96    172    196 191.1  31.6  34180  289.92 0854.34
2009/04/23 16:40:19.3      25   -165    117    168    204 171.1  38.0  34156  289.52 0854.34
2009/04/23 16:40:19.4      33   -161    104    165    195 168.2  35.5  34148  289.36 0854.34
2009/04/23 16:40:19.5      44   -171     77    177    193 165.3  24.9  34140  289.23 0854.34
2009/04/23 16:40:19.6     108   -180    107    211    236 149.0  29.1  34148  289.38 0854.34
2009/04/23 16:40:19.7      77   -193     88    208    225 158.2  24.3  34210  290.43 0854.34
2009/04/23 16:40:19.8       4   -178    143    179    229 178.6  43.0  34170  289.75 0854.34
2009/04/23 16:40:19.9      91   -151    151    177    232 149.0  44.8  34214  290.50 0854.34
2009/04/23 16:40:20.0      94   -116    113    150    187 140.8  40.7  34200  290.26 0854.34
2009/04/23 16:40:20.1      29   -110    153    114    190 164.9  59.8  34232  290.79 0854.34
2009/04/23 16:40:20.2      35    -22     86     42     95 122.5  72.4  34224  290.67 0854.34
2009/04/23 16:40:20.3      17    -64     85     67    108 164.8  56.9  34226  290.69 0854.34
2009/04/23 16:40:20.4      -7   -116    123    117    169 183.6  51.2  34216  290.53 0854.34
2009/04/23 16:40:20.5      -7   -103    118    104    157 184.0  54.0  34214  290.48 0854.34
2009/04/23 16:40:20.6      31    -46     79     56     96 145.7  61.5  34208  290.38 0854.34
2009/04/23 16:40:20.7     101    -71    105    124    162 125.1  44.8  34216  290.52 0854.34
2009/04/23 16:40:20.8      24    -73    131     77    151 161.7  66.8  34212  290.45 0854.34
2009/04/23 16:40:20.9      31    -93    118     99    154 161.3  56.3  34210  290.41 0854.34
2009/04/23 16:40:21.0       0    -51     75     52     91 180.9  62.1  34210  290.41 0854.34
2009/04/23 16:40:21.1     -10    -72     51     73     89 188.0  38.6  34198  290.23 0854.34
2009/04/23 16:40:21.2      18   -105     36    107    114 169.8  18.9  34206  290.36 0854.34
2009/04/23 16:40:21.3     108    -83     35    137    142 127.7  14.7  34196  290.19 0854.34
2009/04/23 16:40:21.4     127    -75     37    148    153 120.7  14.3  34174  289.82 0854.34
2009/04/23 16:40:21.5      96    -53     59    110    124 118.9  30.8  34178  289.89 0854.34
2009/04/23 16:40:21.6       0    -31     69     32     76 180.9  73.1  34194  290.14 0854.34
2009/04/23 16:40:21.7     -20    -83    102     86    133 193.8  55.8  34178  289.89 0854.34
2009/04/23 16:40:21.8     -31   -117     33    122    127 195.1  15.3  34166  289.67 0854.34
2009/04/23 16:40:21.9     -34   -143     34    147    151 193.4  13.2  34162  289.60 0854.34
2009/04/23 16:40:22.0       2   -122     25    123    126 179.0  11.6  34164  289.65 0854.34
2009/04/23 16:40:22.1      -8   -161     41    162    168 183.1  14.3  34174  289.82 0854.34
2009/04/23 16:40:22.2     -17   -108     42    110    117 189.3  22.0  34176  289.84 0854.28
2009/04/23 16:40:22.3      22    -72     96     76    122 163.1  57.5  34180  289.91 0854.28
2009/04/23 16:40:22.4     -17   -123    168    125    209 188.0  59.8  34178  289.87 0854.28
2009/04/23 16:40:22.5     -43   -132    123    140    186 198.3  45.8  34178  289.87 0854.28
2009/04/23 16:40:22.6      -9   -108    158    109    191 184.9  62.4  34206  290.35 0854.28
2009/04/23 16:40:22.7     -45    -48    143     66    157 223.3  73.8  34214  290.48 0854.28
2009/04/23 16:40:22.8      -8     14     74     17     75 331.0  89.0  34218  290.55 0854.28
2009/04/23 16:40:22.9     -23     15     65     28     70 302.4  75.0  34240  290.94 0854.28
2009/04/23 16:40:23.0     -54     37     65     66     92 304.2  50.5  34250  291.09 0854.28
2009/04/23 16:40:23.1     -54     81     60     98    114 326.2  35.5  34214  290.48 0854.28
2009/04/23 16:40:23.2     -15    106      8    108    109 352.0   4.4  34206  290.36 0854.28
2009/04/23 16:40:23.3     -71    130     30    149    153 331.5  11.4  34208  290.38 0854.28
2009/04/23 16:40:23.4    -107    168     11    200    201 327.5   3.3  34210  290.43 0854.28
2009/04/23 16:40:23.5     -82    174     19    193    194 334.6   5.7  34218  290.57 0854.28
2009/04/23 16:40:23.6     -98    169    -16    196    197 329.9  -4.9  34222  290.62 0854.28
2009/04/23 16:40:23.7      17    184    -32    185    188   5.3 -10.1  34220  290.60 0854.28
2009/04/23 16:40:23.8     184     98     33    209    212  61.8   9.0  34230  290.75 0854.28
2009/04/23 16:40:23.9     197     66     87    208    225  71.4  24.1  34218  290.55 0854.28
2009/04/23 16:40:24.0     191      9    147    192    241  87.2  41.2  34262  291.32 0854.28
2009/04/23 16:40:24.1     155     21     98    157    185  82.1  35.2  34280  291.62 0854.28
2009/04/23 16:40:24.2     210     33    185    213    282  81.0  45.8  34298  291.90 0854.27
2009/04/23 16:40:24.3     179     56    137    188    232  72.5  39.7  34318  292.25 0854.27
2009/04/23 16:40:24.4      97    153    173    182    251  32.5  48.7  34316  292.22 0854.27
2009/04/23 16:40:24.5     137    100    120    170    208  53.8  38.8  34312  292.15 0854.27
2009/04/23 16:40:24.6      59     48     31     77     83  50.5  23.0  34296  291.88 0854.27
2009/04/23 16:40:24.7     -56     53    -23     78     82 313.1 -16.6  34316  292.22 0854.27
2009/04/23 16:40:24.8     -82     83    -36    118    124 315.3 -17.0  34312  292.17 0854.27
2009/04/23 16:40:24.9    -104     51      5    117    118 296.2   2.8  34302  292.00 0854.27
2009/04/23 16:40:25.0     -27     43    -14     52     54 327.5 -15.4  34300  291.96 0854.27
2009/04/23 16:40:25.1     104     96     70    142    158  47.3  28.2  34310  292.12 0854.27
2009/04/23 16:40:25.2     120    123     52    173    181  44.3  16.8  34304  292.03 0854.27
2009/04/23 16:40:25.3      56    144     39    155    160  21.4  14.3  34292  291.81 0854.27
2009/04/23 16:40:25.4      55    149     32    160    164  20.5  11.4  34302  291.98 0854.27
2009/04/23 16:40:25.5      45    172     34    178    182  14.7  10.8  34302  292.00 0854.27
2009/04/23 16:40:25.6      43    162     72    168    182  14.9  24.3  34298  291.93 0854.27
2009/04/23 16:40:25.7      58    155     73    166    181  20.7  25.1  34286  291.72 0854.27
2009/04/23 16:40:25.8      81    169     71    188    200  25.6  21.5  34284  291.67 0854.27
2009/04/23 16:40:25.9      86    156     62    179    190  29.0  19.2  34282  291.66 0854.27
2009/04/23 16:40:26.0     -73    153     16    170    171 334.4   5.4  34322  292.34 0854.27
2009/04/23 16:40:26.1     -90    141     52    168    176 327.5  17.3  34316  292.23 0854.27
2009/04/23 16:40:26.2     -38    200     55    204    212 349.1  15.3  34294  291.86 0854.26
2009/04/23 16:40:26.3       0    187     89    188    208   0.0  27.1  34330  292.46 0854.26
2009/04/23 16:40:26.4      10    196     98    197    220   3.1  28.2  34324  292.37 0854.26
2009/04/23 16:40:26.5      16    211    103    212    235   4.5  27.8  34318  292.25 0854.26
2009/04/23 16:40:26.6     -43    213    142    218    260 348.4  36.0  34296  291.89 0854.26
2009/04/23 16:40:26.7    -234    207    156    313    349 311.4  28.4  34270  291.44 0854.26
2009/04/23 16:40:26.8    -322    205     49    382    386 302.5   7.4  34116  288.81 0854.26
2009/04/23 16:40:26.9    -261    173     49    314    318 303.5   8.9  34108  288.68 0854.26
2009/04/23 16:40:27.0    -231    158     18    280    281 304.4   3.8  34108  288.68 0854.26
2009/04/23 16:40:27.1    -231    140    -13    271    272 301.3  -2.8  34116  288.81 0854.26
2009/04/23 16:40:27.2    -217    126    -13    252    253 300.2  -3.1  34128  289.02 0854.26
2009/04/23 16:40:27.3    -182    132     18    226    227 306.0   4.6  34148  289.36 0854.26
2009/04/23 16:40:27.4    -175    145      9    228    229 309.8   2.5  34186  290.01 0854.26
2009/04/23 16:40:27.5    -204    143     63    250    259 305.1  14.3  34242  290.97 0854.26
2009/04/23 16:40:27.6    -143    110     14    181    182 307.8   4.6  34226  290.70 0854.26
2009/04/23 16:40:27.7    -123     95     25    156    159 307.8   9.3  34228  290.74 0854.26
2009/04/23 16:40:27.8    -132     94     45    163    170 305.5  15.6  34276  291.54 0854.26
2009/04/23 16:40:27.9     -88     58     17    106    108 303.3   9.5  34284  291.67 0854.26
2009/04/23 16:40:28.0    -236    -45    -20    241    242 259.2  -4.9  34270  291.43 0854.26
2009/04/23 16:40:28.1    -245     -7    -63    246    255 268.3 -14.4  34304  292.01 0854.26
2009/04/23 16:40:28.2    -219    -16   -116    220    248 265.6 -34.5  34316  292.23 0854.25
2009/04/23 16:40:28.3    -113    -60    -91    129    157 242.0 -43.2  34320  292.30 0854.25
2009/04/23 16:40:28.4     -93     -7    -83     94    125 265.7 -50.3  34304  292.03 0854.25
2009/04/23 16:40:28.5     -40     14    -88     43     97 290.0 -77.2  34312  292.15 0854.25
2009/04/23 16:40:28.6     -85     20    -63     88    108 283.3 -44.1  34306  292.05 0854.25
2009/04/23 16:40:28.7     -85     16    -67     87    109 281.0 -46.1  34302  292.00 0854.25
2009/04/23 16:40:28.8    -124    -10    -65    125    140 265.2 -33.7  34302  291.98 0854.25
2009/04/23 16:40:28.9     -82      3    -86     83    119 272.1 -55.1  34294  291.84 0854.25
2009/04/23 16:40:29.0     -92    -30   -112     97    148 251.8 -59.2  34296  291.89 0854.25
2009/04/23 16:40:29.1     -48      0   -102     49    113 270.0 -77.3  34302  291.98 0854.25
2009/04/23 16:40:29.2     -91    -43    -15    101    103 244.8  -8.8  34276  291.54 0854.25
2009/04/23 16:40:29.3     -17    -50     -4     53     54 199.2  -5.2  34246  291.03 0854.25
2009/04/23 16:40:29.4     -38    -95     -1    103    104 201.8  -0.7  34222  290.62 0854.25
2009/04/23 16:40:29.5     -28   -139    -38    142    148 191.5 -15.0  34194  290.14 0854.25
2009/04/23 16:40:29.6      34    -54    -89     65    110 147.5 -64.9  34208  290.40 0854.25
2009/04/23 16:40:29.7       1     68    -74     69    101   1.0 -56.6  34208  290.38 0854.25
2009/04/23 16:40:29.8     -41    103    -33    112    116 338.2 -21.7  34212  290.47 0854.25
2009/04/23 16:40:29.9    -111    119      1    164    165 317.0   0.5  34246  291.04 0854.25
2009/04/23 16:40:30.1    -109    131     33    171    175 320.1  11.1  34270  291.45 0854.25
2009/04/23 16:40:30.2    -135     68     44    152    159 297.0  16.3  34274  291.50 0854.25
2009/04/23 16:40:30.3    -142     66     21    157    159 295.2   7.8  34272  291.49 0854.23
2009/04/23 16:40:30.4    -181     21    -43    183    189 276.8 -13.4  34244  291.01 0854.23
2009/04/23 16:40:30.5    -138     46    -44    146    153 288.6 -17.0  34248  291.06 0854.23
2009/04/23 16:40:30.6    -109     58    -38    124    129 298.0 -22.3  34260  291.26 0854.23
2009/04/23 16:40:30.7     -85     54      5    101    102 302.4   2.9  34258  291.25 0854.23
2009/04/23 16:40:30.8     -73     29      8     79     80 291.7   5.9  34256  291.20 0854.23
2009/04/23 16:40:30.9     -57     22      6     62     63 291.7   5.9  34252  291.15 0854.23
2009/04/23 16:40:31.0     -41      9    -12     43     44 282.4 -20.7  34222  290.64 0854.23
2009/04/23 16:40:31.1       8    -26    -51     28     58 161.3 -73.2  34226  290.70 0854.23
2009/04/23 16:40:31.2      71    -45    -76     85    114 122.5 -51.3  34234  290.84 0854.23
2009/04/23 16:40:31.3     158    -22    -53    160    168  98.0 -23.6  34234  290.84 0854.23
2009/04/23 16:40:31.4     192     27    -38    194    198  82.0 -11.3  34248  291.06 0854.23
2009/04/23 16:40:31.5     294     59      1    300    301  78.6   0.2  34202  290.29 0854.23
2009/04/23 16:40:31.6     331    111     75    350    359  71.4  12.2  34166  289.67 0854.23
2009/04/23 16:40:31.7     406    207     88    456    465  62.9  11.0  34178  289.88 0854.23
2009/04/23 16:40:31.8     283    226     89    363    374  51.4  13.9  34184  289.98 0854.23
2009/04/23 16:40:31.9     386     94     -1    398    399  76.2  -0.3  34202  290.30 0854.23
2009/04/23 16:40:32.0     401     57     12    406    407  81.9   1.8  34188  290.04 0854.23
2009/04/23 16:40:32.1     360     27     45    361    364  85.7   7.2  34184  289.98 0854.23
2009/04/23 16:40:32.2     419    113     93    435    445  74.9  12.1  34156  289.49 0854.23
2009/04/23 16:40:32.3     382    145     88    409    419  69.2  12.2  34180  289.92 0854.21
2009/04/23 16:40:32.4     295   -139     71    327    335 115.2  12.3  34202  290.30 0854.21
2009/04/23 16:40:32.5     252   -187    -68    315    323 126.6 -12.3  34226  290.70 0854.21
2009/04/23 16:40:32.6     247   -188    -77    311    321 127.3 -13.9  34226  290.68 0854.21
2009/04/23 16:40:32.7     236   -219    -89    323    336 132.9 -15.5  34222  290.64 0854.21
2009/04/23 16:40:32.8     352   -159     60    387    392 114.4   8.9  34226  290.69 0854.21
2009/04/23 16:40:32.9     251    -67     98    260    277 105.0  21.7  34208  290.37 0854.21
2009/04/23 16:40:33.0     277     40    131    280    309  81.6  27.1  34210  290.42 0854.21
2009/04/23 16:40:33.1     340    100     32    355    357  73.6   5.2  34198  290.20 0854.21
2009/04/23 16:40:33.2     317     98    117    332    353  72.8  19.4  34182  289.94 0854.21
2009/04/23 16:40:33.3     361    120     55    381    386  71.6   8.2  34188  290.06 0854.21
2009/04/23 16:40:33.4     278     37    151    281    319  82.3  30.6  34208  290.37 0854.21
2009/04/23 16:40:33.5     255      0    121    256    283  90.0  27.1  34230  290.76 0854.21
2009/04/23 16:40:33.6     312    -68     70    320    328 102.3  12.4  34222  290.61 0854.21
2009/04/23 16:40:33.7     297    -22    145    298    331  94.3  27.9  34218  290.54 0854.21
2009/04/23 16:40:33.8     249     19    140    250    286  85.6  31.6  34212  290.46 0854.21
2009/04/23 16:40:33.9     188     26    123    190    226  82.1  35.6  34196  290.19 0854.21
2009/04/23 16:40:34.0     161   -170    157    235    282 136.7  37.0  34224  290.66 0854.21
2009/04/23 16:40:34.1     250   -285    218    380    438 138.7  32.6  34216  290.53 0854.21
2009/04/23 16:40:34.2     165   -199    164    259    306 140.4  35.5  34208  290.37 0854.21
2009/04/23 16:40:34.3     154    -48    176    162    239 107.5  52.5  34238  290.89 0854.20
2009/04/23 16:40:34.4     178   -198    167    267    314 138.1  35.0  34238  290.90 0854.20
2009/04/23 16:40:34.5     236   -150    207    281    349 122.5  40.0  34258  291.22 0854.20
2009/04/23 16:40:34.6     170    -94    191    195    272 119.1  49.8  34274  291.50 0854.20
2009/04/23 16:40:34.7      -1    -92    162     93    186 180.9  68.1  34278  291.57 0854.20
2009/04/23 16:40:34.8      10   -131    170    132    215 175.5  58.4  34258  291.23 0854.20
2009/04/23 16:40:34.9     -31   -153    177    157    236 191.5  54.0  34266  291.38 0854.20
2009/04/23 16:40:35.0      54   -137    169    148    224 158.6  54.3  34244  290.99 0854.20
2009/04/23 16:40:35.1      64   -126    161    142    214 152.8  54.3  34244  291.01 0854.20
2009/04/23 16:40:35.2      56   -101    144    116    184 150.6  56.9  34220  290.60 0854.20
2009/04/23 16:40:35.3      80   -133    140    156    209 148.8  46.4  34200  290.25 0854.20
2009/04/23 16:40:35.4      87    -84    114    121    166 134.0  48.5  34198  290.21 0854.20
2009/04/23 16:40:35.5      63    -46    107     79    133 126.0  60.5  34222  290.64 0854.20
2009/04/23 16:40:35.6      85    -80    110    117    160 133.2  48.2  34224  290.65 0854.20
2009/04/23 16:40:35.7      76    -73    102    106    147 134.0  49.0  34220  290.58 0854.20
2009/04/23 16:40:35.8      60    -81     99    102    142 143.5  49.4  34214  290.50 0854.20
2009/04/23 16:40:35.9      74    -80    112    110    156 137.2  50.4  34214  290.48 0854.20
2009/04/23 16:40:36.0      50    -55     76     75    106 137.7  49.7  34216  290.53 0854.20
2009/04/23 16:40:36.1      71   -120     80    140    161 149.3  32.4  34204  290.33 0854.20
2009/04/23 16:40:36.2      28   -122     61    126    139 167.1  27.3  34214  290.48 0854.20
2009/04/23 16:40:36.3      88   -121     51    150    159 143.9  18.9  34212  290.47 0854.18
2009/04/23 16:40:36.4      14   -191     72    192    205 175.5  21.0  34184  289.97 0854.18
2009/04/23 16:40:36.5      34   -190     52    194    201 169.8  15.0  34182  289.94 0854.18
2009/04/23 16:40:36.6      28   -157     82    160    179 169.8  29.3  34182  289.96 0854.18
2009/04/23 16:40:36.7      51   -177     26    185    187 163.7   8.2  34176  289.84 0854.18
2009/04/23 16:40:36.8      59   -166     26    177    179 160.2   8.5  34176  289.85 0854.18
2009/04/23 16:40:36.9      94   -157     14    184    185 149.0   4.6  34188  290.04 0854.18
2009/04/23 16:40:37.0      51   -146     37    155    160 160.4  13.5  34188  290.06 0854.18
2009/04/23 16:40:37.1      57   -103     45    118    126 151.0  21.5  34206  290.35 0854.18
2009/04/23 16:40:37.2      80    -81     11    114    115 135.3   5.9  34216  290.53 0854.18
2009/04/23 16:40:37.3      25    -81     54     85    100 162.6  35.5  34208  290.38 0854.18
2009/04/23 16:40:37.4      49    -90     76    103    128 151.0  40.1  34222  290.64 0854.18
2009/04/23 16:40:37.5      71    -90     92    115    147 141.7  43.7  34224  290.65 0854.18
2009/04/23 16:40:37.6      44    -94     62    104    121 154.7  33.5  34208  290.38 0854.18
2009/04/23 16:40:37.7       7   -110     85    111    139 176.4  41.6  34198  290.23 0854.18
2009/04/23 16:40:37.8     -12   -100    103    101    144 187.1  50.1  34210  290.41 0854.18
2009/04/23 16:40:37.9      60    -57     85     83    118 133.6  50.2  34216  290.53 0854.18
2009/04/23 16:40:38.0      92    -76     61    120    134 129.5  29.2  34196  290.18 0854.18
2009/04/23 16:40:38.1     145    -80     73    166    181 118.9  25.1  34220  290.58 0854.18
2009/04/23 16:40:38.2     185    -40     31    190    193 102.2   9.5  34204  290.33 0854.18
2009/04/23 16:40:38.3     122    -26     90    125    154 102.4  39.5  34214  290.48 0854.19
2009/04/23 16:40:38.4      76    -92     74    120    140 140.3  35.0  34204  290.33 0854.19
2009/04/23 16:40:38.5      95   -105     36    142    147 137.7  14.3  34208  290.38 0854.19
2009/04/23 16:40:38.6      73   -161     43    178    184 155.5  13.5  34206  290.35 0854.19
2009/04/23 16:40:38.7      13   -280     76    281    292 177.3  15.2  34176  289.83 0854.19
2009/04/23 16:40:38.8     112   -414    128    429    448 164.9  16.7  34152  289.43 0854.19
2009/04/23 16:40:38.9      89   -403     81    413    421 167.5  11.1  34142  289.27 0854.19
2009/04/23 16:40:39.0     110   -275    131    297    324 158.2  25.6  34170  289.75 0854.19
2009/04/23 16:40:39.1      93   -213    141    233    272 156.3  34.4  34188  290.03 0854.19
2009/04/23 16:40:39.2     176   -293    -18    342    343 149.0  -3.1  34202  290.27 0854.19
2009/04/23 16:40:39.3     110   -333    -13    351    352 161.6  -2.2  34164  289.65 0854.20
2009/04/23 16:40:39.4      87   -216     29    233    235 158.1   7.1  34172  289.78 0854.20
2009/04/23 16:40:39.5     110   -207     -9    235    236 151.9  -2.2  34170  289.75 0854.20
2009/04/23 16:40:39.6     199   -187    -29    274    276 133.2  -6.2  34164  289.63 0854.20
2009/04/23 16:40:39.7     106   -264     19    285    286 158.1   3.9  34154  289.47 0854.20
2009/04/23 16:40:39.8     126   -166     -4    209    210 142.8  -1.1  34178  289.87 0854.20
2009/04/23 16:40:39.9     143   -127     18    192    193 131.6   5.4  34200  290.26 0854.20
2009/04/23 16:40:40.0     131    -83      6    156    157 122.4   2.5  34216  290.53 0854.20
2009/04/23 16:40:40.1     170    -90     23    193    195 118.0   6.9  34226  290.69 0854.20
2009/04/23 16:40:40.2      51   -130     69    140    156 158.6  27.3  34190  290.08 0854.20
2009/04/23 16:40:40.3     -86   -283     25    296    298 196.9   4.9  34166  289.66 0854.20
2009/04/23 16:40:40.4    -141   -295    -30    328    330 205.6  -5.3  34182  289.94 0854.20
2009/04/23 16:40:40.5     -70   -245    -43    256    260 196.1  -9.6  34190  290.07 0854.20
2009/04/23 16:40:40.6     -83   -180     -7    199    200 204.9  -2.2  34186  290.02 0854.20
2009/04/23 16:40:40.7     -11   -146    -65    147    160 184.4 -29.7  34180  289.91 0854.20
2009/04/23 16:40:40.8      37   -173    -55    178    186 167.7 -22.5  34166  289.67 0854.20
2009/04/23 16:40:40.9     -23   -176    -77    178    193 187.6 -29.0  34172  289.77 0854.20
2009/04/23 16:40:41.0     -47   -123   -169    132    214 200.9 -62.6  34148  289.36 0854.20
2009/04/23 16:40:41.1     -69    -70    -75     99    124 224.2 -45.6  34168  289.70 0854.20
2009/04/23 16:40:41.2       0    -75     18     76     79 180.0  13.2  34170  289.75 0854.20
2009/04/23 16:40:41.3       0    -36    105     37    111 180.9  80.7  34174  289.82 0854.22
2009/04/23 16:40:41.4      24   -148    160    151    220 170.7  52.0  34168  289.72 0854.22
2009/04/23 16:40:41.5     117     25    156    120    196  77.6  58.5  34170  289.74 0854.22
2009/04/23 16:40:41.6     267   -136    222    300    373 117.1  40.1  34152  289.43 0854.22
2009/04/23 16:40:41.7     278   -238    248    367    442 130.6  37.4  34156  289.51 0854.22
2009/04/23 16:40:41.8      15   -369    212    370    426 177.7  32.4  34156  289.49 0854.22
2009/04/23 16:40:41.9     128   -204    104    241    262 147.9  24.6  34162  289.61 0854.22
2009/04/23 16:40:42.0     157   -392    109    423    437 158.1  14.5  34196  290.17 0854.22
2009/04/23 16:40:42.1     258   -341     20    428    429 142.9   2.8  34194  290.16 0854.22
2009/04/23 16:40:42.2     369   -318    194    488    525 130.8  23.0  34182  289.95 0854.22
2009/04/23 16:40:42.3     408   -278    -35    494    496 124.3  -4.1  34192  290.12 0854.22
2009/04/23 16:40:42.4     329    -30    -12    331    332  95.4  -2.2  34172  289.76 0854.22
2009/04/23 16:40:42.5     215   -167    -65    273    281 127.7 -13.4  34158  289.53 0854.22
2009/04/23 16:40:42.6     198   -239    187    311    362 140.3  33.7  34142  289.25 0854.22
2009/04/23 16:40:42.7     236   -310    218    390    446 142.7  31.6  34130  289.07 0854.22
2009/04/23 16:40:42.8     231   -278    126    362    384 140.3  19.2  34128  289.03 0854.22
2009/04/23 16:40:42.9     198   -248    121    318    340 141.3  21.7  34132  289.11 0854.22
2009/04/23 16:40:43.0     147   -271    174    309    354 151.5  31.9  34140  289.23 0854.22
2009/04/23 16:40:43.1      88   -319    150    332    364 164.5  26.0  34142  289.26 0854.22
2009/04/23 16:40:43.2      72   -296    132    305    332 166.2  24.9  34142  289.27 0854.22
2009/04/23 16:40:43.3      -3   -268    137    269    301 180.7  29.2  34156  289.49 0854.24
2009/04/23 16:40:43.4     -40   -325    106    328    345 187.1  17.9  34152  289.42 0854.24
2009/04/23 16:40:43.5     104   -251     25    272    274 157.5   5.4  34142  289.27 0854.24
2009/04/23 16:40:43.6     108   -160      9    194    195 145.9   2.9  34142  289.28 0854.24
2009/04/23 16:40:43.7      82   -145      3    167    168 150.6   1.2  34146  289.33 0854.24
2009/04/23 16:40:43.8      55   -152      2    162    163 159.9   0.8  34148  289.38 0854.24
2009/04/23 16:40:43.9      49   -176      2    183    184 164.2   0.8  34154  289.46 0854.24
2009/04/23 16:40:44.0      94   -184     36    207    211 152.8   9.9  34150  289.41 0854.24
2009/04/23 16:40:44.1      72   -171      3    186    187 157.1   1.0  34158  289.53 0854.24
2009/04/23 16:40:44.2      26   -152      3    155    156 170.2   1.2  34156  289.52 0854.24
2009/04/23 16:40:44.3      25   -161     39    164    169 171.1  13.5  34150  289.41 0854.24
2009/04/23 16:40:44.4      43   -157     33    163    167 164.4  11.4  34152  289.45 0854.24
2009/04/23 16:40:44.5      38   -164     44    169    175 166.9  14.7  34152  289.43 0854.24
2009/04/23 16:40:44.6       7   -114     45    115    123 176.4  22.5  34152  289.45 0854.24
2009/04/23 16:40:44.7      21    -93    -12     96     97 167.1  -7.3  34156  289.52 0854.24
2009/04/23 16:40:44.8     -46    -79     -2     92     93 210.7  -1.3  34158  289.53 0854.24
2009/04/23 16:40:44.9     -54     -4     32     55     63 264.8  32.4  34164  289.63 0854.24
2009/04/23 16:40:45.0     -55      0     20     56     59 270.0  20.0  34158  289.53 0854.24
2009/04/23 16:40:45.1     -65    -15     25     67     71 256.7  21.0  34160  289.58 0854.24
2009/04/23 16:40:45.2     -83    -14     18     85     87 259.9  12.2  34160  289.58 0854.24
2009/04/23 16:40:45.3     -74     34    -17     82     84 294.8 -11.9  34166  289.67 0854.22
2009/04/23 16:40:45.4    -136      0    -54    137    147 269.6 -27.4  34190  290.09 0854.22
2009/04/23 16:40:45.5    -115    -21    -49    117    126 259.4 -28.0  34204  290.31 0854.22
2009/04/23 16:40:45.6     -66    -48    -27     82     86 234.1 -23.8  34204  290.31 0854.22
2009/04/23 16:40:45.7     -33    -46    -20     57     61 216.1 -19.7  34204  290.33 0854.22
2009/04/23 16:40:45.9      15    -45     24     48     53 160.8  27.3  34202  290.28 0854.22
2009/04/23 16:40:45.9      89    -74     73    116    137 129.6  35.5  34170  289.75 0854.22
2009/04/23 16:40:46.0      81    -98     56    128    139 140.4  25.1  34168  289.72 0854.22
2009/04/23 16:40:46.1     140    -92     76    168    184 123.3  26.2  34166  289.67 0854.22
2009/04/23 16:40:46.2     154   -144     65    212    222 133.1  17.1  34144  289.30 0854.22
2009/04/23 16:40:46.3     230   -142     27    271    273 121.8   5.7  34144  289.29 0854.22
2009/04/23 16:40:46.4     217   -179     38    282    285 129.6   7.8  34134  289.12 0854.22
2009/04/23 16:40:46.5     162   -162     94    230    248 134.9  23.4  34130  289.05 0854.22
2009/04/23 16:40:46.6     142   -252    140    290    322 150.6  27.7  34132  289.10 0854.22
2009/04/23 16:40:46.7     216   -276     75    351    360 141.9  12.2  34140  289.23 0854.22
2009/04/23 16:40:46.8     199   -231    157    306    343 139.2  29.2  34130  289.08 0854.22
2009/04/23 16:40:46.9     190   -219    192    291    348 139.0  36.4  34140  289.23 0854.22
2009/04/23 16:40:47.1     192   -208    118    284    307 137.2  23.8  34134  289.12 0854.22
2009/04/23 16:40:47.1     156   -231    143    279    313 145.9  29.3  34138  289.20 0854.22
2009/04/23 16:40:47.2     138   -221    166    261    309 147.9  35.5  34150  289.39 0854.22
2009/04/23 16:40:47.3     132   -230     78    266    278 150.1  16.3  34146  289.34 0854.20
2009/04/23 16:40:47.4     180   -156    -17    239    240 130.9  -4.1  34150  289.39 0854.20
2009/04/23 16:40:47.5     233   -272     10    359    360 139.5   1.7  34140  289.23 0854.20
2009/04/23 16:40:47.6     245   -229     97    336    350 133.1  16.1  34136  289.16 0854.20
2009/04/23 16:40:47.7     206   -187     74    279    289 132.2  15.0  34134  289.14 0854.20
2009/04/23 16:40:47.8      88   -185    126    205    240 154.5  34.4  34136  289.18 0854.20
2009/04/23 16:40:47.9      61   -231    121    240    268 165.1  28.5  34144  289.31 0854.20
2009/04/23 16:40:48.0     -69   -205    239    217    322 198.7  53.2  34142  289.25 0854.20
2009/04/23 16:40:48.2    -153   -179    109    236    259 220.5  26.4  34144  289.31 0854.20
2009/04/23 16:40:48.2     -38    -94    -86    102    133 202.3 -48.7  34144  289.30 0854.20
2009/04/23 16:40:48.3      11    -91    -57     92    108 172.9 -39.9  34142  289.26 0854.20
2009/04/23 16:40:48.4      76   -119    -47    142    150 147.5 -18.3  34146  289.35 0854.20
2009/04/23 16:40:48.5      24   -194    -25    196    198 172.7  -7.3  34150  289.41 0854.20
2009/04/23 16:40:48.6     -38   -187     -7    191    192 191.5  -2.1  34148  289.36 0854.20
2009/04/23 16:40:48.7     -98   -190    -35    215    218 207.4  -9.3  34144  289.31 0854.20
2009/04/23 16:40:48.8      -8   -122    -86    123    150 184.0 -43.0  34144  289.31 0854.20
2009/04/23 16:40:48.9      -3    -81    -65     82    104 182.7 -47.1  34154  289.46 0854.20
2009/04/23 16:40:49.0      48    -46    -63     67     91 134.1 -52.9  34160  289.57 0854.20
2009/04/23 16:40:49.1      52    -65    -50     84     97 141.3 -38.8  34156  289.50 0854.20
2009/04/23 16:40:49.2      25    -69    -41     74     84 160.0 -36.3  34150  289.41 0854.20
2009/04/23 16:40:49.3      29    -74    -72     80    107 158.2 -51.3  34156  289.50 0854.23
2009/04/23 16:40:49.4      79    -79    -45    113    121 135.0 -27.4  34152  289.45 0854.23
2009/04/23 16:40:49.5      91    -65    -77    112    135 125.5 -42.0  34150  289.40 0854.23
2009/04/23 16:40:49.6      85    -51      2    100    101 121.1   1.2  34154  289.46 0854.23
2009/04/23 16:40:49.7      89    -56      5    106    107 122.4   2.9  34150  289.40 0854.23
2009/04/23 16:40:49.8     102    -27     -4    106    107 105.0  -2.2  34152  289.45 0854.23
2009/04/23 16:40:49.9      85     -2     24     86     90  91.7  15.8  34156  289.50 0854.23
2009/04/23 16:40:50.0     107      5     37    108    115  87.0  18.9  34154  289.48 0854.23
2009/04/23 16:40:50.1     162     20     61    164    174  82.8  20.7  34150  289.41 0854.23
2009/04/23 16:40:50.2     210    -49    166    216    272 103.3  41.6  34152  289.44 0854.23
2009/04/23 16:40:50.3     211   -116    109    241    264 118.8  26.2  34154  289.47 0854.23
2009/04/23 16:40:50.4      88   -130     56    158    167 145.7  20.2  34146  289.35 0854.23
2009/04/23 16:40:50.5      42   -148     55    154    163 164.0  20.2  34148  289.38 0854.23
2009/04/23 16:40:50.6     -47   -169     76    176    191 195.8  24.9  34154  289.46 0854.23
2009/04/23 16:40:50.7       6   -133     51    134    143 177.3  21.5  34150  289.41 0854.23
2009/04/23 16:40:50.8     -16   -161      2    162    163 186.0   1.0  34150  289.41 0854.23
2009/04/23 16:40:50.9      -5   -106    -60    107    122 182.7 -35.8  34152  289.43 0854.23
2009/04/23 16:40:51.0      28   -106    -81    110    136 164.9 -44.1  34156  289.50 0854.23
2009/04/23 16:40:51.1      59    -88    -82    107    134 146.2 -46.0  34156  289.50 0854.23
2009/04/23 16:40:51.2      90    -87    -85    126    151 134.0 -41.8  34158  289.55 0854.23
2009/04/23 16:40:51.3      86    -71    -18    112    114 129.5  -9.3  34154  289.48 0854.24
2009/04/23 16:40:51.4      90    -63     28    110    114 125.1  14.7  34156  289.52 0854.24
2009/04/23 16:40:51.5     101    -63     23    120    123 122.0  11.1  34160  289.58 0854.24
2009/04/23 16:40:51.6     137    -46      0    145    146 108.6  -0.3  34158  289.53 0854.24
2009/04/23 16:40:51.7     178    -16     58    179    189  95.2  18.1  34158  289.55 0854.24
2009/04/23 16:40:51.8     197     15     86    198    215  85.6  25.1  34170  289.75 0854.24
2009/04/23 16:40:51.9     139     34    132    144    195  76.3  47.5  34176  289.84 0854.24
2009/04/23 16:40:52.0     -31   -200    217    203    297 188.9  52.1  34164  289.63 0854.24
2009/04/23 16:40:52.1      37   -212    207    216    299 170.0  49.0  34166  289.68 0854.24
2009/04/23 16:40:52.2     -41   -266    245    270    364 188.9  46.9  34166  289.67 0854.24
2009/04/23 16:40:52.3     -77   -336    213    345    405 192.9  34.6  34162  289.62 0854.24
2009/04/23 16:40:52.4      74   -219    185    232    296 161.3  42.7  34166  289.68 0854.24
2009/04/23 16:40:52.5     -49   -286    102    291    309 189.7  19.4  34158  289.53 0854.24
2009/04/23 16:40:52.6      71   -195    -35    208    211 160.0  -9.6  34160  289.57 0854.24
2009/04/23 16:40:52.7     -37     27    130     46    137 306.0  79.7  34176  289.85 0854.24
2009/04/23 16:40:52.8      90     40    129     99    162  65.6  58.7  34172  289.77 0854.24
2009/04/23 16:40:52.9      64     93     66    114    131  34.7  32.9  34178  289.87 0854.24
2009/04/23 16:40:53.0      31     48     58     58     82  32.6  50.1  34180  289.92 0854.24
2009/04/23 16:40:53.1      38     72     82     82    115  28.1  50.1  34182  289.96 0854.24
2009/04/23 16:40:53.2      80     19     85     83    118  76.7  50.2  34176  289.84 0854.24
2009/04/23 16:40:53.3      53      1    127     54    138  88.3  76.1  34190  290.08 0854.24
2009/04/23 16:40:53.4      54    -34     82     64    104 122.4  57.9  34182  289.96 0854.24
2009/04/23 16:40:53.5      -3    -50    116     51    126 183.6  75.0  34182  289.94 0854.24
2009/04/23 16:40:53.6      36     31     91     48    102  49.6  70.4  34190  290.09 0854.24
2009/04/23 16:40:53.7      23    -77     54     81     97 163.1  36.0  34172  289.79 0854.24
2009/04/23 16:40:53.8      -1    -40     86     41     95 182.7  72.9  34172  289.79 0854.24
2009/04/23 16:40:53.9     -25    -26     62     37     72 223.4  65.7  34182  289.96 0854.24
2009/04/23 16:40:54.0       1   -106     42    107    114 179.1  22.0  34176  289.84 0854.24
2009/04/23 16:40:54.1      25    -80     35     84     91 162.6  24.1  34174  289.82 0854.24
2009/04/23 16:40:54.2      33    -86     79     93    122 158.6  45.4  34176  289.85 0854.24
2009/04/23 16:40:54.3      32    -89     92     95    132 160.0  49.4  34176  289.85 0854.24
2009/04/23 16:40:54.4       5    -82     94     83    125 176.4  54.2  34184  289.99 0854.24
2009/04/23 16:40:54.5     -16    -60    103     63    120 195.1  65.7  34198  290.23 0854.24
2009/04/23 16:40:54.6       1    -33     77     34     84 177.3  75.5  34196  290.19 0854.24
2009/04/23 16:40:54.7      72     -4     82     73    109  93.5  53.7  34186  290.02 0854.24
2009/04/23 16:40:54.8      10     33     85     35     91  18.3  76.6  34200  290.26 0854.24
2009/04/23 16:40:54.9       8    106     49    107    117   4.5  26.2  34184  289.99 0854.24
2009/04/23 16:40:55.0     -11     84     13     85     87 352.4   9.0  34182  289.96 0854.24
2009/04/23 16:40:55.1      32     50     74     60     95  32.6  56.4  34180  289.91 0854.24
2009/04/23 16:40:55.2      86    120     81    148    168  35.6  31.0  34178  289.87 0854.24
2009/04/23 16:40:55.3      42     98    103    107    148  23.2  49.0  34196  290.19 0854.25
2009/04/23 16:40:55.4      10    142    111    143    181   4.4  42.0  34200  290.25 0854.25
2009/04/23 16:40:55.5      79    211    130    226    260  20.7  32.4  34214  290.49 0854.25
2009/04/23 16:40:55.6      93    311     27    325    327  16.7   4.9  34218  290.56 0854.25
2009/04/23 16:40:55.7      71    299    -25    308    310  13.4  -4.8  34210  290.42 0854.25
2009/04/23 16:40:55.8      81    262      7    275    276  17.2   1.6  34226  290.68 0854.25
2009/04/23 16:40:55.9     165    271      8    318    319  31.4   1.6  34242  290.97 0854.25
2009/04/23 16:40:56.0      60    259     78    266    278  13.1  16.3  34200  290.26 0854.25
2009/04/23 16:40:56.1      55    229     50    236    242  13.6  12.2  34202  290.29 0854.25
2009/04/23 16:40:56.2     110    215     38    242    246  27.2   9.0  34226  290.68 0854.25
2009/04/23 16:40:56.3     157    195    -36    251    254  38.7  -8.2  34364  293.03 0854.25
2009/04/23 16:40:56.4     102    188     42    215    220  28.5  11.1  34328  292.42 0854.25
2009/04/23 16:40:56.5     105    217     40    242    246  25.9   9.5  34290  291.78 0854.25
2009/04/23 16:40:56.6     158     85    110    180    210  61.8  34.4  34264  291.33 0854.25
2009/04/23 16:40:56.7     108     39    149    116    188  70.0  58.2  34230  290.77 0854.25
2009/04/23 16:40:56.8     171     50    172    179    248  73.6  49.0  34262  291.32 0854.25
2009/04/23 16:40:56.9      98     54    133    112    173  61.1  55.8  34314  292.20 0854.25
2009/04/23 16:40:57.0      69     15    108     71    129  77.6  64.1  34250  291.11 0854.25
2009/04/23 16:40:57.1      61     39    128     73    147  57.5  68.8  34228  290.74 0854.25
2009/04/23 16:40:57.2      79     26     91     84    123  71.6  52.2  34224  290.67 0854.25
2009/04/23 16:40:57.3      91     22    133     94    162  76.3  61.5  34292  291.83 0854.26
2009/04/23 16:40:57.4      79     55    128     97    160  55.4  59.2  34348  292.76 0854.26
2009/04/23 16:40:57.5      43     59     84     74    111  36.1  53.7  34358  292.93 0854.26
2009/04/23 16:40:57.6     116     35    107    122    162  73.2  45.8  34358  292.93 0854.26
2009/04/23 16:40:57.7      99     55    121    114    166  61.1  51.6  34398  293.63 0854.26
2009/04/23 16:40:57.9     131     98    158    164    227  53.1  49.0  34440  294.35 0854.26
2009/04/23 16:40:58.0     178     72    117    193    225  67.8  34.0  34438  294.30 0854.26
2009/04/23 16:40:58.1     146     39    127    152    198  74.9  44.3  34432  294.21 0854.26
2009/04/23 16:40:58.2     116     55    107    129    167  64.6  44.1  34476  294.95 0854.26
2009/04/23 16:40:58.3      93     59    108    111    154  57.5  49.9  34482  295.05 0854.26
2009/04/23 16:40:58.4     116     35    113    122    166  73.2  47.7  34478  295.00 0854.26
2009/04/23 16:40:58.5     114     70    152    134    202  58.5  54.0  34504  295.45 0854.26
2009/04/23 16:40:58.6     136     62    107    150    184  65.6  39.1  34498  295.34 0854.26
2009/04/23 16:40:58.7     130     61    117    144    185  64.8  43.5  34494  295.26 0854.26
2009/04/23 16:40:58.8     156    144    156    213    264  47.3  39.7  34390  293.49 0854.26
2009/04/23 16:40:58.9     164    154    187    226    293  46.9  43.7  34372  293.18 0854.26
2009/04/23 16:40:59.0     173    149    189    229    296  49.3  43.7  34346  292.74 0854.26
2009/04/23 16:40:59.1     280     50     21    285    286  79.9   4.4  34372  293.16 0854.26
2009/04/23 16:40:59.2     256    141    -11    293    294  61.1  -2.2  34386  293.40 0854.26
2009/04/23 16:40:59.3     266    181    -40    322    325  55.7  -7.2  34322  292.33 0854.26
2009/04/23 16:40:59.4     324    176     13    369    370  61.5   2.1  34292  291.83 0854.28
2009/04/23 16:40:59.5     312    175     55    358    363  60.7   8.8  34164  289.65 0854.28
2009/04/23 16:40:59.6     287    167     59    333    339  59.7  10.1  34152  289.42 0854.28
2009/04/23 16:40:59.7     298    202    115    361    379  55.8  17.7  34188  290.06 0854.28
2009/04/23 16:40:59.8     330    194     32    384    386  59.5   4.9  34192  290.11 0854.28
2009/04/23 16:40:59.9     329    109    -21    347    348  71.5  -3.5  34228  290.71 0854.28
2009/04/23 16:41:00.0     312    207     72    375    382  56.4  11.0  34228  290.71 0854.28
2009/04/23 16:41:00.1     376    177     89    416    426  64.8  12.2  34230  290.77 0854.28
2009/04/23 16:41:00.2     432    148    103    457    469  71.0  12.8  34212  290.45 0854.28
2009/04/23 16:41:00.3     378    122     61    398    403  72.1   8.7  34208  290.37 0854.28
2009/04/23 16:41:00.4     350    177     73    393    400  63.2  10.6  34218  290.54 0854.29
2009/04/23 16:41:00.5     367    202     65    420    425  61.1   8.8  34216  290.51 0854.29
2009/04/23 16:41:00.6     344    218     78    408    416  57.7  10.8  34184  289.99 0854.29
2009/04/23 16:41:00.7     372    186     57    416    420  63.4   7.8  34162  289.60 0854.29
2009/04/23 16:41:00.8     315    226     60    388    393  54.3   8.8  34190  290.08 0854.29
2009/04/23 16:41:00.9     292    177     94    342    355  58.8  15.4  34206  290.35 0854.29
2009/04/23 16:41:01.0     351    195    113    402    418  61.0  15.8  34256  291.21 0854.29
2009/04/23 16:41:01.1     439    182     20    476    477  67.4   2.5  34224  290.66 0854.29
2009/04/23 16:41:01.2     424    201      8    470    471  64.6   1.0  34248  291.08 0854.29
2009/04/23 16:41:01.3     487    185    105    521    532  69.2  11.5  34276  291.54 0854.29
2009/04/23 16:41:01.4     438    145    103    462    474  71.6  12.6  34318  292.24 0854.29
2009/04/23 16:41:01.5     379     97    140    392    416  75.6  20.4  34340  292.64 0854.29
2009/04/23 16:41:01.6     356    154    130    389    411  66.6  18.6  34312  292.16 0854.29
2009/04/23 16:41:01.7     378    192   -105    425    438  63.0 -13.9  34216  290.53 0854.29
2009/04/23 16:41:01.8     444    112     19    458    459  75.8   2.4  34338  292.61 0854.29
2009/04/23 16:41:01.9     444    214     -9    494    495  64.2  -1.2  34222  290.62 0854.29
2009/04/23 16:41:02.0     382     34     23    384    385  84.9   3.5  34270  291.44 0854.29
2009/04/23 16:41:02.1     397     61    116    402    419  81.2  16.1  34292  291.80 0854.29
2009/04/23 16:41:02.2     467    155     51    493    496  71.6   6.0  34276  291.54 0854.29
2009/04/23 16:41:02.3     350    225    116    417    433  57.2  15.6  34244  291.01 0854.29
2009/04/23 16:41:02.4     583    279     94    647    654  64.4   8.3  34156  289.50 0854.31
2009/04/23 16:41:02.5     513    257    108    574    585  63.4  10.7  34174  289.80 0854.31
2009/04/23 16:41:02.6     551    271    102    615    624  63.8   9.4  34204  290.33 0854.31
2009/04/23 16:41:02.7     449    247     81    513    520  61.1   9.0  34204  290.32 0854.31
2009/04/23 16:41:02.8     461    278     -5    539    540  58.9  -0.6  34204  290.31 0854.31
2009/04/23 16:41:02.9     421    229    125    480    497  61.5  14.6  34178  289.86 0854.31
2009/04/23 16:41:03.0     401    341     -2    527    528  49.6  -0.2  34214  290.50 0854.31
2009/04/23 16:41:03.1     403    433    -50    592    595  42.9  -4.9  34212  290.46 0854.31
2009/04/23 16:41:03.2     435    284     27    520    521  56.8   3.0  34192  290.13 0854.31
2009/04/23 16:41:03.3     302    301   -117    427    443  45.1 -15.4  34248  291.07 0854.31
2009/04/23 16:41:03.4     253    241    -57    350    355  46.4  -9.3  34222  290.64 0854.31
2009/04/23 16:41:03.5     227    242   -262    333    423  43.2 -46.7  34238  290.88 0854.31
2009/04/23 16:41:03.6      84    245   -181    260    316  18.9 -42.7  34250  291.09 0854.31
2009/04/23 16:41:03.7     183    185   -188    261    321  44.8 -43.6  34236  290.87 0854.31
2009/04/23 16:41:03.8     224    210   -130    308    334  46.8 -28.7  34240  290.92 0854.31
2009/04/23 16:41:03.9     122    258   -139    286    317  25.3 -32.3  34124  288.95 0854.31
2009/04/23 16:41:04.0      80    316    -99    327    341  14.3 -22.1  34166  289.69 0854.31
2009/04/23 16:41:04.1     173    230    -23    289    290  37.0  -4.6  34146  289.34 0854.31
2009/04/23 16:41:04.2     207    309     10    372    373  33.8   1.6  34210  290.43 0854.31
2009/04/23 16:41:04.3     282    353    114    453    468  38.6  14.2  34308  292.09 0854.31
2009/04/23 16:41:04.4      72    352     33    360    362  11.7   5.3  34246  291.03 0854.31
2009/04/23 16:41:04.5      69    372     77    379    388  10.5  11.6  34282  291.66 0854.31
2009/04/23 16:41:04.6     -32    318     25    320    322 354.2   4.5  34290  291.78 0854.31
2009/04/23 16:41:04.7       9    121    109    122    163   4.5  46.6  34294  291.84 0854.31
2009/04/23 16:41:04.8     101     84    114    132    174  50.0  45.4  34284  291.69 0854.31
2009/04/23 16:41:04.9     285    188    128    342    365  56.6  21.4  34230  290.76 0854.31
2009/04/23 16:41:05.0     384    269     79    469    476  55.0   9.6  34226  290.68 0854.31
2009/04/23 16:41:05.1     448    399    157    600    621  48.3  14.7  34208  290.40 0854.31
2009/04/23 16:41:05.2     310    340    271    461    534  42.4  33.3  34196  290.17 0854.31
2009/04/23 16:41:05.3     172    346    215    387    442  26.5  31.4  34214  290.50 0854.31
2009/04/23 16:41:05.4     -27    419     98    420    432 356.3  13.2  34226  290.70 0854.31
2009/04/23 16:41:05.5    -117    279    186    303    355 337.2  34.4  34202  290.30 0854.31
2009/04/23 16:41:05.6     -34    320    146    322    353 353.8  26.0  34230  290.76 0854.31
2009/04/23 16:41:05.7      72    250    112    261    284  16.0  25.1  34234  290.83 0854.31
2009/04/23 16:41:05.8     152    173    106    231    254  41.2  26.4  34210  290.42 0854.31
2009/04/23 16:41:05.9     121    100     93    158    183  50.4  33.5  34188  290.04 0854.31
2009/04/23 16:41:06.0     103    147     98    180    204  35.2  31.3  34200  290.26 0854.31
2009/04/23 16:41:06.1     181     96    123    206    239  62.0  33.5  34184  289.99 0854.31
2009/04/23 16:41:06.2     138    110     82    177    195  51.4  27.0  34178  289.89 0854.31
2009/04/23 16:41:06.3     107     63    122    125    174  59.3  49.8  34176  289.84 0854.31
2009/04/23 16:41:06.4     279    117    192    303    358  67.2  35.5  34130  289.06 0854.31
2009/04/23 16:41:06.5     438     64    300    443    535  81.7  37.4  34144  289.30 0854.31
2009/04/23 16:41:06.6     439     15    362    440    569  88.0  43.7  34166  289.68 0854.31
2009/04/23 16:41:06.7     321   -107    300    339    452 108.4  45.9  34156  289.49 0854.31
2009/04/23 16:41:06.8     255    -11    139    256    291  92.5  31.0  34150  289.39 0854.31
2009/04/23 16:41:06.9     316     78    113    326    346  76.1  19.2  34152  289.45 0854.31
2009/04/23 16:41:07.0     473     90    105    482    494  79.2  12.4  34128  289.03 0854.31
2009/04/23 16:41:07.1     507     52    226    510    557  84.1  25.6  34122  288.94 0854.31
2009/04/23 16:41:07.2     541     95    277    550    615  80.0  28.7  34118  288.86 0854.31
2009/04/23 16:41:07.3     343    129    102    367    382  69.3  15.6  34172  289.79 0854.31
2009/04/23 16:41:07.4     364     55    108    369    385  81.3  16.3  34182  289.94 0854.31
2009/04/23 16:41:07.5     371    130    141    394    418  70.7  20.4  34178  289.88 0854.31
2009/04/23 16:41:07.6     454     -4     38    455    457  90.6   4.9  34198  290.22 0854.31
2009/04/23 16:41:07.7     384      5     -7    385    386  89.2  -1.1  34190  290.08 0854.31
2009/04/23 16:41:07.8     348     77     -7    357    358  77.5  -1.2  34194  290.16 0854.31
2009/04/23 16:41:07.9     253   -178     65    310    317 125.1  12.0  34188  290.03 0854.31
2009/04/23 16:41:08.0     297    -12     83    298    310  92.5  15.6  34188  290.05 0854.31
2009/04/23 16:41:08.1     234   -138    -49    272    277 120.7 -10.4  34184  289.97 0854.31
2009/04/23 16:41:08.2     280     25    -73    282    292  84.8 -14.5  34188  290.03 0854.31
2009/04/23 16:41:08.3     183     83     89    201    219  65.6  25.3  34178  289.89 0854.31
2009/04/23 16:41:08.4     154     36     -1    159    160  76.7  -0.5  34194  290.16 0854.31
2009/04/23 16:41:08.5     152    144    168    210    268  46.7  43.0  34210  290.41 0854.31
2009/04/23 16:41:08.6      13      4    154     14    154  71.4  90.0  34236  290.87 0854.31
2009/04/23 16:41:08.7     112    -46     79    122    145 112.2  35.6  34234  290.82 0854.31
2009/04/23 16:41:08.8      72      4    173     73    187  86.5  76.1  34234  290.82 0854.31
2009/04/23 16:41:08.9     218    -20     75    220    233  95.5  18.9  34212  290.45 0854.31
2009/04/23 16:41:09.0     259    257    102    366    380  45.2  15.6  34224  290.67 0854.31
2009/04/23 16:41:09.1     284    165     81    329    339  59.7  13.9  34216  290.52 0854.31
2009/04/23 16:41:09.2     183    230     63    295    302  38.5  12.1  34226  290.68 0854.31
2009/04/23 16:41:09.3     135    126     19    185    187  46.9   6.1  34192  290.13 0854.31
2009/04/23 16:41:09.4     122    117    132    170    215  46.2  41.7  34224  290.67 0854.31
2009/04/23 16:41:09.5     237     78    135    250    284  71.6  30.6  34216  290.51 0854.31
2009/04/23 16:41:09.6     234     58    181    242    302  76.1  40.4  34232  290.78 0854.31
2009/04/23 16:41:09.7     171    -18    223    172    281  96.1  58.5  34262  291.29 0854.31
2009/04/23 16:41:09.8     190    -43    216    195    291 103.0  53.3  34244  291.00 0854.31
2009/04/23 16:41:09.9      90      5    200     91    219  86.5  74.0  34222  290.64 0854.31
2009/04/23 16:41:10.0     143     47    172    151    228  71.8  54.3  34210  290.43 0854.31
2009/04/23 16:41:10.1     169     85    161    190    249  63.1  44.5  34202  290.28 0854.31
2009/04/23 16:41:10.2     203     28    175    205    269  82.1  44.8  34200  290.24 0854.31
2009/04/23 16:41:10.3     139     48    176    148    229  70.9  56.1  34224  290.67 0854.31
2009/04/23 16:41:10.4     229    106    197    253    320  65.2  41.9  34198  290.22 0854.33
2009/04/23 16:41:10.5     265    110    213    288    358  67.4  40.1  34204  290.33 0854.33
2009/04/23 16:41:10.6     248    152    165    291    334  58.5  32.1  34198  290.22 0854.33
2009/04/23 16:41:10.7     268    129    123    298    322  64.2  23.6  34212  290.46 0854.33
2009/04/23 16:41:10.8     261    -31    143    263    299  97.0  31.3  34224  290.65 0854.33
2009/04/23 16:41:10.9     173    -30     78    176    192  99.9  25.7  34212  290.45 0854.33
2009/04/23 16:41:11.0     161    -27     94    164    189  99.5  32.4  34224  290.65 0854.33
2009/04/23 16:41:11.1     202     60    124    211    244  73.2  33.4  34244  290.99 0854.33
2009/04/23 16:41:11.2     314     80    103    325    342  75.7  17.7  34238  290.88 0854.33
2009/04/23 16:41:11.3     293     67    137    301    330  77.0  26.2  34252  291.12 0854.33
2009/04/23 16:41:11.4     348     81    113    358    376  76.8  17.5  34278  291.56 0854.33
2009/04/23 16:41:11.5     398    -59    163    403    434  98.5  23.2  34256  291.19 0854.33
2009/04/23 16:41:11.6     174   -166    137    241    277 133.6  32.3  34250  291.09 0854.33
2009/04/23 16:41:11.7     172   -118    190    209    282 124.4  47.0  34222  290.63 0854.33
2009/04/23 16:41:11.8     223   -150    182    269    324 124.0  37.3  34210  290.41 0854.33
2009/04/23 16:41:11.9     219   -134    184    257    316 121.5  39.1  34216  290.51 0854.33
2009/04/23 16:41:12.0     274     -4    258    275    377  91.0  48.0  34304  292.02 0854.33
2009/04/23 16:41:12.1     401    124    289    420    509  72.7  37.9  34296  291.88 0854.33
2009/04/23 16:41:12.2     287     92    239    302    385  72.1  42.4  34304  292.03 0854.33
2009/04/23 16:41:12.3      52     86    203    101    226  31.2  71.9  34348  292.78 0854.33
2009/04/23 16:41:12.4     -89    -86    214    125    247 226.0  67.0  34294  291.84 0854.34
2009/04/23 16:41:12.5      33   -161    158    165    228 168.4  48.7  34254  291.16 0854.34
2009/04/23 16:41:12.6     148    -88    182    173    251 120.6  51.4  34274  291.52 0854.34
2009/04/23 16:41:12.7     201   -109    236    229    328 118.6  50.9  34282  291.65 0854.34
2009/04/23 16:41:12.8     264    -70    197    274    337 105.0  39.3  34262  291.31 0854.34
2009/04/23 16:41:12.9     159   -119    191    199    275 126.9  49.0  34248  291.05 0854.34
2009/04/23 16:41:13.0     148   -101    191    180    262 124.2  52.1  34240  290.92 0854.34
2009/04/23 16:41:13.1      53      8    115     54    127  81.2  73.1  34258  291.25 0854.34
2009/04/23 16:41:13.2      10     31    119     33    123  18.7  84.4  34266  291.37 0854.34
2009/04/23 16:41:13.3      26     20    148     34    151  52.2  87.5  34268  291.42 0854.34
2009/04/23 16:41:13.4     -30     26    133     40    138 311.3  82.8  34298  291.93 0854.34
2009/04/23 16:41:13.5      96     50    172    109    203  62.5  64.7  34270  291.45 0854.34
2009/04/23 16:41:13.6     233    109    262    258    367  64.9  50.2  34332  292.48 0854.34
2009/04/23 16:41:13.7     242    106    311    265    408  66.4  55.4  34298  291.91 0854.34
2009/04/23 16:41:13.8     258    108    334    280    435  67.2  56.0  34312  292.17 0854.34
2009/04/23 16:41:13.9     292     62    294    299    419  77.8  49.8  34242  290.98 0854.34
2009/04/23 16:41:14.0     335     39    208    338    396  83.3  34.5  34224  290.67 0854.34
2009/04/23 16:41:14.1     308    -23    254    309    399  94.4  43.7  34214  290.49 0854.34
2009/04/23 16:41:14.2     187    -88    221    207    302 115.4  52.1  34208  290.39 0854.34
2009/04/23 16:41:14.3     167    -61    231    179    292 110.2  58.5  34216  290.51 0854.34
2009/04/23 16:41:14.4     225    -49    243    231    335 102.4  51.9  34206  290.36 0854.34
2009/04/23 16:41:14.5     116    -11    227    117    255  95.7  70.8  34224  290.65 0854.34
2009/04/23 16:41:14.6     218    -69    200    229    304 107.7  45.8  34202  290.27 0854.34
2009/04/23 16:41:14.7     139   -146    201    202    284 136.3  50.0  34200  290.26 0854.34
2009/04/23 16:41:14.8     192   -198    196    277    339 135.9  38.8  34200  290.26 0854.34
2009/04/23 16:41:14.9      73   -168    152    184    238 156.6  43.7  34208  290.38 0854.34
2009/04/23 16:41:15.0     107   -236    167    260    309 155.5  35.6  34194  290.14 0854.34
2009/04/23 16:41:15.1     189   -173    173    257    309 132.4  37.0  34204  290.32 0854.34
2009/04/23 16:41:15.2     113   -180    118    213    243 147.9  31.4  34212  290.44 0854.34
2009/04/23 16:41:15.3     137   -145    123    200    234 136.7  34.4  34212  290.47 0854.34
2009/04/23 16:41:15.4      50   -186     86    193    211 164.8  25.3  34212  290.47 0854.34
2009/04/23 16:41:15.5      48   -168     75    175    190 164.0  24.6  34212  290.45 0854.34
2009/04/23 16:41:15.6      51    -97     96    110    146 151.9  45.8  34220  290.60 0854.34
2009/04/23 16:41:15.7      56   -155     31    166    170 160.0  10.8  34214  290.50 0854.34
2009/04/23 16:41:15.8     -65   -116    -31    134    138 209.4 -13.3  34214  290.48 0854.34
2009/04/23 16:41:15.9     -15    -92    -20     94     97 189.8 -12.4  34214  290.50 0854.34
2009/04/23 16:41:16.0      16    -61     -1     64     65 164.9  -1.2  34212  290.45 0854.34
2009/04/23 16:41:16.1     -15    -45     57     48     74 199.2  56.3  34210  290.41 0854.34
2009/04/23 16:41:16.2     125     22     86    127    153  79.9  37.0  34212  290.45 0854.34
2009/04/23 16:41:16.3      82     75     32    112    117  47.8  16.3  34228  290.74 0854.34
2009/04/23 16:41:16.4       7     -6     22     10     24 133.1  75.0  34232  290.81 0854.35
2009/04/23 16:41:16.5      -5    -17     65     18     67 198.5  84.8  34226  290.69 0854.35
2009/04/23 16:41:16.6      28     -9     52     30     60 108.2  67.7  34212  290.45 0854.35
2009/04/23 16:41:16.7      31    -31     92     45    102 135.0  72.8  34208  290.40 0854.35
2009/04/23 16:41:16.8     111     15    104    113    153  82.0  47.9  34196  290.18 0854.35
2009/04/23 16:41:16.9     166    -27     71    169    183  99.2  23.8  34182  289.96 0854.35
2009/04/23 16:41:17.0     142    -22     57    144    154  98.8  22.5  34188  290.06 0854.35
2009/04/23 16:41:17.1     153    -52    104    162    192 109.1  35.6  34184  289.97 0854.35
2009/04/23 16:41:17.2     134    -62     83    148    169 114.8  31.9  34182  289.96 0854.35
2009/04/23 16:41:17.3     115    -42     96    123    156 110.4  41.7  34186  290.01 0854.35
2009/04/23 16:41:17.4     110    -36    120    116    166 108.2  50.9  34186  290.01 0854.35
2009/04/23 16:41:17.5     122      9    104    123    161  85.7  44.5  34210  290.41 0854.35
2009/04/23 16:41:17.6     124     -1     98    125    158  90.9  42.0  34200  290.26 0854.35
2009/04/23 16:41:17.7      82     14     80     84    116  79.9  49.0  34204  290.31 0854.35
2009/04/23 16:41:17.8     104      4     59    105    120  87.4  31.9  34188  290.06 0854.35
2009/04/23 16:41:17.9      87     23     51     91    104  74.9  31.9  34184  289.97 0854.35
2009/04/23 16:41:18.0      95     -1     73     96    120  90.8  41.2  34190  290.09 0854.35
2009/04/23 16:41:18.1      86    -30     79     92    121 109.1  45.4  34196  290.19 0854.35
2009/04/23 16:41:18.2      72    -34     67     80    104 115.2  43.8  34200  290.25 0854.35
2009/04/23 16:41:18.3      24    -37     64     45     78 147.5  61.5  34214  290.48 0854.35
2009/04/23 16:41:18.4      86    -42     61     96    113 116.2  35.5  34204  290.33 0854.36
2009/04/23 16:41:18.5      63    -67    114     93    147 136.8  56.4  34202  290.28 0854.36
2009/04/23 16:41:18.6       9    -68     70     69     98 172.0  50.1  34210  290.41 0854.36
2009/04/23 16:41:18.7      -1    -96     71     97    120 180.9  39.7  34202  290.30 0854.36
2009/04/23 16:41:18.8      15    -84     42     86     95 169.8  27.8  34182  289.96 0854.36
2009/04/23 16:41:18.9      53    -49     92     73    117 133.2  56.9  34202  290.28 0854.36
2009/04/23 16:41:19.0      40     -8     94     41    102 101.5  75.5  34220  290.58 0854.36
2009/04/23 16:41:19.1      22     13     64     26     69  59.3  77.1  34232  290.79 0854.36
2009/04/23 16:41:19.2     -14    -47     40     50     64 196.9  43.7  34224  290.67 0854.36
2009/04/23 16:41:19.3      52    -83     45     98    107 147.9  26.6  34170  289.74 0854.36
2009/04/23 16:41:19.4     111    -53    107    124    163 115.8  45.6  34184  289.99 0854.36
2009/04/23 16:41:19.5     120    -67    101    138    171 119.3  39.9  34182  289.96 0854.36
2009/04/23 16:41:19.6     102    -74    108    127    166 126.0  44.5  34188  290.04 0854.36
2009/04/23 16:41:19.7      92    -78    104    121    159 130.4  45.1  34184  289.97 0854.36
2009/04/23 16:41:19.8      80    -86     98    118    153 137.2  43.8  34172  289.79 0854.36
2009/04/23 16:41:19.9      63   -110     99    128    161 150.1  41.7  34154  289.46 0854.36
2009/04/23 16:41:20.0      68   -145     56    161    171 154.7  19.2  34136  289.16 0854.36
2009/04/23 16:41:20.1      80   -122     44    147    154 146.6  16.8  34134  289.14 0854.36
2009/04/23 16:41:20.2      90   -107     32    141    145 139.9  13.1  34126  288.99 0854.36
2009/04/23 16:41:20.3      77    -89     54    118    129 139.0  26.6  34132  289.09 0854.36
2009/04/23 16:41:20.4      91   -103     70    138    154 138.6  29.2  34148  289.36 0854.37
2009/04/23 16:41:20.5      89   -132     49    160    168 145.8  17.1  34146  289.33 0854.37
2009/04/23 16:41:20.6      44   -135     57    143    153 161.7  23.0  34192  290.13 0854.37
2009/04/23 16:41:20.7      77    -91     61    120    134 139.9  29.2  34184  289.99 0854.37
2009/04/23 16:41:20.8      88    -88     48    125    133 134.9  21.5  34200  290.25 0854.37
2009/04/23 16:41:20.9     120   -112    105    165    195 133.1  35.5  34202  290.28 0854.37
2009/04/23 16:41:21.0     154    -55    108    164    196 110.0  36.5  34206  290.36 0854.37
2009/04/23 16:41:21.1     139    -37     98    144    174 105.1  37.3  34212  290.47 0854.37
2009/04/23 16:41:21.2     118    -60     87    133    158 117.1  36.5  34206  290.35 0854.37
2009/04/23 16:41:21.3     152    -77     74    171    186 117.1  24.9  34186  290.01 0854.37
2009/04/23 16:41:21.4     125    -25     90    128    156 101.5  38.6  34292  291.83 0854.37
2009/04/23 16:41:21.5      74      5    108     75    131  85.7  62.1  34318  292.25 0854.37
2009/04/23 16:41:21.6      96      3    113     97    148  87.9  55.4  34328  292.44 0854.37
2009/04/23 16:41:21.7      33    -12     81     36     88 110.0  74.5  34312  292.17 0854.37
2009/04/23 16:41:21.8      44      2     77     45     89  86.5  66.8  34316  292.23 0854.37
2009/04/23 16:41:21.9      92    -39     72    101    124 113.1  39.1  34296  291.89 0854.37
2009/04/23 16:41:22.0      76    -24     83     80    115 108.2  50.7  34326  292.39 0854.37
2009/04/23 16:41:22.1      55    -40     73     69    100 126.0  52.1  34340  292.64 0854.37
2009/04/23 16:41:22.2       4    -59     61     60     85 175.6  49.7  34248  291.08 0854.37
2009/04/23 16:41:22.3      46    -75     65     89    110 148.4  39.7  34218  290.55 0854.37
2009/04/23 16:41:22.4      45    -25     57     52     77 118.9  52.2  34268  291.40 0854.37
2009/04/23 16:41:22.5      12    -37     51     39     64 161.7  59.4  34244  291.01 0854.37
2009/04/23 16:41:22.6       5    -17     25     18     30 161.5  60.5  34264  291.33 0854.37
2009/04/23 16:41:22.7      36    -37     39     52     65 135.8  39.7  34236  290.87 0854.37
2009/04/23 16:41:22.8      56    -64     58     86    103 139.0  37.0  34220  290.58 0854.37
2009/04/23 16:41:22.9      48   -105     22    116    119 155.5  11.1  34216  290.52 0854.37
2009/04/23 16:41:23.0      56    -91     27    108    112 148.4  14.3  34238  290.91 0854.37
2009/04/23 16:41:23.1      23    -35     36     42     55 146.6  44.8  34284  291.69 0854.37
2009/04/23 16:41:23.2      19    -23     62     30     68 140.4  72.9  34316  292.22 0854.37
2009/04/23 16:41:23.3      -1    -12     75     13     76 186.2  90.0  34340  292.63 0854.37
2009/04/23 16:41:23.4      10      0     63     11     63  94.4  90.0  34348  292.78 0854.37
2009/04/23 16:41:23.5       2     23     65     24     69   6.2  80.2  34344  292.69 0854.37
2009/04/23 16:41:23.6      85    -19     90     88    125 102.8  50.1  34370  293.14 0854.37
2009/04/23 16:41:23.7     145     22     82    147    168  81.2  31.6  34412  293.85 0854.37
2009/04/23 16:41:23.8     107      3    117    108    159  88.3  52.5  34398  293.62 0854.37
2009/04/23 16:41:23.9     107    -14    135    109    173  97.9  56.9  34386  293.43 0854.37
2009/04/23 16:41:24.0     144    -85    123    168    208 120.7  39.7  34254  291.16 0854.37
2009/04/23 16:41:24.2     142    -61    114    155    192 113.5  39.7  34320  292.30 0854.37
2009/04/23 16:41:24.3     103     14     79    105    131  82.0  41.2  34338  292.61 0854.37
2009/04/23 16:41:24.4      78     15    123     80    146  78.5  64.6  34366  293.09 0854.37
2009/04/23 16:41:24.5     124      3     79    125    147  88.3  35.5  34368  293.12 0854.37
2009/04/23 16:41:24.6     105     41     91    113    145  68.7  43.7  34372  293.19 0854.37
2009/04/23 16:41:24.7      53     31    115     62    130  59.3  69.3  34394  293.55 0854.37
2009/04/23 16:41:24.8      99     59    118    116    165  58.9  49.9  34366  293.07 0854.37
2009/04/23 16:41:24.9     124     68    114    142    182  61.1  43.3  34360  292.97 0854.37
2009/04/23 16:41:25.0     128     76    133    150    200  59.3  46.2  34368  293.12 0854.37
2009/04/23 16:41:25.1     135     62    146    149    208  65.2  49.8  34356  292.90 0854.37
2009/04/23 16:41:25.2     125     36    117    131    175  73.6  46.6  34354  292.86 0854.37
2009/04/23 16:41:25.3     118     23     85    121    147  78.6  38.6  34344  292.69 0854.37
2009/04/23 16:41:25.4     124     36     51    130    139  73.6  22.5  34330  292.47 0854.37
2009/04/23 16:41:25.5      66     48     42     82     92  53.6  28.7  34290  291.79 0854.33
2009/04/23 16:41:25.6      13    -17    -22     22     31 142.2 -54.5  34270  291.43 0854.33
2009/04/23 16:41:25.7      27      2    -16     28     32  85.7 -37.9  34232  290.81 0854.33
2009/04/23 16:41:25.8      31     21     -2     38     39  55.8  -3.1  34218  290.55 0854.33
2009/04/23 16:41:25.9       9     39      5     41     42  13.4   8.0  34216  290.53 0854.33
2009/04/23 16:41:26.0     -22     65     13     69     71 340.8  11.1  34284  291.69 0854.33
2009/04/23 16:41:26.1     -64     40    -22     76     80 302.5 -16.0  34290  291.77 0854.33
2009/04/23 16:41:26.2     -52      5    -16     53     56 276.1 -16.6  34276  291.55 0854.33
2009/04/23 16:41:26.3     -27      0     -2     28     29 270.0  -5.2  34272  291.49 0854.33
2009/04/23 16:41:26.4     -13    -16     -5     21     22 219.6 -13.4  34274  291.52 0854.33
2009/04/23 16:41:26.5       2    -31     17     32     36 175.5  29.3  34268  291.42 0854.33
2009/04/23 16:41:26.6      84    -48     48     97    108 119.8  27.3  34218  290.57 0854.33
2009/04/23 16:41:26.7      39   -108    -70    115    134 160.0 -39.4  34208  290.40 0854.33
2009/04/23 16:41:26.8      41    -97    -71    106    127 156.8 -41.4  34222  290.64 0854.33
2009/04/23 16:41:26.9       6      0    -95      7     95  85.6 -90.0  34220  290.58 0854.33
2009/04/23 16:41:27.0     -47    119    -51    129    138 338.2 -27.4  34240  290.92 0854.33
2009/04/23 16:41:27.1     -86    148      9    172    173 329.7   3.3  34238  290.91 0854.33
2009/04/23 16:41:27.2     -70     52    104     88    136 306.9  55.8  34282  291.66 0854.33
2009/04/23 16:41:27.3     -33     40    108     53    120 320.4  72.4  34300  291.95 0854.33
2009/04/23 16:41:27.4      -4     59     96     60    113 355.5  64.7  34294  291.86 0854.33
2009/04/23 16:41:27.5     -51     45     54     69     87 311.3  42.2  34264  291.33 0854.29
2009/04/23 16:41:27.6     -60     62      5     87     88 315.9   3.8  34250  291.11 0854.29
2009/04/23 16:41:27.7     188      5    -35     60     69 360.0 -37.9  34254  291.18 0854.29
2009/04/23 16:41:27.8     -12      4    -80     13     81 288.6 -90.0  34244  291.01 0854.29
2009/04/23 16:41:27.9      31     92    -93     98    135  18.7 -53.4  34204  290.33 0854.29
2009/04/23 16:41:28.0      42     73    -74     85    112  30.3 -49.8  34180  289.91 0854.29
2009/04/23 16:41:28.1      -1     40    -44     41     60 357.4 -56.5  34192  290.13 0854.29
2009/04/23 16:41:28.2      11      8    -25     14     28  54.0 -73.2  34190  290.09 0854.29
2009/04/23 16:41:28.3       3      0     -2      4      4  90.0 -39.9  34206  290.35 0854.29
2009/04/23 16:41:28.4      20    -66    -11     70     71 163.1  -9.3  34220  290.58 0854.29
2009/04/23 16:41:28.5       8   -111     36    112    118 175.6  17.9  34252  291.13 0854.29
2009/04/23 16:41:28.6      70   -109     67    130    146 147.4  29.3  34254  291.16 0854.29
2009/04/23 16:41:28.7      31   -153     38    157    162 168.5  13.9  34248  291.08 0854.29
2009/04/23 16:41:28.8     -45   -148     48    155    163 196.9  17.3  34240  290.94 0854.29
2009/04/23 16:41:28.9     -40   -140     70    146    161 196.0  27.4  34244  291.01 0854.29
2009/04/23 16:41:29.0     -37   -109     68    116    134 198.7  33.5  34240  290.92 0854.29
2009/04/23 16:41:29.1     -49   -128     92    138    165 200.9  36.7  34242  290.98 0854.29
2009/04/23 16:41:29.2     -50   -160     73    168    183 197.6  24.6  34238  290.91 0854.29
2009/04/23 16:41:29.3     -44   -134     41    142    148 198.3  16.3  34242  290.98 0854.29
2009/04/23 16:41:29.4     -93   -113      7    147    148 219.6   2.9  34238  290.89 0854.29
2009/04/23 16:41:29.5     -47   -104     -3    115    116 204.5  -1.8  34234  290.82 0854.26
2009/04/23 16:41:29.6     -25   -123     -2    126    127 191.6  -1.3  34232  290.79 0854.26
2009/04/23 16:41:29.7       5   -123    -47    124    132 177.3 -25.4  34224  290.67 0854.26
2009/04/23 16:41:29.8      54   -148    -37    158    163 160.0 -13.2  34198  290.21 0854.26
2009/04/23 16:41:29.9     100   -176     -7    203    204 150.4  -2.2  34184  289.99 0854.26
2009/04/23 16:41:30.0      54   -200    -25    208    210 164.9  -6.9  34192  290.11 0854.26
2009/04/23 16:41:30.1      50   -181     -1    188    189 164.4  -0.5  34208  290.38 0854.26
2009/04/23 16:41:30.2      19   -148     -3    150    151 172.4  -1.3  34214  290.48 0854.26
2009/04/23 16:41:30.3     -36   -137      7    142    143 195.1   2.9  34210  290.43 0854.26
2009/04/23 16:41:30.4       3   -133      8    134    135 178.6   3.8  34214  290.50 0854.26
2009/04/23 16:41:30.5      72    -87     54    113    125 140.4  27.2  34220  290.58 0854.26
2009/04/23 16:41:30.6      28   -104     17    108    110 164.9   9.0  34214  290.48 0854.26
2009/04/23 16:41:30.7      14   -159    -14    160    161 174.7  -5.2  34214  290.48 0854.26
2009/04/23 16:41:30.8     143   -188      7    237    238 142.8   1.7  34254  291.17 0854.26
2009/04/23 16:41:30.9     209   -197     -1    288    289 133.2  -0.3  34238  290.88 0854.26
2009/04/23 16:41:31.0     246   -250    -37    351    354 135.5  -6.1  34214  290.50 0854.26
2009/04/23 16:41:31.1     172   -271     20    322    323 147.5   3.7  34204  290.31 0854.26
2009/04/23 16:41:31.2      62   -283     63    290    297 167.5  12.4  34194  290.15 0854.26
2009/04/23 16:41:31.3      59   -214    113    223    249 164.4  29.1  34192  290.12 0854.26
2009/04/23 16:41:31.4      22   -218    179    220    283 174.2  43.7  34204  290.32 0854.26
2009/04/23 16:41:31.5      13   -191    164    192    252 176.0  44.9  34208  290.37 0854.25
2009/04/23 16:41:31.6      83   -204    169    221    278 157.9  41.4  34194  290.14 0854.25
2009/04/23 16:41:31.7      92   -203    157    224    273 155.5  38.5  34192  290.12 0854.25
2009/04/23 16:41:31.8      65   -219    154    229    275 163.3  37.3  34190  290.09 0854.25
2009/04/23 16:41:31.9      77   -228    130    241    273 161.3  30.6  34190  290.09 0854.25
2009/04/23 16:41:32.0      20   -219    140    221    261 174.7  35.5  34196  290.17 0854.25
2009/04/23 16:41:32.1     -61   -187    124    197    232 198.3  35.5  34200  290.25 0854.25
2009/04/23 16:41:32.2     -51   -179    123    187    223 196.0  36.3  34196  290.18 0854.25
2009/04/23 16:41:32.3     -75   -239     99    251    269 197.4  22.8  34184  289.98 0854.25
2009/04/23 16:41:32.4     -39   -225    151    229    274 190.0  36.7  34194  290.15 0854.25
2009/04/23 16:41:32.5     -47   -244    103    249    269 191.1  23.8  34194  290.15 0854.25
2009/04/23 16:41:32.6      -9   -117    173    118    209 184.5  62.6  34218  290.55 0854.25
2009/04/23 16:41:32.7    -106   -106    163    150    221 225.0  52.2  34216  290.52 0854.25
2009/04/23 16:41:32.8    -175    -46    150    181    235 255.2  43.8  34226  290.69 0854.25
2009/04/23 16:41:32.9    -190    -31    132    193    233 260.5  37.6  34226  290.70 0854.25
2009/04/23 16:41:33.0    -279   -137     48    312    316 243.8   8.8  34188  290.03 0854.25
2009/04/23 16:41:33.1    -242   -138     26    279    281 240.2   5.4  34182  289.93 0854.25
2009/04/23 16:41:33.2    -270   -111     19    293    294 247.6   3.9  34192  290.10 0854.25
2009/04/23 16:41:33.3    -260    -78      3    272    273 253.2   0.8  34208  290.37 0854.25
2009/04/23 16:41:33.4    -206    -37     25    210    212 259.6   6.9  34226  290.69 0854.25
2009/04/23 16:41:33.5    -248     -7     15    249    250 268.3   3.6  34224  290.65 0854.23
2009/04/23 16:41:33.6    -235    -47     56    240    247 258.5  13.2  34238  290.88 0854.23
2009/04/23 16:41:33.7    -217    -61     67    226    236 254.3  16.6  34238  290.90 0854.23
2009/04/23 16:41:33.8    -220     -8     12    221    222 267.9   3.1  34234  290.82 0854.23
2009/04/23 16:41:33.9    -188     26     86    190    208 278.0  26.2  34260  291.28 0854.23
2009/04/23 16:41:34.0    -163    -81    107    183    211 243.6  33.4  34268  291.42 0854.23
2009/04/23 16:41:34.1     -69   -156     82    171    189 204.1  27.3  34232  290.79 0854.23
2009/04/23 16:41:34.2      12   -216     77    217    230 176.6  20.0  34198  290.21 0854.23
2009/04/23 16:41:34.3      10   -273     91    274    289 177.8  18.5  34206  290.34 0854.23
2009/04/23 16:41:34.4      45   -351    136    354    379 172.6  22.2  34212  290.47 0854.23
2009/04/23 16:41:34.5     150   -376    102    406    419 158.2  14.2  34202  290.28 0854.23
2009/04/23 16:41:34.6     168   -383    124    419    438 156.3  16.5  34166  289.66 0854.23
2009/04/23 16:41:34.7     196   -476    247    515    571 157.6  27.3  34182  289.94 0854.23
2009/04/23 16:41:34.8     266   -500    383    567    684 152.0  37.3  34188  290.03 0854.23
2009/04/23 16:41:34.9     169   -606    380    630    735 164.4  34.0  34178  289.89 0854.23
2009/04/23 16:41:35.0     141   -462    356    484    600 163.0  39.9  34178  289.89 0854.23
2009/04/23 16:41:35.1     274   -273    244    387    457 134.9  35.5  34182  289.94 0854.23
2009/04/23 16:41:35.2     226   -322    140    394    419 144.9  19.6  34178  289.88 0854.23
2009/04/23 16:41:35.3     193   -438     10    479    480 156.2   1.2  34178  289.88 0854.23
2009/04/23 16:41:35.4      60   -455    122    459    475 172.4  14.9  34160  289.57 0854.23
2009/04/23 16:41:35.5      10   -388    313    389    499 178.4  43.0  34172  289.79 0854.25
2009/04/23 16:41:35.6    -232   -479     64    533    537 205.9   6.9  34176  289.84 0854.25
2009/04/23 16:41:35.7     -36   -483     69    485    490 184.3   8.1  34172  289.79 0854.25
2009/04/23 16:41:35.8     -76   -484    133    491    509 189.0  15.2  34172  289.76 0854.25
2009/04/23 16:41:35.9    -117   -568     44    581    583 191.7   4.3  34170  289.75 0854.25
2009/04/23 16:41:36.0    -119   -545    288    559    628 192.4  29.4  34170  289.75 0854.25
2009/04/23 16:41:36.1     166   -643     63    665    669 165.5   5.4  34162  289.60 0854.25
2009/04/23 16:41:36.2     -64   -594     72    598    603 186.2   6.9  34166  289.69 0854.25
2009/04/23 16:41:36.3     -76   -358   -131    367    390 192.0 -19.7  34176  289.84 0854.25
2009/04/23 16:41:36.4    -147   -266   -154    305    341 209.0 -33.3  34146  289.33 0854.25
2009/04/23 16:41:36.5    -336   -235   -185    411    450 235.0 -30.3  34138  289.21 0854.25
2009/04/23 16:41:36.6     -24   -220   -214    222    308 186.2 -53.4  34152  289.42 0854.25
2009/04/23 16:41:36.7     256   -317   -129    408    428 141.0 -17.6  34142  289.26 0854.25
2009/04/23 16:41:36.8     233   -365     16    434    435 147.4   2.2  34114  288.80 0854.25
2009/04/23 16:41:36.9     206   -517    348    557    656 158.2  35.0  34102  288.60 0854.25
2009/04/23 16:41:37.0      86   -662    230    668    707 172.6  19.1  34096  288.48 0854.25
2009/04/23 16:41:37.1    -134   -597     73    612    617 192.7   6.8  34104  288.62 0854.25
2009/04/23 16:41:37.2     -41   -201   -220    206    301 191.5 -56.5  34110  288.73 0854.25
2009/04/23 16:41:37.3      97   -211   -110    233    257 155.3 -31.5  34116  288.81 0854.25
2009/04/23 16:41:37.4      74   -181    -85    196    213 157.7 -29.3  34126  288.99 0854.25
2009/04/23 16:41:37.5    -174   -108    -21    205    207 238.2  -6.0  34128  289.04 0854.26
2009/04/23 16:41:37.6    -166   -106   -123    198    233 237.4 -39.9  34122  288.94 0854.26
2009/04/23 16:41:37.7     -39   -176    -94    181    203 192.7 -33.9  34128  289.04 0854.26
2009/04/23 16:41:37.8      16   -262     11    263    264 176.4   2.5  34138  289.19 0854.26
2009/04/23 16:41:37.9      62   -193      9    203    204 162.0   2.8  34142  289.26 0854.26
2009/04/23 16:41:38.0     125   -196     -5    233    234 147.3  -1.3  34140  289.24 0854.26
2009/04/23 16:41:38.1     183   -167    134    249    282 132.4  30.6  34144  289.29 0854.26
2009/04/23 16:41:38.2     142   -268    204    304    366 152.0  37.2  34134  289.13 0854.26
2009/04/23 16:41:38.3     205   -204    266    290    393 134.8  47.3  34112  288.76 0854.26
2009/04/23 16:41:38.4     281   -227    209    362    418 128.9  32.7  34128  289.03 0854.26
2009/04/23 16:41:38.5     380   -180    114    421    437 115.4  15.2  34126  288.99 0854.26
2009/04/23 16:41:38.6     443   -185    166    481    509 112.7  19.1  34118  288.86 0854.26
2009/04/23 16:41:38.7     482   -412    211    635    670 130.5  18.4  34116  288.83 0854.26
2009/04/23 16:41:38.8     497   -290      1    576    577 120.2   0.1  34136  289.15 0854.26
2009/04/23 16:41:38.9     468   -346     39    583    585 126.5   3.9  34116  288.83 0854.26
2009/04/23 16:41:39.0     346   -432    206    554    591 141.3  21.4  34092  288.42 0854.26
2009/04/23 16:41:39.1     256   -204    105    328    345 128.6  17.8  34082  288.25 0854.26
2009/04/23 16:41:39.2     318   -533    353    621    714 149.2  32.2  34086  288.33 0854.26
2009/04/23 16:41:39.3     336   -395    421    519    668 139.6  43.1  34086  288.32 0854.26
2009/04/23 16:41:39.4     235   -165     50    288    293 125.1   9.9  34092  288.43 0854.26
2009/04/23 16:41:39.5     371    -76    -88    379    390 101.7 -13.1  34114  288.79 0854.27
2009/04/23 16:41:39.6     377   -164    -52    412    416 113.5  -7.3  34132  289.09 0854.27
2009/04/23 16:41:39.7     255    -45    -40    260    264 100.1  -8.8  34122  288.93 0854.27
2009/04/23 16:41:39.8     122   -110    -89    165    187 132.0 -35.2  34112  288.77 0854.27
2009/04/23 16:41:39.9      74    -35     55     83     99 115.4  36.5  34112  288.77 0854.27
2009/04/23 16:41:40.0     148   -148   -112    210    238 134.9 -34.7  34110  288.74 0854.27
2009/04/23 16:41:40.1     206   -128    -86    243    257 121.8 -24.6  34120  288.88 0854.27
2009/04/23 16:41:40.2     219   -198   -117    296    318 132.2 -27.1  34100  288.54 0854.27
2009/04/23 16:41:40.3     140   -182    140    230    269 142.4  34.4  34096  288.49 0854.27
2009/04/23 16:41:40.4     191   -203    288    279    400 136.7  50.9  34112  288.77 0854.27
2009/04/23 16:41:40.5      78    -72    297    107    315 132.7  79.5  34130  289.05 0854.27
2009/04/23 16:41:40.6     307   -245    313    393    502 128.6  42.7  34126  288.98 0854.27
2009/04/23 16:41:40.7     147   -788    125    802    812 169.4   8.9  34112  288.77 0854.27
2009/04/23 16:41:40.8     116   -575     18    587    588 168.5   1.8  34114  288.78 0854.27
2009/04/23 16:41:40.9      93   -361      4    373    374 165.5   0.7  34116  288.82 0854.27
2009/04/23 16:41:41.0      40   -253    -49    257    262 170.9 -10.9  34118  288.87 0854.27
2009/04/23 16:41:41.1     -35   -288    -11    291    292 187.1  -2.2  34114  288.80 0854.27
2009/04/23 16:41:41.2      -8   -412    -39    413    415 181.1  -5.5  34116  288.82 0854.27
2009/04/23 16:41:41.3      34   -254    -99    257    275 172.2 -26.7  34124  288.95 0854.27
2009/04/23 16:41:41.4    -244   -410   -141    478    499 210.8 -16.5  34120  288.91 0854.27
2009/04/23 16:41:41.5     -67   -392     85    398    408 189.7  12.1  34114  288.78 0854.28
2009/04/23 16:41:41.6     233   -398     76    462    469 149.7   9.3  34120  288.88 0854.28
2009/04/23 16:41:41.7      50   -131   -167    141    218 159.1 -60.2  34126  289.01 0854.28
2009/04/23 16:41:41.8      29      0    125     30    128  90.0  86.9  34118  288.86 0854.28
2009/04/23 16:41:41.9      43   -134    122    141    186 162.2  45.1  34120  288.91 0854.28
2009/04/23 16:41:42.0       1   -221     -8    222    223 179.5  -2.2  34120  288.89 0854.28
2009/04/23 16:41:42.1      97   -206   -136    228    265 154.8 -38.1  34128  289.03 0854.28
2009/04/23 16:41:42.2     127   -156   -120    202    234 140.8 -37.9  34124  288.97 0854.28
2009/04/23 16:41:42.3      33    -33    146     47    153 135.0  80.7  34126  288.99 0854.28
2009/04/23 16:41:42.4     272   -177    140    325    353 123.1  24.9  34106  288.67 0854.28
2009/04/23 16:41:42.5     357   -210    174    415    450 120.4  24.1  34108  288.70 0854.29
2009/04/23 16:41:42.6     296     85   -107    309    327  74.0 -24.0  34106  288.66 0854.29
2009/04/23 16:41:42.7     417   -277    -21    501    502 123.6  -2.5  34114  288.78 0854.29
2009/04/23 16:41:42.8     513   -356     35    625    627 124.8   3.2  34092  288.42 0854.29
2009/04/23 16:41:42.9     452   -333     67    562    567 126.4   6.9  34080  288.23 0854.29
2009/04/23 16:41:43.0     443   -365    206    575    610 129.5  20.6  34078  288.17 0854.29
2009/04/23 16:41:43.1     392   -281    197    483    521 125.6  23.5  34096  288.49 0854.29
2009/04/23 16:41:43.2     318   -397    247    509    565 141.3  27.8  34082  288.25 0854.29
2009/04/23 16:41:43.3     367   -472    251    599    649 142.1  24.1  34082  288.25 0854.29
2009/04/23 16:41:43.4     427   -473    225    638    676 137.9  20.2  34084  288.28 0854.29
2009/04/23 16:41:43.5     256   -490    219    554    595 152.4  22.8  34088  288.34 0854.29
2009/04/23 16:41:43.6     284   -417    251    505    563 145.7  28.4  34082  288.26 0854.29
2009/04/23 16:41:43.7     245   -459    328    521    615 151.9  35.5  34086  288.32 0854.29
2009/04/23 16:41:43.8     193   -598    248    629    676 162.1  22.8  34088  288.36 0854.29
2009/04/23 16:41:43.9     257   -585    282    639    698 156.3  25.3  34084  288.28 0854.29
2009/04/23 16:41:44.0     223   -601    176    642    666 159.6  15.4  34086  288.33 0854.29
2009/04/23 16:41:44.1     141   -574    288    592    658 166.2  27.8  34090  288.38 0854.29
2009/04/23 16:41:44.2     176   -568    229    595    637 162.7  22.2  34090  288.38 0854.29
2009/04/23 16:41:44.3     263   -648    107    700    709 157.9   8.7  34094  288.44 0854.29
2009/04/23 16:41:44.4     284   -576    112    643    653 153.7   9.9  34090  288.37 0854.29
2009/04/23 16:41:44.5     432   -284    -20    518    519 123.3  -2.2  34072  288.07 0854.29
2009/04/23 16:41:44.6     262   -462    211    532    572 150.5  23.0  34090  288.38 0854.29
2009/04/23 16:41:44.7     251   -418    235    488    541 149.0  27.3  34090  288.40 0854.29
2009/04/23 16:41:44.8     193   -443    211    484    527 156.4  25.1  34088  288.34 0854.29
2009/04/23 16:41:44.9     174   -316    202    361    413 151.2  31.6  34092  288.42 0854.29
2009/04/23 16:41:45.0     281   -371     66    466    471 142.9   8.1  34090  288.37 0854.29
2009/04/23 16:41:45.1      -3   -415    181    416    453 180.5  25.1  34094  288.46 0854.29
2009/04/23 16:41:45.2    -114   -447     67    462    467 194.4   8.3  34100  288.54 0854.29
2009/04/23 16:41:45.3     142   -476     70    497    503 163.4   8.0  34088  288.34 0854.29
2009/04/23 16:41:45.4     168   -525    104    552    562 162.2  10.7  34090  288.38 0854.29
2009/04/23 16:41:45.5     123   -454     97    471    482 164.8  11.7  34094  288.47 0854.29
2009/04/23 16:41:45.6      29   -466    100    467    478 176.4  12.2  34090  288.39 0854.29
2009/04/23 16:41:45.7     115   -364     74    382    390 162.4  11.0  34098  288.52 0854.29
2009/04/23 16:41:45.8     -25   -413    189    414    455 183.5  26.2  34100  288.55 0854.29
2009/04/23 16:41:45.9     155   -487     71    512    517 162.3   7.9  34098  288.52 0854.29
2009/04/23 16:41:46.0     163   -381      1    415    416 156.8   0.2  34094  288.46 0854.29
2009/04/23 16:41:46.1     220   -659    100    695    703 161.5   8.2  34100  288.54 0854.29
2009/04/23 16:41:46.2     287   -834     66    883    886 161.0   4.3  34096  288.49 0854.29
2009/04/23 16:41:46.3     192   -729     43    754    756 165.2   3.3  34088  288.36 0854.29
2009/04/23 16:41:46.4     181   -615     85    642    648 163.6   7.6  34090  288.40 0854.29
2009/04/23 16:41:46.5     268   -580     58    640    643 155.2   5.2  34092  288.42 0854.28
2009/04/23 16:41:46.6     451   -580     14    735    736 142.2   1.1  34096  288.48 0854.28
2009/04/23 16:41:46.7     415   -573     13    708    709 144.0   1.1  34090  288.40 0854.28
2009/04/23 16:41:46.8     285   -561    277    630    688 153.0  25.2  34096  288.48 0854.28
2009/04/23 16:41:46.9     342   -589    238    682    723 149.9  19.3  34092  288.42 0854.28
2009/04/23 16:41:47.0     180   -721    136    744    757 166.0  10.4  34100  288.55 0854.28
2009/04/23 16:41:47.1     114   -904     77    912    916 172.8   4.9  34106  288.67 0854.28
2009/04/23 16:41:47.2      43   -795    -76    797    801 176.9  -5.5  34108  288.68 0854.28
2009/04/23 16:41:47.3      58   -759   -154    761    777 175.6 -11.5  34118  288.85 0854.28
2009/04/23 16:41:47.4     143   -830   -140    843    855 170.2  -9.5  34112  288.75 0854.28
2009/04/23 16:41:47.5      92   -832    -39    838    840 173.7  -2.7  34120  288.88 0854.28
2009/04/23 16:41:47.6      81   -818     -3    823    824 174.3  -0.3  34110  288.72 0854.28
2009/04/23 16:41:47.7      58   -833    -98    836    842 176.0  -6.7  34106  288.66 0854.28
2009/04/23 16:41:47.8      44   -770   -139    772    785 176.7 -10.2  34104  288.64 0854.28
2009/04/23 16:41:47.9     101   -496   -157    507    531 168.4 -17.3  34106  288.67 0854.28
2009/04/23 16:41:48.0     179   -344   -160    388    419 152.5 -28.1  34110  288.73 0854.28
2009/04/23 16:41:48.1     296   -181   -246    348    426 121.5 -43.1  34100  288.55 0854.28
2009/04/23 16:41:48.2     237   -102   -225    259    343 113.3 -49.8  34112  288.76 0854.28
2009/04/23 16:41:48.3      64   -157   -172    170    241 157.7 -54.5  34114  288.80 0854.28
2009/04/23 16:41:48.4     176   -165   -197    242    312 133.1 -48.1  34114  288.78 0854.28
2009/04/23 16:41:48.5     212   -155   -217    263    340 126.2 -48.2  34106  288.66 0854.24
2009/04/23 16:41:48.6     121   -238   -215    268    343 153.0 -47.4  34104  288.63 0854.24
2009/04/23 16:41:48.7     108     73   -193    131    233  55.8 -67.1  34120  288.91 0854.24
2009/04/23 16:41:48.8     108    213   -340    239    415  27.0 -65.9  34120  288.88 0854.24
2009/04/23 16:41:48.9      31    119   -286    124    311  14.7 -79.4  34112  288.75 0854.24
2009/04/23 16:41:49.0    -208    102    -79    232    245 296.2 -23.6  34106  288.65 0854.24
2009/04/23 16:41:49.1    -116     18   -158    118    197 279.2 -64.2  34112  288.75 0854.24
2009/04/23 16:41:49.2       6    128    -55    129    140   2.7 -29.0  34114  288.79 0854.24
2009/04/23 16:41:49.3      95    204   -103    226    248  24.9 -30.6  34118  288.87 0854.24
2009/04/23 16:41:49.4     183    226    -58    291    297  39.0 -11.3  34114  288.80 0854.24
2009/04/23 16:41:49.5     193    138    133    238    272  54.3  31.6  34118  288.85 0854.24
2009/04/23 16:41:49.6     108      4    155    109    189  87.9  61.3  34124  288.97 0854.24
2009/04/23 16:41:49.7      60   -117    255    132    287 152.8  70.8  34102  288.59 0854.24
2009/04/23 16:41:49.8     130    -35    188    135    231 105.1  60.8  34124  288.97 0854.24
2009/04/23 16:41:49.9      87    -62    151    108    185 125.5  61.1  34118  288.86 0854.24
2009/04/23 16:41:50.0     -58     48    157     76    174 309.6  72.7  34134  289.13 0854.24
2009/04/23 16:41:50.1    -109      8    136    110    174 274.3  56.6  34122  288.94 0854.24
2009/04/23 16:41:50.2    -111    -10    141    112    180 264.8  57.5  34110  288.72 0854.24
2009/04/23 16:41:50.3     -62     12    139     64    153 281.5  73.5  34128  289.02 0854.24
2009/04/23 16:41:50.5    -363   -158    138    396    419 246.5  20.0  34108  288.68 0854.24
2009/04/23 16:41:50.5    -168   -322    118    364    383 207.6  18.0  34118  288.86 0854.24
2009/04/23 16:41:50.7       7   -328    245    329    410 178.6  40.4  34122  288.93 0854.24
2009/04/23 16:41:50.8    -243   -476    262    535    595 207.1  28.0  34102  288.59 0854.24
2009/04/23 16:41:50.9    -268   -422    179    500    531 212.4  20.6  34106  288.67 0854.24
2009/04/23 16:41:51.0    -284   -505    203    580    615 209.4  19.3  34098  288.51 0854.24
2009/04/23 16:41:51.1    -129   -353    238    376    444 200.1  35.5  34084  288.28 0854.24
2009/04/23 16:41:51.2    -171   -373    170    411    444 204.7  23.8  34102  288.60 0854.24
2009/04/23 16:41:51.3     -85   -372    236    382    449 193.0  34.8  34110  288.73 0854.24
2009/04/23 16:41:51.4     -57   -231    185    239    302 194.0  41.7  34104  288.63 0854.24
2009/04/23 16:41:51.5    -200    -87    228    219    316 246.5  51.3  34112  288.76 0854.24
2009/04/23 16:41:51.6      45    -35    261     58    267 127.8  88.0  34124  288.96 0854.24
2009/04/23 16:41:51.7     -57   -309    266    315    412 190.6  44.4  34108  288.69 0854.24
2009/04/23 16:41:51.8     -39   -276    321    279    425 188.2  54.7  34110  288.74 0854.24
2009/04/23 16:41:51.9      19   -131    264    133    295 171.5  71.4  34124  288.95 0854.24
2009/04/23 16:41:52.0      37   -109    221    116    249 161.3  70.4  34118  288.86 0854.24
2009/04/23 16:41:52.1     -10   -246    247    247    349 182.5  50.1  34110  288.73 0854.24
2009/04/23 16:41:52.2      39   -222    233    226    324 170.0  50.9  34112  288.76 0854.24
2009/04/23 16:41:52.3     200   -128    212    238    318 122.6  46.4  34114  288.78 0854.24
2009/04/23 16:41:52.4      86   -148    166    172    239 149.9  49.0  34120  288.89 0854.24
2009/04/23 16:41:52.5      49    -90    101    103    144 151.1  50.0  34120  288.91 0854.24
2009/04/23 16:41:52.6     -24      1    128     25    130 274.4  89.1  34146  289.33 0854.24
2009/04/23 16:41:52.7     -88    -49    140    101    172 240.7  61.1  34130  289.08 0854.24
2009/04/23 16:41:52.8     -26    -36    123     45    130 216.1  79.2  34136  289.16 0854.24
2009/04/23 16:41:52.9    -112    -45    164    121    203 247.8  60.3  34150  289.40 0854.24
2009/04/23 16:41:53.0    -155   -102    131    186    227 236.7  38.6  34136  289.18 0854.24
2009/04/23 16:41:53.1      47     41    213     63    222  48.7  83.1  34128  289.04 0854.24
2009/04/23 16:41:53.2      29    145    164    149    221  11.6  53.0  34126  289.01 0854.24
2009/04/23 16:41:53.3     136      0     71    137    154  90.0  29.3  34134  289.13 0854.24
2009/04/23 16:41:53.4     245   -111    137    270    302 114.4  29.1  34118  288.85 0854.24
2009/04/23 16:41:53.5      78   -147    167    167    236 151.9  50.1  34126  289.01 0854.24
2009/04/23 16:41:53.6      80    -50    191     95    213 122.4  71.7  34132  289.09 0854.24
2009/04/23 16:41:53.7       7    -38    231     39    234 168.5  90.0  34180  289.91 0854.24
2009/04/23 16:41:53.8     -11    -39    244     41    247 196.0  90.0  34184  289.97 0854.24
2009/04/23 16:41:53.9      62     57    251     85    265  47.3  81.2  34160  289.57 0854.24
2009/04/23 16:41:54.0     268     44    284    272    393  80.5  51.3  34128  289.04 0854.24
2009/04/23 16:41:54.1     183     42    263    188    323  77.0  61.1  34148  289.36 0854.24
2009/04/23 16:41:54.2     129    -50    217    139    257 111.3  64.6  34166  289.67 0854.24
2009/04/23 16:41:54.3      48    -41    173     64    184 130.4  79.2  34196  290.18 0854.24
2009/04/23 16:41:54.4     362      7    169    363    400  88.8  26.9  34132  289.10 0854.24
2009/04/23 16:41:54.5     313    -44    222    317    387  98.0  38.5  34130  289.06 0854.24
2009/04/23 16:41:54.6     234    -66    246    244    346 105.9  50.0  34136  289.15 0854.25
2009/04/23 16:41:54.7     167   -136    217    216    306 129.3  50.1  34128  289.02 0854.25
2009/04/23 16:41:54.8     187   -171    220    254    336 132.4  45.5  34126  288.98 0854.25
2009/04/23 16:41:54.9     250    -84    173    264    315 108.6  36.4  34116  288.83 0854.25
2009/04/23 16:41:55.0     223   -102    171    246    299 114.6  38.4  34120  288.88 0854.25
2009/04/23 16:41:55.1     300   -195    176    359    399 123.1  28.0  34112  288.77 0854.25
2009/04/23 16:41:55.2     249   -132    171    282    329 118.0  34.2  34112  288.75 0854.25
2009/04/23 16:41:55.3     207   -101    159    231    280 116.0  37.6  34118  288.85 0854.25
2009/04/23 16:41:55.4     159    -38    188    164    249 103.5  54.6  34126  288.99 0854.25
2009/04/23 16:41:55.5     167   -130    128    212    247 128.0  34.2  34114  288.80 0854.25
2009/04/23 16:41:55.6     184   -222    100    289    307 140.4  19.2  34110  288.73 0854.25
2009/04/23 16:41:55.7     185   -315     61    366    372 149.6   9.5  34106  288.67 0854.25
2009/04/23 16:41:55.8     127   -373    153    395    423 161.2  22.3  34112  288.75 0854.25
2009/04/23 16:41:55.9     130   -342    149    367    396 159.1  23.4  34110  288.72 0854.25
2009/04/23 16:41:56.0     191   -302    125    358    379 147.6  20.0  34104  288.64 0854.25
2009/04/23 16:41:56.1      37   -281    108    284    303 172.4  22.0  34104  288.63 0854.25
2009/04/23 16:41:56.2      21   -279     20    280    281 175.5   4.2  34110  288.73 0854.25
2009/04/23 16:41:56.3     -12   -273     23    274    276 182.7   4.9  34112  288.76 0854.25
2009/04/23 16:41:56.4     -46   -273     38    277    280 189.6   8.0  34108  288.70 0854.25
2009/04/23 16:41:56.5      36   -266      8    269    270 172.2   1.8  34110  288.71 0854.25
2009/04/23 16:41:56.6      60   -322     29    328    330 169.3   5.1  34110  288.71 0854.25
2009/04/23 16:41:56.7      58   -321     34    327    329 169.8   6.0  34110  288.73 0854.25
2009/04/23 16:41:56.8      75   -295    -21    305    306 165.7  -4.1  34106  288.66 0854.25
2009/04/23 16:41:56.9      86   -300    -11    313    314 164.0  -2.1  34104  288.63 0854.25
2009/04/23 16:41:57.0      99   -296    -20    313    314 161.5  -3.8  34104  288.61 0854.25
2009/04/23 16:41:57.1       5   -299     -6    300    301 179.0  -1.2  34112  288.75 0854.25
2009/04/23 16:41:57.2      23   -301    -60    302    309 175.5 -11.3  34114  288.80 0854.25
2009/04/23 16:41:57.3      43   -281    -46    285    289 171.3  -9.3  34112  288.76 0854.25
2009/04/23 16:41:57.4      29   -275     -8    277    278 173.8  -1.8  34110  288.73 0854.25
2009/04/23 16:41:57.5      53   -265     38    271    274 168.7   8.0  34110  288.73 0854.25
2009/04/23 16:41:57.6      84   -312     25    324    326 164.8   4.5  34104  288.63 0854.25
2009/04/23 16:41:57.7     105   -249    -43    271    275 157.2  -9.0  34114  288.78 0854.25
2009/04/23 16:41:57.8      78   -248     10    261    262 162.4   2.3  34112  288.75 0854.25
2009/04/23 16:41:57.9      87   -324    116    336    356 164.9  19.2  34112  288.76 0854.25
2009/04/23 16:41:58.0     112   -338     36    357    359 161.6   5.9  34110  288.74 0854.25
2009/04/23 16:41:58.1      43   -323     54    326    331 172.4   9.5  34112  288.76 0854.25
2009/04/23 16:41:58.2      81   -244    123    258    285 161.5  27.2  34110  288.73 0854.25
2009/04/23 16:41:58.3      42   -304    105    308    326 172.0  18.8  34114  288.78 0854.25
2009/04/23 16:41:58.4      60   -256    142    263    298 166.7  30.8  34116  288.81 0854.25
2009/04/23 16:41:58.5      89   -294    135    308    336 163.1  25.1  34122  288.93 0854.25
2009/04/23 16:41:58.6      95   -317    143    331    360 163.3  24.9  34120  288.91 0854.27
2009/04/23 16:41:58.7      93   -283    125    299    324 161.7  24.2  34118  288.87 0854.27
2009/04/23 16:41:58.8     167   -291     78    336    345 150.1  13.1  34124  288.96 0854.27
2009/04/23 16:41:58.9     156   -212     19    264    265 143.7   4.2  34120  288.88 0854.27
2009/04/23 16:41:59.0     107   -239    -33    262    265 155.9  -7.2  34124  288.97 0854.27
2009/04/23 16:41:59.1      56   -295     -2    301    302 169.1  -0.5  34122  288.93 0854.27
2009/04/23 16:41:59.2      52   -271    -12    277    278 169.1  -2.6  34122  288.92 0854.27
2009/04/23 16:41:59.3      46   -231     -5    236    237 168.5  -1.3  34124  288.97 0854.27
2009/04/23 16:41:59.4      60   -240     -4    248    249 165.8  -1.1  34126  288.98 0854.27
2009/04/23 16:41:59.5      17   -246     12    247    248 176.0   2.9  34122  288.93 0854.27
2009/04/23 16:41:59.6     -17   -231    -19    232    233 184.4  -4.9  34126  289.00 0854.27
2009/04/23 16:41:59.7      63   -212    -43    222    227 163.3 -11.1  34124  288.96 0854.27
2009/04/23 16:41:59.8      88   -139     -5    165    166 147.7  -1.8  34114  288.79 0854.27
2009/04/23 16:41:59.9     129   -161     10    207    208 141.3   2.8  34110  288.74 0854.27
2009/04/23 16:42:00.0     158   -152      3    220    221 133.8   0.8  34114  288.79 0854.27
2009/04/23 16:42:00.1     131   -125     21    182    184 133.8   6.7  34110  288.74 0854.27
2009/04/23 16:42:00.2     105   -112     37    154    159 136.8  13.5  34108  288.70 0854.27
2009/04/23 16:42:00.3      84    -86    107    121    161 135.9  46.4  34112  288.75 0854.27
2009/04/23 16:42:00.4      54    -69     86     88    123 142.2  50.0  34128  289.02 0854.27
2009/04/23 16:42:00.5      52    -28     55     60     81 118.9  47.5  34130  289.06 0854.27
2009/04/23 16:42:00.6     140    -70     78    157    175 116.6  28.2  34116  288.82 0854.30
2009/04/23 16:42:00.7     108    -15     64    110    127  97.9  32.9  34116  288.82 0854.30
2009/04/23 16:42:00.8     152    -93     10    179    180 121.3   3.3  34126  289.01 0854.30
2009/04/23 16:42:00.9     218   -115    139    247    283 117.8  31.6  34138  289.19 0854.30
2009/04/23 16:42:01.0      67    -89    145    112    183 143.0  58.7  34156  289.52 0854.30
2009/04/23 16:42:01.1      99    -32    134    105    170 108.2  57.9  34150  289.41 0854.30
2009/04/23 16:42:01.2      12    -46     94     48    105 164.9  70.8  34152  289.45 0854.30
2009/04/23 16:42:01.3      -2     56     54     57     78 357.3  48.5  34156  289.52 0854.30
2009/04/23 16:42:01.4      10    -16     47     19     50 147.5  77.1  34138  289.19 0854.30
2009/04/23 16:42:01.5      87   -100     16    133    135 139.0   7.1  34126  289.01 0854.30
2009/04/23 16:42:01.6      57   -142    -41    154    160 158.1 -15.0  34124  288.96 0854.30
2009/04/23 16:42:01.7      47   -129    -76    138    157 160.0 -35.8  34122  288.92 0854.30
2009/04/23 16:42:01.8      27   -135     14    138    139 168.4   5.9  34118  288.87 0854.30
2009/04/23 16:42:01.9      78   -101     50    128    137 142.2  23.0  34120  288.89 0854.30
2009/04/23 16:42:02.0     107    -50     57    119    131 115.2  27.3  34120  288.91 0854.30
2009/04/23 16:42:02.1      99    -31     72    104    126 107.7  37.6  34118  288.87 0854.30
2009/04/23 16:42:02.2      95    -39     96    103    140 112.6  47.9  34126  289.01 0854.30
2009/04/23 16:42:02.3      45    -34    114     57    127 126.9  71.9  34154  289.48 0854.30
2009/04/23 16:42:02.4     -22     35     74     42     85 328.4  67.7  34164  289.65 0854.30
2009/04/23 16:42:02.5     -32   -105    123    110    165 196.9  53.5  34152  289.43 0854.30
2009/04/23 16:42:02.6     -64    -84    155    106    187 217.4  62.6  34148  289.38 0854.31
2009/04/23 16:42:02.7     -86   -128     96    155    182 213.8  35.0  34142  289.28 0854.31
2009/04/23 16:42:02.8    -103   -103     90    147    172 225.0  34.8  34146  289.33 0854.31
2009/04/23 16:42:02.9     -80   -104     59    132    144 217.8  25.7  34142  289.28 0854.31
2009/04/23 16:42:03.0     -22   -107     37    110    117 191.6  18.9  34144  289.31 0854.31
2009/04/23 16:42:03.1     -20    -81     18     84     87 193.8  12.6  34152  289.43 0854.31
2009/04/23 16:42:03.2     -27    -80     24     85     89 199.2  16.3  34152  289.43 0854.31
2009/04/23 16:42:03.3     -53    -75     36     93     99 215.2  22.0  34152  289.45 0854.31
2009/04/23 16:42:03.4     -36    -61      8     72     73 210.7   6.9  34154  289.48 0854.31
2009/04/23 16:42:03.5     -32    -52      6     62     63 211.6   5.9  34150  289.40 0854.31
2009/04/23 16:42:03.6     -42    -66      6     79     80 212.5   4.9  34148  289.36 0854.33
2009/04/23 16:42:03.7     -66    -86     26    109    113 217.4  13.7  34148  289.38 0854.33
2009/04/23 16:42:03.8     -63    -77     30    100    105 219.2  16.8  34148  289.38 0854.33
2009/04/23 16:42:03.9     -72    -98     63    122    137 216.5  29.3  34148  289.38 0854.33
2009/04/23 16:42:04.0     -64   -138     53    153    163 204.9  19.2  34144  289.30 0854.33
2009/04/23 16:42:04.1     -84   -145     30    168    171 210.1  10.3  34138  289.21 0854.33
2009/04/23 16:42:04.2     -49   -136     41    145    151 200.1  16.0  34138  289.21 0854.33
2009/04/23 16:42:04.3     -35   -148     36    153    158 193.4  13.5  34138  289.21 0854.33
2009/04/23 16:42:04.4     -61   -199     60    209    218 197.0  16.0  34142  289.28 0854.33
2009/04/23 16:42:04.5     -30   -216    -12    219    220 188.1  -3.2  34136  289.18 0854.33
2009/04/23 16:42:04.6     -32   -192     -7    195    196 189.6  -2.2  34146  289.35 0854.33
2009/04/23 16:42:04.7     -41   -236     51    240    246 190.0  12.0  34144  289.31 0854.33
2009/04/23 16:42:04.8     -70   -245     60    256    263 196.1  13.2  34146  289.32 0854.33
2009/04/23 16:42:04.9     -58   -219     80    227    241 195.1  19.6  34148  289.37 0854.33
2009/04/23 16:42:05.0       4   -274    115    275    298 179.0  24.1  34176  289.83 0854.33
2009/04/23 16:42:05.1      14   -259    221    260    341 176.9  44.7  34162  289.59 0854.33
2009/04/23 16:42:05.2       3   -328    133    329    354 179.4  23.2  34130  289.08 0854.33
2009/04/23 16:42:05.3      18   -291     74    292    302 176.4  14.3  34136  289.17 0854.33
2009/04/23 16:42:05.4       0   -280     99    281    297 180.0  20.2  34142  289.25 0854.33
2009/04/23 16:42:05.5     -81   -311    141    322    351 194.7  25.1  34156  289.50 0854.33
2009/04/23 16:42:05.6     -52   -257    214    263    339 191.6  43.4  34172  289.78 0854.33
2009/04/23 16:42:05.7     -57   -312    217    318    384 190.5  37.6  34178  289.89 0854.33
2009/04/23 16:42:05.8     -12   -196    241    197    311 183.6  56.4  34146  289.34 0854.33
2009/04/23 16:42:05.9     -51   -251    264    257    368 191.5  50.8  34204  290.32 0854.33
2009/04/23 16:42:06.0      34   -170    197    174    262 168.5  54.0  34170  289.73 0854.33
2009/04/23 16:42:06.1      74   -196    143    210    254 159.3  37.6  34136  289.15 0854.33
2009/04/23 16:42:06.2     107   -168    130    200    238 147.5  36.3  34124  288.97 0854.33
2009/04/23 16:42:06.3      38   -277     98    280    296 172.0  20.0  34132  289.09 0854.33
2009/04/23 16:42:06.4      64   -220     81    230    243 163.7  20.0  34132  289.09 0854.33
2009/04/23 16:42:06.5      62   -188     95    199    220 161.7  27.3  34128  289.04 0854.33
2009/04/23 16:42:06.6      83   -160     92    181    203 152.6  29.2  34134  289.13 0854.33
2009/04/23 16:42:06.7      75   -150     78    168    185 153.3  27.0  34134  289.14 0854.33
2009/04/23 16:42:06.8      42    -97     12    106    107 156.4   6.5  34132  289.11 0854.33
2009/04/23 16:42:06.9     107    -45     10    117    118 113.1   4.9  34136  289.16 0854.33
2009/04/23 16:42:07.0     100    -33     10    106    107 108.4   5.4  34136  289.16 0854.33
2009/04/23 16:42:07.1      87      9     65     88    109  83.9  39.7  34138  289.19 0854.33
2009/04/23 16:42:07.2      66     31     43     74     85  64.6  32.9  34138  289.21 0854.33
2009/04/23 16:42:07.3      59      7     31     60     67  83.0  29.3  34138  289.21 0854.33
2009/04/23 16:42:07.4      40      8     33     41     52  78.5  43.7  34144  289.31 0854.33
2009/04/23 16:42:07.5      17    -14     17     23     28 129.5  41.7  34142  289.28 0854.33
2009/04/23 16:42:07.6      12    -16     39     21     44 143.9  68.8  34150  289.41 0854.32
2009/04/23 16:42:07.7      19     47     56     51     75  22.7  52.2  34162  289.60 0854.32
2009/04/23 16:42:07.8     -17     91     78     93    121 348.9  44.3  34164  289.63 0854.32
2009/04/23 16:42:07.9     -57    103     60    118    132 331.0  29.2  34150  289.40 0854.32
2009/04/23 16:42:08.0     -58    123     51    137    146 334.5  21.0  34152  289.43 0854.32
2009/04/23 16:42:08.1      -9    102     57    103    117 354.7  31.4  34154  289.48 0854.32
2009/04/23 16:42:08.2     -27    101     74    105    128 344.9  38.6  34158  289.53 0854.32
2009/04/23 16:42:08.3     -39     63     92     75    118 328.4  56.4  34162  289.60 0854.32
2009/04/23 16:42:08.4     -37     55     57     67     87 325.7  44.8  34152  289.43 0854.32
2009/04/23 16:42:08.5     -39     31     61     51     79 308.6  55.8  34154  289.48 0854.32
2009/04/23 16:42:08.6     -39     62     62     74     96 327.4  44.3  34152  289.45 0854.32
2009/04/23 16:42:08.7       0     52     70     53     87 359.1  59.0  34178  289.87 0854.32
2009/04/23 16:42:08.8      -9    -27    100     29    104 198.7  83.3  34180  289.91 0854.32
2009/04/23 16:42:08.9      -5    -71     76     72    104 184.4  51.2  34158  289.55 0854.32
2009/04/23 16:42:09.0      21    -40    115     46    123 152.8  77.1  34148  289.36 0854.32
2009/04/23 16:42:09.1      23    -82    126     86    152 164.4  62.7  34152  289.43 0854.32
2009/04/23 16:42:09.2     -10   -136    138    137    194 184.5  49.7  34148  289.38 0854.32
2009/04/23 16:42:09.3      12   -155    161    156    224 175.5  50.7  34150  289.40 0854.32
2009/04/23 16:42:09.4       7   -130    157    131    204 176.9  56.1  34154  289.48 0854.32
2009/04/23 16:42:09.5      98    -36    147    105    180 110.4  60.8  34156  289.52 0854.32
2009/04/23 16:42:09.6     -49   -164    188    172    254 196.7  53.0  34148  289.38 0854.31
2009/04/23 16:42:09.7     -56   -214    155    222    270 194.7  38.4  34148  289.37 0854.31
2009/04/23 16:42:09.8       8   -195    164    196    255 177.5  44.1  34150  289.41 0854.31
2009/04/23 16:42:09.9     -78   -167    156    185    241 204.9  44.8  34152  289.43 0854.31
2009/04/23 16:42:10.0     -68   -115    136    134    190 210.7  50.1  34150  289.41 0854.31
2009/04/23 16:42:10.1     -55   -157    164    167    234 199.4  49.9  34152  289.45 0854.31
2009/04/23 16:42:10.2     -98   -237    194    257    322 202.5  40.8  34150  289.39 0854.31
2009/04/23 16:42:10.3     -69   -203    163    215    269 198.9  40.9  34148  289.36 0854.31
2009/04/23 16:42:10.4     -13   -178    155    179    236 184.5  45.6  34162  289.60 0854.31
2009/04/23 16:42:10.5     -56   -140    152    151    214 201.9  49.9  34164  289.63 0854.31
2009/04/23 16:42:10.6      43      0     93     44    102  90.0  73.1  34184  289.99 0854.31
2009/04/23 16:42:10.7     156    -80    114    176    209 117.1  35.7  34154  289.48 0854.31
2009/04/23 16:42:10.8     141    -90    118    168    205 122.4  38.8  34160  289.58 0854.31
2009/04/23 16:42:10.9     159   -111    112    195    224 124.9  32.4  34156  289.52 0854.31
2009/04/23 16:42:11.0     181    -87    101    202    225 115.8  28.2  34150  289.40 0854.31
2009/04/23 16:42:11.1     135    -80     81    157    176 120.7  29.3  34152  289.45 0854.31
2009/04/23 16:42:11.2     132    -72     90    151    175 118.9  34.0  34150  289.41 0854.31
2009/04/23 16:42:11.3      47    -79     93     93    131 149.3  50.1  34150  289.41 0854.31
2009/04/23 16:42:11.4      34    -91    123     98    157 159.5  57.5  34148  289.38 0854.31
2009/04/23 16:42:11.5       0    -63    108     64    125 180.9  66.7  34148  289.36 0854.31
2009/04/23 16:42:11.6      74    -86     96    114    149 139.5  43.8  34148  289.38 0854.32
2009/04/23 16:42:11.7     115    -59     23    130    133 117.1  10.1  34146  289.35 0854.32
2009/04/23 16:42:11.8     129    -19     25    131    134  98.4  11.1  34148  289.36 0854.32
2009/04/23 16:42:11.9     127     21    -40    129    136  80.4 -17.5  34146  289.33 0854.32
2009/04/23 16:42:12.0     122   -101   -107    159    191 129.5 -41.1  34146  289.33 0854.32
2009/04/23 16:42:12.1     208    -73    -45    221    226 109.3 -11.6  34140  289.23 0854.32
2009/04/23 16:42:12.2     206    -59     76    215    228 106.2  20.0  34142  289.26 0854.32
2009/04/23 16:42:12.3     147   -145    127    207    242 134.7  34.5  34132  289.11 0854.32
2009/04/23 16:42:12.4     164    -80    197    183    268 116.0  52.2  34140  289.22 0854.32
2009/04/23 16:42:12.5     228   -138    134    267    298 121.1  28.7  34136  289.17 0854.32
2009/04/23 16:42:12.6     272   -127    130    301    327 115.1  24.8  34132  289.10 0854.32
2009/04/23 16:42:12.7      50   -162     37    170    175 162.6  12.4  34134  289.14 0854.32
2009/04/23 16:42:12.8      73    -70     31    102    107 134.0  17.3  34126  289.01 0854.32
2009/04/23 16:42:12.9     108     -1     21    109    112  90.8  11.1  34134  289.13 0854.32
2009/04/23 16:42:13.0      34    -51     33     62     70 146.6  30.3  34138  289.21 0854.32
2009/04/23 16:42:13.1       9    -46     39     47     61 168.4  43.8  34134  289.13 0854.32
2009/04/23 16:42:13.2      52     24      2     58     59  64.8   2.9  34150  289.40 0854.32
2009/04/23 16:42:13.3      95     60    -27    113    117  57.5 -13.4  34154  289.48 0854.32
2009/04/23 16:42:13.4     107     68    -26    127    130  57.5 -11.9  34156  289.50 0854.32
2009/04/23 16:42:13.5     100     57    -27    116    120  60.2 -13.4  34152  289.43 0854.32
2009/04/23 16:42:13.6      87     31    -20     93     96  70.0 -12.4  34154  289.48 0854.33
2009/04/23 16:42:13.7      77     67     18    103    105  48.7  10.1  34160  289.58 0854.33
2009/04/23 16:42:13.8      85     47     23     98    101  60.7  13.7  34162  289.62 0854.33
2009/04/23 16:42:13.9      65     41     10     77     78  57.6   7.5  34158  289.55 0854.33
2009/04/23 16:42:14.0      63     45     30     78     83  54.1  21.5  34160  289.58 0854.33
2009/04/23 16:42:14.1      56     27     27     63     68  63.8  24.1  34160  289.57 0854.33
2009/04/23 16:42:14.2      27     -5     51     28     58 101.5  68.8  34166  289.67 0854.33
2009/04/23 16:42:14.3      43     -7     57     44     72  99.7  57.5  34160  289.57 0854.33
2009/04/23 16:42:14.4      33    -23     57     41     70 124.2  60.5  34166  289.67 0854.33
2009/04/23 16:42:14.5      25    -25     65     36     74 135.0  68.8  34164  289.65 0854.33
2009/04/23 16:42:14.6      19    -30     56     36     66 147.5  64.6  34154  289.46 0854.33
2009/04/23 16:42:14.7      56   -167    124    177    216 161.3  38.8  34142  289.26 0854.33
2009/04/23 16:42:14.8      71   -321     83    329    340 167.5  14.2  34146  289.32 0854.33
2009/04/23 16:42:14.9     154   -371    106    402    416 157.4  14.9  34144  289.29 0854.33
2009/04/23 16:42:15.0     133   -319     61    346    352 157.3  10.0  34142  289.25 0854.33
2009/04/23 16:42:15.1      94   -248      8    266    267 159.1   1.8  34148  289.36 0854.33
2009/04/23 16:42:15.2     163   -248     25    298    300 146.6   5.0  34142  289.27 0854.33
2009/04/23 16:42:15.3     226   -224     13    319    320 134.8   2.5  34152  289.44 0854.33
2009/04/23 16:42:15.4     232   -233     89    330    343 135.1  15.2  34154  289.47 0854.33
2009/04/23 16:42:15.5     127   -245    131    277    306 152.6  27.1  34146  289.32 0854.33
2009/04/23 16:42:15.6     133   -146    153    198    250 137.7  41.7  34160  289.56 0854.34
2009/04/23 16:42:15.7     179    -70     45    193    199 111.5  13.2  34158  289.53 0854.34
2009/04/23 16:42:15.8      71    -56     74     91    117 128.6  43.7  34166  289.67 0854.34
2009/04/23 16:42:15.9      16   -117    131    119    176 172.0  53.0  34174  289.80 0854.34
2009/04/23 16:42:16.0       7   -163    153    164    224 177.3  48.0  34150  289.40 0854.34
2009/04/23 16:42:16.1      45   -170     98    176    201 165.1  31.4  34142  289.26 0854.34
2009/04/23 16:42:16.2      46   -147     57    155    165 162.6  20.7  34144  289.31 0854.34
2009/04/23 16:42:16.3      36   -133     49    138    146 164.9  20.0  34142  289.26 0854.34
2009/04/23 16:42:16.4      37   -167     33    172    176 167.5  11.1  34142  289.28 0854.34
2009/04/23 16:42:16.5      13   -163     57    164    174 175.3  19.4  34138  289.21 0854.34
2009/04/23 16:42:16.6      24   -120     68    123    140 168.5  31.4  34142  289.26 0854.34
2009/04/23 16:42:16.7     -11   -148     43    149    156 184.4  16.0  34134  289.13 0854.34
2009/04/23 16:42:16.9       4   -140     56    141    151 178.2  23.0  34130  289.06 0854.34
2009/04/23 16:42:16.9     -17   -137     47    139    147 187.1  18.9  34136  289.18 0854.34
2009/04/23 16:42:17.1     -16    -98     71    100    122 189.8  39.1  34152  289.45 0854.34
2009/04/23 16:42:17.2      -7   -103     81    104    131 184.0  41.7  34164  289.63 0854.34
2009/04/23 16:42:17.3      10   -100     42    101    109 173.8  23.1  34160  289.57 0854.34
2009/04/23 16:42:17.4      38    -63     25     74     79 148.4  18.9  34160  289.57 0854.34
2009/04/23 16:42:17.5     126   -137    115    187    219 137.5  34.8  34144  289.30 0854.34
2009/04/23 16:42:17.6      98   -181    153    206    256 151.5  40.1  34144  289.31 0854.34
2009/04/23 16:42:17.7      33   -157    153    161    222 168.0  48.5  34140  289.24 0854.34
2009/04/23 16:42:17.8      28   -189     23    192    194 171.5   7.1  34136  289.18 0854.34
2009/04/23 16:42:17.9      31   -233     27    236    238 172.4   6.7  34140  289.24 0854.34
2009/04/23 16:42:18.0       7   -272    110    273    294 178.4  23.0  34132  289.10 0854.34
2009/04/23 16:42:18.1      30   -312    206    314    375 174.4  36.4  34136  289.15 0854.34
2009/04/23 16:42:18.2     -34   -287    272    290    397 186.9  48.0  34138  289.20 0854.34
2009/04/23 16:42:18.3     107   -196    131    224    259 151.3  32.9  34140  289.22 0854.34
2009/04/23 16:42:18.4     187   -175    114    257    281 133.1  25.2  34138  289.19 0854.34
2009/04/23 16:42:18.5     240   -237    190    338    387 134.6  31.7  34138  289.20 0854.34
2009/04/23 16:42:18.6     232   -153     95    279    295 123.5  18.9  34136  289.17 0854.34
2009/04/23 16:42:18.7     201   -174    125    267    294 130.9  27.1  34142  289.25 0854.34
2009/04/23 16:42:18.8      53   -227     65    234    243 166.9  15.6  34140  289.24 0854.34
2009/04/23 16:42:18.9      -3   -224     75    225    238 181.0  18.4  34144  289.31 0854.34
2009/04/23 16:42:19.0      -8   -188    100    189    213 182.7  30.1  34144  289.30 0854.34
2009/04/23 16:42:19.1       5   -206    107    207    233 178.6  29.3  34148  289.36 0854.34
2009/04/23 16:42:19.2      98   -265    112    283    304 159.5  23.0  34142  289.27 0854.34
2009/04/23 16:42:19.3      67   -248     80    257    270 164.9  17.4  34150  289.39 0854.34
2009/04/23 16:42:19.4      69   -292    103    301    319 166.6  18.9  34148  289.37 0854.34
2009/04/23 16:42:19.5      18   -237     93    238    255 175.5  22.8  34148  289.37 0854.34
2009/04/23 16:42:19.6     -53   -264    193    270    331 191.5  39.1  34150  289.39 0854.34
2009/04/23 16:42:19.7      46   -407    109    410    425 173.4  14.9  34140  289.24 0854.34
2009/04/23 16:42:19.8     -12   -315    150    316    349 182.2  27.2  34144  289.30 0854.34
2009/04/23 16:42:19.9      35   -253    184    256    315 172.0  39.2  34150  289.41 0854.34
2009/04/23 16:42:20.0      22   -237    153    239    283 174.7  35.6  34150  289.39 0854.34
2009/04/23 16:42:20.1      43   -203    134    208    247 168.0  35.7  34146  289.34 0854.34
2009/04/23 16:42:20.2      11   -170    141    171    221 176.2  43.8  34140  289.24 0854.34
2009/04/23 16:42:20.3      24    -73     68     77    102 161.7  46.4  34144  289.31 0854.34
2009/04/23 16:42:20.4      81    -85     62    118    133 136.3  29.8  34142  289.28 0854.34
2009/04/23 16:42:20.5     133    -73     79    152    171 118.9  29.5  34150  289.41 0854.34
2009/04/23 16:42:20.6     115   -115     62    163    174 135.0  21.5  34146  289.35 0854.34
2009/04/23 16:42:20.7     139   -100      2    172    173 125.7   0.8  34146  289.33 0854.34
2009/04/23 16:42:20.8     178   -115    -29    212    215 122.9  -8.0  34146  289.35 0854.34
2009/04/23 16:42:20.9     179   -157     -5    239    240 131.3  -1.3  34142  289.27 0854.34
2009/04/23 16:42:21.0      33   -166    -44    170    176 168.7 -14.5  34138  289.21 0854.34
2009/04/23 16:42:21.1     -13   -187    -56    188    196 184.0 -21.5  34144  289.30 0854.34
2009/04/23 16:42:21.2    -130   -203    -31    242    244 212.6  -7.3  34142  289.27 0854.34
2009/04/23 16:42:21.3     -86   -301     12    314    315 196.0   2.3  34166  289.66 0854.34
2009/04/23 16:42:21.4     -23   -286     35    288    291 184.7   7.1  34158  289.54 0854.34
2009/04/23 16:42:21.5    -256   -141      2    293    294 241.1   0.5  34158  289.53 0854.34
2009/04/23 16:42:21.6    -263   -178     52    318    323 235.9   9.4  34156  289.49 0854.34
2009/04/23 16:42:21.7    -147   -140     71    204    217 226.4  19.2  34152  289.43 0854.35
2009/04/23 16:42:21.8      25   -145    141    148    204 170.2  48.7  34136  289.16 0854.35
2009/04/23 16:42:21.9    -169   -225    144    282    316 217.0  29.3  34140  289.24 0854.35
2009/04/23 16:42:22.0    -148   -210    167    258    307 215.2  35.6  34154  289.46 0854.35
2009/04/23 16:42:22.1      22    -66    173     70    186 161.3  77.0  34148  289.36 0854.35
2009/04/23 16:42:22.2     156    -14    236    157    283  95.2  63.6  34156  289.51 0854.35
2009/04/23 16:42:22.3     225   -163    207    278    346 126.0  40.2  34134  289.14 0854.35
2009/04/23 16:42:22.4     238    -95    101    257    276 111.8  22.8  34140  289.24 0854.35
2009/04/23 16:42:22.5     164   -114     36    200    204 124.9  10.3  34140  289.24 0854.35
2009/04/23 16:42:22.6     151    -35     58    156    166 103.3  21.5  34142  289.26 0854.35
2009/04/23 16:42:22.7     227    -47     15    233    234 101.9   3.8  34148  289.37 0854.35
2009/04/23 16:42:22.8     218    -86     24    235    237 111.5   5.9  34148  289.37 0854.35
2009/04/23 16:42:22.9     124   -129     17    180    181 136.1   5.4  34150  289.40 0854.35
2009/04/23 16:42:23.0      44   -167     48    173    180 165.1  15.8  34148  289.38 0854.35
2009/04/23 16:42:23.1     -43   -142     31    149    153 197.0  12.0  34150  289.41 0854.35
2009/04/23 16:42:23.2     -56   -109     12    123    124 207.2   5.9  34150  289.41 0854.35
2009/04/23 16:42:23.3     -77   -105     56    131    142 216.1  24.1  34154  289.46 0854.35
2009/04/23 16:42:23.4     -28   -139    124    142    188 191.6  45.8  34144  289.31 0854.35
2009/04/23 16:42:23.5    -126   -314     91    339    352 201.9  15.1  34146  289.32 0854.35
2009/04/23 16:42:23.6     -18   -357     46    358    361 182.9   7.5  34144  289.30 0854.35
2009/04/23 16:42:23.7       7   -358    141    359    385 178.8  22.8  34136  289.15 0854.34
2009/04/23 16:42:23.8     -22   -314    109    315    334 184.0  19.1  34128  289.03 0854.34
2009/04/23 16:42:23.9    -121   -320     74    343    352 200.8  12.3  34122  288.93 0854.34
2009/04/23 16:42:24.0    -111   -278     62    300    307 201.9  11.8  34132  289.10 0854.34
2009/04/23 16:42:24.1      22   -159    111    161    195 172.0  37.8  34144  289.30 0854.34
2009/04/23 16:42:24.2      18    -92    148     94    175 168.5  64.7  34156  289.52 0854.34
2009/04/23 16:42:24.3     -40   -184    140    189    235 192.3  40.4  34152  289.45 0854.34
2009/04/23 16:42:24.4      75   -157    141    175    224 154.4  43.5  34148  289.38 0854.34
2009/04/23 16:42:24.5      30   -127    125    131    181 166.7  48.7  34156  289.50 0854.34
2009/04/23 16:42:24.6      -1     -8     93      9     93 191.6  90.0  34168  289.72 0854.34
2009/04/23 16:42:24.7     -38    -36     36     53     64 226.9  37.6  34160  289.58 0854.34
2009/04/23 16:42:24.8     -48    -77     41     91     99 212.1  26.2  34142  289.28 0854.34
2009/04/23 16:42:24.9     -22    -50     32     55     63 203.6  32.4  34144  289.31 0854.34
2009/04/23 16:42:25.0      -4     45     66     46     80 353.8  61.5  34162  289.60 0854.34
2009/04/23 16:42:25.1     -88    -66    188    110    217 233.1  67.0  34164  289.65 0854.34
2009/04/23 16:42:25.2     -48   -134    181    143    230 200.0  57.5  34154  289.48 0854.34
2009/04/23 16:42:25.3     -44   -154    126    161    204 196.0  41.7  34146  289.33 0854.34
2009/04/23 16:42:25.4     -55   -171     84    180    198 197.8  27.0  34142  289.26 0854.34
2009/04/23 16:42:25.5     -22   -112    115    115    162 191.5  50.1  34150  289.41 0854.34
2009/04/23 16:42:25.6       2   -122    156    123    198 179.0  57.9  34160  289.58 0854.34
2009/04/23 16:42:25.7      83    -28    101     88    133 108.6  54.3  34162  289.60 0854.34
2009/04/23 16:42:25.8     188     -1    166    189    251  90.4  45.8  34150  289.40 0854.34
2009/04/23 16:42:25.9     115    -41     90    123    152 109.9  39.7  34154  289.48 0854.34
2009/04/23 16:42:26.0      79     -9     70     80    106  97.0  46.4  34152  289.45 0854.34
2009/04/23 16:42:26.1     236    112    -53    262    268  64.6 -11.6  34150  289.39 0854.34
2009/04/23 16:42:26.2     186    127    -97    226    245  55.8 -29.3  34136  289.17 0854.34
2009/04/23 16:42:26.3     175    115   -107    210    235  56.7 -33.5  34142  289.26 0854.34
2009/04/23 16:42:26.4     140    135    -28    195    198  46.0  -8.2  34146  289.33 0854.34
2009/04/23 16:42:26.5     104    137    -56    173    181  37.2 -23.3  34146  289.33 0854.34
2009/04/23 16:42:26.6      86    117    -17    146    147  36.1  -6.7  34148  289.36 0854.34
2009/04/23 16:42:26.7     101    115      3    154    155  41.4   1.2  34152  289.45 0854.33
2009/04/23 16:42:26.8      15    117     -9    119    120   7.6  -4.6  34150  289.40 0854.33
2009/04/23 16:42:26.9       6     81      9     82     83   4.4   6.5  34150  289.41 0854.33
2009/04/23 16:42:27.0      86     55     51    103    114  57.6  27.8  34144  289.30 0854.33
2009/04/23 16:42:27.1     124      7     40    125    132  86.5  17.9  34140  289.23 0854.33
2009/04/23 16:42:27.2      99      0     22    100    103  90.0  12.6  34142  289.28 0854.33
2009/04/23 16:42:27.3      37     10     43     39     58  74.9  52.2  34140  289.24 0854.33
2009/04/23 16:42:27.4      35     71     21     80     83  26.3  15.3  34140  289.23 0854.33
2009/04/23 16:42:27.5      68     83     17    108    110  39.6   9.0  34138  289.21 0854.33
2009/04/23 16:42:27.6     109     53     28    122    126  64.2  13.2  34128  289.04 0854.33
2009/04/23 16:42:27.7     102     53     30    115    119  62.5  14.7  34128  289.04 0854.33
2009/04/23 16:42:27.8      53    112      6    124    125  25.4   2.9  34130  289.06 0854.33
2009/04/23 16:42:27.9      32    137     -2    141    142  13.3  -1.2  34138  289.19 0854.33
2009/04/23 16:42:28.0      71     86      5    112    113  39.7   2.9  34140  289.24 0854.33
2009/04/23 16:42:28.1      42     13     43     45     62  72.3  49.0  34138  289.19 0854.33
2009/04/23 16:42:28.2      67     80     41    105    112  40.1  22.5  34136  289.18 0854.33
2009/04/23 16:42:28.3     124     68    -28    142    145  61.1 -11.3  34132  289.11 0854.33
2009/04/23 16:42:28.4     160     92     36    185    189  60.0  11.0  34128  289.02 0854.33
2009/04/23 16:42:28.5     201     45     72    207    220  77.2  19.2  34134  289.13 0854.33
2009/04/23 16:42:28.6     174     -4     -7    175    176  91.5  -2.3  34138  289.21 0854.33
2009/04/23 16:42:28.7     124     87    -31    152    156  54.9 -11.6  34136  289.18 0854.32
2009/04/23 16:42:28.8     130     96     54    162    171  53.4  18.4  34140  289.24 0854.32
2009/04/23 16:42:28.9     126    109     55    167    176  49.1  18.4  34142  289.26 0854.32
2009/04/23 16:42:29.0     133     27    -39    136    142  78.5 -16.0  34132  289.11 0854.32
2009/04/23 16:42:29.1     155     31     59    159    169  78.5  21.0  34132  289.11 0854.32
2009/04/23 16:42:29.2     174     18     47    175    182  83.9  15.2  34128  289.04 0854.32
2009/04/23 16:42:29.3     110     22    106    113    154  78.5  48.0  34130  289.08 0854.32
2009/04/23 16:42:29.4       0    -65    124     66    140 180.0  69.3  34130  289.06 0854.32
2009/04/23 16:42:29.5     -33   -110    177    116    211 196.9  64.1  34132  289.11 0854.32
2009/04/23 16:42:29.6     -90    -56    178    107    207 238.0  66.4  34138  289.19 0854.32
2009/04/23 16:42:29.7     -23    -40    133     47    141 209.9  79.7  34148  289.36 0854.32
2009/04/23 16:42:29.8     -10    -81     97     82    127 187.6  55.4  34136  289.16 0854.32
2009/04/23 16:42:29.9     -75    -97    111    123    165 217.8  46.9  34130  289.08 0854.32
2009/04/23 16:42:30.0      -5    -56     82     57     99 185.3  61.5  34136  289.18 0854.32
2009/04/23 16:42:30.1      27    -57     65     64     91 154.7  50.1  34140  289.24 0854.32
2009/04/23 16:42:30.2      24     -8     48     26     54 108.4  68.8  34146  289.33 0854.32
2009/04/23 16:42:30.3     -15    -15     58     22     62 225.0  78.2  34146  289.35 0854.32
2009/04/23 16:42:30.4      12   -123    104    124    161 174.2  44.5  34128  289.02 0854.32
2009/04/23 16:42:30.5      49    -60    110     78    134 140.3  61.5  34138  289.19 0854.32
2009/04/23 16:42:30.6      21     29     55     37     66  36.1  63.6  34136  289.16 0854.32
2009/04/23 16:42:30.7      68    -18     64     71     95 105.0  46.9  34132  289.09 0854.32
2009/04/23 16:42:30.8      52     -9     60     53     80 100.6  54.3  34130  289.08 0854.32
2009/04/23 16:42:30.9      35     -7     42     36     55 101.5  55.4  34126  288.99 0854.32
2009/04/23 16:42:31.0      18      8     22     21     30  64.7  50.1  34128  289.02 0854.32
2009/04/23 16:42:31.1      17    -25     23     31     38 145.7  41.7  34134  289.13 0854.32
2009/04/23 16:42:31.2      23    -35     25     42     48 146.6  34.4  34126  289.01 0854.32
2009/04/23 16:42:31.3      25    -51     11     57     59 153.7  11.0  34116  288.84 0854.32
2009/04/23 16:42:31.4     -10    -83      0     84     85 187.1   0.2  34118  288.87 0854.32
2009/04/23 16:42:31.5       2   -130     56    131    142 179.1  24.1  34114  288.79 0854.32
2009/04/23 16:42:31.6     -48   -204    100    210    232 193.3  27.3  34112  288.75 0854.32
2009/04/23 16:42:31.7     -65   -196     87    207    224 198.3  24.1  34112  288.77 0854.32
2009/04/23 16:42:31.8     -34   -201     71    204    217 189.6  19.2  34112  288.77 0854.32
2009/04/23 16:42:31.9     -48   -202     72    208    221 193.4  19.2  34114  288.80 0854.32
2009/04/23 16:42:32.0     -25   -185     58    187    196 187.8  17.3  34114  288.80 0854.32
2009/04/23 16:42:32.1     -34   -164    128    168    211 192.0  41.4  34116  288.82 0854.32
2009/04/23 16:42:32.2     -41   -158    114    164    199 194.5  38.4  34122  288.92 0854.32
2009/04/23 16:42:32.3     -22   -178    130    180    222 187.3  39.5  34124  288.96 0854.32
2009/04/23 16:42:32.4     -40   -150    115    156    193 195.1  39.9  34130  289.06 0854.32
2009/04/23 16:42:32.5     -43   -142     87    149    172 196.9  33.5  34120  288.89 0854.32
2009/04/23 16:42:32.6     -18   -136     77    138    158 187.6  31.6  34120  288.91 0854.32
2009/04/23 16:42:32.7     -42   -158    108    164    196 195.1  36.5  34116  288.82 0854.32
2009/04/23 16:42:32.8     -10   -213    109    214    240 182.9  29.2  34118  288.87 0854.32
2009/04/23 16:42:32.9       7   -191    123    192    228 177.8  35.6  34124  288.96 0854.32
2009/04/23 16:42:33.0      -2   -155    131    156    203 181.0  44.3  34120  288.91 0854.32
2009/04/23 16:42:33.1       0   -137    129    138    188 180.4  48.0  34124  288.97 0854.32
2009/04/23 16:42:33.2       9   -135    123    136    183 176.0  47.1  34128  289.04 0854.32
2009/04/23 16:42:33.3     -15   -179    104    180    207 185.1  32.9  34126  288.99 0854.32
2009/04/23 16:42:33.4     -10   -156     93    157    182 184.0  33.7  34124  288.96 0854.32
2009/04/23 16:42:33.5      -2   -142     99    143    173 181.0  37.8  34122  288.92 0854.32
2009/04/23 16:42:33.6       9   -155     82    156    176 176.4  30.1  34128  289.02 0854.32
2009/04/23 16:42:33.7     119   -201      9    234    235 149.3   2.3  34120  288.90 0854.32
2009/04/23 16:42:33.8     100   -202     72    226    238 153.5  17.7  34132  289.09 0854.32
2009/04/23 16:42:33.9      59   -162     71    173    187 160.0  23.6  34130  289.08 0854.32
2009/04/23 16:42:34.0      61   -230    129    239    271 165.1  31.0  34140  289.22 0854.32
2009/04/23 16:42:34.1      13   -279    114    280    302 177.3  23.1  34146  289.34 0854.32
2009/04/23 16:42:34.2     -67   -286    156    294    332 193.3  30.3  34150  289.39 0854.32
2009/04/23 16:42:34.3    -148   -284    114    321    341 207.6  19.6  34158  289.54 0854.32
2009/04/23 16:42:34.4    -200   -259     42    328    331 217.7   7.4  34152  289.42 0854.32
2009/04/23 16:42:34.5    -159   -127     40    204    208 231.4  11.1  34150  289.41 0854.32
2009/04/23 16:42:34.6     -99    -12     19    100    102 263.0  11.1  34148  289.36 0854.32
2009/04/23 16:42:34.7       3    -46     41     47     62 175.5  46.9  34146  289.33 0854.33
2009/04/23 16:42:34.8      95    -17     99     97    138 100.6  50.2  34152  289.45 0854.33
2009/04/23 16:42:34.9      15    -45    122     48    131 160.8  77.1  34162  289.60 0854.33
2009/04/23 16:42:35.0     -35   -163    177    167    243 192.3  51.6  34146  289.33 0854.33
2009/04/23 16:42:35.1    -102   -208    172    232    288 206.1  40.4  34142  289.25 0854.33
2009/04/23 16:42:35.2     -90   -170    116    193    225 208.1  34.0  34134  289.14 0854.33
2009/04/23 16:42:35.3      -4   -173     21    174    176 181.6   7.1  34142  289.26 0854.33
2009/04/23 16:42:35.4       5   -218    -56    219    227 178.6 -14.3  34132  289.09 0854.33
2009/04/23 16:42:35.5     -83   -202      9    219    220 202.5   2.5  34130  289.08 0854.33
2009/04/23 16:42:35.6     -53   -132     17    143    145 201.8   6.9  34134  289.14 0854.33
2009/04/23 16:42:35.7     -24   -135     85    138    162 190.2  34.4  34140  289.24 0854.33
2009/04/23 16:42:35.8       1    -96     57     97    112 179.1  33.5  34142  289.28 0854.33
2009/04/23 16:42:35.9      65      0     70     66     96  90.8  51.2  34144  289.30 0854.33
2009/04/23 16:42:36.0     145    -20     99    147    177  98.0  37.3  34144  289.31 0854.33
2009/04/23 16:42:36.1     154    -33     55    158    168 102.4  19.2  34146  289.33 0854.33
2009/04/23 16:42:36.2     131    -36     59    136    148 105.5  25.1  34152  289.43 0854.33
2009/04/23 16:42:36.3     122    -20     70    124    142  99.6  31.4  34152  289.45 0854.33
2009/04/23 16:42:36.4      61    -44     29     76     81 126.0  21.5  34148  289.38 0854.33
2009/04/23 16:42:36.5     -18   -156     20    158    160 186.7   7.5  34148  289.38 0854.33
2009/04/23 16:42:36.6      12   -155     62    156    167 175.5  22.8  34144  289.30 0854.33
2009/04/23 16:42:36.7      -3   -177     83    178    196 181.1  26.6  34150  289.40 0854.34
2009/04/23 16:42:36.8     -38   -160     85    165    185 193.4  29.3  34148  289.38 0854.34
2009/04/23 16:42:36.9     -68   -134     63    151    163 207.2  23.8  34148  289.38 0854.34
2009/04/23 16:42:37.0       3   -225     72    226    238 179.0  17.7  34150  289.39 0854.34
2009/04/23 16:42:37.1       8   -222    103    223    245 177.8  26.6  34152  289.42 0854.34
2009/04/23 16:42:37.2      15   -184    185    185    261 175.1  50.1  34156  289.49 0854.34
2009/04/23 16:42:37.3       3   -194    159    195    251 179.0  43.7  34154  289.46 0854.34
2009/04/23 16:42:37.4      14   -201    158    202    256 175.8  42.0  34150  289.39 0854.34
2009/04/23 16:42:37.5      11   -154    127    155    200 175.6  43.7  34152  289.45 0854.34
2009/04/23 16:42:37.6     101    -89    157    135    207 131.3  54.8  34158  289.55 0854.34
2009/04/23 16:42:37.7     217   -140    178    259    314 122.9  37.9  34144  289.29 0854.34
2009/04/23 16:42:37.8     192   -161    199    251    320 130.0  42.4  34136  289.17 0854.34
2009/04/23 16:42:37.9     164   -232    151    285    322 144.8  30.2  34140  289.24 0854.34
2009/04/23 16:42:38.0     123   -308    196    332    385 158.2  33.4  34126  288.98 0854.34
2009/04/23 16:42:38.1      94   -280    272    296    401 161.3  47.3  34136  289.16 0854.34
2009/04/23 16:42:38.2     175   -213    193    276    336 140.6  38.5  34152  289.44 0854.34
2009/04/23 16:42:38.3     240   -169    103    294    312 125.1  19.4  34154  289.46 0854.34
2009/04/23 16:42:38.4     180   -230    125    293    318 141.9  24.6  34148  289.37 0854.34
2009/04/23 16:42:38.5     145   -252    200    291    353 150.1  37.8  34144  289.30 0854.34
2009/04/23 16:42:38.6     164   -242    204    293    357 145.8  38.3  34142  289.25 0854.34
2009/04/23 16:42:38.7     115   -227    226    255    340 153.0  46.3  34134  289.12 0854.34
2009/04/23 16:42:38.8     120   -187    177    223    284 147.3  42.7  34154  289.47 0854.34
2009/04/23 16:42:38.9      96   -174    151    199    249 151.0  41.2  34150  289.41 0854.34
2009/04/23 16:42:39.0     125    -99    111    160    194 128.6  38.0  34164  289.63 0854.34
2009/04/23 16:42:39.1     125   -159     72    203    215 141.7  20.0  34150  289.41 0854.34
2009/04/23 16:42:39.2      82   -181     48    199    205 155.5  13.7  34152  289.45 0854.34
2009/04/23 16:42:39.3      35   -129     22    134    136 164.9   9.5  34150  289.40 0854.34
2009/04/23 16:42:39.4      28    -68     62     74     96 157.3  44.3  34154  289.48 0854.34
2009/04/23 16:42:39.5      86    -70     48    111    120 129.1  25.1  34156  289.50 0854.34
2009/04/23 16:42:39.6      73   -103     37    127    133 144.4  16.3  34150  289.40 0854.34
2009/04/23 16:42:39.7     108    -64     22    126    128 120.7  10.1  34152  289.43 0854.34
2009/04/23 16:42:39.8      92    -28      2     97     98 107.3   1.2  34150  289.41 0854.34
2009/04/23 16:42:39.9     132    -14    -26    133    136  96.2 -11.3  34154  289.46 0854.34
2009/04/23 16:42:40.0     135    -23    -36    137    142  99.7 -15.0  34154  289.46 0854.34
2009/04/23 16:42:40.1      98      0    -34     99    104  90.0 -23.3  34158  289.53 0854.34
2009/04/23 16:42:40.2      90     25    -16     94     96  74.1  -9.8  34152  289.43 0854.34
2009/04/23 16:42:40.3     123     -3      6    124    125  91.7   2.9  34150  289.41 0854.34
2009/04/23 16:42:40.4     131    -18     16    133    134  97.9   6.9  34150  289.41 0854.34
2009/04/23 16:42:40.5     101     23      5    104    105  76.7   2.9  34150  289.41 0854.34
2009/04/23 16:42:40.6      64     35     -6     74     75  61.1  -5.2  34150  289.40 0854.34
2009/04/23 16:42:40.7      65     41    -57     78     96  57.6 -44.1  34156  289.50 0854.35
2009/04/23 16:42:40.8      67     54    -80     87    118  51.4 -52.3  34156  289.50 0854.35
2009/04/23 16:42:40.9      67     71    -65     98    117  43.2 -41.4  34160  289.58 0854.35
2009/04/23 16:42:41.0      18     -1    -51     19     54  94.4 -84.6  34164  289.65 0854.35
2009/04/23 16:42:41.1      23      0    -51     24     56  90.0 -77.5  34160  289.58 0854.35
2009/04/23 16:42:41.2      34    -11    -54     36     64 108.6 -68.0  34160  289.57 0854.35
2009/04/23 16:42:41.3      45    -55    -36     72     80 140.3 -33.1  34152  289.45 0854.35
2009/04/23 16:42:41.4      31    -48    -18     58     61 146.6 -17.6  34156  289.52 0854.35
2009/04/23 16:42:41.5      15    -55    -13     58     60 164.9 -13.4  34154  289.46 0854.35
2009/04/23 16:42:41.6      27    -56    -13     63     65 153.7 -12.4  34152  289.43 0854.35
2009/04/23 16:42:41.7      17    -43    -18     47     50 158.2 -25.4  34152  289.45 0854.35
2009/04/23 16:42:41.8      16    -40    -27     44     51 158.2 -39.9  34152  289.45 0854.35
2009/04/23 16:42:41.9      14    -43    -16     46     48 161.5 -23.3  34152  289.45 0854.35
2009/04/23 16:42:42.0       3    -29    -23     30     37 173.8 -46.1  34158  289.55 0854.35
2009/04/23 16:42:42.1      11    -10    -29     16     33 133.3 -73.2  34160  289.58 0854.35
2009/04/23 16:42:42.2      26      8    -34     28     44  71.6 -59.8  34158  289.55 0854.35
2009/04/23 16:42:42.3      49     15    -40     52     65  72.3 -46.1  34158  289.55 0854.35
2009/04/23 16:42:42.4      60     55    -41     82     91  47.3 -32.6  34154  289.46 0854.35
2009/04/23 16:42:42.5      46     56    -50     73     88  39.7 -42.0  34156  289.50 0854.35
2009/04/23 16:42:42.6      38     40    -58     56     80  44.1 -55.1  34158  289.53 0854.35
2009/04/23 16:42:42.7      79     57    -65     98    117  54.0 -41.4  34156  289.52 0854.34
2009/04/23 16:42:42.8      89     42    -34     99    104  64.7 -23.3  34152  289.43 0854.34
2009/04/23 16:42:42.9      86     31    -11     92     93  70.0  -7.3  34154  289.46 0854.34
2009/04/23 16:42:43.0      82     27     20     87     90  71.4  13.2  34158  289.55 0854.34
2009/04/23 16:42:43.2      73     14      9     75     76  78.6   6.9  34158  289.53 0854.34
2009/04/23 16:42:43.3      77     22      5     81     82  73.6   3.8  34156  289.52 0854.34
2009/04/23 16:42:43.4      58      9     19     59     63  80.3  18.4  34162  289.60 0854.34
2009/04/23 16:42:43.5      65     41      9     78     79  57.5   6.9  34158  289.53 0854.34
2009/04/23 16:42:43.6      75     46     22     89     92  58.5  14.3  34160  289.57 0854.34
2009/04/23 16:42:43.7      68     46     32     83     88  55.8  21.5  34164  289.63 0854.34
2009/04/23 16:42:43.8      46     22    -16     52     54  64.6 -23.8  34164  289.63 0854.34
2009/04/23 16:42:43.9      58     22    -21     63     66  69.2 -23.6  34164  289.65 0854.34
2009/04/23 16:42:44.0      41     14    -33     44     55  70.9 -45.1  34164  289.65 0854.34
2009/04/23 16:42:44.1      59     23    -23     64     68  68.3 -23.3  34156  289.50 0854.34
2009/04/23 16:42:44.2      70     17     -9     73     74  75.8  -7.2  34156  289.50 0854.34
2009/04/23 16:42:44.3      60      4      4     61     62  85.7   3.8  34158  289.53 0854.34
2009/04/23 16:42:44.4      71     -4     28     72     77  93.5  22.0  34162  289.60 0854.34
2009/04/23 16:42:44.5      60     -9     45     61     75  98.8  39.7  34164  289.63 0854.34
2009/04/23 16:42:44.6      60      4     28     61     67  85.6  26.2  34164  289.65 0854.34
2009/04/23 16:42:44.7      75     15     13     77     79  78.5  10.1  34164  289.65 0854.34
2009/04/23 16:42:44.8      65     17     30     68     74  74.9  25.1  34174  289.82 0854.33
2009/04/23 16:42:44.9      46      6     31     47     56  82.1  35.6  34178  289.89 0854.33
2009/04/23 16:42:45.0      36      8     50     38     62  76.7  58.5  34194  290.16 0854.33
2009/04/23 16:42:45.1      39     13     52     42     66  71.6  56.4  34198  290.21 0854.33
2009/04/23 16:42:45.2      50     -7     42     51     66  97.9  43.7  34180  289.92 0854.33
2009/04/23 16:42:45.3      62    -20     23     66     71 108.2  19.4  34172  289.77 0854.33
2009/04/23 16:42:45.4      84      0    -27     85     90  90.0 -17.6  34158  289.53 0854.33
2009/04/23 16:42:45.5      77      0     -2     78     79  90.0  -1.8  34160  289.58 0854.33
2009/04/23 16:42:45.6      82      0     -3     83     84  90.0  -2.2  34160  289.57 0854.33
2009/04/23 16:42:45.7      87      0      8     88     89  90.0   5.4  34166  289.69 0854.33
2009/04/23 16:42:45.8      60      0     56     61     82  89.2  47.9  34180  289.92 0854.32
2009/04/23 16:42:45.9      56    -30     66     64     91 118.9  50.1  34186  290.02 0854.32
2009/04/23 16:42:46.0      51    -37     59     64     87 126.0  47.9  34176  289.84 0854.32
2009/04/23 16:42:46.1      78    -34     85     86    120 113.5  50.0  34170  289.75 0854.32
2009/04/23 16:42:46.2     123    -33     75    128    148 105.1  33.4  34164  289.65 0854.32
2009/04/23 16:42:46.3     124     -8     74    125    145  93.9  33.5  34164  289.63 0854.32
2009/04/23 16:42:46.4     119      5     88    120    148  87.4  39.7  34194  290.16 0854.32
2009/04/23 16:42:46.5     140    -10    118    141    183  94.3  44.1  34178  289.87 0854.32
2009/04/23 16:42:46.6     141    -19    122    143    187  97.9  44.8  34174  289.82 0854.32
2009/04/23 16:42:46.7     110    -22    114    113    160 101.4  49.9  34174  289.80 0854.32
2009/04/23 16:42:46.8     104    -11     60    105    120  96.1  32.4  34164  289.63 0854.32
2009/04/23 16:42:46.9      84    -21     38     87     94 104.6  25.1  34160  289.57 0854.32
2009/04/23 16:42:47.0      92    -20     37     95    101 102.4  22.5  34160  289.58 0854.32
2009/04/23 16:42:47.1      59    -48     52     77     92 129.5  37.0  34156  289.52 0854.32
2009/04/23 16:42:47.2      43    -68     62     81    102 147.4  41.2  34150  289.40 0854.32
2009/04/23 16:42:47.3       2   -103     78    104    130 178.6  41.2  34148  289.36 0854.32
2009/04/23 16:42:47.4       0    -92     75     93    119 180.5  43.3  34150  289.40 0854.32
2009/04/23 16:42:47.5     -11    -98     62     99    116 186.7  35.5  34150  289.40 0854.32
2009/04/23 16:42:47.6      -9   -110     65    111    128 184.9  33.5  34150  289.41 0854.32
2009/04/23 16:42:47.7      -2   -130    112    131    172 181.0  44.8  34152  289.43 0854.32
2009/04/23 16:42:47.8      47   -261    104    266    285 169.8  22.8  34150  289.39 0854.32
2009/04/23 16:42:47.9      38   -253    139    256    291 171.3  31.0  34142  289.25 0854.32
2009/04/23 16:42:48.0      27   -245    143    247    285 173.5  32.9  34160  289.56 0854.32
2009/04/23 16:42:48.1      86   -195    165    214    270 156.2  41.7  34166  289.68 0854.32
2009/04/23 16:42:48.2      90   -184    113    205    234 153.9  31.4  34144  289.31 0854.32
2009/04/23 16:42:48.3      88   -170    111    192    221 152.6  32.9  34156  289.52 0854.32
2009/04/23 16:42:48.4      43   -258    119    262    287 170.4  26.2  34144  289.31 0854.32
2009/04/23 16:42:48.5      13   -296    131    297    324 177.3  25.6  34142  289.27 0854.32
2009/04/23 16:42:48.6      61   -326    118    332    353 169.3  19.6  34146  289.32 0854.32
2009/04/23 16:42:48.7      76   -288    108    298    316 165.1  20.8  34146  289.34 0854.32
2009/04/23 16:42:48.8      46   -247    115    252    277 169.3  26.2  34144  289.29 0854.32
2009/04/23 16:42:48.9      18   -309    103    310    327 176.6  18.4  34146  289.32 0854.32
2009/04/23 16:42:49.0      24   -317     76    319    329 175.5  13.5  34152  289.44 0854.32
2009/04/23 16:42:49.1     -17   -278     77    279    290 183.6  15.6  34154  289.46 0854.32
2009/04/23 16:42:49.2     -20   -315    129    316    341 183.8  23.4  34148  289.37 0854.32
2009/04/23 16:42:49.3     -16   -316    121    317    339 182.9  21.8  34146  289.32 0854.32
2009/04/23 16:42:49.4      21   -280     77    281    292 175.6  15.3  34146  289.34 0854.32
2009/04/23 16:42:49.5      26   -174     67    177    189 171.3  21.7  34150  289.40 0854.32
2009/04/23 16:42:49.6      52   -227     13    233    234 167.1   3.3  34144  289.31 0854.32
2009/04/23 16:42:49.7      52   -188     34    196    199 164.6   9.9  34144  289.30 0854.32
2009/04/23 16:42:49.8      46   -125    114    134    175 159.9  44.8  34146  289.33 0854.32
2009/04/23 16:42:49.9      11   -138    110    139    177 175.1  42.7  34144  289.30 0854.32
2009/04/23 16:42:50.0     -56   -161    131    171    215 199.4  41.6  34152  289.43 0854.32
2009/04/23 16:42:50.1      14   -133     84    134    158 173.7  35.2  34150  289.40 0854.32
2009/04/23 16:42:50.2     -40   -255    105    259    279 188.9  23.1  34144  289.31 0854.32
2009/04/23 16:42:50.3     -44   -184    138    190    234 193.6  39.7  34148  289.38 0854.32
2009/04/23 16:42:50.4     -64   -223    156    233    280 196.0  37.0  34148  289.36 0854.32
2009/04/23 16:42:50.5     -68   -219    128    230    263 197.4  31.4  34152  289.42 0854.32
2009/04/23 16:42:50.6     -68   -253    116    263    287 195.2  25.2  34152  289.42 0854.32
2009/04/23 16:42:50.7     -92   -252    130    269    298 200.1  27.3  34160  289.58 0854.32
2009/04/23 16:42:50.8     -96   -277    132    294    322 199.1  25.9  34162  289.59 0854.32
2009/04/23 16:42:50.9     -92   -244     91    261    277 200.7  19.2  34158  289.53 0854.32
2009/04/23 16:42:51.0    -108   -280     24    301    302 201.2   4.6  34152  289.42 0854.32
2009/04/23 16:42:51.1     -92   -240     36    258    261 200.9   8.0  34158  289.54 0854.32
2009/04/23 16:42:51.2     -50   -212     56    218    226 193.3  14.5  34168  289.70 0854.32
2009/04/23 16:42:51.3     -10   -175    102    176    203 183.4  33.1  34148  289.38 0854.32
2009/04/23 16:42:51.4     -45   -133    130    141    191 198.7  47.7  34150  289.41 0854.32
2009/04/23 16:42:51.5     -72   -246    118    257    282 196.3  26.2  34136  289.15 0854.32
2009/04/23 16:42:51.6     -58   -234    100    242    261 194.0  23.6  34140  289.22 0854.32
2009/04/23 16:42:51.7     -34   -223     80    226    240 188.9  19.6  34142  289.25 0854.32
2009/04/23 16:42:51.8     -29   -246     68    248    258 186.9  15.3  34138  289.19 0854.33
2009/04/23 16:42:51.9     -28   -276     59    278    285 186.0  12.1  34142  289.25 0854.33
2009/04/23 16:42:52.0     -23   -298     58    299    305 184.5  11.1  34150  289.41 0854.33
2009/04/23 16:42:52.1     -23   -310    112    311    330 184.4  20.4  34136  289.15 0854.33
2009/04/23 16:42:52.2     -19   -377     53    378    382 182.9   8.0  34138  289.20 0854.33
2009/04/23 16:42:52.3      -6   -368      9    369    370 181.0   1.5  34144  289.30 0854.33
2009/04/23 16:42:52.4     -21   -335     79    336    346 183.6  13.3  34158  289.54 0854.33
2009/04/23 16:42:52.5     -16   -346     72    347    355 182.8  11.8  34152  289.42 0854.33
2009/04/23 16:42:52.6      83   -370     33    380    382 167.3   5.0  34138  289.20 0854.33
2009/04/23 16:42:52.7     119   -358     11    378    379 161.5   1.8  34138  289.21 0854.33
2009/04/23 16:42:52.8      44   -349     39    352    355 172.8   6.4  34146  289.35 0854.33
2009/04/23 16:42:52.9      77   -363     81    372    381 168.0  12.4  34146  289.33 0854.33
2009/04/23 16:42:53.0      91   -311    141    325    354 163.7  25.1  34144  289.30 0854.33
2009/04/23 16:42:53.1     218   -386    184    444    480 150.5  23.9  34152  289.45 0854.33
2009/04/23 16:42:53.2     191   -321    154    374    404 149.2  23.8  34160  289.57 0854.33
2009/04/23 16:42:53.3     153   -296    156    334    368 152.7  27.1  34172  289.76 0854.33
2009/04/23 16:42:53.4     115   -301    147    323    354 159.1  26.2  34168  289.72 0854.33
2009/04/23 16:42:53.5      83   -344    137    354    379 166.4  22.3  34134  289.13 0854.33
2009/04/23 16:42:53.6     120   -375    155    394    423 162.2  22.7  34134  289.12 0854.33
2009/04/23 16:42:53.7      48   -346    191    350    398 172.1  30.9  34138  289.20 0854.33
2009/04/23 16:42:53.8      -1   -364    174    365    404 180.3  27.3  34136  289.16 0854.32
2009/04/23 16:42:53.9     -37   -371    142    373    399 185.8  21.8  34144  289.30 0854.32
2009/04/23 16:42:54.0     -26   -342    112    344    362 184.5  18.0  34144  289.30 0854.32
2009/04/23 16:42:54.1     -33   -303     79    305    316 186.2  14.6  34144  289.31 0854.32
2009/04/23 16:42:54.2    -128   -341     24    365    366 200.6   3.8  34148  289.38 0854.32
2009/04/23 16:42:54.3    -102   -337     17    353    354 196.9   2.9  34146  289.35 0854.32
2009/04/23 16:42:54.4    -130   -349     41    373    376 200.4   6.4  34144  289.30 0854.32
2009/04/23 16:42:54.5    -111   -354     24    372    373 197.4   3.7  34142  289.25 0854.32
2009/04/23 16:42:54.6     -51   -338     14    342    343 188.7   2.4  34130  289.08 0854.32
2009/04/23 16:42:54.7     -60   -377    -24    382    383 189.1  -3.7  34138  289.20 0854.32
2009/04/23 16:42:54.8     -32   -369    -46    371    374 185.0  -7.2  34140  289.23 0854.32
2009/04/23 16:42:54.9     -15   -333    -53    334    339 182.6  -9.0  34138  289.20 0854.32
2009/04/23 16:42:55.0       0   -350    -21    351    352 179.9  -3.5  34132  289.10 0854.32
2009/04/23 16:42:55.1     -25   -351    -25    352    353 184.1  -4.1  34134  289.13 0854.32
2009/04/23 16:42:55.2      -9   -342     10    343    344 181.6   1.7  34122  288.93 0854.32
2009/04/23 16:42:55.3     -11   -319     -1    320    321 182.0  -0.3  34128  289.02 0854.32
2009/04/23 16:42:55.4     -45   -290      1    294    295 188.9   0.2  34134  289.12 0854.32
2009/04/23 16:42:55.5      18   -318     13    319    320 176.6   2.3  34120  288.88 0854.32
2009/04/23 16:42:55.6      47   -336     41    340    343 171.9   6.9  34116  288.82 0854.32
2009/04/23 16:42:55.7      77   -301     81    311    322 165.5  14.7  34110  288.73 0854.32
2009/04/23 16:42:55.8      53   -279     56    285    291 169.1  11.1  34114  288.78 0854.32
2009/04/23 16:42:55.9      47   -303     81    307    318 171.1  14.9  34114  288.78 0854.32
2009/04/23 16:42:56.0      58   -321     76    327    336 169.8  13.1  34114  288.79 0854.32
2009/04/23 16:42:56.1      25   -321     73    323    332 175.5  12.8  34114  288.78 0854.32
2009/04/23 16:42:56.2      55   -323     77    328    337 170.2  13.3  34116  288.81 0854.32
2009/04/23 16:42:56.3      36   -294     64    297    304 172.9  12.2  34114  288.78 0854.32
2009/04/23 16:42:56.4      39   -304     56    307    313 172.7  10.3  34112  288.76 0854.32
2009/04/23 16:42:56.5      43   -302     26    306    308 171.9   5.0  34110  288.73 0854.32
2009/04/23 16:42:56.6      38   -274     54    277    283 172.0  11.1  34112  288.75 0854.32
2009/04/23 16:42:56.7       7   -249     73    250    261 178.2  16.3  34114  288.78 0854.32
2009/04/23 16:42:56.8      -2   -231     57    232    240 180.7  13.9  34120  288.88 0854.32
2009/04/23 16:42:56.9      41   -259     51    263    269 170.9  11.1  34106  288.66 0854.32
2009/04/23 16:42:57.0     103   -219     12    243    244 154.7   2.9  34100  288.56 0854.32
2009/04/23 16:42:57.1      75   -236     -4    248    249 162.2  -1.1  34098  288.51 0854.32
2009/04/23 16:42:57.2      78   -236     22    249    251 161.5   5.2  34108  288.70 0854.32
2009/04/23 16:42:57.3     109   -238     37    263    266 155.3   8.0  34108  288.68 0854.32
2009/04/23 16:42:57.4     142   -211     46    255    260 145.9  10.3  34104  288.63 0854.32
2009/04/23 16:42:57.5     133   -208     21    247    248 147.4   4.9  34116  288.83 0854.32
2009/04/23 16:42:57.6      91   -210     83    229    244 156.6  19.9  34100  288.56 0854.32
2009/04/23 16:42:57.7     124   -205     47    240    245 148.8  11.1  34102  288.59 0854.32
2009/04/23 16:42:57.8     128   -189     62    229    238 145.8  15.2  34104  288.63 0854.31
2009/04/23 16:42:57.9     140   -205     74    249    260 145.7  16.6  34104  288.63 0854.31
2009/04/23 16:42:58.0     171   -210     42    272    276 140.8   8.9  34108  288.70 0854.31
2009/04/23 16:42:58.1     126   -178     68    219    230 144.8  17.3  34110  288.74 0854.31
2009/04/23 16:42:58.2     158   -156     72    223    235 134.7  17.9  34116  288.82 0854.31
2009/04/23 16:42:58.3     171   -188     -1    255    256 137.7  -0.3  34116  288.83 0854.31
2009/04/23 16:42:58.4     114   -215     54    244    251 152.1  12.6  34124  288.97 0854.31
2009/04/23 16:42:58.5      22   -224     24    226    228 174.2   6.1  34130  289.06 0854.31
2009/04/23 16:42:58.6      99   -251    -15    270    271 158.4  -3.3  34130  289.05 0854.31
2009/04/23 16:42:58.7     128   -201     77    239    252 147.5  17.9  34124  288.95 0854.31
2009/04/23 16:42:58.8     207   -258    101    331    347 141.3  17.0  34120  288.89 0854.31
2009/04/23 16:42:58.9     204   -247     54    321    326 140.3   9.7  34122  288.93 0854.31
2009/04/23 16:42:59.0     190   -230     58    299    305 140.4  11.0  34122  288.92 0854.31
2009/04/23 16:42:59.1     145   -181     84    232    246 141.3  20.9  34124  288.97 0854.31
2009/04/23 16:42:59.2     149   -148    104    211    235 134.7  28.2  34126  288.99 0854.31
2009/04/23 16:42:59.3      65   -178    172    190    256 159.7  47.0  34130  289.05 0854.31
2009/04/23 16:42:59.4      55   -148    156    159    222 159.5  49.8  34142  289.28 0854.31
2009/04/23 16:42:59.5     104   -173    141    202    246 149.0  38.4  34134  289.14 0854.31
2009/04/23 16:42:59.6     134   -217    100    256    274 148.4  22.5  34126  288.98 0854.31
2009/04/23 16:42:59.7     150   -225    127    271    299 146.2  27.1  34126  288.98 0854.31
2009/04/23 16:42:59.8     114   -198    157    229    277 149.9  37.6  34132  289.09 0854.31
2009/04/23 16:42:59.9     118   -225    153    255    297 152.4  33.7  34128  289.03 0854.31
2009/04/23 16:43:00.0      85   -226    141    242    280 159.3  32.9  34138  289.20 0854.31
2009/04/23 16:43:00.1     105   -226    144    250    288 155.1  32.7  34134  289.14 0854.31
2009/04/23 16:43:00.2     110   -275     94    297    312 158.1  17.7  34126  288.98 0854.31
2009/04/23 16:43:00.3     104   -301     68    319    327 160.9  12.0  34120  288.90 0854.31
2009/04/23 16:43:00.4      90   -370     30    381    383 166.3   4.6  34112  288.77 0854.31
2009/04/23 16:43:00.5      84   -378     41    388    391 167.4   6.1  34112  288.77 0854.31
2009/04/23 16:43:00.6      59   -368     33    373    375 170.9   5.1  34120  288.88 0854.31
2009/04/23 16:43:00.7      48   -345     94    349    362 172.1  15.2  34120  288.89 0854.31
2009/04/23 16:43:00.8     106   -391     32    406    408 164.8   4.6  34116  288.82 0854.31
2009/04/23 16:43:00.9      68   -339     89    346    358 168.6  14.5  34112  288.77 0854.31
2009/04/23 16:43:01.0      49   -326     63    330    336 171.3  10.8  34118  288.86 0854.31
2009/04/23 16:43:01.1       7   -306     80    307    318 178.6  14.7  34108  288.70 0854.31
2009/04/23 16:43:01.3      69   -315     69    323    331 167.5  12.1  34112  288.76 0854.31
2009/04/23 16:43:01.3      41   -403      1    406    407 174.2   0.2  34116  288.82 0854.31
2009/04/23 16:43:01.4      -3   -378     45    379    382 180.6   6.9  34116  288.84 0854.31
2009/04/23 16:43:01.5      29   -220    167    222    277 172.4  40.7  34118  288.85 0854.31
2009/04/23 16:43:01.6      58   -201    159    210    263 163.7  40.7  34124  288.95 0854.31
2009/04/23 16:43:01.7      35   -249    156    252    296 171.9  34.8  34134  289.14 0854.31
2009/04/23 16:43:01.8      40   -230    144    234    274 170.0  34.5  34128  289.03 0854.31
2009/04/23 16:43:01.9      75   -297     99    307    323 165.7  17.9  34128  289.02 0854.31
2009/04/23 16:43:02.0      32   -297    137    299    328 173.8  26.4  34130  289.05 0854.31
2009/04/23 16:43:02.1      57   -332    137    338    364 170.2  23.4  34136  289.18 0854.31
2009/04/23 16:43:02.2     164   -262    108    310    328 147.9  20.0  34128  289.02 0854.31
2009/04/23 16:43:02.3     133   -260    117    293    315 152.8  23.0  34138  289.20 0854.31
2009/04/23 16:43:02.4     126   -260    121    289    313 154.1  24.1  34150  289.39 0854.31
2009/04/23 16:43:02.5      64   -326    116    333    353 168.8  19.3  34128  289.03 0854.31
2009/04/23 16:43:02.6      30   -242    109    244    267 172.8  25.7  34126  289.00 0854.31
2009/04/23 16:43:02.7      27   -237     92    239    256 173.3  22.1  34134  289.12 0854.31
2009/04/23 16:43:02.8      17   -220    126    221    254 175.5  32.3  34128  289.02 0854.31
2009/04/23 16:43:02.9      73   -229     87    241    257 162.2  19.9  34114  288.78 0854.31
2009/04/23 16:43:03.0      75   -200     58    214    222 159.3  15.3  34114  288.79 0854.31
2009/04/23 16:43:03.1      33   -184    117    188    221 169.8  35.2  34110  288.72 0854.31
2009/04/23 16:43:03.2      80   -125    123    149    193 147.5  43.7  34122  288.92 0854.31
2009/04/23 16:43:03.3     120   -133    108    180    209 137.9  33.7  34122  288.94 0854.31
2009/04/23 16:43:03.4     122   -113     96    167    192 132.9  32.7  34116  288.84 0854.31
2009/04/23 16:43:03.5     126   -113     87    170    190 132.0  29.1  34118  288.87 0854.31
2009/04/23 16:43:03.6      92    -79      1    122    123 130.9   0.8  34116  288.84 0854.31
2009/04/23 16:43:03.7     103    -48    -27    114    118 115.2 -13.4  34120  288.91 0854.31
2009/04/23 16:43:03.8     146      3    -49    147    154  88.7 -23.6  34122  288.94 0854.31
2009/04/23 16:43:03.9     113     13    -40    114    120  83.4 -24.4  34124  288.96 0854.31
2009/04/23 16:43:04.0      71      9    -63     72     95  82.1 -50.2  34126  289.01 0854.31
2009/04/23 16:43:04.1      66    -29    -66     73     98 113.5 -51.9  34128  289.04 0854.31
2009/04/23 16:43:04.2      52    -55    -52     76     92 136.8 -42.0  34124  288.97 0854.31
2009/04/23 16:43:04.3      75      0    -49     76     90  90.0 -40.0  34124  288.97 0854.31
2009/04/23 16:43:04.4      62     -3    -61     63     87  93.5 -54.4  34126  288.99 0854.31
2009/04/23 16:43:04.5      42      1    -45     43     62  88.3 -55.6  34128  289.04 0854.31
2009/04/23 16:43:04.6      52    -21    -50     57     75 111.7 -50.2  34124  288.96 0854.31
2009/04/23 16:43:04.7      67    -15     -2     69     70 103.3  -2.2  34124  288.97 0854.31
2009/04/23 16:43:04.8      53    -17     31     56     64 108.2  31.4  34124  288.96 0854.31
2009/04/23 16:43:04.9      71    -19     35     74     81 105.1  26.6  34124  288.97 0854.31
2009/04/23 16:43:05.0      58    -19     37     62     72 108.2  34.4  34126  289.01 0854.31
2009/04/23 16:43:05.1      60    -20     54     64     83 108.4  45.4  34134  289.13 0854.31
2009/04/23 16:43:05.2      39     -7     60     40     72 100.6  63.6  34146  289.33 0854.31
2009/04/23 16:43:05.3      -3      8     43      9     43 334.6  88.0  34166  289.69 0854.31
2009/04/23 16:43:05.4     -20      0     48     21     52 270.8  75.0  34182  289.96 0854.31
2009/04/23 16:43:05.5     -26    -55     73     61     95 205.3  56.3  34150  289.41 0854.31
2009/04/23 16:43:05.6     -38   -110     84    117    144 199.2  39.5  34138  289.19 0854.31
2009/04/23 16:43:05.7     -42    -86     30     97    102 206.3  17.3  34138  289.21 0854.31
2009/04/23 16:43:05.8     -67   -100     31    121    126 213.8  14.7  34134  289.14 0854.32
2009/04/23 16:43:05.9     -62   -106      2    123    124 210.3   1.2  34134  289.14 0854.32
2009/04/23 16:43:06.0     -76    -61     47     98    108 231.4  27.2  34140  289.24 0854.32
2009/04/23 16:43:06.1     -56   -110     42    124    132 207.2  18.9  34136  289.18 0854.32
2009/04/23 16:43:06.2     -54   -124     49    136    144 203.6  20.0  34136  289.16 0854.32
2009/04/23 16:43:06.3     -20   -102     74    104    127 191.1  39.5  34142  289.28 0854.32
2009/04/23 16:43:06.4     -35   -131     56    136    147 195.1  23.1  34132  289.09 0854.32
2009/04/23 16:43:06.5     -18   -100     97    102    140 190.7  48.0  34144  289.31 0854.32
2009/04/23 16:43:06.6      -9   -103    126    104    163 185.3  56.4  34150  289.40 0854.32
2009/04/23 16:43:06.7     -68   -142     97    158    185 205.5  34.8  34136  289.16 0854.32
2009/04/23 16:43:06.8     -15   -131    149    132    199 186.7  54.0  34150  289.40 0854.31
2009/04/23 16:43:06.9     -15   -106     98    108    145 188.5  47.9  34136  289.18 0854.31
2009/04/23 16:43:07.0       5    -93     95     94    133 176.4  50.1  34154  289.46 0854.31
2009/04/23 16:43:07.1      42    -51     77     67    102 140.4  54.3  34156  289.50 0854.31
2009/04/23 16:43:07.2      62    -57    104     85    134 132.7  56.4  34152  289.45 0854.31
2009/04/23 16:43:07.3      69    -96     87    119    147 144.0  39.7  34144  289.30 0854.31
2009/04/23 16:43:07.4      29    -66    103     73    126 156.4  61.1  34146  289.35 0854.31
2009/04/23 16:43:07.5      16   -132     88    134    160 172.9  36.5  34146  289.35 0854.31
2009/04/23 16:43:07.6     -40   -162    148    167    223 194.0  46.2  34140  289.23 0854.31
2009/04/23 16:43:07.7    -119   -215     82    247    261 209.0  18.4  34132  289.09 0854.31
2009/04/23 16:43:07.8     -74   -274    128    284    311 195.2  26.2  34152  289.42 0854.31
2009/04/23 16:43:07.9     -75   -207     60    221    230 200.0  15.2  34142  289.26 0854.31
2009/04/23 16:43:08.0     -36   -176     64    180    192 191.6  19.6  34158  289.53 0854.31
2009/04/23 16:43:08.1     -17   -207     41    208    213 184.7  11.1  34154  289.48 0854.31
2009/04/23 16:43:08.2     -65   -166     21    179    181 201.6   6.9  34150  289.40 0854.31
2009/04/23 16:43:08.3    -121   -114     12    167    168 226.9   4.2  34154  289.46 0854.31
2009/04/23 16:43:08.4    -108    -78    -35    134    139 234.1 -15.0  34152  289.45 0854.31
2009/04/23 16:43:08.5     -89    -57    -39    106    112 237.1 -24.8  34150  289.40 0854.31
2009/04/23 16:43:08.6     -48    -45    -29     67     73 226.9 -29.5  34144  289.31 0854.31
2009/04/23 16:43:08.7     -95    -46    -26    106    110 244.2 -13.9  34144  289.30 0854.31
2009/04/23 16:43:08.8    -103     -7    -20    104    106 265.6 -10.9  34146  289.33 0854.31
2009/04/23 16:43:08.9     -40    -34    -19     53     56 229.6 -23.3  34132  289.09 0854.31
2009/04/23 16:43:09.0     -37    -86    -63     94    113 203.6 -40.9  34142  289.26 0854.31
2009/04/23 16:43:09.1      77     23     62     81    102  73.2  41.2  34142  289.26 0854.31
2009/04/23 16:43:09.2     152   -118    135    193    235 127.8  38.6  34154  289.48 0854.31
2009/04/23 16:43:09.3     127   -165    178    209    274 142.4  44.8  34162  289.59 0854.31
2009/04/23 16:43:09.4     101   -172    154    200    252 149.5  41.6  34164  289.64 0854.31
2009/04/23 16:43:09.5      16   -227    195    228    300 175.8  44.9  34152  289.42 0854.31
2009/04/23 16:43:09.6    -109   -302    125    322    345 200.0  22.3  34162  289.60 0854.31
2009/04/23 16:43:09.7    -115   -272     25    296    298 202.9   4.9  34150  289.41 0854.31
2009/04/23 16:43:09.8    -104   -315     63    332    338 198.4  10.8  34152  289.42 0854.31
2009/04/23 16:43:09.9     -94   -272     14    288    289 199.1   2.8  34150  289.41 0854.31
2009/04/23 16:43:10.1     -82   -275     41    288    292 196.7   8.2  34154  289.46 0854.31
2009/04/23 16:43:10.2     -33   -288     12    290    291 186.7   2.5  34134  289.12 0854.31
2009/04/23 16:43:10.3    -114   -371    142    389    414 197.2  21.0  34152  289.44 0854.31
2009/04/23 16:43:10.4     -30   -191      7    194    195 189.1   2.1  34138  289.21 0854.31
2009/04/23 16:43:10.5    -197   -237     29    309    311 219.7   5.4  34148  289.36 0854.31
2009/04/23 16:43:10.6    -201   -266     23    334    335 217.1   4.0  34152  289.42 0854.31
2009/04/23 16:43:10.7    -174   -111     73    207    220 237.5  19.6  34172  289.77 0854.31
2009/04/23 16:43:10.8    -113    -94     -3    148    149 230.4  -1.3  34172  289.79 0854.31
2009/04/23 16:43:10.9    -147   -122    -57    192    200 230.4 -21.7  34156  289.50 0854.29
2009/04/23 16:43:11.0    -174     35     56    178    187 281.4  17.7  34168  289.72 0854.29
2009/04/23 16:43:11.1    -135     10     82    136    158 274.4  34.0  34184  289.99 0854.29
2009/04/23 16:43:11.2    -106     54     45    120    128 297.1  21.0  34178  289.87 0854.29
2009/04/23 16:43:11.3    -148     92     21    175    177 302.0   6.9  34182  289.94 0854.29
2009/04/23 16:43:11.4    -135     42     64    142    155 287.3  26.2  34194  290.16 0854.29
2009/04/23 16:43:11.5    -191      6     43    192    197 271.9  12.9  34198  290.21 0854.29
2009/04/23 16:43:11.6    -163      4     79    164    182 271.7  27.3  34206  290.36 0854.29
2009/04/23 16:43:11.7    -189      1     67    190    201 270.4  20.0  34226  290.70 0854.29
2009/04/23 16:43:11.8    -222     40     -4    226    227 280.4  -1.3  34196  290.18 0854.29
2009/04/23 16:43:11.9    -225     57    -11    233    234 284.2  -2.8  34198  290.20 0854.29
2009/04/23 16:43:12.0    -235    -37     28    238    240 261.0   6.9  34210  290.41 0854.29
2009/04/23 16:43:12.1    -248    -40     -5    252    253 260.8  -1.3  34216  290.51 0854.29
2009/04/23 16:43:12.2    -199    -46     24    205    207 256.8   6.9  34216  290.52 0854.29
2009/04/23 16:43:12.3    -197    -98     -8    221    222 243.4  -2.2  34204  290.31 0854.29
2009/04/23 16:43:12.4    -179    -58    -23    189    191 252.1  -7.2  34164  289.65 0854.29
2009/04/23 16:43:12.5    -141    -38    -52    147    157 254.9 -19.7  34158  289.53 0854.29
2009/04/23 16:43:12.6    -173    -57    -62    183    193 251.8 -23.3  34158  289.55 0854.29
2009/04/23 16:43:12.7    -207    -43      0    212    213 258.1   0.2  34220  290.58 0854.29
2009/04/23 16:43:12.8    -182    -31     64    185    196 260.3  19.2  34216  290.52 0854.29
2009/04/23 16:43:12.9    -255   -146    -32    294    296 240.2  -6.2  34142  289.25 0854.30
2009/04/23 16:43:13.0    -275    -71    -27    285    287 255.4  -5.6  34154  289.47 0854.30
2009/04/23 16:43:13.1    -248    -30    -79    250    263 263.0 -17.6  34148  289.36 0854.30
2009/04/23 16:43:13.2    -251    -19    -39    252    255 265.6  -8.8  34156  289.51 0854.30
2009/04/23 16:43:13.3    -259     67    -36    268    271 284.6  -7.7  34202  290.27 0854.30
2009/04/23 16:43:13.4    -252     22    -87    254    269 275.2 -18.9  34152  289.42 0854.30
2009/04/23 16:43:13.5    -220     -3    -39    221    225 269.1 -10.1  34176  289.84 0854.30
2009/04/23 16:43:13.6    -250     23    -55    252    259 275.5 -12.4  34188  290.03 0854.30
2009/04/23 16:43:13.7    -265      3    -94    266    282 270.8 -24.6  34148  289.37 0854.30
2009/04/23 16:43:13.8    -240    -26    -82    242    255 263.8 -23.6  34176  289.83 0854.30
2009/04/23 16:43:13.9    -251   -105    -20    273    274 247.3  -4.4  34186  290.02 0854.30
2009/04/23 16:43:14.0    -260    -70    -59    270    277 254.9 -12.4  34172  289.78 0854.30
2009/04/23 16:43:14.1    -278    -46    -92    282    296 260.5 -23.6  34132  289.10 0854.30
2009/04/23 16:43:14.2    -273    -33   -111    276    297 263.0 -27.4  34142  289.25 0854.30
2009/04/23 16:43:14.3    -245    -42    -99    249    267 260.1 -27.4  34158  289.53 0854.30
2009/04/23 16:43:14.4    -244    -65    -97    253    270 255.0 -26.4  34148  289.37 0854.30
2009/04/23 16:43:14.5    -184   -107    -65    213    222 239.8 -22.1  34152  289.45 0854.30
2009/04/23 16:43:14.6    -213   -135    -78    253    264 237.5 -22.3  34182  289.93 0854.30
2009/04/23 16:43:14.7    -232    -95   -166    251    300 247.6 -40.9  34136  289.15 0854.30
2009/04/23 16:43:14.8    -220   -130   -154    256    298 239.3 -38.1  34128  289.02 0854.30
2009/04/23 16:43:14.9    -231   -109   -163    256    303 244.6 -39.9  34148  289.37 0854.30
2009/04/23 16:43:15.0    -302    -81   -120    313    335 254.9 -26.4  34160  289.56 0854.30
2009/04/23 16:43:15.1    -204   -202    -31    288    290 225.3  -6.2  34168  289.70 0854.30
2009/04/23 16:43:15.2     -98   -209   -109    231    255 205.2 -31.5  34140  289.24 0854.30
2009/04/23 16:43:15.3    -272   -139   -115    306    326 242.9 -25.9  34154  289.47 0854.30
2009/04/23 16:43:15.4    -293   -133   -163    322    360 245.6 -33.5  34178  289.89 0854.30
2009/04/23 16:43:15.5    -227   -121   -155    258    300 242.0 -38.1  34164  289.63 0854.30
2009/04/23 16:43:15.6    -252    -79   -203    265    333 252.5 -45.8  34162  289.59 0854.30
2009/04/23 16:43:15.7    -291    -46   -153    295    332 261.0 -34.0  34158  289.54 0854.30
2009/04/23 16:43:15.8    -318   -102   -135    334    360 252.2 -27.5  34140  289.23 0854.30
2009/04/23 16:43:15.9    -295    -79   -148    306    339 255.0 -32.1  34142  289.25 0854.30
2009/04/23 16:43:16.0    -286   -109   -161    307    346 249.1 -34.4  34146  289.32 0854.30
2009/04/23 16:43:16.1    -263   -181   -156    320    356 235.4 -32.4  34146  289.33 0854.30
2009/04/23 16:43:16.2    -297   -207   -130    363    386 235.2 -19.8  34180  289.91 0854.30
2009/04/23 16:43:16.3    -285   -151   -115    323    342 242.1 -24.7  34166  289.67 0854.30
2009/04/23 16:43:16.4    -235    -25    -79    237    249 263.9 -23.6  34204  290.32 0854.30
2009/04/23 16:43:16.5    -211     13    -15    212    213 273.7  -4.1  34218  290.57 0854.30
2009/04/23 16:43:16.6    -140     53    -47    150    158 290.8 -17.6  34222  290.62 0854.30
2009/04/23 16:43:16.7    -111     86    -33    141    145 307.7 -13.3  34226  290.70 0854.30
2009/04/23 16:43:16.8    -150     59    -46    162    168 291.7 -20.7  34222  290.64 0854.30
2009/04/23 16:43:16.9    -137     14    -67    138    153 276.2 -31.7  34212  290.47 0854.27
2009/04/23 16:43:17.0    -135     44    -39    143    149 288.2 -15.5  34232  290.79 0854.27
2009/04/23 16:43:17.1    -155     60    -51    167    174 291.3 -22.5  34234  290.82 0854.27
2009/04/23 16:43:17.2    -131     83    -47    156    162 302.4 -21.7  34230  290.77 0854.27
2009/04/23 16:43:17.3    -154     87    -32    177    181 299.5 -10.5  34230  290.77 0854.27
2009/04/23 16:43:17.4    -167    112    -11    202    203 304.0  -3.1  34226  290.69 0854.27
2009/04/23 16:43:17.5     -99     92    -12    136    137 312.7  -5.2  34222  290.64 0854.27
2009/04/23 16:43:17.6    -123     78     32    147    151 302.5  12.6  34218  290.57 0854.27
2009/04/23 16:43:17.7    -156    127     -4    202    203 309.1  -1.3  34236  290.87 0854.27
2009/04/23 16:43:17.8    -117     96    -45    152    159 309.5 -16.8  34232  290.81 0854.27
2009/04/23 16:43:17.9    -157     82     10    178    179 297.8   3.3  34234  290.84 0854.27
2009/04/23 16:43:18.0    -183     82    -17    201    202 294.2  -4.9  34226  290.69 0854.27
2009/04/23 16:43:18.1    -181     83    -24    200    202 294.8  -6.9  34224  290.67 0854.27
2009/04/23 16:43:18.2    -206     37     16    210    211 280.4   4.6  34230  290.75 0854.27
2009/04/23 16:43:18.3    -208     74    -12    222    223 289.7  -3.1  34240  290.92 0854.27
2009/04/23 16:43:18.4    -114     72    -37    135    141 302.4 -15.4  34238  290.91 0854.27
2009/04/23 16:43:18.5    -230     56    -58    237    245 283.9 -13.9  34214  290.48 0854.27
2009/04/23 16:43:18.6    -294     22   -105    295    313 274.4 -24.8  34210  290.42 0854.27
2009/04/23 16:43:18.7    -254     42    -98    258    275 279.5 -26.4  34218  290.54 0854.27
2009/04/23 16:43:18.8    -223     17    -64    224    232 274.4 -21.0  34214  290.48 0854.27
2009/04/23 16:43:18.9    -202     51    -60    209    218 284.4 -16.0  34226  290.69 0854.27
2009/04/23 16:43:19.0    -192     56    -82    201    217 286.4 -27.5  34212  290.47 0854.27
2009/04/23 16:43:19.1    -132      1    -86    133    158 270.8 -40.4  34224  290.67 0854.27
2009/04/23 16:43:19.2    -109    -48    -51    120    130 246.0 -29.0  34224  290.67 0854.27
2009/04/23 16:43:19.3     -99     -7    -52    100    112 265.7 -33.7  34226  290.69 0854.27
2009/04/23 16:43:19.4     -76    -43    -28     88     92 240.2 -23.3  34226  290.70 0854.27
2009/04/23 16:43:19.5     -62    -95    -34    114    118 213.0 -21.7  34230  290.75 0854.27
2009/04/23 16:43:19.6     -77   -104    -42    130    137 216.5 -18.1  34226  290.70 0854.27
2009/04/23 16:43:19.7     -89    -93    -16    130    132 223.7  -7.3  34234  290.82 0854.27
2009/04/23 16:43:19.8     -77    -93     12    122    123 219.6   5.9  34240  290.92 0854.27
2009/04/23 16:43:19.9     -50    -63     14     81     83 218.7  10.1  34238  290.91 0854.27
2009/04/23 16:43:20.0     -39    -63     22     75     79 211.6  16.8  34240  290.92 0854.27
2009/04/23 16:43:20.1     -15    -80     37     82     89 190.7  26.2  34240  290.92 0854.27
2009/04/23 16:43:20.2      -1    -98     16     99    101 180.9   9.5  34236  290.86 0854.27
2009/04/23 16:43:20.3     -38   -140     28    146    149 195.2  11.0  34220  290.60 0854.27
2009/04/23 16:43:20.4     -67   -124      3    142    143 208.5   1.2  34226  290.70 0854.27
2009/04/23 16:43:20.5     -41   -121      6    128    129 198.7   2.9  34222  290.62 0854.27
2009/04/23 16:43:20.6     -92   -119    -30    151    155 217.8 -11.3  34210  290.41 0854.27
2009/04/23 16:43:20.7     -45   -133    -37    141    146 198.7 -15.0  34178  289.89 0854.27
2009/04/23 16:43:20.8     -60   -108    -24    124    127 209.4 -11.3  34190  290.09 0854.27
2009/04/23 16:43:20.9     -61   -129    -45    143    151 205.3 -17.6  34210  290.41 0854.23
2009/04/23 16:43:21.0     -52   -119    -15    130    131 203.6  -6.7  34204  290.31 0854.23
2009/04/23 16:43:21.1     -64   -152     32    166    170 202.9  11.0  34200  290.26 0854.23
2009/04/23 16:43:21.2     -72   -113     42    135    142 212.5  17.4  34208  290.40 0854.23
2009/04/23 16:43:21.3     -75   -124      3    145    146 211.2   1.2  34204  290.31 0854.23
2009/04/23 16:43:21.4     -92   -135     36    164    168 214.5  12.4  34202  290.28 0854.23
2009/04/23 16:43:21.5    -136   -144    -15    199    200 223.3  -4.6  34192  290.11 0854.23
2009/04/23 16:43:21.6    -108   -164    -48    197    203 213.4 -13.9  34188  290.06 0854.23
2009/04/23 16:43:21.7     -99   -176    -68    203    214 209.4 -23.6  34190  290.08 0854.23
2009/04/23 16:43:21.8     -90   -165    -45    189    195 208.7 -13.4  34170  289.75 0854.23
2009/04/23 16:43:21.9     -64   -132    -18    147    149 205.9  -7.3  34174  289.82 0854.23
2009/04/23 16:43:22.0     -21   -158    -23    160    162 187.8  -8.2  34186  290.02 0854.23
2009/04/23 16:43:22.1     -23   -179     65    181    192 187.3  20.2  34210  290.41 0854.23
2009/04/23 16:43:22.2     -34   -168    131    172    216 191.6  41.4  34200  290.26 0854.23
2009/04/23 16:43:22.3     -21   -148    153    150    214 188.1  50.2  34194  290.16 0854.23
2009/04/23 16:43:22.4      51   -156    179    165    243 162.0  52.2  34198  290.21 0854.23
2009/04/23 16:43:22.5      26   -147    180    150    234 169.8  56.1  34208  290.40 0854.23
2009/04/23 16:43:22.6      71   -173    157    188    244 157.5  43.8  34194  290.16 0854.23
2009/04/23 16:43:22.7      -5   -166    175    167    241 181.8  51.2  34202  290.30 0854.23
2009/04/23 16:43:22.8    -109   -152    134    188    230 215.6  39.3  34210  290.43 0854.23
2009/04/23 16:43:22.9     -87   -128     69    155    169 214.2  25.9  34194  290.16 0854.23
2009/04/23 16:43:23.0     -13   -248     95    249    266 183.1  22.0  34192  290.10 0854.23
2009/04/23 16:43:23.1     -65   -395     98    401    413 189.3  13.8  34186  290.00 0854.23
2009/04/23 16:43:23.2     -89   -344    262    356    442 194.6  40.0  34230  290.75 0854.23
2009/04/23 16:43:23.3    -112   -293    266    314    411 200.9  44.5  34242  290.96 0854.23
2009/04/23 16:43:23.4      -4   -281    178    282    333 181.0  35.3  34182  289.95 0854.23
2009/04/23 16:43:23.5     107   -136    177    174    248 141.9  50.4  34186  290.01 0854.23
2009/04/23 16:43:23.6      57   -298    228    304    380 169.1  40.6  34162  289.60 0854.23
2009/04/23 16:43:23.7     -90   -282    271    297    402 197.8  47.0  34172  289.79 0854.23
2009/04/23 16:43:23.8    -110   -264    148    287    322 202.7  29.3  34174  289.81 0854.23
2009/04/23 16:43:23.9     -60   -197    133    207    246 197.0  35.6  34180  289.92 0854.23
2009/04/23 16:43:24.0      12   -157     81    158    177 175.6  29.1  34178  289.87 0854.23
2009/04/23 16:43:24.1      42   -112    101    120    156 159.1  44.5  34188  290.06 0854.23
2009/04/23 16:43:24.2      56   -199    102    207    230 164.2  27.8  34186  290.01 0854.23
2009/04/23 16:43:24.3      16   -165    127    166    209 174.4  41.4  34180  289.92 0854.23
2009/04/23 16:43:24.4      11   -151    147    152    211 175.5  49.2  34184  289.97 0854.23
2009/04/23 16:43:24.5       0   -178     82    179    196 180.0  26.2  34178  289.89 0854.23
2009/04/23 16:43:24.6       8   -162     86    163    184 177.1  30.3  34186  290.02 0854.23
2009/04/23 16:43:24.7     107   -102     -3    148    149 133.6  -1.3  34182  289.96 0854.23
2009/04/23 16:43:24.8     109    -28    -31    113    118 104.6 -15.4  34180  289.92 0854.23
2009/04/23 16:43:24.9      64    -65    -59     92    109 135.3 -40.0  34184  289.97 0854.23
2009/04/23 16:43:25.0      61   -161    -11    173    174 159.1  -3.7  34184  289.97 0854.23
2009/04/23 16:43:25.1      64   -207    -27    217    219 162.8  -7.2  34196  290.19 0854.23
2009/04/23 16:43:25.2      41   -207     29    212    214 168.7   7.8  34196  290.19 0854.23
2009/04/23 16:43:25.3      86   -134     87    160    182 147.4  31.0  34192  290.11 0854.23
2009/04/23 16:43:25.4     151   -159    107    220    244 136.3  27.8  34196  290.19 0854.23
2009/04/23 16:43:25.5     180   -146    129    232    265 129.1  31.4  34198  290.22 0854.23
2009/04/23 16:43:25.6     215    -94    133    235    270 113.6  32.1  34196  290.19 0854.23
2009/04/23 16:43:25.7     171    -72    133    186    228 112.8  39.3  34194  290.16 0854.23
2009/04/23 16:43:25.8      60   -110    126    126    178 151.1  50.1  34182  289.94 0854.23
2009/04/23 16:43:25.9     117   -155    133    195    236 142.8  37.6  34178  289.89 0854.23
2009/04/23 16:43:26.0     138   -157    111    210    237 138.6  30.2  34178  289.87 0854.23
2009/04/23 16:43:26.1     154   -163     33    225    228 136.8   8.5  34180  289.91 0854.23
2009/04/23 16:43:26.2     121   -144     63    189    200 140.1  18.6  34180  289.91 0854.23
2009/04/23 16:43:26.3     189   -201    131    277    306 136.8  27.1  34160  289.56 0854.23
2009/04/23 16:43:26.4     131   -260    241    292    378 153.3  43.7  34162  289.62 0854.23
2009/04/23 16:43:26.5     108   -228    207    253    326 154.5  43.6  34168  289.70 0854.23
2009/04/23 16:43:26.6      49   -220    149    226    270 167.3  36.3  34164  289.63 0854.23
2009/04/23 16:43:26.7      87   -223     69    240    250 158.6  16.0  34162  289.59 0854.23
2009/04/23 16:43:26.8      62   -213    103    222    244 163.7  26.6  34164  289.64 0854.23
2009/04/23 16:43:26.9       4   -258      0    259    260 179.1   0.0  34168  289.71 0854.22
2009/04/23 16:43:27.0     -38   -242    -40    246    250 188.9  -9.3  34168  289.71 0854.22
2009/04/23 16:43:27.1      -9   -302    -56    303    309 181.8 -10.5  34176  289.83 0854.22
2009/04/23 16:43:27.2     -49   -315    -43    319    322 188.9  -7.7  34176  289.83 0854.22
2009/04/23 16:43:27.3    -147   -335    -22    367    368 203.7  -3.5  34174  289.82 0854.22
2009/04/23 16:43:27.4     -48   -307    -29    311    313 188.9  -5.5  34178  289.86 0854.22
2009/04/23 16:43:27.5     -67   -282    -15    290    291 193.4  -3.1  34178  289.88 0854.22
2009/04/23 16:43:27.6      62   -254     36    262    265 166.2   8.0  34186  290.02 0854.22
2009/04/23 16:43:27.7      71   -325    -13    333    334 167.6  -2.2  34182  289.96 0854.22
2009/04/23 16:43:27.8     113   -296     -2    317    318 159.1  -0.5  34182  289.95 0854.22
2009/04/23 16:43:27.9      87   -263    -15    277    278 161.7  -3.1  34186  290.02 0854.17
2009/04/23 16:43:28.0      63   -282    -86    290    303 167.3 -16.6  34184  289.97 0854.17
2009/04/23 16:43:28.1      23   -228    -68    230    239 174.2 -21.5  34182  289.95 0854.17
2009/04/23 16:43:28.2     -29   -206    -67    209    219 188.2 -23.0  34186  290.01 0854.17
2009/04/23 16:43:28.3     -44   -168    -57    174    184 194.9 -18.3  34186  290.02 0854.17
2009/04/23 16:43:28.4     -58   -154    -27    165    168 200.7  -9.3  34186  290.01 0854.17
2009/04/23 16:43:28.5     -66   -180    -10    192    193 200.3  -3.1  34184  289.97 0854.17
2009/04/23 16:43:28.6       5   -231    -16    232    233 178.6  -4.1  34182  289.96 0854.17
2009/04/23 16:43:28.7     -66   -196    -26    208    210 198.7  -7.3  34180  289.92 0854.17
2009/04/23 16:43:28.8     -51   -146     27    155    158 199.6   9.9  34186  290.01 0854.17
2009/04/23 16:43:28.9     -70   -120    107    139    175 210.3  41.7  34194  290.16 0854.17
2009/04/23 16:43:29.0      26    -87    113     91    145 163.1  56.4  34196  290.18 0854.17
2009/04/23 16:43:29.1      31   -217    153    220    267 171.9  38.4  34198  290.20 0854.17
2009/04/23 16:43:29.2     -53   -201     54    208    216 194.9  14.7  34202  290.28 0854.17
2009/04/23 16:43:29.3     -51   -301      8    306    307 189.6   1.6  34206  290.34 0854.17
2009/04/23 16:43:29.4     -31   -348    -25    350    351 185.2  -4.2  34180  289.91 0854.17
2009/04/23 16:43:29.5      17   -230    -38    231    235 175.6  -9.3  34186  290.02 0854.17
2009/04/23 16:43:29.6     -60   -153    -42    165    171 201.4 -14.5  34196  290.18 0854.17
2009/04/23 16:43:29.7     -15   -161    -40    162    167 185.6 -13.9  34192  290.13 0854.17
2009/04/23 16:43:29.8     -21   -128    -64    130    144 189.3 -32.6  34196  290.18 0854.17
2009/04/23 16:43:29.9      29   -169    -62    172    182 170.0 -24.8  34188  290.04 0854.16
2009/04/23 16:43:30.0      98   -207    -42    230    234 154.5 -10.5  34182  289.96 0854.16
2009/04/23 16:43:30.1     112   -165     39    200    204 145.7  11.1  34172  289.77 0854.16
2009/04/23 16:43:30.2      94   -279    129    295    321 161.3  25.2  34174  289.80 0854.16
2009/04/23 16:43:30.3     131   -335     -3    360    361 158.6  -0.6  34174  289.81 0854.16
2009/04/23 16:43:30.4     -23   -339    -18    340    341 183.9  -3.1  34174  289.82 0854.16
2009/04/23 16:43:30.5      47   -288    -64    292    300 170.7 -12.4  34180  289.90 0854.16
2009/04/23 16:43:30.6      -8   -281     15    282    283 181.8   3.1  34186  290.00 0854.16
2009/04/23 16:43:30.7     -44   -211    -71    216    227 192.0 -23.8  34188  290.04 0854.16
2009/04/23 16:43:30.8      10   -227    -62    228    237 177.4 -15.2  34188  290.03 0854.16
2009/04/23 16:43:30.9      41   -293    -85    296    308 172.0 -16.0  34180  289.90 0854.16
2009/04/23 16:43:31.0       6   -194    -58    195    204 178.0 -16.6  34184  289.99 0854.16
2009/04/23 16:43:31.1       0   -130    -65    131    146 180.0 -32.2  34186  290.01 0854.16
2009/04/23 16:43:31.2     107    -63     46    125    133 120.7  20.9  34170  289.75 0854.16
2009/04/23 16:43:31.3      77      7     26     78     83  84.3  18.4  34168  289.70 0854.16
2009/04/23 16:43:31.4      40    -89    -35     98    104 155.9 -23.8  34174  289.80 0854.16
2009/04/23 16:43:31.5      33   -166    -28    170    173 168.7  -9.6  34174  289.82 0854.16
2009/04/23 16:43:31.6      -8   -155      6    156    157 183.1   2.5  34174  289.80 0854.16
2009/04/23 16:43:31.7      96    -61    -64    114    130 122.4 -36.3  34186  290.01 0854.16
2009/04/23 16:43:31.8      66    -77    -44    102    111 139.5 -29.5  34188  290.06 0854.16
2009/04/23 16:43:31.9      49    -83    -40     97    104 149.3 -27.4  34190  290.09 0854.18
2009/04/23 16:43:32.0      -3    -39    -45     40     60 184.5 -57.7  34188  290.04 0854.18
2009/04/23 16:43:32.1     -11     12    -66     17     68 316.8 -89.3  34184  289.99 0854.18
2009/04/23 16:43:32.2      60     71    -33     94    100  40.1 -19.6  34176  289.84 0854.18
2009/04/23 16:43:32.3      67    101     21    122    124  33.4  10.1  34176  289.85 0854.18
2009/04/23 16:43:32.4     119     46     69    128    145  68.7  31.3  34166  289.69 0854.18
2009/04/23 16:43:32.5     107     78    118    133    177  54.1  46.4  34164  289.63 0854.18
2009/04/23 16:43:32.6      96    116     94    151    177  39.6  35.0  34170  289.75 0854.18
2009/04/23 16:43:32.7      70    107     57    129    141  33.4  25.2  34168  289.70 0854.18
2009/04/23 16:43:32.8      99    101    108    142    178  44.5  41.2  34170  289.74 0854.18
2009/04/23 16:43:32.9      64     71    129     96    160  41.9  59.8  34174  289.80 0854.18
2009/04/23 16:43:33.0     124     54    147    136    200  66.5  52.5  34162  289.62 0854.18
2009/04/23 16:43:33.1     120    120     91    170    192  45.0  30.6  34158  289.55 0854.18
2009/04/23 16:43:33.2     124    124     72    176    190  45.0  23.4  34162  289.62 0854.18
2009/04/23 16:43:33.3     176    139     78    225    239  51.8  19.2  34162  289.59 0854.18
2009/04/23 16:43:33.4     202    114     82    233    247  60.5  20.0  34160  289.58 0854.18
2009/04/23 16:43:33.5     161     65    141    174    223  67.8  43.5  34160  289.58 0854.18
2009/04/23 16:43:33.6     167     32    120    171    208  79.0  38.4  34160  289.57 0854.18
2009/04/23 16:43:33.7     160     15    179    161    240  84.3  53.3  34160  289.58 0854.18
2009/04/23 16:43:33.8     151     21    136    153    204  82.0  46.2  34156  289.52 0854.18
2009/04/23 16:43:33.9     119     73    134    140    193  58.5  49.0  34160  289.57 0854.22
2009/04/23 16:43:34.0     203     15     68    204    216  85.7  18.4  34140  289.24 0854.22
2009/04/23 16:43:34.1     102      9    106    103    147  84.8  50.7  34154  289.48 0854.22
2009/04/23 16:43:34.2      33     10    132     35    136  73.2  84.9  34174  289.82 0854.22
2009/04/23 16:43:34.3      32    -67     81     75    110 154.5  52.2  34166  289.67 0854.22
2009/04/23 16:43:34.4      27    -56     54     63     82 154.6  45.4  34166  289.69 0854.22
2009/04/23 16:43:34.5      21   -104     49    107    117 168.4  26.2  34170  289.75 0854.22
2009/04/23 16:43:34.6    -103      0     49    104    114 270.0  27.1  34162  289.60 0854.22
2009/04/23 16:43:34.7    -128      3     82    129    152 271.7  35.5  34166  289.69 0854.22
2009/04/23 16:43:34.8     -68     64     25     94     98 313.6  15.2  34166  289.67 0854.22
2009/04/23 16:43:34.9     -44      2     38     45     58 273.5  44.8  34164  289.65 0854.22
2009/04/23 16:43:35.0     -55     20     23     59     63 290.0  22.0  34170  289.75 0854.22
2009/04/23 16:43:35.1     -28     38     19     48     51 323.0  22.0  34186  290.01 0854.22
2009/04/23 16:43:35.2     -26     41     25     49     55 327.4  29.3  34184  289.97 0854.22
2009/04/23 16:43:35.3      62     65     83     90    122  43.7  47.9  34214  290.48 0854.22
2009/04/23 16:43:35.4      26    103     37    107    114  14.3  19.4  34206  290.35 0854.22
2009/04/23 16:43:35.5      21     39     83     45     94  29.0  68.8  34202  290.30 0854.22
2009/04/23 16:43:35.6      52     39     88     66    110  53.1  59.4  34210  290.43 0854.22
2009/04/23 16:43:35.7      21     98     47    101    111  12.0  27.1  34220  290.58 0854.22
2009/04/23 16:43:35.8      -3     70     30     71     77 357.3  23.1  34214  290.48 0854.22
2009/04/23 16:43:35.9     -12     44     14     46     49 344.9  17.3  34206  290.36 0854.25
2009/04/23 16:43:36.0     -35      9     36     37     51 285.1  50.0  34204  290.31 0854.25
2009/04/23 16:43:36.1     -90    100     74    135    153 318.1  31.4  34206  290.35 0854.25
2009/04/23 16:43:36.2    -122     58     57    136    147 295.4  23.6  34206  290.35 0854.25
2009/04/23 16:43:36.3    -102     43     -4    111    112 293.1  -2.2  34200  290.26 0854.25
2009/04/23 16:43:36.4    -107     14      6    109    110 277.9   3.3  34200  290.25 0854.25
2009/04/23 16:43:36.5    -105     20     46    107    116 281.0  24.6  34198  290.23 0854.25
2009/04/23 16:43:36.6    -107      8     63    108    125 274.3  33.4  34202  290.30 0854.25
2009/04/23 16:43:36.7     -84      8     49     85     98 276.1  32.9  34200  290.26 0854.25
2009/04/23 16:43:36.8     -59     21      7     63     64 290.0   6.9  34198  290.21 0854.25
2009/04/23 16:43:36.9       4    -43     12     44     46 173.8  15.3  34204  290.31 0854.25
2009/04/23 16:43:37.0      14     -6     59     16     61 115.3  84.9  34214  290.48 0854.25
2009/04/23 16:43:37.1     -66   -111     95    130    161 210.8  39.9  34192  290.13 0854.25
2009/04/23 16:43:37.2    -108   -128     99    168    195 220.3  33.5  34182  289.94 0854.25
2009/04/23 16:43:37.3     -68   -135    122    152    194 206.7  43.3  34210  290.41 0854.25
2009/04/23 16:43:37.4     -83   -177    105    196    222 205.3  30.8  34184  289.99 0854.25
2009/04/23 16:43:37.5    -106   -167     21    199    201 212.5   6.1  34182  289.96 0854.25
2009/04/23 16:43:37.6    -102   -123     61    160    171 219.7  21.7  34194  290.16 0854.25
2009/04/23 16:43:37.7    -150    -84     56    172    182 240.7  18.1  34198  290.21 0854.25
2009/04/23 16:43:37.9    -182   -134    104    227    249 233.6  26.2  34208  290.37 0854.25
2009/04/23 16:43:38.0    -133    -98     85    166    186 233.6  29.1  34196  290.19 0854.28
2009/04/23 16:43:38.1    -147    -34     17    152    153 256.7   6.5  34196  290.19 0854.28
2009/04/23 16:43:38.2    -132    -14     50    133    142 263.8  21.0  34218  290.55 0854.28
2009/04/23 16:43:38.3    -149      6     46    150    158 272.5  17.3  34212  290.45 0854.28
2009/04/23 16:43:38.4    -112   -114    102    160    189 224.5  35.6  34216  290.52 0854.28
2009/04/23 16:43:38.5     -45    -56     93     72    117 218.7  58.4  34224  290.67 0854.28
2009/04/23 16:43:38.6     -34    -54     95     65    115 212.5  62.6  34236  290.86 0854.28
2009/04/23 16:43:38.7     -85    -96     55    129    140 221.4  24.6  34188  290.04 0854.28
2009/04/23 16:43:38.8     -38    -87     99     96    137 203.6  51.2  34206  290.36 0854.28
2009/04/23 16:43:38.9     -28     -6     87     29     91 256.7  81.0  34268  291.42 0854.28
2009/04/23 16:43:39.0     136    138    105    194    220  44.5  31.0  34340  292.63 0854.28
2009/04/23 16:43:39.1     206    134     29    246    248  56.9   6.9  34348  292.77 0854.28
2009/04/23 16:43:39.2     192    138     84    237    251  54.3  20.0  34402  293.69 0854.28
2009/04/23 16:43:39.3     245    203     77    319    329  50.4  13.6  34396  293.59 0854.28
2009/04/23 16:43:39.4     219    108    -17    245    246  63.8  -4.1  34424  294.07 0854.28
2009/04/23 16:43:39.5     144    118    -27    187    189  50.7  -8.2  34450  294.52 0854.28
2009/04/23 16:43:39.6      98    153    110    182    212  32.6  34.2  34420  294.01 0854.28
2009/04/23 16:43:39.7      15    125     45    126    133   7.1  20.0  34404  293.72 0854.28
2009/04/23 16:43:39.8      -6     95    105     96    142 356.0  52.2  34412  293.87 0854.28
2009/04/23 16:43:39.9     -18    117    113    119    164 351.1  49.0  34400  293.65 0854.28
2009/04/23 16:43:40.0     -19     96    132     99    165 348.4  59.4  34388  293.44 0854.29
2009/04/23 16:43:40.1      43     80    146     92    172  28.5  64.7  34368  293.12 0854.29
2009/04/23 16:43:40.2     115     73    173    137    220  57.6  57.7  34372  293.19 0854.29
2009/04/23 16:43:40.3     124     54    121    136    182  66.5  46.4  34350  292.81 0854.29
2009/04/23 16:43:40.4      65    155     63    169    180  22.9  21.3  34248  291.08 0854.29
2009/04/23 16:43:40.5     183    109    -27    214    216  59.3  -7.3  34294  291.84 0854.29
2009/04/23 16:43:40.6     296    108     42    316    319  70.0   7.6  34342  292.67 0854.29
2009/04/23 16:43:40.7     295    146     96    330    344  63.6  16.3  34356  292.92 0854.29
2009/04/23 16:43:40.8     297     88    104    310    328  73.4  18.6  34402  293.68 0854.29
2009/04/23 16:43:40.9     291     87     69    304    312  73.2  12.9  34362  293.01 0854.29
2009/04/23 16:43:41.0     317    173    181    362    404  61.4  28.4  34298  291.91 0854.29
2009/04/23 16:43:41.1     328    224    215    398    452  55.7  30.7  34248  291.07 0854.29
2009/04/23 16:43:41.2     306    259    118    402    419  49.7  16.4  34252  291.12 0854.29
2009/04/23 16:43:41.3     255    266    120    369    389  43.8  18.0  34288  291.74 0854.29
2009/04/23 16:43:41.4     208    265    101    337    352  38.1  16.8  34242  290.98 0854.29
2009/04/23 16:43:41.5     180    240    117    301    322  36.9  22.4  34232  290.78 0854.29
2009/04/23 16:43:41.6     289    248     60    382    387  49.4   9.0  34248  291.08 0854.29
2009/04/23 16:43:41.7     323    239    -47    402    405  53.5  -6.7  34312  292.15 0854.29
2009/04/23 16:43:41.8     304    175    -53    351    355  60.1  -8.6  34334  292.53 0854.29
2009/04/23 16:43:41.9     397    223     93    456    466  60.6  11.6  34308  292.09 0854.29
2009/04/23 16:43:42.0     421    237     73    484    490  60.6   8.6  34312  292.17 0854.29
2009/04/23 16:43:42.1     425    256      7    497    498  58.9   0.9  34302  291.99 0854.29
2009/04/23 16:43:42.2     404    214     57    458    462  62.1   7.1  34308  292.08 0854.29
2009/04/23 16:43:42.3     456    209     28    502    503  65.4   3.2  34326  292.38 0854.29
2009/04/23 16:43:42.4     506    169    115    534    547  71.5  12.2  34328  292.42 0854.29
2009/04/23 16:43:42.5     433    270    134    511    529  58.1  14.7  34236  290.86 0854.29
2009/04/23 16:43:42.6     394    230    198    457    498  59.7  25.0  34246  291.02 0854.29
2009/04/23 16:43:42.7     400    154    104    429    442  68.9  13.7  34326  292.38 0854.29
2009/04/23 16:43:42.8     484    160     53    510    513  71.7   6.0  34352  292.84 0854.29
2009/04/23 16:43:42.9     482    171     91    512    521  70.5  10.1  34386  293.43 0854.29
2009/04/23 16:43:43.0     392     -6    113    393    410  90.9  16.1  34426  294.11 0854.29
2009/04/23 16:43:43.1     490    115    103    504    515  76.8  11.6  34360  292.97 0854.29
2009/04/23 16:43:43.2     524    141    162    543    567  74.9  16.7  34354  292.86 0854.29
2009/04/23 16:43:43.3     665    167     97    686    694  75.9   8.1  34278  291.57 0854.29
2009/04/23 16:43:43.4     649    186    115    676    686  74.0   9.7  34238  290.89 0854.29
2009/04/23 16:43:43.5     671    196    102    700    708  73.7   8.3  34184  289.98 0854.29
2009/04/23 16:43:43.6     737    254     81    780    785  71.0   6.0  34216  290.51 0854.29
2009/04/23 16:43:43.7     706    199     66    734    738  74.2   5.2  34210  290.43 0854.29
2009/04/23 16:43:43.8     591    110    160    602    623  79.4  14.9  34198  290.20 0854.29
2009/04/23 16:43:43.9     609     82    107    615    625  82.3   9.9  34242  290.98 0854.29
2009/04/23 16:43:44.0     679    188     38    705    707  74.5   3.1  34208  290.39 0854.30
2009/04/23 16:43:44.1     357      7    190    358    405  88.8  30.2  34302  292.00 0854.30
2009/04/23 16:43:44.2     462   -222     57    513    517 115.8   6.4  34374  293.21 0854.30
2009/04/23 16:43:44.3     461   -244     62    522    526 117.9   6.9  34366  293.07 0854.30
2009/04/23 16:43:44.4     584    -44    -54    586    589  94.4  -5.3  34180  289.90 0854.30
2009/04/23 16:43:44.5     494    207   -109    536    548  67.3 -11.6  34190  290.09 0854.30
2009/04/23 16:43:44.6     441   -184    -42    479    481 112.7  -5.1  34232  290.78 0854.30
2009/04/23 16:43:44.7     267    -76    -18    278    279 105.9  -3.7  34260  291.26 0854.30
2009/04/23 16:43:44.8     291    -18    -37    292    295  93.7  -7.3  34272  291.46 0854.30
2009/04/23 16:43:44.9     334     39      2    337    338  83.3   0.4  34166  289.67 0854.30
2009/04/23 16:43:45.0     348     96    -60    362    367  74.6  -9.5  34242  290.98 0854.30
2009/04/23 16:43:45.1     240    -56    121    247    275 103.2  28.2  34250  291.10 0854.30
2009/04/23 16:43:45.2     148   -301     43    336    339 153.8   7.4  34240  290.93 0854.30
2009/04/23 16:43:45.3     277   -196    -30    340    342 125.2  -5.1  34264  291.35 0854.30
2009/04/23 16:43:45.4     338    -67     43    345    348 101.2   7.1  34282  291.64 0854.30
2009/04/23 16:43:45.5     381   -237     50    449    452 121.9   6.5  34316  292.23 0854.30
2009/04/23 16:43:45.6     321   -204    179    381    420 122.5  27.1  34302  291.98 0854.30
2009/04/23 16:43:45.7     274     46    185    278    333  80.3  36.9  34240  290.92 0854.30
2009/04/23 16:43:45.8     247    -15    131    248    280  93.5  30.1  34212  290.46 0854.30
2009/04/23 16:43:45.9     285     34     78    288    299  83.0  15.2  34264  291.34 0854.30
2009/04/23 16:43:46.0     208    -96     80    230    244 114.8  19.2  34302  291.99 0854.30
2009/04/23 16:43:46.1     128    -96    105    160    191 126.9  36.0  34264  291.33 0854.30
2009/04/23 16:43:46.2      81   -142    119    164    202 150.1  39.5  34284  291.69 0854.30
2009/04/23 16:43:46.3      57   -171     96    181    204 161.5  30.3  34290  291.77 0854.30
2009/04/23 16:43:46.4      59   -207    103    216    239 164.0  27.3  34272  291.47 0854.30
2009/04/23 16:43:46.5      51   -190    109    197    225 164.9  31.4  34290  291.79 0854.30
2009/04/23 16:43:46.6      37   -192     74    196    209 168.9  21.5  34236  290.87 0854.30
2009/04/23 16:43:46.7      29   -171     65    174    185 170.2  21.0  34218  290.55 0854.30
2009/04/23 16:43:46.8     107   -211    137    237    273 153.0  32.7  34230  290.75 0854.30
2009/04/23 16:43:46.9     127   -247     87    278    292 152.8  17.4  34226  290.70 0854.30
2009/04/23 16:43:47.0     182   -193     86    266    280 136.8  17.9  34244  291.00 0854.30
2009/04/23 16:43:47.1     130   -156     28    204    207 140.3   8.0  34236  290.87 0854.30
2009/04/23 16:43:47.2     153   -159     60    221    230 136.1  15.3  34238  290.89 0854.30
2009/04/23 16:43:47.3     148   -167     86    224    239 138.6  22.0  34260  291.27 0854.30
2009/04/23 16:43:47.4     102   -123     56    161    171 140.4  19.4  34254  291.18 0854.30
2009/04/23 16:43:47.5      67    -63     93     93    131 133.1  50.1  34258  291.25 0854.30
2009/04/23 16:43:47.6     144    -57     39    156    161 111.7  14.3  34276  291.55 0854.30
2009/04/23 16:43:47.7     136    -69     68    153    167 117.1  25.7  34274  291.52 0854.30
2009/04/23 16:43:47.8      74    -53     69     92    115 125.5  40.1  34272  291.47 0854.30
2009/04/23 16:43:47.9      60    -80     85    101    132 143.0  44.3  34240  290.92 0854.30
2009/04/23 16:43:48.0      67   -105     63    125    139 147.5  29.2  34260  291.26 0854.29
2009/04/23 16:43:48.1      91    -39     71    100    122 113.5  39.1  34276  291.55 0854.29
2009/04/23 16:43:48.2      57    -45    103     73    126 128.6  61.1  34270  291.45 0854.29
2009/04/23 16:43:48.3      54     18    125     57    137  71.4  74.0  34254  291.18 0854.29
2009/04/23 16:43:48.4     133     43     56    140    150  71.8  23.0  34278  291.57 0854.29
2009/04/23 16:43:48.5     133     65     12    149    150  63.8   4.9  34272  291.47 0854.29
2009/04/23 16:43:48.6     106     54    -25    120    123  62.9 -11.9  34264  291.33 0854.29
2009/04/23 16:43:48.7     104     55    -37    118    123  62.0 -22.3  34260  291.28 0854.29
2009/04/23 16:43:48.8     140     28    -18    143    145  78.6  -7.2  34260  291.28 0854.29
2009/04/23 16:43:48.9     144      9    -23    145    147  86.1  -9.3  34248  291.08 0854.29
2009/04/23 16:43:49.0     168      1     12    169    170  89.6   4.4  34252  291.15 0854.30
2009/04/23 16:43:49.1     158    -13     -7    159    160  94.8  -2.8  34246  291.03 0854.30
2009/04/23 16:43:49.2     177    -49    -13    184    185 105.5  -4.1  34244  290.99 0854.30
2009/04/23 16:43:49.3     157    -32     -3    161    162 101.5  -1.3  34242  290.96 0854.30
2009/04/23 16:43:49.4     141     -6      9    142    143  92.6   3.8  34248  291.08 0854.30
2009/04/23 16:43:49.5     164    -11     62    165    176  94.1  21.5  34252  291.15 0854.30
2009/04/23 16:43:49.6     163     11     65    164    176  85.9  22.8  34260  291.28 0854.30
2009/04/23 16:43:49.7     146     16     97    147    176  83.4  36.5  34280  291.62 0854.30
2009/04/23 16:43:49.8     167     28     40    170    175  80.3  13.5  34276  291.55 0854.30
2009/04/23 16:43:49.9     131     30     47    135    144  76.7  19.4  34274  291.52 0854.30
2009/04/23 16:43:50.0     119     72     62    140    153  58.9  25.2  34268  291.40 0854.30
2009/04/23 16:43:50.1     166     56     44    176    182  71.4  14.3  34264  291.33 0854.30
2009/04/23 16:43:50.2     144    103     29    178    181  54.3   9.5  34254  291.18 0854.30
2009/04/23 16:43:50.3     227     82     36    242    245  70.0   8.5  34238  290.88 0854.30
2009/04/23 16:43:50.4     214    106     12    239    240  63.6   2.9  34224  290.65 0854.30
2009/04/23 16:43:50.5     188    170     39    254    258  47.8   8.9  34222  290.61 0854.30
2009/04/23 16:43:50.6     201    108     -5    229    230  61.8  -1.3  34216  290.52 0854.30
2009/04/23 16:43:50.7     155    110     26    191    193  54.5   7.8  34218  290.55 0854.30
2009/04/23 16:43:50.8     110    210     24    238    240  27.6   5.9  34242  290.97 0854.30
2009/04/23 16:43:50.9     117    212      7    243    244  28.9   1.8  34272  291.48 0854.30
2009/04/23 16:43:51.0     103    218     82    242    256  25.4  18.9  34320  292.30 0854.31
2009/04/23 16:43:51.1      61    227     50    236    242  15.2  12.1  34296  291.87 0854.31
2009/04/23 16:43:51.2      97    192     42    216    221  26.7  11.0  34306  292.06 0854.31
2009/04/23 16:43:51.3      69    200     66    212    223  19.2  17.3  34332  292.49 0854.31
2009/04/23 16:43:51.4     118    180    -28    216    218  33.4  -7.5  34286  291.72 0854.31
2009/04/23 16:43:51.5     132     47     37    141    146  70.1  14.7  34314  292.20 0854.31
2009/04/23 16:43:51.6     107     68     59    128    140  57.5  26.6  34326  292.39 0854.31
2009/04/23 16:43:51.7      68     54     91     88    126  51.4  50.7  34308  292.08 0854.31
2009/04/23 16:43:51.8      15     90     80     92    121   9.8  45.8  34314  292.18 0854.31
2009/04/23 16:43:51.9       6    120     42    121    129   3.1  19.2  34294  291.86 0854.31
2009/04/23 16:43:52.0       6    131     61    132    145   2.7  26.6  34314  292.18 0854.31
2009/04/23 16:43:52.1      76    148     96    167    192  27.2  32.7  34324  292.37 0854.31
2009/04/23 16:43:52.2      52    185    140    193    238  15.8  39.7  34342  292.66 0854.31
2009/04/23 16:43:52.3       3    207    133    208    246   0.9  35.6  34334  292.53 0854.31
2009/04/23 16:43:52.4     -12    228     22    229    231 356.9   5.7  34314  292.18 0854.31
2009/04/23 16:43:52.5      27    266     24    268    270   5.8   5.2  34304  292.01 0854.31
2009/04/23 16:43:52.6    -136    247     35    283    286 331.1   7.1  34248  291.07 0854.31
2009/04/23 16:43:52.7    -161    160     -8    228    229 314.9  -2.2  34210  290.41 0854.31
2009/04/23 16:43:52.8    -268    258    -11    373    374 313.9  -1.8  34192  290.11 0854.31
2009/04/23 16:43:52.9    -302    126    -44    328    331 292.6  -7.7  34202  290.30 0854.31
2009/04/23 16:43:53.0    -303    137    -87    333    345 294.4 -14.7  34210  290.43 0854.32
2009/04/23 16:43:53.1    -294    168    -67    339    346 299.8 -11.3  34212  290.47 0854.32
2009/04/23 16:43:53.2    -270    107    -58    291    297 291.7 -11.3  34198  290.22 0854.32
2009/04/23 16:43:53.3    -292     47    -19    296    297 279.2  -3.7  34248  291.05 0854.32
2009/04/23 16:43:53.4    -289     66   -100    297    314 283.0 -18.7  34176  289.83 0854.32
2009/04/23 16:43:53.5    -303    -27    -56    305    311 264.8 -10.4  34276  291.55 0854.32
2009/04/23 16:43:53.6    -332    -62    -59    338    344 259.3  -9.9  34248  291.05 0854.32
2009/04/23 16:43:53.7    -258    -40    -28    262    264 261.2  -6.2  34274  291.50 0854.32
2009/04/23 16:43:53.8    -210      0     82    211    226 269.9  22.5  34244  291.01 0854.32
2009/04/23 16:43:53.9    -128      7     52    129    139 273.5  23.0  34246  291.03 0854.32
2009/04/23 16:43:54.0    -113    -93      7    147    148 230.5   2.8  34256  291.21 0854.32
2009/04/23 16:43:54.1     -64    -77   -117    101    154 219.7 -59.2  34244  290.99 0854.32
2009/04/23 16:43:54.2      12    115    -93    116    148   6.2 -47.7  34254  291.18 0854.32
2009/04/23 16:43:54.3      -8    127    -75    128    148 356.4 -37.8  34258  291.25 0854.32
2009/04/23 16:43:54.4      55    171    -23    180    182  17.8  -7.5  34242  290.98 0854.32
2009/04/23 16:43:54.5       5     70     65     71     96   4.5  47.9  34262  291.30 0854.32
2009/04/23 16:43:54.6       5     27     81     28     85  11.6  81.2  34280  291.62 0854.32
2009/04/23 16:43:54.7       5    -10     67     12     68 151.0  90.0  34274  291.52 0854.32
2009/04/23 16:43:54.8      17      7     51     19     54  68.3  80.2  34278  291.59 0854.32
2009/04/23 16:43:54.9      64    -27     46     70     83 113.5  36.0  34276  291.54 0854.32
2009/04/23 16:43:55.0      78    -23     52     82     97 106.4  35.5  34268  291.40 0854.33
2009/04/23 16:43:55.1      94    -13     71     95    118  97.9  40.7  34264  291.35 0854.33
2009/04/23 16:43:55.2      93    -17     98     95    136 100.6  50.2  34258  291.25 0854.33
2009/04/23 16:43:55.3      24    -29    148     38    152 140.3  84.9  34286  291.72 0854.33
2009/04/23 16:43:55.4      26     73     68     78    103  20.0  46.4  34268  291.40 0854.33
2009/04/23 16:43:55.5      40     60    -26     73     77  33.4 -23.3  34270  291.43 0854.33
2009/04/23 16:43:55.6     187    -66    -99    199    222 109.5 -32.9  34250  291.11 0854.33
2009/04/23 16:43:55.7      88   -236      0    252    253 159.5   0.2  34232  290.78 0854.33
2009/04/23 16:43:55.8     151   -182     75    237    249 140.4  17.7  34250  291.09 0854.33
2009/04/23 16:43:55.9     104   -143     69    178    190 143.9  22.3  34232  290.79 0854.33
2009/04/23 16:43:56.0     122   -195    102    231    252 147.9  25.2  34220  290.59 0854.33
2009/04/23 16:43:56.1       0   -246    114    247    272 180.0  26.6  34236  290.85 0854.33
2009/04/23 16:43:56.2     -53   -239    101    245    265 192.7  23.8  34246  291.02 0854.33
2009/04/23 16:43:56.3     -64   -201     65    212    222 197.8  17.1  34258  291.25 0854.33
2009/04/23 16:43:56.4      -5   -277     44    278    282 181.1   9.0  34260  291.27 0854.33
2009/04/23 16:43:56.5      23   -226     64    228    237 174.2  15.8  34252  291.12 0854.33
2009/04/23 16:43:56.6      90   -194    120    214    245 155.1  31.6  34242  290.95 0854.33
2009/04/23 16:43:56.7      49   -146     73    155    171 161.3  27.1  34246  291.03 0854.33
2009/04/23 16:43:56.8      97   -112    122    149    192 139.0  43.7  34230  290.75 0854.33
2009/04/23 16:43:56.9      30   -147     90    151    175 168.4  34.0  34234  290.84 0854.33
2009/04/23 16:43:57.0      67   -202    108    214    239 161.5  29.1  34238  290.89 0854.32
2009/04/23 16:43:57.1      94   -199     79    221    234 154.7  20.4  34240  290.94 0854.32
2009/04/23 16:43:57.2      67   -157     73    171    185 156.8  24.6  34246  291.03 0854.32
2009/04/23 16:43:57.3      48   -180    108    187    215 164.9  32.4  34248  291.06 0854.32
2009/04/23 16:43:57.4      22   -158    129    160    205 171.9  43.3  34248  291.06 0854.32
2009/04/23 16:43:57.5     -14    -95    142     97    171 188.9  62.6  34270  291.43 0854.32
2009/04/23 16:43:57.6      -8   -109    127    110    168 184.5  54.8  34250  291.09 0854.32
2009/04/23 16:43:57.7       0   -132    126    133    183 180.4  48.5  34244  291.01 0854.32
2009/04/23 16:43:57.8     -60   -182    104    192    218 198.3  31.0  34246  291.04 0854.32
2009/04/23 16:43:57.9    -143   -233    103    274    292 211.6  21.5  34260  291.27 0854.32
2009/04/23 16:43:58.0    -230   -257    118    346    366 221.8  18.9  34268  291.39 0854.32
2009/04/23 16:43:58.1    -201   -217    218    297    368 222.8  39.9  34248  291.06 0854.32
2009/04/23 16:43:58.2    -208   -206    177    293    342 225.3  34.1  34252  291.12 0854.32
2009/04/23 16:43:58.3    -228   -153    172    275    324 236.0  35.1  34246  291.04 0854.32
2009/04/23 16:43:58.4    -111   -174    164    207    264 212.6  42.7  34228  290.71 0854.32
2009/04/23 16:43:58.5    -143   -143    170    203    264 224.9  43.8  34234  290.83 0854.32
2009/04/23 16:43:58.6    -231    -67    142    241    279 253.8  33.4  34258  291.22 0854.32
2009/04/23 16:43:58.7    -202   -252    206    324    383 218.7  35.5  34222  290.62 0854.32
2009/04/23 16:43:58.8    -251   -236    153    345    377 226.8  25.6  34222  290.62 0854.32
2009/04/23 16:43:58.9    -236   -151     65    281    289 237.4  13.1  34236  290.87 0854.32
2009/04/23 16:43:59.0    -178   -169     84    246    261 226.4  18.9  34246  291.04 0854.32
2009/04/23 16:43:59.1    -195   -174     87    262    277 228.2  18.5  34258  291.24 0854.32
2009/04/23 16:43:59.2    -256    -68     -1    265    266 255.0  -0.3  34280  291.60 0854.32
2009/04/23 16:43:59.3    -205    -80     20    221    222 248.7   5.2  34282  291.66 0854.32
2009/04/23 16:43:59.4    -212   -154     37    263    266 234.0   8.0  34268  291.39 0854.32
2009/04/23 16:43:59.5    -242   -114    -18    268    269 244.6  -3.9  34300  291.96 0854.32
2009/04/23 16:43:59.6    -260   -159    -27    305    307 238.5  -5.1  34294  291.84 0854.32
2009/04/23 16:43:59.7    -241   -171    -27    296    298 234.7  -5.4  34296  291.87 0854.32
2009/04/23 16:43:59.8    -293   -150    -47    330    334 242.9  -8.2  34302  291.98 0854.32
2009/04/23 16:43:59.9    -306    -94    -77    321    331 252.9 -13.6  34270  291.44 0854.32
2009/04/23 16:44:00.0    -186   -172    -80    254    267 227.3 -17.5  34248  291.07 0854.32
2009/04/23 16:44:00.1     -80   -236    -69    250    260 198.7 -15.4  34254  291.16 0854.32
2009/04/23 16:44:00.2       2   -131    -59    132    144 179.1 -30.1  34246  291.03 0854.32
2009/04/23 16:44:00.3      -5    -99    -60    100    116 183.1 -38.8  34252  291.13 0854.32
2009/04/23 16:44:00.4     -11    -57    -21     59     63 191.5 -19.7  34252  291.13 0854.32
2009/04/23 16:44:00.5     -15    -56    -19     58     62 195.1 -18.7  34248  291.06 0854.32
2009/04/23 16:44:00.6     -14    -78     -3     80     81 190.7  -2.2  34250  291.09 0854.32
2009/04/23 16:44:00.7      -8   -110    -39    111    118 184.5 -19.6  34256  291.20 0854.32
2009/04/23 16:44:00.8     -80    -90     12    121    122 221.4   5.9  34256  291.21 0854.32
2009/04/23 16:44:00.9     -33   -122    -13    127    128 195.2  -6.2  34248  291.08 0854.32
2009/04/23 16:44:01.0     -23   -105    -30    108    112 192.5 -20.2  34244  290.99 0854.30
2009/04/23 16:44:01.1     -26    -99    -36    103    109 195.2 -23.3  34242  290.98 0854.30
2009/04/23 16:44:01.2     -16    -50    -50     53     72 198.7 -52.4  34242  290.96 0854.30
2009/04/23 16:44:01.3      -1    -55    -17     56     59 181.8 -17.6  34242  290.98 0854.30
2009/04/23 16:44:01.4       0    -24      5     25     26 179.1  13.2  34242  290.96 0854.30
2009/04/23 16:44:01.5      10    -35    -30     37     47 163.1 -48.1  34244  290.99 0854.30
2009/04/23 16:44:01.6       4    -15    -36     16     39 164.9 -79.4  34246  291.03 0854.30
2009/04/23 16:44:01.7       8     -2    -42      9     42 108.2 -90.0  34252  291.15 0854.30
2009/04/23 16:44:01.8      16     -7    -41     18     44 115.3 -80.5  34252  291.13 0854.30
2009/04/23 16:44:01.9      23     -7    -45     25     51 108.4 -73.2  34252  291.13 0854.30
2009/04/23 16:44:02.0      40      3    -29     41     50  84.8 -43.0  34246  291.04 0854.30
2009/04/23 16:44:02.1      56     -4     -7     57     58  94.4  -7.3  34242  290.96 0854.30
2009/04/23 16:44:02.2      61     -3      3     62     63  93.5   2.9  34238  290.91 0854.30
2009/04/23 16:44:02.3      59      4     47     60     76  85.7  42.7  34244  290.99 0854.30
2009/04/23 16:44:02.4      43    -45     61     63     87 136.7  50.0  34250  291.09 0854.30
2009/04/23 16:44:02.5      51    -54     70     75    102 136.8  48.0  34236  290.87 0854.30
2009/04/23 16:44:02.6      69    -71     66    100    119 135.9  37.0  34230  290.75 0854.30
2009/04/23 16:44:02.7     156   -103    135    188    231 123.5  39.3  34216  290.53 0854.30
2009/04/23 16:44:02.8     197    -67    203    209    291 108.8  49.4  34214  290.48 0854.30
2009/04/23 16:44:02.9     223   -237    221    326    393 136.8  37.4  34198  290.21 0854.30
2009/04/23 16:44:03.0     318   -217    138    386    409 124.3  20.4  34192  290.10 0854.30
2009/04/23 16:44:03.1     426   -271    163    506    532 122.5  17.9  34178  289.87 0854.30
2009/04/23 16:44:03.2     137   -188    313    233    390 143.9  59.8  34172  289.77 0854.30
2009/04/23 16:44:03.3      42   -148    231    154    277 164.0  63.2  34188  290.03 0854.30
2009/04/23 16:44:03.4     -66   -150    116    165    201 203.8  38.6  34196  290.18 0854.30
2009/04/23 16:44:03.5    -112   -246    193    271    332 204.5  39.2  34184  289.98 0854.30
2009/04/23 16:44:03.6     -29   -402      8    404    405 184.2   1.2  34178  289.87 0854.30
2009/04/23 16:44:03.7     -56   -446     16    450    451 187.2   2.1  34182  289.94 0854.30
2009/04/23 16:44:03.8       0   -301     12    302    303 180.1   2.3  34186  290.00 0854.30
2009/04/23 16:44:03.9     -13   -239    -56    240    247 183.1 -13.2  34190  290.07 0854.30
2009/04/23 16:44:04.0     -76   -231    -87    244    260 198.3 -19.7  34188  290.03 0854.30
2009/04/23 16:44:04.1       2   -361   -124    362    382 179.7 -23.8  34188  290.04 0854.30
2009/04/23 16:44:04.3     -64   -455   -158    460    486 188.0 -23.9  34170  289.73 0854.30
2009/04/23 16:44:04.3     -33   -571   -181    573    602 183.4 -17.6  34190  290.08 0854.30
2009/04/23 16:44:04.4      13   -714   -100    715    723 178.9  -8.0  34192  290.10 0854.30
2009/04/23 16:44:04.5     -31   -699     42    700    702 182.6   3.5  34198  290.20 0854.30
2009/04/23 16:44:04.6       7   -712     75    713    718 179.4   6.1  34190  290.08 0854.30
2009/04/23 16:44:04.7     -27   -535     66    536    541 182.9   7.1  34182  289.96 0854.30
2009/04/23 16:44:04.8    -205   -416    -22    465    466 206.3  -2.8  34184  289.98 0854.30
2009/04/23 16:44:04.9    -138   -382    -72    407    414 200.0 -10.1  34190  290.09 0854.30
2009/04/23 16:44:05.0    -139   -439    -92    461    471 197.6 -11.3  34160  289.56 0854.29
2009/04/23 16:44:05.1    -238   -429   -149    491    514 209.0 -16.9  34156  289.49 0854.29
2009/04/23 16:44:05.2    -206   -490   -186    532    564 202.8 -19.3  34128  289.02 0854.29
2009/04/23 16:44:05.3    -124   -516   -147    531    552 193.5 -15.5  34152  289.43 0854.29
2009/04/23 16:44:05.4     -11   -575   -134    576    592 181.1 -13.1  34132  289.10 0854.29
2009/04/23 16:44:05.5    -187   -566   -212    597    634 198.3 -19.6  34126  288.99 0854.29
2009/04/23 16:44:05.7     -86   -576   -161    583    604 188.5 -20.1  34122  288.92 0854.29
2009/04/23 16:44:05.8    -214   -559   -191    599    628 201.0 -22.8  34126  288.99 0854.29
2009/04/23 16:44:05.9    -107   -852   -224    859    888 187.2 -14.6  34132  289.11 0854.29
2009/04/23 16:44:06.0    -298   -751   -289    809    860 201.7 -19.7  34138  289.19 0854.29
2009/04/23 16:44:06.1    -265   -651   -271    704    754 202.2 -26.6  34138  289.19 0854.29
2009/04/23 16:44:06.2    -412   -490   -295    641    705 220.0 -30.8  34130  289.05 0854.29
2009/04/23 16:44:06.3    -335   -546   -213    641    675 211.5 -23.7  34126  288.99 0854.29
2009/04/23 16:44:06.4    -388   -635   -253    745    788 211.4 -18.8  34092  288.42 0854.29
2009/04/23 16:44:06.5     -50   -823   -111    825    833 183.5  -7.7  34130  289.06 0854.29
2009/04/23 16:44:06.6    -141   -646   -123    662    674 192.4 -10.6  34136  289.16 0854.29
2009/04/23 16:44:06.7    -288   -553   -199    624    655 207.5 -17.7  34114  288.79 0854.29
2009/04/23 16:44:06.8    -303   -629    -93    699    706 205.8  -7.6  34098  288.51 0854.29
2009/04/23 16:44:06.9    -205   -599    -43    634    636 198.9  -3.9  34090  288.37 0854.29
2009/04/23 16:44:07.0     -56   -495    -59    499    503 186.5  -6.8  34090  288.37 0854.29
2009/04/23 16:44:07.1      91   -386    -15    397    398 166.7  -2.2  34100  288.55 0854.27
2009/04/23 16:44:07.2     102   -396      0    410    411 165.5   0.1  34108  288.68 0854.27
2009/04/23 16:44:07.3      88   -498     34    506    508 169.9   3.9  34114  288.79 0854.27
2009/04/23 16:44:07.4     105   -659     -2    668    669 170.9  -0.2  34116  288.83 0854.27
2009/04/23 16:44:07.5      54   -721     57    723    726 175.7   4.6  34116  288.81 0854.27
2009/04/23 16:44:07.6      37   -761      9    762    763 177.2   0.7  34118  288.85 0854.27
2009/04/23 16:44:07.7     127   -814     27    825    826 171.1   1.9  34116  288.81 0854.27
2009/04/23 16:44:07.8     -54   -793   -193    795    819 183.9 -13.7  34118  288.86 0854.27
2009/04/23 16:44:07.9    -293  -1052    -30   1093   1094 195.6  -1.6  34132  289.11 0854.27
2009/04/23 16:44:08.0    -111   -966   -229    973   1000 186.6 -13.3  34144  289.29 0854.27
2009/04/23 16:44:08.1     -17   -851   -154    852    866 181.2 -10.3  34140  289.24 0854.27
2009/04/23 16:44:08.2      34   -879   -161    880    895 177.8 -10.4  34130  289.08 0854.27
2009/04/23 16:44:08.3      34   -837   -171    838    856 177.7 -11.6  34130  289.07 0854.27
2009/04/23 16:44:08.4    -185   -802   -132    824    835 193.0  -9.1  34126  288.99 0854.27
2009/04/23 16:44:08.5    -504   -759   -131    912    922 213.6  -8.2  34120  288.90 0854.27
2009/04/23 16:44:08.6    -509   -614   -310    798    856 219.7 -26.8  34088  288.36 0854.27
2009/04/23 16:44:08.7    -510   -597   -264    786    830 220.5 -18.6  34088  288.35 0854.27
2009/04/23 16:44:08.8    -419   -564   -244    703    744 216.6 -24.3  34088  288.34 0854.27
2009/04/23 16:44:08.9    -442   -539   -263    698    745 219.3 -26.1  34090  288.39 0854.27
2009/04/23 16:44:09.0    -422   -404   -272    585    645 226.2 -31.1  34090  288.40 0854.27
2009/04/23 16:44:09.1    -453   -305   -253    547    602 236.1 -31.0  34098  288.53 0854.26
2009/04/23 16:44:09.2    -430   -191   -243    471    529 246.0 -33.7  34098  288.51 0854.26
2009/04/23 16:44:09.3    -456   -123   -221    473    522 254.8 -31.4  34106  288.66 0854.26
2009/04/23 16:44:09.4    -198   -181   -196    269    332 227.7 -44.1  34108  288.68 0854.26
2009/04/23 16:44:09.5     -83   -307   -102    319    334 195.2 -22.8  34110  288.72 0854.26
2009/04/23 16:44:09.6     -49   -434   -156    437    465 186.5 -19.7  34114  288.80 0854.26
2009/04/23 16:44:09.7    -133   -416   -129    437    456 197.8 -16.5  34118  288.85 0854.26
2009/04/23 16:44:09.8    -253   -492   -187    554    584 207.2 -23.6  34112  288.75 0854.26
2009/04/23 16:44:09.9    -105   -494   -200    506    544 192.0 -27.3  34108  288.70 0854.26
2009/04/23 16:44:10.0     -34   -543   -208    545    583 183.6 -26.4  34118  288.86 0854.26
2009/04/23 16:44:10.1      30   -520   -181    521    551 176.6 -24.4  34114  288.80 0854.24
2009/04/23 16:44:10.2     161   -470   -148    497    519 161.1 -16.6  34116  288.84 0854.24
2009/04/23 16:44:10.3     198   -518   -164    555    579 159.1 -16.5  34122  288.93 0854.24
2009/04/23 16:44:10.4      62   -521   -151    525    546 173.1 -20.8  34122  288.94 0854.24
2009/04/23 16:44:10.5      75   -472   -146    479    501 170.9 -17.0  34124  288.96 0854.24
2009/04/23 16:44:10.6      83   -658   -178    664    688 172.8 -15.1  34114  288.78 0854.24
2009/04/23 16:44:10.7      65   -507   -183    512    544 172.7 -19.7  34126  288.99 0854.24
2009/04/23 16:44:10.8      35   -554   -160    556    579 176.4 -16.1  34122  288.92 0854.24
2009/04/23 16:44:10.9     165   -659   -153    680    698 165.9 -12.7  34122  288.94 0854.24
2009/04/23 16:44:11.0     205   -526   -129    565    580 158.7 -12.9  34116  288.83 0854.24
2009/04/23 16:44:11.1     164   -463   -147    492    514 160.5 -16.7  34124  288.95 0854.24
2009/04/23 16:44:11.2     177   -416    -81    453    461 157.0 -10.2  34122  288.92 0854.24
2009/04/23 16:44:11.3     171   -536    -64    563    567 162.3  -6.6  34120  288.89 0854.24
2009/04/23 16:44:11.4     -44   -651    -98    653    661 183.9  -8.6  34120  288.88 0854.24
2009/04/23 16:44:11.5    -137   -544   -188    561    593 194.2 -18.6  34118  288.86 0854.24
2009/04/23 16:44:11.6     117   -629    -12    640    641 169.4  -1.2  34126  289.01 0854.24
2009/04/23 16:44:11.7    -234   -624    -19    667    668 200.6  -1.7  34122  288.94 0854.24
2009/04/23 16:44:11.8    -234   -572    144    619    636 202.3  13.1  34118  288.87 0854.24
2009/04/23 16:44:11.9    -317   -499    -48    592    595 212.5  -4.7  34126  288.98 0854.24
2009/04/23 16:44:12.0    -164   -399   -129    432    452 202.4 -16.7  34128  289.04 0854.24
2009/04/23 16:44:12.1      71   -441     33    447    449 170.8   4.3  34136  289.16 0854.24
2009/04/23 16:44:12.2      77   -495    252    502    561 171.1  28.7  34144  289.29 0854.24
2009/04/23 16:44:12.3       5   -554    159    555    578 179.4  16.0  34148  289.36 0854.24
2009/04/23 16:44:12.4     -46   -553     79    555    561 184.8   8.1  34140  289.23 0854.24
2009/04/23 16:44:12.5     -63   -471    102    476    488 187.7  12.2  34136  289.15 0854.24
2009/04/23 16:44:12.6      78   -363      2    372    373 167.9   0.4  34138  289.21 0854.24
2009/04/23 16:44:12.7      -7   -450    -19    451    452 180.9  -2.5  34132  289.11 0854.24
2009/04/23 16:44:12.8    -110   -426    -14    440    441 194.5  -1.9  34136  289.16 0854.24
2009/04/23 16:44:12.9    -172   -311    -58    356    361 209.0  -9.3  34130  289.08 0854.24
2009/04/23 16:44:13.0    -163   -516     26    542    543 197.5   2.8  34148  289.36 0854.24
2009/04/23 16:44:13.1    -244   -552    -18    604    605 203.9  -1.8  34150  289.39 0854.24
2009/04/23 16:44:13.2    -294   -433   -156    524    547 214.2 -16.6  34130  289.07 0854.24
2009/04/23 16:44:13.3    -175   -385   -108    424    438 204.5 -14.4  34132  289.09 0854.24
2009/04/23 16:44:13.4     -68   -436    -56    442    446 188.9  -7.3  34140  289.24 0854.24
2009/04/23 16:44:13.5    -151   -485   -101    508    519 197.3 -11.3  34146  289.35 0854.24
2009/04/23 16:44:13.6    -203   -245   -140    319    348 219.7 -29.6  34148  289.37 0854.24
2009/04/23 16:44:13.7    -165   -212    -80    269    280 217.9 -21.7  34148  289.37 0854.24
2009/04/23 16:44:13.8    -178   -124    -41    217    222 235.1 -10.9  34148  289.36 0854.24
2009/04/23 16:44:13.9       6   -194    -24    195    197 178.0  -7.2  34142  289.28 0854.24
2009/04/23 16:44:14.0     -66   -100    115    120    166 213.4  49.0  34146  289.35 0854.24
2009/04/23 16:44:14.1    -126   -115   -107    171    201 227.6 -39.9  34156  289.52 0854.24
2009/04/23 16:44:14.2    -172   -103   -117    201    232 238.9 -37.5  34164  289.63 0854.24
2009/04/23 16:44:14.3    -198   -109    -54    227    234 241.1 -13.4  34168  289.70 0854.24
2009/04/23 16:44:14.4     -13   -193    -32    194    197 184.0  -9.6  34150  289.40 0854.24
2009/04/23 16:44:14.5      10   -164    -45    165    172 176.4 -15.4  34146  289.33 0854.24
2009/04/23 16:44:14.6     -81   -245    -67    259    268 198.3 -14.7  34142  289.27 0854.24
2009/04/23 16:44:14.7     -39   -278     64    281    289 188.1  12.9  34132  289.10 0854.24
2009/04/23 16:44:14.8     -33   -371   -100    373    387 185.2 -15.1  34132  289.11 0854.24
2009/04/23 16:44:14.9     -15   -401   -104    402    416 182.2 -14.6  34138  289.19 0854.24
2009/04/23 16:44:15.0    -150   -377    -29    406    407 201.7  -4.1  34142  289.27 0854.24
2009/04/23 16:44:15.1    -210   -277    -41    348    351 217.2  -6.8  34142  289.28 0854.24
2009/04/23 16:44:15.2     -77   -269     18    280    281 196.0   3.8  34146  289.34 0854.24
2009/04/23 16:44:15.3    -164   -139   -135    216    254 229.6 -39.6  34154  289.47 0854.24
2009/04/23 16:44:15.4    -213   -190   -129    286    313 228.2 -30.3  34154  289.46 0854.24
2009/04/23 16:44:15.5    -191    -46   -152    197    248 256.5 -46.1  34154  289.46 0854.24
2009/04/23 16:44:15.6    -118    -39    -55    125    136 251.4 -29.6  34154  289.46 0854.24
2009/04/23 16:44:15.7     -12    -87    -41     88     97 188.5 -31.0  34158  289.53 0854.24
2009/04/23 16:44:15.8     -61    -84    -33    104    110 216.0 -17.6  34158  289.53 0854.24
2009/04/23 16:44:15.9      24     -4     -8     25     26  99.7 -23.8  34156  289.52 0854.24
2009/04/23 16:44:16.0     106    -28    -39    110    116 105.1 -23.3  34160  289.58 0854.24
2009/04/23 16:44:16.1      64   -117    -82    134    157 151.1 -38.8  34154  289.48 0854.26
2009/04/23 16:44:16.2     129   -129    -80    183    199 135.0 -29.5  34156  289.52 0854.26
2009/04/23 16:44:16.3     149     -7    -38    150    155  93.0 -14.5  34156  289.52 0854.26
2009/04/23 16:44:16.4     157    -96    -10    185    186 121.5  -3.1  34156  289.52 0854.26
2009/04/23 16:44:16.5     187   -115    -10    220    221 121.5  -2.6  34152  289.43 0854.26
2009/04/23 16:44:16.6     131   -316    -40    343    346 157.4  -6.7  34148  289.37 0854.26
2009/04/23 16:44:16.7     172   -383   -107    420    434 155.8 -14.3  34142  289.26 0854.26
2009/04/23 16:44:16.8     204   -311    -33    373    375 146.7  -5.2  34142  289.28 0854.26
2009/04/23 16:44:16.9     208   -209    -16    296    297 135.1  -3.1  34146  289.32 0854.26
2009/04/23 16:44:17.0     253   -139     18    289    290 118.9   3.6  34144  289.31 0854.26
2009/04/23 16:44:17.1     208   -282    -16    351    352 143.5  -2.7  34146  289.32 0854.26
2009/04/23 16:44:17.2     186   -269     25    328    329 145.3   4.4  34142  289.27 0854.26
2009/04/23 16:44:17.3     391   -257    -28    469    470 123.3  -3.5  34142  289.28 0854.26
2009/04/23 16:44:17.4     348   -274    -16    443    444 128.2  -2.1  34138  289.21 0854.26
2009/04/23 16:44:17.5     279   -303    -29    413    414 137.4  -4.1  34142  289.26 0854.26
2009/04/23 16:44:17.6     342   -347    -57    488    492 135.4  -6.7  34136  289.15 0854.26
2009/04/23 16:44:17.7     213   -415    151    467    491 152.8  17.9  34144  289.30 0854.26
2009/04/23 16:44:17.8      48   -333    234    337    410 171.8  38.3  34148  289.38 0854.26
2009/04/23 16:44:17.9      70   -232     51    243    249 163.1  12.0  34144  289.31 0854.26
2009/04/23 16:44:18.0     225   -129    -47    260    265 119.8 -10.3  34146  289.34 0854.26
2009/04/23 16:44:18.1     179   -165     87    244    259 132.7  20.2  34150  289.39 0854.27
2009/04/23 16:44:18.2     158   -141     75    212    226 131.8  19.6  34148  289.38 0854.27
2009/04/23 16:44:18.3     181    -97     70    206    218 118.4  18.9  34150  289.40 0854.27
2009/04/23 16:44:18.4     126   -152     69    198    210 140.3  19.2  34144  289.31 0854.27
2009/04/23 16:44:18.5      96    -79    140    125    187 129.5  53.7  34152  289.43 0854.27
2009/04/23 16:44:18.6      71    -59     87     93    127 129.5  48.0  34152  289.45 0854.27
2009/04/23 16:44:18.7     -11   -155    125    156    199 184.4  42.7  34152  289.45 0854.27
2009/04/23 16:44:18.8    -155   -143     65    211    221 227.3  17.3  34154  289.48 0854.27
2009/04/23 16:44:18.9     -80   -135     -7    157    158 210.7  -2.8  34154  289.46 0854.27
2009/04/23 16:44:19.0     -26   -153    -52    156    165 189.8 -18.7  34150  289.40 0854.27
2009/04/23 16:44:19.1     -70   -153    -67    169    181 204.5 -27.4  34154  289.48 0854.27
2009/04/23 16:44:19.2     -96    -96    -10    136    137 225.1  -4.6  34154  289.46 0854.27
2009/04/23 16:44:19.3     -21   -122     15    124    125 189.8   7.1  34154  289.46 0854.27
2009/04/23 16:44:19.4      93   -112     -5    146    147 140.4  -2.2  34150  289.41 0854.27
2009/04/23 16:44:19.5      78    -38   -119     87    147 116.2 -64.9  34156  289.52 0854.27
2009/04/23 16:44:19.6      61    -18   -164     64    176 106.8 -82.0  34162  289.62 0854.27
2009/04/23 16:44:19.7       3     -3     21      5     21 133.3  86.9  34158  289.55 0854.27
2009/04/23 16:44:19.8     -44    -28     10     53     55 237.6  11.0  34160  289.58 0854.27
2009/04/23 16:44:19.9     -99    -53    -76    113    136 241.6 -41.4  34162  289.62 0854.27
2009/04/23 16:44:20.0    -187   -120    -28    223    225 237.4  -7.2  34158  289.53 0854.27
2009/04/23 16:44:20.1    -106   -113    -44    156    162 223.2 -20.7  34162  289.60 0854.27
2009/04/23 16:44:20.2     -59    -48    -45     77     89 230.5 -37.9  34172  289.77 0854.27
2009/04/23 16:44:20.3     -56     -1    -82     57     99 268.3 -65.9  34180  289.92 0854.27
2009/04/23 16:44:20.4      -7    -67    -76     68    101 186.2 -57.7  34168  289.70 0854.27
2009/04/23 16:44:20.5     -38   -126    -15    132    133 196.9  -6.7  34156  289.50 0854.27
2009/04/23 16:44:20.6    -114   -178    -16    212    213 212.7  -4.6  34156  289.50 0854.27
2009/04/23 16:44:20.7    -127   -136    -61    187    197 223.0 -18.3  34156  289.50 0854.27
2009/04/23 16:44:20.8    -111   -110    -55    157    166 225.1 -24.4  34162  289.60 0854.27
2009/04/23 16:44:20.9     -75    -97    -38    123    128 217.8 -21.8  34158  289.53 0854.27
2009/04/23 16:44:21.0      46   -222   -121    227    257 168.2 -34.7  34154  289.47 0854.27
2009/04/23 16:44:21.1      56   -195    -72    203    215 164.0 -24.4  34152  289.43 0854.27
2009/04/23 16:44:21.2      75   -226   -102    239    259 161.5 -28.7  34150  289.41 0854.27
2009/04/23 16:44:21.3      82   -177    -79    196    211 155.1 -27.4  34146  289.35 0854.27
2009/04/23 16:44:21.4     143   -208    -32    253    256 145.5  -7.3  34142  289.25 0854.27
2009/04/23 16:44:21.5     236   -231    -36    331    333 134.3  -6.2  34142  289.28 0854.27
2009/04/23 16:44:21.6     173   -223     97    283    300 142.2  18.9  34142  289.27 0854.27
2009/04/23 16:44:21.7     217   -180     98    283    300 129.6  19.2  34144  289.29 0854.27
2009/04/23 16:44:21.8     149   -148     97    211    232 134.7  26.6  34146  289.35 0854.27
2009/04/23 16:44:21.9     228   -155     43    276    280 124.2   9.0  34148  289.37 0854.27
2009/04/23 16:44:22.0     173   -131     34    218    221 127.1   9.0  34150  289.40 0854.27
2009/04/23 16:44:22.1     192   -198     14    276    277 135.9   2.9  34154  289.46 0854.27
2009/04/23 16:44:22.2     188   -194     25    271    273 135.9   5.4  34158  289.54 0854.27
2009/04/23 16:44:22.3     247   -174     85    303    315 125.1  15.8  34166  289.66 0854.27
2009/04/23 16:44:22.4     177   -319    115    365    383 151.0  17.5  34158  289.55 0854.27
2009/04/23 16:44:22.5     220   -245     53    330    335 138.1   9.2  34162  289.59 0854.27
2009/04/23 16:44:22.6     168   -318     76    360    369 152.1  12.0  34156  289.50 0854.27
2009/04/23 16:44:22.7     129   -477    115    495    509 164.9  13.1  34154  289.47 0854.27
2009/04/23 16:44:22.8     150   -431    102    457    469 160.8  12.6  34152  289.45 0854.27
2009/04/23 16:44:22.9      64   -451    207    456    500 171.9  26.2  34168  289.71 0854.27
2009/04/23 16:44:23.0      67   -418    142    424    448 170.8  18.6  34160  289.58 0854.27
2009/04/23 16:44:23.1     222   -392     22    451    452 150.5   2.8  34162  289.61 0854.27
2009/04/23 16:44:23.2     158   -557    109    580    591 164.1  10.7  34150  289.41 0854.27
2009/04/23 16:44:23.3     112   -549    130    561    576 168.4  13.1  34160  289.58 0854.27
2009/04/23 16:44:23.4      96   -533    297    542    618 169.8  31.3  34162  289.59 0854.27
2009/04/23 16:44:23.5     251   -600    179    651    676 157.3  15.4  34160  289.58 0854.27
2009/04/23 16:44:23.6      98   -496    237    506    558 168.8  27.0  34168  289.70 0854.27
2009/04/23 16:44:23.7     110   -408    324    423    532 164.9  41.2  34172  289.78 0854.27
2009/04/23 16:44:23.8     247   -401    248    471    532 148.4  30.1  34162  289.62 0854.27
2009/04/23 16:44:23.9     307   -457    352    551    653 146.1  35.6  34188  290.03 0854.27
2009/04/23 16:44:24.0     138   -270    256    304    397 152.8  44.4  34186  290.01 0854.27
2009/04/23 16:44:24.1     214   -242    146    324    355 138.6  25.9  34178  289.86 0854.27
2009/04/23 16:44:24.2     224   -286    -12    364    365 142.0  -1.9  34166  289.67 0854.27
2009/04/23 16:44:24.3     222   -289   -100    365    379 142.4 -15.4  34168  289.71 0854.27
2009/04/23 16:44:24.4     262   -209   -106    336    353 128.6 -17.6  34158  289.54 0854.27
2009/04/23 16:44:24.5      90   -197     27    217    219 155.5   7.1  34160  289.57 0854.27
2009/04/23 16:44:24.6     -14   -190     31    191    194 184.5   9.3  34166  289.69 0854.27
2009/04/23 16:44:24.7      -9   -131     58    132    144 184.0  25.2  34168  289.70 0854.27
2009/04/23 16:44:24.8      86    -84    -59    121    134 134.6 -32.2  34170  289.74 0854.27
2009/04/23 16:44:24.9     218   -117     70    248    258 118.2  15.8  34164  289.64 0854.27
2009/04/23 16:44:25.0     212   -155     27    263    265 126.2   5.9  34160  289.58 0854.27
2009/04/23 16:44:25.1      69   -235     29    246    248 163.5   6.9  34154  289.46 0854.27
2009/04/23 16:44:25.2     138   -144     81    200    215 136.3  23.1  34158  289.55 0854.27
2009/04/23 16:44:25.3     139    -88     26    165    168 122.4   9.0  34158  289.53 0854.27
2009/04/23 16:44:25.4      91    -75     14    118    119 129.5   6.9  34158  289.55 0854.27
2009/04/23 16:44:25.5      58    -80     -1    100    101 143.9  -0.7  34162  289.60 0854.27
2009/04/23 16:44:25.6     -29    -74    -16     80     82 201.4 -11.3  34160  289.58 0854.27
2009/04/23 16:44:25.7      16    -49     30     52     60 161.5  32.4  34158  289.55 0854.27
2009/04/23 16:44:25.8      20    -38     30     44     53 151.9  37.6  34164  289.65 0854.27
2009/04/23 16:44:25.9     -32    -57     44     66     79 209.9  37.0  34162  289.62 0854.27
2009/04/23 16:44:26.0     -67   -251     76    260    271 195.1  16.4  34156  289.49 0854.27
2009/04/23 16:44:26.1     -18   -214    103    215    238 184.9  27.4  34156  289.52 0854.26
2009/04/23 16:44:26.2      48    -98    129    110    169 153.7  55.6  34156  289.50 0854.26
2009/04/23 16:44:26.3      28     -3    103     29    107  97.9  83.9  34178  289.87 0854.26
2009/04/23 16:44:26.4      -6     31    115     32    119 348.4  84.4  34180  289.92 0854.26
2009/04/23 16:44:26.5     -28     49     85     57    102 330.1  63.2  34180  289.92 0854.26
2009/04/23 16:44:26.6      10     44     71     46     84  13.4  64.6  34182  289.94 0854.26
2009/04/23 16:44:26.7       5     55     81     56     98   5.3  62.6  34192  290.11 0854.26
2009/04/23 16:44:26.8      13     38     81     41     90  18.7  71.4  34196  290.19 0854.26
2009/04/23 16:44:26.9      56     35     73     67     99  57.6  52.2  34178  289.89 0854.26
2009/04/23 16:44:27.0     145     36     94    150    177  75.8  35.2  34164  289.65 0854.26
2009/04/23 16:44:27.1     103     34    100    109    147  71.8  47.9  34170  289.75 0854.26
2009/04/23 16:44:27.2      92     58     72    110    131  57.6  36.0  34168  289.70 0854.26
2009/04/23 16:44:27.3     102    107     11    149    150  43.7   4.4  34162  289.60 0854.26
2009/04/23 16:44:27.4     125     74     11    146    147  59.3   4.4  34158  289.55 0854.26
2009/04/23 16:44:27.5      36     48     35     61     70  37.0  32.4  34172  289.79 0854.26
2009/04/23 16:44:27.6     -16     -1     37     17     40 265.7  74.0  34180  289.91 0854.26
2009/04/23 16:44:27.7     -77    -20     32     80     86 254.9  22.5  34174  289.82 0854.26
2009/04/23 16:44:27.8    -106     17     17    108    110 279.2   9.0  34164  289.63 0854.26
2009/04/23 16:44:27.9     -95    -19    -12     97     98 258.5  -7.3  34166  289.67 0854.26
2009/04/23 16:44:28.0     -70    -48     -3     86     87 235.4  -2.6  34166  289.67 0854.26
2009/04/23 16:44:28.1     -34    -96     -4    102    103 199.6  -2.2  34164  289.63 0854.26
2009/04/23 16:44:28.2      46   -143    -83    151    172 162.2 -35.8  34154  289.46 0854.26
2009/04/23 16:44:28.3     -51   -120    -62    131    144 203.2 -31.6  34140  289.24 0854.26
2009/04/23 16:44:28.4     -24   -174     62    176    187 188.0  19.4  34146  289.35 0854.26
2009/04/23 16:44:28.5     -90   -246    -38    263    266 200.1  -8.2  34148  289.37 0854.26
2009/04/23 16:44:28.6     -32   -157      8    161    162 191.6   3.1  34152  289.45 0854.26
2009/04/23 16:44:28.7     -94   -130    -36    161    165 216.1 -12.6  34148  289.38 0854.26
2009/04/23 16:44:28.8     -74    -52    -61     91    109 234.5 -41.4  34152  289.43 0854.26
2009/04/23 16:44:28.9     -42    -55    -26     70     74 217.0 -24.4  34152  289.45 0854.26
2009/04/23 16:44:29.0     -51    -25    -17     57     60 243.8 -16.6  34152  289.43 0854.26
2009/04/23 16:44:29.1     -55    -27    -24     62     66 243.8 -26.4  34152  289.43 0854.26
2009/04/23 16:44:29.2       7    -50    -15     51     53 171.1 -22.8  34156  289.50 0854.26
2009/04/23 16:44:29.3      -6    -26    -27     27     38 193.4 -54.5  34156  289.52 0854.26
2009/04/23 16:44:29.4      28      9    -28     30     41  71.4 -53.4  34164  289.65 0854.26
2009/04/23 16:44:29.5      52     46    -44     70     82  48.7 -39.9  34166  289.67 0854.26
2009/04/23 16:44:29.6       1    113    -24    114    117   1.0 -11.9  34168  289.70 0854.26
2009/04/23 16:44:29.7      10     99    -57    100    115   5.8 -36.8  34174  289.82 0854.26
2009/04/23 16:44:29.8      50    101    -14    113    114  26.3  -7.2  34170  289.75 0854.26
2009/04/23 16:44:29.9      56     82    -15    100    102  34.3  -8.8  34170  289.75 0854.26
2009/04/23 16:44:30.0      47    129     -3    138    139  20.0  -1.3  34192  290.11 0854.26
2009/04/23 16:44:30.1      14    144    -39    145    151   5.8 -15.0  34222  290.64 0854.24
2009/04/23 16:44:30.2     109     94    -36    145    150  49.1 -13.9  34200  290.26 0854.24
2009/04/23 16:44:30.3      88     56    -28    105    109  57.1 -15.0  34194  290.16 0854.24
2009/04/23 16:44:30.4     107    -11    -14    108    109  96.1  -7.7  34194  290.16 0854.24
2009/04/23 16:44:30.5      89    -58    -21    107    110 123.3 -11.3  34166  289.67 0854.24
2009/04/23 16:44:30.6       0    -14     40     15     42 182.7  79.2  34146  289.35 0854.24
2009/04/23 16:44:30.7     -96   -109    114    146    185 221.5  42.0  34154  289.48 0854.24
2009/04/23 16:44:30.8      67   -101     14    122    123 146.6   6.9  34148  289.38 0854.24
2009/04/23 16:44:30.9     131   -169     55    215    223 142.2  14.5  34142  289.26 0854.24
2009/04/23 16:44:31.0      86   -239    189    255    317 160.2  40.2  34146  289.32 0854.24
2009/04/23 16:44:31.1      20   -266    222    267    347 175.5  43.8  34158  289.54 0854.23
2009/04/23 16:44:31.2      -7   -181    180    182    255 182.5  50.0  34160  289.56 0854.23
2009/04/23 16:44:31.3     115    -17     77    117    140  98.4  36.5  34174  289.82 0854.23
2009/04/23 16:44:31.4     242    -32    151    245    287  97.7  34.8  34160  289.58 0854.23
2009/04/23 16:44:31.5     214    -33    114    217    245  99.0  29.8  34172  289.78 0854.23
2009/04/23 16:44:31.6     133   -129     74    186    200 134.2  23.0  34170  289.74 0854.23
2009/04/23 16:44:31.7      49   -163     26    171    174 163.1   8.8  34166  289.67 0854.23
2009/04/23 16:44:31.8      48   -157     81    165    183 163.1  28.0  34166  289.69 0854.23
2009/04/23 16:44:31.9     137   -239    147    276    312 150.1  30.5  34166  289.68 0854.23
2009/04/23 16:44:32.0     140   -205     75    249    261 145.7  16.8  34178  289.86 0854.23
2009/04/23 16:44:32.2     146   -157     95    215    235 137.0  25.3  34178  289.89 0854.23
2009/04/23 16:44:32.2      73   -269    -30    279    281 164.8  -6.2  34162  289.61 0854.23
2009/04/23 16:44:32.3     118   -285    -12    309    310 157.5  -2.2  34156  289.51 0854.23
2009/04/23 16:44:32.4     -23   -351    212    352    410 183.9  34.0  34174  289.81 0854.23
2009/04/23 16:44:32.5    -112   -378    105    395    409 196.5  15.0  34162  289.60 0854.23
2009/04/23 16:44:32.6      29   -345    155    347    380 175.1  25.7  34166  289.67 0854.23
2009/04/23 16:44:32.7     111   -305     96    325    340 159.9  16.5  34166  289.69 0854.23
2009/04/23 16:44:32.9      87   -287     19    301    302 163.1   3.8  34164  289.64 0854.23
2009/04/23 16:44:33.0      91   -299     77    313    323 163.0  13.8  34164  289.64 0854.23
2009/04/23 16:44:33.1     107   -309     90    328    341 160.8  15.4  34162  289.59 0854.23
2009/04/23 16:44:33.2     271   -240     36    363    365 131.6   5.7  34166  289.69 0854.22
2009/04/23 16:44:33.3     149   -146     16    209    210 134.4   4.6  34170  289.74 0854.22
2009/04/23 16:44:33.4     162   -151     43    222    227 133.1  11.0  34166  289.69 0854.22
2009/04/23 16:44:33.5     127    -91    -52    157    165 125.9 -23.8  34170  289.75 0854.22
2009/04/23 16:44:33.6     102    -48    -96    113    148 115.2 -48.7  34170  289.75 0854.22
2009/04/23 16:44:33.7      67      6    -63     68     92  84.8 -52.3  34172  289.79 0854.22
2009/04/23 16:44:33.8       0    -75     91     76    118 180.0  55.8  34174  289.82 0854.22
2009/04/23 16:44:33.9      41   -135    141    142    200 163.0  50.0  34162  289.60 0854.22
2009/04/23 16:44:34.0     142   -223     22    265    267 147.5   4.9  34156  289.51 0854.22
2009/04/23 16:44:34.1     -17   -218    115    219    247 184.5  30.1  34158  289.53 0854.22
2009/04/23 16:44:34.2      -4   -286    189    287    343 180.9  36.4  34162  289.61 0854.22
2009/04/23 16:44:34.3      93   -242    192    260    323 158.8  40.2  34156  289.49 0854.22
2009/04/23 16:44:34.4     -34   -293    255    296    390 186.7  45.2  34162  289.59 0854.22
2009/04/23 16:44:34.5     -48   -197    218    203    297 193.8  52.2  34166  289.68 0854.22
2009/04/23 16:44:34.6      69   -109    173    130    216 147.5  59.4  34172  289.77 0854.22
2009/04/23 16:44:34.7     130   -323    241    349    424 158.1  37.9  34162  289.60 0854.22
2009/04/23 16:44:34.8      75   -296    185    306    357 165.7  34.0  34160  289.57 0854.22
2009/04/23 16:44:34.9      57   -217    167    225    280 165.3  40.4  34160  289.58 0854.22
2009/04/23 16:44:35.0      10   -172    212    173    273 176.4  56.6  34168  289.70 0854.22
2009/04/23 16:44:35.1     -27   -157    133    160    208 189.8  43.8  34164  289.63 0854.22
2009/04/23 16:44:35.2     -68   -203     97    215    235 198.7  26.2  34158  289.53 0854.20
2009/04/23 16:44:35.3    -142   -194    103    241    262 216.1  24.3  34162  289.59 0854.20
2009/04/23 16:44:35.4    -218   -195     35    293    296 228.2   6.9  34166  289.68 0854.20
2009/04/23 16:44:35.5    -285   -250    -48    380    384 228.7  -7.2  34168  289.72 0854.20
2009/04/23 16:44:35.6    -219   -223    -56    313    319 224.5 -10.2  34172  289.78 0854.20
2009/04/23 16:44:35.7    -120   -254     -2    282    283 205.3  -0.5  34162  289.61 0854.20
2009/04/23 16:44:35.8     -46   -208    -52    214    221 192.5 -13.7  34174  289.82 0854.20
2009/04/23 16:44:35.9     -36   -287    141    290    322 187.2  27.8  34228  290.71 0854.20
2009/04/23 16:44:36.0     -69   -243    121    253    280 196.0  27.3  34244  291.00 0854.20
2009/04/23 16:44:36.1    -120   -189    132    225    260 212.5  33.4  34244  290.99 0854.20
2009/04/23 16:44:36.2    -139   -116    226    182    290 230.2  56.9  34248  291.07 0854.20
2009/04/23 16:44:36.3    -110   -135    206    175    270 219.2  55.6  34244  291.00 0854.20
2009/04/23 16:44:36.4      36   -243    192    246    312 171.5  42.0  34196  290.19 0854.20
2009/04/23 16:44:36.5      94   -253    207    271    341 159.5  41.2  34166  289.68 0854.20
2009/04/23 16:44:36.6      77   -209    150    223    268 159.7  37.0  34160  289.58 0854.20
2009/04/23 16:44:36.7     -15   -209    149    210    257 184.2  38.8  34166  289.66 0854.20
2009/04/23 16:44:36.8       0   -294     25    295    297 180.0   4.9  34170  289.73 0854.20
2009/04/23 16:44:36.9      16   -296    -31    297    299 176.9  -6.1  34168  289.71 0854.20
2009/04/23 16:44:37.0      80   -232      3    246    247 160.8   0.8  34166  289.66 0854.20
2009/04/23 16:44:37.1      70   -149     49    165    173 154.7  16.8  34166  289.69 0854.20
2009/04/23 16:44:37.2      69   -108     46    129    136 147.4  20.0  34168  289.70 0854.19
2009/04/23 16:44:37.3      53   -200    107    207    233 165.1  29.3  34170  289.74 0854.19
2009/04/23 16:44:37.4      67   -318    127    326    349 168.1  22.3  34202  290.27 0854.19
2009/04/23 16:44:37.5      -3   -331    114    332    352 180.6  19.1  34188  290.06 0854.19
2009/04/23 16:44:37.6     -31   -287    132    289    317 186.3  26.3  34184  289.98 0854.19
2009/04/23 16:44:37.7     -20   -341    157    342    376 183.4  26.4  34184  289.98 0854.19
2009/04/23 16:44:37.8     -54   -400    126    404    424 187.7  17.4  34198  290.21 0854.19
2009/04/23 16:44:37.9     -39   -424    139    427    450 185.4  18.0  34184  289.99 0854.19
2009/04/23 16:44:38.0      39   -375    172    378    415 173.9  26.2  34176  289.83 0854.19
2009/04/23 16:44:38.1      15   -321    172    322    365 177.3  30.5  34188  290.04 0854.19
2009/04/23 16:44:38.2      41   -291    226    294    370 171.9  41.5  34178  289.89 0854.19
2009/04/23 16:44:38.3      50   -213    103    219    242 166.6  27.0  34168  289.71 0854.19
2009/04/23 16:44:38.4      62   -167     55    179    188 159.5  17.1  34172  289.77 0854.19
2009/04/23 16:44:38.5      -9    -82     92     83    123 186.7  52.7  34170  289.74 0854.19
2009/04/23 16:44:38.6      26   -119    118    122    169 167.5  49.4  34180  289.92 0854.19
2009/04/23 16:44:38.7     -13   -132     82    133    156 185.8  35.5  34174  289.82 0854.19
2009/04/23 16:44:38.8     -44   -131     47    139    148 198.5  18.9  34172  289.77 0854.19
2009/04/23 16:44:38.9      13   -282     50    283    288 177.3  10.0  34144  289.31 0854.19
2009/04/23 16:44:39.0      45   -296    145    300    333 171.3  27.7  34140  289.22 0854.19
2009/04/23 16:44:39.1     117   -418     79    435    443 164.3  10.4  34142  289.26 0854.19
2009/04/23 16:44:39.2     -78   -281     92    292    307 195.6  17.5  34146  289.32 0854.18
2009/04/23 16:44:39.3     -13   -171     60    172    183 184.5  19.4  34150  289.40 0854.18
2009/04/23 16:44:39.4      49   -150     87    158    180 161.7  31.3  34164  289.63 0854.18
2009/04/23 16:44:39.5     -39   -253     50    257    262 188.9  11.1  34150  289.39 0854.18
2009/04/23 16:44:39.6     -61   -200     72    210    223 197.0  18.9  34150  289.40 0854.18
2009/04/23 16:44:39.7     -56   -203     74    211    224 195.6  19.4  34144  289.30 0854.18
2009/04/23 16:44:39.8     -55   -212     43    220    225 194.7  11.1  34148  289.38 0854.18
2009/04/23 16:44:39.9     -47   -213    -12    219    220 192.5  -3.2  34152  289.45 0854.18
2009/04/23 16:44:40.0     -38   -189    -22    193    195 191.5  -6.7  34154  289.46 0854.18
2009/04/23 16:44:40.1     -31   -201    -15    204    205 188.9  -4.4  34118  288.87 0854.18
2009/04/23 16:44:40.2      15   -197     -9    198    199 175.5  -2.6  34100  288.57 0854.18
2009/04/23 16:44:40.3      51   -230     44    236    241 167.5  10.6  34112  288.76 0854.18
2009/04/23 16:44:40.4      21   -250     30    251    253 175.1   6.9  34140  289.24 0854.18
2009/04/23 16:44:40.5     126   -183     -8    223    224 145.5  -2.2  34150  289.40 0854.18
2009/04/23 16:44:40.6     104   -207     27    232    234 153.3   6.9  34140  289.24 0854.18
2009/04/23 16:44:40.7      48   -147      1    155    156 161.7   0.5  34136  289.18 0854.18
2009/04/23 16:44:40.8       7   -158      3    159    160 177.3   1.2  34138  289.19 0854.18
2009/04/23 16:44:40.9       0   -166     15    167    168 180.0   5.2  34152  289.43 0854.18
2009/04/23 16:44:41.0       3   -163    -46    164    170 178.6 -20.4  34152  289.45 0854.18
2009/04/23 16:44:41.1      29   -148    -81    151    171 168.9 -35.0  34158  289.55 0854.18
2009/04/23 16:44:41.2     -52    -83    -73     98    122 212.1 -45.1  34156  289.50 0854.17
2009/04/23 16:44:41.3     -24    -14    -60     29     66 239.3 -77.3  34148  289.38 0854.17
2009/04/23 16:44:41.4      39      7    -35     40     53  79.4 -50.2  34160  289.57 0854.17
2009/04/23 16:44:41.5      88     17      0     90     91  79.0   0.2  34158  289.55 0854.17
2009/04/23 16:44:41.6      74     -5     31     75     81  94.4  23.6  34160  289.57 0854.17
2009/04/23 16:44:41.7      72    -84    123    111    165 139.5  53.3  34158  289.53 0854.17
2009/04/23 16:44:41.8      -1   -145    148    146    207 180.5  50.1  34164  289.65 0854.17
2009/04/23 16:44:41.9      62   -141    161    155    223 156.4  50.9  34166  289.69 0854.17
2009/04/23 16:44:42.0      13   -161    109    162    195 175.1  36.7  34158  289.53 0854.17
2009/04/23 16:44:42.1      28   -122    129    126    180 167.1  50.7  34160  289.57 0854.17
2009/04/23 16:44:42.2      47    -39    107     62    123 129.5  66.8  34174  289.80 0854.17
2009/04/23 16:44:42.3      41    -79    100     90    134 152.4  53.3  34164  289.65 0854.17
2009/04/23 16:44:42.4     110   -186     75    217    230 149.5  19.2  34146  289.33 0854.17
2009/04/23 16:44:42.5     160   -116    162    198    255 125.9  43.7  34154  289.47 0854.17
2009/04/23 16:44:42.6     168   -159    143    232    272 133.6  35.0  34140  289.22 0854.17
2009/04/23 16:44:42.7      78   -209    182    224    288 159.5  43.7  34146  289.34 0854.17
2009/04/23 16:44:42.8      47   -141    191    149    242 161.3  58.4  34156  289.50 0854.17
2009/04/23 16:44:42.9       7   -206    197    207    285 178.0  48.5  34140  289.24 0854.17
2009/04/23 16:44:43.0       9   -127    202    128    239 175.5  64.7  34136  289.16 0854.17
2009/04/23 16:44:43.1      77   -268    187    279    335 163.9  37.0  34130  289.05 0854.17
2009/04/23 16:44:43.2     -38   -323    157    326    361 186.8  27.4  34148  289.37 0854.17
2009/04/23 16:44:43.3    -130   -236    136    270    302 209.0  28.7  34144  289.31 0854.17
2009/04/23 16:44:43.4    -145   -134     -6    198    199 227.3  -1.8  34144  289.30 0854.17
2009/04/23 16:44:43.5     -30    -67    -22     74     77 204.5 -22.8  34124  288.96 0854.17
2009/04/23 16:44:43.6     120   -212    128    244    275 150.4  29.8  34140  289.22 0854.17
2009/04/23 16:44:43.7     118   -349    122    369    389 161.2  18.4  34142  289.28 0854.17
2009/04/23 16:44:43.8      24   -355    149    356    385 176.1  23.9  34156  289.52 0854.17
2009/04/23 16:44:43.9     -80   -302    263    313    408 194.9  44.3  34166  289.69 0854.17
2009/04/23 16:44:44.0     -52   -254    242    260    355 191.6  47.9  34168  289.70 0854.17
2009/04/23 16:44:44.1    -128   -457    148    475    498 195.7  17.3  34162  289.62 0854.17
2009/04/23 16:44:44.2     -44   -409    141    412    436 186.3  18.9  34154  289.46 0854.17
2009/04/23 16:44:44.3     -79   -405    129    413    433 191.1  17.4  34160  289.56 0854.17
2009/04/23 16:44:44.4     -20   -411    156    412    440 182.9  21.7  34160  289.58 0854.17
2009/04/23 16:44:44.5     -43   -379      9    382    383 186.6   1.5  34142  289.25 0854.17
2009/04/23 16:44:44.6       4   -501    137    502    521 179.5  15.3  34146  289.32 0854.17
2009/04/23 16:44:44.7     -91   -339    143    351    379 195.1  23.2  34140  289.23 0854.17
2009/04/23 16:44:44.8      31   -400     72    402    409 175.5  10.2  34144  289.29 0854.17
2009/04/23 16:44:44.9     -54   -457     83    461    469 186.8  10.2  34142  289.28 0854.17
2009/04/23 16:44:45.0     -88   -552    125    560    574 189.1  12.6  34138  289.20 0854.17
2009/04/23 16:44:45.1      55   -448    266    452    524 172.9  33.4  34142  289.25 0854.17
2009/04/23 16:44:45.2       8   -464    223    465    515 179.0  27.4  34130  289.08 0854.17
2009/04/23 16:44:45.3      67   -474    254    479    542 171.9  30.2  34136  289.16 0854.17
2009/04/23 16:44:45.4      42   -332    256    335    421 172.8  41.3  34148  289.38 0854.17
2009/04/23 16:44:45.5     110   -397    218    413    467 164.5  30.1  34140  289.24 0854.17
2009/04/23 16:44:45.6      73   -333    234    341    413 167.6  37.7  34136  289.15 0854.17
2009/04/23 16:44:45.7      81   -411    320    420    528 168.8  41.2  34148  289.37 0854.17
2009/04/23 16:44:45.8      75   -405    201    412    458 169.5  27.9  34136  289.17 0854.17
2009/04/23 16:44:45.9       1   -365    103    366    381 179.8  15.8  34140  289.23 0854.17
2009/04/23 16:44:46.0      38   -392    240    394    461 174.4  34.3  34164  289.65 0854.17
2009/04/23 16:44:46.1      -4   -308    254    309    399 180.9  43.7  34208  290.37 0854.17
2009/04/23 16:44:46.2      17   -292    242    293    380 176.6  43.7  34162  289.62 0854.17
2009/04/23 16:44:46.3       5   -300    229    301    378 178.9  41.2  34128  289.04 0854.17
2009/04/23 16:44:46.4      67   -368    200    375    425 169.7  30.3  34132  289.11 0854.17
2009/04/23 16:44:46.5      16   -381    109    382    398 177.5  16.0  34132  289.10 0854.17
2009/04/23 16:44:46.6       2   -414    133    415    436 179.7  17.8  34138  289.21 0854.17
2009/04/23 16:44:46.7     -52   -424     94    428    439 187.1  12.4  34134  289.14 0854.17
2009/04/23 16:44:46.8     -83   -476     55    484    488 189.9   6.6  34126  289.00 0854.17
2009/04/23 16:44:46.9    -146   -455    118    478    493 197.8  13.9  34130  289.08 0854.17
2009/04/23 16:44:47.0    -245   -412     79    480    487 210.8   9.4  34130  289.06 0854.17
2009/04/23 16:44:47.1    -173   -312    132    357    380 209.0  21.0  34124  288.96 0854.17
2009/04/23 16:44:47.2    -122   -378    102    398    411 197.9  14.4  34136  289.16 0854.17
2009/04/23 16:44:47.3    -143   -464     43    486    489 197.2   5.1  34120  288.91 0854.17
2009/04/23 16:44:47.4    -171   -427     29    461    462 201.9   3.6  34144  289.29 0854.17
2009/04/23 16:44:47.5    -188   -346    138    394    417 208.5  20.0  34144  289.31 0854.17
2009/04/23 16:44:47.6    -328   -280    186    432    470 229.5  24.8  34144  289.29 0854.17
2009/04/23 16:44:47.7    -264   -282    214    387    442 223.1  31.4  34140  289.22 0854.17
2009/04/23 16:44:47.8    -244   -334     39    414    416 216.1   5.4  34128  289.02 0854.17
2009/04/23 16:44:47.9    -174   -366    142    406    430 205.5  20.0  34124  288.95 0854.17
2009/04/23 16:44:48.0    -121   -362    104    382    397 198.6  15.3  34120  288.88 0854.17
2009/04/23 16:44:48.1     -92   -275     92    291    306 198.5  17.7  34126  289.00 0854.17
2009/04/23 16:44:48.2    -116   -289    200    312    370 201.9  35.6  34124  288.96 0854.17
2009/04/23 16:44:48.3    -171   -306    157    351    384 209.3  25.8  34120  288.91 0854.17
2009/04/23 16:44:48.4    -175   -213    253    276    374 219.4  47.3  34122  288.94 0854.17
2009/04/23 16:44:48.5    -111   -246    155    270    311 204.3  32.4  34124  288.95 0854.17
2009/04/23 16:44:48.6     -37   -220    143    224    265 189.7  35.6  34124  288.95 0854.17
2009/04/23 16:44:48.7     -33   -221    155    224    272 188.5  37.8  34138  289.20 0854.17
2009/04/23 16:44:48.8    -118   -199    126    232    264 210.7  31.0  34160  289.58 0854.17
2009/04/23 16:44:48.9     -63   -190    103    201    225 198.5  29.2  34138  289.21 0854.17
2009/04/23 16:44:49.0     -48   -146    138    154    206 198.3  46.4  34130  289.06 0854.17
2009/04/23 16:44:49.1     -62   -203    132    213    250 197.2  34.8  34130  289.05 0854.17
2009/04/23 16:44:49.2     -47   -232    125    237    267 191.6  30.2  34132  289.09 0854.18
2009/04/23 16:44:49.3    -196   -366     54    416    420 208.1   7.5  34128  289.02 0854.18
2009/04/23 16:44:49.4     -64   -373    206    379    431 189.8  30.9  34140  289.24 0854.18
2009/04/23 16:44:49.5    -222   -347    -32    413    415 212.6  -4.5  34156  289.51 0854.18
2009/04/23 16:44:49.6    -175   -430     75    465    472 202.2   9.2  34166  289.67 0854.18
2009/04/23 16:44:49.7    -343   -259    123    431    449 232.9  15.9  34164  289.63 0854.18
2009/04/23 16:44:49.8    -270   -270    173    382    419 225.0  26.2  34148  289.36 0854.18
2009/04/23 16:44:49.9    -175   -239    139    297    327 216.1  27.1  34154  289.47 0854.18
2009/04/23 16:44:50.0    -150   -569     98    589    598 194.8   9.4  34152  289.44 0854.18
2009/04/23 16:44:50.1    -191   -477    218    514    558 201.8  24.5  34152  289.43 0854.18
2009/04/23 16:44:50.2    -297   -267     86    400    410 228.0  12.1  34192  290.12 0854.18
2009/04/23 16:44:50.3    -244   -274    -23    368    369 221.7  -3.7  34168  289.71 0854.18
2009/04/23 16:44:50.4    -204   -239     28    315    317 220.5   5.1  34174  289.81 0854.18
2009/04/23 16:44:50.5    -231   -189     43    299    303 230.7   8.2  34184  289.98 0854.18
2009/04/23 16:44:50.6    -203   -240     79    315    325 220.2  14.2  34164  289.64 0854.18
2009/04/23 16:44:50.7    -227   -206     23    307    308 227.8   4.4  34184  289.97 0854.18
2009/04/23 16:44:50.8    -171   -116     16    207    208 235.8   4.6  34180  289.92 0854.18
2009/04/23 16:44:50.9     -98    -62    -10    117    118 237.6  -5.2  34186  290.01 0854.18
2009/04/23 16:44:51.0     -37    -65     -3     76     77 209.9  -2.2  34178  289.89 0854.18
2009/04/23 16:44:51.1     -15    -73     52     75     91 191.6  38.0  34180  289.91 0854.18
2009/04/23 16:44:51.2     -50    -73     65     89    110 214.7  39.7  34182  289.96 0854.19
2009/04/23 16:44:51.3     -93    -93     13    132    133 225.0   5.9  34176  289.85 0854.19
2009/04/23 16:44:51.4      26    -66     30     72     78 158.1  23.1  34184  289.97 0854.19
2009/04/23 16:44:51.5     113    -99     35    151    156 131.4  13.1  34186  290.02 0854.19
2009/04/23 16:44:51.6     144   -101    -41    176    181 125.1 -13.2  34186  290.01 0854.19
2009/04/23 16:44:51.7     176    -58    -37    186    190 108.4 -11.3  34182  289.96 0854.19
2009/04/23 16:44:51.8     160    -22    -27    162    165  97.9  -9.6  34178  289.89 0854.19
2009/04/23 16:44:51.9      55    -35    -23     66     69 122.5 -23.3  34170  289.75 0854.19
2009/04/23 16:44:52.0      87     -3     34     88     94  92.6  21.5  34170  289.74 0854.19
2009/04/23 16:44:52.1     229     75     84    242    257  71.8  19.2  34158  289.54 0854.19
2009/04/23 16:44:52.2     249     49    167    254    303  78.8  36.3  34158  289.53 0854.19
2009/04/23 16:44:52.3     390    128    341    411    534  71.8  43.8  34152  289.44 0854.19
2009/04/23 16:44:52.4     505     94     26    514    515  79.4   2.9  34148  289.37 0854.19
2009/04/23 16:44:52.5     396     73    134    403    425  79.5  18.4  34142  289.26 0854.19
2009/04/23 16:44:52.6     499    160    169    525    552  72.2  17.9  34116  288.84 0854.19
2009/04/23 16:44:52.7     433     88    321    442    546  78.5  39.5  34152  289.45 0854.19
2009/04/23 16:44:52.8     250   -192    138    316    344 127.5  25.2  34150  289.40 0854.19
2009/04/23 16:44:52.9     241    -82    144    255    292 108.8  31.9  34144  289.29 0854.19
2009/04/23 16:44:53.0     319    -30   -109    321    339  95.5 -23.7  34142  289.25 0854.19
2009/04/23 16:44:53.1     303     65     13    311    312  77.8   2.5  34148  289.36 0854.19
2009/04/23 16:44:53.2     332    133    -68    358    365  68.1 -10.9  34132  289.11 0854.19
2009/04/23 16:44:53.3     361    172    -76    400    408  64.5 -10.8  34090  288.38 0854.19
2009/04/23 16:44:53.4     268    219    -53    347    352  50.7  -8.7  34112  288.76 0854.19
2009/04/23 16:44:53.5     299    -22    -60    300    306  94.4 -11.3  34138  289.20 0854.19
2009/04/23 16:44:53.6     243      0     -9    244    245  90.0  -2.2  34150  289.39 0854.19
2009/04/23 16:44:53.7     310    -52    -29    315    317  99.6  -5.4  34154  289.47 0854.19
2009/04/23 16:44:53.8     340     12      5    341    342  87.9   0.9  34162  289.60 0854.19
2009/04/23 16:44:53.9     288   -114     19    311    312 111.7   3.6  34166  289.68 0854.19
2009/04/23 16:44:54.0     226   -109    -35    251    254 115.8  -8.0  34168  289.70 0854.19
2009/04/23 16:44:54.1     139   -143    -89    200    218 135.9 -29.7  34148  289.38 0854.19
2009/04/23 16:44:54.2     141    -78   -130    162    207 118.9 -47.4  34152  289.43 0854.19
2009/04/23 16:44:54.3     224    -27    -46    226    231  97.0 -11.6  34160  289.57 0854.19
2009/04/23 16:44:54.4     280    -62    154    287    325 102.6  30.6  34170  289.75 0854.19
2009/04/23 16:44:54.5     263    -77     95    275    292 106.4  19.2  34174  289.80 0854.19
2009/04/23 16:44:54.6     245   -134    147    280    316 118.6  30.0  34202  290.27 0854.19
2009/04/23 16:44:54.7     240   -219    190    326    377 132.4  32.9  34218  290.57 0854.19
2009/04/23 16:44:54.8     135   -112    146    176    228 129.8  43.8  34214  290.48 0854.19
2009/04/23 16:44:54.9      -6    -26     82     27     86 193.4  80.7  34234  290.84 0854.19
2009/04/23 16:44:55.0     -85    -17     -1     87     88 258.5  -1.3  34232  290.79 0854.19
2009/04/23 16:44:55.1    -106   -138    -31    175    178 217.6 -10.3  34224  290.67 0854.19
2009/04/23 16:44:55.2     -57   -173    -36    183    187 198.3 -11.1  34206  290.35 0854.19
2009/04/23 16:44:55.3       6   -223    -65    224    233 178.4 -21.2  34204  290.33 0854.19
2009/04/23 16:44:55.4      30   -187    -57    190    199 170.9 -16.8  34222  290.64 0854.19
2009/04/23 16:44:55.5      49   -234     17    240    241 168.0   4.2  34226  290.70 0854.19
2009/04/23 16:44:55.6     -54   -231     53    238    244 193.3  12.6  34218  290.56 0854.19
2009/04/23 16:44:55.7      11   -242    -26    243    245 177.3  -6.2  34200  290.24 0854.19
2009/04/23 16:44:55.8     -41   -220     39    224    228 190.7   9.9  34192  290.13 0854.19
2009/04/23 16:44:55.9    -101   -194     19    219    220 207.6   5.2  34180  289.91 0854.19
2009/04/23 16:44:56.0    -218   -199    -43    296    300 227.7  -8.3  34116  288.83 0854.19
2009/04/23 16:44:56.1    -217   -324     -7    391    392 213.8  -1.2  34090  288.37 0854.19
2009/04/23 16:44:56.2    -151   -324    -37    358    360 205.0  -5.9  34142  289.28 0854.18
2009/04/23 16:44:56.3      68   -364    148    371    399 169.3  22.9  34182  289.93 0854.18
2009/04/23 16:44:56.4      59   -383    132    388    410 171.1  18.8  34174  289.80 0854.18
2009/04/23 16:44:56.5      55   -357    165    362    397 171.1  26.2  34184  289.98 0854.18
2009/04/23 16:44:56.6     -30   -383    134    385    408 184.5  19.2  34162  289.62 0854.18
2009/04/23 16:44:56.7       2   -385     68    386    393 179.7  10.1  34154  289.48 0854.18
2009/04/23 16:44:56.8     -25   -396     80    397    405 183.6  11.5  34164  289.65 0854.18
2009/04/23 16:44:56.9     -60   -339     70    345    352 190.1  11.5  34152  289.45 0854.18
2009/04/23 16:44:57.0    -112   -289     66    310    318 201.2  12.2  34140  289.24 0854.18
2009/04/23 16:44:57.1     -17   -335    118    336    356 183.0  20.2  34138  289.21 0854.18
2009/04/23 16:44:57.2     -47   -293    147    297    331 189.1  28.4  34144  289.31 0854.18
2009/04/23 16:44:57.3    -248   -299    153    389    418 219.7  22.7  34132  289.11 0854.18
2009/04/23 16:44:57.4    -228   -213    120    313    335 226.9  22.0  34154  289.47 0854.18
2009/04/23 16:44:57.5    -141   -149    144    206    251 223.3  38.4  34148  289.37 0854.18
2009/04/23 16:44:57.6    -181   -283    108    337    354 212.6  17.8  34130  289.08 0854.18
2009/04/23 16:44:57.7    -170   -292    163    339    376 210.2  27.4  34118  288.86 0854.18
2009/04/23 16:44:57.8    -203   -282     90    348    360 215.9  14.6  34126  288.99 0854.18
2009/04/23 16:44:57.9    -162   -290    138    333    360 209.1  23.7  34156  289.50 0854.18
2009/04/23 16:44:58.0    -118   -239    136    267    299 206.3  29.2  34148  289.36 0854.18
2009/04/23 16:44:58.1     -89   -268    188    283    339 198.5  36.6  34142  289.27 0854.18
2009/04/23 16:44:58.2    -109   -279    162    300    340 201.4  30.9  34132  289.09 0854.17
2009/04/23 16:44:58.3     -74   -198    130    212    248 200.7  34.5  34132  289.10 0854.17
2009/04/23 16:44:58.4     -92   -126    161    157    224 216.1  50.4  34128  289.04 0854.17
2009/04/23 16:44:58.5      22     34    175     41    179  32.5  87.3  34150  289.41 0854.17
2009/04/23 16:44:58.6      94     19    169     96    194  78.5  68.1  34124  288.97 0854.17
2009/04/23 16:44:58.7     166      4    159    167    230  88.3  48.5  34114  288.79 0854.17
2009/04/23 16:44:58.8     222     29    145    224    266  82.5  35.6  34108  288.68 0854.17
2009/04/23 16:44:58.9     213     -2    183    214    281  90.6  44.9  34112  288.76 0854.17
2009/04/23 16:44:59.0       6     83    121     84    147   4.4  61.5  34140  289.23 0854.17
2009/04/23 16:44:59.2      22    143     49    145    154   8.9  18.9  34150  289.40 0854.17
2009/04/23 16:44:59.3      78     73    -13    108    109  46.8  -7.3  34136  289.18 0854.17
2009/04/23 16:44:59.4      89    -54    105    105    148 121.1  50.1  34144  289.30 0854.17
2009/04/23 16:44:59.5     229     77    194    242    310  71.4  43.0  34152  289.42 0854.17
2009/04/23 16:44:59.6     327     77    283    336    439  76.7  44.3  34196  290.17 0854.17
2009/04/23 16:44:59.7     425     86    346    434    555  78.5  42.7  34204  290.32 0854.17
2009/04/23 16:44:59.8     401      6    287    402    493  89.1  39.1  34228  290.71 0854.17
2009/04/23 16:44:59.9     249    -38    265    252    365  98.8  51.6  34256  291.20 0854.17
2009/04/23 16:45:00.0      48     41    211     64    220  49.6  82.7  34254  291.16 0854.17
2009/04/23 16:45:00.1     -76   -160    223    178    285 205.6  57.3  34206  290.36 0854.17
2009/04/23 16:45:00.2     -95   -246    297    264    397 201.2  53.9  34130  289.08 0854.17
2009/04/23 16:45:00.3     -44   -242    229    247    336 190.5  47.8  34118  288.87 0854.19
2009/04/23 16:45:00.4    -104   -187     78    215    228 209.2  20.7  34122  288.92 0854.19
2009/04/23 16:45:00.5     -77   -115    149    139    203 213.8  52.1  34120  288.91 0854.19
2009/04/23 16:45:00.6    -126   -131    195    182    266 223.9  52.2  34136  289.17 0854.19
2009/04/23 16:45:00.7    -136   -135    186    192    267 225.2  49.0  34144  289.31 0854.19
2009/04/23 16:45:00.8    -130   -157    121    204    237 219.6  33.5  34134  289.14 0854.19
2009/04/23 16:45:00.9    -199   -180    107    269    289 227.8  23.0  34130  289.07 0854.19
2009/04/23 16:45:01.0    -246   -150    155    289    327 238.7  30.6  34156  289.51 0854.19
2009/04/23 16:45:01.1    -220   -153    177    269    322 235.1  36.4  34160  289.56 0854.19
2009/04/23 16:45:01.2    -194   -251    178    318    364 217.8  31.7  34156  289.50 0854.19
2009/04/23 16:45:01.3    -184   -220    252    288    382 219.9  45.7  34152  289.42 0854.19
2009/04/23 16:45:01.4    -104   -238    213    260    336 203.7  43.6  34138  289.19 0854.19
2009/04/23 16:45:01.5    -100   -137    165    170    236 216.1  49.0  34140  289.23 0854.19
2009/04/23 16:45:01.6    -101   -166    171    195    259 211.4  45.8  34144  289.29 0854.19
2009/04/23 16:45:01.7      55    -93    157    109    191 149.3  61.8  34138  289.19 0854.19
2009/04/23 16:45:01.8     -28   -133    179    136    224 192.0  59.2  34138  289.21 0854.19
2009/04/23 16:45:01.9     -30   -128    176    132    220 193.4  59.4  34126  289.01 0854.19
2009/04/23 16:45:02.0    -137    -62    140    151    205 245.6  47.7  34140  289.23 0854.19
2009/04/23 16:45:02.1    -167    -23    138    169    218 262.1  43.7  34142  289.28 0854.19
2009/04/23 16:45:02.2     -49   -157    201    165    260 197.6  56.4  34128  289.02 0854.19
2009/04/23 16:45:02.3     -75    -32    151     82    171 246.5  69.3  34140  289.24 0854.23
2009/04/23 16:45:02.4    -155      2    151    156    217 270.9  49.0  34158  289.55 0854.23
2009/04/23 16:45:02.5    -153    -61    148    165    221 248.2  46.6  34150  289.40 0854.23
2009/04/23 16:45:02.6    -148     39      6    154    155 285.1   2.3  34146  289.35 0854.23
2009/04/23 16:45:02.7    -112    137    -22    178    180 320.8  -7.3  34156  289.50 0854.23
2009/04/23 16:45:02.8     -93    -75     76    120    142 230.9  35.5  34154  289.46 0854.23
2009/04/23 16:45:02.9     -14   -132     62    133    146 186.3  27.1  34142  289.26 0854.23
2009/04/23 16:45:03.0     -59   -115    110    130    170 207.2  44.5  34132  289.11 0854.23
2009/04/23 16:45:03.1    -127    -98    147    161    218 232.2  47.7  34150  289.40 0854.23
2009/04/23 16:45:03.2     -51   -117    125    128    178 203.7  49.4  34162  289.60 0854.23
2009/04/23 16:45:03.3    -100     -7     19    101    103 265.7  11.0  34160  289.57 0854.23
2009/04/23 16:45:03.4     -62    -29     63     69     93 244.6  47.9  34138  289.21 0854.23
2009/04/23 16:45:03.5     -74    -45     72     87    112 238.5  43.8  34122  288.92 0854.23
2009/04/23 16:45:03.6     -24   -100    103    103    145 193.8  50.1  34120  288.89 0854.23
2009/04/23 16:45:03.7      20      6     86     22     88  71.6  85.4  34134  289.13 0854.23
2009/04/23 16:45:03.8      49      2    127     50    136  87.4  77.6  34146  289.35 0854.23
2009/04/23 16:45:03.9      28    -25    129     38    134 131.3  82.8  34160  289.58 0854.23
2009/04/23 16:45:04.0    -135     65     99    150    179 295.8  36.5  34148  289.36 0854.23
2009/04/23 16:45:04.1    -151     68     35    166    170 294.2  12.2  34150  289.40 0854.23
2009/04/23 16:45:04.2    -206     85     77    223    237 292.4  19.2  34156  289.50 0854.23
2009/04/23 16:45:04.3    -298     96      0    314    315 287.8   0.1  34168  289.70 0854.25
2009/04/23 16:45:04.4    -338    159    -16    374    375 295.2  -2.5  34158  289.54 0854.25
2009/04/23 16:45:04.5    -245    165     18    296    297 304.1   3.6  34166  289.68 0854.25
2009/04/23 16:45:04.6    -220    220    -57    312    318 315.1 -10.4  34166  289.66 0854.25
2009/04/23 16:45:04.7    -204    224     20    304    305 317.7   3.9  34156  289.51 0854.25
2009/04/23 16:45:04.8    -133    260    114    292    313 332.9  22.5  34158  289.53 0854.25
2009/04/23 16:45:04.9     -78    215     88    229    245 340.0  22.0  34162  289.61 0854.25
2009/04/23 16:45:05.0      25    257     35    259    262   5.6   7.8  34154  289.47 0854.25
2009/04/23 16:45:05.1      19    235     54    236    243   4.7  12.9  34164  289.63 0854.25
2009/04/23 16:45:05.2      97     81     67    127    143  50.4  30.3  34148  289.38 0854.25
2009/04/23 16:45:05.3      42     93    104    103    146  24.5  50.1  34146  289.33 0854.25
2009/04/23 16:45:05.4     -13     75     83     77    113 350.2  52.1  34152  289.43 0854.25
2009/04/23 16:45:05.5     -84     55     74    101    125 303.3  39.7  34148  289.38 0854.25
2009/04/23 16:45:05.6     -61     -4    123     62    137 265.6  71.4  34150  289.41 0854.25
2009/04/23 16:45:05.7     -44   -189     79    195    210 193.1  23.1  34146  289.33 0854.25
2009/04/23 16:45:05.8    -169   -164    -39    236    240 226.0  -9.4  34154  289.47 0854.25
2009/04/23 16:45:05.9    -141   -257     65    294    302 208.7  12.6  34138  289.20 0854.25
2009/04/23 16:45:06.0    -107   -157    -24    191    193 214.3  -7.3  34138  289.19 0854.25
2009/04/23 16:45:06.1     -85   -138    -61    163    174 211.6 -25.7  34146  289.33 0854.25
2009/04/23 16:45:06.2     -41   -188    -75    193    207 192.5 -26.9  34126  289.01 0854.25
2009/04/23 16:45:06.3    -161    -83      9    182    183 242.7   2.9  34134  289.14 0854.26
2009/04/23 16:45:06.4    -121    -61    -41    136    142 242.9 -21.7  34138  289.21 0854.26
2009/04/23 16:45:06.5    -184      7    -53    185    192 272.4 -21.0  34140  289.24 0854.26
2009/04/23 16:45:06.6    -188     45    -92    194    214 283.5 -31.6  34152  289.45 0854.26
2009/04/23 16:45:06.7    -126     91    -56    156    165 305.9 -24.6  34146  289.35 0854.26
2009/04/23 16:45:06.8     -93     82      0    125    126 311.3  -0.3  34138  289.19 0854.26
2009/04/23 16:45:06.9     -72     75     38    105    111 316.3  20.0  34128  289.02 0854.26
2009/04/23 16:45:07.0     -59     22     42     64     76 290.8  35.6  34138  289.21 0854.26
2009/04/23 16:45:07.1      -3     -2     50      4     50 237.6  90.0  34144  289.31 0854.26
2009/04/23 16:45:07.2      27     -9     32     29     43 108.6  52.2  34144  289.31 0854.26
2009/04/23 16:45:07.3      74     22     49     78     92  73.2  35.5  34146  289.35 0854.26
2009/04/23 16:45:07.4      83     70     37    109    116  49.6  18.9  34144  289.30 0854.26
2009/04/23 16:45:07.5      79     35     65     87    108  66.0  40.7  34146  289.33 0854.26
2009/04/23 16:45:07.6      55     80     80     98    126  34.3  43.7  34156  289.52 0854.26
2009/04/23 16:45:07.7      20     36     84     42     93  29.9  71.4  34172  289.77 0854.26
2009/04/23 16:45:07.8     -15     86     52     88    102 349.8  33.5  34158  289.55 0854.26
2009/04/23 16:45:07.9      15     77     75     79    108  11.6  48.5  34164  289.65 0854.26
2009/04/23 16:45:08.0     -21    126     14    128    129 350.3   6.5  34172  289.79 0854.26
2009/04/23 16:45:08.1     -17    188      0    189    190 354.7   0.0  34160  289.57 0854.26
2009/04/23 16:45:08.2     -14    137     -2    138    139 353.8  -1.2  34156  289.50 0854.26
2009/04/23 16:45:08.3     -41     83    -40     93    101 333.7 -29.0  34156  289.52 0854.26
2009/04/23 16:45:08.4     -38     80    -95     89    130 334.1 -56.5  34150  289.40 0854.26
2009/04/23 16:45:08.5     -21    124    -69    126    143 350.2 -35.8  34160  289.58 0854.26
2009/04/23 16:45:08.6     -38    128    -57    134    145 343.5 -28.5  34166  289.69 0854.26
2009/04/23 16:45:08.7     -24    142    -51    145    153 350.2 -23.8  34180  289.91 0854.26
2009/04/23 16:45:08.8     -14    147     -3    148    149 354.2  -1.2  34186  290.02 0854.26
2009/04/23 16:45:08.9      18     99      7    101    102  10.7   4.4  34214  290.48 0854.26
2009/04/23 16:45:09.0      25    145    -13    148    149   9.8  -5.2  34240  290.92 0854.26
2009/04/23 16:45:09.1      76    112    -17    136    138  34.3  -7.3  34252  291.15 0854.26
2009/04/23 16:45:09.2     -24    119     22    122    125 348.5  10.6  34258  291.25 0854.26
2009/04/23 16:45:09.3     -37    112     -5    118    119 341.7  -2.6  34250  291.09 0854.26
2009/04/23 16:45:09.4      28    137     27    140    143  11.6  11.1  34230  290.75 0854.26
2009/04/23 16:45:09.5      38    115     -6    122    123  18.3  -3.1  34214  290.48 0854.26
2009/04/23 16:45:09.6      31    159      9    163    164  11.1   3.3  34216  290.52 0854.26
2009/04/23 16:45:09.7      70    110    -11    131    132  32.6  -5.1  34222  290.64 0854.26
2009/04/23 16:45:09.8      99    170     -1    198    199  30.3  -0.5  34214  290.48 0854.26
2009/04/23 16:45:09.9      55    144     38    155    160  20.9  13.9  34218  290.55 0854.26
2009/04/23 16:45:10.0      91    159     36    184    188  29.9  11.1  34218  290.55 0854.26
2009/04/23 16:45:10.1     103     92    107    139    175  48.2  41.7  34210  290.43 0854.26
2009/04/23 16:45:10.2       6     88    101     89    134   4.0  54.3  34204  290.33 0854.26
2009/04/23 16:45:10.3     -24    -27    129     37    134 221.4  82.8  34140  289.23 0854.26
2009/04/23 16:45:10.4     -67    -20    123     70    141 253.2  68.3  34168  289.72 0854.26
2009/04/23 16:45:10.5     109    -63     92    127    156 120.2  39.3  34144  289.31 0854.26
2009/04/23 16:45:10.6     170    -69     91    184    205 112.2  28.0  34136  289.16 0854.26
2009/04/23 16:45:10.7      51    -76    106     92    140 145.7  54.3  34140  289.24 0854.26
2009/04/23 16:45:10.8      16    -86     91     88    126 169.3  50.7  34148  289.36 0854.26
2009/04/23 16:45:10.9     -23   -116     16    119    121 191.6   8.0  34146  289.33 0854.26
2009/04/23 16:45:11.0      -4   -142     -7    143    144 181.8  -3.1  34168  289.70 0854.26
2009/04/23 16:45:11.1     -39   -179     -5    184    185 192.5  -1.6  34140  289.24 0854.26
2009/04/23 16:45:11.2     -58   -216    -15    224    225 195.1  -3.9  34136  289.18 0854.26
2009/04/23 16:45:11.3    -150   -180    -42    235    239 219.9 -10.3  34126  289.00 0854.26
2009/04/23 16:45:11.4    -158   -193    -76    250    262 219.4 -17.0  34128  289.03 0854.26
2009/04/23 16:45:11.5    -152   -182    -43    238    242 219.9 -10.3  34132  289.09 0854.26
2009/04/23 16:45:11.6    -148   -168    -12    225    226 221.4  -3.3  34132  289.09 0854.26
2009/04/23 16:45:11.7    -163   -153    -41    224    228 226.9 -10.5  34138  289.19 0854.26
2009/04/23 16:45:11.8    -136   -140    -38    196    200 224.3 -11.1  34136  289.16 0854.26
2009/04/23 16:45:11.9     -67   -122     48    140    149 208.9  18.9  34154  289.48 0854.26
2009/04/23 16:45:12.0      10    -93     67     94    115 173.3  39.1  34162  289.62 0854.26
2009/04/23 16:45:12.1      90    -65     65    112    129 126.0  32.9  34172  289.79 0854.26
2009/04/23 16:45:12.2      73    -73     35    104    111 135.0  18.9  34186  290.02 0854.26
2009/04/23 16:45:12.3     113    -45     21    122    124 111.7  10.1  34190  290.08 0854.27
2009/04/23 16:45:12.4      65    -79     39    103    110 140.4  21.5  34192  290.13 0854.27
2009/04/23 16:45:12.5      54    -42    -30     69     75 127.8 -29.5  34186  290.02 0854.27
2009/04/23 16:45:12.6      56    -69    -95     90    130 140.8 -56.0  34176  289.85 0854.27
2009/04/23 16:45:12.7      58   -144    -78    156    174 158.1 -32.9  34178  289.87 0854.27
2009/04/23 16:45:12.8      87   -136    -64    162    174 147.4 -26.9  34158  289.53 0854.27
2009/04/23 16:45:12.9     114    -92    -72    147    163 129.1 -32.4  34144  289.30 0854.27
2009/04/23 16:45:13.0     103    -41    -39    111    118 111.8 -19.7  34136  289.18 0854.27
2009/04/23 16:45:13.1     126     55     12    138    139  66.5   5.0  34140  289.24 0854.27
2009/04/23 16:45:13.2      29     55     93     63    112  28.1  62.6  34166  289.67 0854.27
2009/04/23 16:45:13.3     -11     10     70     16     71 313.3  88.0  34172  289.79 0854.28
2009/04/23 16:45:13.4      -2    -40     58     41     71 183.6  60.6  34180  289.92 0854.28
2009/04/23 16:45:13.5     -74   -162     89    179    199 204.5  28.5  34144  289.31 0854.28
2009/04/23 16:45:13.6    -220   -225    -32    315    317 224.3  -6.0  34128  289.03 0854.28
2009/04/23 16:45:13.7    -180   -148    -58    234    242 230.5 -13.9  34120  288.90 0854.28
2009/04/23 16:45:13.8    -126   -187     20    226    227 214.1   5.2  34130  289.06 0854.28
2009/04/23 16:45:13.9    -173    -48    109    180    210 254.3  34.0  34140  289.24 0854.28
2009/04/23 16:45:14.0    -198    -82     50    215    221 247.4  13.2  34150  289.40 0854.28
2009/04/23 16:45:14.1    -224   -225     24    318    319 224.9   4.3  34146  289.34 0854.28
2009/04/23 16:45:14.2    -172   -156     92    233    250 227.8  22.8  34142  289.25 0854.28
2009/04/23 16:45:14.3     -81   -131     88    155    178 211.6  31.9  34140  289.23 0854.28
2009/04/23 16:45:14.4     -37   -120     98    126    159 197.4  42.0  34140  289.23 0854.28
2009/04/23 16:45:14.5     -35    -83    107     91    140 203.2  55.4  34172  289.77 0854.28
2009/04/23 16:45:14.6      35     -2     72     36     80  94.4  71.4  34190  290.09 0854.28
2009/04/23 16:45:14.7      23    -37     58     44     72 148.4  58.5  34168  289.70 0854.28
2009/04/23 16:45:14.8      17   -127     68    129    145 172.0  30.3  34136  289.18 0854.28
2009/04/23 16:45:14.9      -1   -108     86    109    138 181.0  42.2  34132  289.09 0854.28
2009/04/23 16:45:15.0     -65    -72     74     98    122 221.9  41.2  34142  289.26 0854.28
2009/04/23 16:45:15.2     -77    -53     57     94    109 235.4  34.4  34148  289.38 0854.28
2009/04/23 16:45:15.2     -47    -26     27     54     60 241.1  28.2  34152  289.45 0854.28
2009/04/23 16:45:15.3     -60    -16    -39     63     74 254.9 -39.9  34144  289.30 0854.29
2009/04/23 16:45:15.4     -49     -8   -117     50    127 260.3 -79.9  34140  289.24 0854.29
2009/04/23 16:45:15.5     -74      2    -81     75    110 271.7 -56.6  34136  289.18 0854.29
2009/04/23 16:45:15.6     -64     19    -52     67     84 286.8 -46.1  34142  289.28 0854.29
2009/04/23 16:45:15.7     -28     68    -35     74     81 337.3 -31.0  34142  289.28 0854.29
2009/04/23 16:45:15.8      -5    101    -24    102    105 356.9 -13.4  34142  289.28 0854.29
2009/04/23 16:45:15.9      -1    113    -51    114    124 359.0 -29.6  34142  289.26 0854.29
2009/04/23 16:45:16.0    -112    125    -56    168    177 318.1 -23.6  34156  289.52 0854.29
2009/04/23 16:45:16.1     -59     82    -84    102    132 324.0 -48.2  34154  289.46 0854.29
2009/04/23 16:45:16.2     -97     75    -58    123    135 307.8 -31.5  34140  289.23 0854.29
2009/04/23 16:45:16.3    -138     50     12    147    148 290.0   4.9  34144  289.31 0854.29
2009/04/23 16:45:16.4     -94     52      4    108    109 298.9   2.3  34148  289.38 0854.29
2009/04/23 16:45:16.5     -49     26    -19     56     59 298.0 -23.6  34150  289.41 0854.29
2009/04/23 16:45:16.6     -37     35    -14     52     55 313.1 -15.5  34152  289.43 0854.29
2009/04/23 16:45:16.7     -30      4     17     31     35 277.9  33.5  34152  289.45 0854.29
2009/04/23 16:45:16.8     -36     -8     26     38     46 256.7  37.6  34162  289.60 0854.29
2009/04/23 16:45:16.9     -60    -44     -2     75     76 234.0  -2.2  34162  289.62 0854.29
2009/04/23 16:45:17.0     -58     -4     28     59     65 265.7  27.2  34168  289.72 0854.29
2009/04/23 16:45:17.1    -129      3     -7    130    131 271.7  -3.2  34162  289.62 0854.29
2009/04/23 16:45:17.2     -27    -54    -68     61     91 207.2 -58.1  34164  289.63 0854.29
2009/04/23 16:45:17.3     -12    -36    -63     39     74 198.7 -69.1  34172  289.79 0854.31
2009/04/23 16:45:17.4      15     -6      0     17     18 111.7  -3.1  34170  289.74 0854.31
2009/04/23 16:45:17.5      52    -22     75     57     94 113.5  59.0  34166  289.69 0854.31
2009/04/23 16:45:17.6      69    -23    101     73    124 108.6  60.6  34160  289.58 0854.31
2009/04/23 16:45:17.7      45    -23     51     51     72 117.1  50.1  34180  289.91 0854.31
2009/04/23 16:45:17.8      22    -84     73     88    114 164.9  43.7  34164  289.63 0854.31
2009/04/23 16:45:17.9      65   -207     68    218    229 162.4  17.4  34154  289.48 0854.31
2009/04/23 16:45:18.0     178   -194     93    264    280 137.5  19.4  34136  289.17 0854.31
2009/04/23 16:45:18.1     150   -253     12    295    296 149.3   2.3  34140  289.24 0854.31
2009/04/23 16:45:18.2     146   -235     93    277    293 148.1  18.6  34130  289.05 0854.31
2009/04/23 16:45:18.3     108   -227     89    252    267 154.5  20.0  34140  289.22 0854.31
2009/04/23 16:45:18.4      55   -234     38    241    245 166.7   9.0  34146  289.32 0854.31
2009/04/23 16:45:18.5     196   -307     -8    365    366 147.5  -1.3  34138  289.21 0854.31
2009/04/23 16:45:18.6     189   -283     43    341    344 146.3   7.2  34126  288.99 0854.31
2009/04/23 16:45:18.7     197   -212    120    290    313 137.0  23.8  34128  289.03 0854.31
2009/04/23 16:45:18.8     270   -269     34    382    384 134.9   5.1  34116  288.84 0854.31
2009/04/23 16:45:18.9     234   -234     90    332    345 135.0  15.2  34116  288.81 0854.31
2009/04/23 16:45:19.0     160   -212     78    266    278 143.0  16.3  34118  288.85 0854.31
2009/04/23 16:45:19.1     200   -152    129    252    283 127.3  29.3  34128  289.03 0854.31
2009/04/23 16:45:19.2     163   -185    129    247    278 138.6  29.8  34122  288.92 0854.31
2009/04/23 16:45:19.3     115   -220     90    249    264 152.4  20.4  34130  289.05 0854.31
2009/04/23 16:45:19.4      88   -164     71    187    200 151.7  21.5  34132  289.09 0854.31
2009/04/23 16:45:19.5     137   -196     97    240    258 145.0  23.0  34132  289.10 0854.31
2009/04/23 16:45:19.6      76   -220    108    233    256 160.8  26.6  34114  288.78 0854.31
2009/04/23 16:45:19.7      80   -214    111    229    254 159.5  27.8  34122  288.93 0854.31
2009/04/23 16:45:19.8      93    -82     52    125    135 131.3  23.6  34134  289.14 0854.31
2009/04/23 16:45:19.9      83    -70     58    109    123 130.4  30.3  34156  289.50 0854.31
2009/04/23 16:45:20.0      66    -61     72     90    115 132.7  43.7  34180  289.92 0854.31
2009/04/23 16:45:20.1      91    -29     92     96    132 108.2  49.4  34170  289.75 0854.31
2009/04/23 16:45:20.2      35     -7    100     36    106 101.5  80.2  34186  290.01 0854.31
2009/04/23 16:45:20.3      14     17     65     23     68  39.6  81.2  34214  290.48 0854.31
2009/04/23 16:45:20.4     142    -15      4    143    144  96.2   1.8  34218  290.57 0854.31
2009/04/23 16:45:20.5     233     62    -22    242    244  75.0  -5.2  34194  290.15 0854.31
2009/04/23 16:45:20.6     107      0    149    108    184  90.0  60.6  34170  289.74 0854.31
2009/04/23 16:45:20.7     119     56     96    132    163  64.7  39.7  34156  289.50 0854.31
2009/04/23 16:45:20.8      38     18     57     43     71  64.7  58.5  34146  289.33 0854.31
2009/04/23 16:45:20.9      28     19     56     34     65  55.8  64.7  34162  289.62 0854.31
2009/04/23 16:45:21.0      98    -19     40    100    107 101.5  23.0  34146  289.33 0854.31
2009/04/23 16:45:21.1      82     16     15     84     86  78.5  10.6  34130  289.06 0854.31
2009/04/23 16:45:21.2     106     14     -2    108    109  82.1  -1.3  34136  289.16 0854.31
2009/04/23 16:45:21.3      96     39      5    104    105  67.4   2.8  34134  289.14 0854.31
2009/04/23 16:45:21.4      89     52    -17    104    106  59.8  -9.3  34140  289.23 0854.31
2009/04/23 16:45:21.5     114     43     33    123    128  69.2  15.3  34130  289.08 0854.31
2009/04/23 16:45:21.6      98     45     38    109    116  65.2  19.2  34136  289.18 0854.31
2009/04/23 16:45:21.7     104     57     51    119    129  61.1  25.1  34162  289.62 0854.31
2009/04/23 16:45:21.8      50    104     90    116    146  25.9  42.2  34168  289.70 0854.31
2009/04/23 16:45:21.9      44    218    142    223    264  11.6  35.5  34168  289.71 0854.31
2009/04/23 16:45:22.0     -90    190    114    211    239 334.6  30.6  34168  289.70 0854.31
2009/04/23 16:45:22.1     -37    152     79    157    175 346.2  28.7  34158  289.53 0854.31
2009/04/23 16:45:22.2     -32    103     55    108    121 342.6  29.2  34160  289.58 0854.31
2009/04/23 16:45:22.3      31     91     64     97    116  19.2  35.6  34180  289.92 0854.31
2009/04/23 16:45:22.4      79    123     96    147    175  32.6  35.7  34196  290.19 0854.31
2009/04/23 16:45:22.5      71    109     50    131    140  33.0  21.5  34178  289.87 0854.31
2009/04/23 16:45:22.6      72     73     51    103    114  44.5  27.8  34192  290.11 0854.31
2009/04/23 16:45:22.7      77     48     59     91    108  58.0  35.6  34180  289.91 0854.31
2009/04/23 16:45:22.8     110     36     97    116    151  71.8  43.8  34162  289.60 0854.31
2009/04/23 16:45:22.9      79     43     98     91    133  61.1  52.2  34184  289.99 0854.31
2009/04/23 16:45:23.0      57     23    107     62    123  67.4  66.8  34184  289.99 0854.31
2009/04/23 16:45:23.1      38     12     65     41     76  71.6  64.7  34182  289.96 0854.31
2009/04/23 16:45:23.2     -43    -19     71     48     85 245.6  63.2  34196  290.18 0854.31
2009/04/23 16:45:23.3     -70    -14    108     72    129 258.5  63.2  34186  290.02 0854.30
2009/04/23 16:45:23.4     -85    -90    118    125    171 223.3  48.5  34170  289.74 0854.30
2009/04/23 16:45:23.5      50    -53    139     74    157 136.7  70.0  34194  290.14 0854.30
2009/04/23 16:45:23.7    -140   -127    117    190    223 227.8  35.0  34174  289.82 0854.30
2009/04/23 16:45:23.7     -15   -140    131    141    192 186.3  47.9  34156  289.52 0854.30
2009/04/23 16:45:23.8     -42   -161    167    167    236 194.9  50.1  34156  289.52 0854.30
2009/04/23 16:45:23.9     -24   -111    133    114    175 192.5  55.4  34166  289.67 0854.30
2009/04/23 16:45:24.0      21    -62    104     66    123 160.8  64.7  34196  290.19 0854.30
2009/04/23 16:45:24.1    -142    -94    120    171    208 236.3  38.4  34188  290.06 0854.30
2009/04/23 16:45:24.2    -169      0      0    170    171 270.0  -0.3  34196  290.19 0854.30
2009/04/23 16:45:24.3    -176     43    -53    182    189 283.9 -21.0  34168  289.70 0854.30
2009/04/23 16:45:24.4    -163     55   -113    173    206 288.6 -40.4  34124  288.96 0854.30
2009/04/23 16:45:24.5    -131     89    -60    159    169 304.2 -25.7  34144  289.30 0854.30
2009/04/23 16:45:24.6       7    211    -14    212    213   2.0  -3.9  34168  289.72 0854.30
2009/04/23 16:45:24.7     108     99     60    147    158  47.3  23.4  34178  289.87 0854.30
2009/04/23 16:45:24.8     160    -69     80    175    192 113.5  26.4  34158  289.55 0854.30
2009/04/23 16:45:24.9      89   -208    160    227    277 156.8  38.6  34158  289.53 0854.30
2009/04/23 16:45:25.0      49   -285    201    290    352 170.2  38.3  34168  289.71 0854.30
2009/04/23 16:45:25.1      79   -246    205    259    330 162.2  42.6  34160  289.56 0854.30
2009/04/23 16:45:25.2     172   -229    149    287    323 143.1  29.5  34162  289.61 0854.30
2009/04/23 16:45:25.3      79   -199    121    215    246 158.4  32.1  34162  289.61 0854.30
2009/04/23 16:45:25.5      52   -213    191    220    291 166.2  45.6  34160  289.56 0854.30
2009/04/23 16:45:25.5      62   -203    205    213    295 163.0  49.0  34160  289.56 0854.30
2009/04/23 16:45:25.7     124   -167     82    209    224 143.3  22.5  34152  289.45 0854.30
2009/04/23 16:45:25.8     122   -180     79    218    231 145.8  20.7  34142  289.28 0854.30
2009/04/23 16:45:25.9      91   -186     97    208    229 153.9  27.1  34144  289.31 0854.30
2009/04/23 16:45:26.0      90   -191    137    212    252 154.8  35.6  34154  289.47 0854.30
2009/04/23 16:45:26.1      97   -127    161    161    227 142.6  50.1  34168  289.70 0854.30
2009/04/23 16:45:26.2     -93   -178    212    201    292 207.6  51.6  34174  289.80 0854.30
2009/04/23 16:45:26.3     -47    -30    197     56    204 237.6  83.9  34196  290.19 0854.30
2009/04/23 16:45:26.4     -22   -144    199    146    246 188.9  60.3  34170  289.75 0854.30
2009/04/23 16:45:26.5     -62   -167    236    179    296 200.3  59.2  34168  289.70 0854.30
2009/04/23 16:45:26.6     -63   -165    235    177    294 200.9  59.4  34166  289.68 0854.30
2009/04/23 16:45:26.7     -43    -13    175     46    180 252.3  85.2  34196  290.18 0854.30
2009/04/23 16:45:26.8     -95     67     56    117    129 305.1  27.3  34210  290.43 0854.30
2009/04/23 16:45:26.9    -153    109     -7    189    190 305.5  -2.3  34170  289.74 0854.30
2009/04/23 16:45:27.0    -128     17     45    130    138 277.9  19.4  34166  289.69 0854.30
2009/04/23 16:45:27.1     -27   -183     61    186    196 188.5  18.1  34166  289.69 0854.30
2009/04/23 16:45:27.2    -126   -163    144    207    252 217.6  38.0  34156  289.51 0854.30
2009/04/23 16:45:27.3    -124   -111    139    167    217 228.0  43.8  34162  289.62 0854.30
2009/04/23 16:45:27.4     -63    -45    105     78    130 234.0  60.0  34174  289.80 0854.31
2009/04/23 16:45:27.5      62     -9    105     63    122  98.8  66.7  34178  289.87 0854.31
2009/04/23 16:45:27.6      30    -84    116     90    146 160.4  57.9  34178  289.87 0854.31
2009/04/23 16:45:27.7      29    -86    122     91    152 161.3  60.0  34178  289.89 0854.31
2009/04/23 16:45:27.8      27    -82    105     87    136 161.7  56.3  34172  289.79 0854.31
2009/04/23 16:45:27.9      91    -53     87    106    137 120.2  43.7  34170  289.75 0854.31
2009/04/23 16:45:28.0      88    -71     80    114    139 129.1  39.1  34170  289.75 0854.31
2009/04/23 16:45:28.1      36    -97     57    104    118 159.5  31.3  34166  289.67 0854.31
2009/04/23 16:45:28.2      -8   -166    107    167    198 182.9  35.6  34156  289.52 0854.31
2009/04/23 16:45:28.3      38   -128    164    134    211 163.5  56.4  34168  289.70 0854.31
2009/04/23 16:45:28.4     129   -147    133    196    236 138.8  37.4  34164  289.65 0854.31
2009/04/23 16:45:28.5     101   -213     55    236    243 154.5  13.2  34162  289.59 0854.31
2009/04/23 16:45:28.6     105   -173    -11    203    204 148.8  -3.2  34160  289.58 0854.31
2009/04/23 16:45:28.7      99   -171     53    198    205 149.9  15.0  34162  289.60 0854.31
2009/04/23 16:45:28.8      81   -171     34    190    194 154.7  10.3  34162  289.62 0854.31
2009/04/23 16:45:28.9      49   -181     24    188    190 164.9   7.5  34154  289.48 0854.31
2009/04/23 16:45:29.0      21   -155      0    157    158 172.0   0.2  34154  289.48 0854.31
2009/04/23 16:45:29.1     -10   -192     27    193    195 183.1   8.0  34144  289.31 0854.31
2009/04/23 16:45:29.2     -14   -157     20    158    160 185.3   7.5  34150  289.41 0854.31
2009/04/23 16:45:29.3     -20   -122     12    124    125 189.3   5.9  34146  289.35 0854.31
2009/04/23 16:45:29.4     -10   -179     -1    180    181 183.4  -0.5  34138  289.21 0854.33
2009/04/23 16:45:29.5      -5   -221    -21    222    224 181.4  -5.6  34136  289.18 0854.33
2009/04/23 16:45:29.6     -16   -188     -5    189    190 184.9  -1.6  34136  289.16 0854.33
2009/04/23 16:45:29.7     -16   -148    -30    149    153 186.3 -11.5  34138  289.19 0854.33
2009/04/23 16:45:29.8     -12   -126    -11    127    128 185.8  -5.2  34140  289.23 0854.33
2009/04/23 16:45:29.9       0   -117    -49    118    127 180.0 -28.0  34144  289.30 0854.33
2009/04/23 16:45:30.0     -14    -95    -65     97    116 188.9 -40.9  34148  289.36 0854.33
2009/04/23 16:45:30.1     -21    -82    -55     85    101 194.7 -40.4  34146  289.33 0854.33
2009/04/23 16:45:30.2     -17    -92    -31     94     98 190.7 -23.8  34144  289.30 0854.33
2009/04/23 16:45:30.3      -9    -97     -7     98     99 185.8  -4.1  34146  289.35 0854.33
2009/04/23 16:45:30.4      10    -45    -67     47     81 167.5 -65.9  34156  289.50 0854.33
2009/04/23 16:45:30.5      68    -22    -29     72     77 108.4 -27.4  34160  289.57 0854.33
2009/04/23 16:45:30.6      63    -63    -36     90     96 134.9 -26.9  34154  289.46 0854.33
2009/04/23 16:45:30.7      73   -100    -40    124    131 143.9 -18.1  34150  289.41 0854.33
2009/04/23 16:45:30.8     140   -137      2    197    198 134.4   0.8  34150  289.41 0854.33
2009/04/23 16:45:30.9     120   -116     79    168    185 134.0  27.1  34166  289.67 0854.33
2009/04/23 16:45:31.0      38   -148     75    153    170 165.3  28.0  34196  290.18 0854.33
2009/04/23 16:45:31.1      91   -143     71    170    184 147.5  23.6  34186  290.02 0854.33
2009/04/23 16:45:31.2      88   -185     69    206    218 154.5  18.6  34190  290.09 0854.33
2009/04/23 16:45:31.3      66   -139     74    154    170 154.5  27.3  34186  290.01 0854.33
2009/04/23 16:45:31.4      23   -115    113    118    163 168.4  49.0  34182  289.94 0854.35
2009/04/23 16:45:31.5      53    -65    114     85    142 140.8  60.0  34188  290.06 0854.35
2009/04/23 16:45:31.6      -5    -65    123     66    139 184.5  69.3  34208  290.40 0854.35
2009/04/23 16:45:31.7      33    -67    129     75    149 153.7  66.8  34216  290.53 0854.35
2009/04/23 16:45:31.8      35    -83    124     91    153 156.8  60.5  34188  290.04 0854.35
2009/04/23 16:45:31.9     -64   -126    128    142    191 207.2  46.9  34194  290.14 0854.35
2009/04/23 16:45:32.0     -62   -162     75    174    189 200.9  24.9  34182  289.96 0854.35
2009/04/23 16:45:32.1     -57   -162     61    173    184 199.6  19.6  34160  289.57 0854.35
2009/04/23 16:45:32.2     -48   -193     76    199    213 194.0  21.5  34140  289.23 0854.35
2009/04/23 16:45:32.3     -18   -216    173    217    277 184.9  42.7  34130  289.05 0854.35
2009/04/23 16:45:32.4     -34   -206    152    209    258 189.6  39.7  34126  288.98 0854.35
2009/04/23 16:45:32.5     -15   -202    152    203    253 184.5  40.6  34132  289.09 0854.35
2009/04/23 16:45:32.6     -24   -193    124    195    231 187.3  35.5  34124  288.96 0854.35
2009/04/23 16:45:32.7       0   -185    122    186    222 180.2  36.0  34136  289.16 0854.35
2009/04/23 16:45:32.8      65   -231    114    241    266 164.2  27.1  34132  289.10 0854.35
2009/04/23 16:45:32.9       4   -257    125    258    286 179.1  27.3  34124  288.95 0854.35
2009/04/23 16:45:33.0     -15   -196    130    197    236 184.5  36.5  34126  289.01 0854.35
2009/04/23 16:45:33.1     -29   -165     97    168    193 190.0  32.7  34130  289.08 0854.35
2009/04/23 16:45:33.2     -48   -132     87    141    165 200.1  35.0  34136  289.16 0854.35
2009/04/23 16:45:33.3     -58   -130     66    143    157 204.1  26.4  34132  289.09 0854.35
2009/04/23 16:45:33.4     -49   -103     74    115    136 205.5  35.6  34134  289.14 0854.35
2009/04/23 16:45:33.5     -35   -159     80    164    182 192.7  27.8  34148  289.36 0854.35
2009/04/23 16:45:33.6      18   -132     67    134    149 171.9  28.2  34146  289.35 0854.35
2009/04/23 16:45:33.7     -35   -130     50    135    143 195.1  21.0  34150  289.41 0854.35
2009/04/23 16:45:33.8      -7    -49     54     50     73 188.9  52.1  34150  289.40 0854.35
2009/04/23 16:45:33.9     -10    -11     42     16     44 223.4  79.2  34172  289.77 0854.35
2009/04/23 16:45:34.0      -1      6     74      7     74 350.3  90.0  34192  290.13 0854.35
2009/04/23 16:45:34.1      25    -17     80     31     85 124.2  78.2  34206  290.36 0854.35
2009/04/23 16:45:34.2     -18    -89    117     91    148 191.6  58.4  34174  289.82 0854.35
2009/04/23 16:45:34.3     -36    -96    106    103    147 200.9  50.7  34168  289.70 0854.35
2009/04/23 16:45:34.4     -85   -174    122    194    229 206.1  35.5  34164  289.63 0854.35
2009/04/23 16:45:34.5     -93   -178     74    201    214 207.6  20.9  34160  289.57 0854.35
2009/04/23 16:45:34.6    -148   -185     73    238    249 218.7  17.1  34152  289.42 0854.35
2009/04/23 16:45:34.7     -86   -197     81    216    230 203.6  21.0  34158  289.55 0854.35
2009/04/23 16:45:34.8    -140   -220    124    262    289 212.5  27.2  34162  289.61 0854.35
2009/04/23 16:45:34.9    -219   -289     56    363    368 217.2   8.9  34164  289.64 0854.35
2009/04/23 16:45:35.0    -204   -310      0    372    373 213.3   0.0  34172  289.77 0854.35
2009/04/23 16:45:35.1    -106   -206     81    232    246 207.2  19.4  34172  289.78 0854.35
2009/04/23 16:45:35.2     -74   -253     75    264    275 196.3  16.0  34168  289.71 0854.35
2009/04/23 16:45:35.3     -67   -192     60    204    213 199.2  16.6  34160  289.58 0854.35
2009/04/23 16:45:35.4    -103   -173    106    202    228 210.7  29.8  34174  289.82 0854.35
2009/04/23 16:45:35.5    -131   -206     79    245    258 212.5  17.9  34172  289.78 0854.35
2009/04/23 16:45:35.6    -143   -232     63    273    281 211.6  13.1  34168  289.71 0854.35
2009/04/23 16:45:35.7    -197   -174     72    264    274 228.6  15.3  34162  289.61 0854.35
2009/04/23 16:45:35.8    -146   -214     62    260    268 214.3  13.5  34162  289.59 0854.35
2009/04/23 16:45:35.9    -194   -160    104    252    272 230.4  23.6  34148  289.36 0854.35
2009/04/23 16:45:36.0    -158   -274    114    317    336 209.9  20.4  34172  289.77 0854.35
2009/04/23 16:45:36.1    -165   -246     58    297    303 213.8  11.1  34144  289.29 0854.35
2009/04/23 16:45:36.2    -108   -225    114    250    274 205.6  26.2  34194  290.14 0854.35
2009/04/23 16:45:36.3    -171   -161    135    236    271 226.8  32.4  34186  290.00 0854.35
2009/04/23 16:45:36.4    -226    -35     90    229    246 261.0  22.5  34172  289.78 0854.35
2009/04/23 16:45:36.5    -216    -78     82    230    244 250.0  20.2  34190  290.07 0854.35
2009/04/23 16:45:36.6    -210   -152     90    260    276 234.0  19.2  34156  289.51 0854.35
2009/04/23 16:45:36.7    -172   -135     56    219    227 231.8  14.5  34156  289.52 0854.35
2009/04/23 16:45:36.8    -293   -125     44    319    323 246.9   7.9  34162  289.61 0854.35
2009/04/23 16:45:36.9    -222    -59      2    230    231 255.0   0.7  34160  289.58 0854.35
2009/04/23 16:45:37.0    -245    -48    -22    250    252 258.8  -5.2  34162  289.61 0854.35
2009/04/23 16:45:37.1    -305    -86    -67    318    326 254.2 -12.0  34178  289.88 0854.35
2009/04/23 16:45:37.2    -408    -67      3    414    415 260.6   0.5  34172  289.78 0854.35
2009/04/23 16:45:37.3    -409      7    -48    410    413 271.0  -6.8  34202  290.29 0854.35
2009/04/23 16:45:37.4    -340   -102     -7    356    357 253.2  -1.2  34172  289.77 0854.35
2009/04/23 16:45:37.5    -278   -147    -17    315    316 242.0  -3.1  34188  290.03 0854.35
2009/04/23 16:45:37.6    -229   -108    -32    254    257 244.6  -7.2  34188  290.05 0854.35
2009/04/23 16:45:37.7    -217    -59     41    226    230 254.7  10.3  34182  289.96 0854.35
2009/04/23 16:45:37.8    -270    -85     -7    284    285 252.5  -1.6  34202  290.27 0854.35
2009/04/23 16:45:37.9    -318    -59    -49    324    328 259.4  -8.6  34216  290.51 0854.35
2009/04/23 16:45:38.0    -351   -161    -64    387    393 245.3  -9.4  34190  290.08 0854.35
2009/04/23 16:45:38.1    -360   -157    -33    393    395 246.4  -4.9  34182  289.93 0854.35
2009/04/23 16:45:38.2    -364   -116    -98    383    396 252.3 -14.4  34166  289.67 0854.35
2009/04/23 16:45:38.3    -272   -262   -115    378    396 226.1 -17.0  34192  290.13 0854.35
2009/04/23 16:45:38.4    -323   -228   -109    396    410 234.7 -20.0  34174  289.82 0854.34
2009/04/23 16:45:38.5    -296   -157     46    336    340 242.1   7.8  34182  289.93 0854.34
2009/04/23 16:45:38.6    -101   -242    -45    263    267 202.7  -9.8  34174  289.80 0854.34
2009/04/23 16:45:38.7    -119   -156    -60    197    205 217.2 -21.8  34156  289.50 0854.34
2009/04/23 16:45:38.8     -90    -71    -39    115    121 231.8 -23.3  34156  289.50 0854.34
2009/04/23 16:45:38.9     -47    -61    -20     78     81 217.8 -14.5  34166  289.69 0854.34
2009/04/23 16:45:39.0      64    -65    -32     92     97 135.3 -23.3  34164  289.65 0854.34
2009/04/23 16:45:39.1      49   -149    -28    157    160 161.7 -10.3  34160  289.58 0854.34
2009/04/23 16:45:39.2      22   -201      7    203    204 173.5   2.1  34152  289.43 0854.34
2009/04/23 16:45:39.3      32   -271    -12    273    274 173.1  -2.6  34152  289.42 0854.34
2009/04/23 16:45:39.4      22   -232    -11    234    235 174.4  -2.8  34146  289.34 0854.34
2009/04/23 16:45:39.5      24   -247     19    249    250 174.4   4.6  34144  289.29 0854.34
2009/04/23 16:45:39.6       7   -182   -106    183    211 177.8 -37.3  34140  289.23 0854.34
2009/04/23 16:45:39.7     -22   -372    -14    373    374 183.4  -2.2  34148  289.38 0854.34
2009/04/23 16:45:39.8     -83   -332    -50    343    347 194.0  -8.4  34146  289.32 0854.34
2009/04/23 16:45:39.9     -50   -328    -29    332    334 188.7  -5.1  34152  289.42 0854.34
2009/04/23 16:45:40.0    -191   -451    -75    490    496 203.0  -8.7  34140  289.22 0854.34
2009/04/23 16:45:40.1    -168   -420    -66    453    458 201.9  -8.4  34146  289.33 0854.34
2009/04/23 16:45:40.2    -258   -406     -1    482    483 212.5  -0.2  34142  289.27 0854.34
2009/04/23 16:45:40.3    -102   -456    -45    468    471 192.6  -5.6  34154  289.47 0854.34
2009/04/23 16:45:40.4    -109   -551    -67    562    567 191.2  -6.9  34140  289.24 0854.34
2009/04/23 16:45:40.5     -49   -630   -189    633    661 184.5 -16.6  34150  289.40 0854.34
2009/04/23 16:45:40.6     -52   -497   -167    500    527 186.0 -23.6  34134  289.12 0854.34
2009/04/23 16:45:40.7       8   -503   -118    504    518 179.0 -13.2  34142  289.25 0854.34
2009/04/23 16:45:40.8     173   -499     49    529    532 160.8   5.3  34152  289.45 0854.34
2009/04/23 16:45:40.9      21   -448    149    449    474 177.3  18.4  34146  289.35 0854.34
2009/04/23 16:45:41.0      -2   -475    117    476    491 180.3  13.8  34156  289.52 0854.34
2009/04/23 16:45:41.1      17   -408     51    409    413 177.5   7.1  34148  289.36 0854.34
2009/04/23 16:45:41.2      52   -471   -111    474    487 173.7 -13.3  34126  289.01 0854.34
2009/04/23 16:45:41.3     152   -469    -11    494    495 162.0  -1.4  34136  289.15 0854.34
2009/04/23 16:45:41.4     148   -395     -1    423    424 159.4  -0.3  34140  289.22 0854.34
2009/04/23 16:45:41.5      85   -482     37    490    492 169.9   4.3  34152  289.45 0854.34
2009/04/23 16:45:41.6      91   -487     20    496    497 169.4   2.3  34170  289.74 0854.34
2009/04/23 16:45:41.7      98   -507    -20    517    518 169.0  -2.2  34162  289.59 0854.34
2009/04/23 16:45:41.8      89   -478     68    487    492 169.4   8.0  34170  289.73 0854.34
2009/04/23 16:45:41.9     150   -374     78    404    412 158.1  11.0  34172  289.77 0854.34
2009/04/23 16:45:42.0     231   -351    -35    421    423 146.7  -4.9  34156  289.49 0854.34
2009/04/23 16:45:42.1     243   -359     52    434    438 145.9   6.9  34154  289.46 0854.34
2009/04/23 16:45:42.2     178   -373     97    414    426 154.5  13.2  34152  289.43 0854.34
2009/04/23 16:45:42.3     283   -246     32    376    378 131.0   4.9  34156  289.50 0854.34
2009/04/23 16:45:42.4     256   -272     45    374    377 136.7   6.9  34146  289.32 0854.34
2009/04/23 16:45:42.5     226   -293     46    371    374 142.3   7.1  34146  289.32 0854.34
2009/04/23 16:45:42.6     200   -299     28    360    362 146.2   4.6  34146  289.35 0854.34
2009/04/23 16:45:42.7     164   -275     69    321    329 149.2  12.1  34144  289.29 0854.34
2009/04/23 16:45:42.8     218   -301     28    372    373 144.1   4.4  34138  289.21 0854.34
2009/04/23 16:45:42.9     136   -137    108    194    222 135.3  31.4  34152  289.43 0854.34
2009/04/23 16:45:43.0      76   -352    264    361    447 167.7  39.7  34168  289.72 0854.34
2009/04/23 16:45:43.1      59   -327    299    333    447 169.8  46.6  34162  289.60 0854.34
2009/04/23 16:45:43.2      67   -366    306    373    482 169.5  43.6  34162  289.61 0854.34
2009/04/23 16:45:43.3      26   -334    316    336    461 175.5  48.0  34166  289.68 0854.34
2009/04/23 16:45:43.4     -15   -250    285    251    379 183.5  54.2  34164  289.65 0854.34
2009/04/23 16:45:43.5     -60   -336    300    342    454 190.3  45.8  34162  289.61 0854.34
2009/04/23 16:45:43.6      32   -113    200    118    232 164.0  66.7  34168  289.72 0854.34
2009/04/23 16:45:43.7     -54   -231    206    238    314 193.3  45.4  34164  289.63 0854.34
2009/04/23 16:45:43.8      -3   -121    210    122    242 181.8  67.2  34170  289.75 0854.34
2009/04/23 16:45:43.9     -45   -171    136    177    223 194.9  41.4  34170  289.74 0854.34
2009/04/23 16:45:44.0     -81   -143     68    165    178 209.6  23.4  34170  289.74 0854.34
2009/04/23 16:45:44.1     -69   -153     94    168    192 204.3  31.9  34158  289.55 0854.34
2009/04/23 16:45:44.2      11   -154    208    155    259 175.6  59.8  34168  289.72 0854.34
2009/04/23 16:45:44.3     -28   -216    189    218    288 187.6  45.4  34148  289.36 0854.34
2009/04/23 16:45:44.4     -65   -259    187    268    326 194.2  38.4  34140  289.24 0854.32
2009/04/23 16:45:44.5     -99   -195    120    219    249 207.0  31.0  34146  289.32 0854.32
2009/04/23 16:45:44.6       8    -86     33     87     93 174.7  21.5  34162  289.60 0854.32
2009/04/23 16:45:44.7    -214   -171    100    275    292 231.4  20.9  34158  289.54 0854.32
2009/04/23 16:45:44.8    -245   -165    118    296    318 235.9  22.9  34172  289.78 0854.32
2009/04/23 16:45:44.9    -210   -184     73    280    290 228.7  14.7  34166  289.68 0854.32
2009/04/23 16:45:45.0    -119    -98    164    155    225 230.5  52.1  34160  289.58 0854.32
2009/04/23 16:45:45.1    -127   -238    116    270    293 208.1  25.1  34156  289.51 0854.32
2009/04/23 16:45:45.2    -182   -273     18    329    330 213.7   3.1  34154  289.48 0854.32
2009/04/23 16:45:45.3    -275   -275     29    390    392 225.0   4.3  34162  289.60 0854.32
2009/04/23 16:45:45.4    -207   -282    164    351    387 216.3  27.1  34154  289.48 0854.32
2009/04/23 16:45:45.5    -216   -187    120    286    310 229.1  24.1  34158  289.54 0854.32
2009/04/23 16:45:45.6    -183   -179    140    257    292 225.6  31.3  34154  289.46 0854.32
2009/04/23 16:45:45.7    -166   -140    105    218    241 230.0  27.4  34160  289.56 0854.32
2009/04/23 16:45:45.8    -139   -252     56    288    294 208.9  11.0  34144  289.31 0854.32
2009/04/23 16:45:45.9    -203   -177     42    270    274 228.9   9.0  34168  289.71 0854.32
2009/04/23 16:45:46.0    -194   -198     25    278    280 224.3   5.2  34158  289.54 0854.32
2009/04/23 16:45:46.1    -168   -328     12    369    370 207.1   1.9  34156  289.52 0854.32
2009/04/23 16:45:46.2    -142   -268     -8    304    305 208.0  -1.6  34148  289.36 0854.32
2009/04/23 16:45:46.3    -110   -260     78    283    294 202.9  15.6  34154  289.46 0854.32
2009/04/23 16:45:46.4     -86   -351     85    362    372 193.8  13.2  34148  289.38 0854.25
2009/04/23 16:45:46.5    -160   -383     73    416    423 202.7  10.0  34168  289.72 0854.25
2009/04/23 16:45:46.6    -126   -392    164    412    443 197.9  23.0  34158  289.53 0854.25
2009/04/23 16:45:46.7     159   -324    259    362    445 153.8  39.1  34148  289.38 0854.25
2009/04/23 16:45:46.8     289   -327    181    437    473 138.6  23.8  34142  289.27 0854.25
2009/04/23 16:45:46.9     165   -291    171    335    376 150.4  29.2  34152  289.43 0854.25
2009/04/23 16:45:47.0     172   -340    187    382    425 153.2  28.0  34188  290.05 0854.25
2009/04/23 16:45:47.1     182   -260    204    318    377 144.9  35.6  34192  290.13 0854.25
2009/04/23 16:45:47.2     198   -134    225    240    328 124.2  48.0  34182  289.95 0854.25
2009/04/23 16:45:47.3     236   -147    232    279    362 122.0  43.8  34168  289.72 0854.25
2009/04/23 16:45:47.4     150   -149    200    212    291 134.9  48.2  34182  289.95 0854.25
2009/04/23 16:45:47.5     135   -161    224    211    307 140.1  52.1  34196  290.19 0854.25
2009/04/23 16:45:47.6     246   -298    215    387    442 140.4  31.4  34154  289.48 0854.25
2009/04/23 16:45:47.7     270   -431    123    509    524 147.9  13.7  34132  289.09 0854.25
2009/04/23 16:45:47.8     152   -401    173    430    463 159.2  23.1  34114  288.80 0854.25
2009/04/23 16:45:47.9      94   -438    204    449    493 167.9  26.2  34140  289.23 0854.25
2009/04/23 16:45:48.0     118   -434    188    450    487 164.7  23.9  34148  289.37 0854.25
2009/04/23 16:45:48.1     -24   -336    255    337    422 184.2  40.9  34162  289.62 0854.25
2009/04/23 16:45:48.2     -26   -346    121    347    368 184.4  19.3  34154  289.47 0854.25
2009/04/23 16:45:48.3     233   -428     58    488    492 151.4   6.9  34136  289.18 0854.25
2009/04/23 16:45:48.4      90   -453    133    463    482 168.7  16.1  34136  289.15 0854.17
2009/04/23 16:45:48.5      80   -349     64    359    365 167.0  10.1  34130  289.06 0854.17
2009/04/23 16:45:48.6     -56   -418     20    422    423 187.7   2.8  34144  289.31 0854.17
2009/04/23 16:45:48.7    -251   -461    -80    525    532 208.6  -8.7  34150  289.41 0854.17
2009/04/23 16:45:48.8    -127   -385    -15    406    407 198.3  -2.2  34146  289.34 0854.17
2009/04/23 16:45:48.9    -131   -289   -135    318    345 204.5 -28.7  34142  289.26 0854.17
2009/04/23 16:45:49.0    -128   -278   -129    307    333 204.7 -28.5  34150  289.39 0854.17
2009/04/23 16:45:49.1    -307   -214    -39    375    378 235.2  -6.0  34152  289.45 0854.17
2009/04/23 16:45:49.2    -310   -373     24    486    487 219.7   2.9  34146  289.32 0854.17
2009/04/23 16:45:49.3    -250   -392    119    466    482 212.5  14.4  34142  289.28 0854.17
2009/04/23 16:45:49.4    -213   -443     99    492    502 205.7  11.4  34150  289.39 0854.17
2009/04/23 16:45:49.5    -214   -491     79    536    542 203.6   8.5  34142  289.26 0854.17
2009/04/23 16:45:49.6    -118   -347    187    367    411 198.8  29.2  34146  289.32 0854.17
2009/04/23 16:45:49.7     -57   -316     82    322    333 190.3  14.3  34136  289.16 0854.17
2009/04/23 16:45:49.8     -92   -326    -16    339    340 195.9  -2.8  34140  289.23 0854.17
2009/04/23 16:45:49.9     -45   -320    -12    324    325 188.1  -2.2  34138  289.19 0854.17
2009/04/23 16:45:50.0     -47   -277    -26    281    283 189.7  -5.4  34138  289.19 0854.17
2009/04/23 16:45:50.1      32   -268    -69    270    279 173.1 -14.5  34134  289.14 0854.17
2009/04/23 16:45:50.2       0   -281    -83    282    293 180.1 -21.2  34134  289.14 0854.17
2009/04/23 16:45:50.3      32   -323   -112    325    344 174.3 -19.1  34126  289.01 0854.17
2009/04/23 16:45:50.4      88   -254    -82    269    282 160.8 -17.0  34130  289.05 0854.16
2009/04/23 16:45:50.5       4   -281    -66    282    290 179.1 -13.3  34134  289.12 0854.16
2009/04/23 16:45:50.6     -15   -249    -85    250    265 183.5 -18.9  34136  289.15 0854.16
2009/04/23 16:45:50.7       0   -273    -55    274    280 180.0 -11.5  34138  289.19 0854.16
2009/04/23 16:45:50.8      35   -446     16    448    449 175.4   2.1  34126  289.00 0854.16
2009/04/23 16:45:50.9      16   -527     87    528    536 178.2   9.4  34128  289.02 0854.16
2009/04/23 16:45:51.0      36   -513     45    515    518 175.9   5.1  34116  288.84 0854.16
2009/04/23 16:45:51.2      12   -410     57    411    416 178.2   8.0  34114  288.80 0854.16
2009/04/23 16:45:51.2      40   -369    -11    372    373 173.8  -1.7  34112  288.76 0854.16
2009/04/23 16:45:51.3      61   -344    -51    350    354 169.9  -8.4  34100  288.57 0854.16
2009/04/23 16:45:51.5      91   -364    -20    376    377 166.0  -3.1  34102  288.59 0854.16
2009/04/23 16:45:51.5      20   -361      7    362    363 176.8   1.2  34110  288.74 0854.16
2009/04/23 16:45:51.7      74   -320    -37    329    332 166.9  -6.5  34100  288.55 0854.16
2009/04/23 16:45:51.8     121   -321    -28    344    346 159.3  -4.8  34100  288.57 0854.16
2009/04/23 16:45:51.9       7   -404     71    405    412 178.9  10.0  34106  288.65 0854.16
2009/04/23 16:45:52.0      -6   -424    109    425    439 180.8  14.5  34102  288.60 0854.16
2009/04/23 16:45:52.1      80   -417    -28    425    426 169.1  -3.9  34102  288.58 0854.16
2009/04/23 16:45:52.2      61   -392   -109    397    412 171.1 -15.4  34100  288.56 0854.16
2009/04/23 16:45:52.3      48   -372   -113    376    393 172.6 -16.8  34100  288.55 0854.16
2009/04/23 16:45:52.4       0   -367    -38    368    371 180.0  -6.0  34100  288.57 0854.16
2009/04/23 16:45:52.5      12   -363    -20    364    365 178.0  -3.2  34102  288.59 0854.18
2009/04/23 16:45:52.6      19   -346    -44    347    350 176.8  -7.3  34104  288.64 0854.18
2009/04/23 16:45:52.7      18   -285    -32    286    288 176.4  -6.5  34104  288.63 0854.18
2009/04/23 16:45:52.8      20   -266    -45    267    271 175.5  -9.6  34106  288.66 0854.18
2009/04/23 16:45:52.9       0   -272      0    273    274 180.0   0.0  34104  288.63 0854.18
2009/04/23 16:45:53.0     -10   -258      8    259    260 182.2   1.8  34108  288.68 0854.18
2009/04/23 16:45:53.1     -68   -223    -43    234    238 196.9 -10.5  34100  288.54 0854.18
2009/04/23 16:45:53.2     -74   -185    -68    200    211 201.8 -23.3  34112  288.77 0854.18
2009/04/23 16:45:53.3     -58   -148     28    160    163 201.6  10.1  34114  288.80 0854.18
2009/04/23 16:45:53.4     -30   -213     -9    216    217 188.0  -2.6  34112  288.75 0854.18
2009/04/23 16:45:53.5      13   -250    -31    251    253 176.9  -7.2  34112  288.76 0854.18
2009/04/23 16:45:53.6      39   -252    -50    256    261 171.1 -11.1  34110  288.71 0854.18
2009/04/23 16:45:53.7      63   -325     56    332    337 169.0   9.7  34130  289.06 0854.18
2009/04/23 16:45:53.8      19   -260     31    261    263 175.8   6.9  34140  289.22 0854.18
2009/04/23 16:45:53.9      31   -281    140    283    315 173.7  28.2  34138  289.20 0854.18
2009/04/23 16:45:54.0     135   -234    177    271    323 150.1  36.3  34126  289.00 0854.18
2009/04/23 16:45:54.1     111   -204    158    233    281 151.5  37.4  34130  289.07 0854.18
2009/04/23 16:45:54.2      43   -310     94    314    328 172.0  16.8  34134  289.14 0854.18
2009/04/23 16:45:54.3       0   -265     68    266    275 179.9  14.5  34134  289.14 0854.18
2009/04/23 16:45:54.4      25   -320    112    322    341 175.5  19.2  34132  289.11 0854.18
2009/04/23 16:45:54.5      85   -273    103    287    304 162.6  20.7  34114  288.80 0854.18
2009/04/23 16:45:54.6      42   -303    108    307    326 172.0  19.4  34116  288.81 0854.18
2009/04/23 16:45:54.7      24   -312      8    314    315 175.5   1.5  34112  288.76 0854.18
2009/04/23 16:45:54.8     -19   -255     87    256    271 184.4  18.9  34110  288.73 0854.18
2009/04/23 16:45:54.9     -39   -280     90    283    297 188.1  17.7  34112  288.76 0854.18
2009/04/23 16:45:55.0     -25   -246     77    248    260 185.8  17.4  34114  288.78 0854.18
2009/04/23 16:45:55.1      25   -185    106    187    214 172.2  31.9  34112  288.77 0854.18
2009/04/23 16:45:55.2      47   -211    125    217    250 167.3  32.4  34122  288.93 0854.18
2009/04/23 16:45:55.3      94   -177     85    201    218 152.1  24.1  34114  288.80 0854.18
2009/04/23 16:45:55.4     107   -214    106    240    262 153.5  25.2  34118  288.87 0854.18
2009/04/23 16:45:55.5     140   -194     93    240    257 144.0  22.3  34132  289.09 0854.19
2009/04/23 16:45:55.6     185   -143     11    234    235 127.8   2.8  34136  289.15 0854.19
2009/04/23 16:45:55.7     203    -54     42    211    216 105.1  11.4  34134  289.14 0854.19
2009/04/23 16:45:55.8     154    -55     10    164    165 110.0   3.6  34132  289.09 0854.19
2009/04/23 16:45:55.9      98    -60     49    115    125 121.5  24.6  34142  289.28 0854.19
2009/04/23 16:45:56.0      38    -59     37     71     80 147.5  29.8  34154  289.48 0854.19
2009/04/23 16:45:56.1       3    -47     10     48     50 175.5  12.2  34158  289.53 0854.19
2009/04/23 16:45:56.2    -139   -115     75    181    195 230.2  23.8  34130  289.06 0854.19
2009/04/23 16:45:56.3    -135   -218     -8    257    258 211.7  -1.8  34128  289.02 0854.19
2009/04/23 16:45:56.4     -88   -214      3    232    233 202.5   0.8  34126  288.99 0854.19
2009/04/23 16:45:56.5     -35   -248     78    251    263 188.1  17.3  34138  289.20 0854.19
2009/04/23 16:45:56.6     -41   -236     58    240    247 190.0  13.7  34134  289.12 0854.19
2009/04/23 16:45:56.7    -152   -132     39    202    206 228.9  11.1  34128  289.04 0854.19
2009/04/23 16:45:56.8    -105   -141     27    176    179 216.7   8.8  34132  289.09 0854.19
2009/04/23 16:45:56.9     -85   -141     45    165    172 211.2  15.3  34138  289.19 0854.19
2009/04/23 16:45:57.0     -40   -135    174    141    223 196.5  56.6  34144  289.30 0854.19
2009/04/23 16:45:57.1     -85   -103    118    134    178 219.7  46.2  34136  289.18 0854.19
2009/04/23 16:45:57.2     -16   -149    156    150    216 186.2  51.4  34156  289.52 0854.19
2009/04/23 16:45:57.3     -11   -149    128    150    197 184.4  45.1  34172  289.79 0854.19
2009/04/23 16:45:57.4     -47   -146    138    154    206 197.8  46.4  34170  289.75 0854.19
2009/04/23 16:45:57.5     -53   -162    148    171    226 198.3  45.4  34150  289.41 0854.21
2009/04/23 16:45:57.6    -102   -225    199    248    317 204.5  42.9  34146  289.32 0854.21
2009/04/23 16:45:57.7    -147   -287    207    323    383 207.1  35.6  34140  289.23 0854.21
2009/04/23 16:45:57.8    -237   -312    219    392    449 217.2  31.5  34148  289.38 0854.21
2009/04/23 16:45:57.9    -113   -181     94    214    233 211.9  25.2  34180  289.92 0854.21
2009/04/23 16:45:58.0     -47   -202    136    208    248 193.3  36.3  34222  290.61 0854.21
2009/04/23 16:45:58.1    -179   -170     95    248    265 226.4  22.0  34216  290.53 0854.21
2009/04/23 16:45:58.2    -132   -210    201    249    320 212.1  43.1  34212  290.46 0854.21
2009/04/23 16:45:58.3    -209   -133    160    248    295 237.5  35.6  34214  290.49 0854.21
2009/04/23 16:45:58.4    -160   -119    166    200    259 233.4  43.8  34166  289.66 0854.21
2009/04/23 16:45:58.5    -217    -26     42    219    224 263.0  11.0  34186  290.01 0854.21
2009/04/23 16:45:58.6      71    -33     65     79    102 115.3  43.8  34190  290.09 0854.21
2009/04/23 16:45:58.7     107    -57     49    122    131 118.0  23.0  34190  290.08 0854.21
2009/04/23 16:45:58.8     -16   -186    126    187    225 185.1  37.3  34150  289.41 0854.21
2009/04/23 16:45:58.9    -121   -191     23    227    229 212.3   5.9  34168  289.70 0854.21
2009/04/23 16:45:59.0    -207   -116     -1    238    239 240.7  -0.3  34168  289.70 0854.21
2009/04/23 16:45:59.1    -195    -83     77    212    225 246.9  20.7  34170  289.75 0854.21
2009/04/23 16:45:59.2     -19   -110    168    112    201 190.2  63.4  34176  289.85 0854.21
2009/04/23 16:45:59.3      13   -154     86    155    177 175.1  31.4  34140  289.23 0854.21
2009/04/23 16:45:59.4      29   -199     67    202    213 171.5  18.4  34122  288.92 0854.21
2009/04/23 16:45:59.5     -12   -177    107    178    207 184.0  33.7  34124  288.96 0854.20
2009/04/23 16:45:59.6     -43   -167    100    173    199 194.7  32.7  34140  289.24 0854.20
2009/04/23 16:45:59.7     -70    -44    105     83    133 237.6  57.5  34160  289.58 0854.20
2009/04/23 16:45:59.8     -59     18     86     62    106 287.7  60.6  34172  289.77 0854.20
2009/04/23 16:45:59.9     -32    -96    144    102    176 198.3  60.8  34146  289.35 0854.20
2009/04/23 16:46:00.0     -35   -137    131    142    193 194.7  47.9  34134  289.13 0854.20
2009/04/23 16:46:00.1     -31   -123     32    127    132 194.3  14.3  34150  289.40 0854.20
2009/04/23 16:46:00.2     106    -67     10    126    127 122.4   5.0  34150  289.40 0854.20
2009/04/23 16:46:00.3      28    -74    -14     80     82 159.1 -10.3  34146  289.35 0854.20
2009/04/23 16:46:00.4     -71    -33     31     79     84 244.6  22.0  34140  289.23 0854.20
2009/04/23 16:46:00.5    -114    -23      6    117    118 258.5   3.3  34142  289.28 0854.20
2009/04/23 16:46:00.6     -65   -181    -10    193    194 200.0  -3.2  34126  289.01 0854.20
2009/04/23 16:46:00.7     -34   -180      5    184    185 190.7   1.8  34126  289.01 0854.20
2009/04/23 16:46:00.8      13   -178     63    179    190 175.6  19.4  34124  288.96 0854.20
2009/04/23 16:46:00.9     -50   -213     93    219    237 193.4  24.3  34132  289.09 0854.20
2009/04/23 16:46:01.0     -20   -281     50    282    287 184.2  10.1  34128  289.03 0854.20
2009/04/23 16:46:01.1     -35   -224     19    227    228 188.9   4.9  34130  289.06 0854.20
2009/04/23 16:46:01.2     -19   -195     31    196    199 185.6   9.0  34132  289.09 0854.20
2009/04/23 16:46:01.3      -4   -167     14    168    169 181.6   4.9  34134  289.14 0854.20
2009/04/23 16:46:01.4      41   -244     91    248    264 170.3  20.9  34130  289.07 0854.20
2009/04/23 16:46:01.5      52   -302      2    307    308 170.2   0.5  34134  289.12 0854.21
2009/04/23 16:46:01.6      59   -289     46    296    300 168.4   8.9  34132  289.09 0854.21
2009/04/23 16:46:01.7      83   -371    -50    381    385 167.4  -7.5  34138  289.21 0854.21
2009/04/23 16:46:01.8     117   -294    -30    317    319 158.2  -5.5  34138  289.19 0854.21
2009/04/23 16:46:01.9     133   -279     48    310    314 154.5   8.9  34136  289.15 0854.21
2009/04/23 16:46:02.0      76   -250    -17    262    263 163.1  -3.7  34146  289.32 0854.21
2009/04/23 16:46:02.1      64   -232    -13    241    242 164.4  -3.3  34144  289.31 0854.21
2009/04/23 16:46:02.2      32   -205    -26    208    210 170.9  -7.2  34138  289.21 0854.21
2009/04/23 16:46:02.3      32   -139     -3    143    144 166.7  -1.3  34140  289.23 0854.21
2009/04/23 16:46:02.4       1    -73    -14     74     76 179.1 -11.3  34140  289.24 0854.21
2009/04/23 16:46:02.5      34    -66     -9     75     76 152.8  -7.2  34144  289.30 0854.21
2009/04/23 16:46:02.6      40    -34     10     53     55 130.4  11.1  34144  289.31 0854.21
2009/04/23 16:46:02.7      42      5     38     43     57  82.1  46.9  34146  289.35 0854.21
2009/04/23 16:46:02.8      41     -1     62     42     74  91.7  63.6  34158  289.55 0854.21
2009/04/23 16:46:02.9     -25     42     53     49     72 329.3  52.2  34178  289.87 0854.21
2009/04/23 16:46:03.0       1      0     91      2     91 108.4  90.0  34186  290.01 0854.21
2009/04/23 16:46:03.1       0     82     84     83    118   0.0  50.1  34190  290.08 0854.21
2009/04/23 16:46:03.2     -49    100     92    112    144 333.7  43.7  34174  289.82 0854.21
2009/04/23 16:46:03.3     -58    136    120    149    191 336.8  43.5  34180  289.92 0854.21
2009/04/23 16:46:03.4     -70    137    133    154    203 332.9  45.6  34184  289.97 0854.21
2009/04/23 16:46:03.5      -7    111    152    112    188 356.0  60.3  34200  290.25 0854.22
2009/04/23 16:46:03.6     -50    168    138    176    223 343.3  42.0  34194  290.16 0854.22
2009/04/23 16:46:03.7     -94    208    134    229    265 335.7  32.9  34184  289.98 0854.22
2009/04/23 16:46:03.8    -102    184    114    211    239 331.0  30.6  34186  290.02 0854.22
2009/04/23 16:46:03.9    -125    218    118    252    278 330.1  27.1  34190  290.09 0854.22
2009/04/23 16:46:04.0    -141    154    269    210    341 317.5  58.3  34196  290.17 0854.22
2009/04/23 16:46:04.1    -129    166    132    211    248 322.1  35.2  34198  290.20 0854.22
2009/04/23 16:46:04.2     -98    194     89    218    235 333.0  23.6  34192  290.11 0854.22
2009/04/23 16:46:04.3    -109    187     90    217    234 329.7  24.1  34166  289.69 0854.22
2009/04/23 16:46:04.4    -127    159     76    204    217 321.5  21.3  34180  289.92 0854.22
2009/04/23 16:46:04.5    -152    152     25    215    217 315.0   6.9  34186  290.02 0854.22
2009/04/23 16:46:04.6    -116    182    131    216    252 327.5  34.4  34230  290.75 0854.22
2009/04/23 16:46:04.7    -118    243    192    271    332 334.1  38.8  34222  290.61 0854.22
2009/04/23 16:46:04.8     -48    161     96    169    194 343.3  32.1  34214  290.50 0854.22
2009/04/23 16:46:04.9     -58    193     70    202    214 343.3  19.2  34230  290.75 0854.22
2009/04/23 16:46:05.0    -104    186     71    214    226 330.8  18.4  34206  290.36 0854.22
2009/04/23 16:46:05.1    -111    203     92    232    249 331.3  22.8  34208  290.39 0854.22
2009/04/23 16:46:05.2     -66    244     56    253    260 344.8  12.6  34222  290.63 0854.22
2009/04/23 16:46:05.3     -28    169    109    172    203 350.4  35.5  34216  290.53 0854.22
2009/04/23 16:46:05.4      -7     97    105     98    143 355.5  52.1  34222  290.64 0854.22
2009/04/23 16:46:05.5      66     54    107     86    137  50.5  56.4  34228  290.74 0854.22
2009/04/23 16:46:05.6     100     48    120    112    164  64.2  52.0  34222  290.62 0854.22
2009/04/23 16:46:05.7     146     72    156    163    225  63.6  48.5  34198  290.21 0854.22
2009/04/23 16:46:05.8     112     87    147    143    205  52.2  50.4  34200  290.25 0854.22
2009/04/23 16:46:05.9      74     65    147     99    177  48.7  62.8  34218  290.55 0854.22
2009/04/23 16:46:06.0     101     81    140    130    191  51.4  52.2  34210  290.41 0854.22
2009/04/23 16:46:06.1      39     78    117     88    146  26.7  59.4  34234  290.82 0854.22
2009/04/23 16:46:06.2      28     70    169     76    185  21.9  74.2  34226  290.70 0854.22
2009/04/23 16:46:06.3      64      9    159     65    171  82.0  76.6  34238  290.89 0854.22
2009/04/23 16:46:06.4      -6     79     87     80    118 355.6  52.2  34234  290.82 0854.22
2009/04/23 16:46:06.5     113     93    147    147    207  50.5  50.1  34242  290.96 0854.22
2009/04/23 16:46:06.6     145    102    147    178    230  54.7  43.7  34202  290.28 0854.22
2009/04/23 16:46:06.7      79     43    125     91    154  61.1  60.5  34216  290.53 0854.22
2009/04/23 16:46:06.8      46     22     70     52     87  64.6  59.4  34210  290.43 0854.22
2009/04/23 16:46:06.9       8     25     90     27     93  18.7  82.3  34220  290.58 0854.22
2009/04/23 16:46:07.0      15    -31    114     35    119 154.6  82.7  34214  290.50 0854.22
2009/04/23 16:46:07.1     113     -3    139    114    179  91.7  56.4  34204  290.33 0854.22
2009/04/23 16:46:07.2      -6     16     76     18     78 338.2  86.9  34214  290.48 0854.22
2009/04/23 16:46:07.3     -31     -2     72     32     78 265.6  75.0  34220  290.58 0854.22
2009/04/23 16:46:07.4     -26    -16     79     31     84 237.6  78.2  34212  290.45 0854.22
2009/04/23 16:46:07.5       2    -25     72     26     76 175.5  81.2  34202  290.28 0854.22
2009/04/23 16:46:07.6      -9     98     14     99    101 354.2   8.0  34198  290.21 0854.22
2009/04/23 16:46:07.7      23     72     14     76     78  18.3  11.0  34196  290.19 0854.22
2009/04/23 16:46:07.8      56     41     94     70    117  54.1  60.0  34202  290.30 0854.22
2009/04/23 16:46:07.9      91    103     52    138    147  41.4  21.5  34222  290.62 0854.22
2009/04/23 16:46:08.0      47     64     12     80     82  36.1   9.0  34208  290.40 0854.22
2009/04/23 16:46:08.1      47     92     -4    104    105  27.2  -2.2  34200  290.26 0854.22
2009/04/23 16:46:08.2      51     74     23     91     94  34.7  14.3  34204  290.31 0854.22
2009/04/23 16:46:08.3      75     21    -28     79     83  74.1 -23.8  34212  290.45 0854.22
2009/04/23 16:46:08.4     107     16    -30    109    114  81.2 -15.5  34226  290.70 0854.22
2009/04/23 16:46:08.5      65     30    -20     72     75  64.6 -15.5  34262  291.30 0854.22
2009/04/23 16:46:08.6      50     53    -46     74     87  43.2 -39.9  34258  291.23 0854.22
2009/04/23 16:46:08.7      44     86    -76     97    123  27.2 -46.6  34240  290.94 0854.22
2009/04/23 16:46:08.8      23    114    -47    117    126  11.6 -27.4  34254  291.16 0854.22
2009/04/23 16:46:08.9     -48     94    -33    106    111 332.8 -22.3  34266  291.38 0854.22
2009/04/23 16:46:09.0     -84    102      6    133    134 320.3   2.9  34258  291.23 0854.22
2009/04/23 16:46:09.1     -87     97     35    131    136 318.1  15.2  34214  290.50 0854.22
2009/04/23 16:46:09.2     -80    109      6    136    137 323.9   2.9  34216  290.53 0854.22
2009/04/23 16:46:09.3    -116     80    -27    142    145 304.6 -10.9  34198  290.21 0854.22
2009/04/23 16:46:09.4       7    149     79    150    169   2.7  29.8  34278  291.57 0854.22
2009/04/23 16:46:09.5      96    197     16    220    221  25.9   4.4  34304  292.01 0854.23
2009/04/23 16:46:09.6      66    150      7    165    166  23.8   2.5  34304  292.03 0854.23
2009/04/23 16:46:09.7      94    105      5    142    143  41.9   2.3  34292  291.83 0854.23
2009/04/23 16:46:09.8     100    128     -6    163    164  37.9  -2.2  34292  291.81 0854.23
2009/04/23 16:46:09.9      87    128      4    155    156  34.3   1.8  34248  291.08 0854.23
2009/04/23 16:46:10.0      99    105     -6    145    146  43.2  -2.6  34224  290.65 0854.23
2009/04/23 16:46:10.1      31     93    -35     99    105  18.7 -23.8  34222  290.64 0854.23
2009/04/23 16:46:10.2    -106    112    -19    155    157 316.8  -7.2  34190  290.08 0854.23
2009/04/23 16:46:10.3    -147     93    -49    175    182 302.5 -15.8  34160  289.58 0854.23
2009/04/23 16:46:10.4     -84    121    -25    148    151 325.3  -9.8  34206  290.36 0854.23
2009/04/23 16:46:10.5    -104     91    -38    139    145 311.3 -15.4  34246  291.03 0854.23
2009/04/23 16:46:10.6      -7    115    -47    116    125 356.4 -27.4  34270  291.43 0854.23
2009/04/23 16:46:10.7      41    145    -58    151    161  16.0 -26.4  34262  291.32 0854.23
2009/04/23 16:46:10.8     -37    139   -110    145    182 344.9 -45.3  34216  290.52 0854.23
2009/04/23 16:46:10.9      57    167    -68    177    189  18.9 -26.4  34234  290.84 0854.23
2009/04/23 16:46:11.0      44     94    -21    104    107  25.3 -11.5  34230  290.75 0854.23
2009/04/23 16:46:11.1      65     69    -34     95    101  43.2 -19.7  34208  290.40 0854.23
2009/04/23 16:46:11.2      62     78    -56    100    114  38.7 -36.3  34204  290.33 0854.23
2009/04/23 16:46:11.3      86     81    -25    119    122  46.9 -11.9  34216  290.52 0854.23
2009/04/23 16:46:11.4     118     59      0    133    134  63.4  -0.3  34234  290.82 0854.23
2009/04/23 16:46:11.5     135     27     41    138    145  78.5  16.8  34300  291.96 0854.25
2009/04/23 16:46:11.6      99      7     55    100    114  85.6  31.4  34292  291.83 0854.25
2009/04/23 16:46:11.7      59     -3     75     60     96  93.5  56.9  34232  290.81 0854.25
2009/04/23 16:46:11.8      35      0     57     36     67  90.0  64.7  34232  290.79 0854.25
2009/04/23 16:46:11.9      81     30     30     87     93  69.6  19.4  34286  291.72 0854.25
2009/04/23 16:46:12.0     140     40     12    146    147  74.1   4.9  34368  293.12 0854.25
2009/04/23 16:46:12.1     140     61    -19    153    155  66.4  -7.2  34396  293.58 0854.25
2009/04/23 16:46:12.2     150     40     34    156    160  74.9  12.6  34398  293.62 0854.25
2009/04/23 16:46:12.3     134     52     59    144    155  68.7  23.1  34352  292.83 0854.25
2009/04/23 16:46:12.4     142     55     54    153    163  68.7  19.4  34340  292.63 0854.25
2009/04/23 16:46:12.5      99     14     79    101    128  81.6  42.2  34314  292.18 0854.25
2009/04/23 16:46:12.6      93      4     63     94    113  87.4  36.5  34288  291.76 0854.25
2009/04/23 16:46:12.7      83      3     34     84     90  87.4  23.6  34236  290.86 0854.25
2009/04/23 16:46:12.8      58      0     72     59     93  90.0  56.4  34236  290.86 0854.25
2009/04/23 16:46:12.9      95    -31     85    101    132 108.4  44.3  34226  290.69 0854.25
2009/04/23 16:46:13.0     115    -63     71    132    149 118.9  30.8  34204  290.33 0854.25
2009/04/23 16:46:13.1     123    -48     69    133    149 111.3  29.3  34186  290.02 0854.25
2009/04/23 16:46:13.2      93    -43     52    103    115 115.2  28.2  34180  289.91 0854.25
2009/04/23 16:46:13.3     -13    -88     92     90    128 188.9  50.1  34184  289.99 0854.25
2009/04/23 16:46:13.4     -42   -121    107    129    167 199.2  44.1  34190  290.09 0854.25
2009/04/23 16:46:13.5    -103   -119     29    158    161 221.0  10.6  34186  290.02 0854.27
2009/04/23 16:46:13.6     -97   -105     21    144    146 222.8   8.5  34186  290.01 0854.27
2009/04/23 16:46:13.7    -126    -72     -8    146    147 240.2  -3.1  34196  290.18 0854.27
2009/04/23 16:46:13.8    -109    -73     -2    132    133 235.9  -1.3  34198  290.23 0854.27
2009/04/23 16:46:13.9    -115    -83     57    143    153 234.0  23.0  34202  290.30 0854.27
2009/04/23 16:46:14.0    -173    -58     44    183    189 251.2  13.5  34214  290.48 0854.27
2009/04/23 16:46:14.1    -111    -17    -33    113    117 261.2 -21.7  34258  291.25 0854.27
2009/04/23 16:46:14.2    -111      5    -51    112    123 272.6 -30.1  34268  291.42 0854.27
2009/04/23 16:46:14.3    -120     16    -52    122    132 278.0 -29.0  34264  291.35 0854.27
2009/04/23 16:46:14.4    -132     22    -45    134    141 279.7 -23.6  34268  291.40 0854.27
2009/04/23 16:46:14.5    -124      5    -47    125    133 272.5 -25.4  34240  290.92 0854.27
2009/04/23 16:46:14.6     -65     44    -32     79     85 304.2 -27.4  34234  290.84 0854.27
2009/04/23 16:46:14.7     -45    109    -34    119    123 337.3 -20.7  34230  290.77 0854.27
2009/04/23 16:46:14.8      21    133    -66    135    150   9.3 -31.7  34200  290.25 0854.27
2009/04/23 16:46:14.9      38    116    -22    123    125  18.5 -10.3  34192  290.11 0854.27
2009/04/23 16:46:15.0      32    122    -41    127    133  15.1 -23.8  34166  289.69 0854.27
2009/04/23 16:46:15.1      53    124    -46    135    143  23.2 -19.1  34178  289.89 0854.27
2009/04/23 16:46:15.2      -8     92      1     93     94 354.7   0.8  34226  290.70 0854.27
2009/04/23 16:46:15.3     -22    109     39    112    119 348.4  19.4  34214  290.50 0854.27
2009/04/23 16:46:15.4     -45    134     33    142    146 341.3  13.2  34210  290.43 0854.27
2009/04/23 16:46:15.5     -14    145     34    146    150 354.2  13.2  34212  290.47 0854.28
2009/04/23 16:46:15.6       7    141     27    142    145   3.1  11.0  34216  290.53 0854.28
2009/04/23 16:46:15.7      -4    109     29    110    114 357.8  15.2  34216  290.52 0854.28
2009/04/23 16:46:15.8      26     41     46     49     67  32.5  48.0  34218  290.55 0854.28
2009/04/23 16:46:15.9      56     56     68     80    104  45.0  44.8  34222  290.62 0854.28
2009/04/23 16:46:16.0       6     17     41     19     45  18.7  72.9  34228  290.74 0854.28
2009/04/23 16:46:16.1     -43    -13     32     45     55 253.2  38.6  34236  290.87 0854.28
2009/04/23 16:46:16.2     -14    -40     56     43     70 199.2  58.5  34222  290.62 0854.28
2009/04/23 16:46:16.3     -75    -40     60     86    104 242.0  38.6  34218  290.55 0854.28
2009/04/23 16:46:16.4    -132      1     31    133    137 270.8  13.2  34226  290.70 0854.28
2009/04/23 16:46:16.5    -121    -28     43    125    133 256.7  18.9  34202  290.30 0854.29
2009/04/23 16:46:16.6    -133    -63     51    148    157 244.8  19.2  34170  289.74 0854.29
2009/04/23 16:46:16.7     -97    -91     36    134    139 226.9  15.3  34166  289.69 0854.29
2009/04/23 16:46:16.8     -60   -119     91    134    161 206.7  37.6  34176  289.85 0854.29
2009/04/23 16:46:16.9     -71    -68     89     99    133 225.9  46.9  34192  290.13 0854.29
2009/04/23 16:46:17.0    -105   -130     92    168    191 219.0  31.3  34186  290.02 0854.29
2009/04/23 16:46:17.1    -113   -126     56    170    180 221.9  18.4  34148  289.36 0854.29
2009/04/23 16:46:17.2    -104    -67     66    124    140 237.1  30.8  34176  289.84 0854.29
2009/04/23 16:46:17.3     -96    -31    105    102    146 251.8  50.7  34200  290.26 0854.29
2009/04/23 16:46:17.4     -85    -14     38     87     94 260.3  25.1  34208  290.40 0854.29
2009/04/23 16:46:17.5     -75     31     76     82    111 292.6  47.9  34224  290.65 0854.29
2009/04/23 16:46:17.6     -60    -55     63     82    103 227.3  41.7  34204  290.33 0854.29
2009/04/23 16:46:17.7    -102     -7     50    103    114 265.6  27.3  34212  290.47 0854.29
2009/04/23 16:46:17.8     -78     40     72     88    113 297.1  43.7  34218  290.57 0854.29
2009/04/23 16:46:18.0     -77     18     41     80     89 283.3  28.7  34216  290.53 0854.29
2009/04/23 16:46:18.0     -83     40     23     93     96 295.8  14.3  34222  290.64 0854.29
2009/04/23 16:46:18.2     -83     58     44    102    111 305.1  25.1  34226  290.69 0854.29
2009/04/23 16:46:18.3     -52     55     38     76     84 316.7  28.7  34230  290.77 0854.29
2009/04/23 16:46:18.4     -24     73     30     77     82 341.5  22.0  34240  290.92 0854.29
2009/04/23 16:46:18.5     -33     93     19     99    101 340.4  11.1  34236  290.87 0854.29
2009/04/23 16:46:18.6     -51     68      0     86     87 323.0   0.2  34220  290.58 0854.28
2009/04/23 16:46:18.7       2     26     23     27     35   4.4  43.8  34234  290.84 0854.28
2009/04/23 16:46:18.8      27     12     21     30     36  64.8  37.6  34238  290.91 0854.28
2009/04/23 16:46:18.9      34     -1      6     35     36  92.6  11.0  34234  290.82 0854.28
2009/04/23 16:46:19.0      23    -15     15     28     31 122.4  29.3  34228  290.72 0854.28
2009/04/23 16:46:19.1       0    -41    -12     42     43 179.1 -21.7  34222  290.62 0854.28
2009/04/23 16:46:19.2     -15    -79    -25     81     84 191.1 -22.8  34198  290.23 0854.28
2009/04/23 16:46:19.3       0   -174     14    175    176 180.2   4.9  34146  289.35 0854.28
2009/04/23 16:46:19.4       3   -234    -40    235    239 179.1  -9.8  34148  289.37 0854.28
2009/04/23 16:46:19.5     -17   -191     24    192    194 185.3   7.2  34138  289.21 0854.28
2009/04/23 16:46:19.6      79   -246     73    259    270 162.2  15.8  34142  289.27 0854.28
2009/04/23 16:46:19.7      28   -261     87    263    278 173.7  18.4  34152  289.44 0854.28
2009/04/23 16:46:19.8      16   -275     70    276    285 176.5  14.3  34152  289.42 0854.28
2009/04/23 16:46:19.9      32   -298     70    300    309 173.8  13.2  34150  289.41 0854.28
2009/04/23 16:46:20.0      71   -262     71    272    282 164.8  14.7  34182  289.95 0854.28
2009/04/23 16:46:20.1      80   -241     80    255    268 161.5  17.4  34164  289.63 0854.28
2009/04/23 16:46:20.2     -17   -227     35    228    231 184.4   8.9  34144  289.31 0854.28
2009/04/23 16:46:20.3      -1   -191     67    192    204 180.5  19.4  34144  289.30 0854.28
2009/04/23 16:46:20.4      35   -148     49    153    161 166.7  17.9  34154  289.48 0854.28
2009/04/23 16:46:20.5      32    -97    105    103    147 161.7  50.2  34174  289.80 0854.28
2009/04/23 16:46:20.6      -1    -72     97     73    121 180.9  59.0  34166  289.69 0854.29
2009/04/23 16:46:20.7     -37    -48     79     61     99 217.8  58.5  34170  289.75 0854.29
2009/04/23 16:46:20.8     -82    -58    -12    101    102 234.5  -7.3  34162  289.62 0854.29
2009/04/23 16:46:20.9     -34    -72     15     80     82 205.4  10.6  34158  289.53 0854.29
2009/04/23 16:46:21.0    -114   -139    -14    181    182 219.4  -4.6  34154  289.46 0854.29
2009/04/23 16:46:21.1    -104   -172    -65    202    213 211.2 -17.9  34146  289.35 0854.29
2009/04/23 16:46:21.2     -68   -150    -72    165    180 204.5 -29.5  34146  289.35 0854.29
2009/04/23 16:46:21.3     -66   -167    -58    180    190 201.8 -18.1  34146  289.35 0854.29
2009/04/23 16:46:21.4     -90   -190    -73    211    223 205.3 -23.8  34142  289.28 0854.29
2009/04/23 16:46:21.5     -64   -173    -59    185    194 200.5 -23.3  34140  289.24 0854.29
2009/04/23 16:46:21.6     -95   -172    -24    197    199 208.9  -7.2  34144  289.31 0854.29
2009/04/23 16:46:21.7     -45   -137     22    145    147 198.3   9.0  34154  289.48 0854.29
2009/04/23 16:46:21.8     -17   -169     84    170    189 185.8  28.0  34164  289.63 0854.29
2009/04/23 16:46:21.9      14   -177     59    178    188 175.3  18.6  34162  289.62 0854.29
2009/04/23 16:46:22.0      -5   -175     57    176    186 181.8  18.1  34156  289.52 0854.29
2009/04/23 16:46:22.1     -20   -199     54    201    209 186.0  15.2  34152  289.45 0854.29
2009/04/23 16:46:22.2     -41   -155     61    161    172 195.1  21.5  34156  289.50 0854.29
2009/04/23 16:46:22.3    -101   -127     33    163    167 218.3  11.6  34148  289.38 0854.29
2009/04/23 16:46:22.4     -63    -96     36    116    122 213.4  17.3  34146  289.35 0854.29
2009/04/23 16:46:22.5    -162    -67      8    176    177 247.6   2.8  34150  289.41 0854.29
2009/04/23 16:46:22.6    -123      0     24    124    127 270.0  11.0  34148  289.38 0854.28
2009/04/23 16:46:22.7     -68    -27    110     74    132 248.3  63.2  34200  290.25 0854.28
2009/04/23 16:46:22.8     -81    -53     48     97    108 236.7  27.3  34180  289.92 0854.28
2009/04/23 16:46:22.9     -39   -176    166    181    245 192.5  47.1  34170  289.75 0854.28
2009/04/23 16:46:23.0    -104   -220     83    244    259 205.4  18.9  34162  289.61 0854.28
2009/04/23 16:46:23.1     -88   -238     79    254    267 200.3  17.3  34154  289.47 0854.28
2009/04/23 16:46:23.2     -78   -181    108    198    225 203.4  31.3  34162  289.62 0854.28
2009/04/23 16:46:23.3     -54   -248    118    254    280 192.3  26.6  34166  289.66 0854.28
2009/04/23 16:46:23.4     -49   -233    119    239    266 192.0  28.2  34176  289.85 0854.28
2009/04/23 16:46:23.5     -47   -265    110    270    291 190.2  23.1  34162  289.61 0854.28
2009/04/23 16:46:23.6     -37   -266    128    269    297 188.1  27.3  34176  289.83 0854.28
2009/04/23 16:46:23.7     -66   -185    184    197    269 199.8  48.0  34194  290.15 0854.28
2009/04/23 16:46:23.8     -52    -96    126    110    167 208.5  54.6  34194  290.16 0854.28
2009/04/23 16:46:23.9    -127   -124    147    178    230 225.6  43.7  34192  290.13 0854.28
2009/04/23 16:46:24.0     -95   -149    187    177    257 212.6  52.0  34170  289.73 0854.28
2009/04/23 16:46:24.1    -107   -140    172    177    246 217.2  49.2  34190  290.09 0854.28
2009/04/23 16:46:24.2    -109   -108    135    154    204 225.1  45.8  34192  290.13 0854.28
2009/04/23 16:46:24.3     -49   -103    117    115    164 205.3  50.1  34182  289.96 0854.28
2009/04/23 16:46:24.4    -132   -131    101    187    212 225.2  31.0  34170  289.74 0854.28
2009/04/23 16:46:24.5    -153   -128     52    200    207 230.0  14.7  34170  289.75 0854.28
2009/04/23 16:46:24.6    -171   -177     67    247    256 223.9  15.2  34172  289.76 0854.26
2009/04/23 16:46:24.7    -238   -217     17    323    324 227.7   3.0  34158  289.54 0854.26
2009/04/23 16:46:24.8    -187   -174     92    256    273 227.1  19.9  34162  289.61 0854.26
2009/04/23 16:46:24.9    -170    -54     29    179    182 252.3   9.5  34190  290.08 0854.26
2009/04/23 16:46:25.0    -252    -15     18    253    254 266.6   4.2  34196  290.19 0854.26
2009/04/23 16:46:25.1    -271    -46     -5    275    276 260.3  -1.1  34200  290.26 0854.26
2009/04/23 16:46:25.2    -202    -33    -43    205    210 260.5 -11.9  34192  290.11 0854.26
2009/04/23 16:46:25.3    -123   -176    -65    215    224 215.0 -21.8  34160  289.58 0854.26
2009/04/23 16:46:25.4     -75   -124    -14    145    146 211.2  -5.6  34164  289.65 0854.26
2009/04/23 16:46:25.5     -41   -174     21    179    181 193.4   6.9  34164  289.65 0854.26
2009/04/23 16:46:25.6     -60   -241     90    249    264 194.2  20.4  34152  289.44 0854.26
2009/04/23 16:46:25.7     -63   -237     -9    246    247 195.1  -2.2  34150  289.41 0854.26
2009/04/23 16:46:25.8     -32   -240     -1    243    244 187.8  -0.3  34154  289.46 0854.26
2009/04/23 16:46:25.9      22   -242     54    244    251 174.7  12.6  34150  289.41 0854.26
2009/04/23 16:46:26.0      13   -202    110    203    230 176.2  31.0  34152  289.43 0854.26
2009/04/23 16:46:26.1       3   -237    119    238    266 179.1  28.2  34152  289.42 0854.26
2009/04/23 16:46:26.2       0   -267    132    268    298 180.0  28.2  34148  289.37 0854.26
2009/04/23 16:46:26.3     -31   -217    124    220    252 188.1  32.1  34152  289.42 0854.26
2009/04/23 16:46:26.4     -93   -289    143    304    335 197.9  27.1  34148  289.37 0854.26
2009/04/23 16:46:26.5      13   -294    107    295    313 177.4  20.8  34148  289.36 0854.26
2009/04/23 16:46:26.6       0   -279     89    280    294 180.0  17.7  34148  289.37 0854.23
2009/04/23 16:46:26.7      14   -231    131    232    266 176.4  31.9  34148  289.36 0854.23
2009/04/23 16:46:26.8      -9   -123    137    124    184 184.4  53.0  34152  289.43 0854.23
2009/04/23 16:46:26.9     -26   -163    174    166    240 189.3  51.4  34150  289.40 0854.23
2009/04/23 16:46:27.0    -125    -44    166    133    212 250.5  57.1  34150  289.41 0854.23
2009/04/23 16:46:27.1     -34     -3     78     35     85 263.9  74.5  34162  289.60 0854.23
2009/04/23 16:46:27.2     238   -248     99    344    359 136.2  16.1  34156  289.50 0854.23
2009/04/23 16:46:27.3     262   -271    102    377    391 136.0  15.2  34152  289.42 0854.23
2009/04/23 16:46:27.4     300   -136    219    330    396 114.4  36.6  34154  289.47 0854.23
2009/04/23 16:46:27.5     302    -69    187    310    362 103.0  34.0  34152  289.42 0854.23
2009/04/23 16:46:27.6     291    -49    147    296    330  99.7  28.2  34150  289.41 0854.23
2009/04/23 16:46:27.7     347    -97    120    361    381 105.7  18.4  34154  289.48 0854.23
2009/04/23 16:46:27.8     338    -83    169    349    387 103.9  27.4  34154  289.48 0854.23
2009/04/23 16:46:27.9     328    -72    171    336    377 102.5  29.2  34154  289.48 0854.23
2009/04/23 16:46:28.0     292   -117    109    315    334 112.0  19.1  34162  289.61 0854.23
2009/04/23 16:46:28.1     320   -122     97    343    357 111.0  15.9  34158  289.54 0854.23
2009/04/23 16:46:28.2     287   -211    134    357    381 126.4  21.4  34170  289.74 0854.23
2009/04/23 16:46:28.3     203   -185     77    275    286 132.4  15.8  34168  289.70 0854.23
2009/04/23 16:46:28.4     218   -142     81    261    274 123.1  17.3  34170  289.73 0854.23
2009/04/23 16:46:28.5     160   -174     84    237    252 137.5  19.6  34156  289.49 0854.23
2009/04/23 16:46:28.6      84   -173     90    193    212 154.1  27.0  34158  289.53 0854.21
2009/04/23 16:46:28.7      26   -187    144    189    237 172.0  41.2  34158  289.55 0854.21
2009/04/23 16:46:28.8      14   -104    132    106    169 172.0  56.9  34164  289.65 0854.21
2009/04/23 16:46:28.9      -9   -123    125    124    176 184.4  49.7  34168  289.70 0854.21
2009/04/23 16:46:29.0      41   -125    195    132    235 161.7  62.6  34160  289.57 0854.21
2009/04/23 16:46:29.1     -29    -29    138     42    144 225.1  82.3  34170  289.74 0854.21
2009/04/23 16:46:29.2     -13      0    111     14    111 270.0  90.0  34190  290.08 0854.21
2009/04/23 16:46:29.3     -17     42    125     46    133 338.2  79.2  34182  289.94 0854.21
2009/04/23 16:46:29.4      31     31    105     45    114  45.0  76.1  34176  289.84 0854.21
2009/04/23 16:46:29.5      84     24    135     88    161  73.6  63.9  34178  289.87 0854.21
2009/04/23 16:46:29.6      59     43    161     74    177  54.1  73.8  34184  289.99 0854.21
2009/04/23 16:46:29.7      59      4    140     60    152  85.6  75.5  34178  289.87 0854.21
2009/04/23 16:46:29.8     -40     28    118     49    127 305.1  76.6  34204  290.31 0854.21
2009/04/23 16:46:29.9     -20     32    122     39    128 327.5  81.2  34260  291.28 0854.21
2009/04/23 16:46:30.0       1     13    145     14    145   8.0  90.0  34230  290.77 0854.21
2009/04/23 16:46:30.1     -82    108    107    136    173 322.6  42.2  34236  290.86 0854.21
2009/04/23 16:46:30.2     124      2    146    125    192  88.7  55.4  34230  290.77 0854.21
2009/04/23 16:46:30.3      40     63    148     75    165  32.5  71.1  34240  290.94 0854.21
2009/04/23 16:46:30.4      26    131    129    134    186  11.5  49.0  34238  290.89 0854.21
2009/04/23 16:46:30.5     -14    131    131    132    185 353.8  50.5  34226  290.69 0854.21
2009/04/23 16:46:30.6     -29    122    100    126    160 346.6  42.7  34224  290.65 0854.23
2009/04/23 16:46:30.7     -51      3     86     52    100 274.4  65.7  34202  290.28 0854.23
2009/04/23 16:46:30.8      -2    -56    147     57    157 182.7  77.8  34168  289.70 0854.23
2009/04/23 16:46:30.9       3    -82    175     83    193 177.8  72.9  34178  289.89 0854.23
2009/04/23 16:46:31.0     -21   -128    230    130    264 189.7  68.3  34172  289.77 0854.23
2009/04/23 16:46:31.1     -23   -217    326    219    392 186.2  62.8  34170  289.74 0854.23
2009/04/23 16:46:31.2     -73   -233    311    245    395 197.4  57.9  34168  289.72 0854.23
2009/04/23 16:46:31.3     -31   -292    250    294    385 186.2  44.7  34156  289.50 0854.23
2009/04/23 16:46:31.4     -53   -274    245    280    372 191.1  45.8  34148  289.37 0854.23
2009/04/23 16:46:31.5     -93   -257    253    274    372 200.0  47.7  34154  289.47 0854.23
2009/04/23 16:46:31.6     -47   -239    250    244    349 191.3  50.7  34164  289.63 0854.23
2009/04/23 16:46:31.7     -66   -215    313    226    386 197.2  60.6  34172  289.77 0854.23
2009/04/23 16:46:31.8     -81   -256    255    269    370 197.6  48.4  34178  289.89 0854.23
2009/04/23 16:46:31.9    -105   -267    192    288    346 201.6  36.7  34188  290.05 0854.23
2009/04/23 16:46:32.0     -88   -198     73    217    230 204.1  18.6  34198  290.21 0854.23
2009/04/23 16:46:32.1     -61   -182    212    193    286 198.7  53.2  34192  290.10 0854.23
2009/04/23 16:46:32.2    -124   -124     80    176    193 225.0  26.4  34184  289.99 0854.23
2009/04/23 16:46:32.3    -289   -243      5    378    379 230.0   0.8  34200  290.25 0854.23
2009/04/23 16:46:32.4     -70   -214    210    226    308 198.3  47.9  34188  290.03 0854.23
2009/04/23 16:46:32.5     -19    -52    157     56    166 200.0  79.9  34196  290.19 0854.23
2009/04/23 16:46:32.6     -87    -71    111    113    158 230.5  49.8  34194  290.16 0854.23
2009/04/23 16:46:32.7     -68   -143    154    159    221 205.5  49.2  34166  289.67 0854.23
2009/04/23 16:46:32.8    -173   -236    150    293    329 216.3  29.2  34156  289.49 0854.23
2009/04/23 16:46:32.9    -199   -254    165    323    362 218.1  29.2  34158  289.54 0854.23
2009/04/23 16:46:33.0    -185   -235    149    300    334 218.3  28.2  34152  289.42 0854.23
2009/04/23 16:46:33.1    -160   -186    108    246    268 220.8  25.3  34198  290.20 0854.23
2009/04/23 16:46:33.2    -190   -184     96    265    281 226.0  20.7  34220  290.59 0854.23
2009/04/23 16:46:33.3    -320   -205    138    381    405 237.4  20.7  34192  290.13 0854.23
2009/04/23 16:46:33.4    -271   -103     33    291    293 249.1   6.5  34188  290.03 0854.23
2009/04/23 16:46:33.5    -214    -56     38    222    226 255.4   9.9  34194  290.16 0854.23
2009/04/23 16:46:33.6    -253   -203     42    325    328 231.3   7.5  34180  289.92 0854.23
2009/04/23 16:46:33.7    -271   -145     26    308    310 241.8   4.9  34168  289.70 0854.23
2009/04/23 16:46:33.8    -192   -215     14    289    290 221.7   2.9  34154  289.47 0854.23
2009/04/23 16:46:33.9    -265   -186     -2    324    325 234.9  -0.4  34152  289.42 0854.23
2009/04/23 16:46:34.0    -249   -135    -18    284    285 241.6  -3.7  34158  289.54 0854.23
2009/04/23 16:46:34.1    -219   -144    -75    263    274 236.7 -16.0  34154  289.46 0854.23
2009/04/23 16:46:34.2    -180   -194     27    265    267 222.8   6.0  34184  289.98 0854.23
2009/04/23 16:46:34.3    -163   -255    -20    303    304 212.6  -3.9  34194  290.15 0854.23
2009/04/23 16:46:34.4    -180   -179    -32    255    258 225.2  -7.3  34174  289.80 0854.23
2009/04/23 16:46:34.5    -137   -119     -8    182    183 228.9  -2.8  34186  290.02 0854.23
2009/04/23 16:46:34.6    -192    -50    -67    199    211 255.4 -18.7  34226  290.70 0854.24
2009/04/23 16:46:34.7    -243    -49    -78    248    259 258.6 -22.8  34204  290.31 0854.24
2009/04/23 16:46:34.8    -250    -55    -77    257    268 257.6 -21.7  34214  290.48 0854.24
2009/04/23 16:46:34.9    -261    -84    -35    275    278 252.1  -7.3  34198  290.22 0854.24
2009/04/23 16:46:35.0    -244    -41    -87    248    263 260.4 -19.4  34206  290.34 0854.24
2009/04/23 16:46:35.1    -310    -54    -37    315    318 260.1  -6.8  34168  289.70 0854.24
2009/04/23 16:46:35.2    -277    -46    -51    281    286 260.4 -10.4  34168  289.70 0854.24
2009/04/23 16:46:35.3    -188   -176   -147    258    296 226.9 -36.5  34162  289.59 0854.24
2009/04/23 16:46:35.4    -256   -148   -111    296    316 240.0 -25.9  34164  289.63 0854.24
2009/04/23 16:46:35.5    -141   -154   -150    210    258 222.5 -43.7  34158  289.54 0854.24
2009/04/23 16:46:35.6    -218   -120   -123    250    278 241.1 -32.6  34166  289.66 0854.24
2009/04/23 16:46:35.7    -281    -68    -96    290    305 256.3 -23.8  34174  289.80 0854.24
2009/04/23 16:46:35.8    -336    -21   -147    337    367 266.3 -29.6  34228  290.74 0854.24
2009/04/23 16:46:35.9    -268    -80    -94    280    296 253.2 -18.7  34200  290.24 0854.24
2009/04/23 16:46:36.0    -206    -76    -85    220    235 249.6 -26.5  34204  290.31 0854.24
2009/04/23 16:46:36.1    -173    -86    -32    194    197 243.6  -9.6  34206  290.35 0854.24
2009/04/23 16:46:36.2    -151   -119    -60    193    202 231.6 -22.1  34180  289.92 0854.24
2009/04/23 16:46:36.3    -257    -80    -85    270    283 252.7 -22.5  34182  289.93 0854.24
2009/04/23 16:46:36.4    -257    -45    -79    262    273 259.9 -21.7  34186  290.02 0854.24
2009/04/23 16:46:36.5    -222   -108   -103    247    267 244.0 -28.5  34188  290.05 0854.24
2009/04/23 16:46:36.6    -212    -57    -25    220    222 254.9  -6.7  34182  289.94 0854.25
2009/04/23 16:46:36.7    -197   -123    -82    233    247 238.0 -24.4  34170  289.75 0854.25
2009/04/23 16:46:36.8    -183    -39    -53    188    195 257.8 -20.7  34184  289.99 0854.25
2009/04/23 16:46:36.9    -143    -50    -39    152    157 250.5 -14.5  34192  290.13 0854.25
2009/04/23 16:46:37.0    -220    -72    -60    232    240 251.8 -14.7  34176  289.85 0854.25
2009/04/23 16:46:37.1    -210   -145    -88    256    270 235.4 -23.6  34164  289.63 0854.25
2009/04/23 16:46:37.2    -171   -283   -170    331    372 211.1 -33.7  34154  289.47 0854.25
2009/04/23 16:46:37.3    -189   -316   -101    369    383 210.9 -15.4  34156  289.52 0854.25
2009/04/23 16:46:37.4    -165   -346   -126    384    405 205.5 -18.2  34170  289.74 0854.25
2009/04/23 16:46:37.5    -144   -349    -83    378    388 202.5 -12.5  34160  289.57 0854.25
2009/04/23 16:46:37.6     -51   -369    -71    373    380 188.0 -10.8  34164  289.64 0854.26
2009/04/23 16:46:37.7    -131   -355    -12    379    380 200.3  -1.9  34166  289.67 0854.26
2009/04/23 16:46:37.8    -138   -269    164    303    344 207.2  30.7  34178  289.89 0854.26
2009/04/23 16:46:37.9    -115   -243    153    269    309 205.3  32.1  34174  289.80 0854.26
2009/04/23 16:46:38.0     -38   -242    -18    246    247 188.9  -4.4  34162  289.59 0854.26
2009/04/23 16:46:38.1      57   -245     -5    252    253 166.9  -1.3  34168  289.70 0854.26
2009/04/23 16:46:38.2     129   -171    190    215    286 143.0  45.9  34214  290.49 0854.26
2009/04/23 16:46:38.3      90   -162    158    186    244 151.0  44.8  34224  290.67 0854.26
2009/04/23 16:46:38.4      91   -111    132    144    195 140.8  47.5  34228  290.74 0854.26
2009/04/23 16:46:38.5      72   -150    124    167    208 154.4  40.1  34240  290.92 0854.26
2009/04/23 16:46:38.6     135   -206     40    247    251 146.8   9.3  34222  290.61 0854.26
2009/04/23 16:46:38.7      68   -229     13    240    241 163.3   3.1  34174  289.81 0854.26
2009/04/23 16:46:38.8     113   -152     53    190    198 143.3  15.6  34186  290.01 0854.26
2009/04/23 16:46:38.9      15   -179     -3    180    181 174.9  -1.2  34186  290.02 0854.26
2009/04/23 16:46:39.0      13   -183     46    184    190 175.8  14.3  34194  290.16 0854.26
2009/04/23 16:46:39.1     -86   -177     92    197    217 205.9  27.0  34202  290.30 0854.26
2009/04/23 16:46:39.2     -85   -202     61    220    229 202.9  15.6  34184  289.97 0854.26
2009/04/23 16:46:39.3     -50   -186     24    193    195 195.2   7.2  34186  290.01 0854.26
2009/04/23 16:46:39.4      17   -145     34    146    150 173.3  13.1  34196  290.18 0854.26
2009/04/23 16:46:39.5     -95   -210    -29    231    233 204.5  -7.3  34186  290.02 0854.26
2009/04/23 16:46:39.6    -161   -215    -49    269    274 216.9 -10.4  34176  289.85 0854.26
2009/04/23 16:46:39.7    -124   -361      2    382    383 199.0   0.4  34164  289.64 0854.26
2009/04/23 16:46:39.8    -116   -316     48    337    341 200.2   8.2  34174  289.82 0854.26
2009/04/23 16:46:39.9     -31   -286     41    288    292 186.3   8.2  34168  289.71 0854.26
2009/04/23 16:46:40.0     -21   -277     -5    278    279 184.5  -1.2  34174  289.80 0854.26
2009/04/23 16:46:40.1     -50   -210    -76    216    228 193.4 -24.4  34160  289.57 0854.26
2009/04/23 16:46:40.2     -95   -168    -66    194    206 209.4 -18.9  34156  289.52 0854.26
2009/04/23 16:46:40.3    -127    -80     23    151    153 237.6   8.9  34174  289.82 0854.26
2009/04/23 16:46:40.4     -64      3     -1     65     66 273.5  -1.3  34180  289.92 0854.26
2009/04/23 16:46:40.5       0      0     39      0     39   0.0 -90.0  34186  290.01 0854.26
2009/04/23 16:46:40.6      11    -23     60     26     65 152.8  75.0  34180  289.91 0854.26
2009/04/23 16:46:40.7     121    -32     49    126    135 105.1  21.5  34168  289.72 0854.26
2009/04/23 16:46:40.8     141    -20     91    143    169  98.4  35.5  34154  289.48 0854.26
2009/04/23 16:46:40.9      59    -32    102     68    122 118.8  62.7  34168  289.72 0854.26
2009/04/23 16:46:41.0      51    -61     90     80    120 140.4  53.7  34180  289.92 0854.26
2009/04/23 16:46:41.1      -1     31     59     32     67 357.3  68.9  34190  290.08 0854.26
2009/04/23 16:46:41.2     -19     30     65     36     74 327.4  68.8  34200  290.26 0854.26
2009/04/23 16:46:41.3      12     15     50     20     53  39.6  78.2  34202  290.30 0854.26
2009/04/23 16:46:41.4      11    -20     42     23     47 151.0  68.8  34212  290.47 0854.26
2009/04/23 16:46:41.5     -13    -28     44     31     53 205.3  61.5  34208  290.40 0854.26
2009/04/23 16:46:41.6       0     12     77     13     78 359.1  90.0  34196  290.18 0854.25
2009/04/23 16:46:41.7     -37    -44     83     58    101 219.6  61.5  34188  290.04 0854.25
2009/04/23 16:46:41.8      41    -65     59     78     97 147.5  41.2  34190  290.09 0854.25
2009/04/23 16:46:41.9      55    -69      9     89     90 141.3   5.9  34174  289.82 0854.25
2009/04/23 16:46:42.0      43    -91     -3    101    102 154.6  -1.8  34170  289.74 0854.25
2009/04/23 16:46:42.1      73   -115     -7    137    138 147.4  -3.1  34168  289.70 0854.25
2009/04/23 16:46:42.2      21   -126    -16    128    130 170.3  -7.2  34170  289.75 0854.25
2009/04/23 16:46:42.3       4   -161     10    162    163 178.4   3.6  34172  289.79 0854.25
2009/04/23 16:46:42.4     -11   -149     25    150    153 184.5   9.5  34174  289.80 0854.25
2009/04/23 16:46:42.5       4   -134    -36    135    140 178.2 -15.0  34174  289.80 0854.25
2009/04/23 16:46:42.6      16   -113    -44    115    123 171.9 -25.9  34174  289.82 0854.25
2009/04/23 16:46:42.7      97    -71     13    121    122 126.4   6.5  34172  289.79 0854.25
2009/04/23 16:46:42.8     125   -103     -7    162    163 129.5  -2.8  34170  289.75 0854.25
2009/04/23 16:46:42.9      93   -105      2    141    142 138.6   0.8  34170  289.74 0854.25
2009/04/23 16:46:43.0      73   -129     51    149    158 150.6  18.9  34174  289.80 0854.25
2009/04/23 16:46:43.1      43   -171    -11    177    178 165.7  -3.7  34174  289.82 0854.25
2009/04/23 16:46:43.2      68   -178      0    191    192 159.1  -0.3  34172  289.79 0854.25
2009/04/23 16:46:43.3      35   -195     21    199    201 169.8   6.1  34170  289.74 0854.25
2009/04/23 16:46:43.4      23   -257     90    259    275 174.7  19.2  34168  289.71 0854.25
2009/04/23 16:46:43.5      71   -247     50    258    263 163.9  11.1  34170  289.75 0854.25
2009/04/23 16:46:43.6      51   -190     85    197    214 164.9  25.1  34168  289.70 0854.26
2009/04/23 16:46:43.7      52   -224     31    231    234 166.9   7.8  34172  289.77 0854.26
2009/04/23 16:46:43.8      11   -213     17    214    215 176.9   4.6  34172  289.79 0854.26
2009/04/23 16:46:43.9      -8   -159    176    160    237 183.1  53.2  34180  289.91 0854.26
2009/04/23 16:46:44.0      17   -121     98    123    157 172.0  42.7  34180  289.91 0854.26
2009/04/23 16:46:44.1      48   -162    102    170    198 163.3  33.7  34170  289.75 0854.26
2009/04/23 16:46:44.2      99   -210    128    233    265 154.7  31.3  34174  289.81 0854.26
2009/04/23 16:46:44.3     106   -198     60    225    233 151.9  15.0  34172  289.79 0854.26
2009/04/23 16:46:44.4      73   -201     40    215    219 160.0  10.6  34174  289.80 0854.26
2009/04/23 16:46:44.5      67   -216    113    227    253 162.6  28.2  34176  289.83 0854.26
2009/04/23 16:46:44.6      52   -204    114    211    239 165.5  30.6  34176  289.85 0854.26
2009/04/23 16:46:44.7     123   -209    127    243    274 149.5  29.5  34170  289.75 0854.26
2009/04/23 16:46:44.8     101   -190     59    216    224 152.1  15.3  34164  289.63 0854.26
2009/04/23 16:46:44.9      60   -138    105    151    183 156.3  38.4  34166  289.69 0854.26
2009/04/23 16:46:45.0     133   -175    167    220    276 142.8  40.9  34174  289.81 0854.26
2009/04/23 16:46:45.1      85   -195    160    213    266 156.4  40.7  34176  289.83 0854.26
2009/04/23 16:46:45.2     186   -119    151    221    267 122.6  37.6  34172  289.78 0854.26
2009/04/23 16:46:45.3     153   -154    132    218    254 135.2  34.0  34156  289.51 0854.26
2009/04/23 16:46:45.4     263   -133    123    295    319 116.9  23.9  34156  289.49 0854.26
2009/04/23 16:46:45.5     225   -197    193    300    356 131.3  35.7  34162  289.62 0854.26
2009/04/23 16:46:45.7     184   -222    123    289    314 140.3  24.6  34162  289.61 0854.27
2009/04/23 16:46:45.8     152   -184    134    239    274 140.4  31.4  34160  289.56 0854.27
2009/04/23 16:46:45.9      68   -251    114    261    284 164.8  25.1  34168  289.70 0854.27
2009/04/23 16:46:46.0      27   -265    131    267    297 174.0  28.2  34170  289.73 0854.27
2009/04/23 16:46:46.1      -8   -256    123    257    284 181.8  27.3  34168  289.70 0854.27
2009/04/23 16:46:46.2      -7   -186    169    187    252 182.2  46.9  34164  289.65 0854.27
2009/04/23 16:46:46.3     -10   -163    139    164    214 183.6  44.5  34160  289.58 0854.27
2009/04/23 16:46:46.4      51   -195    125    202    237 165.3  34.5  34166  289.67 0854.27
2009/04/23 16:46:46.5      41   -336    194    339    390 172.9  32.4  34164  289.64 0854.27
2009/04/23 16:46:46.6      -4   -414    104    415    428 180.6  14.2  34156  289.51 0854.27
2009/04/23 16:46:46.7      64   -371     42    377    380 170.2   6.5  34160  289.57 0854.27
2009/04/23 16:46:46.8      49   -209    123    215    247 166.6  32.4  34154  289.46 0854.27
2009/04/23 16:46:46.9      95   -122     98    155    183 142.2  35.5  34164  289.63 0854.27
2009/04/23 16:46:47.0      37    -72     69     82    107 152.8  44.3  34164  289.63 0854.27
2009/04/23 16:46:47.1      -5    -75     -9     76     77 184.5  -7.3  34160  289.58 0854.27
2009/04/23 16:46:47.2      27   -136     80    139    160 168.4  32.4  34152  289.45 0854.27
2009/04/23 16:46:47.3     -45   -136     90    144    169 198.5  35.2  34162  289.60 0854.27
2009/04/23 16:46:47.4      -4   -194     12    195    196 181.4   3.8  34160  289.58 0854.27
2009/04/23 16:46:47.5      54   -269     61    275    282 168.7  12.6  34164  289.63 0854.27
2009/04/23 16:46:47.6      76   -320     89    329    341 166.6  15.1  34162  289.59 0854.27
2009/04/23 16:46:47.7      35   -310    134    313    340 173.5  24.5  34158  289.55 0854.27
2009/04/23 16:46:47.8      44   -322    166    325    364 172.2  29.2  34154  289.48 0854.27
2009/04/23 16:46:47.9      36   -285    115    288    310 172.7  23.0  34154  289.46 0854.27
2009/04/23 16:46:48.0       4   -262    138    263    297 179.0  30.1  34158  289.54 0854.27
2009/04/23 16:46:48.1      51   -304    138    309    338 170.4  25.7  34162  289.59 0854.27
2009/04/23 16:46:48.2      87   -262    134    277    307 161.5  27.3  34162  289.61 0854.27
2009/04/23 16:46:48.3       5   -363    106    364    380 179.1  16.3  34162  289.59 0854.27
2009/04/23 16:46:48.4     -58   -325    152    331    364 190.2  26.4  34166  289.67 0854.27
2009/04/23 16:46:48.5    -125   -275    194    303    359 204.5  35.6  34162  289.59 0854.27
2009/04/23 16:46:48.6    -114   -191    133    223    259 211.0  33.5  34180  289.92 0854.27
2009/04/23 16:46:48.7    -123    -66    100    140    172 241.6  38.8  34190  290.09 0854.27
2009/04/23 16:46:48.8    -102     69     -4    124    125 304.1  -2.2  34198  290.21 0854.27
2009/04/23 16:46:48.9     -18     29      6     35     36 327.5  11.1  34184  289.99 0854.27
2009/04/23 16:46:49.0      53     49     17     73     76  46.9  13.2  34184  289.99 0854.27
2009/04/23 16:46:49.1      92    -23     36     95    101 104.2  21.5  34172  289.77 0854.27
2009/04/23 16:46:49.2     125    -86     68    153    167 124.6  25.7  34168  289.70 0854.27
2009/04/23 16:46:49.3     142   -173     34    224    227 140.6   8.8  34170  289.74 0854.27
2009/04/23 16:46:49.4     189   -221      4    291    292 139.5   0.8  34172  289.78 0854.27
2009/04/23 16:46:49.5     162   -217    145    272    308 143.3  30.3  34174  289.80 0854.27
2009/04/23 16:46:49.6     149   -213    217    260    338 145.0  44.1  34170  289.73 0854.27
2009/04/23 16:46:49.7     250   -131     39    283    286 117.8   8.0  34170  289.73 0854.27
2009/04/23 16:46:49.8     161   -141     34    215    218 131.1   9.0  34168  289.70 0854.27
2009/04/23 16:46:49.9     198   -157     14    253    254 128.4   3.3  34170  289.75 0854.27
2009/04/23 16:46:50.0     216   -177    -92    280    294 129.3 -23.6  34164  289.63 0854.27
2009/04/23 16:46:50.1     273   -116     27    297    299 113.1   5.2  34154  289.46 0854.27
2009/04/23 16:46:50.2     209    -66    139    220    260 107.5  35.5  34152  289.42 0854.27
2009/04/23 16:46:50.3     256   -115     99    281    297 114.2  20.2  34158  289.53 0854.27
2009/04/23 16:46:50.4     220    -31     82    223    237  98.0  21.0  34152  289.44 0854.27
2009/04/23 16:46:50.5     271   -232    237    358    429 130.6  36.6  34130  289.05 0854.27
2009/04/23 16:46:50.6     -24   -251    237    253    346 185.6  48.0  34158  289.54 0854.27
2009/04/23 16:46:50.7      17   -226     17    227    228 175.6   4.4  34166  289.67 0854.27
2009/04/23 16:46:50.8      53   -166    -52    175    182 162.2 -21.5  34156  289.52 0854.27
2009/04/23 16:46:50.9     115   -181   -163    215    269 147.5 -45.3  34148  289.37 0854.27
2009/04/23 16:46:51.0     202    -38    -64    206    215 100.8 -22.5  34144  289.31 0854.27
2009/04/23 16:46:51.1     -32    -77    100     84    130 202.7  56.3  34152  289.43 0854.27
2009/04/23 16:46:51.2      15   -113    182    114    214 172.4  64.7  34188  290.06 0854.27
2009/04/23 16:46:51.3      42   -158    123    164    205 164.9  40.7  34186  290.01 0854.27
2009/04/23 16:46:51.4       0   -290    104    291    309 180.0  20.2  34144  289.31 0854.27
2009/04/23 16:46:51.5     219   -480    100    528    538 155.5  10.7  34172  289.79 0854.27
2009/04/23 16:46:51.6      28   -463    162    464    492 176.5  19.3  34162  289.61 0854.27
2009/04/23 16:46:51.7     -36   -253    248    256    356 188.1  49.1  34168  289.70 0854.27
2009/04/23 16:46:51.8     -24    -12    164     27    166 242.9  90.0  34190  290.09 0854.27
2009/04/23 16:46:51.9      57   -243    237    250    344 166.6  48.4  34164  289.64 0854.27
2009/04/23 16:46:52.0     132   -239    164    274    319 151.0  33.8  34158  289.53 0854.27
2009/04/23 16:46:52.1     363   -252    168    443    473 124.8  21.7  34160  289.58 0854.27
2009/04/23 16:46:52.2     323   -201    -40    381    384 121.9  -6.1  34154  289.47 0854.27
2009/04/23 16:46:52.3     267   -282    106    389    404 136.5  15.3  34140  289.23 0854.27
2009/04/23 16:46:52.4     302   -235     10    383    384 127.9   1.6  34156  289.50 0854.27
2009/04/23 16:46:52.5     225    -98    -87    246    262 113.5 -19.6  34162  289.59 0854.27
2009/04/23 16:46:52.6     223    -68     50    234    240 107.1  12.2  34152  289.42 0854.27
2009/04/23 16:46:52.7     -11    -95     42     96    104 186.7  25.1  34140  289.24 0854.27
2009/04/23 16:46:52.8      -5    -75    134     76    154 184.5  67.7  34128  289.04 0854.27
2009/04/23 16:46:52.9       8    -60    -25     61     65 172.0 -27.4  34132  289.09 0854.27
2009/04/23 16:46:53.0      29    -59    -65     66     92 153.7 -54.9  34138  289.21 0854.27
2009/04/23 16:46:53.1     101     27    -72    105    127  74.9 -42.0  34160  289.57 0854.27
2009/04/23 16:46:53.2      91    -36   -100     98    140 111.7 -54.5  34162  289.60 0854.27
2009/04/23 16:46:53.3      70     -5    -66     71     96  94.4 -52.9  34168  289.72 0854.27
2009/04/23 16:46:53.4      71    -18    -80     74    108 104.2 -56.6  34174  289.82 0854.27
2009/04/23 16:46:53.5     162    -41    -91    168    191 104.2 -35.2  34170  289.74 0854.27
2009/04/23 16:46:53.6     247    -85    -86    262    276 109.1 -18.3  34126  289.00 0854.27
2009/04/23 16:46:53.7     212   -144      7    257    258 124.2   1.6  34122  288.92 0854.27
2009/04/23 16:46:53.8     100   -145    212    177    276 145.5  56.1  34136  289.17 0854.27
2009/04/23 16:46:53.9      38   -268    215    271    345 171.9  42.6  34136  289.17 0854.27
2009/04/23 16:46:54.0      53   -257    168    263    312 168.2  35.6  34124  288.97 0854.27
2009/04/23 16:46:54.1      78   -104     82    131    154 143.0  35.5  34120  288.91 0854.27
2009/04/23 16:46:54.2      91   -125    152    155    217 143.9  49.4  34138  289.21 0854.27
2009/04/23 16:46:54.3     237   -222    230    326    398 133.1  38.6  34136  289.16 0854.27
2009/04/23 16:46:54.4     198   -264    283    331    435 143.2  45.0  34140  289.24 0854.27
2009/04/23 16:46:54.5     191   -248    245    314    398 142.4  41.9  34136  289.15 0854.27
2009/04/23 16:46:54.6     205   -260    284    332    436 141.8  44.9  34134  289.14 0854.27
2009/04/23 16:46:54.7     332   -310    291    455    540 133.0  35.6  34132  289.10 0854.27
2009/04/23 16:46:54.8     144   -384    337    411    531 159.4  43.7  34136  289.17 0854.27
2009/04/23 16:46:54.9     143   -258    263    296    395 151.0  46.3  34138  289.21 0854.27
2009/04/23 16:46:55.0     120   -298    162    322    360 158.1  28.9  34142  289.26 0854.27
2009/04/23 16:46:55.1      47   -234      3    239    240 168.4   0.8  34140  289.22 0854.27
2009/04/23 16:46:55.2       0   -102   -115    103    154 180.4 -58.1  34138  289.21 0854.27
2009/04/23 16:46:55.3     186    -49   -102    193    218 105.0 -34.5  34140  289.23 0854.27
2009/04/23 16:46:55.4     192    -44    -53    198    206 103.0 -15.2  34138  289.21 0854.27
2009/04/23 16:46:55.5     191    -90     58    212    220 115.3  15.3  34144  289.31 0854.27
2009/04/23 16:46:55.6     113    -54     52    126    136 115.4  23.6  34142  289.26 0854.27
2009/04/23 16:46:55.7      19    -78     -5     81     82 165.7  -4.1  34144  289.30 0854.24
2009/04/23 16:46:55.8      28   -104    -81    108    135 164.9 -45.1  34144  289.30 0854.24
2009/04/23 16:46:55.9      38    -79    -78     88    117 154.1 -50.8  34150  289.41 0854.24
2009/04/23 16:46:56.0      96    -62    -69    115    134 122.9 -38.8  34154  289.48 0854.24
2009/04/23 16:46:56.1     121   -128    -75    177    192 136.8 -28.7  34154  289.46 0854.24
2009/04/23 16:46:56.2     -41   -191    -56    196    203 192.3 -21.0  34150  289.41 0854.24
2009/04/23 16:46:56.3     -60   -255    -18    262    263 193.3  -4.1  34142  289.27 0854.24
2009/04/23 16:46:56.4     -51   -256    -87    262    276 191.3 -23.8  34142  289.27 0854.24
2009/04/23 16:46:56.5     116   -126     97    172    197 137.5  31.9  34146  289.35 0854.24
2009/04/23 16:46:56.6     112    -85    228    141    268 127.3  65.4  34162  289.61 0854.24
2009/04/23 16:46:56.7      38   -215    143    219    261 169.8  36.0  34162  289.61 0854.24
2009/04/23 16:46:56.8      32   -420    211    422    471 175.5  28.6  34140  289.24 0854.24
2009/04/23 16:46:56.9       4   -379    265    380    463 179.3  38.4  34146  289.34 0854.24
2009/04/23 16:46:57.0       7   -429    247    430    495 179.0  32.4  34140  289.23 0854.24
2009/04/23 16:46:57.1      32   -386    301    388    491 175.2  41.7  34176  289.83 0854.24
2009/04/23 16:46:57.2       0   -264    256    265    368 180.0  49.1  34162  289.62 0854.24
2009/04/23 16:46:57.3     111   -138    132    178    221 141.3  39.9  34154  289.48 0854.24
2009/04/23 16:46:57.4     368    -74    183    376    418 101.5  27.9  34184  289.97 0854.24
2009/04/23 16:46:57.5     469    -14     66    470    475  91.7   8.0  34160  289.56 0854.24
2009/04/23 16:46:57.6     402     38     60    404    409  84.6   8.5  34158  289.55 0854.24
2009/04/23 16:46:57.7     221     37    164    225    278  80.3  39.7  34152  289.42 0854.24
2009/04/23 16:46:57.8     161     30    101    164    192  79.4  35.0  34160  289.57 0854.24
2009/04/23 16:46:57.9      59    135    108    148    183  23.7  39.7  34158  289.53 0854.24
2009/04/23 16:46:58.0     -78    -52    172     94    196 236.3  69.1  34172  289.77 0854.24
2009/04/23 16:46:58.1    -197     22     93    199    219 276.4  27.1  34148  289.36 0854.24
2009/04/23 16:46:58.2    -336     10     73    337    345 271.8  12.3  34150  289.40 0854.24
2009/04/23 16:46:58.3    -173    -45    175    179    250 255.2  49.8  34152  289.43 0854.24
2009/04/23 16:46:58.4     -29    -10    135     31    138 250.0  87.0  34170  289.75 0854.24
2009/04/23 16:46:58.5     125    103     82    162    181  50.5  28.7  34150  289.41 0854.24
2009/04/23 16:46:58.6     187    158     91    245    261  49.8  21.3  34140  289.24 0854.24
2009/04/23 16:46:58.7     140    235    133    274    304  30.8  27.3  34148  289.36 0854.25
2009/04/23 16:46:58.8     196    209    216    287    359  43.2  40.8  34136  289.18 0854.25
2009/04/23 16:46:58.9     252    179     96    310    325  54.7  17.3  34136  289.17 0854.25
2009/04/23 16:46:59.0     178    129    133    221    257  54.0  34.0  34138  289.20 0854.25
2009/04/23 16:46:59.1     171    172    162    243    292  44.8  36.5  34148  289.36 0854.25
2009/04/23 16:46:59.2     454     54    254    458    523  83.1  31.4  34314  292.19 0854.25
2009/04/23 16:46:59.3     367    200    324    418    528  61.4  41.7  34392  293.52 0854.25
2009/04/23 16:46:59.4     287    200    230    351    419  55.1  36.3  34434  294.23 0854.25
2009/04/23 16:46:59.5     244    127     92    276    292  62.5  18.5  34442  294.36 0854.25
2009/04/23 16:46:59.6     179    137    211    226    309  52.7  47.9  34448  294.48 0854.25
2009/04/23 16:46:59.7     340     77    260    349    435  77.2  40.4  34456  294.62 0854.25
2009/04/23 16:46:59.8     583    287    231    650    691  63.8  19.6  34214  290.48 0854.25
2009/04/23 16:46:59.9     623    295    273    690    742  64.6  22.9  34218  290.56 0854.25
2009/04/23 16:47:00.0     576    271    255    637    686  64.8  23.1  34190  290.07 0854.25
2009/04/23 16:47:00.1     532    286    122    605    618  61.7  11.4  34218  290.54 0854.25
2009/04/23 16:47:00.2     562    431     29    709    710  52.5   2.4  34228  290.74 0854.25
2009/04/23 16:47:00.3     273    401    188    486    521  34.3  22.4  34188  290.03 0854.25
2009/04/23 16:47:00.4     112    467    256    481    544  13.6  30.3  34192  290.13 0854.25
2009/04/23 16:47:00.5      80    418    266    426    502  10.9  35.0  34198  290.20 0854.25
2009/04/23 16:47:00.6    -105    388     19    403    404 344.8   2.8  34192  290.12 0854.25
2009/04/23 16:47:00.7     -69    415   -122    421    438 350.6 -21.0  34222  290.61 0854.26
2009/04/23 16:47:00.8    -109    311   -114    330    350 340.6 -19.1  34168  289.72 0854.26
2009/04/23 16:47:00.9    -231    306   -111    384    399 323.0 -20.9  34148  289.38 0854.26
2009/04/23 16:47:01.0    -315    301    -98    436    447 313.7 -12.7  34192  290.11 0854.26
2009/04/23 16:47:01.1    -298    160    -94    339    351 298.2 -20.1  34194  290.15 0854.26
2009/04/23 16:47:01.2    -233    170   -105    289    307 306.2 -25.3  34172  289.78 0854.26
2009/04/23 16:47:01.3    -164    175   -122    241    270 316.8 -33.1  34148  289.37 0854.26
2009/04/23 16:47:01.4    -199    149    -90    249    264 306.9 -24.8  34172  289.76 0854.26
2009/04/23 16:47:01.5     -35    148   -109    153    187 346.7 -43.5  34132  289.09 0854.26
2009/04/23 16:47:01.6      22    135    -85    137    161   9.3 -39.2  34142  289.28 0854.26
2009/04/23 16:47:01.7      79    144    -49    165    172  28.7 -21.7  34176  289.85 0854.26
2009/04/23 16:47:01.8     102    154    -61    185    194  33.6 -23.8  34142  289.28 0854.26
2009/04/23 16:47:01.9     180    103    -62    208    217  60.2 -21.5  34126  289.01 0854.26
2009/04/23 16:47:02.0     175    111    -41    208    213  57.6 -11.1  34132  289.09 0854.26
2009/04/23 16:47:02.1     146     58     -6    158    159  68.3  -2.2  34146  289.35 0854.26
2009/04/23 16:47:02.2     186    -42    -13    191    192 103.0  -3.9  34142  289.28 0854.26
2009/04/23 16:47:02.3     142    -18     50    144    153  97.5  19.4  34130  289.06 0854.26
2009/04/23 16:47:02.4      65    -77    -20    101    104 139.9 -11.5  34132  289.11 0854.26
2009/04/23 16:47:02.5     -21    -67    -47     71     85 197.8 -40.9  34142  289.26 0854.26
2009/04/23 16:47:02.6      55    -87    -41    104    111 147.5 -26.9  34140  289.23 0854.26
2009/04/23 16:47:02.7     166   -170    -65    238    247 135.7 -15.4  34136  289.17 0854.28
2009/04/23 16:47:02.8     189   -250   -222    314    384 142.8 -43.2  34154  289.48 0854.28
2009/04/23 16:47:02.9     178   -143   -166    229    282 128.9 -43.9  34144  289.31 0854.28
2009/04/23 16:47:03.0     144   -249   -131    288    316 149.9 -30.4  34162  289.59 0854.28
2009/04/23 16:47:03.1      51   -247   -168    253    303 168.2 -40.9  34134  289.12 0854.28
2009/04/23 16:47:03.2      54   -267   -168    273    320 168.4 -39.0  34126  289.00 0854.28
2009/04/23 16:47:03.3     118   -249   -158    276    318 154.6 -36.8  34132  289.09 0854.28
2009/04/23 16:47:03.4     107   -240    -95    263    279 155.9 -25.3  34162  289.61 0854.28
2009/04/23 16:47:03.5     100   -272    -31    291    293 159.7  -6.2  34178  289.86 0854.28
2009/04/23 16:47:03.6     121   -167     -8    207    208 144.0  -2.2  34176  289.85 0854.28
2009/04/23 16:47:03.7     122   -115     -4    169    170 133.3  -1.6  34168  289.72 0854.28
2009/04/23 16:47:03.8      98    -66     57    119    131 123.7  27.3  34172  289.79 0854.28
2009/04/23 16:47:03.9      67    -22     62     71     94 108.4  45.8  34180  289.92 0854.28
2009/04/23 16:47:04.0      56    -76     76     95    121 143.5  42.7  34190  290.08 0854.28
2009/04/23 16:47:04.1      84    -81    -27    117    121 134.0 -13.3  34168  289.72 0854.28
2009/04/23 16:47:04.2      71    -73    -59    103    118 135.9 -36.8  34168  289.72 0854.28
2009/04/23 16:47:04.3      56   -156    129    166    210 160.2  41.7  34174  289.80 0854.28
2009/04/23 16:47:04.4     -77   -164    195    182    266 205.3  52.2  34218  290.56 0854.28
2009/04/23 16:47:04.5    -136   -126    182    186    260 227.3  49.8  34222  290.61 0854.28
2009/04/23 16:47:04.6    -160    -90    156    184    241 240.7  44.8  34214  290.48 0854.28
2009/04/23 16:47:04.7    -185   -205    115    277    299 222.1  23.8  34204  290.31 0854.29
2009/04/23 16:47:04.8    -200   -200     24    284    286 225.0   4.9  34210  290.41 0854.29
2009/04/23 16:47:04.9    -229    -31    -11    232    233 262.1  -2.8  34148  289.38 0854.29
2009/04/23 16:47:05.0    -275    -38    -75    278    289 262.1 -15.2  34138  289.20 0854.29
2009/04/23 16:47:05.1     -99   -105     47    145    153 223.2  17.9  34146  289.33 0854.29
2009/04/23 16:47:05.2    -110   -244     20    268    269 204.3   4.4  34176  289.83 0854.29
2009/04/23 16:47:05.3    -244   -111    -86    269    282 245.6 -22.9  34086  288.31 0854.29
2009/04/23 16:47:05.4    -202   -124   -132    238    272 238.5 -35.8  34110  288.71 0854.29
2009/04/23 16:47:05.5     -62   -264    -54    272    278 193.3 -11.3  34100  288.56 0854.29
2009/04/23 16:47:05.6    -183   -242    -38    304    307 217.2  -7.2  34140  289.22 0854.29
2009/04/23 16:47:05.7    -332   -168   -155    373    403 243.2 -28.5  34118  288.86 0854.29
2009/04/23 16:47:05.8    -366   -197   -163    416    446 241.6 -26.9  34152  289.44 0854.29
2009/04/23 16:47:05.9    -217   -260     36    339    341 219.9   6.1  34146  289.35 0854.29
2009/04/23 16:47:06.0    -133   -258    173    291    338 207.4  33.6  34168  289.71 0854.29
2009/04/23 16:47:06.1      30    -82      4     88     89 159.5   2.9  34166  289.69 0854.29
2009/04/23 16:47:06.2     -68    -27     97     74    122 248.3  58.5  34212  290.45 0854.29
2009/04/23 16:47:06.3     -76    -54     75     94    120 234.9  42.7  34192  290.13 0854.29
2009/04/23 16:47:06.4     -46      2    105     47    115 272.6  74.0  34204  290.33 0854.29
2009/04/23 16:47:06.5    -106    -28     61    110    125 255.0  31.4  34226  290.70 0854.29
2009/04/23 16:47:06.6    -163     77     62    181    192 295.3  18.9  34234  290.82 0854.29
2009/04/23 16:47:06.7    -190    230     36    299    302 320.4   6.9  34232  290.80 0854.29
2009/04/23 16:47:06.8     -89    312    133    325    351 344.0  23.5  34216  290.52 0854.29
2009/04/23 16:47:06.9    -118    269    165    294    337 336.3  31.7  34214  290.49 0854.29
2009/04/23 16:47:07.0    -150    252    106    294    312 329.2  20.7  34212  290.46 0854.29
2009/04/23 16:47:07.1    -140    207    -18    250    251 325.9  -4.1  34252  291.12 0854.29
2009/04/23 16:47:07.2    -103    211     36    236    239 333.9   8.8  34236  290.85 0854.29
2009/04/23 16:47:07.3     -67    243    113    253    277 344.6  25.3  34250  291.10 0854.29
2009/04/23 16:47:07.4    -107    179    156    209    260 329.0  40.6  34260  291.27 0854.29
2009/04/23 16:47:07.5    -187    170    195    253    319 312.3  41.5  34264  291.33 0854.29
2009/04/23 16:47:07.6     -91    203    203    223    301 335.7  47.1  34254  291.17 0854.29
2009/04/23 16:47:07.7    -108    108    119    153    193 315.0  42.0  34264  291.33 0854.29
2009/04/23 16:47:07.8     -12    166    152    167    225 355.6  47.1  34236  290.86 0854.29
2009/04/23 16:47:07.9     112     71    140    133    193  57.5  51.6  34226  290.70 0854.29
2009/04/23 16:47:08.0     102     34    140    108    176  71.6  58.5  34208  290.40 0854.29
2009/04/23 16:47:08.1     123    122     97    174    199  45.2  31.4  34198  290.21 0854.29
2009/04/23 16:47:08.2     145    125    122    192    227  49.1  35.5  34180  289.92 0854.29
2009/04/23 16:47:08.4      74    109     45    133    141  34.3  18.9  34188  290.04 0854.29
2009/04/23 16:47:08.4      68      7     47     69     83  83.9  37.6  34198  290.21 0854.29
2009/04/23 16:47:08.5      81      0     93     82    123  89.6  54.2  34204  290.33 0854.29
2009/04/23 16:47:08.6     148    -53    144    158    213 110.0  47.5  34176  289.85 0854.29
2009/04/23 16:47:08.7     187    -17    108    188    216  95.5  32.4  34182  289.94 0854.29
2009/04/23 16:47:08.8     130    -10     61    131    144  94.8  27.1  34194  290.14 0854.29
2009/04/23 16:47:08.9     124     32    135    129    186  75.4  51.4  34216  290.52 0854.29
2009/04/23 16:47:09.0     131    -26    141    134    194 101.4  51.4  34218  290.57 0854.29
2009/04/23 16:47:09.1     143     47    127    151    197  71.8  44.5  34248  291.08 0854.29
2009/04/23 16:47:09.2      76    -39    104     86    134 117.1  56.3  34228  290.72 0854.29
2009/04/23 16:47:09.3      62      1     64     63     89  88.3  49.7  34242  290.96 0854.29
2009/04/23 16:47:09.4      -4     62     12     63     65 355.5  11.0  34250  291.11 0854.29
2009/04/23 16:47:09.5      -6     66     13     67     69 354.7  11.0  34244  290.99 0854.29
2009/04/23 16:47:09.6     -18     43      4     47     48 336.4   5.9  34238  290.89 0854.29
2009/04/23 16:47:09.7     -13     13      8     19     20 313.3  23.0  34228  290.72 0854.29
2009/04/23 16:47:09.8      21     24      6     33     34  41.4  11.1  34232  290.79 0854.29
2009/04/23 16:47:09.9      10     16    -12     20     23  32.6 -37.9  34232  290.79 0854.29
2009/04/23 16:47:10.0     -46     34    -19     58     62 306.0 -18.7  34232  290.79 0854.29
2009/04/23 16:47:10.1     -24     71    -26     75     79 341.3 -23.8  34226  290.70 0854.29
2009/04/23 16:47:10.2      -5     95     17     96     98 356.9  10.1  34222  290.62 0854.29
2009/04/23 16:47:10.3       0    108     46    109    118 359.6  24.1  34228  290.74 0854.29
2009/04/23 16:47:10.4      47     77     64     91    111  31.2  38.6  34254  291.16 0854.29
2009/04/23 16:47:10.5       0     43     89     44     99   0.0  71.9  34272  291.47 0854.29
2009/04/23 16:47:10.6      -2     44     44     45     62 356.4  50.0  34280  291.62 0854.29
2009/04/23 16:47:10.7       0     51     39     52     65 359.1  39.7  34260  291.26 0854.28
2009/04/23 16:47:10.8       7     28     15     29     32  15.1  29.3  34248  291.06 0854.28
2009/04/23 16:47:10.9      16     24     17     30     34  34.3  31.4  34246  291.03 0854.28
2009/04/23 16:47:11.0      -2      0      8      3      8 270.0  81.0  34248  291.08 0854.28
2009/04/23 16:47:11.1     -25      0     -1     26     27 270.0  -2.2  34252  291.13 0854.28
2009/04/23 16:47:11.2     -13      0    -20     14     24 270.0 -64.9  34258  291.25 0854.28
2009/04/23 16:47:11.3     116     -8     40    117    124  94.3  18.9  34278  291.57 0854.28
2009/04/23 16:47:11.4     120     -5    122    121    171  92.6  49.9  34262  291.30 0854.28
2009/04/23 16:47:11.5     102     69    134    124    182  55.8  52.2  34312  292.17 0854.28
2009/04/23 16:47:11.6     238     74    166    250    300  72.7  36.5  34260  291.27 0854.28
2009/04/23 16:47:11.7     218     59    222    226    316  74.9  49.7  34252  291.12 0854.28
2009/04/23 16:47:11.8     180     17    260    181    316  84.5  62.0  34252  291.12 0854.28
2009/04/23 16:47:11.9     257     32    237    260    351  82.9  47.0  34324  292.35 0854.28
2009/04/23 16:47:12.0     347     26    195    348    398  85.7  31.9  34334  292.53 0854.28
2009/04/23 16:47:12.1     275      0    222    276    354  89.9  43.0  34314  292.20 0854.28
2009/04/23 16:47:12.2     285    108    176    305    352  69.2  32.7  34356  292.90 0854.28
2009/04/23 16:47:12.3     206     12    143    207    251  86.5  37.8  34296  291.87 0854.28
2009/04/23 16:47:12.4     176     17    191    177    260  84.3  52.2  34282  291.65 0854.28
2009/04/23 16:47:12.5     305    109    169    324    365  70.3  29.6  34352  292.82 0854.28
2009/04/23 16:47:12.6     190    138    172    235    291  54.0  39.7  34350  292.79 0854.28
2009/04/23 16:47:12.8     273     42    187    277    334  81.2  37.3  34348  292.76 0854.28
2009/04/23 16:47:12.8     247     81    158    260    304  71.8  34.2  34334  292.52 0854.28
2009/04/23 16:47:12.9     254    173    162    308    348  55.8  30.1  34314  292.20 0854.28
2009/04/23 16:47:13.0     213    127    146    249    288  59.1  33.4  34328  292.41 0854.28
2009/04/23 16:47:13.1     254    160    214    301    369  57.8  38.8  34312  292.17 0854.28
2009/04/23 16:47:13.2     218    157    107    269    289  54.3  23.0  34278  291.58 0854.28
2009/04/23 16:47:13.3     179    148    207    233    311  50.5  46.4  34334  292.53 0854.28
2009/04/23 16:47:13.5     216    150    204    264    333  55.1  41.7  34314  292.19 0854.28
2009/04/23 16:47:13.6     157    156    188    222    290  45.1  44.8  34302  291.99 0854.28
2009/04/23 16:47:13.7     182    129    157    224    273  54.7  38.5  34260  291.27 0854.28
2009/04/23 16:47:13.8     118     85    146    146    206  54.1  50.1  34280  291.62 0854.28
2009/04/23 16:47:13.9       6    156    153    157    219   2.2  49.4  34292  291.81 0854.28
2009/04/23 16:47:14.0      29    106    102    111    150  15.6  47.9  34268  291.42 0854.28
2009/04/23 16:47:14.1      49    192    150    199    249  14.3  40.7  34244  290.99 0854.28
2009/04/23 16:47:14.2     127    356    133    379    402  19.7  19.4  34242  290.98 0854.28
2009/04/23 16:47:14.3     124    416    191    435    475  16.7  25.2  34250  291.09 0854.28
2009/04/23 16:47:14.4      56    466    114    470    484   6.9  13.7  34252  291.13 0854.28
2009/04/23 16:47:14.5     118    394    248    412    480  16.7  34.0  34274  291.50 0854.28
2009/04/23 16:47:14.6      19    392    199    393    440   2.8  29.1  34246  291.04 0854.28
2009/04/23 16:47:14.7      25    218    181    220    284   6.7  43.7  34296  291.87 0854.28
2009/04/23 16:47:14.8     177    120    198    215    292  55.8  47.7  34264  291.33 0854.28
2009/04/23 16:47:14.9     275     56    132    281    310  78.3  27.1  34298  291.90 0854.28
2009/04/23 16:47:15.0     197     93    157    219    269  64.7  39.5  34288  291.75 0854.28
2009/04/23 16:47:15.1     278     84    115    291    312  73.1  22.8  34300  291.96 0854.28
2009/04/23 16:47:15.2     311     96    122    326    348  72.8  21.5  34302  291.98 0854.28
2009/04/23 16:47:15.3     297     97    112    313    332  71.8  20.3  34304  292.01 0854.28
2009/04/23 16:47:15.4     286     86    116    299    320  73.2  22.3  34320  292.30 0854.28
2009/04/23 16:47:15.5     312     97     46    327    331  72.7   8.1  34274  291.52 0854.28
2009/04/23 16:47:15.6     341     58    123    347    368  80.2  20.3  34278  291.56 0854.28
2009/04/23 16:47:15.7     215    -25    171    217    276  96.8  42.2  34310  292.13 0854.28
2009/04/23 16:47:15.8     249     62    201    257    326  75.9  42.1  34308  292.09 0854.28
2009/04/23 16:47:15.9     185     61    229    195    300  71.6  55.4  34366  293.08 0854.28
2009/04/23 16:47:16.0     132   -105    193    169    256 128.6  54.3  34280  291.60 0854.28
2009/04/23 16:47:16.1     223   -202    219    301    372 132.2  39.7  34204  290.32 0854.28
2009/04/23 16:47:16.2     176   -340    238    383    450 152.6  34.9  34202  290.29 0854.28
2009/04/23 16:47:16.3     140   -378    225    404    462 159.6  31.4  34194  290.16 0854.28
2009/04/23 16:47:16.4     173   -323    235    367    435 151.8  35.6  34196  290.17 0854.28
2009/04/23 16:47:16.5      97   -299    167    315    356 162.0  30.2  34210  290.42 0854.28
2009/04/23 16:47:16.6     110   -236    180    261    317 155.1  37.9  34198  290.22 0854.28
2009/04/23 16:47:16.7     205   -135    189    246    310 123.5  41.6  34198  290.22 0854.28
2009/04/23 16:47:16.8     236   -116    167    264    312 116.2  35.5  34196  290.19 0854.26
2009/04/23 16:47:16.9     233   -192    149    303    337 129.5  28.1  34186  290.02 0854.26
2009/04/23 16:47:17.0     249   -320    169    406    439 142.2  24.1  34176  289.83 0854.26
2009/04/23 16:47:17.1     135   -344    156    370    401 158.5  24.2  34182  289.94 0854.26
2009/04/23 16:47:17.2      66   -338    128    345    367 168.9  21.1  34192  290.11 0854.26
2009/04/23 16:47:17.3      54   -268    120    274    299 168.4  25.2  34198  290.22 0854.26
2009/04/23 16:47:17.4      51   -252    180    258    314 168.5  38.4  34204  290.31 0854.26
2009/04/23 16:47:17.5      72   -279    124    289    314 165.5  24.8  34194  290.15 0854.26
2009/04/23 16:47:17.6      17   -162    168    163    234 173.8  50.7  34212  290.47 0854.26
2009/04/23 16:47:17.7     -35   -248    138    251    286 188.1  31.3  34200  290.24 0854.26
2009/04/23 16:47:17.8     -62   -322    184    329    376 191.0  31.5  34182  289.94 0854.26
2009/04/23 16:47:17.9     -62   -273    191    281    339 192.9  37.4  34186  290.02 0854.26
2009/04/23 16:47:18.0     128   -189    193    229    299 145.9  44.3  34158  289.53 0854.26
2009/04/23 16:47:18.1      54   -250    181    256    313 167.6  38.8  34170  289.73 0854.26
2009/04/23 16:47:18.2      63   -207    200    217    295 163.1  47.7  34156  289.51 0854.26
2009/04/23 16:47:18.3      92   -173    146    197    245 151.9  40.4  34154  289.48 0854.26
2009/04/23 16:47:18.4     154   -195    142    249    286 141.7  32.3  34156  289.51 0854.26
2009/04/23 16:47:18.5      37   -264    109    267    288 171.9  23.4  34158  289.53 0854.26
2009/04/23 16:47:18.6     -28   -350    127    352    374 184.7  20.8  34156  289.52 0854.26
2009/04/23 16:47:18.7      21   -310    133    311    338 176.0  24.6  34162  289.59 0854.26
2009/04/23 16:47:18.8      -8   -333    144    334    363 181.4  25.0  34148  289.38 0854.23
2009/04/23 16:47:18.9      73   -242    139    254    289 163.1  31.3  34144  289.29 0854.23
2009/04/23 16:47:19.0      85   -186    121    205    238 155.5  33.4  34140  289.23 0854.23
2009/04/23 16:47:19.1     116   -162    138    200    242 144.4  37.8  34140  289.23 0854.23
2009/04/23 16:47:19.2     102   -196     74    222    235 152.4  18.6  34134  289.14 0854.23
2009/04/23 16:47:19.3      59   -185     71    195    207 162.2  20.9  34130  289.06 0854.23
2009/04/23 16:47:19.4     104   -228     78    251    263 155.5  17.3  34118  288.87 0854.23
2009/04/23 16:47:19.5      96   -213     78    234    247 155.7  18.4  34112  288.76 0854.23
2009/04/23 16:47:19.6      61   -197     58    207    216 162.8  15.8  34114  288.80 0854.23
2009/04/23 16:47:19.7      41   -177     74    182    196 166.9  23.4  34116  288.84 0854.23
2009/04/23 16:47:19.8      83   -221     28    237    239 159.3   6.9  34112  288.75 0854.23
2009/04/23 16:47:19.9     119   -156     69    197    209 142.8  19.4  34108  288.69 0854.23
2009/04/23 16:47:20.0     137    -91     74    165    180 123.7  25.7  34110  288.72 0854.23
2009/04/23 16:47:20.1     128    -99    113    163    198 127.8  38.0  34116  288.84 0854.23
2009/04/23 16:47:20.2     156    -94     96    183    206 121.1  29.5  34116  288.84 0854.23
2009/04/23 16:47:20.3     184    -86    121    204    237 115.2  33.5  34124  288.96 0854.23
2009/04/23 16:47:20.4     133    -35    129    138    188 105.1  48.0  34126  288.99 0854.23
2009/04/23 16:47:20.5       8    -57     97     58    113 171.1  66.2  34136  289.18 0854.23
2009/04/23 16:47:20.6      86    -31    116     92    148 110.0  57.5  34144  289.31 0854.23
2009/04/23 16:47:20.7     125    -17    145    127    192  97.9  54.3  34138  289.19 0854.23
2009/04/23 16:47:20.8      59    -35    121     69    139 120.7  68.3  34138  289.19 0854.23
2009/04/23 16:47:20.9      77    -46    142     90    168 121.1  64.7  34134  289.13 0854.23
2009/04/23 16:47:21.0     101      0    153    102    183  90.0  63.6  34130  289.06 0854.23
2009/04/23 16:47:21.1     181    -20    156    183    240  96.4  44.8  34124  288.97 0854.23
2009/04/23 16:47:21.2     196     -5     86    197    214  91.7  25.1  34122  288.92 0854.23
2009/04/23 16:47:21.3     194     -9     91    195    215  92.8  27.1  34126  288.99 0854.23
2009/04/23 16:47:21.4     196      0     93    197    217  90.0  27.2  34134  289.13 0854.23
2009/04/23 16:47:21.5     195     16     85    196    213  85.2  24.9  34134  289.13 0854.23
2009/04/23 16:47:21.6     195     25     98    197    220  82.5  28.2  34152  289.45 0854.23
2009/04/23 16:47:21.7     178     49     94    185    207  74.5  29.1  34210  290.43 0854.23
2009/04/23 16:47:21.8     193     59     98    202    224  72.9  27.3  34286  291.71 0854.24
2009/04/23 16:47:21.9     221    123    115    253    277  60.9  26.2  34318  292.24 0854.24
2009/04/23 16:47:22.0     179    138     65    227    237  52.3  16.0  34320  292.30 0854.24
2009/04/23 16:47:22.1     175    231     85    291    304  37.2  16.4  34344  292.70 0854.24
2009/04/23 16:47:22.2     159    308     -4    347    348  27.4  -0.7  34298  291.91 0854.24
2009/04/23 16:47:22.3     185    293     19    347    348  32.4   3.2  34324  292.37 0854.24
2009/04/23 16:47:22.4     268    224     84    350    360  50.2  13.5  34358  292.94 0854.24
2009/04/23 16:47:22.5     302    185     89    355    367  58.5  14.2  34310  292.12 0854.24
2009/04/23 16:47:22.6     167    106     70    198    211  57.6  19.6  34330  292.46 0854.24
2009/04/23 16:47:22.7     207     42     10    212    213  78.5   2.8  34276  291.55 0854.24
2009/04/23 16:47:22.8     159    157     98    224    244  45.3  25.2  34256  291.19 0854.24
2009/04/23 16:47:22.9     141    106    118    177    212  52.9  36.5  34288  291.76 0854.24
2009/04/23 16:47:23.0      71    228     41    240    244  17.4   9.9  34324  292.35 0854.24
2009/04/23 16:47:23.1      16    249     -9    250    251   3.8  -2.2  34310  292.13 0854.24
2009/04/23 16:47:23.2      19    252    -18    253    254   4.5  -4.1  34290  291.77 0854.24
2009/04/23 16:47:23.3       0    239    -42    240    244   0.0 -10.1  34284  291.68 0854.24
2009/04/23 16:47:23.4      63    206     20    216    218  17.0   5.4  34258  291.25 0854.24
2009/04/23 16:47:23.5     113    183    -28    216    218  31.6  -7.5  34274  291.52 0854.24
2009/04/23 16:47:23.6     125    186     28    225    227  33.8   7.1  34238  290.89 0854.24
2009/04/23 16:47:23.7      17    229     11    230    231   4.5   2.9  34226  290.69 0854.24
2009/04/23 16:47:23.8      30     88     33     94    100  19.2  19.4  34260  291.28 0854.23
2009/04/23 16:47:23.9     169    149     27    226    228  48.7   6.9  34260  291.26 0854.23
2009/04/23 16:47:24.0     153    298    -57    336    341  27.2  -9.7  34148  289.37 0854.23
2009/04/23 16:47:24.1     171    359    -73    398    405  25.5 -10.5  34118  288.87 0854.23
2009/04/23 16:47:24.2      88    356     -5    367    368  13.9  -0.9  34104  288.64 0854.23
2009/04/23 16:47:24.3      62    315     44    322    326  11.1   7.9  34122  288.92 0854.23
2009/04/23 16:47:24.4     121    288     58    313    319  22.9  10.6  34130  289.07 0854.23
2009/04/23 16:47:24.5     119    349     11    370    371  18.9   1.8  34102  288.60 0854.23
2009/04/23 16:47:24.6     130    297     16    325    326  23.6   2.9  34186  290.00 0854.23
2009/04/23 16:47:24.7     143    261     81    298    309  28.9  15.3  34236  290.87 0854.23
2009/04/23 16:47:24.8     156    229    169    278    325  34.3  34.2  34246  291.02 0854.23
2009/04/23 16:47:24.9     304    144     85    337    348  64.7  14.2  34248  291.05 0854.23
2009/04/23 16:47:25.0     250    159      3    297    298  57.5   0.7  34240  290.92 0854.23
2009/04/23 16:47:25.1     232    250     34    342    344  42.9   5.8  34270  291.45 0854.23
2009/04/23 16:47:25.2     304    382    152    489    513  38.5  17.3  34218  290.57 0854.23
2009/04/23 16:47:25.3     267    390    120    473    489  34.4  14.3  34212  290.45 0854.23
2009/04/23 16:47:25.4     196    367     17    417    418  28.1   2.4  34202  290.28 0854.23
2009/04/23 16:47:25.5      94    300     28    315    317  17.4   5.1  34220  290.59 0854.23
2009/04/23 16:47:25.6      25    268     24    270    272   5.3   5.2  34232  290.78 0854.23
2009/04/23 16:47:25.7     226    224    147    319    351  45.2  26.4  34314  292.20 0854.23
2009/04/23 16:47:25.8     326    231     78    400    408  54.7  11.1  34262  291.31 0854.22
2009/04/23 16:47:25.9     215    270     27    346    348  38.5   4.5  34162  289.60 0854.22
2009/04/23 16:47:26.0     315    203     88    376    387  57.2  13.2  34324  292.36 0854.22
2009/04/23 16:47:26.1     395    157    161    426    455  68.3  21.7  34306  292.04 0854.22
2009/04/23 16:47:26.2     422    232     88    482    490  61.1  10.4  34166  289.66 0854.22
2009/04/23 16:47:26.3     431    246     71    497    503  60.3   8.2  34172  289.76 0854.22
2009/04/23 16:47:26.4     379    180     93    420    431  64.6  12.5  34290  291.79 0854.22
2009/04/23 16:47:26.5     402    232     17    465    466  60.0   2.1  34214  290.49 0854.22
2009/04/23 16:47:26.6     466    221     41    516    518  64.6   4.6  34288  291.73 0854.22
2009/04/23 16:47:26.7     496    119     29    511    512  76.5   3.3  34308  292.07 0854.22
2009/04/23 16:47:26.8     422    222    198    478    517  62.2  23.8  34318  292.24 0854.22
2009/04/23 16:47:26.9     393    176    163    431    460  65.9  21.7  34272  291.46 0854.22
2009/04/23 16:47:27.0     460     78     48    467    470  80.3   5.9  34172  289.76 0854.22
2009/04/23 16:47:27.1     386    122      6    405    406  72.4   0.9  34158  289.55 0854.22
2009/04/23 16:47:27.2     265     55     79    271    283  78.1  16.3  34208  290.39 0854.22
2009/04/23 16:47:27.3     276     75      4    287    288  74.7   0.8  34176  289.83 0854.22
2009/04/23 16:47:27.4     304     61      9    311    312  78.5   1.7  34176  289.85 0854.22
2009/04/23 16:47:27.5     462      2     57    463    467  89.6   7.1  34202  290.27 0854.22
2009/04/23 16:47:27.6     421      5     43    422    425  89.2   5.9  34208  290.39 0854.22
2009/04/23 16:47:27.7     257    158    145    302    335  58.4  27.3  34156  289.49 0854.22
2009/04/23 16:47:27.8     273     80    147    285    320  73.6  29.5  34148  289.36 0854.23
2009/04/23 16:47:27.9     253      1     31    254    256  89.6   7.1  34138  289.19 0854.23
2009/04/23 16:47:28.0     223     89     90    241    257  68.2  21.5  34138  289.19 0854.23
2009/04/23 16:47:28.1     279     47     89    284    298  80.3  17.4  34140  289.24 0854.23
2009/04/23 16:47:28.2     223     81     79    238    251  70.0  18.5  34156  289.51 0854.23
2009/04/23 16:47:28.3     159    111    157    195    250  55.1  43.3  34172  289.78 0854.23
2009/04/23 16:47:28.4      32    175    160    178    239  10.5  46.9  34188  290.04 0854.23
2009/04/23 16:47:28.5      16    188    151    189    241   5.1  42.7  34194  290.14 0854.23
2009/04/23 16:47:28.6       0    266    237    267    357   0.0  46.3  34202  290.28 0854.23
2009/04/23 16:47:28.7       5    343    175    344    385   0.9  29.2  34162  289.60 0854.23
2009/04/23 16:47:28.8      73    350    138    358    383  11.9  22.3  34136  289.18 0854.23
2009/04/23 16:47:28.9      25    358    139    359    384   4.1  22.3  34136  289.15 0854.23
2009/04/23 16:47:29.0      10    326     89    327    340   1.8  15.3  34142  289.25 0854.23
2009/04/23 16:47:29.1      41    291    101    295    312   8.1  18.9  34154  289.46 0854.23
2009/04/23 16:47:29.2     -10    292    -19    293    294 358.0  -3.7  34136  289.17 0854.23
2009/04/23 16:47:29.4     109    318     25    337    338  19.0   4.3  34162  289.62 0854.23
2009/04/23 16:47:29.4      41    251     45    255    260   9.3  10.1  34160  289.56 0854.23
2009/04/23 16:47:29.5     169    241     58    295    301  35.0  11.1  34254  291.16 0854.23
2009/04/23 16:47:29.6      63    252      3    260    261  14.2   0.8  34220  290.59 0854.23
2009/04/23 16:47:29.7     -32    233      6    236    237 352.2   1.6  34152  289.42 0854.23
2009/04/23 16:47:29.8     -84    256     38    270    273 341.7   8.0  34164  289.64 0854.22
2009/04/23 16:47:29.9      16    205    173    206    269   4.5  44.1  34210  290.41 0854.22
2009/04/23 16:47:30.0     -16    211    152    212    260 355.5  39.3  34256  291.19 0854.22
2009/04/23 16:47:30.1     -76    239      7    251    252 342.2   1.8  34228  290.73 0854.22
2009/04/23 16:47:30.2    -118    248     39    275    278 334.5   8.2  34244  290.99 0854.22
2009/04/23 16:47:30.3     -62    121    131    137    189 332.9  49.0  34236  290.87 0854.22
2009/04/23 16:47:30.4     -11    109    166    110    199 354.2  63.4  34244  290.99 0854.22
2009/04/23 16:47:30.5      36     74     97     83    127  26.3  54.8  34248  291.06 0854.22
2009/04/23 16:47:30.6      86    119    118    148    189  36.0  43.0  34234  290.84 0854.22
2009/04/23 16:47:30.7      89    179    105    201    226  26.5  29.8  34220  290.58 0854.22
2009/04/23 16:47:30.8      64    189     81    200    215  18.7  23.1  34234  290.82 0854.22
2009/04/23 16:47:30.9      20    148    121    150    192   8.0  43.5  34246  291.03 0854.22
2009/04/23 16:47:31.0      53    134    137    145    199  21.9  48.5  34250  291.11 0854.22
2009/04/23 16:47:31.1     178    159     43    240    244  48.2  10.3  34278  291.58 0854.22
2009/04/23 16:47:31.2     118    153     41    194    199  37.8  12.0  34254  291.16 0854.22
2009/04/23 16:47:31.3      89    152     18    177    178  30.3   5.9  34252  291.15 0854.22
2009/04/23 16:47:31.4      44     92     87    103    134  25.9  44.3  34250  291.09 0854.22
2009/04/23 16:47:31.5     -15     88    107     90    139 350.2  56.3  34262  291.30 0854.22
2009/04/23 16:47:31.6     -10    105     90    106    139 354.2  44.3  34264  291.35 0854.22
2009/04/23 16:47:31.7      -2    195    120    196    229 359.3  34.8  34280  291.60 0854.22
2009/04/23 16:47:31.8       8    217    124    218    250   2.2  32.4  34290  291.78 0854.23
2009/04/23 16:47:31.9      61    273    107    280    299  12.7  22.0  34290  291.77 0854.23
2009/04/23 16:47:32.0      -6    321    110    322    341 358.9  18.9  34270  291.44 0854.23
2009/04/23 16:47:32.1     -44    283    -14    287    288 351.1  -2.8  34234  290.82 0854.23
2009/04/23 16:47:32.2       9    206    -11    207    208   2.5  -3.2  34232  290.81 0854.23
2009/04/23 16:47:32.3     -52    238     83    244    259 347.6  18.9  34210  290.41 0854.23
2009/04/23 16:47:32.4     -45    235      3    240    241 349.1   0.8  34264  291.34 0854.23
2009/04/23 16:47:32.5     100    176      7    203    204  29.6   2.1  34282  291.64 0854.23
2009/04/23 16:47:32.6     211    222     27    307    309  43.4   5.2  34310  292.11 0854.23
2009/04/23 16:47:32.7     278    276    111    392    408  45.2  15.9  34164  289.65 0854.23
2009/04/23 16:47:32.8     304    239    124    387    407  51.8  17.8  34174  289.81 0854.23
2009/04/23 16:47:32.9     268    224     86    350    361  50.1  13.9  34194  290.15 0854.23
2009/04/23 16:47:33.0     249    158     80    296    307  57.5  15.3  34162  289.61 0854.23
2009/04/23 16:47:33.1     267    271     39    381    384  44.6   6.0  34194  290.16 0854.23
2009/04/23 16:47:33.2     199    257    138    326    354  37.8  24.5  34214  290.50 0854.23
2009/04/23 16:47:33.3     170    321    147    364    392  27.9  23.2  34226  290.69 0854.23
2009/04/23 16:47:33.4     249    351    124    431    449  35.4  16.1  34240  290.94 0854.23
2009/04/23 16:47:33.5     275    287   -109    398    413  43.8 -15.4  34242  290.95 0854.23
2009/04/23 16:47:33.6     406    136    -59    429    434  71.4  -7.9  34214  290.48 0854.23
2009/04/23 16:47:33.7     345    118     -5    365    366  71.0  -0.9  34214  290.50 0854.23
2009/04/23 16:47:33.8     351     88    -61    362    368  75.9  -9.6  34234  290.84 0854.23
2009/04/23 16:47:33.9     329     15     25    330    331  87.3   4.4  34300  291.95 0854.23
2009/04/23 16:47:34.0     294    -31     89    296    310  96.1  16.7  34288  291.73 0854.23
2009/04/23 16:47:34.1     374   -125     -9    395    396 108.6  -1.4  34278  291.59 0854.23
2009/04/23 16:47:34.2     351   -103    -43    366    369 106.4  -6.7  34238  290.91 0854.23
2009/04/23 16:47:34.3     326   -145    -10    357    358 114.0  -1.6  34260  291.28 0854.23
2009/04/23 16:47:34.4     355   -141    -34    383    385 111.7  -5.1  34242  290.98 0854.23
2009/04/23 16:47:34.5     363   -180     24    406    407 116.4   3.5  34252  291.12 0854.23
2009/04/23 16:47:34.6     313   -212     28    379    380 124.1   4.2  34254  291.17 0854.23
2009/04/23 16:47:34.7     265   -168     79    314    324 122.4  14.2  34248  291.07 0854.23
2009/04/23 16:47:34.8     297   -124     26    323    325 112.7   4.7  34244  291.00 0854.23
2009/04/23 16:47:34.9     370   -166    111    406    421 114.2  15.3  34248  291.07 0854.23
2009/04/23 16:47:35.0     446   -153    147    472    495 109.0  17.3  34246  291.02 0854.23
2009/04/23 16:47:35.1     -27   -401     70    402    409 183.9   9.9  34252  291.14 0854.23
2009/04/23 16:47:35.2     -32   -400    141    402    427 184.6  19.4  34246  291.02 0854.23
2009/04/23 16:47:35.3       4   -342     76    343    352 179.2  12.6  34244  291.01 0854.23
2009/04/23 16:47:35.4      -6   -342     27    343    345 181.2   4.6  34234  290.84 0854.23
2009/04/23 16:47:35.5     124   -321     67    345    352 158.8  11.1  34242  290.96 0854.23
2009/04/23 16:47:35.6     150   -184      0    238    239 140.8   0.0  34214  290.49 0854.23
2009/04/23 16:47:35.7      49   -161      5    169    170 163.1   1.8  34214  290.50 0854.23
2009/04/23 16:47:35.8      93   -217    -34    237    240 156.8  -8.3  34208  290.37 0854.23
2009/04/23 16:47:35.9     142   -241    -31    280    282 149.5  -6.5  34190  290.09 0854.23
2009/04/23 16:47:36.0      81   -264    -35    277    280 163.0  -7.3  34232  290.78 0854.23
2009/04/23 16:47:36.1      68   -213     30    224    227 162.2   7.8  34244  290.99 0854.23
2009/04/23 16:47:36.2     104   -219      8    243    244 154.5   2.1  34262  291.31 0854.23
2009/04/23 16:47:36.3     126   -201    -65    238    247 147.9 -15.4  34244  291.00 0854.23
2009/04/23 16:47:36.4      66   -245    -65    254    263 164.9 -14.5  34254  291.17 0854.23
2009/04/23 16:47:36.5       2   -333    -22    334    335 179.5  -3.9  34268  291.42 0854.23
2009/04/23 16:47:36.6     120   -299    -91    323    335 158.1 -20.3  34264  291.35 0854.23
2009/04/23 16:47:36.7      69   -265    -71    274    284 165.3 -14.5  34268  291.39 0854.23
2009/04/23 16:47:36.8      78   -261    -32    273    275 163.3  -6.9  34280  291.60 0854.23
2009/04/23 16:47:36.9      57   -257     37    264    267 167.5   8.0  34286  291.72 0854.23
2009/04/23 16:47:37.0      70   -335    108    343    360 168.1  17.5  34284  291.69 0854.23
2009/04/23 16:47:37.1      41   -378    129    381    403 173.7  18.8  34272  291.47 0854.23
2009/04/23 16:47:37.2     -55   -468    211    472    517 186.7  25.7  34280  291.61 0854.23
2009/04/23 16:47:37.3     -82   -420    164    429    459 191.1  22.0  34278  291.57 0854.23
2009/04/23 16:47:37.4     -75   -435    125    442    460 189.8  15.8  34260  291.28 0854.23
2009/04/23 16:47:37.5     -45   -492     97    495    505 185.3  11.1  34268  291.42 0854.23
2009/04/23 16:47:37.6       1   -576     69    577    582 179.9   6.9  34260  291.26 0854.23
2009/04/23 16:47:37.7      -6   -532    125    533    548 180.7  13.2  34258  291.25 0854.23
2009/04/23 16:47:37.9     -19   -549    140    550    568 182.0  14.3  34226  290.70 0854.22
2009/04/23 16:47:37.9     -48   -589    123    592    605 184.7  11.8  34220  290.59 0854.22
2009/04/23 16:47:38.0     -42   -589    167    591    615 184.1  15.8  34238  290.88 0854.22
2009/04/23 16:47:38.1       3   -590    215    591    628 179.6  21.0  34240  290.93 0854.22
2009/04/23 16:47:38.2      28   -615    192    616    646 177.3  17.3  34252  291.13 0854.22
2009/04/23 16:47:38.3      55   -655    202    658    689 175.1  17.1  34248  291.07 0854.22
2009/04/23 16:47:38.4     255   -637    177    687    710 158.2  14.5  34238  290.90 0854.22
2009/04/23 16:47:38.5     260   -612    212    666    699 157.0  17.7  34228  290.72 0854.22
2009/04/23 16:47:38.6     110   -537    256    549    605 168.4  27.0  34206  290.36 0854.22
2009/04/23 16:47:38.7      98   -421    365    433    566 166.9  44.3  34244  290.99 0854.22
2009/04/23 16:47:38.8     116   -454    308    469    561 165.6  36.5  34220  290.58 0854.22
2009/04/23 16:47:38.9     124   -475    344    491    599 165.3  38.5  34180  289.92 0854.22
2009/04/23 16:47:39.0     -36   -412    338    414    534 185.1  43.5  34166  289.67 0854.22
2009/04/23 16:47:39.1    -137   -428    364    450    578 197.8  43.1  34146  289.33 0854.22
2009/04/23 16:47:39.2    -196   -480    176    519    549 202.2  18.8  34132  289.11 0854.22
2009/04/23 16:47:39.3    -230   -487     96    539    548 205.3  10.1  34138  289.21 0854.22
2009/04/23 16:47:39.4    -142   -472    -23    493    494 196.8  -2.7  34148  289.37 0854.22
2009/04/23 16:47:39.5     -19   -430    -55    431    435 182.6  -7.3  34160  289.56 0854.22
2009/04/23 16:47:39.6     199   -331    -77    387    395 149.0 -11.3  34168  289.72 0854.22
2009/04/23 16:47:39.7     238   -237     54    337    342 134.9   9.2  34174  289.81 0854.22
2009/04/23 16:47:39.8     136   -217     -1    257    258 147.9  -0.3  34174  289.81 0854.22
2009/04/23 16:47:39.9     147    -39    -44    153    159 105.0 -20.7  34166  289.67 0854.22
2009/04/23 16:47:40.0      54    -58     45     80     91 136.8  31.9  34180  289.91 0854.22
2009/04/23 16:47:40.1       1      0    146      2    146  90.0  90.0  34190  290.08 0854.22
2009/04/23 16:47:40.2      25    -42    115     50    125 149.3  75.0  34192  290.13 0854.22
2009/04/23 16:47:40.3    -149   -110    212    186    282 233.4  54.2  34174  289.80 0854.22
2009/04/23 16:47:40.4     103     -6    175    104    203  93.5  66.7  34162  289.62 0854.22
2009/04/23 16:47:40.5     198    -65    287    209    355 108.2  60.5  34170  289.73 0854.22
2009/04/23 16:47:40.6     184     25    218    186    286  82.1  55.4  34150  289.39 0854.22
2009/04/23 16:47:40.7     201    -80     39    217    221 111.7  10.3  34146  289.33 0854.22
2009/04/23 16:47:40.8     305   -151     77    341    350 116.4  12.8  34154  289.47 0854.22
2009/04/23 16:47:41.0     181   -109    164    212    268 121.1  41.7  34154  289.46 0854.22
2009/04/23 16:47:41.0      99   -289    253    306    397 161.1  43.7  34156  289.52 0854.22
2009/04/23 16:47:41.1      76   -167    162    184    245 155.5  45.8  34156  289.50 0854.22
2009/04/23 16:47:41.3      74    -74    144    106    178 135.0  60.3  34164  289.65 0854.22
2009/04/23 16:47:41.4     135    -44    168    143    220 108.2  55.4  34164  289.65 0854.22
2009/04/23 16:47:41.5     -24     96    -12    100    101 345.7  -7.3  34202  290.30 0854.22
2009/04/23 16:47:41.6     110     41   -138    118    181  69.2 -59.4  34252  291.13 0854.22
2009/04/23 16:47:41.7    -148   -148   -191    210    283 225.0 -51.4  34178  289.86 0854.22
2009/04/23 16:47:41.8    -207     55   -220    215    307 285.1 -55.1  34204  290.32 0854.22
2009/04/23 16:47:41.9      99    248   -214    268    342  21.9 -47.3  34264  291.34 0854.22
2009/04/23 16:47:42.0    -295   -276     66    405    411 226.9   9.3  34168  289.70 0854.22
2009/04/23 16:47:42.1    -515   -350   -119    623    635 235.8 -10.8  34124  288.96 0854.22
2009/04/23 16:47:42.2    -129   -356    155    379    409 199.9  23.5  34120  288.88 0854.22
2009/04/23 16:47:42.3    -486   -486   -199    688    717 225.0 -16.2  34088  288.35 0854.22
2009/04/23 16:47:42.4    -378   -391   -156    544    565 224.0 -20.8  34106  288.67 0854.22
2009/04/23 16:47:42.5    -139   -359    -77    386    394 201.2 -11.3  34116  288.81 0854.22
2009/04/23 16:47:42.6      23   -261    166    263    311 174.9  35.5  34120  288.90 0854.22
2009/04/23 16:47:42.7      13    -96    184     97    208 172.0  70.4  34134  289.14 0854.22
2009/04/23 16:47:42.8    -112      3     32    113    118 271.7  15.8  34178  289.89 0854.22
2009/04/23 16:47:42.9    -273    167     62    321    328 301.4  11.0  34164  289.63 0854.22
2009/04/23 16:47:43.0    -267    206    135    338    363 307.6  23.0  34184  289.99 0854.22
2009/04/23 16:47:43.1    -242    324    -53    405    409 323.2  -7.6  34156  289.51 0854.22
2009/04/23 16:47:43.2    -234    217     62    320    326 312.9  11.0  34160  289.58 0854.22
2009/04/23 16:47:43.3    -207     20     38    209    213 275.7  10.3  34224  290.65 0854.22
2009/04/23 16:47:43.4    -210     53    -26    217    219 284.4  -6.9  34188  290.06 0854.22
2009/04/23 16:47:43.5    -250     71     16    260    261 285.9   3.6  34188  290.03 0854.22
2009/04/23 16:47:43.6    -332    207     51    392    396 302.0   7.5  34222  290.64 0854.22
2009/04/23 16:47:43.7    -207    230    -27    310    312 318.1  -5.1  34238  290.90 0854.22
2009/04/23 16:47:43.8    -241    153    -26    286    288 302.4  -5.2  34224  290.66 0854.22
2009/04/23 16:47:43.9    -249    208    -18    325    326 309.8  -3.2  34190  290.09 0854.22
2009/04/23 16:47:44.0    -258    258    -10    365    366 315.0  -1.6  34196  290.18 0854.22
2009/04/23 16:47:44.1    -246    266     25    363    364 317.2   4.0  34218  290.54 0854.22
2009/04/23 16:47:44.2    -278    202    -48    344    348 306.0  -8.0  34204  290.32 0854.22
2009/04/23 16:47:44.3    -255    328     -1    416    417 322.2  -0.3  34198  290.22 0854.22
2009/04/23 16:47:44.4    -218    308    -80    378    387 324.6 -12.0  34242  290.96 0854.22
2009/04/23 16:47:44.5    -242    429   -175    493    524 330.6 -19.5  34248  291.05 0854.22
2009/04/23 16:47:44.6    -360    388   -160    530    554 317.2 -16.8  34184  289.99 0854.22
2009/04/23 16:47:44.7    -328    424    -92    537    546 322.3  -9.8  34184  289.97 0854.22
2009/04/23 16:47:44.8    -273    336     93    434    445 320.9  12.2  34152  289.44 0854.22
2009/04/23 16:47:44.9    -364    212    143    422    446 300.3  18.8  34148  289.38 0854.23
2009/04/23 16:47:45.0    -521    146    -93    542    551 285.7  -9.8  34172  289.79 0854.23
2009/04/23 16:47:45.1    -242    191    163    309    349 308.4  30.1  34168  289.72 0854.23
2009/04/23 16:47:45.2    -229    104    190    252    315 294.6  40.8  34170  289.73 0854.23
2009/04/23 16:47:45.3    -369    -31     23    371    372 265.1   3.6  34168  289.72 0854.23
2009/04/23 16:47:45.4     -34   -169     98    173    198 191.5  31.9  34186  290.02 0854.23
2009/04/23 16:47:45.5     -69   -125    171    144    223 209.0  56.1  34192  290.13 0854.23
2009/04/23 16:47:45.6    -120   -236    259    265    370 207.0  49.7  34184  289.99 0854.23
2009/04/23 16:47:45.7     -45   -224    227    229    322 191.5  50.0  34196  290.19 0854.23
2009/04/23 16:47:45.8     -93   -292    312    307    437 197.8  50.4  34198  290.20 0854.23
2009/04/23 16:47:45.9    -117   -464    235    479    533 194.2  28.1  34178  289.89 0854.23
2009/04/23 16:47:46.0    -161   -545    232    569    614 196.5  23.4  34184  289.98 0854.23
2009/04/23 16:47:46.1    -148   -552    260    572    628 195.1  26.0  34170  289.73 0854.23
2009/04/23 16:47:46.2    -200   -503    148    542    562 201.7  15.3  34172  289.77 0854.23
2009/04/23 16:47:46.3    -199   -569    391    603    718 199.3  36.0  34160  289.58 0854.23
2009/04/23 16:47:46.4    -398   -542    140    673    688 216.3  11.8  34196  290.19 0854.23
2009/04/23 16:47:46.5    -154   -394    278    424    507 201.4  36.5  34182  289.95 0854.23
2009/04/23 16:47:46.6    -231   -295     46    375    378 218.1   7.1  34182  289.93 0854.23
2009/04/23 16:47:46.7    -217   -505    171    550    576 203.3  17.3  34170  289.75 0854.23
2009/04/23 16:47:46.8    -229   -504    296    554    628 204.5  30.5  34164  289.64 0854.23
2009/04/23 16:47:46.9    -158   -509    319    534    622 197.3  33.5  34156  289.52 0854.24
2009/04/23 16:47:47.0    -316   -591    415    671    788 208.1  34.6  34154  289.46 0854.24
2009/04/23 16:47:47.1    -399   -568    257    695    740 215.1  21.3  34150  289.40 0854.24
2009/04/23 16:47:47.2    -396   -549     51    678    680 215.8   4.3  34150  289.39 0854.24
2009/04/23 16:47:47.3    -532   -499   -131    730    742 226.9 -10.2  34164  289.65 0854.24
2009/04/23 16:47:47.4    -464   -441   -116    641    652 226.4 -10.3  34158  289.53 0854.24
2009/04/23 16:47:47.5    -516   -405   -223    657    695 231.9 -18.8  34164  289.65 0854.24
2009/04/23 16:47:47.6    -349   -368     63    508    512 223.4   7.1  34164  289.64 0854.24
2009/04/23 16:47:47.7    -667   -312    -35    737    738 245.0  -2.8  34150  289.40 0854.24
2009/04/23 16:47:47.8    -602   -383    -92    714    720 237.5  -7.4  34126  289.00 0854.24
2009/04/23 16:47:47.9    -420   -393   -170    576    601 226.9 -16.5  34144  289.29 0854.24
2009/04/23 16:47:48.0    -374   -474   -115    605    616 218.3 -10.8  34158  289.54 0854.24
2009/04/23 16:47:48.1    -330   -398   -186    518    551 219.6 -19.8  34164  289.63 0854.24
2009/04/23 16:47:48.2    -242   -199   -125    314    337 230.5 -27.3  34168  289.72 0854.24
2009/04/23 16:47:48.3    -353   -249   -134    433    453 234.8 -22.1  34158  289.53 0854.24
2009/04/23 16:47:48.4    -475   -286   -172    555    581 239.0 -22.2  34156  289.49 0854.24
2009/04/23 16:47:48.5    -445   -269   -164    521    547 238.8 -17.5  34162  289.62 0854.24
2009/04/23 16:47:48.6    -442   -277    -11    522    523 237.9  -1.3  34162  289.60 0854.24
2009/04/23 16:47:48.7    -354   -267    -59    444    448 233.0  -7.6  34164  289.63 0854.24
2009/04/23 16:47:48.8    -257   -174    113    311    330 235.9  20.7  34170  289.75 0854.24
2009/04/23 16:47:48.9    -166   -207    131    266    296 218.7  28.0  34172  289.78 0854.26
2009/04/23 16:47:49.0     -15   -350    115    351    370 182.5  18.2  34150  289.40 0854.26
2009/04/23 16:47:49.1      85   -401    164    411    442 168.0  23.0  34126  289.00 0854.26
2009/04/23 16:47:49.2      13   -441    172    442    474 178.3  22.4  34116  288.83 0854.26
2009/04/23 16:47:49.3       7   -365    190    366    412 178.9  29.5  34120  288.89 0854.26
2009/04/23 16:47:49.4     -62   -462     65    467    472 187.7   8.0  34120  288.90 0854.26
2009/04/23 16:47:49.5      16   -315    213    316    381 177.1  37.2  34122  288.93 0854.26
2009/04/23 16:47:49.6     -39   -207    149    211    258 190.9  38.8  34126  289.00 0854.26
2009/04/23 16:47:49.7     134     18    207    136    247  82.1  63.6  34148  289.38 0854.26
2009/04/23 16:47:49.8      74   -116    133    138    191 147.4  49.0  34156  289.50 0854.26
2009/04/23 16:47:49.9     -16   -217    115    218    246 184.4  29.8  34136  289.15 0854.26
2009/04/23 16:47:50.0     -31   -235    106    238    260 187.6  25.7  34140  289.22 0854.26
2009/04/23 16:47:50.1    -252    -19    128    253    283 265.6  29.1  34134  289.14 0854.26
2009/04/23 16:47:50.2    -246    -16    190    247    311 266.1  41.6  34142  289.27 0854.26
2009/04/23 16:47:50.3    -347    -63    211    353    411 259.7  33.6  34146  289.33 0854.26
2009/04/23 16:47:50.4    -452      7     82    453    461 270.9  10.3  34132  289.11 0854.26
2009/04/23 16:47:50.5      14    191      9    192    193   4.5   2.9  34150  289.41 0854.26
2009/04/23 16:47:50.6      64    336    153    343    375  10.9  25.7  34156  289.52 0854.26
2009/04/23 16:47:50.7     130    233    173    268    318  29.2  35.9  34176  289.83 0854.26
2009/04/23 16:47:50.8      13    307    156    308    345   2.5  28.9  34148  289.38 0854.26
2009/04/23 16:47:50.9      68    298    128    306    331  12.9  23.9  34146  289.32 0854.26
2009/04/23 16:47:51.0    -115    364    109    382    398 342.4  16.0  34136  289.18 0854.26
2009/04/23 16:47:51.1    -138    396     55    420    424 340.8   7.6  34138  289.21 0854.26
2009/04/23 16:47:51.2    -195    296     21    355    356 326.6   3.5  34132  289.11 0854.26
2009/04/23 16:47:51.3    -102    379    -30    393    395 344.9  -4.4  34122  288.94 0854.26
2009/04/23 16:47:51.4      69    539   -186    544    576   7.3 -18.9  34136  289.16 0854.26
2009/04/23 16:47:51.5    -116    123   -296    170    341 316.8 -72.0  34122  288.92 0854.26
2009/04/23 16:47:51.6     -86    -80   -248    118    274 227.3 -77.2  34138  289.19 0854.26
2009/04/23 16:47:51.7    -280   -235   -241    366    438 230.0 -40.9  34128  289.04 0854.26
2009/04/23 16:47:51.8    -207   -106    -41    233    237 242.9 -10.1  34136  289.15 0854.26
2009/04/23 16:47:51.9    -277   -229     94    360    373 230.4  14.7  34138  289.20 0854.26
2009/04/23 16:47:52.0      55   -187    230    196    302 163.5  55.3  34142  289.25 0854.26
2009/04/23 16:47:52.1      -7    -50    282     51    286 188.9  90.0  34190  290.07 0854.26
2009/04/23 16:47:52.2    -107   -366    177    382    421 196.4  26.6  34188  290.04 0854.26
2009/04/23 16:47:52.3    -166   -423     42    455    458 201.4   5.3  34164  289.65 0854.26
2009/04/23 16:47:52.4    -507    -53   -342    510    614 263.9 -41.4  34138  289.19 0854.26
2009/04/23 16:47:52.5    -430    148   -237    456    513 289.1 -34.0  34134  289.13 0854.26
2009/04/23 16:47:52.6    -291   -130     27    319    321 245.8   4.9  34140  289.22 0854.26
2009/04/23 16:47:52.7    -355   -226     60    421    426 237.5   8.2  34146  289.33 0854.26
2009/04/23 16:47:52.8    -272   -207    119    343    364 232.7  19.2  34142  289.25 0854.26
2009/04/23 16:47:52.9    -277   -271    144    388    413 225.6  21.4  34154  289.46 0854.26
2009/04/23 16:47:53.0    -236   -105     32    259    262 246.0   7.1  34152  289.42 0854.26
2009/04/23 16:47:53.1    -282   -155     52    322    327 241.1   9.2  34172  289.76 0854.26
2009/04/23 16:47:53.2    -213   -422    168    473    503 206.8  19.6  34222  290.62 0854.26
2009/04/23 16:47:53.3    -549   -326   -105    639    648 239.3  -9.4  34166  289.67 0854.26
2009/04/23 16:47:53.4    -446   -272   -161    523    548 238.6 -17.2  34146  289.33 0854.26
2009/04/23 16:47:53.5    -292   -468    -44    552    554 212.0  -4.6  34164  289.63 0854.26
2009/04/23 16:47:53.6    -242   -513     90    568    576 205.3   9.0  34188  290.03 0854.26
2009/04/23 16:47:53.7    -272   -573     60    635    638 205.4   5.4  34180  289.92 0854.26
2009/04/23 16:47:53.8    -137   -477     58    497    501 196.0   6.7  34152  289.44 0854.26
2009/04/23 16:47:53.9     -97   -360    -57    374    379 195.2  -8.7  34162  289.59 0854.26
2009/04/23 16:47:54.0     -90   -198    -37    218    222 204.5  -9.6  34172  289.77 0854.26
2009/04/23 16:47:54.1     -22   -215    -75    217    230 186.0 -19.1  34156  289.52 0854.26
2009/04/23 16:47:54.2    -286   -278    117    400    417 225.8  16.3  34148  289.36 0854.26
2009/04/23 16:47:54.3    -326   -445    -21    552    553 216.2  -2.2  34150  289.41 0854.26
2009/04/23 16:47:54.4    -205   -200   -122    287    311 225.6 -28.7  34154  289.47 0854.26
2009/04/23 16:47:54.5    -151   -810    -86    824    829 190.6  -6.0  34148  289.38 0854.26
2009/04/23 16:47:54.6    -389   -531    -50    659    661 216.2  -4.4  34158  289.54 0854.26
2009/04/23 16:47:54.7    -360   -382    -11    526    527 223.3  -1.3  34178  289.87 0854.26
2009/04/23 16:47:54.8    -281   -622    134    683    697 204.3  11.1  34154  289.48 0854.26
2009/04/23 16:47:54.9    -379   -789     -4    876    877 205.7  -0.3  34146  289.32 0854.25
2009/04/23 16:47:55.0    -254   -663     52    711    713 201.0   4.2  34178  289.89 0854.25
2009/04/23 16:47:55.1      51   -667    233    669    708 175.6  20.0  34134  289.13 0854.25
2009/04/23 16:47:55.2       9   -507    361    508    623 178.9  39.0  34164  289.64 0854.25
2009/04/23 16:47:55.3     -54   -682     58    685    688 184.6   4.9  34158  289.53 0854.25
2009/04/23 16:47:55.4      63   -664    135    668    682 174.6  11.5  34154  289.48 0854.25
2009/04/23 16:47:55.5      48   -650      5    652    653 175.8   0.5  34160  289.57 0854.25
2009/04/23 16:47:55.6     227   -324     30    396    398 145.0   4.4  34126  288.99 0854.25
2009/04/23 16:47:55.7     128   -461    293    479    561 164.4  34.4  34166  289.68 0854.25
2009/04/23 16:47:55.8     -89   -542    254    550    605 189.4  26.6  34152  289.42 0854.25
2009/04/23 16:47:55.9    -157   -617    195    637    667 194.3  17.0  34162  289.61 0854.25
2009/04/23 16:47:56.0    -226   -799    120    831    840 195.8   8.2  34144  289.31 0854.25
2009/04/23 16:47:56.1    -191   -714    193    740    765 195.0  14.7  34154  289.48 0854.25
2009/04/23 16:47:56.2    -253   -610    221    661    698 202.6  18.5  34148  289.38 0854.25
2009/04/23 16:47:56.3    -229   -689    165    727    746 198.4  12.8  34150  289.40 0854.25
2009/04/23 16:47:56.4    -143   -701    250    716    758 191.6  20.0  34154  289.46 0854.25
2009/04/23 16:47:56.5    -167   -590    214    614    650 195.8  20.0  34154  289.48 0854.25
2009/04/23 16:47:56.6    -268   -649    143    703    718 202.4  11.6  34154  289.47 0854.25
2009/04/23 16:47:56.7    -198   -522    195    559    593 200.8  19.3  34156  289.51 0854.25
2009/04/23 16:47:56.8    -130   -345    235    369    437 200.7  35.6  34138  289.21 0854.25
2009/04/23 16:47:56.9    -213   -412    316    464    561 207.4  37.6  34154  289.46 0854.23
2009/04/23 16:47:57.0    -170   -372    156    410    438 204.6  21.8  34134  289.14 0854.23
2009/04/23 16:47:57.1    -138   -461     72    482    488 196.7   8.5  34140  289.23 0854.23
2009/04/23 16:47:57.2    -121   -503     92    518    527 193.6  10.1  34148  289.38 0854.23
2009/04/23 16:47:57.3    -236   -493     14    547    548 205.6   1.5  34146  289.35 0854.23
2009/04/23 16:47:57.4    -170   -426     13    460    461 201.8   1.7  34142  289.27 0854.23
2009/04/23 16:47:57.5    -159   -588    104    610    619 195.2   9.7  34136  289.15 0854.23
2009/04/23 16:47:57.6    -176   -645    168    669    690 195.3  14.2  34132  289.09 0854.23
2009/04/23 16:47:57.7    -257   -564    211    620    656 204.5  18.8  34134  289.13 0854.23
2009/04/23 16:47:57.8     160   -170    138    234    271 136.8  33.5  34148  289.37 0854.23
2009/04/23 16:47:57.9     351   -417     57    546    550 139.9   6.0  34148  289.36 0854.23
2009/04/23 16:47:58.0     289   -385     39    482    484 143.1   4.7  34146  289.34 0854.23
2009/04/23 16:47:58.1     363   -342     26    499    500 133.3   3.0  34136  289.18 0854.23
2009/04/23 16:47:58.2     318   -254     33    407    409 128.6   4.7  34140  289.22 0854.23
2009/04/23 16:47:58.3     268   -286    -15    393    394 136.9  -2.3  34136  289.18 0854.23
2009/04/23 16:47:58.4     330   -385    -28    508    509 139.4  -3.2  34156  289.49 0854.23
2009/04/23 16:47:58.5     256   -214    -14    334    335 129.9  -2.5  34168  289.72 0854.23
2009/04/23 16:47:58.6     185   -156    182    243    303 130.2  40.7  34144  289.31 0854.23
2009/04/23 16:47:58.7     281   -122    204    307    368 113.5  36.6  34164  289.64 0854.23
2009/04/23 16:47:58.8     210     -9    243    211    321  92.5  54.6  34158  289.54 0854.23
2009/04/23 16:47:58.9     156    -65    249    170    301 112.8  62.6  34170  289.73 0854.23
2009/04/23 16:47:59.0      37   -218    251    222    335 170.2  54.0  34144  289.29 0854.23
2009/04/23 16:47:59.1      59   -205    179    214    278 164.0  44.1  34152  289.44 0854.23
2009/04/23 16:47:59.2     178   -200    122    268    294 138.3  26.2  34168  289.71 0854.23
2009/04/23 16:47:59.3     101   -211      9    234    235 154.4   2.3  34160  289.58 0854.23
2009/04/23 16:47:59.4    -109   -212     81    239    253 207.2  18.9  34138  289.19 0854.23
2009/04/23 16:47:59.5    -123   -166    -17    207    208 216.5  -4.9  34128  289.04 0854.23
2009/04/23 16:47:59.6    -143   -100     -8    175    176 235.1  -2.8  34128  289.02 0854.23
2009/04/23 16:47:59.7     -96   -138    -59    169    179 215.0 -24.4  34126  288.99 0854.23
2009/04/23 16:47:59.8    -104   -210    -65    235    243 206.3 -20.4  34126  289.00 0854.23
2009/04/23 16:47:59.9     -97   -231    -73    251    261 202.9 -21.0  34120  288.88 0854.23
2009/04/23 16:48:00.0    -190   -296   -102    353    368 212.7 -16.2  34126  288.99 0854.23
2009/04/23 16:48:00.1    -124   -260   -103    289    307 205.6 -19.7  34130  289.07 0854.23
2009/04/23 16:48:00.2     -27   -252    -88    254    268 186.2 -24.0  34124  288.95 0854.23
2009/04/23 16:48:00.3      59    -91    -73    109    131 147.0 -41.4  34106  288.65 0854.23
2009/04/23 16:48:00.4     117    -73    157    138    209 122.0  54.3  34118  288.86 0854.23
2009/04/23 16:48:00.5      78   -104    256    131    287 143.0  71.0  34124  288.97 0854.23
2009/04/23 16:48:00.6     -30     15    231     34    233 297.1  90.0  34140  289.23 0854.23
2009/04/23 16:48:00.7    -191   -139    107    237    260 234.0  26.2  34122  288.93 0854.23
2009/04/23 16:48:00.8    -115   -191    144    224    266 211.0  35.6  34124  288.95 0854.23
2009/04/23 16:48:00.9     -47   -184    -14    191    192 194.5  -4.4  34120  288.91 0854.24
2009/04/23 16:48:01.0       3   -100    -20    101    104 177.8 -11.3  34128  289.02 0854.24
2009/04/23 16:48:01.1      11     -3     57     12     58 108.4  89.0  34136  289.18 0854.24
2009/04/23 16:48:01.2     -92    -28     49     97    108 253.2  28.7  34148  289.38 0854.24
2009/04/23 16:48:01.3     -66    -59    112     89    143 228.2  57.5  34150  289.41 0854.24
2009/04/23 16:48:01.4     -29    -32    151     44    157 222.3  83.5  34184  289.97 0854.24
2009/04/23 16:48:01.5     -27     12    197     30    199 295.2  90.0  34202  290.28 0854.24
2009/04/23 16:48:01.6    -136     23    111    138    177 279.6  43.3  34164  289.63 0854.24
2009/04/23 16:48:01.7     -71    -86    -61    112    127 219.6 -35.7  34144  289.31 0854.24
2009/04/23 16:48:01.8    -171    -41     11    176    177 256.3   3.6  34164  289.65 0854.24
2009/04/23 16:48:01.9     -61    -93     69    112    131 213.4  35.0  34152  289.43 0854.24
2009/04/23 16:48:02.0    -128     39    142    134    195 286.9  52.0  34172  289.77 0854.24
2009/04/23 16:48:02.1    -159     79    185    178    256 296.6  51.2  34192  290.10 0854.24
2009/04/23 16:48:02.2    -233    -18     20    234    235 265.4   5.0  34172  289.76 0854.24
2009/04/23 16:48:02.3    -169      0     37    170    175 270.0  12.4  34172  289.79 0854.24
2009/04/23 16:48:02.4    -116    -81    156    142    210 234.9  53.0  34194  290.14 0854.24
2009/04/23 16:48:02.5       3    -40    110     41    117 174.7  79.2  34208  290.38 0854.24
2009/04/23 16:48:02.6      24    -44     96     51    108 151.0  69.8  34216  290.53 0854.24
2009/04/23 16:48:02.7     -48    -31     54     58     79 237.6  48.5  34214  290.48 0854.24
2009/04/23 16:48:02.8     -54    143    127    154    199 339.1  43.7  34222  290.64 0854.24
2009/04/23 16:48:02.9    -281     40    142    284    317 278.1  28.6  34206  290.34 0854.24
2009/04/23 16:48:03.0    -239     18    108    240    263 274.4  26.2  34230  290.75 0854.24
2009/04/23 16:48:03.1    -310     10    141    311    341 271.9  26.2  34230  290.76 0854.24
2009/04/23 16:48:03.2    -305     82    136    316    344 285.1  24.9  34238  290.89 0854.24
2009/04/23 16:48:03.3    -327    -71     22    335    336 257.7   3.8  34224  290.66 0854.24
2009/04/23 16:48:03.4    -291   -116     46    314    318 248.3   8.3  34200  290.26 0854.24
2009/04/23 16:48:03.5    -236   -184     36    300    303 232.2   6.9  34186  290.02 0854.24
2009/04/23 16:48:03.6      31    -19     56     37     67 122.5  64.6  34200  290.25 0854.24
2009/04/23 16:48:03.7     227   -133    130    264    294 120.4  28.2  34148  289.37 0854.24
2009/04/23 16:48:03.8     220   -206    198    302    361 133.1  36.3  34106  288.66 0854.24
2009/04/23 16:48:03.9      94    -34    219    101    241 110.0  73.8  34114  288.80 0854.23
2009/04/23 16:48:04.0      12    -49    204     51    210 165.7  86.4  34116  288.82 0854.23
2009/04/23 16:48:04.1      40     16    189     44    194  68.3  87.5  34130  289.06 0854.23
2009/04/23 16:48:04.2     -61   -123    179    138    226 206.3  58.5  34138  289.19 0854.23
2009/04/23 16:48:04.3      33     10    135     35    139  73.2  84.9  34144  289.31 0854.23
2009/04/23 16:48:04.4       8    102    117    103    155   4.5  54.0  34140  289.23 0854.23
2009/04/23 16:48:04.5      73   -133    181    152    236 151.1  55.6  34152  289.45 0854.23
2009/04/23 16:48:04.6     -46   -165    158    172    233 195.6  47.9  34128  289.02 0854.23
2009/04/23 16:48:04.7     -65   -120    121    137    182 208.5  46.4  34140  289.24 0854.23
2009/04/23 16:48:04.8     -49   -106     65    117    133 204.9  31.4  34146  289.35 0854.23
2009/04/23 16:48:04.9    -201   -130     74    240    252 237.1  17.3  34136  289.17 0854.23
2009/04/23 16:48:05.0    -143   -258    203    296    358 209.0  37.6  34150  289.40 0854.23
2009/04/23 16:48:05.1     -99   -152    206    182    274 213.2  54.2  34150  289.39 0854.23
2009/04/23 16:48:05.2      -5   -217    230    218    316 181.4  51.6  34132  289.10 0854.23
2009/04/23 16:48:05.3     -17   -228    322    229    395 184.4  61.3  34146  289.35 0854.23
2009/04/23 16:48:05.4       1    -14    171     15    171 175.6  90.0  34158  289.55 0854.23
2009/04/23 16:48:05.5       1     38     29     39     48   2.7  40.7  34168  289.70 0854.23
2009/04/23 16:48:05.6    -202     21     89    204    222 276.1  25.1  34172  289.79 0854.23
2009/04/23 16:48:05.7     -50    -42    125     66    141 230.4  70.4  34158  289.53 0854.23
2009/04/23 16:48:05.8    -283    -74    161    293    334 255.2  31.3  34160  289.56 0854.23
2009/04/23 16:48:05.9    -409      0    181    410    448 270.0  25.2  34164  289.65 0854.22
2009/04/23 16:48:06.0    -281   -134    124    312    335 244.5  23.0  34160  289.58 0854.22
2009/04/23 16:48:06.1    -323     19    138    324    352 273.4  24.6  34154  289.48 0854.22
2009/04/23 16:48:06.2    -183   -140    190    231    299 232.7  43.7  34170  289.73 0854.22
2009/04/23 16:48:06.3     197     -5    199    198    280  91.5  50.1  34144  289.31 0854.22
2009/04/23 16:48:06.4     214    -44    244    219    327 101.7  53.5  34134  289.14 0854.22
2009/04/23 16:48:06.5     185     -2    296    186    349  90.8  64.7  34150  289.41 0854.22
2009/04/23 16:48:06.6      23    -44     81     50     95 151.9  64.7  34160  289.57 0854.22
2009/04/23 16:48:06.7      90   -218    202    236    310 157.5  44.9  34148  289.37 0854.22
2009/04/23 16:48:06.8      -7   -114    162    115    198 183.6  61.3  34158  289.53 0854.22
2009/04/23 16:48:06.9      71    -43     47     84     96 121.5  31.9  34144  289.31 0854.22
2009/04/23 16:48:07.0      97     -4     70     98    120  92.6  39.5  34136  289.18 0854.22
2009/04/23 16:48:07.1      -4    -83    124     84    149 183.1  62.7  34160  289.57 0854.22
2009/04/23 16:48:07.2      55     69     56     89    105  38.7  35.5  34166  289.67 0854.22
2009/04/23 16:48:07.3       8    -40     24     41     47 168.4  33.5  34166  289.67 0854.22
2009/04/23 16:48:07.4     -60     50     67     79    103 309.5  44.8  34170  289.75 0854.22
2009/04/23 16:48:07.5     -52     28     60     60     84 298.9  50.1  34166  289.69 0854.22
2009/04/23 16:48:07.6     -92      0      1     93     94 270.0   1.2  34164  289.65 0854.22
2009/04/23 16:48:07.8     -40    -36     -2     55     56 227.8  -2.2  34162  289.60 0854.22
2009/04/23 16:48:07.9     -41   -164    164    170    236 194.0  49.0  34178  289.87 0854.22
2009/04/23 16:48:08.0     -54   -137    152    148    212 201.4  50.4  34186  290.02 0854.24
2009/04/23 16:48:08.1    -171    -57      5    181    182 251.4   1.6  34188  290.04 0854.24
2009/04/23 16:48:08.2    -213   -117      7    244    245 241.2   1.8  34172  289.76 0854.24
2009/04/23 16:48:08.3    -189   -155     67    245    254 230.5  15.3  34192  290.10 0854.24
2009/04/23 16:48:08.4    -135   -186     36    230    233 216.0   9.0  34154  289.46 0854.24
2009/04/23 16:48:08.5    -169    -21     58    171    181 262.8  18.9  34158  289.55 0854.24
2009/04/23 16:48:08.6     -44     11    -39     46     60 285.1 -48.2  34156  289.50 0854.24
2009/04/23 16:48:08.7       4   -270    -34    271    274 179.0  -7.2  34134  289.12 0854.24
2009/04/23 16:48:08.8      10   -353    -38    354    357 178.3  -6.3  34122  288.93 0854.24
2009/04/23 16:48:08.9      27   -342     62    344    350 175.4  10.3  34126  288.98 0854.24
2009/04/23 16:48:09.0     -26   -337     35    339    341 184.5   6.0  34126  288.99 0854.24
2009/04/23 16:48:09.1       1   -203     44    204    209 179.5  12.4  34134  289.14 0854.24
2009/04/23 16:48:09.2      27   -161    128    164    208 170.4  42.0  34142  289.28 0854.24
2009/04/23 16:48:09.3      10   -132    156    133    205 175.5  55.4  34154  289.48 0854.24
2009/04/23 16:48:09.4       7   -170    113    171    204 177.5  36.5  34136  289.16 0854.24
2009/04/23 16:48:09.5      -6   -167    129    168    211 182.2  41.6  34136  289.18 0854.24
2009/04/23 16:48:09.6       8    -97    126     98    159 175.1  58.2  34168  289.72 0854.24
2009/04/23 16:48:09.7       0    -25    134     26    136 180.9  89.1  34184  289.97 0854.24
2009/04/23 16:48:09.8     -15   -101    127    103    163 188.5  56.9  34178  289.89 0854.24
2009/04/23 16:48:09.9     -15   -127    123    128    177 187.1  48.7  34162  289.62 0854.24
2009/04/23 16:48:10.0     -61    -68     62     92    110 221.9  37.0  34160  289.57 0854.24
2009/04/23 16:48:10.1       7      7     29     11     31  45.0  79.2  34168  289.70 0854.24
2009/04/23 16:48:10.2     -17     36     39     40     55 334.5  51.1  34176  289.84 0854.24
2009/04/23 16:48:10.3     -13     64    -23     66     69 348.5 -23.3  34174  289.80 0854.24
2009/04/23 16:48:10.4      46     70    -36     85     92  33.4 -28.5  34170  289.75 0854.24
2009/04/23 16:48:10.5     119     80     50    144    153  55.8  19.4  34178  289.87 0854.24
2009/04/23 16:48:10.6     105     46     42    115    122  66.0  20.9  34174  289.80 0854.24
2009/04/23 16:48:10.7     150     58    -32    161    165  68.7 -11.3  34168  289.70 0854.24
2009/04/23 16:48:10.8     183     13    -66    184    196  85.9 -19.7  34162  289.62 0854.24
2009/04/23 16:48:10.9     147    -44     42    154    160 106.9  15.3  34166  289.67 0854.24
2009/04/23 16:48:11.0     117    -46     49    126    135 111.7  21.5  34170  289.75 0854.24
2009/04/23 16:48:11.1     154    -98    117    183    217 122.5  35.6  34156  289.50 0854.24
2009/04/23 16:48:11.2      82   -166    110    186    216 153.7  33.5  34120  288.91 0854.24
2009/04/23 16:48:11.3      46   -225    167    230    284 168.4  39.7  34126  289.00 0854.24
2009/04/23 16:48:11.4     -77   -313    210    323    385 193.8  35.9  34112  288.77 0854.24
2009/04/23 16:48:11.5    -123   -423    176    441    474 196.3  22.9  34126  288.99 0854.24
2009/04/23 16:48:11.6    -134   -403    177    425    460 198.4  24.1  34134  289.12 0854.24
2009/04/23 16:48:11.7      90   -270    -78    285    296 161.5 -15.4  34140  289.22 0854.24
2009/04/23 16:48:11.8      57   -203    -74    211    223 164.2 -24.0  34154  289.48 0854.24
2009/04/23 16:48:11.9      53   -115    -44    127    134 155.1 -23.3  34158  289.55 0854.24
2009/04/23 16:48:12.0      39   -117     29    124    128 161.3  13.2  34144  289.31 0854.25
2009/04/23 16:48:12.1     -48   -190    112    197    226 194.3  32.1  34138  289.19 0854.25
2009/04/23 16:48:12.2      32   -156     95    160    186 168.4  33.7  34138  289.21 0854.25
2009/04/23 16:48:12.3      11   -138    100    139    171 175.1  39.3  34134  289.14 0854.25
2009/04/23 16:48:12.4       8    -81     93     82    123 173.8  54.2  34140  289.24 0854.25
2009/04/23 16:48:12.5      31    -59     81     67    105 151.9  56.3  34160  289.57 0854.25
2009/04/23 16:48:12.6     -14    -86     87     88    123 189.3  50.0  34148  289.38 0854.25
2009/04/23 16:48:12.7       0    -97     63     98    116 180.0  35.6  34148  289.38 0854.25
2009/04/23 16:48:12.8     -22    -65     38     69     78 198.7  30.8  34146  289.35 0854.25
2009/04/23 16:48:12.9     -21    -64     50     68     84 198.5  40.1  34148  289.36 0854.25
2009/04/23 16:48:13.0      -1    -78     94     79    122 180.9  55.8  34148  289.38 0854.25
2009/04/23 16:48:13.1     102   -123    106    161    192 140.3  36.0  34162  289.62 0854.25
2009/04/23 16:48:13.2      89   -143    103    169    197 148.1  34.2  34152  289.45 0854.25
2009/04/23 16:48:13.3      43   -119     51    127    136 160.0  23.0  34150  289.40 0854.25
2009/04/23 16:48:13.4    -106   -139     45    176    182 217.4  14.5  34146  289.35 0854.25
2009/04/23 16:48:13.5    -276   -499    182    571    600 209.0  17.7  34136  289.15 0854.25
2009/04/23 16:48:13.6    -210   -367     52    423    427 209.8   7.1  34142  289.27 0854.25
2009/04/23 16:48:13.7    -311   -441    -38    540    542 215.2  -4.1  34156  289.51 0854.25
2009/04/23 16:48:13.8    -335   -474   -167    581    605 215.2 -16.0  34120  288.90 0854.25
2009/04/23 16:48:13.9    -344   -413    -35    538    540 219.8  -3.8  34116  288.84 0854.25
2009/04/23 16:48:14.0     -78   -123     99    146    176 212.5  37.3  34122  288.92 0854.24
2009/04/23 16:48:14.1    -215   -261    199    339    393 219.5  33.1  34140  289.23 0854.24
2009/04/23 16:48:14.2    -208   -302     90    368    379 214.6  13.8  34132  289.11 0854.24
2009/04/23 16:48:14.3    -273   -254    -14    374    375 227.1  -2.2  34136  289.16 0854.24
2009/04/23 16:48:14.4    -392   -233   -145    457    479 239.3 -22.8  34128  289.03 0854.24
2009/04/23 16:48:14.5    -365   -254   -268    445    519 235.1 -38.4  34120  288.91 0854.24
2009/04/23 16:48:14.6    -125   -320     78    344    353 201.4  12.9  34138  289.21 0854.24
2009/04/23 16:48:14.7     -14   -315      4    316    317 182.7   0.8  34138  289.19 0854.24
2009/04/23 16:48:14.8     -95   -196    188    218    287 205.9  45.1  34172  289.76 0854.24
2009/04/23 16:48:14.9     -47   -119    198    129    236 201.8  63.9  34176  289.84 0854.24
2009/04/23 16:48:15.0     -68   -242    159    252    297 195.8  35.5  34176  289.85 0854.24
2009/04/23 16:48:15.1    -116   -207    133    238    272 209.4  31.6  34198  290.22 0854.24
2009/04/23 16:48:15.2    -101   -189    148    215    261 208.3  37.6  34216  290.53 0854.24
2009/04/23 16:48:15.3     -32   -166     90    170    192 191.1  30.3  34198  290.21 0854.24
2009/04/23 16:48:15.4     -32    -67    102     75    126 205.3  60.5  34206  290.36 0854.24
2009/04/23 16:48:15.5    -141    159     24    213    215 318.3   6.5  34226  290.69 0854.24
2009/04/23 16:48:15.6    -125     42    -49    132    140 288.6 -25.4  34222  290.62 0854.24
2009/04/23 16:48:15.7    -154    -76     85    172    191 243.6  27.8  34210  290.43 0854.24
2009/04/23 16:48:15.8     -72    -96    120    121    170 217.0  50.2  34218  290.57 0854.24
2009/04/23 16:48:15.9     -48     16    102     51    114 289.1  71.9  34216  290.53 0854.24
2009/04/23 16:48:16.0     -90     88     91    127    156 314.4  39.1  34204  290.31 0854.24
2009/04/23 16:48:16.1     -10      9     71     14     72 313.3  89.1  34196  290.19 0854.24
2009/04/23 16:48:16.2     -75   -184     87    199    217 202.3  25.1  34172  289.79 0854.24
2009/04/23 16:48:16.3     -86   -137     65    162    174 212.1  22.8  34174  289.82 0854.24
2009/04/23 16:48:16.4     -67   -157    105    171    200 203.2  34.4  34178  289.87 0854.24
2009/04/23 16:48:16.5     -93   -166     54    191    199 209.2  15.8  34164  289.65 0854.24
2009/04/23 16:48:16.6     -25   -268     92    270    286 185.3  18.9  34184  289.97 0854.24
2009/04/23 16:48:16.7     -32   -179     84    182    200 190.2  26.6  34182  289.96 0854.24
2009/04/23 16:48:16.8     -44   -262     62    266    274 189.7  13.2  34166  289.68 0854.24
2009/04/23 16:48:16.9     -30   -243    158    245    291 187.1  35.6  34172  289.76 0854.24
2009/04/23 16:48:17.0      -3   -203    105    204    229 181.0  29.3  34166  289.67 0854.24
2009/04/23 16:48:17.1     -48   -102    116    113    161 205.4  50.7  34184  289.99 0854.24
2009/04/23 16:48:17.2     -16    -49    112     52    123 198.3  73.5  34192  290.13 0854.24
2009/04/23 16:48:17.3     151   -146     89    211    229 134.0  24.3  34164  289.65 0854.24
2009/04/23 16:48:17.4      46   -153     44    160    167 163.1  15.6  34154  289.48 0854.24
2009/04/23 16:48:17.5       3   -247    -16    248    249 179.1  -3.7  34144  289.29 0854.24
2009/04/23 16:48:17.6     -51     -7    159     52    167 261.2  81.2  34176  289.84 0854.24
2009/04/23 16:48:17.7     -78    -58    151     98    180 233.6  64.1  34186  290.01 0854.24
2009/04/23 16:48:17.8       1    -74    144     75    162 179.1  70.6  34184  289.97 0854.24
2009/04/23 16:48:17.9      -5   -108     98    109    146 182.7  46.9  34178  289.89 0854.24
2009/04/23 16:48:18.0     -46    -73    136     87    161 212.5  64.4  34182  289.94 0854.24
2009/04/23 16:48:18.1     -28   -176    142    179    228 189.1  42.7  34196  290.19 0854.24
2009/04/23 16:48:18.2     -66   -139    104    154    185 205.4  37.3  34176  289.84 0854.24
2009/04/23 16:48:18.3     -61   -197     99    207    229 197.2  27.3  34156  289.50 0854.24
2009/04/23 16:48:18.4    -119   -135    127    181    221 221.4  38.6  34176  289.85 0854.24
2009/04/23 16:48:18.5      -7   -112    164    113    199 184.0  62.4  34178  289.89 0854.24
2009/04/23 16:48:18.6      83    -82    161    117    199 134.6  60.5  34188  290.06 0854.24
2009/04/23 16:48:18.7     -18   -244    172    245    299 184.4  38.6  34152  289.44 0854.24
2009/04/23 16:48:18.8     -61   -178    191    189    268 198.9  50.1  34156  289.49 0854.24
2009/04/23 16:48:18.9    -201   -136     74    243    255 235.9  17.1  34178  289.88 0854.24
2009/04/23 16:48:19.0    -315   -117     16    337    338 249.6   2.8  34190  290.08 0854.24
2009/04/23 16:48:19.1    -237     24    -65    239    248 275.9 -15.4  34184  289.97 0854.24
2009/04/23 16:48:19.2    -197     58     -8    206    207 286.6  -2.2  34190  290.09 0854.24
2009/04/23 16:48:19.3    -250     47      7    255    256 280.8   1.8  34174  289.81 0854.24
2009/04/23 16:48:19.4    -204     68     86    216    232 288.4  23.0  34170  289.74 0854.24
2009/04/23 16:48:19.5    -210    -15    121    211    243 265.7  32.4  34190  290.09 0854.24
2009/04/23 16:48:19.6    -450   -115    174    465    496 255.6  21.5  34174  289.81 0854.24
2009/04/23 16:48:19.7    -371    -68    123    378    398 259.6  18.0  34166  289.67 0854.24
2009/04/23 16:48:19.8    -459    -77    109    466    479 260.4  13.3  34218  290.57 0854.24
2009/04/23 16:48:19.9    -195    -55    178    203    269 254.1  45.8  34236  290.87 0854.24
2009/04/23 16:48:20.0    -255    -40    133    259    291 261.0  29.3  34242  290.97 0854.26
2009/04/23 16:48:20.1     -14    -99    125    101    160 188.1  56.9  34230  290.77 0854.26
2009/04/23 16:48:20.2    -142   -128    231    192    300 227.8  56.3  34188  290.03 0854.26
2009/04/23 16:48:20.3     -25   -238    314    240    395 186.2  58.9  34192  290.13 0854.26
2009/04/23 16:48:20.4     -29   -211    267    214    342 188.0  57.1  34190  290.07 0854.26
2009/04/23 16:48:20.5     -90   -199    234    219    320 204.5  52.2  34196  290.17 0854.26
2009/04/23 16:48:20.6     -11   -177    256    178    311 183.6  62.1  34204  290.32 0854.26
2009/04/23 16:48:20.7     -16   -188    152    189    242 185.1  42.8  34186  290.02 0854.26
2009/04/23 16:48:20.8     -33   -247     96    250    267 187.8  22.1  34190  290.09 0854.26
2009/04/23 16:48:20.9      24   -207    123    209    242 173.3  33.5  34194  290.16 0854.26
2009/04/23 16:48:21.0     -73   -231     97    243    261 197.6  23.0  34186  290.02 0854.26
2009/04/23 16:48:21.1    -110   -270     14    292    293 202.3   2.9  34152  289.42 0854.26
2009/04/23 16:48:21.2     -88   -242     85    258    272 200.0  18.4  34164  289.64 0854.26
2009/04/23 16:48:21.3     -85   -155     34    177    181 208.7  11.0  34156  289.52 0854.26
2009/04/23 16:48:21.4     -74   -156    150    173    228 205.6  45.4  34180  289.92 0854.26
2009/04/23 16:48:21.5     -45   -206    134    212    250 192.5  35.5  34164  289.64 0854.26
2009/04/23 16:48:21.6     -19   -121    151    123    194 188.9  56.4  34180  289.91 0854.26
2009/04/23 16:48:21.7     -78   -224    128    238    270 199.2  30.6  34154  289.47 0854.26
2009/04/23 16:48:21.8     111   -267     40    290    293 157.3   8.0  34130  289.07 0854.26
2009/04/23 16:48:21.9     129   -180     -6    222    223 144.4  -1.8  34142  289.26 0854.26
2009/04/23 16:48:22.0      14   -186     82    187    204 175.5  25.1  34132  289.09 0854.25
2009/04/23 16:48:22.1     -90   -270    122    285    310 198.5  24.6  34144  289.31 0854.25
2009/04/23 16:48:22.2     -77   -213    -76    227    239 200.0 -23.6  34140  289.24 0854.25
2009/04/23 16:48:22.3    -278   -277     11    393    394 225.1   1.7  34138  289.20 0854.25
2009/04/23 16:48:22.4     -85   -354    141    365    391 193.6  22.3  34136  289.15 0854.25
2009/04/23 16:48:22.5    -172   -380     74    418    425 204.4  10.1  34128  289.04 0854.25
2009/04/23 16:48:22.6    -115   -238     89    265    280 205.9  18.6  34126  288.98 0854.25
2009/04/23 16:48:22.7     -82   -270    189    283    340 197.0  36.9  34138  289.20 0854.25
2009/04/23 16:48:22.8    -128   -161    256    206    328 218.5  57.0  34150  289.41 0854.25
2009/04/23 16:48:22.9     -89   -114    195    145    243 217.9  59.8  34140  289.23 0854.25
2009/04/23 16:48:23.0      34    -77    116     85    143 156.4  60.5  34142  289.28 0854.24
2009/04/23 16:48:23.1      43    -24     71     50     86 119.8  61.5  34156  289.50 0854.24
2009/04/23 16:48:23.2     131     41     79    138    159  72.3  32.4  34154  289.48 0854.24
2009/04/23 16:48:23.3      12     51     37     53     64  13.4  38.6  34166  289.69 0854.24
2009/04/23 16:48:23.4      29     39     72     49     87  37.0  63.2  34174  289.82 0854.24
2009/04/23 16:48:23.5      33     52    122     62    136  32.6  71.0  34176  289.84 0854.24
2009/04/23 16:48:23.6     112     45     96    121    154  67.8  42.7  34142  289.28 0854.24
2009/04/23 16:48:23.7     224     36    114    227    254  80.8  28.5  34160  289.56 0854.24
2009/04/23 16:48:23.8     172     71    140    187    233  67.6  40.4  34202  290.28 0854.24
2009/04/23 16:48:23.9     138     37    148    144    206  74.9  50.7  34222  290.62 0854.24
2009/04/23 16:48:24.0     135     69    149    152    212  62.9  49.9  34250  291.09 0854.24
2009/04/23 16:48:24.1      56    -53    122     78    144 133.1  64.6  34262  291.32 0854.24
2009/04/23 16:48:24.2     153   -128    205    200    286 129.8  50.7  34180  289.90 0854.24
2009/04/23 16:48:24.3      40   -101    118    109    160 158.2  52.5  34184  289.97 0854.24
2009/04/23 16:48:24.4      58   -104    154    120    195 151.0  57.9  34214  290.48 0854.24
2009/04/23 16:48:24.5     -23      0    107     24    109 270.0  88.5  34226  290.69 0854.24
2009/04/23 16:48:24.6     -21     13    153     26    155 302.5  90.0  34206  290.36 0854.24
2009/04/23 16:48:24.7      22      1    119     23    121  85.6  89.6  34192  290.11 0854.24
2009/04/23 16:48:24.8       1    -33    135     34    139 177.3  85.9  34190  290.09 0854.24
2009/04/23 16:48:24.9      60    -68    156     91    180 138.6  67.2  34182  289.94 0854.24
2009/04/23 16:48:25.0     -93   -240    192    258    321 201.2  40.4  34144  289.29 0854.23
2009/04/23 16:48:25.1      24    -74    203     78    217 161.7  77.8  34146  289.35 0854.23
2009/04/23 16:48:25.2      51    -32    169     61    179 122.5  79.7  34152  289.43 0854.23
2009/04/23 16:48:25.3    -282   -365    313    462    558 217.8  37.4  34100  288.55 0854.23
2009/04/23 16:48:25.4    -273   -385    218    473    520 215.4  26.6  34092  288.42 0854.23
2009/04/23 16:48:25.5    -248   -485    307    545    625 207.1  32.0  34124  288.97 0854.23
2009/04/23 16:48:25.6     -17   -379    246    380    452 182.6  35.9  34114  288.80 0854.23
2009/04/23 16:48:25.7     -46   -321    181    325    372 188.3  31.4  34102  288.60 0854.23
2009/04/23 16:48:25.8     -23   -380    147    381    408 183.5  22.1  34112  288.76 0854.23
2009/04/23 16:48:25.9    -134   -311     -7    339    340 203.4  -1.3  34120  288.88 0854.23
2009/04/23 16:48:26.0     -28   -246     -1    248    249 186.7  -0.3  34118  288.87 0854.23
2009/04/23 16:48:26.1     -84   -209     25    226    228 201.9   6.5  34120  288.91 0854.23
2009/04/23 16:48:26.2      71   -113     59    134    146 147.5  25.1  34142  289.26 0854.23
2009/04/23 16:48:26.3      96    -26     52    100    112 105.5  29.3  34142  289.28 0854.23
2009/04/23 16:48:26.4      19    -31     37     37     52 147.4  50.1  34144  289.31 0854.23
2009/04/23 16:48:26.5     -60    -16     64     63     89 254.9  49.7  34130  289.08 0854.23
2009/04/23 16:48:26.6     -97    -99     90    139    165 224.5  35.7  34120  288.89 0854.23
2009/04/23 16:48:26.7     -61   -100     91    118    149 211.2  41.7  34120  288.91 0854.23
2009/04/23 16:48:26.8     -95    -95     77    135    155 225.1  32.4  34120  288.91 0854.23
2009/04/23 16:48:26.9     -99    -92    106    136    172 226.9  42.2  34116  288.84 0854.23
2009/04/23 16:48:27.0     -52    -10     66     54     85 258.5  56.4  34124  288.97 0854.23
2009/04/23 16:48:27.1      19    -11     84     23     87 120.7  84.4  34142  289.26 0854.23
2009/04/23 16:48:27.2      -1    -39    120     40    126 182.6  81.0  34142  289.26 0854.23
2009/04/23 16:48:27.3      24     56     89     62    108  23.6  62.1  34158  289.55 0854.23
2009/04/23 16:48:27.4       3    -39     51     40     64 175.5  58.5  34154  289.46 0854.23
2009/04/23 16:48:27.5      63     28    144     70    160  65.6  72.1  34148  289.38 0854.23
2009/04/23 16:48:27.6    -100    -17     41    102    109 259.9  23.0  34156  289.52 0854.23
2009/04/23 16:48:27.7     -17   -151    210    153    259 186.7  60.5  34152  289.43 0854.23
2009/04/23 16:48:27.8      90   -270    256    285    383 161.5  46.6  34136  289.15 0854.23
2009/04/23 16:48:27.9      -5   -193    267    194    330 181.6  60.7  34146  289.32 0854.23
2009/04/23 16:48:28.0     -20   -266    275    267    383 184.5  50.9  34128  289.03 0854.23
2009/04/23 16:48:28.1       6   -370    339    371    502 179.0  47.3  34112  288.75 0854.23
2009/04/23 16:48:28.2     211   -397     87    450    459 152.0  11.0  34108  288.70 0854.23
2009/04/23 16:48:28.3     278   -221    115    356    375 128.5  17.9  34110  288.72 0854.23
2009/04/23 16:48:28.4     312     -6     63    313    320  91.3  11.4  34126  288.98 0854.23
2009/04/23 16:48:28.5     198   -128     82    236    250 122.9  19.2  34138  289.19 0854.23
2009/04/23 16:48:28.6     124   -111     89    167    189 132.0  30.6  34142  289.28 0854.23
2009/04/23 16:48:28.7     119     12    151    120    192  83.9  57.5  34156  289.52 0854.23
2009/04/23 16:48:28.8       0     16    115     17    116   0.9  90.0  34174  289.82 0854.23
2009/04/23 16:48:28.9     294    -93    313    309    439 107.7  50.2  34182  289.94 0854.23
2009/04/23 16:48:29.0     297   -105    258    316    407 109.5  43.6  34158  289.55 0854.22
2009/04/23 16:48:29.1     172   -173    202    245    317 135.2  43.6  34130  289.05 0854.22
2009/04/23 16:48:29.2      91   -269    256    285    383 161.3  46.6  34128  289.04 0854.22
2009/04/23 16:48:29.3      38    -96    146    104    179 158.2  60.8  34126  289.01 0854.22
2009/04/23 16:48:29.4      86    -54     98    102    141 122.4  49.0  34128  289.02 0854.22
2009/04/23 16:48:29.5      86   -107    144    138    199 141.3  51.2  34132  289.11 0854.22
2009/04/23 16:48:29.6       5   -167    214    168    272 178.0  57.9  34128  289.03 0854.22
2009/04/23 16:48:29.7      -2   -150    175    151    231 180.9  54.8  34126  288.99 0854.22
2009/04/23 16:48:29.8    -256   -250    -14    358    359 225.7  -2.2  34122  288.93 0854.22
2009/04/23 16:48:29.9     -88   -261     10    276    277 198.7   2.1  34120  288.88 0854.22
2009/04/23 16:48:30.0    -103   -271    -15    291    292 200.9  -3.1  34122  288.93 0854.22
2009/04/23 16:48:30.1     -31   -190     98    193    216 189.3  29.1  34124  288.96 0854.22
2009/04/23 16:48:30.2    -186   -271     90    330    343 214.5  15.3  34126  288.98 0854.22
2009/04/23 16:48:30.3     -81   -305    217    316    383 194.9  37.8  34130  289.06 0854.22
2009/04/23 16:48:30.4      34   -330    198    332    386 174.0  33.6  34120  288.89 0854.22
2009/04/23 16:48:30.5      26   -418    291    419    510 176.4  38.3  34134  289.12 0854.22
2009/04/23 16:48:30.6      37   -413     89    415    425 174.8  12.1  34128  289.02 0854.22
2009/04/23 16:48:30.7    -131   -440    143    460    482 196.6  17.3  34126  288.98 0854.22
2009/04/23 16:48:30.8    -144   -474     49    496    499 196.9   5.7  34120  288.90 0854.22
2009/04/23 16:48:30.9    -167   -452     36    482    484 200.3   4.4  34112  288.76 0854.22
2009/04/23 16:48:31.0    -197   -352     38    404    406 209.2   5.5  34120  288.90 0854.23
2009/04/23 16:48:31.1    -193   -264     67    328    335 216.1  11.6  34132  289.11 0854.23
2009/04/23 16:48:31.2    -132   -255     67    288    296 207.4  13.1  34130  289.05 0854.23
2009/04/23 16:48:31.3    -122   -154    -55    197    205 218.3 -15.8  34138  289.21 0854.23
2009/04/23 16:48:31.4     -61   -125    -40    140    145 205.9 -20.7  34134  289.14 0854.23
2009/04/23 16:48:31.5      35     -8     37     36     51 103.3  50.1  34136  289.18 0854.23
2009/04/23 16:48:31.6     122    -41    145    129    194 108.6  53.7  34134  289.13 0854.23
2009/04/23 16:48:31.7     132   -106    240    170    294 128.9  61.1  34146  289.34 0854.23
2009/04/23 16:48:31.8      30   -258    346    260    432 173.3  59.4  34130  289.06 0854.23
2009/04/23 16:48:31.9      57   -370    336    375    503 171.1  46.4  34134  289.12 0854.23
2009/04/23 16:48:32.0      53   -330    241    335    412 170.8  39.5  34130  289.08 0854.23
2009/04/23 16:48:32.1     220   -304    152    376    405 144.1  23.2  34130  289.06 0854.23
2009/04/23 16:48:32.2     262   -267    116    375    393 135.6  17.3  34130  289.06 0854.23
2009/04/23 16:48:32.3     300   -194     46    358    361 122.9   7.4  34136  289.16 0854.23
2009/04/23 16:48:32.4     205   -232    121    310    332 138.5  22.5  34120  288.88 0854.23
2009/04/23 16:48:32.5     168   -294     92    339    352 150.3  15.3  34116  288.84 0854.23
2009/04/23 16:48:32.6     180   -185     -1    259    260 135.7  -0.3  34114  288.78 0854.23
2009/04/23 16:48:32.7     230     20     -5    231    232  84.8  -1.3  34130  289.08 0854.23
2009/04/23 16:48:32.8     201    -54     21    209    211 105.0   5.9  34134  289.13 0854.23
2009/04/23 16:48:32.9      58   -123     70    137    153 154.5  29.2  34136  289.18 0854.23
2009/04/23 16:48:33.0      11    -49     13     51     53 167.5  15.3  34134  289.13 0854.24
2009/04/23 16:48:33.1      -2     11    156     12    156 348.4  90.0  34150  289.40 0854.24
2009/04/23 16:48:33.2     -22   -189    120    191    225 186.7  35.5  34134  289.13 0854.24
2009/04/23 16:48:33.3     -49   -176     75    183    197 195.8  23.4  34132  289.09 0854.24
2009/04/23 16:48:33.4     -65    -82     64    105    122 218.3  34.0  34138  289.19 0854.24
2009/04/23 16:48:33.5     -74    -24     64     79    101 251.6  43.7  34140  289.23 0854.24
2009/04/23 16:48:33.6     -61    -31    -73     69    100 242.9 -56.5  34134  289.14 0854.24
2009/04/23 16:48:33.7     -59    -72    -44     94    103 219.6 -31.5  34130  289.08 0854.24
2009/04/23 16:48:33.9     -47    -61    -24     78     82 217.8 -17.6  34132  289.09 0854.24
2009/04/23 16:48:34.0    -172   -109    -28    204    207 237.6  -8.0  34130  289.06 0854.24
2009/04/23 16:48:34.1     -68   -171     36    185    189 201.9  11.1  34134  289.14 0854.24
2009/04/23 16:48:34.2      13   -132     36    133    138 174.2  15.2  34132  289.11 0854.24
2009/04/23 16:48:34.3     120   -106     75    161    177 131.3  27.0  34136  289.16 0854.24
2009/04/23 16:48:34.4     124    -68     89    142    167 118.8  35.2  34138  289.21 0854.24
2009/04/23 16:48:34.5      26   -116     63    119    134 167.1  30.3  34136  289.18 0854.24
2009/04/23 16:48:34.6       0    -61     48     62     78 180.9  42.2  34138  289.19 0854.24
2009/04/23 16:48:34.7     -12    -71      8     73     74 189.8   6.9  34138  289.21 0854.24
2009/04/23 16:48:34.8       4    -17     11     18     21 164.9  33.5  34146  289.35 0854.24
2009/04/23 16:48:34.9     -13     52     11     54     56 345.7  12.2  34146  289.35 0854.24
2009/04/23 16:48:35.0     -45     62     30     77     82 323.9  22.0  34144  289.30 0854.24
2009/04/23 16:48:35.1     -76     52     25     93     97 304.6  15.3  34134  289.14 0854.27
2009/04/23 16:48:35.2      -5     93     20     94     97 356.9  12.2  34134  289.14 0854.27
2009/04/23 16:48:35.3     -33    100     -2    106    107 341.7  -1.3  34134  289.13 0854.27
2009/04/23 16:48:35.4     -15    136     -1    137    138 353.7  -0.7  34136  289.18 0854.27
2009/04/23 16:48:35.5      71    172      0    187    188  22.5   0.0  34136  289.18 0854.27
2009/04/23 16:48:35.6      15    206     67    207    218   4.4  17.9  34152  289.43 0854.27
2009/04/23 16:48:35.7     -28    200    113    203    232 352.0  31.4  34146  289.35 0854.27
2009/04/23 16:48:35.8      41    169    115    175    209  13.8  36.3  34138  289.21 0854.27
2009/04/23 16:48:35.9      50    194    123    201    235  14.7  34.4  34140  289.23 0854.27
2009/04/23 16:48:36.0      37     99    107    106    150  20.5  50.1  34152  289.43 0854.27
2009/04/23 16:48:36.1      46     46    135     66    150  45.1  72.8  34166  289.67 0854.27
2009/04/23 16:48:36.2       7     23     62     25     66  18.5  77.1  34160  289.57 0854.27
2009/04/23 16:48:36.3     -53     52     97     75    122 314.9  58.4  34166  289.69 0854.27
2009/04/23 16:48:36.4     -54    -86    131    102    166 212.1  58.2  34148  289.36 0854.27
2009/04/23 16:48:36.5     -90   -189     87    210    227 205.4  23.6  34128  289.04 0854.27
2009/04/23 16:48:36.6     -94    -90    131    131    185 226.4  50.1  34126  289.01 0854.27
2009/04/23 16:48:36.7     -38   -137    199    143    245 195.6  60.6  34160  289.58 0854.27
2009/04/23 16:48:36.8      65    -56    144     86    167 130.9  66.2  34152  289.45 0854.27
2009/04/23 16:48:36.9      90   -186    195    207    284 154.1  48.0  34172  289.78 0854.27
2009/04/23 16:48:37.0      86   -284    268    297    400 163.1  46.9  34188  290.04 0854.27
2009/04/23 16:48:37.1      27   -101    231    105    253 164.8  74.0  34182  289.94 0854.28
2009/04/23 16:48:37.2    -286   -323    266    432    507 221.5  34.5  34136  289.18 0854.28
2009/04/23 16:48:37.3     -80   -280    267    292    395 196.1  47.1  34140  289.23 0854.28
2009/04/23 16:48:37.4      15   -202    307    203    368 175.5  63.5  34154  289.46 0854.28
2009/04/23 16:48:37.5      48    -18    169     52    176 110.8  82.5  34184  289.97 0854.28
2009/04/23 16:48:37.6     198   -198    196    281    342 135.0  38.5  34184  289.98 0854.28
2009/04/23 16:48:37.7      20   -143    264    145    301 171.9  68.9  34178  289.88 0854.28
2009/04/23 16:48:37.8    -181   -248    220    308    378 216.1  39.1  34126  288.98 0854.28
2009/04/23 16:48:37.9    -157   -544     37    567    569 196.1   3.8  34120  288.91 0854.28
2009/04/23 16:48:38.0     -54   -481    114    485    499 186.5  13.2  34124  288.96 0854.28
2009/04/23 16:48:38.1     -81   -318    -23    329    330 194.4  -4.0  34120  288.91 0854.28
2009/04/23 16:48:38.2      60   -219    -28    228    230 164.6  -7.2  34122  288.94 0854.28
2009/04/23 16:48:38.3     254   -209     47    330    334 129.5   8.1  34142  289.28 0854.28
2009/04/23 16:48:38.4     207   -227    191    308    362 137.6  34.9  34142  289.25 0854.28
2009/04/23 16:48:38.5     209   -102    125    233    264 116.0  30.3  34150  289.39 0854.28
2009/04/23 16:48:38.6     163   -235    124    287    312 145.3  24.8  34142  289.27 0854.28
2009/04/23 16:48:38.7     189   -179    156    261    304 133.3  33.5  34134  289.14 0854.28
2009/04/23 16:48:38.8      28   -197    158    200    254 171.8  42.7  34126  289.00 0854.28
2009/04/23 16:48:38.9      40   -190    144    195    242 168.0  39.9  34126  288.99 0854.28
2009/04/23 16:48:39.0       2   -239    138    240    276 179.3  32.4  34126  288.98 0854.28
2009/04/23 16:48:39.1      48   -283    114    288    309 170.3  23.0  34128  289.02 0854.28
2009/04/23 16:48:39.2     -55   -193     10    201    202 196.0   2.9  34124  288.97 0854.28
2009/04/23 16:48:39.3     -40   -256     40    260    264 188.9   8.8  34120  288.90 0854.28
2009/04/23 16:48:39.4     -84   -245     90    260    275 199.1  20.0  34130  289.07 0854.28
2009/04/23 16:48:39.5    -103   -246     76    267    278 202.7  16.0  34118  288.87 0854.28
2009/04/23 16:48:39.6     -80   -234     60    248    256 198.9  13.7  34126  289.00 0854.28
2009/04/23 16:48:39.7     -12   -356    113    357    375 182.0  17.7  34120  288.88 0854.28
2009/04/23 16:48:39.8     -13   -293    134    294    323 182.6  26.3  34122  288.93 0854.28
2009/04/23 16:48:39.9      22   -285     61    286    293 175.5  12.1  34124  288.97 0854.28
2009/04/23 16:48:40.0      72   -237      7    248    249 163.1   1.8  34124  288.97 0854.28
2009/04/23 16:48:40.1     124   -170     87    211    228 143.9  23.4  34122  288.92 0854.28
2009/04/23 16:48:40.2      69   -290     72    299    308 166.6  13.7  34116  288.81 0854.28
2009/04/23 16:48:40.3       9   -350    105    351    367 178.4  16.6  34120  288.89 0854.28
2009/04/23 16:48:40.4     178   -237    156    297    335 143.0  30.1  34122  288.93 0854.28
2009/04/23 16:48:40.5     229      0    148    230    273  90.0  35.7  34130  289.07 0854.28
2009/04/23 16:48:40.6     147   -139    104    203    228 133.3  29.2  34130  289.06 0854.28
2009/04/23 16:48:40.7     103   -113    119    154    194 137.7  41.7  34128  289.04 0854.28
2009/04/23 16:48:40.8      47   -117    -16    127    129 158.2  -7.3  34128  289.04 0854.28
2009/04/23 16:48:40.9     -12   -157     90    158    181 184.4  32.4  34126  288.99 0854.28
2009/04/23 16:48:41.0     -24   -159     14    161    162 188.9   5.2  34126  288.99 0854.28
2009/04/23 16:48:41.1    -128   -197     18    236    237 213.0   4.4  34124  288.97 0854.29
2009/04/23 16:48:41.2    -161   -167    -11    233    234 223.9  -2.8  34128  289.03 0854.29
2009/04/23 16:48:41.3    -141   -108    162    178    240 232.5  47.0  34144  289.31 0854.29
2009/04/23 16:48:41.4     -66    -81    127    105    164 219.2  56.1  34138  289.19 0854.29
2009/04/23 16:48:41.5     -13    -67    145     69    160 191.6  72.9  34142  289.26 0854.29
2009/04/23 16:48:41.6      60    -73     83     95    126 140.4  45.8  34142  289.28 0854.29
2009/04/23 16:48:41.7     121   -146    176    190    258 140.4  47.9  34130  289.05 0854.29
2009/04/23 16:48:41.8     146   -165    170    221    278 138.6  41.6  34128  289.02 0854.29
2009/04/23 16:48:41.9      94   -162    176    188    257 149.9  48.0  34130  289.07 0854.29
2009/04/23 16:48:42.0     217    -25    180    219    283  96.8  43.7  34130  289.05 0854.29
2009/04/23 16:48:42.1     129    -49     88    138    163 110.8  35.6  34132  289.11 0854.29
2009/04/23 16:48:42.2      70     -5     99     71    121  94.3  60.6  34144  289.30 0854.29
2009/04/23 16:48:42.3       0    -17     84     18     85 180.9  88.5  34152  289.45 0854.29
2009/04/23 16:48:42.4      -7      0     66      8     66 270.0  90.0  34162  289.62 0854.29
2009/04/23 16:48:42.5      34     35     95     49    106  44.2  70.4  34150  289.41 0854.29
2009/04/23 16:48:42.6      13     45     75     48     89  16.9  64.7  34146  289.35 0854.29
2009/04/23 16:48:42.7      57    -58    110     82    137 135.5  59.4  34138  289.19 0854.29
2009/04/23 16:48:42.8       4   -104     99    105    144 177.8  48.5  34134  289.14 0854.29
2009/04/23 16:48:42.9       4    -61    152     62    164 175.5  76.8  34150  289.41 0854.29
2009/04/23 16:48:43.0      16    -92    176     94    199 169.8  69.6  34144  289.30 0854.29
2009/04/23 16:48:43.1     -12   -164    225    165    279 184.5  60.5  34142  289.25 0854.29
2009/04/23 16:48:43.2     -56   -151    305    162    345 200.5  69.8  34146  289.32 0854.29
2009/04/23 16:48:43.3      29   -144    321    148    353 168.4  73.6  34142  289.27 0854.29
2009/04/23 16:48:43.4     -49     43    223     66    232 311.3  83.1  34168  289.70 0854.29
2009/04/23 16:48:43.5     114    -30    269    119    294 105.1  74.8  34156  289.51 0854.29
2009/04/23 16:48:43.6      18    -38    187     43    191 154.6  87.5  34164  289.63 0854.29
2009/04/23 16:48:43.7      57     36    139     68    154  57.6  72.8  34148  289.38 0854.29
2009/04/23 16:48:43.8     204   -173    230    268    353 130.4  45.1  34142  289.25 0854.29
2009/04/23 16:48:43.9     154   -164    184    226    291 136.8  43.7  34140  289.24 0854.29
2009/04/23 16:48:44.0     169   -176    167    245    296 136.1  37.6  34136  289.17 0854.29
2009/04/23 16:48:44.1      -1   -310    186    311    362 180.2  33.7  34124  288.96 0854.32
2009/04/23 16:48:44.2      -6   -229    305    230    382 181.6  59.3  34126  289.01 0854.32
2009/04/23 16:48:44.3     116   -173    227    209    308 146.2  52.2  34130  289.05 0854.32
2009/04/23 16:48:44.4     176   -343    328    386    506 152.8  44.8  34144  289.30 0854.32
2009/04/23 16:48:44.5     172   -253    263    307    404 145.8  44.9  34130  289.08 0854.32
2009/04/23 16:48:44.6     140   -258    119    294    317 151.5  23.2  34124  288.95 0854.32
2009/04/23 16:48:44.7      65   -208    151    219    266 162.6  37.8  34130  289.07 0854.32
2009/04/23 16:48:44.8      37   -184    104    188    214 168.5  31.4  34126  288.99 0854.32
2009/04/23 16:48:44.9     303   -130    123    330    352 113.3  21.3  34130  289.08 0854.32
2009/04/23 16:48:45.0     192   -126    181    230    292 123.3  42.2  34126  289.00 0854.32
2009/04/23 16:48:45.1     170   -120    198    209    287 125.3  48.2  34138  289.19 0854.32
2009/04/23 16:48:45.2      41   -185    107    190    218 167.3  31.6  34128  289.02 0854.32
2009/04/23 16:48:45.3     -76   -299     66    309    317 194.3  12.2  34120  288.88 0854.32
2009/04/23 16:48:45.4    -146   -184     45    236    241 218.5  11.0  34114  288.80 0854.32
2009/04/23 16:48:45.5      28    -87    150     92    175 161.7  65.1  34126  289.01 0854.32
2009/04/23 16:48:45.6     164    -54    233    173    290 108.4  59.8  34146  289.32 0854.32
2009/04/23 16:48:45.7      11      0    155     12    155  90.0  90.0  34182  289.94 0854.32
2009/04/23 16:48:45.8     -34    -54     88     65    109 212.5  60.5  34154  289.48 0854.32
2009/04/23 16:48:45.9     -19     19     -2     28     29 314.9  -5.2  34138  289.19 0854.32
2009/04/23 16:48:46.0      66     19     91     69    114  73.2  59.0  34160  289.58 0854.32
2009/04/23 16:48:46.1      41    -11     69     43     81 105.1  65.1  34160  289.57 0854.30
2009/04/23 16:48:46.2      24     44     33     51     60  29.0  35.6  34166  289.69 0854.30
2009/04/23 16:48:46.3      50     60     80     79    112  39.7  49.7  34162  289.60 0854.30
2009/04/23 16:48:46.4      20    -94     95     97    135 168.0  50.0  34162  289.62 0854.30
2009/04/23 16:48:46.5      -6    -72    160     73    175 185.3  74.0  34156  289.50 0854.30
2009/04/23 16:48:46.6      12    -30     60     33     68 158.2  68.8  34156  289.52 0854.30
2009/04/23 16:48:46.7    -162   -199    -14    257    258 219.2  -3.2  34122  288.92 0854.30
2009/04/23 16:48:46.8    -234    -27    -82    236    249 263.4 -24.3  34114  288.80 0854.30
2009/04/23 16:48:46.9    -441    164   -247    471    531 290.5 -34.3  34120  288.88 0854.30
2009/04/23 16:48:47.0    -305    -82   -295    317    433 254.9 -52.3  34128  289.03 0854.30
2009/04/23 16:48:47.1    -322   -173   -164    366    401 241.7 -30.3  34118  288.86 0854.30
2009/04/23 16:48:47.2    -259    -28    -78    261    273 263.8 -16.6  34118  288.85 0854.30
2009/04/23 16:48:47.3    -251   -118     84    278    291 244.8  16.8  34132  289.09 0854.30
2009/04/23 16:48:47.4    -262   -177     53    317    322 235.9   9.5  34130  289.07 0854.30
2009/04/23 16:48:47.5    -191   -133      4    234    235 235.1   1.0  34122  288.93 0854.30
2009/04/23 16:48:47.6    -380    -25    -50    381    385 266.1  -7.5  34116  288.81 0854.30
2009/04/23 16:48:47.7    -347   -159     68    382    389 245.3  10.1  34120  288.91 0854.30
2009/04/23 16:48:47.8    -446   -173    -38    479    481 248.7  -4.6  34108  288.69 0854.30
2009/04/23 16:48:47.9    -528    -73   -175    533    560 262.1 -23.3  34090  288.40 0854.30
2009/04/23 16:48:48.0    -627   -117   -195    638    667 259.4 -21.8  34104  288.61 0854.30
2009/04/23 16:48:48.1    -653    -79   -205    658    690 263.0 -17.3  34108  288.68 0854.30
2009/04/23 16:48:48.2    -718    -54   -284    720    773 265.7 -27.3  34092  288.43 0854.30
2009/04/23 16:48:48.3    -767    -31   -268    768    813 267.7 -24.4  34108  288.69 0854.30
2009/04/23 16:48:48.4    -734   -202   -218    762    792 254.6 -20.7  34112  288.75 0854.30
2009/04/23 16:48:48.5    -731   -199   -222    758    789 254.7 -21.1  34106  288.66 0854.30
2009/04/23 16:48:48.6    -666   -189   -219    693    726 254.1 -22.6  34100  288.57 0854.30
2009/04/23 16:48:48.7    -626   -163   -305    647    715 255.4 -31.5  34090  288.39 0854.30
2009/04/23 16:48:48.8    -654   -108   -312    664    733 260.6 -31.5  34084  288.30 0854.30
2009/04/23 16:48:48.9    -633    -71   -319    638    713 263.5 -32.9  34088  288.34 0854.30
2009/04/23 16:48:49.0    -492    -92   -316    501    592 259.4 -39.7  34094  288.47 0854.30
2009/04/23 16:48:49.1    -430    -85   -293    439    527 258.8 -41.4  34088  288.34 0854.30
2009/04/23 16:48:49.2    -462   -108   -217    475    522 256.8 -30.7  34084  288.27 0854.30
2009/04/23 16:48:49.3    -411   -104   -204    425    471 255.7 -32.1  34084  288.28 0854.30
2009/04/23 16:48:49.4    -388   -105   -214    403    456 254.8 -34.7  34082  288.24 0854.30
2009/04/23 16:48:49.5    -419    -25   -206    420    467 266.5 -32.5  34112  288.75 0854.30
2009/04/23 16:48:49.6    -445    118   -218    461    509 284.9 -31.5  34136  289.17 0854.30
2009/04/23 16:48:49.7    -429     87   -289    439    525 281.6 -40.9  34106  288.66 0854.30
2009/04/23 16:48:49.8    -398     42   -226    401    460 276.1 -36.1  34156  289.51 0854.30
2009/04/23 16:48:49.9    -467    110   -288    480    559 283.3 -38.2  34136  289.16 0854.30
2009/04/23 16:48:50.0    -413     37   -181    415    452 275.2 -29.5  34098  288.51 0854.30
2009/04/23 16:48:50.1    -461     77   -228    468    520 279.5 -32.2  34100  288.54 0854.32
2009/04/23 16:48:50.2    -291    105   -241    310    392 289.9 -46.1  34106  288.66 0854.32
2009/04/23 16:48:50.3    -282    -66   -171    290    336 256.7 -37.5  34102  288.59 0854.32
2009/04/23 16:48:50.4    -383   -126   -156    404    433 251.8 -26.6  34096  288.48 0854.32
2009/04/23 16:48:50.5    -308   -111   -173    328    370 250.1 -34.6  34106  288.66 0854.32
2009/04/23 16:48:50.6    -217    -37   -228    221    317 260.3 -55.5  34100  288.56 0854.32
2009/04/23 16:48:50.7    -215    -36   -166    219    274 260.3 -45.6  34100  288.56 0854.32
2009/04/23 16:48:50.8    -249      6   -183    250    309 271.5 -44.1  34094  288.44 0854.32
2009/04/23 16:48:50.9    -240     95   -177    259    313 291.7 -42.2  34082  288.24 0854.32
2009/04/23 16:48:51.0    -222     58   -152    230    275 284.8 -40.9  34066  287.99 0854.32
2009/04/23 16:48:51.1    -178    -19   -145    180    231 263.9 -47.9  34110  288.72 0854.32
2009/04/23 16:48:51.2    -184    -25   -196    186    270 262.0 -56.0  34112  288.75 0854.32
2009/04/23 16:48:51.3    -124      9   -177    125    216 274.4 -65.7  34110  288.74 0854.32
2009/04/23 16:48:51.4     -71    -53   -124     89    152 233.1 -65.0  34118  288.86 0854.32
2009/04/23 16:48:51.5    -117    -58   -122    131    179 243.4 -52.3  34122  288.92 0854.32
2009/04/23 16:48:51.6    -151     63    -98    164    191 292.8 -38.4  34090  288.38 0854.32
2009/04/23 16:48:51.7    -147     94   -128    175    216 302.6 -44.1  34092  288.43 0854.32
2009/04/23 16:48:51.8     -68     66    -84     95    126 314.0 -50.3  34094  288.47 0854.32
2009/04/23 16:48:51.9    -274     57   -119    281    305 281.9 -28.7  34082  288.24 0854.32
2009/04/23 16:48:52.0    -241     78   -116    254    279 287.9 -30.6  34092  288.41 0854.32
2009/04/23 16:48:52.1    -393    -49   -138    397    420 262.8 -24.3  34110  288.72 0854.32
2009/04/23 16:48:52.2    -380      5   -140    381    405 270.9 -25.4  34100  288.54 0854.32
2009/04/23 16:48:52.3    -448     48   -158    451    477 276.2 -24.4  34110  288.73 0854.32
2009/04/23 16:48:52.4    -200    -40   -292    205    356 258.5 -66.1  34118  288.85 0854.32
2009/04/23 16:48:52.5    -230   -190   -177    299    347 230.5 -37.9  34126  288.99 0854.32
2009/04/23 16:48:52.6    -273    -83   -166    286    330 252.9 -37.3  34126  288.98 0854.32
2009/04/23 16:48:52.7    -296     99   -166    313    354 288.6 -34.5  34110  288.72 0854.32
2009/04/23 16:48:52.8    -201   -159   -102    257    276 231.8 -27.4  34116  288.83 0854.32
2009/04/23 16:48:52.9    -173    -54   -101    182    208 252.7 -35.8  34124  288.97 0854.32
2009/04/23 16:48:53.0    -249   -155   -125    294    319 238.0 -28.9  34132  289.10 0854.32
2009/04/23 16:48:53.1    -164   -163   -133    232    267 225.3 -36.8  34134  289.12 0854.32
2009/04/23 16:48:53.2    -215   -304   -206    373    426 215.2 -35.8  34130  289.05 0854.32
2009/04/23 16:48:53.3    -297   -358   -119    466    482 219.7 -14.4  34126  288.98 0854.32
2009/04/23 16:48:53.4    -317   -383   -178    498    529 219.6 -19.7  34122  288.93 0854.32
2009/04/23 16:48:53.5    -330   -398   -227    518    565 219.6 -29.5  34120  288.91 0854.32
2009/04/23 16:48:53.6     -68   -248    -51    258    264 195.4 -11.3  34110  288.71 0854.32
2009/04/23 16:48:53.7       6   -387    202    388    437 179.1  29.6  34122  288.94 0854.32
2009/04/23 16:48:53.8     126   -277    237    305    386 155.5  41.7  34128  289.03 0854.32
2009/04/23 16:48:53.9     188   -236    179    302    351 141.5  33.5  34128  289.04 0854.32
2009/04/23 16:48:54.0     222   -361     49    425    428 148.4   6.7  34122  288.92 0854.32
2009/04/23 16:48:54.1     190   -354    131    402    423 151.7  18.1  34124  288.95 0854.32
2009/04/23 16:48:54.2     424   -219    169    478    506 117.3  20.3  34124  288.96 0854.32
2009/04/23 16:48:54.3     509   -201    163    548    572 111.6  16.6  34134  289.13 0854.32
2009/04/23 16:48:54.4     451   -227    166    506    533 116.8  18.2  34142  289.28 0854.32
2009/04/23 16:48:54.5     232   -231    253    328    414 134.8  41.6  34132  289.11 0854.32
2009/04/23 16:48:54.6      36   -348    244    350    426 174.0  38.5  34138  289.21 0854.32
2009/04/23 16:48:54.7      21   -323    245    324    406 176.3  40.8  34150  289.40 0854.32
2009/04/23 16:48:54.8     -32   -441    275    443    521 184.2  34.9  34162  289.59 0854.32
2009/04/23 16:48:54.9    -160   -400    274    431    510 201.8  35.5  34146  289.32 0854.32
2009/04/23 16:48:55.0    -245   -461    184    523    555 208.0  19.4  34138  289.21 0854.32
2009/04/23 16:48:55.1    -416   -316     65    523    528 232.8   7.1  34068  288.03 0854.32
2009/04/23 16:48:55.2    -409   -296     38    506    508 234.1   4.3  34052  287.74 0854.32
2009/04/23 16:48:55.3    -465   -227     15    518    519 243.9   1.7  34064  287.96 0854.32
2009/04/23 16:48:55.4    -356   -149     20    387    388 247.3   3.0  34078  288.20 0854.32
2009/04/23 16:48:55.5    -100   -158     22    188    190 212.5   6.9  34086  288.33 0854.32
2009/04/23 16:48:55.6    -195   -263     94    328    342 216.5  16.0  34120  288.88 0854.32
2009/04/23 16:48:55.7    -119   -400    -54    418    422 196.6  -7.4  34124  288.95 0854.32
2009/04/23 16:48:55.8    -165   -501    -28    528    529 198.3  -3.1  34136  289.18 0854.32
2009/04/23 16:48:55.9    -130   -420    -33    440    442 197.2  -4.4  34134  289.14 0854.32
2009/04/23 16:48:56.0     -77   -383    -34    391    393 191.5  -5.1  34136  289.15 0854.32
2009/04/23 16:48:56.1    -298   -363   -112    470    484 219.4 -13.4  34162  289.59 0854.31
2009/04/23 16:48:56.2    -246   -317      7    402    403 217.9   1.1  34140  289.23 0854.31
2009/04/23 16:48:56.3    -263   -293    -26    395    396 221.9  -3.9  34136  289.18 0854.31
2009/04/23 16:48:56.4    -216   -342     97    405    417 212.2  13.5  34138  289.21 0854.31
2009/04/23 16:48:56.5    -288   -289    144    409    434 224.9  19.4  34136  289.17 0854.31
2009/04/23 16:48:56.6    -345   -188     16    394    395 241.4   2.3  34140  289.23 0854.31
2009/04/23 16:48:56.7    -321   -297    -93    438    448 227.2 -12.0  34124  288.97 0854.31
2009/04/23 16:48:56.8    -380   -236   -127    448    466 238.1 -15.9  34126  289.00 0854.31
2009/04/23 16:48:56.9    -458   -179   -176    493    524 248.6 -19.7  34110  288.74 0854.31
2009/04/23 16:48:57.0    -348   -141    -27    376    377 247.9  -4.2  34120  288.91 0854.31
2009/04/23 16:48:57.1    -311   -256    -82    403    412 230.5 -11.5  34124  288.97 0854.31
2009/04/23 16:48:57.2    -177   -260    -16    315    316 214.2  -3.0  34120  288.90 0854.31
2009/04/23 16:48:57.3    -120   -300     81    324    335 201.8  14.2  34120  288.88 0854.31
2009/04/23 16:48:57.4    -160   -378    162    411    441 202.9  22.8  34112  288.77 0854.31
2009/04/23 16:48:57.5    -170   -306     82    351    361 209.0  13.3  34106  288.66 0854.31
2009/04/23 16:48:57.6     -80   -359     -5    368    369 192.7  -0.9  34112  288.77 0854.31
2009/04/23 16:48:57.7      24   -296      8    298    299 175.3   1.7  34110  288.71 0854.31
2009/04/23 16:48:57.8     -54   -335      9    340    341 189.2   1.6  34106  288.67 0854.31
2009/04/23 16:48:57.9     -32   -421      8    423    424 184.4   1.1  34112  288.75 0854.31
2009/04/23 16:48:58.0    -102   -409     39    422    424 194.0   5.3  34110  288.73 0854.31
2009/04/23 16:48:58.1     -59   -293     84    299    311 191.5  15.7  34102  288.58 0854.31
2009/04/23 16:48:58.2      69   -225     43    236    240 163.0  10.3  34096  288.48 0854.31
2009/04/23 16:48:58.3    -122   -336    103    358    373 200.0  16.0  34080  288.22 0854.31
2009/04/23 16:48:58.4    -171   -269     42    319    322 212.5   7.6  34086  288.32 0854.31
2009/04/23 16:48:58.5    -136   -292     65    323    330 204.9  11.4  34088  288.36 0854.31
2009/04/23 16:48:58.6    -133   -354    107    379    394 200.7  15.8  34088  288.35 0854.31
2009/04/23 16:48:58.7    -108   -334    195    351    401 197.9  31.4  34086  288.32 0854.31
2009/04/23 16:48:58.8    -208   -392    166    445    474 208.0  21.5  34078  288.20 0854.31
2009/04/23 16:48:58.9    -108   -301    174    320    364 199.8  31.0  34100  288.57 0854.31
2009/04/23 16:48:59.0    -183   -360    129    405    426 207.0  17.7  34100  288.55 0854.31
2009/04/23 16:48:59.1     -85   -277    178    290    340 197.2  34.6  34098  288.53 0854.31
2009/04/23 16:48:59.2     -89   -235    155    252    295 200.9  34.5  34096  288.48 0854.31
2009/04/23 16:48:59.3    -118   -249    135    276    307 205.5  27.8  34104  288.61 0854.31
2009/04/23 16:48:59.4     -70   -245    204    255    326 196.0  42.7  34104  288.63 0854.31
2009/04/23 16:48:59.5       2   -151    197    152    248 179.1  58.5  34110  288.72 0854.31
2009/04/23 16:48:59.6     -40   -318    204    321    380 187.3  35.5  34100  288.55 0854.31
2009/04/23 16:48:59.7      51   -345    245    349    426 171.5  38.6  34100  288.56 0854.31
2009/04/23 16:48:59.8     122   -352    185    373    416 160.8  28.2  34098  288.51 0854.31
2009/04/23 16:48:59.9      78   -458     18    465    466 170.3   2.2  34090  288.39 0854.31
2009/04/23 16:49:00.1      45   -411     43    414    417 173.7   6.0  34094  288.45 0854.31
2009/04/23 16:49:00.2      44   -569    187    571    601 175.5  18.2  34086  288.31 0854.31
2009/04/23 16:49:00.3      19   -626    200    627    659 178.2  17.7  34092  288.42 0854.31
2009/04/23 16:49:00.4      24   -531     97    532    541 177.4  10.3  34094  288.47 0854.31
2009/04/23 16:49:00.5    -164   -398     22    431    432 202.4   3.0  34098  288.51 0854.31
2009/04/23 16:49:00.6    -110   -457     71    471    477 193.6   8.6  34092  288.42 0854.31
2009/04/23 16:49:00.7    -298   -385    -14    488    489 217.8  -1.7  34088  288.34 0854.31
2009/04/23 16:49:00.8      18   -297    164    298    340 176.5  31.4  34070  288.04 0854.31
2009/04/23 16:49:00.9    -115   -189    239    222    326 211.4  52.5  34100  288.56 0854.31
2009/04/23 16:49:01.0     -63   -100    152    119    193 212.5  57.9  34102  288.58 0854.31
2009/04/23 16:49:01.1    -217   -202    156    297    335 227.1  30.1  34088  288.36 0854.31
2009/04/23 16:49:01.2    -288   -164    116    332    351 240.2  20.0  34074  288.13 0854.31
2009/04/23 16:49:01.3    -140   -301     55    333    338 204.9   9.4  34094  288.44 0854.31
2009/04/23 16:49:01.4     -61   -344     49    350    354 190.1   8.1  34096  288.50 0854.31
2009/04/23 16:49:01.5     -23   -523    143    524    544 182.6  15.3  34092  288.41 0854.31
2009/04/23 16:49:01.6    -173   -578    115    604    615 196.7  10.8  34080  288.22 0854.31
2009/04/23 16:49:01.7    -129   -471    163    489    516 195.4  18.4  34092  288.42 0854.31
2009/04/23 16:49:01.8     -90   -472    135    481    500 190.9  15.7  34090  288.40 0854.31
2009/04/23 16:49:01.9    -171   -481    208    511    551 199.6  23.5  34092  288.41 0854.31
2009/04/23 16:49:02.0    -122   -315    139    338    365 201.2  23.6  34098  288.52 0854.31
2009/04/23 16:49:02.1    -154   -187    -74    243    254 219.4 -21.8  34078  288.19 0854.31
2009/04/23 16:49:02.2    -116   -305   -134    327    353 200.9 -27.9  34080  288.22 0854.31
2009/04/23 16:49:02.3    -243   -365   -149    439    463 213.7 -23.6  34078  288.19 0854.31
2009/04/23 16:49:02.4    -190   -421   -140    462    484 204.3 -16.9  34084  288.27 0854.31
2009/04/23 16:49:02.5    -281   -440    -57    523    527 212.6  -6.3  34070  288.06 0854.31
2009/04/23 16:49:02.6    -267   -446   -144    520    540 210.9 -15.5  34080  288.23 0854.31
2009/04/23 16:49:02.7    -323   -337   -158    468    495 223.8 -18.7  34082  288.24 0854.31
2009/04/23 16:49:02.8    -444   -333   -186    556    587 233.1 -18.6  34092  288.42 0854.31
2009/04/23 16:49:02.9    -222   -342   -115    408    425 213.0 -15.8  34094  288.45 0854.31
2009/04/23 16:49:03.0    -454   -418   -198    618    648 227.4 -22.9  34080  288.23 0854.31
2009/04/23 16:49:03.1    -420   -395   -256    577    631 226.8 -30.0  34074  288.10 0854.31
2009/04/23 16:49:03.2    -335   -493   -171    596    620 214.2 -20.7  34076  288.15 0854.31
2009/04/23 16:49:03.3    -104   -258   -173    279    328 202.1 -39.3  34070  288.05 0854.31
2009/04/23 16:49:03.4     144   -228    -88    270    285 147.7 -18.1  34090  288.37 0854.31
2009/04/23 16:49:03.5    -246   -320     65    404    410 217.6   9.2  34116  288.82 0854.31
2009/04/23 16:49:03.6    -236   -251    152    345    377 223.3  25.2  34100  288.57 0854.31
2009/04/23 16:49:03.7     -37   -217    193    221    293 189.8  45.8  34088  288.34 0854.31
2009/04/23 16:49:03.8     -55   -165    239    175    296 198.5  60.5  34092  288.41 0854.31
2009/04/23 16:49:03.9     -19   -379    264    380    462 183.0  38.3  34072  288.09 0854.31
2009/04/23 16:49:04.0     -65   -400    363    406    544 189.2  46.4  34074  288.13 0854.31
2009/04/23 16:49:04.1     -96   -357    377    370    528 195.2  50.6  34072  288.08 0854.31
2009/04/23 16:49:04.2     -22   -208    267    210    339 186.2  57.9  34086  288.32 0854.30
2009/04/23 16:49:04.3      25   -136    182    139    229 169.3  58.7  34098  288.52 0854.30
2009/04/23 16:49:04.4     -14   -262    239    263    355 183.1  47.0  34080  288.22 0854.30
2009/04/23 16:49:04.5     -40   -328    308    331    452 187.1  47.9  34080  288.21 0854.30
2009/04/23 16:49:04.6       2   -233    234    234    330 179.3  50.1  34088  288.34 0854.30
2009/04/23 16:49:04.7      -4   -188    270    189    329 181.4  61.8  34084  288.29 0854.30
2009/04/23 16:49:04.8      -9   -153    222    154    270 183.6  62.1  34094  288.46 0854.30
2009/04/23 16:49:04.9     -50   -293    229    298    375 189.8  41.4  34082  288.25 0854.30
2009/04/23 16:49:05.0     -31   -398    363    400    540 184.5  46.9  34080  288.22 0854.30
2009/04/23 16:49:05.1      21   -349    357    350    499 176.5  50.7  34080  288.23 0854.30
2009/04/23 16:49:05.2      80   -344    356    354    502 166.9  50.1  34092  288.41 0854.30
2009/04/23 16:49:05.3     147   -328    314    360    477 155.8  45.6  34088  288.34 0854.30
2009/04/23 16:49:05.4     108   -319    268    338    431 161.2  42.4  34088  288.34 0854.30
2009/04/23 16:49:05.5     150   -252    281    294    406 149.3  48.7  34084  288.27 0854.30
2009/04/23 16:49:05.6      85   -229    233    245    338 159.5  48.5  34068  288.02 0854.30
2009/04/23 16:49:05.7     182   -352    174    397    433 152.6  25.2  34078  288.17 0854.30
2009/04/23 16:49:05.8     222   -350    143    415    440 147.6  19.1  34076  288.14 0854.30
2009/04/23 16:49:05.9     204   -381    152    433    458 151.9  20.0  34076  288.14 0854.30
2009/04/23 16:49:06.0     232   -372    210    439    486 148.0  27.3  34072  288.07 0854.30
2009/04/23 16:49:06.1     255   -462    337    528    626 151.1  35.6  34070  288.04 0854.30
2009/04/23 16:49:06.2     165   -388    297    422    516 157.0  38.6  34066  287.98 0854.30
2009/04/23 16:49:06.3     118   -511    367    525    640 167.0  38.4  34066  287.98 0854.30
2009/04/23 16:49:06.4     149   -359    174    389    426 157.4  25.8  34070  288.06 0854.30
2009/04/23 16:49:06.5    -168   -280    -15    327    328 210.9  -2.7  34070  288.05 0854.30
2009/04/23 16:49:06.6    -214   -261    -44    338    341 219.4  -7.5  34076  288.15 0854.30
2009/04/23 16:49:06.7     -64   -332     48    339    343 191.0   8.1  34080  288.22 0854.30
2009/04/23 16:49:06.8     -39   -397     42    399    402 185.7   6.1  34070  288.05 0854.30
2009/04/23 16:49:06.9     -25   -406    229    407    467 183.6  32.0  34064  287.95 0854.30
2009/04/23 16:49:07.0     -21   -276    200    277    341 184.4  39.5  34082  288.24 0854.30
2009/04/23 16:49:07.1    -193   -248     -4    315    316 217.9  -0.9  34082  288.24 0854.30
2009/04/23 16:49:07.2    -260   -295    -24    394    395 221.5  -3.5  34080  288.23 0854.29
2009/04/23 16:49:07.3     -94   -261     65    278    286 200.0  13.2  34082  288.24 0854.29
2009/04/23 16:49:07.4     -50   -267    148    272    309 190.6  31.3  34068  288.02 0854.29
2009/04/23 16:49:07.5      19   -247    191    248    313 175.5  41.5  34078  288.17 0854.29
2009/04/23 16:49:07.6     -99   -418    319    430    535 193.4  40.1  34088  288.35 0854.29
2009/04/23 16:49:07.7    -116   -419    329    435    545 195.5  40.8  34104  288.62 0854.29
2009/04/23 16:49:07.8    -163   -369    135    404    427 203.9  18.5  34096  288.50 0854.29
2009/04/23 16:49:07.9    -283   -203    219    349    412 234.3  35.2  34092  288.42 0854.29
2009/04/23 16:49:08.0    -245   -273    172    367    405 221.9  27.0  34068  288.03 0854.29
2009/04/23 16:49:08.1     -89   -291    192    305    360 197.0  35.3  34044  287.61 0854.29
2009/04/23 16:49:08.2     -64   -333    372    340    503 191.0  53.0  34074  288.12 0854.29
2009/04/23 16:49:08.3      -8   -189    245    190    310 182.5  58.4  34080  288.21 0854.29
2009/04/23 16:49:08.4      10   -136    183    137    228 175.6  59.4  34084  288.28 0854.29
2009/04/23 16:49:08.5    -161   -151     83    221    236 226.9  21.7  34072  288.08 0854.29
2009/04/23 16:49:08.6     -72    -54     -3     91     92 233.1  -2.2  34070  288.04 0854.29
2009/04/23 16:49:08.7     146     -9     41    147    153  93.9  15.6  34076  288.14 0854.29
2009/04/23 16:49:08.8     142   -119     84    186    204 130.0  25.9  34072  288.09 0854.29
2009/04/23 16:49:08.9     238   -126     45    270    274 118.0   9.5  34072  288.07 0854.29
2009/04/23 16:49:09.0     115   -136     41    179    184 139.9  12.9  34072  288.08 0854.29
2009/04/23 16:49:09.1     154   -127     98    200    222 129.6  28.0  34068  288.01 0854.29
2009/04/23 16:49:09.2     263   -149      6    303    304 119.5   1.2  34066  287.97 0854.29
2009/04/23 16:49:09.3     261   -144     96    299    315 118.9  17.9  34062  287.90 0854.29
2009/04/23 16:49:09.4     401   -153    171    430    462 110.9  23.0  34060  287.89 0854.29
2009/04/23 16:49:09.5     357    -91    190    369    415 104.3  29.3  34066  287.98 0854.29
2009/04/23 16:49:09.6     322   -114    192    342    392 109.6  31.7  34070  288.05 0854.29
2009/04/23 16:49:09.7     284    -71    104    293    310 104.2  20.0  34066  287.99 0854.29
2009/04/23 16:49:09.8     222   -146    164    266    312 123.3  34.6  34068  288.00 0854.29
2009/04/23 16:49:09.9     230   -112     70    256    266 116.0  15.3  34068  288.02 0854.29
2009/04/23 16:49:10.0     243   -114    165    269    315 115.2  34.4  34070  288.04 0854.29
2009/04/23 16:49:10.1     300   -121    150    324    357 112.0  26.6  34066  287.98 0854.29
2009/04/23 16:49:10.2     178   -241    191    300    355 143.5  35.5  34064  287.96 0854.29
2009/04/23 16:49:10.3      85   -269    274    283    393 162.4  49.0  34070  288.06 0854.29
2009/04/23 16:49:10.4      47   -274    262    279    382 170.2  48.0  34070  288.06 0854.29
2009/04/23 16:49:10.5      64   -194    210    205    293 161.7  50.7  34072  288.07 0854.29
2009/04/23 16:49:10.6     -38   -132    302    138    332 196.0  73.8  34078  288.17 0854.29
2009/04/23 16:49:10.7      49    -81    195     95    216 148.8  72.7  34078  288.20 0854.29
2009/04/23 16:49:10.8      70   -168    213    183    280 157.3  54.8  34074  288.12 0854.29
2009/04/23 16:49:10.9     152   -167    252    226    338 137.7  53.5  34074  288.10 0854.29
2009/04/23 16:49:11.0     -62   -236    352    245    428 194.9  62.0  34064  287.94 0854.29
2009/04/23 16:49:11.1     -14   -316    347    317    469 182.7  53.0  34070  288.06 0854.29
2009/04/23 16:49:11.2     124    -68    286    142    319 118.8  71.8  34088  288.34 0854.30
2009/04/23 16:49:11.3      14    -58    173     60    183 165.7  80.7  34086  288.31 0854.30
2009/04/23 16:49:11.4      39   -364    140    367    392 173.8  22.0  34060  287.89 0854.30
2009/04/23 16:49:11.5      70   -320    110    328    347 167.6  18.6  34064  287.96 0854.30
2009/04/23 16:49:11.6     195   -342    159    394    424 150.3  23.1  34064  287.95 0854.30
2009/04/23 16:49:11.7     229   -275    179    359    401 140.2  28.4  34064  287.96 0854.30
2009/04/23 16:49:11.8     147   -364    168    393    427 157.9  24.5  34068  288.01 0854.30
2009/04/23 16:49:11.9     298   -493    161    577    600 148.8  15.6  34056  287.82 0854.30
2009/04/23 16:49:12.0     434   -572    126    719    731 142.8  10.0  34064  287.93 0854.30
2009/04/23 16:49:12.1     424   -596     11    732    733 144.5   0.9  34062  287.91 0854.30
2009/04/23 16:49:12.2     267   -595     34    653    654 155.8   3.0  34052  287.74 0854.30
2009/04/23 16:49:12.3     166   -454    137    484    504 159.9  15.8  34058  287.83 0854.30
2009/04/23 16:49:12.4     248   -414    123    483    499 149.1  14.3  34062  287.90 0854.30
2009/04/23 16:49:12.5     192   -369    149    417    442 152.5  20.4  34064  287.95 0854.30
2009/04/23 16:49:12.6      66   -500    315    505    595 172.4  35.0  34068  288.01 0854.30
2009/04/23 16:49:12.7      45   -476    103    479    491 174.6  12.2  34074  288.12 0854.30
2009/04/23 16:49:12.8     118   -450    178    466    498 165.2  22.0  34068  288.00 0854.30
2009/04/23 16:49:12.9     149   -363    217    393    448 157.7  31.4  34068  288.02 0854.30
2009/04/23 16:49:13.0     296   -214    128    366    388 125.9  19.3  34070  288.06 0854.30
2009/04/23 16:49:13.1      87   -176    128    197    234 153.7  36.3  34072  288.09 0854.30
2009/04/23 16:49:13.2     112   -377    142    394    420 163.5  19.9  34072  288.07 0854.30
2009/04/23 16:49:13.3    -149   -448    173    473    503 198.4  21.0  34068  288.02 0854.30
2009/04/23 16:49:13.4      55   -506     48    510    513 173.8   5.4  34072  288.08 0854.30
2009/04/23 16:49:13.5     102   -418    -79    431    439 166.2 -10.4  34072  288.09 0854.30
2009/04/23 16:49:13.6     111   -550    -12    562    563 168.5  -1.3  34070  288.06 0854.30
2009/04/23 16:49:13.7     111   -472    -18    485    486 166.7  -2.2  34068  288.03 0854.30
2009/04/23 16:49:13.8      80   -365    -20    374    375 167.5  -3.1  34080  288.22 0854.30
2009/04/23 16:49:13.9     112   -390    -54    406    410 163.9  -7.7  34072  288.07 0854.30
2009/04/23 16:49:14.0     189   -481     15    518    519 158.5   1.7  34078  288.18 0854.30
2009/04/23 16:49:14.1     205   -431     40    478    480 154.5   4.9  34078  288.20 0854.30
2009/04/23 16:49:14.2     228   -423     98    481    492 151.6  11.6  34078  288.17 0854.30
2009/04/23 16:49:14.3     216   -492    101    538    548 156.3  10.7  34080  288.21 0854.30
2009/04/23 16:49:14.4     158   -435    150    464    488 160.0  17.9  34078  288.20 0854.30
2009/04/23 16:49:14.5     144   -461    104    484    496 162.6  12.2  34084  288.29 0854.30
2009/04/23 16:49:14.6     108   -529     85    541    548 168.4   9.0  34076  288.14 0854.30
2009/04/23 16:49:14.7     269   -606     44    664    666 156.1   3.8  34078  288.17 0854.30
2009/04/23 16:49:14.8     246   -523     14    578    579 154.8   1.4  34078  288.17 0854.30
2009/04/23 16:49:14.9     241   -442     -5    504    505 151.4  -0.6  34074  288.13 0854.30
2009/04/23 16:49:15.0     138   -369    121    395    414 159.4  17.1  34078  288.19 0854.30
2009/04/23 16:49:15.1      45   -293     66    297    305 171.1  12.6  34082  288.24 0854.30
2009/04/23 16:49:15.2      78   -308    139    318    347 165.7  25.1  34084  288.27 0854.29
2009/04/23 16:49:15.3     107   -307     74    326    335 160.8  12.8  34074  288.10 0854.29
2009/04/23 16:49:15.4      44   -211     90    216    234 168.0  23.8  34086  288.31 0854.29
2009/04/23 16:49:15.5     117   -196     43    229    234 149.3  10.8  34084  288.28 0854.29
2009/04/23 16:49:15.6     303   -351    124    464    481 139.2  15.0  34082  288.25 0854.29
2009/04/23 16:49:15.7     239   -365    181    437    473 146.8  23.8  34068  288.01 0854.29
2009/04/23 16:49:15.8     201   -388    270    437    513 152.6  34.6  34072  288.07 0854.29
2009/04/23 16:49:15.9    -147   -569    210    588    625 194.5  19.7  34080  288.22 0854.29
2009/04/23 16:49:16.0      70   -472    136    478    498 171.5  15.9  34074  288.10 0854.29
2009/04/23 16:49:16.1      75   -428    255    435    504 170.0  33.0  34070  288.05 0854.29
2009/04/23 16:49:16.2     193   -388    269    434    510 153.5  34.6  34090  288.37 0854.29
2009/04/23 16:49:16.3     112   -448    355    462    582 165.9  41.4  34076  288.16 0854.29
2009/04/23 16:49:16.4     190   -376    150    422    447 153.2  20.2  34082  288.26 0854.29
2009/04/23 16:49:16.5     133   -240    119    275    299 151.0  25.1  34084  288.27 0854.29
2009/04/23 16:49:16.6      15   -283    171    284    331 176.9  34.1  34086  288.32 0854.29
2009/04/23 16:49:16.7      44   -311    203    315    374 171.9  35.7  34086  288.32 0854.29
2009/04/23 16:49:16.8     -14   -316    207    317    378 182.6  36.2  34084  288.30 0854.29
2009/04/23 16:49:16.9     -23   -311    223    312    383 184.4  39.3  34088  288.35 0854.29
2009/04/23 16:49:17.0     -26   -212    195    214    289 187.1  47.0  34090  288.37 0854.29
2009/04/23 16:49:17.1     -59   -222     76    230    243 195.1  18.4  34080  288.22 0854.29
2009/04/23 16:49:17.2      98   -234    -28    254    256 157.3  -6.5  34078  288.17 0854.31
2009/04/23 16:49:17.3       4   -260    238    261    353 179.1  47.1  34080  288.22 0854.31
2009/04/23 16:49:17.4      52   -170    227    179    289 162.8  57.7  34082  288.26 0854.31
2009/04/23 16:49:17.5     126   -394    370    414    555 162.2  46.4  34082  288.24 0854.31
2009/04/23 16:49:17.6      85   -418    325    427    536 168.5  41.2  34082  288.24 0854.31
2009/04/23 16:49:17.7     -12   -410    285    411    500 181.8  38.3  34078  288.18 0854.31
2009/04/23 16:49:17.8     -31   -458    130    460    479 183.9  15.8  34100  288.54 0854.31
2009/04/23 16:49:17.9       0   -319    107    320    338 180.1  18.5  34084  288.27 0854.31
2009/04/23 16:49:18.0      21   -205      1    207    208 174.0   0.5  34078  288.20 0854.31
2009/04/23 16:49:18.1     167   -110    142    201    246 123.3  38.6  34082  288.25 0854.31
2009/04/23 16:49:18.2       4   -276     75    277    288 179.1  15.3  34086  288.31 0854.31
2009/04/23 16:49:18.3     -25   -269    109    271    292 185.4  23.0  34084  288.27 0854.31
2009/04/23 16:49:18.4    -146   -346    273    376    464 202.9  39.5  34076  288.16 0854.31
2009/04/23 16:49:18.5     -79   -321    206    331    389 193.9  35.2  34084  288.28 0854.31
2009/04/23 16:49:18.6    -223   -311    141    383    408 215.6  21.0  34080  288.22 0854.31
2009/04/23 16:49:18.7    -175   -274    202    326    383 212.6  35.0  34092  288.42 0854.31
2009/04/23 16:49:18.8     -79   -312    224    323    393 194.3  38.3  34076  288.15 0854.31
2009/04/23 16:49:18.9     -38   -228    293    232    373 189.6  57.7  34090  288.37 0854.31
2009/04/23 16:49:19.0     -19   -521    257    522    581 182.1  28.2  34086  288.31 0854.31
2009/04/23 16:49:19.1     -70   -486    191    492    527 188.2  22.4  34090  288.40 0854.31
2009/04/23 16:49:19.2    -121   -354    187    375    419 199.0  28.4  34096  288.50 0854.31
2009/04/23 16:49:19.3      49   -286    201    291    353 170.2  37.9  34090  288.40 0854.31
2009/04/23 16:49:19.4       7   -268    -46    269    274 178.4  -9.8  34098  288.51 0854.31
2009/04/23 16:49:19.5     -23   -152     47    154    162 188.9  17.1  34096  288.48 0854.31
2009/04/23 16:49:19.6      18    -89    106     91    139 168.4  55.4  34090  288.40 0854.31
2009/04/23 16:49:19.7     -55   -308    109    314    333 190.2  19.2  34080  288.22 0854.31
2009/04/23 16:49:19.8     -19   -323     69    324    332 183.5  12.2  34090  288.38 0854.31
2009/04/23 16:49:19.9     -17   -353     44    354    357 182.8   7.1  34086  288.33 0854.31
2009/04/23 16:49:20.0     -15   -303     59    304    310 182.9  11.1  34084  288.29 0854.31
2009/04/23 16:49:20.1       1   -354    122    355    376 179.8  19.1  34086  288.32 0854.31
2009/04/23 16:49:20.2     -70   -322    160    330    366 192.4  27.8  34088  288.35 0854.31
2009/04/23 16:49:20.3     -48   -211    105    217    241 192.9  27.8  34084  288.29 0854.31
2009/04/23 16:49:20.4    -142    -90     59    169    179 237.5  20.0  34086  288.33 0854.31
2009/04/23 16:49:20.5     -81    -93     51    124    134 221.0  23.1  34092  288.43 0854.31
2009/04/23 16:49:20.6     -31   -293    237    295    378 186.2  43.0  34084  288.28 0854.31
2009/04/23 16:49:20.7     -62   -326    146    333    363 190.9  25.2  34090  288.38 0854.31
2009/04/23 16:49:20.8       7   -449    142    450    472 179.0  17.5  34084  288.27 0854.31
2009/04/23 16:49:20.9     -48   -445    155    448    475 186.2  19.1  34082  288.25 0854.31
2009/04/23 16:49:21.0    -110   -324    286    343    446 198.8  43.8  34098  288.51 0854.31
2009/04/23 16:49:21.1      54   -421    149    425    451 172.6  19.4  34084  288.28 0854.31
2009/04/23 16:49:21.2      -8   -425    145    426    451 181.1  18.8  34086  288.33 0854.28
2009/04/23 16:49:21.3     -32   -329     99    331    346 185.6  16.6  34104  288.62 0854.28
2009/04/23 16:49:21.4    -122   -217     58    250    257 209.4  13.2  34098  288.53 0854.28
2009/04/23 16:49:21.5     -19   -310     79    311    321 183.6  14.3  34078  288.17 0854.28
2009/04/23 16:49:21.6      47   -236    127    241    272 168.5  30.2  34084  288.27 0854.28
2009/04/23 16:49:21.7      35   -247    137    250    285 171.8  31.3  34082  288.26 0854.28
2009/04/23 16:49:21.8      31   -265    150    267    306 173.3  31.6  34084  288.29 0854.28
2009/04/23 16:49:21.9      55   -312    166    317    357 170.0  29.8  34084  288.27 0854.28
2009/04/23 16:49:22.0      25   -253    182    255    313 174.2  39.1  34130  289.07 0854.28
2009/04/23 16:49:22.1      56   -274    146    280    315 168.4  29.8  34102  288.58 0854.28
2009/04/23 16:49:22.2      23   -281    194    283    343 175.1  37.8  34104  288.63 0854.28
2009/04/23 16:49:22.3      39   -284    190    287    344 172.0  36.5  34096  288.48 0854.28
2009/04/23 16:49:22.4      16   -260    147    261    299 176.4  31.6  34090  288.39 0854.28
2009/04/23 16:49:22.5     -36   -239    171    242    296 188.7  38.6  34088  288.34 0854.28
2009/04/23 16:49:22.6       5   -198    179    199    267 178.4  46.9  34096  288.49 0854.28
2009/04/23 16:49:22.7      -4   -300    153    301    337 180.9  29.1  34086  288.31 0854.28
2009/04/23 16:49:22.8     153   -257    164    300    341 149.3  31.0  34086  288.31 0854.28
2009/04/23 16:49:22.9     124   -215     90    249    265 149.9  19.9  34088  288.34 0854.28
2009/04/23 16:49:23.0     103   -276    137    295    325 159.5  26.9  34084  288.27 0854.28
2009/04/23 16:49:23.1      22   -266    159    268    311 175.1  33.5  34088  288.36 0854.28
2009/04/23 16:49:23.2      21   -206    152    208    257 174.0  39.7  34090  288.37 0854.32
2009/04/23 16:49:23.3       0   -218     -4    219    220 180.2  -1.2  34086  288.31 0854.32
2009/04/23 16:49:23.4     114    -43    -20    123    125 110.8  -9.4  34088  288.35 0854.32
2009/04/23 16:49:23.5     106    -72     21    129    131 124.1   9.5  34082  288.25 0854.32
2009/04/23 16:49:23.6     -35   -137    -18    142    144 194.7  -7.3  34088  288.36 0854.32
2009/04/23 16:49:23.7     -20   -114     53    116    127 190.2  26.2  34088  288.36 0854.32
2009/04/23 16:49:23.8       8   -102     35    103    109 175.5  18.9  34096  288.48 0854.32
2009/04/23 16:49:23.9      35   -129     49    134    142 164.9  20.9  34090  288.38 0854.32
2009/04/23 16:49:24.0      83   -100    116    130    174 140.3  46.4  34086  288.31 0854.32
2009/04/23 16:49:24.1     127    -82    102    152    183 122.9  37.0  34088  288.36 0854.32
2009/04/23 16:49:24.2      47    -74    111     88    141 147.4  57.5  34092  288.42 0854.32
2009/04/23 16:49:24.3      -1   -128    164    129    208 180.5  57.9  34096  288.50 0854.32
2009/04/23 16:49:24.4     -88   -150    186    175    255 210.5  52.1  34100  288.55 0854.32
2009/04/23 16:49:24.5     -85    -96    174    129    216 221.4  60.0  34096  288.48 0854.32
2009/04/23 16:49:24.6    -132   -116    126    176    216 228.7  39.5  34108  288.69 0854.32
2009/04/23 16:49:24.7     -60    -50    120     79    143 230.4  64.1  34110  288.72 0854.32
2009/04/23 16:49:24.8     -66    -22     64     70     94 251.4  47.5  34114  288.80 0854.32
2009/04/23 16:49:24.9     -83    -44     83     94    125 242.0  45.9  34118  288.86 0854.32
2009/04/23 16:49:25.0    -147     11     94    148    175 274.4  35.5  34122  288.94 0854.32
2009/04/23 16:49:25.1     -67     20    113     70    132 286.8  64.7  34122  288.92 0854.32
2009/04/23 16:49:25.2    -199     14     62    200    210 274.3  17.4  34114  288.80 0854.29
2009/04/23 16:49:25.3    -210     29     27    213    215 278.0   7.5  34128  289.04 0854.29
2009/04/23 16:49:25.4    -122     -3     -2    123    124 268.3  -1.3  34108  288.70 0854.29
2009/04/23 16:49:25.5     -57    -61     -7     84     85 222.8  -5.2  34114  288.79 0854.29
2009/04/23 16:49:25.6     -50   -110    -33    121    126 204.5 -15.5  34108  288.70 0854.29
2009/04/23 16:49:25.7      -5   -106     29    107    111 183.1  15.2  34104  288.64 0854.29
2009/04/23 16:49:25.8     -28   -106     90    110    142 195.2  43.7  34116  288.82 0854.29
2009/04/23 16:49:25.9       0    -92    127     93    157 179.5  60.3  34132  289.11 0854.29
2009/04/23 16:49:26.0     -18    -77     90     80    120 193.4  53.7  34128  289.04 0854.29
2009/04/23 16:49:26.1     -65    -72    127     98    160 221.9  58.5  34114  288.80 0854.29
2009/04/23 16:49:26.2     -90   -119    156    150    216 217.0  51.4  34112  288.77 0854.22
2009/04/23 16:49:26.3     -83   -184    199    202    283 204.3  49.9  34110  288.73 0854.22
2009/04/23 16:49:26.5     -70   -104    121    126    174 214.3  49.2  34110  288.74 0854.22
2009/04/23 16:49:26.5     -13    -71    143     73    160 190.7  70.8  34116  288.84 0854.22
2009/04/23 16:49:26.6    -109    -69    108    130    169 237.5  43.8  34120  288.91 0854.22
2009/04/23 16:49:26.8     -15    -63     87     65    108 193.4  59.4  34108  288.69 0854.22
2009/04/23 16:49:26.9       4    -70    118     71    137 176.4  66.7  34116  288.84 0854.22
2009/04/23 16:49:27.0     -42    -45     82     62    102 223.3  59.0  34122  288.94 0854.22
2009/04/23 16:49:27.1    -114    -63     35    131    136 241.1  15.2  34118  288.86 0854.22
2009/04/23 16:49:27.2     -46    -70     86     84    120 213.4  50.1  34114  288.79 0854.22
2009/04/23 16:49:27.3     -47    -85     50     98    110 209.0  28.7  34120  288.91 0854.22
2009/04/23 16:49:27.4    -110    -16    -42    112    119 261.6 -25.4  34120  288.91 0854.22
2009/04/23 16:49:27.5    -220      9    -57    221    229 272.5 -14.5  34112  288.75 0854.22
2009/04/23 16:49:27.6    -177    -90    -38    199    203 242.9 -10.9  34108  288.70 0854.22
2009/04/23 16:49:27.7    -119    -62     12    135    136 242.5   5.4  34108  288.69 0854.22
2009/04/23 16:49:27.8    -100    -51     40    113    119 242.9  20.0  34118  288.87 0854.22
2009/04/23 16:49:27.9    -135      5    -17    136    138 272.5  -7.2  34116  288.82 0854.22
2009/04/23 16:49:28.0    -150    -21    -19    152    154 262.0  -7.2  34112  288.77 0854.22
2009/04/23 16:49:28.1    -140     14     -5    141    142 276.1  -2.2  34118  288.87 0854.22
2009/04/23 16:49:28.2    -127      3     38    128    134 271.7  16.8  34144  289.30 0854.22
2009/04/23 16:49:28.3    -113     41    -31    121    125 290.0 -14.5  34120  288.89 0854.15
2009/04/23 16:49:28.4    -164     58    -72    174    188 289.5 -28.0  34128  289.02 0854.15
2009/04/23 16:49:28.5    -188    -14    -65    189    199 265.7 -23.8  34126  288.99 0854.15
2009/04/23 16:49:28.6    -137    -45     32    145    149 251.8  12.6  34128  289.04 0854.15
2009/04/23 16:49:28.7    -178      4     43    179    185 271.5  13.5  34128  289.04 0854.15
2009/04/23 16:49:28.8    -136     27     42    139    146 281.4  16.8  34128  289.02 0854.15
2009/04/23 16:49:28.9    -164     -1    127    165    208 269.6  41.7  34136  289.16 0854.15
2009/04/23 16:49:29.0    -183     -1    144    184    233 269.4  42.0  34150  289.40 0854.15
2009/04/23 16:49:29.1    -144    106    127    180    220 306.4  38.8  34154  289.48 0854.15
2009/04/23 16:49:29.2    -209     75    111    223    249 289.7  28.2  34140  289.22 0854.15
2009/04/23 16:49:29.3    -146     23     90    148    173 279.2  34.8  34140  289.24 0854.15
2009/04/23 16:49:29.4    -128    -26    108    131    169 258.5  43.7  34126  289.01 0854.15
2009/04/23 16:49:29.5     -84    -27     89     89    125 251.8  50.1  34124  288.96 0854.15
2009/04/23 16:49:29.6     -26    -99     90    103    136 195.1  45.8  34128  289.02 0854.15
2009/04/23 16:49:29.7     -10   -117    132    118    177 184.9  53.5  34134  289.14 0854.15
2009/04/23 16:49:29.8     -26    -93    135     97    166 195.6  60.5  34124  288.96 0854.15
2009/04/23 16:49:29.9     -38    -96    105    104    147 201.8  50.1  34118  288.87 0854.15
2009/04/23 16:49:30.0     -53    -92     69    107    127 209.9  35.6  34122  288.94 0854.15
2009/04/23 16:49:30.1    -116    -84     39    144    150 234.0  15.3  34148  289.38 0854.15
2009/04/23 16:49:30.2    -139    -50      6    148    149 250.0   2.3  34160  289.57 0854.15
2009/04/23 16:49:30.3     -80    -53    -10     97     98 236.3  -6.2  34164  289.65 0854.16
2009/04/23 16:49:30.4     -80    -19     -8     83     84 256.3  -5.6  34154  289.46 0854.16
2009/04/23 16:49:30.5     -36     -1     -4     37     38 267.4  -7.2  34150  289.41 0854.16
2009/04/23 16:49:30.6     -20    -32     21     38     43 212.5  31.4  34154  289.46 0854.16
2009/04/23 16:49:30.7      14    -39     66     42     78 159.1  64.7  34170  289.74 0854.16
2009/04/23 16:49:30.8    -138    -46     91    146    172 251.6  35.0  34166  289.69 0854.16
2009/04/23 16:49:30.9    -117   -160    131    199    238 216.3  36.5  34162  289.62 0854.16
2009/04/23 16:49:31.0    -123   -193    109    230    254 212.5  27.2  34162  289.59 0854.16
2009/04/23 16:49:31.1    -160    -40     90    165    187 255.8  31.0  34152  289.43 0854.16
2009/04/23 16:49:31.2    -125     27     37    129    135 282.4  16.3  34146  289.35 0854.16
2009/04/23 16:49:31.3     -97     22     34    100    106 283.3  19.2  34156  289.50 0854.16
2009/04/23 16:49:31.4    -101     51     12    114    115 297.1   6.5  34176  289.85 0854.16
2009/04/23 16:49:31.5     -86      0     30     87     93 270.0  19.4  34168  289.72 0854.16
2009/04/23 16:49:31.6     -52    -31     29     61     67 238.5  27.2  34160  289.58 0854.16
2009/04/23 16:49:31.7     -41    -69     72     81    108 210.7  46.4  34154  289.46 0854.16
2009/04/23 16:49:31.8     -51   -154    141    163    215 198.5  45.6  34166  289.69 0854.16
2009/04/23 16:49:31.9     -42   -176    118    182    216 193.6  35.7  34172  289.77 0854.16
2009/04/23 16:49:32.0     -33   -115    151    120    192 196.0  57.5  34160  289.57 0854.16
2009/04/23 16:49:32.1     -82   -138    111    161    195 210.7  37.8  34178  289.89 0854.16
2009/04/23 16:49:32.2     -23   -104    112    107    154 192.9  51.2  34162  289.62 0854.16
2009/04/23 16:49:32.3       0   -116    136    117    179 180.0  55.0  34166  289.69 0854.22
2009/04/23 16:49:32.4      -5   -142    131    143    193 182.2  47.7  34160  289.57 0854.22
2009/04/23 16:49:32.5     -46   -226    102    231    252 191.6  25.2  34210  290.41 0854.22
2009/04/23 16:49:32.6     -60   -253     89    261    276 193.4  18.9  34208  290.39 0854.22
2009/04/23 16:49:32.7     -67   -212     90    223    240 197.6  23.1  34210  290.42 0854.22
2009/04/23 16:49:32.8    -166   -213    218    271    347 217.9  43.1  34206  290.34 0854.22
2009/04/23 16:49:32.9    -220   -252    258    335    422 221.2  41.6  34192  290.13 0854.22
2009/04/23 16:49:33.0    -226   -232     36    325    328 224.2   6.5  34206  290.34 0854.22
2009/04/23 16:49:33.1    -330   -215     29    394    396 236.9   4.3  34214  290.50 0854.22
2009/04/23 16:49:33.2    -355   -210     31    413    415 239.4   4.4  34200  290.24 0854.22
2009/04/23 16:49:33.3    -356   -328     50    485    488 227.3   6.0  34178  289.89 0854.22
2009/04/23 16:49:33.4    -216   -297     69    368    375 216.1  10.7  34146  289.35 0854.22
2009/04/23 16:49:33.5    -134   -271    109    303    322 206.3  20.6  34162  289.59 0854.22
2009/04/23 16:49:33.6    -111   -264    151    287    324 202.9  30.0  34152  289.44 0854.22
2009/04/23 16:49:33.7     -11   -248    155    249    293 182.7  35.2  34158  289.54 0854.22
2009/04/23 16:49:33.8      56   -245    126    252    281 167.1  28.7  34148  289.36 0854.22
2009/04/23 16:49:33.9      39   -243    123    247    275 170.9  28.2  34160  289.56 0854.22
2009/04/23 16:49:34.0      21   -281    108    282    301 175.5  22.0  34154  289.47 0854.22
2009/04/23 16:49:34.1      43   -254    164    258    305 170.4  35.5  34158  289.54 0854.22
2009/04/23 16:49:34.2      40   -241    155    245    289 170.4  35.5  34160  289.56 0854.22
2009/04/23 16:49:34.3       3   -186    123    187    223 178.9  36.3  34178  289.87 0854.18
2009/04/23 16:49:34.4     -86   -196    137    215    254 203.8  35.6  34188  290.05 0854.18
2009/04/23 16:49:34.5     -35   -150    192    155    246 193.3  56.9  34172  289.79 0854.18
2009/04/23 16:49:34.6     -34     73    153     81    173 334.6  69.8  34180  289.91 0854.18
2009/04/23 16:49:34.7     -25    -24    216     35    218 226.7  90.0  34160  289.58 0854.18
2009/04/23 16:49:34.8     -42    -73    274     85    286 210.3  82.3  34176  289.83 0854.18
2009/04/23 16:49:34.9     -31     79    258     86    271 338.2  81.0  34160  289.58 0854.18
2009/04/23 16:49:35.0    -122   -392    270    411    491 197.3  36.5  34156  289.49 0854.18
2009/04/23 16:49:35.1     -66   -339    198    346    398 191.1  32.4  34156  289.50 0854.18
2009/04/23 16:49:35.2     -72   -122    261    142    297 210.7  68.9  34170  289.73 0854.18
2009/04/23 16:49:35.3     -54    -86    187    102    213 212.1  68.9  34162  289.62 0854.18
2009/04/23 16:49:35.4    -126    -60    224    140    264 244.6  64.7  34168  289.72 0854.18
2009/04/23 16:49:35.5     -22   -292    233    293    374 184.4  42.6  34146  289.33 0854.18
2009/04/23 16:49:35.6     -82   -213    295    229    373 201.2  58.4  34154  289.47 0854.18
2009/04/23 16:49:35.7     -23   -329    143    330    359 184.0  25.0  34142  289.28 0854.18
2009/04/23 16:49:35.8    -102   -325     87    341    353 197.4  14.4  34136  289.16 0854.18
2009/04/23 16:49:35.9    -139   -202    143    246    284 214.5  32.7  34150  289.39 0854.18
2009/04/23 16:49:36.0    -270   -276     73    387    394 224.4  10.8  34152  289.42 0854.18
2009/04/23 16:49:36.1    -263   -281    104    385    399 223.1  15.1  34148  289.37 0854.18
2009/04/23 16:49:36.2    -278   -244    124    371    392 228.7  18.5  34146  289.35 0854.18
2009/04/23 16:49:36.3    -251   -259    130    362    384 224.1  20.6  34156  289.52 0854.17
2009/04/23 16:49:36.4    -247   -246    137    349    374 225.1  22.7  34152  289.45 0854.17
2009/04/23 16:49:36.5    -126   -228     89    261    276 209.0  18.9  34150  289.41 0854.17
2009/04/23 16:49:36.6     -58   -286    151    293    329 191.6  29.4  34164  289.63 0854.17
2009/04/23 16:49:36.7     -18   -229    163    230    281 184.7  38.6  34162  289.61 0854.17
2009/04/23 16:49:36.8     -30   -177    195    180    265 189.6  52.5  34154  289.47 0854.17
2009/04/23 16:49:36.9     -40   -178    229    183    293 192.7  57.3  34174  289.81 0854.17
2009/04/23 16:49:37.0      42   -101    189    110    218 157.3  67.2  34200  290.25 0854.17
2009/04/23 16:49:37.1     -12   -189    162    190    249 183.8  44.8  34188  290.04 0854.17
2009/04/23 16:49:37.2     -59   -222    156    230    277 195.1  37.6  34184  289.98 0854.17
2009/04/23 16:49:37.3    -136   -136     14    193    194 224.8   4.2  34176  289.84 0854.17
2009/04/23 16:49:37.4     -30   -156    127    160    204 191.1  42.4  34166  289.69 0854.17
2009/04/23 16:49:37.5     -16   -260    170    261    311 183.6  35.6  34164  289.63 0854.17
2009/04/23 16:49:37.6     -20   -261     93    262    279 184.5  19.6  34170  289.73 0854.17
2009/04/23 16:49:37.7     -16   -151     58    152    162 186.2  21.7  34162  289.60 0854.17
2009/04/23 16:49:37.8     111   -110     65    157    169 134.9  23.8  34190  290.09 0854.17
2009/04/23 16:49:37.9      83   -209     74    226    238 158.2  18.1  34166  289.66 0854.17
2009/04/23 16:49:38.0      46   -235     -8    240    241 168.9  -2.1  34154  289.46 0854.17
2009/04/23 16:49:38.1      60   -197     -7    207    208 163.1  -2.1  34150  289.41 0854.17
2009/04/23 16:49:38.2     -13   -174     81    175    192 184.5  27.0  34158  289.53 0854.17
2009/04/23 16:49:38.3      11   -149     79    150    169 175.6  29.8  34158  289.55 0854.18
2009/04/23 16:49:38.4     -53   -133     69    144    159 201.9  27.4  34150  289.41 0854.18
2009/04/23 16:49:38.5     -77    -64     13    101    102 230.4   7.5  34156  289.52 0854.18
2009/04/23 16:49:38.6    -128    -96     -6    160    161 233.1  -2.2  34160  289.58 0854.18
2009/04/23 16:49:38.7    -204    -50    -38    211    215 256.1 -10.3  34184  289.99 0854.18
2009/04/23 16:49:38.8    -224    -18    -57    225    233 265.2 -14.3  34178  289.87 0854.18
2009/04/23 16:49:38.9    -241    -24   -109    243    266 264.1 -30.6  34104  288.63 0854.18
2009/04/23 16:49:39.0    -187     63     69    198    210 288.6  19.2  34160  289.58 0854.18
2009/04/23 16:49:39.1    -169    -56     80    179    196 251.6  25.3  34170  289.75 0854.18
2009/04/23 16:49:39.2    -227   -164    -36    281    284 234.1  -7.5  34130  289.07 0854.18
2009/04/23 16:49:39.3    -289    -40    -93    292    306 262.1 -22.9  34138  289.19 0854.18
2009/04/23 16:49:39.4    -388    -29    -28    390    392 265.6  -4.2  34194  290.15 0854.18
2009/04/23 16:49:39.5    -321      4     19    322    323 270.8   3.5  34186  290.00 0854.18
2009/04/23 16:49:39.6    -335    -26    -18    337    338 265.5  -3.1  34130  289.06 0854.18
2009/04/23 16:49:39.7    -258   -121    -84    286    298 244.8 -21.2  34142  289.25 0854.18
2009/04/23 16:49:39.8    -251    -84      7    265    266 251.4   1.6  34136  289.15 0854.18
2009/04/23 16:49:39.9    -137    -63    -13    152    153 245.2  -5.1  34138  289.21 0854.18
2009/04/23 16:49:40.0     -38   -200    -25    204    206 190.9  -7.2  34138  289.19 0854.18
2009/04/23 16:49:40.1     -72   -202    -64    215    224 199.6 -21.7  34140  289.24 0854.18
2009/04/23 16:49:40.2     -37   -158    -70    163    177 193.1 -29.0  34140  289.24 0854.18
2009/04/23 16:49:40.3     -65    -64   -100     92    135 225.4 -56.6  34132  289.09 0854.24
2009/04/23 16:49:40.4     -39    -78    -96     88    130 206.7 -57.1  34162  289.60 0854.24
2009/04/23 16:49:40.5    -121   -100    -12    158    159 230.4  -4.4  34158  289.53 0854.24
2009/04/23 16:49:40.6    -147   -141    -49    205    211 226.2 -13.7  34162  289.62 0854.24
2009/04/23 16:49:40.7     -82   -131     29    155    158 212.1  10.6  34166  289.69 0854.24
2009/04/23 16:49:40.8     -56   -240    -16    247    248 193.3  -3.7  34146  289.34 0854.24
2009/04/23 16:49:40.9      -5   -234    -43    235    239 181.4 -10.4  34124  288.95 0854.24
2009/04/23 16:49:41.0      23   -253    -71    255    264 174.7 -20.2  34124  288.95 0854.24
2009/04/23 16:49:41.1       5   -231    -12    232    233 178.6  -3.1  34118  288.86 0854.24
2009/04/23 16:49:41.2      40   -132      8    139    140 163.1   3.3  34128  289.02 0854.24
2009/04/23 16:49:41.3      77   -120    145    143    203 147.4  50.1  34132  289.09 0854.24
2009/04/23 16:49:41.4      65   -104     96    123    156 147.9  41.7  34128  289.02 0854.24
2009/04/23 16:49:41.5     -15    -75    115     77    138 191.6  62.7  34136  289.16 0854.24
2009/04/23 16:49:41.6     -64   -115    141    132    193 209.0  52.1  34138  289.19 0854.24
2009/04/23 16:49:41.7     -83     60    139    103    173 306.0  60.0  34164  289.63 0854.24
2009/04/23 16:49:41.8     -97     11    147     98    176 277.0  63.4  34160  289.57 0854.24
2009/04/23 16:49:41.9    -206     22    109    208    234 276.1  29.8  34148  289.36 0854.24
2009/04/23 16:49:42.0    -207   -127    -37    243    246 238.5  -8.8  34146  289.32 0854.24
2009/04/23 16:49:42.1    -116   -208     83    239    254 209.2  19.2  34138  289.19 0854.24
2009/04/23 16:49:42.2    -171    -85    133    192    233 243.4  37.8  34132  289.11 0854.24
2009/04/23 16:49:42.3    -201   -109    152    229    274 241.4  37.0  34140  289.22 0854.27
2009/04/23 16:49:42.4    -235   -140    135    274    305 239.3  28.0  34134  289.14 0854.27
2009/04/23 16:49:42.5    -185   -103     97    212    233 240.9  26.4  34132  289.11 0854.27
2009/04/23 16:49:42.6    -154    -98     93    183    205 237.4  29.1  34136  289.16 0854.27
2009/04/23 16:49:42.7     -86    -72    101    113    151 230.0  46.4  34138  289.21 0854.27
2009/04/23 16:49:42.8      15    -31    111     35    116 152.8  80.7  34152  289.45 0854.27
2009/04/23 16:49:42.9      28   -333    161    335    371 175.2  27.4  34126  288.99 0854.27
2009/04/23 16:49:43.0      49   -247    232    252    342 168.7  47.6  34132  289.09 0854.27
2009/04/23 16:49:43.1      95   -289    211    305    370 161.7  38.0  34124  288.96 0854.27
2009/04/23 16:49:43.2     -16   -261    229    262    347 183.6  45.6  34134  289.14 0854.27
2009/04/23 16:49:43.3      13   -298    192    299    355 177.5  35.6  34146  289.35 0854.27
2009/04/23 16:49:43.4    -148   -135    160    201    256 227.6  42.7  34162  289.59 0854.27
2009/04/23 16:49:43.5      80   -282    256    294    389 164.2  45.7  34200  290.25 0854.27
2009/04/23 16:49:43.7     -42   -322    159    325    361 187.6  28.0  34180  289.91 0854.27
2009/04/23 16:49:43.7    -157   -181    124    240    270 221.0  29.3  34158  289.53 0854.27
2009/04/23 16:49:43.8     -21   -253     96    254    271 184.9  21.7  34150  289.41 0854.27
2009/04/23 16:49:43.9     -16   -247    167    248    298 183.8  37.4  34146  289.32 0854.27
2009/04/23 16:49:44.0     -27   -227    110    229    254 186.9  27.3  34162  289.61 0854.27
2009/04/23 16:49:44.1     -48   -249    218    254    334 191.1  45.1  34148  289.36 0854.27
2009/04/23 16:49:44.2    -107   -225    245    250    350 205.4  49.7  34132  289.10 0854.27
2009/04/23 16:49:44.3      -7   -280    192    281    340 181.6  37.6  34124  288.97 0854.27
2009/04/23 16:49:44.4     -19   -230    165    231    283 184.9  39.3  34138  289.20 0854.27
2009/04/23 16:49:44.5     -10   -226     89    227    243 182.6  22.3  34144  289.31 0854.27
2009/04/23 16:49:44.6      71   -112    160    133    208 147.5  56.3  34142  289.26 0854.27
2009/04/23 16:49:44.8      33   -105    161    111    195 162.6  62.4  34150  289.40 0854.27
2009/04/23 16:49:44.8     -22   -155    135    157    207 188.1  45.4  34142  289.26 0854.27
2009/04/23 16:49:44.9      33   -118     73    123    143 164.4  33.5  34144  289.31 0854.27
2009/04/23 16:49:45.0       3   -197    106    198    224 178.9  30.6  34144  289.31 0854.27
2009/04/23 16:49:45.1       9   -168     97    169    194 176.9  32.7  34142  289.26 0854.27
2009/04/23 16:49:45.2      14   -278     83    279    292 177.1  16.6  34152  289.42 0854.27
2009/04/23 16:49:45.3      -2   -263     77    264    276 180.5  16.4  34138  289.19 0854.27
2009/04/23 16:49:45.4      40   -264     54    268    274 171.3  11.6  34138  289.20 0854.27
2009/04/23 16:49:45.5     -35   -420     50    422    426 184.8   6.9  34136  289.17 0854.27
2009/04/23 16:49:45.6     -88   -489    135    497    516 190.2  15.2  34098  288.51 0854.27
2009/04/23 16:49:45.7     -88   -522    383    530    653 189.6  39.5  34104  288.62 0854.27
2009/04/23 16:49:45.8       0   -439    318    440    542 180.1  39.5  34096  288.49 0854.27
2009/04/23 16:49:45.9     -33   -466    302    468    556 184.1  35.9  34098  288.52 0854.27
2009/04/23 16:49:46.0      28   -600    245    601    649 177.3  23.5  34104  288.64 0854.27
2009/04/23 16:49:46.1     111   -452    240    466    524 166.1  29.3  34100  288.56 0854.27
2009/04/23 16:49:46.2      36   -468    110    470    483 175.5  13.2  34104  288.64 0854.27
2009/04/23 16:49:46.3      92   -283    183    298    349 162.0  34.8  34104  288.64 0854.28
2009/04/23 16:49:46.4     149   -234    183    278    332 147.5  36.4  34106  288.65 0854.28
2009/04/23 16:49:46.5     160   -227    132    279    308 144.8  27.1  34110  288.71 0854.28
2009/04/23 16:49:46.6      88   -192     92    212    231 155.3  25.1  34106  288.67 0854.28
2009/04/23 16:49:46.7      18   -292     74    293    303 176.4  14.3  34100  288.56 0854.28
2009/04/23 16:49:46.8      58   -264     13    271    272 167.6   2.9  34108  288.68 0854.28
2009/04/23 16:49:46.9     -36   -480    193    482    519 184.4  23.0  34114  288.79 0854.28
2009/04/23 16:49:47.0     -60   -483    243    487    544 187.1  28.5  34116  288.84 0854.28
2009/04/23 16:49:47.1       4   -275    173    276    325 179.1  35.1  34116  288.81 0854.28
2009/04/23 16:49:47.2      63    -98     90    117    147 147.0  41.7  34114  288.80 0854.28
2009/04/23 16:49:47.3       8   -115    110    116    159 175.6  48.7  34118  288.87 0854.28
2009/04/23 16:49:47.4      34    -67     92     76    119 152.8  56.4  34130  289.06 0854.28
2009/04/23 16:49:47.5     -51     61     94     80    123 320.4  54.8  34136  289.18 0854.28
2009/04/23 16:49:47.6      -5     41    161     42    166 352.9  85.4  34144  289.30 0854.28
2009/04/23 16:49:47.7     -79     -6    188     80    204 265.6  75.5  34126  288.99 0854.28
2009/04/23 16:49:47.8      90   -128    175    157    235 144.8  53.5  34118  288.87 0854.28
2009/04/23 16:49:47.9      -5   -218    123    219    251 181.4  32.1  34112  288.75 0854.28
2009/04/23 16:49:48.0      66   -186     10    198    199 160.4   3.1  34110  288.74 0854.28
2009/04/23 16:49:48.1      74   -100     74    125    145 143.5  33.5  34116  288.82 0854.28
2009/04/23 16:49:48.2      38    -17    118     42    125 114.4  80.2  34118  288.86 0854.28
2009/04/23 16:49:48.3     145     47    126    153    198  71.8  43.7  34114  288.80 0854.28
2009/04/23 16:49:48.4     129     86     96    156    183  56.3  35.0  34120  288.89 0854.28
2009/04/23 16:49:48.5      72    159    122    175    213  24.3  38.0  34114  288.80 0854.28
2009/04/23 16:49:48.6     120     38    174    126    214  72.3  60.6  34120  288.91 0854.28
2009/04/23 16:49:48.7     107   -138    228    175    287 142.2  58.5  34118  288.87 0854.28
2009/04/23 16:49:48.8     -90   -162    325    186    374 209.2  67.9  34112  288.75 0854.28
2009/04/23 16:49:48.9     -32   -189    191    192    270 189.8  50.2  34106  288.66 0854.28
2009/04/23 16:49:49.0     -57    -87    256    105    276 213.4  76.8  34120  288.88 0854.28
2009/04/23 16:49:49.1     -12    -36    156     38    160 198.5  86.4  34142  289.26 0854.28
2009/04/23 16:49:49.2      42    -65    121     78    143 147.4  64.6  34122  288.94 0854.28
2009/04/23 16:49:49.3     -68    -51     29     86     91 233.1  18.9  34126  289.01 0854.29
2009/04/23 16:49:49.4     -16     80     75     82    111 348.4  47.5  34136  289.18 0854.29
2009/04/23 16:49:49.5     -56    122     98    135    166 335.1  39.9  34132  289.09 0854.29
2009/04/23 16:49:49.6       1    142     17    143    145   0.5   6.9  34122  288.92 0854.29
2009/04/23 16:49:49.7     -33    237     28    240    242 352.0   6.7  34122  288.92 0854.29
2009/04/23 16:49:49.8    -121    233     25    263    265 332.4   5.4  34118  288.85 0854.29
2009/04/23 16:49:49.9      10    150    117    151    191   4.0  42.0  34120  288.91 0854.29
2009/04/23 16:49:50.0     149     62    169    162    234  67.2  51.2  34114  288.79 0854.29
2009/04/23 16:49:50.1     111     17    257    113    280  81.2  74.9  34126  288.98 0854.29
2009/04/23 16:49:50.2     109     42    225    118    254  68.7  70.4  34116  288.84 0854.29
2009/04/23 16:49:50.3     -28   -124    207    128    243 192.9  65.4  34118  288.87 0854.29
2009/04/23 16:49:50.4    -110   -274    120    296    319 201.9  23.4  34124  288.97 0854.29
2009/04/23 16:49:50.5     -83   -273     56    286    292 197.0  11.1  34128  289.02 0854.29
2009/04/23 16:49:50.6    -197   -173    185    263    321 228.7  38.6  34122  288.93 0854.29
2009/04/23 16:49:50.7    -301    -76    161    311    350 255.8  29.6  34140  289.23 0854.29
2009/04/23 16:49:50.8    -390     37    122    392    411 275.5  17.3  34122  288.94 0854.29
2009/04/23 16:49:50.9    -243    159    127    291    317 303.3  25.0  34110  288.73 0854.29
2009/04/23 16:49:51.0    -174    273    114    324    344 327.5  19.4  34106  288.67 0854.29
2009/04/23 16:49:51.1    -208    325    114    387    404 327.4  16.4  34104  288.62 0854.29
2009/04/23 16:49:51.2     -47    236    125    241    271 348.5  29.5  34118  288.87 0854.29
2009/04/23 16:49:51.3     -19     12    176     23    177 302.4  90.0  34138  289.19 0854.27
2009/04/23 16:49:51.4    -103    103    212    147    257 315.0  61.8  34130  289.06 0854.27
2009/04/23 16:49:51.5    -167    161    133    233    268 314.0  32.3  34122  288.93 0854.27
2009/04/23 16:49:51.6    -200     31    149    203    251 279.0  39.9  34118  288.87 0854.27
2009/04/23 16:49:51.7      25    -56    151     62    163 155.5  76.8  34128  289.04 0854.27
2009/04/23 16:49:51.8     -71   -192    216    205    297 200.3  52.0  34106  288.66 0854.27
2009/04/23 16:49:51.9    -114   -167    196    203    282 214.3  49.0  34102  288.59 0854.27
2009/04/23 16:49:52.0    -122   -106    119    162    201 229.1  39.9  34106  288.65 0854.27
2009/04/23 16:49:52.1     -19   -124    110    126    167 188.9  45.6  34102  288.58 0854.27
2009/04/23 16:49:52.2       4   -243    114    244    269 178.9  27.1  34114  288.80 0854.27
2009/04/23 16:49:52.3     -24   -163    156    165    227 188.7  48.0  34112  288.75 0854.27
2009/04/23 16:49:52.4     -15   -173    115    174    208 185.1  36.5  34108  288.70 0854.27
2009/04/23 16:49:52.5      -3   -124     60    125    138 181.8  27.2  34122  288.92 0854.27
2009/04/23 16:49:52.6      -8   -102     50    103    114 184.5  27.3  34120  288.89 0854.27
2009/04/23 16:49:52.7     -23    -70      8     74     75 198.7   6.9  34126  288.99 0854.27
2009/04/23 16:49:52.8    -128    -43     -1    136    137 251.4  -0.7  34126  289.01 0854.27
2009/04/23 16:49:52.9    -187      1     51    188    195 270.4  15.3  34128  289.04 0854.27
2009/04/23 16:49:53.0    -125    -75    110    147    183 238.9  40.4  34132  289.09 0854.27
2009/04/23 16:49:53.1      -7    -55    144     56    154 188.0  78.2  34150  289.40 0854.27
2009/04/23 16:49:53.2       3    -81    106     82    134 177.3  58.5  34154  289.46 0854.27
2009/04/23 16:49:53.4     -32   -135    156    139    208 193.4  53.7  34128  289.02 0854.27
2009/04/23 16:49:53.5      -5    -66     99     67    119 184.5  62.6  34164  289.65 0854.27
2009/04/23 16:49:53.6     -21   -103    121    106    160 191.6  54.3  34168  289.72 0854.27
2009/04/23 16:49:53.7     -45   -140     96    148    176 197.8  36.0  34152  289.45 0854.27
2009/04/23 16:49:53.8     -94   -209    179    230    291 204.3  41.7  34146  289.34 0854.27
2009/04/23 16:49:53.9    -110   -156    190    192    270 215.2  50.0  34166  289.66 0854.27
2009/04/23 16:49:54.0    -129    -79     87    152    175 238.5  32.7  34146  289.35 0854.27
2009/04/23 16:49:54.1    -171    -64     -7    183    184 249.4  -2.2  34142  289.28 0854.27
2009/04/23 16:49:54.2    -125   -128     51    180    188 224.3  16.0  34164  289.65 0854.27
2009/04/23 16:49:54.3    -118    -72     93    139    167 238.5  37.0  34188  290.04 0854.27
2009/04/23 16:49:54.4     -32    -99    127    105    164 198.3  56.1  34204  290.33 0854.27
2009/04/23 16:49:54.5    -194   -104     95    221    240 241.8  24.9  34194  290.15 0854.27
2009/04/23 16:49:54.6    -161    -55     26    171    174 250.9   8.8  34166  289.67 0854.27
2009/04/23 16:49:54.7     -81     52     93     97    134 302.9  49.4  34192  290.13 0854.27
2009/04/23 16:49:54.8       1    163    124    164    205   0.5  41.2  34186  290.02 0854.27
2009/04/23 16:49:54.9     -90    162     84    186    204 331.0  25.9  34188  290.06 0854.27
2009/04/23 16:49:55.0     -75    105     77    130    151 324.4  33.5  34182  289.96 0854.27
2009/04/23 16:49:55.1       5     89     80     90    120   3.6  46.4  34178  289.89 0854.27
2009/04/23 16:49:55.2     -50     47     72     69     99 313.2  51.2  34170  289.74 0854.27
2009/04/23 16:49:55.3     -75     92     32    120    125 320.8  15.3  34172  289.79 0854.27
2009/04/23 16:49:55.4     -68     79     19    105    107 319.5  10.6  34168  289.72 0854.28
2009/04/23 16:49:55.5     -33     84     10     91     92 338.2   6.5  34158  289.53 0854.28
2009/04/23 16:49:55.6     -54     52      3     76     77 314.1   2.8  34156  289.52 0854.28
2009/04/23 16:49:55.7     -70     68    -19     98    100 314.0 -11.5  34158  289.53 0854.28
2009/04/23 16:49:55.8     -48     23     -6     54     55 296.2  -7.2  34156  289.52 0854.28
2009/04/23 16:49:55.9     -53     -1     -7     54     55 268.3  -7.3  34156  289.50 0854.28
2009/04/23 16:49:56.0     -62    -54    -32     83     88 229.1 -25.9  34156  289.50 0854.28
2009/04/23 16:49:56.1     -57    -21    -18     61     63 249.2 -21.7  34160  289.58 0854.28
2009/04/23 16:49:56.2       0     15     20     16     25 357.3  56.4  34168  289.70 0854.28
2009/04/23 16:49:56.3      38      9     55     40     68  76.7  60.5  34178  289.89 0854.28
2009/04/23 16:49:56.4      68    -22     74     72    103 108.4  50.1  34174  289.80 0854.28
2009/04/23 16:49:56.5      44    -51     24     68     73 139.5  19.4  34168  289.72 0854.28
2009/04/23 16:49:56.6      -6    -13    -21     15     25 205.4 -64.9  34170  289.75 0854.28
2009/04/23 16:49:56.7      -4     62    -25     63     67 355.6 -27.4  34176  289.84 0854.28
2009/04/23 16:49:56.8      32      0    -62     33     70  90.0 -74.2  34184  289.97 0854.28
2009/04/23 16:49:56.9     148     -6    -53    149    159  92.6 -19.7  34200  290.25 0854.28
2009/04/23 16:49:57.0     109      4     -4    110    111  87.9  -2.2  34214  290.48 0854.28
2009/04/23 16:49:57.1     136    -27    142    139    198 101.5  50.4  34220  290.58 0854.28
2009/04/23 16:49:57.2     234    -70     44    245    250 106.6  10.3  34228  290.73 0854.28
2009/04/23 16:49:57.3     135   -121     18    182    183 132.0   5.9  34210  290.43 0854.28
2009/04/23 16:49:57.4      86   -146     -6    170    171 149.3  -2.3  34226  290.69 0854.28
2009/04/23 16:49:57.5      18   -190     77    191    205 174.4  23.1  34240  290.94 0854.28
2009/04/23 16:49:57.6      11   -150    117    151    191 175.6  42.0  34242  290.96 0854.28
2009/04/23 16:49:57.7      50   -125     86    135    160 158.2  35.5  34234  290.82 0854.28
2009/04/23 16:49:57.8       1   -138     90    139    165 179.5  35.7  34206  290.36 0854.28
2009/04/23 16:49:57.9     -42   -128    188    135    231 198.3  60.8  34214  290.50 0854.28
2009/04/23 16:49:58.0     -14   -103    122    105    160 188.1  54.8  34214  290.50 0854.28
2009/04/23 16:49:58.1     -62   -142    214    156    264 203.6  60.5  34222  290.61 0854.28
2009/04/23 16:49:58.2    -145   -127     47    193    199 228.7  13.9  34156  289.50 0854.28
2009/04/23 16:49:58.3    -171   -102     57    200    209 239.3  16.0  34172  289.77 0854.28
2009/04/23 16:49:58.4    -194   -168     83    257    271 229.1  17.9  34160  289.56 0854.28
2009/04/23 16:49:58.5    -170   -170     16    241    242 224.9   3.9  34160  289.58 0854.28
2009/04/23 16:49:58.6    -167   -230    -25    285    287 216.0  -5.2  34198  290.20 0854.28
2009/04/23 16:49:58.7      87   -105    103    137    171 140.4  40.9  34248  291.06 0854.28
2009/04/23 16:49:58.8     179    -36    220    183    286 101.5  56.3  34210  290.42 0854.28
2009/04/23 16:49:58.9     273     43    115    277    299  81.0  23.8  34186  290.02 0854.28
2009/04/23 16:49:59.0     124    -45    128    132    183 110.0  49.4  34204  290.33 0854.28
2009/04/23 16:49:59.1     -48    -67     14     83     85 215.6   9.5  34202  290.28 0854.28
2009/04/23 16:49:59.2     -14    -39    -53     42     67 200.9 -61.9  34218  290.57 0854.28
2009/04/23 16:49:59.3     -46   -193    156    199    252 193.4  42.0  34198  290.22 0854.28
2009/04/23 16:49:59.4     -26    -89     96     93    133 196.5  50.2  34166  289.69 0854.29
2009/04/23 16:49:59.5    -115   -195    137    227    265 210.7  34.2  34178  289.88 0854.29
2009/04/23 16:49:59.6     -46   -228    242    233    335 191.6  51.3  34170  289.75 0854.29
2009/04/23 16:49:59.7    -182   -250    191    310    364 216.0  34.6  34192  290.13 0854.29
2009/04/23 16:49:59.8    -136   -191    175    235    293 215.6  40.4  34190  290.09 0854.29
2009/04/23 16:49:59.9    -228   -107     89    252    268 244.8  19.4  34202  290.29 0854.29
2009/04/23 16:50:00.0      16   -114     98    116    151 172.0  44.3  34164  289.65 0854.29
2009/04/23 16:50:00.1     -97   -147    241    177    299 213.6  60.5  34172  289.78 0854.29
2009/04/23 16:50:00.2    -105    -84     74    135    153 231.4  31.4  34162  289.60 0854.29
2009/04/23 16:50:00.3     -12   -157     12    158    159 184.5   4.6  34164  289.63 0854.29
2009/04/23 16:50:00.4     -14   -189     -3    190    191 184.5  -1.2  34160  289.57 0854.29
2009/04/23 16:50:00.5      35   -171     35    175    179 168.4  11.4  34152  289.43 0854.29
2009/04/23 16:50:00.6       0   -199     29    200    203 180.2   8.5  34134  289.14 0854.29
2009/04/23 16:50:00.7      -8   -174    -56    175    183 182.7 -23.0  34146  289.33 0854.29
2009/04/23 16:50:00.8      39   -144    -43    150    156 164.9 -20.7  34142  289.28 0854.29
2009/04/23 16:50:00.9       0   -120    -49    121    130 180.0 -27.5  34146  289.33 0854.29
2009/04/23 16:50:01.0     -57    -90      0    107    108 212.5   0.2  34144  289.31 0854.29
2009/04/23 16:50:01.1       0   -107    -13    108    109 180.0  -7.2  34148  289.36 0854.29
2009/04/23 16:50:01.2      31   -102      3    107    108 163.1   1.8  34146  289.33 0854.29
2009/04/23 16:50:01.3      43    -64     32     78     84 145.7  23.0  34152  289.45 0854.29
2009/04/23 16:50:01.4      41    -97     40    106    113 156.8  21.5  34152  289.43 0854.29
2009/04/23 16:50:01.5       0    -89     83     90    122 179.5  47.9  34164  289.63 0854.29
2009/04/23 16:50:01.6     -14    -99    152    101    182 188.1  63.6  34160  289.57 0854.29
2009/04/23 16:50:01.7       3   -219    107    220    244 179.1  27.8  34130  289.07 0854.29
2009/04/23 16:50:01.8      43   -164    145    170    223 165.1  44.8  34126  289.01 0854.29
2009/04/23 16:50:01.9       8   -134    136    135    191 176.4  49.9  34124  288.97 0854.29
2009/04/23 16:50:02.0      28   -199    275    202    341 171.8  60.4  34134  289.12 0854.29
2009/04/23 16:50:02.1      29    -92    218     97    238 162.6  74.5  34146  289.35 0854.29
2009/04/23 16:50:02.2      59   -100    214    117    243 149.3  68.9  34154  289.46 0854.29
2009/04/23 16:50:02.3      -4   -157    239    158    286 181.8  63.6  34132  289.09 0854.29
2009/04/23 16:50:02.4      33    -27    148     43    154 129.5  83.3  34152  289.43 0854.29
2009/04/23 16:50:02.5     -13   -161    133    162    209 184.7  43.7  34148  289.36 0854.29
2009/04/23 16:50:02.6     -28   -129    200    133    240 192.5  63.4  34148  289.38 0854.29
2009/04/23 16:50:02.7       1   -157    103    158    188 179.5  35.7  34146  289.33 0854.29
2009/04/23 16:50:02.8    -148    -90    -62    174    185 238.7 -19.7  34130  289.08 0854.29
2009/04/23 16:50:02.9    -124   -120     70    173    186 225.8  23.1  34138  289.21 0854.29
2009/04/23 16:50:03.0      11    -43     45     45     63 164.9  50.1  34156  289.52 0854.29
2009/04/23 16:50:03.1      67    -68     57     96    111 135.3  33.5  34156  289.50 0854.29
2009/04/23 16:50:03.2      64    -25     61     69     92 111.7  46.4  34162  289.60 0854.29
2009/04/23 16:50:03.3      58      0     64     59     87  89.2  52.2  34170  289.74 0854.29
2009/04/23 16:50:03.4      72     34     75     80    109  64.6  48.0  34192  290.11 0854.30
2009/04/23 16:50:03.5     104     28     46    108    117  74.9  24.1  34182  289.94 0854.30
2009/04/23 16:50:03.6     125     41    -62    132    145  71.8 -31.5  34182  289.94 0854.30
2009/04/23 16:50:03.7      17     62    -47     65     80  15.2 -44.1  34168  289.70 0854.30
2009/04/23 16:50:03.8     -45    131    -52    139    148 340.8 -25.4  34164  289.63 0854.30
2009/04/23 16:50:03.9     -31    133    -61    137    149 346.7 -30.1  34154  289.48 0854.30
2009/04/23 16:50:04.0      46     90    -67    102    122  27.2 -40.9  34164  289.65 0854.30
2009/04/23 16:50:04.1      49     39    -17     63     66  51.4 -15.5  34174  289.80 0854.30
2009/04/23 16:50:04.2      50     77    -46     92    102  33.0 -32.6  34192  290.13 0854.30
2009/04/23 16:50:04.3      32     49     27     59     64  33.4  27.1  34186  290.01 0854.30
2009/04/23 16:50:04.4       9    124     32    125    130   4.4  14.7  34178  289.87 0854.30
2009/04/23 16:50:04.5     -30     13    -32     33     45 293.5 -54.4  34168  289.70 0854.30
2009/04/23 16:50:04.6      32    -83    -41     90     98 158.6 -30.6  34164  289.63 0854.30
2009/04/23 16:50:04.7      25   -115    -73    118    138 167.5 -39.4  34158  289.53 0854.30
2009/04/23 16:50:04.8     164   -132    -77    211    224 128.9 -25.3  34136  289.18 0854.30
2009/04/23 16:50:04.9      61    -90   -165    109    197 145.7 -67.8  34134  289.13 0854.30
2009/04/23 16:50:05.0     -35    -28   -146     46    153 231.4 -85.6  34146  289.35 0854.30
2009/04/23 16:50:05.1      21     43    -94     49    106  26.3 -74.8  34152  289.45 0854.30
2009/04/23 16:50:05.2       5     47   -112     48    121   7.1 -79.9  34150  289.41 0854.30
2009/04/23 16:50:05.3      -5     41   -136     42    142 352.0 -86.7  34134  289.14 0854.30
2009/04/23 16:50:05.4     -18     29    -35     35     49 327.4 -54.5  34134  289.14 0854.29
2009/04/23 16:50:05.5     -49      3     50     50     70 274.4  50.1  34136  289.16 0854.29
2009/04/23 16:50:05.6     -55     26     72     61     94 295.3  55.4  34152  289.45 0854.29
2009/04/23 16:50:05.7     -67    -27     51     73     89 248.2  38.6  34150  289.41 0854.29
2009/04/23 16:50:05.8    -108    -71     12    130    131 236.7   5.4  34136  289.18 0854.29
2009/04/23 16:50:05.9     -96    -96     -4    136    137 225.0  -1.8  34126  288.99 0854.29
2009/04/23 16:50:06.0     -94    -83     -8    126    127 228.7  -3.7  34124  288.97 0854.29
2009/04/23 16:50:06.1     -45    -69     78     83    113 213.4  48.5  34138  289.19 0854.29
2009/04/23 16:50:06.2     -94    -94     90    133    160 225.0  37.3  34144  289.31 0854.29
2009/04/23 16:50:06.3     -65   -134     70    150    165 205.9  26.6  34138  289.21 0854.29
2009/04/23 16:50:06.4      23    -72    118     76    140 161.7  64.6  34140  289.24 0854.29
2009/04/23 16:50:06.5     -13    -68    136     70    152 191.5  70.8  34136  289.18 0854.29
2009/04/23 16:50:06.6       2    -37     91     38     98 175.6  76.6  34150  289.41 0854.29
2009/04/23 16:50:06.7      10   -140    103    141    174 175.5  39.9  34122  288.92 0854.29
2009/04/23 16:50:06.8      -7   -104    115    105    155 184.0  52.2  34130  289.08 0854.29
2009/04/23 16:50:06.9     -11    -39     72     41     82 196.0  68.3  34144  289.31 0854.29
2009/04/23 16:50:07.0       5    -72     75     73    104 175.5  50.1  34126  289.01 0854.29
2009/04/23 16:50:07.1      43   -132     97    140    170 161.7  38.0  34126  288.99 0854.29
2009/04/23 16:50:07.2      18    -63    112     66    130 164.0  66.8  34140  289.24 0854.29
2009/04/23 16:50:07.3      29    -64     96     71    119 155.5  60.0  34138  289.19 0854.29
2009/04/23 16:50:07.4      40   -179    122    184    220 167.3  36.7  34138  289.21 0854.29
2009/04/23 16:50:07.5      77   -202    150    217    263 159.1  37.8  34156  289.49 0854.29
2009/04/23 16:50:07.6      52   -197     84    204    220 165.1  23.4  34150  289.41 0854.29
2009/04/23 16:50:07.7       1   -150    148    151    211 179.5  49.8  34146  289.33 0854.29
2009/04/23 16:50:07.8     -18    -45    152     49    159 201.8  81.6  34178  289.89 0854.29
2009/04/23 16:50:07.9     -33    -86     98     93    135 201.4  51.2  34166  289.69 0854.29
2009/04/23 16:50:08.0     -51      0    118     52    128 270.0  74.9  34148  289.38 0854.29
2009/04/23 16:50:08.1     -76    -36     79     85    116 244.6  48.0  34156  289.52 0854.29
2009/04/23 16:50:08.2     -59     62     34     86     92 316.3  22.5  34160  289.58 0854.29
2009/04/23 16:50:08.3     -76     97    142    124    188 322.2  54.3  34164  289.65 0854.29
2009/04/23 16:50:08.4    -235    -79     58    249    256 251.4  13.2  34148  289.37 0854.30
2009/04/23 16:50:08.5    -119    -57     -9    133    134 244.2  -4.1  34136  289.18 0854.30
2009/04/23 16:50:08.6     -32    -39    -18     51     54 219.6 -23.3  34138  289.21 0854.30
2009/04/23 16:50:08.7      16     50      6     53     54  18.7   6.9  34156  289.52 0854.30
2009/04/23 16:50:08.8     -12    106     36    107    114 353.3  18.9  34166  289.67 0854.30
2009/04/23 16:50:08.9     -13    179     16    180    181 355.8   5.2  34216  290.53 0854.30
2009/04/23 16:50:09.0     -33    176     32    180    183 349.3  10.3  34278  291.57 0854.30
2009/04/23 16:50:09.1     -40    192     21    197    199 348.0   6.1  34274  291.52 0854.30
2009/04/23 16:50:09.2     -83    204      4    221    222 337.9   1.2  34234  290.82 0854.30
2009/04/23 16:50:09.3    -103    175    100    204    227 329.5  27.8  34248  291.06 0854.30
2009/04/23 16:50:09.4    -116    102    118    155    194 311.3  41.2  34250  291.11 0854.30
2009/04/23 16:50:09.5    -151     95     74    179    193 302.4  23.4  34202  290.28 0854.30
2009/04/23 16:50:09.6    -273     67    -80    282    293 283.9 -20.7  34174  289.81 0854.30
2009/04/23 16:50:09.7    -259    -15    -68    260    269 266.5 -14.7  34140  289.22 0854.30
2009/04/23 16:50:09.8    -251    -16    -51    252    258 266.3 -11.6  34158  289.53 0854.30
2009/04/23 16:50:09.9    -196    -51      1    203    204 255.4   0.5  34150  289.40 0854.30
2009/04/23 16:50:10.0    -150    -25     57    153    163 260.3  21.3  34142  289.28 0854.30
2009/04/23 16:50:10.1     -70    -39     63     81    102 241.1  42.2  34162  289.60 0854.30
2009/04/23 16:50:10.2       1     -8     67      9     67 168.4  90.0  34180  289.92 0854.30
2009/04/23 16:50:10.3      75      0     87     76    115  90.0  54.8  34178  289.89 0854.30
2009/04/23 16:50:10.4      12    -11     90     17     91 133.3  90.0  34182  289.96 0854.29
2009/04/23 16:50:10.5       9      5     61     11     61  57.6  90.0  34188  290.06 0854.29
2009/04/23 16:50:10.6      12     49     39     51     64  14.3  40.7  34186  290.01 0854.29
2009/04/23 16:50:10.7      10     69     32     70     76   8.9  27.1  34182  289.94 0854.29
2009/04/23 16:50:10.8       1     87    -15     88     90   0.9  -9.8  34178  289.89 0854.29
2009/04/23 16:50:10.9      39    119    -41    126    133 360.0 -18.1  34172  289.77 0854.29
2009/04/23 16:50:11.0      78    123    -33    147    151  32.5 -12.9  34234  290.84 0854.29
2009/04/23 16:50:11.1      90    161    -65    185    197  29.4 -19.6  34296  291.88 0854.29
2009/04/23 16:50:11.2      47    191      3    197    198  14.0   1.0  34242  290.96 0854.29
2009/04/23 16:50:11.3      83    167      2    187    188  26.5   0.8  34280  291.62 0854.29
2009/04/23 16:50:11.4     190    147    -89    241    256  52.2 -25.7  34290  291.77 0854.29
2009/04/23 16:50:11.5     327    163     -8    366    367  63.5  -1.3  34296  291.88 0854.29
2009/04/23 16:50:11.6     374    124    103    395    409  71.6  14.6  34246  291.02 0854.29
2009/04/23 16:50:11.7     301    156    212    340    400  62.6  35.0  34232  290.79 0854.29
2009/04/23 16:50:11.8     258    175    215    313    379  55.8  37.7  34308  292.07 0854.29
2009/04/23 16:50:11.9     161    201    222    258    340  38.7  45.2  34324  292.36 0854.29
2009/04/23 16:50:12.0     130    311    162    338    374  22.7  27.3  34236  290.86 0854.29
2009/04/23 16:50:12.1     236    347    169    420    452  34.2  23.1  34226  290.70 0854.29
2009/04/23 16:50:12.2      73    325    125    334    356  12.8  21.5  34282  291.66 0854.29
2009/04/23 16:50:12.3     -69    289    134    298    326 346.6  25.9  34288  291.75 0854.29
2009/04/23 16:50:12.4    -105    112    213    154    262 316.8  60.6  34284  291.68 0854.28
2009/04/23 16:50:12.5      22    139    102    141    174   9.3  39.3  34256  291.20 0854.28
2009/04/23 16:50:12.6    -105    152     -8    185    186 325.3  -2.6  34216  290.52 0854.28
2009/04/23 16:50:12.7     -43    109     -8    118    119 338.6  -4.1  34208  290.40 0854.28
2009/04/23 16:50:12.8      28     87     75     92    118  18.3  43.7  34244  290.99 0854.28
2009/04/23 16:50:12.9      11    156    100    157    186   4.4  35.5  34260  291.28 0854.28
2009/04/23 16:50:13.0      12    235     -8    236    237   3.1  -2.1  34218  290.56 0854.28
2009/04/23 16:50:13.1     131    300     24    328    329  23.6   4.3  34228  290.74 0854.28
2009/04/23 16:50:13.2     -35    285     14    288    289 352.9   2.8  34244  291.00 0854.28
2009/04/23 16:50:13.3    -205    222    -11    303    304 317.2  -2.2  34224  290.66 0854.28
2009/04/23 16:50:13.4    -190    138     85    235    251 306.0  19.9  34252  291.14 0854.28
2009/04/23 16:50:13.5    -204    155     80    257    270 307.1  17.3  34232  290.78 0854.28
2009/04/23 16:50:13.6    -178     92     47    201    207 297.5  13.2  34240  290.94 0854.28
2009/04/23 16:50:13.7    -227     13     18    228    229 273.5   4.6  34254  291.18 0854.28
2009/04/23 16:50:13.8    -272    -58    -45    279    283 257.8  -9.3  34224  290.65 0854.28
2009/04/23 16:50:13.9    -246     46    -51    251    257 280.6 -11.6  34210  290.41 0854.28
2009/04/23 16:50:14.0    -321      0     20    322    323 269.9   3.7  34214  290.49 0854.28
2009/04/23 16:50:14.1    -261   -103     49    281    286 248.5   9.9  34198  290.22 0854.28
2009/04/23 16:50:14.2    -205   -147     68    253    263 234.3  15.2  34184  289.97 0854.28
2009/04/23 16:50:14.3    -163    -57     -4    173    174 250.7  -1.6  34184  289.99 0854.28
2009/04/23 16:50:14.4    -122   -115    -41    168    174 226.7 -13.9  34198  290.21 0854.25
2009/04/23 16:50:14.5     -49   -210    -43    216    221 193.1 -11.3  34206  290.36 0854.25
2009/04/23 16:50:14.6      16   -227    -61    228    237 175.8 -15.0  34204  290.31 0854.25
2009/04/23 16:50:14.7      41   -243    -85    247    262 170.3 -19.1  34210  290.41 0854.25
2009/04/23 16:50:14.8      13   -295    -88    296    309 177.3 -16.6  34210  290.42 0854.25
2009/04/23 16:50:14.9      72   -199   -153    212    261 160.0 -43.9  34218  290.54 0854.25
2009/04/23 16:50:15.0     235   -188    -20    302    303 128.6  -3.9  34206  290.34 0854.25
2009/04/23 16:50:15.1     326   -175     83    371    381 118.3  12.6  34210  290.43 0854.25
2009/04/23 16:50:15.2     399   -127     90    419    429 107.7  12.1  34202  290.29 0854.25
2009/04/23 16:50:15.3     419    -98    239    431    492 103.3  31.4  34218  290.56 0854.25
2009/04/23 16:50:15.4     417    -92     91    428    438 102.5  12.0  34216  290.51 0854.25
2009/04/23 16:50:15.5     395      0    216    396    451  90.0  31.3  34218  290.56 0854.25
2009/04/23 16:50:15.6     355     49    228    359    425  82.0  35.5  34188  290.04 0854.25
2009/04/23 16:50:15.7     309     -9    231    310    386  91.7  40.2  34202  290.27 0854.25
2009/04/23 16:50:15.8     257    -19    271    258    374  94.4  51.6  34188  290.04 0854.25
2009/04/23 16:50:15.9     231    -63    252    240    348 105.3  51.5  34160  289.56 0854.25
2009/04/23 16:50:16.0      96    -18    236     98    255 100.6  76.1  34154  289.46 0854.25
2009/04/23 16:50:16.1      89    -16    161     91    184 100.6  68.1  34142  289.28 0854.25
2009/04/23 16:50:16.2      66      0    168     67    180  90.8  77.1  34142  289.28 0854.25
2009/04/23 16:50:16.3       9     17    148     20    149  29.0  90.0  34158  289.53 0854.25
2009/04/23 16:50:16.4       3    -67    167     68    180 177.3  77.0  34162  289.60 0854.26
2009/04/23 16:50:16.5     -19     23     42     30     51 320.4  60.5  34164  289.65 0854.26
2009/04/23 16:50:16.6     131     -3    150    132    199  91.7  54.2  34150  289.41 0854.26
2009/04/23 16:50:16.7      84    -10    171     85    190  97.0  71.9  34152  289.45 0854.26
2009/04/23 16:50:16.8      20   -173    266    175    318 173.3  63.6  34150  289.39 0854.26
2009/04/23 16:50:16.9      61   -275    230    282    363 167.5  43.6  34130  289.06 0854.26
2009/04/23 16:50:17.0      63   -209    197    219    294 163.1  46.9  34146  289.32 0854.26
2009/04/23 16:50:17.1      77   -153    183    172    251 153.3  52.1  34146  289.35 0854.26
2009/04/23 16:50:17.2      64   -204    174    214    275 162.4  43.5  34166  289.66 0854.26
2009/04/23 16:50:17.3      31   -133    163    137    212 166.6  56.1  34170  289.75 0854.26
2009/04/23 16:50:17.4      15    -24    105     29    108 147.4  84.4  34184  289.97 0854.26
2009/04/23 16:50:17.5      40    -73    141     84    164 151.0  66.4  34184  289.99 0854.26
2009/04/23 16:50:17.6      90    -48    182    103    209 118.0  68.3  34190  290.09 0854.26
2009/04/23 16:50:17.7     107      8    173    108    203  85.7  64.9  34200  290.25 0854.26
2009/04/23 16:50:17.8      58     32    124     67    140  61.1  68.9  34196  290.19 0854.26
2009/04/23 16:50:17.9     -26     35    104     44    112 323.0  76.1  34202  290.30 0854.26
2009/04/23 16:50:18.0      -8    -48     97     49    108 189.8  71.4  34184  289.97 0854.26
2009/04/23 16:50:18.1     -17     17     99     25    102 315.0  85.4  34188  290.04 0854.26
2009/04/23 16:50:18.2      -9     31     99     33    104 343.1  81.0  34192  290.11 0854.26
2009/04/23 16:50:18.3    -131     17     47    133    141 277.5  20.4  34188  290.04 0854.26
2009/04/23 16:50:18.4     -91    -46     52    103    115 242.9  28.2  34166  289.67 0854.29
2009/04/23 16:50:18.5     -85     60     -5    105    106 305.5  -3.2  34166  289.69 0854.29
2009/04/23 16:50:18.6    -128     -9    -42    129    136 265.7 -18.1  34168  289.72 0854.29
2009/04/23 16:50:18.7    -191     37     63    195    205 281.2  17.9  34168  289.72 0854.29
2009/04/23 16:50:18.8    -164     63     30    176    179 291.1   9.9  34178  289.87 0854.29
2009/04/23 16:50:18.9     -77     49    -24     92     96 302.4 -14.5  34176  289.84 0854.29
2009/04/23 16:50:19.0    -109     51    -34    121    125 295.3 -20.2  34190  290.08 0854.29
2009/04/23 16:50:19.1     -76     32    -22     83     86 293.1 -15.0  34190  290.09 0854.29
2009/04/23 16:50:19.2     -55     35    -28     66     71 302.4 -28.5  34188  290.06 0854.29
2009/04/23 16:50:19.3     -80    -15    -88     82    120 259.4 -56.6  34198  290.21 0854.29
2009/04/23 16:50:19.4     -75   -109     -2    133    134 214.7  -1.3  34212  290.47 0854.29
2009/04/23 16:50:19.5    -148   -108     44    184    190 233.8  13.5  34202  290.30 0854.29
2009/04/23 16:50:19.6    -100   -113     49    152    160 221.4  18.1  34210  290.43 0854.29
2009/04/23 16:50:19.7      18    -96    182     98    206 168.9  69.3  34218  290.55 0854.29
2009/04/23 16:50:19.8     -26   -103    118    107    159 194.3  53.0  34218  290.55 0854.29
2009/04/23 16:50:19.9     176    -58    107    186    214 108.4  32.7  34194  290.14 0854.29
2009/04/23 16:50:20.0     183    -74     98    198    220 112.2  28.2  34194  290.14 0854.29
2009/04/23 16:50:20.1     197    -48     32    203    206 103.9   9.0  34194  290.14 0854.29
2009/04/23 16:50:20.3     160    -38     56    165    175 103.5  18.9  34190  290.09 0854.29
2009/04/23 16:50:20.3     151   -105     39    185    190 124.9  12.0  34192  290.13 0854.29
2009/04/23 16:50:20.4     177   -128    -21    219    221 126.0  -5.6  34188  290.06 0854.33
2009/04/23 16:50:20.5     181   -100     -8    207    208 118.9  -2.2  34186  290.01 0854.33
2009/04/23 16:50:20.6     133    -50     17    143    145 110.8   6.9  34188  290.04 0854.33
2009/04/23 16:50:20.7      77    -83    -24    114    117 137.2 -11.9  34188  290.04 0854.33
2009/04/23 16:50:20.8      91   -103     26    138    141 138.6  11.0  34190  290.08 0854.33
2009/04/23 16:50:20.9      44    -93     20    103    105 154.6  11.1  34196  290.18 0854.33
2009/04/23 16:50:21.0      48   -126     41    135    142 159.1  16.8  34206  290.36 0854.33
2009/04/23 16:50:21.1      41   -103    115    112    160 158.2  50.7  34204  290.33 0854.33
2009/04/23 16:50:21.3      81    -75    113    111    158 132.7  50.4  34204  290.31 0854.33
2009/04/23 16:50:21.4     123    -69     74    142    160 119.3  29.8  34196  290.19 0854.33
2009/04/23 16:50:21.5       0   -150     57    151    161 180.4  21.7  34212  290.45 0854.33
2009/04/23 16:50:21.6     -74   -162    133    179    223 204.7  40.1  34220  290.60 0854.33
2009/04/23 16:50:21.7     -86   -135    138    161    212 212.5  45.1  34234  290.82 0854.33
2009/04/23 16:50:21.8      85   -145     99    169    195 149.5  33.1  34206  290.36 0854.33
2009/04/23 16:50:21.9     137   -138    137    195    238 135.2  38.6  34196  290.18 0854.33
2009/04/23 16:50:22.0      25   -270    123    272    298 174.6  26.2  34214  290.49 0854.33
2009/04/23 16:50:22.1     108    -13     81    109    135  97.0  40.1  34216  290.53 0854.33
2009/04/23 16:50:22.2      55    117     98    130    162  25.4  40.7  34232  290.79 0854.33
2009/04/23 16:50:22.3     178     73    141    193    239  67.6  39.7  34266  291.37 0854.33
2009/04/23 16:50:22.4     152     45    106    159    191  73.2  36.7  34292  291.83 0854.33
2009/04/23 16:50:22.5     118     47     74    128    147  68.2  32.9  34300  291.96 0854.34
2009/04/23 16:50:22.6      80     79    105    113    154  45.4  48.0  34296  291.89 0854.34
2009/04/23 16:50:22.7      83     48     97     97    137  59.8  50.1  34286  291.71 0854.34
2009/04/23 16:50:22.8     149     74     29    167    170  63.4   9.9  34248  291.06 0854.34
2009/04/23 16:50:22.9     122     44     15    130    131  70.0   6.9  34254  291.18 0854.34
2009/04/23 16:50:23.0     114     23     40    117    124  78.5  18.9  34248  291.08 0854.34
2009/04/23 16:50:23.1     142     72     98    160    187  63.1  34.8  34254  291.18 0854.34
2009/04/23 16:50:23.2      27    -78     92     83    123 160.4  52.7  34250  291.09 0854.34
2009/04/23 16:50:23.3      88    -56    128    105    165 122.5  56.6  34252  291.13 0854.34
2009/04/23 16:50:23.4     102     14     99    103    142  82.1  49.0  34262  291.32 0854.34
2009/04/23 16:50:23.5      72     13    111     74    133  79.4  63.6  34266  291.38 0854.34
2009/04/23 16:50:23.6      95     19    112     97    148  78.5  54.8  34252  291.15 0854.34
2009/04/23 16:50:23.7      92     15     83     94    125  80.3  45.9  34250  291.11 0854.34
2009/04/23 16:50:23.8      71     16     98     73    122  76.7  59.4  34242  290.98 0854.34
2009/04/23 16:50:23.9      32     50     65     60     88  32.6  52.2  34240  290.94 0854.34
2009/04/23 16:50:24.0      52     39     68     65     94  53.1  50.7  34240  290.92 0854.34
2009/04/23 16:50:24.1      67      0     68     68     96  90.0  50.1  34260  291.28 0854.34
2009/04/23 16:50:24.2      65     -9     37     66     75  97.9  31.4  34262  291.32 0854.34
2009/04/23 16:50:24.3       0    -38     33     39     51 180.9  44.8  34256  291.21 0854.34
2009/04/23 16:50:24.4      56      4     32     57     65  85.6  31.4  34256  291.20 0854.34
2009/04/23 16:50:24.5      99     32     11    105    106  71.8   6.5  34252  291.13 0854.35
2009/04/23 16:50:24.6      78      9    -17     79     81  83.0 -12.4  34252  291.13 0854.35
2009/04/23 16:50:24.7     102      0    -30    103    107  90.0 -21.2  34250  291.11 0854.35
2009/04/23 16:50:24.8      99     -5    -60    100    116  93.0 -38.8  34214  290.50 0854.35
2009/04/23 16:50:24.9     114     10      5    115    116  84.8   2.8  34238  290.89 0854.35
2009/04/23 16:50:25.0      93     -7    110     94    144  94.4  55.4  34254  291.16 0854.35
2009/04/23 16:50:25.1      67      0    130     68    146  90.0  70.8  34270  291.45 0854.35
2009/04/23 16:50:25.2      99      7     93    100    136  85.7  47.9  34194  290.14 0854.35
2009/04/23 16:50:25.3     116      7     91    117    148  86.5  41.7  34162  289.62 0854.35
2009/04/23 16:50:25.4      89     31    124     95    156  70.9  58.5  34188  290.06 0854.35
2009/04/23 16:50:25.5     140     81     62    162    173  59.8  21.7  34166  289.69 0854.35
2009/04/23 16:50:25.6     159    113     53    196    204  54.7  15.3  34186  290.02 0854.35
2009/04/23 16:50:25.7      50    114     70    125    143  23.6  31.4  34254  291.18 0854.35
2009/04/23 16:50:25.8     -11    176     18    177    178 356.2   5.9  34254  291.18 0854.35
2009/04/23 16:50:25.9      15    126    -81    127    150   7.1 -40.0  34228  290.74 0854.35
2009/04/23 16:50:26.0      48    164     43    172    178  16.5  14.3  34226  290.69 0854.35
2009/04/23 16:50:26.1      61    194     32    204    207  17.6   9.0  34226  290.69 0854.35
2009/04/23 16:50:26.2     133    171    -38    217    221  37.9 -10.1  34212  290.47 0854.35
2009/04/23 16:50:26.3     131    168    -54    214    221  37.9 -14.3  34200  290.26 0854.35
2009/04/23 16:50:26.4      85    206   -132    223    259  22.5 -37.8  34118  288.85 0854.35
2009/04/23 16:50:26.5     144    158     37    215    219  42.3   9.9  34188  290.04 0854.37
2009/04/23 16:50:26.6      91    232     49    250    255  21.4  11.1  34198  290.20 0854.37
2009/04/23 16:50:26.7      -2    208     63    209    219 359.3  16.8  34200  290.26 0854.37
2009/04/23 16:50:26.8      59    185     91    195    215  17.8  27.1  34190  290.09 0854.37
2009/04/23 16:50:26.9    -409    168     55    443    447 292.3   7.1  34122  288.94 0854.37
2009/04/23 16:50:27.0    -381    184    -51    424    428 295.8  -6.9  34100  288.56 0854.37
2009/04/23 16:50:27.1    -249    162    -84    298    310 303.1 -15.8  34092  288.41 0854.37
2009/04/23 16:50:27.2    -309    109    -46    328    332 289.5  -8.0  34136  289.18 0854.37
2009/04/23 16:50:27.3    -276     86    -19    290    291 287.3  -3.9  34132  289.09 0854.37
2009/04/23 16:50:27.4    -267    135     76    300    310 296.9  14.3  34164  289.63 0854.37
2009/04/23 16:50:27.5    -322     56    142    328    357 280.0  25.0  34208  290.40 0854.37
2009/04/23 16:50:27.6    -415    -37    153    417    444 264.8  21.0  34134  289.12 0854.37
2009/04/23 16:50:27.7    -365     27     94    366    378 274.4  14.4  34136  289.16 0854.37
2009/04/23 16:50:27.8    -375     92     46    387    390 283.8   6.8  34150  289.40 0854.37
2009/04/23 16:50:27.9    -253    124      4    282    283 296.2   0.8  34136  289.17 0854.37
2009/04/23 16:50:28.0    -263     62    -90    271    285 283.3 -23.8  34142  289.25 0854.37
2009/04/23 16:50:28.1    -165    -11   -111    166    199 266.1 -41.4  34150  289.41 0854.37
2009/04/23 16:50:28.2    -136    -69    -63    153    165 242.9 -28.0  34166  289.69 0854.37
2009/04/23 16:50:28.3     -64    -16     71     66     96 255.8  51.6  34152  289.45 0854.37
2009/04/23 16:50:28.4       5     15    134     16    134  18.3  90.0  34168  289.70 0854.37
2009/04/23 16:50:28.5     -19    142    226    144    267 352.4  64.6  34162  289.59 0854.38
2009/04/23 16:50:28.6      30     76    201     82    217  21.8  77.0  34174  289.80 0854.38
2009/04/23 16:50:28.7      39     46    222     61    230  40.5  84.8  34176  289.85 0854.38
2009/04/23 16:50:28.8     132     43    216    139    256  71.8  64.6  34206  290.36 0854.38
2009/04/23 16:50:28.9      -3     49    183     50    189 355.5  84.8  34192  290.13 0854.38
2009/04/23 16:50:29.0    -144    139    175    201    266 314.0  45.6  34136  289.17 0854.38
2009/04/23 16:50:29.1     -56    157    107    167    198 340.2  35.6  34138  289.21 0854.38
2009/04/23 16:50:29.2     -56    176     95    185    207 342.2  29.3  34122  288.94 0854.38
2009/04/23 16:50:29.3     -74     79     53    109    121 316.7  27.8  34114  288.80 0854.38
2009/04/23 16:50:29.4     -82     68     -4    107    108 309.6  -2.2  34134  289.14 0854.38
2009/04/23 16:50:29.5     -22     68    -14     72     74 341.7 -11.3  34134  289.14 0854.32
2009/04/23 16:50:29.6     -11     57    -25     59     64 348.4 -27.5  34150  289.41 0854.32
2009/04/23 16:50:29.7      18     35    -53     40     66  27.2 -63.8  34206  290.35 0854.32
2009/04/23 16:50:29.8      76     20    -54     79     95  75.0 -41.4  34276  291.54 0854.32
2009/04/23 16:50:29.9      18    -13    -84     23     87 126.0 -88.8  34268  291.42 0854.32
2009/04/23 16:50:30.0     -24    -64   -101     69    122 200.9 -67.0  34172  289.79 0854.32
2009/04/23 16:50:30.1    -136    -76    -89    157    180 240.7 -36.3  34126  289.01 0854.32
2009/04/23 16:50:30.2    -133    -63   -103    148    180 244.8 -42.8  34126  289.01 0854.32
2009/04/23 16:50:30.3    -146    -39   -137    152    204 254.9 -51.0  34136  289.18 0854.32
2009/04/23 16:50:30.4    -152    -39   -167    158    229 255.4 -56.4  34140  289.23 0854.32
2009/04/23 16:50:30.5    -254    -31   -230    256    344 263.0 -51.0  34150  289.41 0854.32
2009/04/23 16:50:30.6    -352     30   -238    354    426 275.0 -41.6  34156  289.51 0854.32
2009/04/23 16:50:30.7    -272    -92   -189    288    344 251.2 -40.7  34192  290.12 0854.32
2009/04/23 16:50:30.8    -264    -57   -212    271    344 257.7 -46.5  34176  289.85 0854.32
2009/04/23 16:50:30.9    -200    -86   -114    218    246 246.7 -33.9  34194  290.15 0854.32
2009/04/23 16:50:31.0     -99   -191   -131    216    252 207.4 -38.8  34196  290.17 0854.32
2009/04/23 16:50:31.1    -181   -243   -148    304    338 216.7 -32.3  34200  290.24 0854.32
2009/04/23 16:50:31.2    -218   -239   -175    324    368 222.4 -35.1  34198  290.20 0854.32
2009/04/23 16:50:31.3    -147   -321   -215    354    414 204.6 -38.6  34182  289.94 0854.32
2009/04/23 16:50:31.4    -210   -174   -105    273    292 230.4 -26.5  34174  289.80 0854.32
2009/04/23 16:50:31.5    -125   -196     17    233    234 212.5   4.2  34178  289.86 0854.33
2009/04/23 16:50:31.6      79   -243    150    256    296 162.0  33.4  34188  290.05 0854.33
2009/04/23 16:50:31.7      34    -72    162     80    180 154.7  71.9  34204  290.33 0854.33
2009/04/23 16:50:31.8       7   -173    161    174    237 177.5  47.7  34184  289.97 0854.33
2009/04/23 16:50:31.9     104    -67    143    125    189 122.9  54.6  34200  290.25 0854.33
2009/04/23 16:50:32.0     -35   -116    148    122    191 197.0  56.3  34198  290.21 0854.33
2009/04/23 16:50:32.1     -61    -61    116     87    145 225.0  60.0  34204  290.31 0854.33
2009/04/23 16:50:32.2     -81    -27     85     86    120 251.6  50.0  34202  290.30 0854.33
2009/04/23 16:50:32.3     -61    -90     69    109    129 214.3  35.5  34202  290.28 0854.33
2009/04/23 16:50:32.4       9   -207      2    208    209 177.5   0.8  34182  289.96 0854.33
2009/04/23 16:50:32.5     -67   -243    184    253    312 195.6  39.8  34182  289.93 0854.33
2009/04/23 16:50:32.6    -161   -374    207    408    457 203.3  29.2  34206  290.34 0854.33
2009/04/23 16:50:32.7    -148   -297    247    332    413 206.5  40.2  34184  289.99 0854.33
2009/04/23 16:50:32.8    -152   -305    182    341    386 206.5  30.5  34194  290.16 0854.33
2009/04/23 16:50:32.9    -233   -231    115    329    348 225.3  20.0  34190  290.08 0854.33
2009/04/23 16:50:33.0    -275   -206    -44    344    347 233.1  -7.3  34190  290.08 0854.33
2009/04/23 16:50:33.1    -133   -139    -13    193    194 223.9  -4.1  34206  290.35 0854.33
2009/04/23 16:50:33.2     -22   -189    -23    191    193 186.9  -6.9  34196  290.19 0854.33
2009/04/23 16:50:33.3      27   -239    119    241    268 173.5  28.2  34186  290.02 0854.33
2009/04/23 16:50:33.4     -82   -341     26    351    352 193.5   4.4  34178  289.86 0854.33
2009/04/23 16:50:33.5     -75   -401    -17    408    409 190.6  -2.5  34182  289.94 0854.32
2009/04/23 16:50:33.6     -63   -444     -1    449    450 188.1  -0.2  34182  289.94 0854.32
2009/04/23 16:50:33.7     -41   -391     73    394    401 186.1  10.6  34176  289.84 0854.32
2009/04/23 16:50:33.8     -26   -429    101    430    442 183.5  13.2  34176  289.85 0854.32
2009/04/23 16:50:33.9     -37   -451     80    453    461 184.8  10.0  34194  290.14 0854.32
2009/04/23 16:50:34.0     -40   -443    -17    445    446 185.2  -2.2  34212  290.46 0854.32
2009/04/23 16:50:34.1      38   -447    105    449    462 175.1  13.2  34202  290.28 0854.32
2009/04/23 16:50:34.2      93   -362    144    374    400 165.5  22.2  34198  290.23 0854.32
2009/04/23 16:50:34.3     128   -361     75    384    392 160.4  11.1  34168  289.71 0854.32
2009/04/23 16:50:34.4      88   -265     61    280    287 161.5  12.4  34158  289.53 0854.32
2009/04/23 16:50:34.5     191   -246     49    312    316 142.2   9.0  34128  289.03 0854.32
2009/04/23 16:50:34.6     206   -273    140    343    370 142.9  23.2  34120  288.91 0854.32
2009/04/23 16:50:34.7     276   -236    126    364    386 130.6  19.2  34106  288.67 0854.32
2009/04/23 16:50:34.8     199   -317    175    375    413 147.9  27.0  34128  289.03 0854.32
2009/04/23 16:50:34.9     306   -306     32    434    436 135.0   4.3  34142  289.27 0854.32
2009/04/23 16:50:35.0     264   -232    109    352    369 131.3  17.3  34146  289.33 0854.32
2009/04/23 16:50:35.1     279   -269    -17    388    389 133.9  -2.6  34146  289.32 0854.32
2009/04/23 16:50:35.2     -24   -401    139    402    426 183.5  19.1  34152  289.43 0854.32
2009/04/23 16:50:35.3      39   -421    174    423    457 174.7  23.5  34128  289.04 0854.32
2009/04/23 16:50:35.4      40   -385    249    388    461 174.0  35.6  34092  288.43 0854.32
2009/04/23 16:50:35.5     -18   -335    112    336    355 183.2  18.5  34084  288.27 0854.35
2009/04/23 16:50:35.6    -126   -306     51    332    336 202.5   8.8  34114  288.79 0854.35
2009/04/23 16:50:35.7    -269    -47     73    274    284 260.1  15.0  34150  289.41 0854.35
2009/04/23 16:50:35.8    -173    -41    151    178    233 256.5  44.3  34156  289.52 0854.35
2009/04/23 16:50:35.9    -124    -98    130    159    205 231.8  43.7  34164  289.65 0854.35
2009/04/23 16:50:36.0       7   -157    109    158    191 177.4  37.8  34162  289.62 0854.35
2009/04/23 16:50:36.1       3    -31    158     32    161 173.8  89.0  34186  290.01 0854.35
2009/04/23 16:50:36.2     -15    101    110    103    150 351.5  52.2  34186  290.01 0854.35
2009/04/23 16:50:36.3       0     97    108     98    145 359.6  52.2  34184  289.99 0854.35
2009/04/23 16:50:36.4     -85    212     97    229    248 338.2  24.2  34176  289.83 0854.35
2009/04/23 16:50:36.5    -212     59     22    221    223 285.5   5.7  34178  289.87 0854.35
2009/04/23 16:50:36.6     -88    232      7    249    250 339.1   1.7  34184  289.97 0854.35
2009/04/23 16:50:36.7    -211     84    -15    228    229 291.7  -3.9  34180  289.92 0854.35
2009/04/23 16:50:36.8    -194     64    -26    205    207 288.4  -7.3  34190  290.09 0854.35
2009/04/23 16:50:36.9    -106     67     39    126    132 302.4  17.3  34192  290.11 0854.35
2009/04/23 16:50:37.0    -161   -143     66    216    227 228.4  17.1  34188  290.04 0854.35
2009/04/23 16:50:37.1    -175   -109    127    207    242 238.2  34.5  34200  290.25 0854.35
2009/04/23 16:50:37.2    -192    -98     83    216    231 242.9  22.0  34186  290.01 0854.35
2009/04/23 16:50:37.3    -164    113    179    200    268 304.6  46.6  34212  290.44 0854.35
2009/04/23 16:50:37.4    -110    112    132    158    205 315.5  44.1  34198  290.23 0854.35
2009/04/23 16:50:37.5    -138     65    116    153    192 295.2  41.2  34204  290.33 0854.38
2009/04/23 16:50:37.6    -195     14    129    196    234 274.1  36.0  34218  290.55 0854.38
2009/04/23 16:50:37.7    -272    -28     48    274    279 264.1  10.0  34218  290.54 0854.38
2009/04/23 16:50:37.8    -170     36     76    174    189 282.2  25.3  34220  290.58 0854.38
2009/04/23 16:50:37.9    -175     29    115    178    211 279.5  35.6  34226  290.70 0854.38
2009/04/23 16:50:38.0    -211     49     98    217    238 283.3  25.9  34224  290.67 0854.38
2009/04/23 16:50:38.1    -126     42    177    134    222 288.6  59.4  34238  290.91 0854.38
2009/04/23 16:50:38.2      -1     72    118     73    138 359.1  65.1  34238  290.91 0854.38
2009/04/23 16:50:38.3     -26      2     96     27     99 274.4  84.4  34246  291.04 0854.38
2009/04/23 16:50:38.4     -80     29    134     86    159 290.4  64.4  34246  291.04 0854.38
2009/04/23 16:50:38.5    -153    184    144    240    279 320.3  33.7  34272  291.48 0854.38
2009/04/23 16:50:38.6    -119    234    144    263    299 333.0  31.3  34284  291.67 0854.38
2009/04/23 16:50:38.7     -89    270    111    285    305 341.7  22.8  34286  291.72 0854.38
2009/04/23 16:50:38.8     -98    206     73    229    241 334.6  17.7  34278  291.58 0854.38
2009/04/23 16:50:38.9     -65    240     88    249    265 344.8  19.4  34276  291.55 0854.38
2009/04/23 16:50:39.0     -46    213     61    219    228 347.7  15.6  34254  291.18 0854.38
2009/04/23 16:50:39.1    -137    104      3    173    174 307.1   1.0  34244  290.99 0854.38
2009/04/23 16:50:39.2    -201     45     57    207    215 282.8  15.6  34238  290.89 0854.38
2009/04/23 16:50:39.3    -228     76     20    241    242 288.6   4.9  34236  290.87 0854.38
2009/04/23 16:50:39.4    -235     52    -35    241    244 282.6  -8.3  34260  291.27 0854.38
2009/04/23 16:50:39.5    -140     75     28    159    162 298.2  10.1  34248  291.08 0854.37
2009/04/23 16:50:39.6    -114     67     86    133    158 300.7  36.0  34244  291.01 0854.37
2009/04/23 16:50:39.7    -187     87     32    207    210 295.1   9.0  34244  291.01 0854.37
2009/04/23 16:50:39.8    -160     27     -3    163    164 279.9  -1.3  34260  291.28 0854.37
2009/04/23 16:50:39.9    -174     80     -9    192    193 294.8  -2.8  34252  291.13 0854.37
2009/04/23 16:50:40.0    -162      0     24    163    165 270.0   8.5  34262  291.30 0854.37
2009/04/23 16:50:40.1    -155    -31     16    159    160 258.5   6.1  34266  291.37 0854.37
2009/04/23 16:50:40.2    -225     42     16    229    230 280.6   4.2  34266  291.37 0854.37
2009/04/23 16:50:40.3    -269      8      3    270    271 271.7   0.8  34260  291.27 0854.37
2009/04/23 16:50:40.4    -336     38     27    339    341 276.5   4.6  34266  291.37 0854.37
2009/04/23 16:50:40.5    -216     82     79    232    246 290.8  18.9  34266  291.36 0854.37
2009/04/23 16:50:40.6    -142      0    143    143    202 270.0  50.1  34272  291.47 0854.37
2009/04/23 16:50:40.7    -213     19     58    214    222 275.2  15.2  34276  291.55 0854.37
2009/04/23 16:50:40.8    -286     -8     80    287    298 268.3  15.6  34284  291.68 0854.37
2009/04/23 16:50:40.9    -214      3    113    215    242 270.9  30.2  34280  291.60 0854.37
2009/04/23 16:50:41.0    -207    -14    129    208    244 266.1  34.8  34270  291.43 0854.37
2009/04/23 16:50:41.1       8    -40    119     41    125 168.4  81.2  34274  291.50 0854.37
2009/04/23 16:50:41.2      61    -85    125    105    163 144.4  55.6  34258  291.25 0854.37
2009/04/23 16:50:41.3      53   -193    122    201    235 164.6  34.2  34226  290.69 0854.37
2009/04/23 16:50:41.4      23   -138    207    141    250 170.2  62.7  34230  290.75 0854.37
2009/04/23 16:50:41.5     -23    -49    128     55    139 205.5  75.5  34234  290.84 0854.38
2009/04/23 16:50:41.6      47     14    105     50    116  73.2  72.9  34244  291.01 0854.38
2009/04/23 16:50:41.7      86     25    132     90    159  73.6  62.4  34244  291.01 0854.38
2009/04/23 16:50:41.8     -22    -26    104     35    109 219.7  81.0  34236  290.87 0854.38
2009/04/23 16:50:41.9     -45    -48    116     67    133 223.2  66.8  34222  290.62 0854.38
2009/04/23 16:50:42.0     -69    -37     92     79    121 242.0  54.8  34236  290.86 0854.38
2009/04/23 16:50:42.1     -43    -43    102     62    119 225.1  66.2  34222  290.62 0854.38
2009/04/23 16:50:42.2     -86    -54     18    102    104 238.0  10.1  34210  290.41 0854.38
2009/04/23 16:50:42.3     -72   -100    -52    124    134 215.6 -28.5  34188  290.04 0854.38
2009/04/23 16:50:42.4     -95    -48    -42    107    114 242.9 -26.4  34184  289.99 0854.38
2009/04/23 16:50:42.5     -64     13    -13     66     68 281.5 -11.3  34186  290.01 0854.38
2009/04/23 16:50:42.6     -50     36     -8     62     63 305.9  -7.3  34190  290.08 0854.38
2009/04/23 16:50:42.7     -56    -16     12     59     61 254.1  12.2  34188  290.04 0854.38
2009/04/23 16:50:42.8     -37    -10     17     39     42 254.9  25.1  34194  290.14 0854.38
2009/04/23 16:50:42.9     -38     12     -1     41     42 288.4  -2.2  34196  290.18 0854.38
2009/04/23 16:50:43.1     -24      4     37     25     44 281.5  63.6  34200  290.25 0854.38
2009/04/23 16:50:43.1     -44      0     83     45     94 270.8  68.8  34222  290.64 0854.38
2009/04/23 16:50:43.2    -114     78    110    139    177 304.2  42.7  34258  291.23 0854.38
2009/04/23 16:50:43.3    -100     67    138    121    183 303.7  54.0  34256  291.21 0854.38
2009/04/23 16:50:43.4    -105     67    132    125    181 302.5  52.0  34250  291.11 0854.38
2009/04/23 16:50:43.5     -94     91    114    132    174 314.0  45.4  34244  291.01 0854.36
2009/04/23 16:50:43.6     -92    153     71    179    192 329.0  22.8  34240  290.94 0854.36
2009/04/23 16:50:43.7    -150    139     95    205    225 312.9  27.1  34250  291.11 0854.36
2009/04/23 16:50:43.8    -130    137     43    190    195 316.6  12.9  34252  291.13 0854.36
2009/04/23 16:50:43.9    -127     81     60    151    162 302.5  22.5  34260  291.26 0854.36
2009/04/23 16:50:44.0    -205     93    108    226    250 294.4  27.3  34258  291.22 0854.36
2009/04/23 16:50:44.1    -199    109     79    228    242 298.8  19.2  34248  291.07 0854.36
2009/04/23 16:50:44.2    -203    100     44    227    232 296.4  11.1  34252  291.13 0854.36
2009/04/23 16:50:44.3    -188    136     17    233    234 305.9   4.4  34282  291.63 0854.36
2009/04/23 16:50:44.4     -32    133      1    137    138 346.2   0.7  34302  292.00 0854.36
2009/04/23 16:50:44.5      54     86     12    102    103  32.5   6.9  34294  291.86 0854.36
2009/04/23 16:50:44.6     102     75     19    127    129  53.6   8.5  34286  291.72 0854.36
2009/04/23 16:50:44.7      62    -12     64     64     90 101.5  50.1  34298  291.93 0854.36
2009/04/23 16:50:44.8     -36    -50     81     62    102 216.1  59.0  34308  292.10 0854.36
2009/04/23 16:50:44.9    -103    -57     32    118    123 241.1  15.3  34314  292.18 0854.36
2009/04/23 16:50:45.0     -24    -27   -101     37    107 221.4 -84.1  34312  292.15 0854.36
2009/04/23 16:50:45.1     378    101     40    392    395  75.0   5.9  34182  289.96 0854.36
2009/04/23 16:50:45.2     526    178     22    556    557  71.3   2.3  34104  288.62 0854.36
2009/04/23 16:50:45.3     492    118     63    506    510  76.5   7.1  34108  288.68 0854.36
2009/04/23 16:50:45.4     307    102    190    324    375  71.6  33.1  34204  290.33 0854.36
2009/04/23 16:50:45.5     304    143    252    336    420  64.8  40.7  34224  290.66 0854.36
2009/04/23 16:50:45.6     295    172    234    342    414  59.8  37.7  34208  290.40 0854.36
2009/04/23 16:50:45.7     316     46     18    320    321  81.6   3.3  34198  290.22 0854.36
2009/04/23 16:50:45.8     230    174   -123    289    314  52.9 -29.0  34190  290.09 0854.36
2009/04/23 16:50:45.9     188    203   -151    278    316  42.8 -35.2  34194  290.15 0854.36
2009/04/23 16:50:46.0     279    169     84    327    338  58.8  14.4  34172  289.76 0854.36
2009/04/23 16:50:46.1     392    208    -17    444    445  62.0  -2.2  34190  290.07 0854.36
2009/04/23 16:50:46.2     459    150     42    483    485  71.9   5.1  34162  289.59 0854.36
2009/04/23 16:50:46.3     358    140    286    385    479  68.6  40.2  34174  289.82 0854.36
2009/04/23 16:50:46.4     227    280    288    361    461  39.0  42.7  34202  290.29 0854.36
2009/04/23 16:50:46.5      96    289    432    305    528  18.5  61.4  34212  290.45 0854.36
2009/04/23 16:50:46.6     137    369    302    394    496  20.5  41.3  34206  290.34 0854.36
2009/04/23 16:50:46.7     -14    311    188    312    364 357.3  34.0  34218  290.55 0854.36
2009/04/23 16:50:46.8      30    282    149    284    320   6.3  30.0  34224  290.65 0854.36
2009/04/23 16:50:46.9     240     79     60    253    261  71.6  13.5  34222  290.63 0854.36
2009/04/23 16:50:47.0      50    125    223    135    260  21.8  65.7  34232  290.79 0854.36
2009/04/23 16:50:47.1      40     75    213     86    229  28.1  77.1  34224  290.65 0854.36
2009/04/23 16:50:47.2    -148    249     21    290    291 329.3   4.2  34216  290.53 0854.36
2009/04/23 16:50:47.3      22    193     69    195    208   6.7  19.6  34216  290.52 0854.36
2009/04/23 16:50:47.4     189    160    144    248    286  49.8  32.9  34236  290.85 0854.36
2009/04/23 16:50:47.5     180     98    102    206    229  61.4  28.0  34246  291.04 0854.37
2009/04/23 16:50:47.6     302    120     63    326    333  68.3  11.0  34228  290.74 0854.37
2009/04/23 16:50:47.7     295     39     84    298    310  82.3  15.8  34268  291.39 0854.37
2009/04/23 16:50:47.8     440    137    219    461    510  72.7  27.3  34216  290.52 0854.37
2009/04/23 16:50:47.9     344   -146    106    374    389 113.0  15.9  34292  291.83 0854.37
2009/04/23 16:50:48.0     498    -94    137    507    526 100.7  15.2  34172  289.79 0854.37
2009/04/23 16:50:48.1     607   -149    222    626    665 103.8  19.5  34174  289.81 0854.37
2009/04/23 16:50:48.2     561   -228     94    606    614 112.2   8.9  34218  290.56 0854.37
2009/04/23 16:50:48.3     620    -60    253    624    673  95.6  23.2  34204  290.33 0854.37
2009/04/23 16:50:48.4     298    -54    317    303    438 100.4  51.3  34240  290.94 0854.37
2009/04/23 16:50:48.5     274   -185    296    331    444 124.1  46.3  34226  290.68 0854.37
2009/04/23 16:50:48.6     447    -86    165    456    484 101.0  20.7  34172  289.78 0854.37
2009/04/23 16:50:48.7     223   -139    117    263    287 122.0  25.7  34256  291.21 0854.37
2009/04/23 16:50:48.8     210   -230    125    312    336 137.7  23.0  34242  290.95 0854.37
2009/04/23 16:50:48.9     388   -358    171    529    556 132.7  17.9  34224  290.67 0854.37
2009/04/23 16:50:49.1     383   -380    119    540    554 134.8  12.5  34224  290.65 0854.37
2009/04/23 16:50:49.2     257   -439     57    509    513 149.6   6.5  34228  290.71 0854.37
2009/04/23 16:50:49.3     223   -321     55    392    397 145.2   8.1  34214  290.49 0854.37
2009/04/23 16:50:49.4     281   -235     79    367    376 130.0  12.3  34230  290.77 0854.37
2009/04/23 16:50:49.5     201   -217     15    297    298 137.2   2.9  34228  290.71 0854.37
2009/04/23 16:50:49.6     161   -270    -30    315    317 149.3  -5.5  34128  289.02 0854.34
2009/04/23 16:50:49.7      20   -295    -42    296    300 176.0  -8.2  34232  290.78 0854.34
2009/04/23 16:50:49.8      76   -379    101    387    400 168.6  14.7  34228  290.74 0854.34
2009/04/23 16:50:49.9     109   -408     93    423    434 165.0  12.5  34248  291.07 0854.34
2009/04/23 16:50:50.0       2   -413    121    414    432 179.7  16.4  34230  290.75 0854.34
2009/04/23 16:50:50.1     103   -583     -2    593    594 170.0  -0.3  34156  289.52 0854.34
2009/04/23 16:50:50.2     101   -587      8    596    597 170.2   0.8  34176  289.85 0854.34
2009/04/23 16:50:50.3     158   -564     73    586    591 164.3   7.1  34212  290.47 0854.34
2009/04/23 16:50:50.4      43   -515     73    518    524 175.1   8.1  34222  290.63 0854.34
2009/04/23 16:50:50.5     -21   -460    148    461    485 182.7  17.8  34192  290.13 0854.34
2009/04/23 16:50:50.6     -88   -432    164    442    471 191.6  21.4  34194  290.16 0854.34
2009/04/23 16:50:50.7      42   -387     23    390    391 173.7   3.5  34188  290.04 0854.34
2009/04/23 16:50:50.8      51   -398     79    402    410 172.6  11.1  34184  289.99 0854.34
2009/04/23 16:50:50.9      17   -276    119    277    301 176.4  24.9  34204  290.32 0854.34
2009/04/23 16:50:51.0      80   -298    144    309    340 164.8  26.9  34194  290.15 0854.34
2009/04/23 16:50:51.1     -97   -307    197    323    378 197.6  34.4  34218  290.55 0854.34
2009/04/23 16:50:51.2     -86   -299    272    312    413 196.0  45.6  34248  291.05 0854.34
2009/04/23 16:50:51.3    -166   -358    261    395    473 204.9  36.6  34186  290.00 0854.34
2009/04/23 16:50:51.4     -78   -293    266    304    403 195.1  45.7  34202  290.27 0854.34
2009/04/23 16:50:51.5    -102   -223    274    246    368 204.7  53.6  34198  290.20 0854.34
2009/04/23 16:50:51.6      -5    -35    266     36    268 188.0  90.0  34224  290.65 0854.34
2009/04/23 16:50:51.7     -59    -74    199     95    220 218.7  72.8  34220  290.60 0854.34
2009/04/23 16:50:51.8     -96    -69    200    119    232 234.1  66.4  34226  290.69 0854.34
2009/04/23 16:50:51.9     -93     51    123    107    163 298.9  54.3  34234  290.84 0854.34
2009/04/23 16:50:52.0     -65    -77    120    101    156 220.1  55.6  34198  290.23 0854.34
2009/04/23 16:50:52.1    -231    -17     80    232    246 265.6  19.2  34210  290.42 0854.34
2009/04/23 16:50:52.2    -188     16     99    189    213 275.0  29.8  34220  290.58 0854.34
2009/04/23 16:50:52.3    -198    105     57    225    233 298.0  14.3  34140  289.23 0854.34
2009/04/23 16:50:52.4    -155     95    154    182    238 301.5  44.8  34182  289.96 0854.34
2009/04/23 16:50:52.5    -152     60     82    164    183 291.7  28.7  34200  290.26 0854.34
2009/04/23 16:50:52.6      38     21     95     44    104  60.2  73.5  34220  290.58 0854.34
2009/04/23 16:50:52.7    -127    -17     44    129    137 262.1  18.9  34200  290.26 0854.34
2009/04/23 16:50:52.8    -164     52     62    173    183 287.5  20.2  34202  290.28 0854.34
2009/04/23 16:50:52.9    -222    142    -10    264    265 302.6  -2.3  34168  289.70 0854.34
2009/04/23 16:50:53.0    -236     33     79    239    252 278.1  18.4  34152  289.44 0854.34
2009/04/23 16:50:53.1    -264    -53    186    270    327 258.5  37.9  34178  289.86 0854.34
2009/04/23 16:50:53.2    -124      0    122    125    174 269.6  49.8  34196  290.18 0854.34
2009/04/23 16:50:53.3    -215      7     88    216    233 272.1  23.1  34182  289.96 0854.34
2009/04/23 16:50:53.4    -212     26     41    214    219 277.2  11.0  34174  289.80 0854.34
2009/04/23 16:50:53.5    -224    -61     13    233    234 254.7   3.3  34192  290.12 0854.34
2009/04/23 16:50:53.6    -191     72     -1    205    206 290.8  -0.5  34222  290.64 0854.34
2009/04/23 16:50:53.7     -97     18      0     99    100 280.6   0.2  34212  290.47 0854.34
2009/04/23 16:50:53.8     -70   -127     17    145    147 208.9   6.9  34200  290.25 0854.34
2009/04/23 16:50:53.9    -108   -150     79    186    202 215.8  24.3  34200  290.25 0854.34
2009/04/23 16:50:54.0      -9   -168    -11    169    170 183.1  -3.9  34114  288.79 0854.34
2009/04/23 16:50:54.1      55   -200    -42    208    213 164.6 -11.5  34110  288.74 0854.34
2009/04/23 16:50:54.2      59   -168     63    179    190 160.4  19.4  34118  288.87 0854.34
2009/04/23 16:50:54.3    -101   -106     51    147    156 223.7  19.2  34158  289.53 0854.34
2009/04/23 16:50:54.4     -84    -95     94    128    158 221.5  40.1  34160  289.57 0854.34
2009/04/23 16:50:54.5      28    -71    137     77    157 158.2  68.5  34164  289.65 0854.34
2009/04/23 16:50:54.6       1   -110    133    111    173 179.1  56.1  34162  289.60 0854.34
2009/04/23 16:50:54.7      43   -179    245    185    307 166.4  59.4  34124  288.95 0854.34
2009/04/23 16:50:54.8     170   -237    196    292    351 144.4  37.2  34116  288.84 0854.34
2009/04/23 16:50:54.9     123   -322    196    345    396 159.1  32.3  34100  288.55 0854.34
2009/04/23 16:50:55.0      49   -363    202    367    418 172.3  31.4  34106  288.67 0854.34
2009/04/23 16:50:55.1      58   -336    263    342    431 170.2  41.5  34108  288.68 0854.34
2009/04/23 16:50:55.2      72   -385    202    392    440 169.3  29.3  34108  288.68 0854.34
2009/04/23 16:50:55.3      42   -351    239    354    427 173.1  37.3  34112  288.75 0854.34
2009/04/23 16:50:55.4      -9   -338    186    339    386 181.6  31.3  34118  288.86 0854.34
2009/04/23 16:50:55.5     -78   -349    175    358    398 192.7  28.0  34104  288.62 0854.34
2009/04/23 16:50:55.6     -73   -359    133    367    391 191.5  19.9  34116  288.81 0854.34
2009/04/23 16:50:55.7    -131   -407    155    428    455 197.9  20.9  34116  288.82 0854.34
2009/04/23 16:50:55.8    -210   -209    148    297    331 225.2  28.5  34112  288.75 0854.34
2009/04/23 16:50:55.9    -196   -194    105    276    295 225.3  22.0  34120  288.90 0854.34
2009/04/23 16:50:56.0    -148   -179     98    233    252 219.6  24.1  34120  288.90 0854.34
2009/04/23 16:50:56.1    -136   -254    135    289    318 208.1  26.9  34110  288.71 0854.34
2009/04/23 16:50:56.2     -65   -220    121    230    259 196.5  30.1  34116  288.81 0854.34
2009/04/23 16:50:56.3     -89   -241     97    257    274 200.3  21.7  34122  288.92 0854.34
2009/04/23 16:50:56.4     -74   -241     59    253    260 197.2  13.2  34126  288.98 0854.34
2009/04/23 16:50:56.5     -92   -299     13    313    314 197.2   2.5  34130  289.05 0854.34
2009/04/23 16:50:56.6     -50   -213     93    219    237 193.4  24.3  34126  288.99 0854.34
2009/04/23 16:50:56.7     -30   -207     98    210    231 188.2  27.1  34118  288.87 0854.34
2009/04/23 16:50:56.8     -27   -195     76    197    211 188.0  22.0  34118  288.86 0854.34
2009/04/23 16:50:56.9      -9   -126     93    127    157 184.4  39.9  34120  288.91 0854.34
2009/04/23 16:50:57.0       7    -91     85     92    125 175.5  47.9  34138  289.19 0854.34
2009/04/23 16:50:57.1      27    -84    104     89    136 161.7  55.4  34140  289.23 0854.34
2009/04/23 16:50:57.2      11      3     90     12     90  71.6  90.0  34154  289.48 0854.34
2009/04/23 16:50:57.3       0      3    108      4    108 355.5  90.0  34170  289.74 0854.34
2009/04/23 16:50:57.4     -12     13     91     18     92 316.6  89.1  34170  289.75 0854.34
2009/04/23 16:50:57.5       9      3     85     10     85  68.3  90.0  34176  289.84 0854.34
2009/04/23 16:50:57.6      -8     23     76     25     80 340.0  81.2  34178  289.89 0854.34
2009/04/23 16:50:57.7     -20     26     54     34     63 322.2  64.7  34180  289.92 0854.34
2009/04/23 16:50:57.8      45     37     82     59    101  50.5  60.6  34158  289.53 0854.34
2009/04/23 16:50:57.9     177     84    103    197    222  64.6  30.1  34146  289.33 0854.34
2009/04/23 16:50:58.0     130     59     79    143    163  65.6  31.6  34156  289.52 0854.34
2009/04/23 16:50:58.1     109     48    148    120    190  66.0  56.4  34180  289.92 0854.34
2009/04/23 16:50:58.2     144     79    196    165    256  61.1  55.8  34254  291.16 0854.34
2009/04/23 16:50:58.3     160     88    170    183    249  61.1  47.9  34210  290.41 0854.34
2009/04/23 16:50:58.4     151     52    145    160    215  70.9  46.9  34212  290.47 0854.34
2009/04/23 16:50:58.5     116     38    138    123    184  71.8  53.7  34260  291.28 0854.34
2009/04/23 16:50:58.6      30     64     96     72    120  25.5  59.4  34238  290.91 0854.35
2009/04/23 16:50:58.7      16     29    121     34    125  29.0  84.4  34246  291.04 0854.35
2009/04/23 16:50:58.8      -4      7     31      9     32 327.5  82.8  34228  290.72 0854.35
2009/04/23 16:50:58.9      39     74     72     84    110  28.1  44.8  34248  291.06 0854.35
2009/04/23 16:50:59.0     -62     87    119    107    160 324.4  53.5  34264  291.35 0854.35
2009/04/23 16:50:59.1      48      0     69     49     84  89.2  61.5  34310  292.13 0854.35
2009/04/23 16:50:59.2     111     46     74    121    141  67.4  34.4  34324  292.35 0854.35
2009/04/23 16:50:59.3      34   -104     98    110    147 161.7  46.4  34268  291.42 0854.35
2009/04/23 16:50:59.4     164    -10    188    165    250  93.7  54.3  34312  292.15 0854.35
2009/04/23 16:50:59.5      33    -15    160     37    164 115.3  87.5  34302  292.00 0854.35
2009/04/23 16:50:59.6      41     88    116     98    151  24.9  55.8  34346  292.75 0854.35
2009/04/23 16:50:59.7      58     19    116     62    131  71.6  69.8  34340  292.64 0854.35
2009/04/23 16:50:59.8     114      0    168    115    203  89.6  62.6  34338  292.59 0854.35
2009/04/23 16:50:59.9     194     -2    218    195    292  90.8  53.7  34278  291.56 0854.35
2009/04/23 16:51:00.0     179    -88    193    200    277 116.4  49.0  34236  290.87 0854.35
2009/04/23 16:51:00.1      83    -82    192    117    224 134.6  65.7  34264  291.35 0854.35
2009/04/23 16:51:00.2     -26    -17    142     32    145 235.8  87.5  34170  289.75 0854.35
2009/04/23 16:51:00.3      23    -53    174     58    183 156.4  81.0  34194  290.14 0854.35
2009/04/23 16:51:00.4     -50     23    242     56    248 295.2  87.5  34284  291.67 0854.35
2009/04/23 16:51:00.5     -71    -59    172     93    195 230.0  69.3  34244  290.99 0854.35
2009/04/23 16:51:00.6     -83   -227    216    242    324 200.1  46.4  34130  289.05 0854.35
2009/04/23 16:51:00.7     -47   -252    197    257    323 190.7  41.4  34124  288.95 0854.35
2009/04/23 16:51:00.8     -37   -298    105    301    318 187.2  20.0  34132  289.09 0854.35
2009/04/23 16:51:00.9     -45   -242    169    247    299 190.7  37.6  34130  289.07 0854.35
2009/04/23 16:51:01.0     -92   -231    128    249    279 201.8  29.3  34124  288.97 0854.35
2009/04/23 16:51:01.1      -7   -199    123    200    234 182.2  34.4  34142  289.26 0854.35
2009/04/23 16:51:01.2     -56   -221     84    229    243 194.3  20.9  34136  289.17 0854.35
2009/04/23 16:51:01.3      -8   -178      9    179    180 182.7   2.9  34136  289.16 0854.35
2009/04/23 16:51:01.4      15   -161     10    162    163 174.7   3.6  34136  289.16 0854.35
2009/04/23 16:51:01.5      15    -85     34     87     93 169.8  22.0  34140  289.23 0854.35
2009/04/23 16:51:01.6      19   -129    -16    131    133 171.5  -7.2  34138  289.19 0854.35
2009/04/23 16:51:01.7       8   -113      0    114    115 175.5  -0.3  34134  289.14 0854.35
2009/04/23 16:51:01.8     -50   -134     52    144    153 200.5  20.4  34138  289.21 0854.35
2009/04/23 16:51:01.9     -69   -258     89    268    283 195.1  18.4  34132  289.09 0854.35
2009/04/23 16:51:02.0     -61   -243     56    251    258 194.2  12.6  34136  289.15 0854.35
2009/04/23 16:51:02.1     -63   -215    -12    225    226 196.5  -3.2  34132  289.09 0854.35
2009/04/23 16:51:02.2     -83   -246     -5    260    261 198.7  -1.3  34134  289.12 0854.35
2009/04/23 16:51:02.3    -114   -168      5    204    205 214.1   1.6  34142  289.26 0854.35
2009/04/23 16:51:02.4     -14   -189     49    190    197 184.5  14.5  34134  289.14 0854.35
2009/04/23 16:51:02.5       2   -159     11    160    161 179.1   4.2  34134  289.14 0854.35
2009/04/23 16:51:02.6      18   -128     67    130    146 171.9  29.3  34132  289.11 0854.36
2009/04/23 16:51:02.7     -15   -106     98    108    145 188.5  47.9  34134  289.13 0854.36
2009/04/23 16:51:02.8      -2    -74    112     75    134 181.8  63.6  34144  289.30 0854.36
2009/04/23 16:51:02.9     -25    -82     96     86    128 197.4  53.3  34140  289.24 0854.36
2009/04/23 16:51:03.0     -26    -98    125    102    161 195.1  56.6  34144  289.30 0854.36
2009/04/23 16:51:03.1     -35   -106     79    112    137 198.7  39.1  34138  289.21 0854.36
2009/04/23 16:51:03.2      10   -142     78    143    162 175.6  31.0  34134  289.13 0854.36
2009/04/23 16:51:03.3      34   -190     67    194    206 169.8  19.2  34120  288.91 0854.36
2009/04/23 16:51:03.4      25   -148     89    151    175 170.2  33.7  34130  289.06 0854.36
2009/04/23 16:51:03.5      15   -142     28    143    146 173.7  11.1  34126  288.99 0854.36
2009/04/23 16:51:03.6      80    -91      6    122    123 138.6   2.9  34124  288.97 0854.36
2009/04/23 16:51:03.7      63    -54    -15     84     86 130.4 -10.3  34126  288.99 0854.36
2009/04/23 16:51:03.8      58    -95     38    112    119 148.4  18.9  34128  289.02 0854.36
2009/04/23 16:51:03.9      25   -140     46    143    151 169.8  17.9  34126  288.99 0854.36
2009/04/23 16:51:04.0       5   -122     40    123    130 177.4  17.9  34128  289.04 0854.36
2009/04/23 16:51:04.1      37   -102     57    109    123 160.0  29.3  34128  289.04 0854.36
2009/04/23 16:51:04.2      34   -125     25    130    133 164.4  11.0  34128  289.02 0854.36
2009/04/23 16:51:04.3     126    -89     48    155    163 125.5  17.3  34130  289.06 0854.36
2009/04/23 16:51:04.4     167   -100     89    195    214 120.9  26.4  34136  289.16 0854.36
2009/04/23 16:51:04.5     127    -73     99    147    177 119.8  37.3  34140  289.23 0854.36
2009/04/23 16:51:04.6       0   -110    123    111    165 180.4  53.3  34144  289.30 0854.37
2009/04/23 16:51:04.7      64    -25    112     69    131 111.7  65.1  34152  289.43 0854.37
2009/04/23 16:51:04.8      85    -45    108     97    145 118.0  53.3  34150  289.40 0854.37
2009/04/23 16:51:04.9      47     30     92     56    107  57.6  65.1  34176  289.85 0854.37
2009/04/23 16:51:05.0     -19     54    112     58    126 340.8  70.8  34172  289.77 0854.37
2009/04/23 16:51:05.1      63      2     86     64    107  87.4  60.0  34164  289.63 0854.37
2009/04/23 16:51:05.2      11     25     49     28     56  23.6  66.8  34162  289.60 0854.37
2009/04/23 16:51:05.3     -36      7     45     37     58 281.5  56.3  34172  289.79 0854.37
2009/04/23 16:51:05.4      -2     17     34     18     38 352.0  70.8  34168  289.70 0854.37
2009/04/23 16:51:05.5      10    -24     18     27     32 156.4  35.6  34162  289.60 0854.37
2009/04/23 16:51:05.6      -8    -65     59     66     88 187.1  46.9  34150  289.41 0854.37
2009/04/23 16:51:05.7     -15   -124     44    125    133 187.1  19.4  34140  289.23 0854.37
2009/04/23 16:51:05.8     -18   -118     37    120    126 188.9  17.4  34134  289.14 0854.37
2009/04/23 16:51:05.9     -43   -120     55    128    139 200.0  24.6  34138  289.19 0854.37
2009/04/23 16:51:06.0     -19   -120     62    122    136 189.3  29.2  34140  289.23 0854.37
2009/04/23 16:51:06.1     -22   -109     57    112    125 191.6  29.2  34140  289.23 0854.37
2009/04/23 16:51:06.2      29   -115     40    119    126 165.7  18.9  34134  289.13 0854.37
2009/04/23 16:51:06.3       9    -81     24     82     86 173.3  16.3  34136  289.18 0854.37
2009/04/23 16:51:06.4      11    -74     14     75     77 171.1  11.1  34136  289.18 0854.37
2009/04/23 16:51:06.5       0    -41     18     42     45 180.9  24.1  34140  289.23 0854.37
2009/04/23 16:51:06.6     -17    -53      5     56     57 198.5   5.9  34136  289.18 0854.38
2009/04/23 16:51:06.7     -54    -38     29     67     73 234.9  25.1  34138  289.21 0854.38
2009/04/23 16:51:06.8     -35    -28     32     45     55 231.4  38.6  34140  289.24 0854.38
2009/04/23 16:51:06.9     -17    -27     37     33     49 212.5  53.3  34140  289.24 0854.38
2009/04/23 16:51:07.0      -8    -25     29     27     39 198.7  51.2  34150  289.41 0854.38
2009/04/23 16:51:07.1     -22     -7     18     24     30 251.8  41.7  34160  289.57 0854.38
2009/04/23 16:51:07.2       0    -16     34     17     38 182.7  72.8  34164  289.65 0854.38
2009/04/23 16:51:07.3     -22    -22     59     32     67 225.0  68.9  34152  289.43 0854.38
2009/04/23 16:51:07.4     -10    -31     64     33     72 198.7  71.9  34152  289.43 0854.38
2009/04/23 16:51:07.5     -23    -54     57     59     82 203.6  49.4  34140  289.23 0854.38
2009/04/23 16:51:07.6     -18    -49     75     53     91 200.9  61.1  34146  289.35 0854.38
2009/04/23 16:51:07.7     -23    -54     72     59     93 203.6  56.4  34152  289.45 0854.38
2009/04/23 16:51:07.8      -9    -19     54     22     58 205.4  78.2  34158  289.55 0854.38
2009/04/23 16:51:07.9      15     -4     41     16     44 105.1  79.2  34162  289.62 0854.38
2009/04/23 16:51:08.0       5    -21     59     22     62 166.6  79.2  34164  289.65 0854.38
2009/04/23 16:51:08.1      21    -46     62     51     80 154.6  56.4  34172  289.77 0854.38
2009/04/23 16:51:08.2       4     38     46     39     60   6.2  56.3  34198  290.23 0854.38
2009/04/23 16:51:08.3      16     18     69     25     73  41.4  81.2  34202  290.28 0854.38
2009/04/23 16:51:08.4     -13      4     57     14     58 288.6  85.9  34174  289.82 0854.38
2009/04/23 16:51:08.5      -9     31     18     33     37 343.1  31.4  34162  289.62 0854.38
2009/04/23 16:51:08.6      23     70     14     74     76  18.3  11.0  34156  289.52 0854.38
2009/04/23 16:51:08.7      82    156     43    177    183  27.6  13.7  34154  289.48 0854.38
2009/04/23 16:51:08.8     101    100     27    143    146  45.1  11.0  34154  289.46 0854.38
2009/04/23 16:51:08.9      78     87     45    117    125  41.9  22.0  34168  289.72 0854.38
2009/04/23 16:51:09.0      62     71     52     95    108  41.0  30.8  34166  289.69 0854.38
2009/04/23 16:51:09.1      38     36     35     53     63  46.9  36.5  34168  289.72 0854.38
2009/04/23 16:51:09.2      46     46     25     66     70  45.1  22.0  34164  289.65 0854.38
2009/04/23 16:51:09.3      59     20     32     63     70  70.9  28.2  34170  289.75 0854.38
2009/04/23 16:51:09.4      62      7     47     63     78  83.0  41.2  34178  289.89 0854.38
2009/04/23 16:51:09.5      21      0     72     22     75  90.0  80.7  34190  290.08 0854.38
2009/04/23 16:51:09.6       6      5     55      8     55  50.5  90.0  34190  290.09 0854.38
2009/04/23 16:51:09.7     -12      1     41     13     43 277.9  80.7  34192  290.13 0854.38
2009/04/23 16:51:09.8     -34      2     19     35     39 274.3  31.4  34172  289.79 0854.38
2009/04/23 16:51:09.9      -1    -11     31     12     33 188.0  81.2  34162  289.62 0854.38
2009/04/23 16:51:10.0     -20    -32     61     39     72 212.5  64.6  34154  289.46 0854.38
2009/04/23 16:51:10.1      -9      0     22     10     24 270.0  75.0  34158  289.53 0854.38
2009/04/23 16:51:10.2      26     27     18     38     42  43.2  27.2  34162  289.62 0854.38
2009/04/23 16:51:10.3      82    -48     68     96    117 120.7  39.5  34154  289.46 0854.38
2009/04/23 16:51:10.4      82    -92     59    124    137 138.6  27.2  34148  289.36 0854.38
2009/04/23 16:51:10.5     136    -87     74    162    178 122.5  26.2  34144  289.31 0854.38
2009/04/23 16:51:10.6      68   -121     28    140    143 150.6  11.6  34144  289.31 0854.38
2009/04/23 16:51:10.7      83   -114     90    142    168 144.0  35.5  34138  289.21 0854.38
2009/04/23 16:51:10.8      61   -125     93    140    168 154.1  36.5  34140  289.24 0854.38
2009/04/23 16:51:10.9     -24   -130    116    133    176 190.7  45.6  34140  289.23 0854.38
2009/04/23 16:51:11.0     -23   -116     87    119    147 191.6  39.7  34150  289.41 0854.38
2009/04/23 16:51:11.1     -28   -132     77    135    155 192.0  32.4  34150  289.40 0854.38
2009/04/23 16:51:11.2     -39   -124    123    131    179 197.4  48.2  34158  289.53 0854.38
2009/04/23 16:51:11.3     -29    -92     98     97    137 197.8  50.1  34150  289.40 0854.38
2009/04/23 16:51:11.4     -22   -109     76    112    135 191.6  37.4  34158  289.55 0854.38
2009/04/23 16:51:11.5     -42   -129     48    136    145 198.3  19.4  34166  289.67 0854.38
2009/04/23 16:51:11.6     -52   -130    105    141    175 201.9  40.4  34164  289.63 0854.36
2009/04/23 16:51:11.7    -163   -124     80    205    220 232.7  22.5  34178  289.87 0854.36
2009/04/23 16:51:11.8    -168    -92     68    192    204 241.1  19.6  34182  289.96 0854.36
2009/04/23 16:51:11.9    -139    -55     29    150    153 248.3  11.1  34174  289.82 0854.36
2009/04/23 16:51:12.0    -117   -138    125    181    219 220.3  38.0  34172  289.77 0854.36
2009/04/23 16:51:12.1     -54    -70     35     89     95 217.8  22.5  34180  289.91 0854.36
2009/04/23 16:51:12.2     -21    -34     70     41     81 211.6  67.2  34170  289.75 0854.36
2009/04/23 16:51:12.3       5     76     53     77     93   4.4  37.6  34182  289.94 0854.36
2009/04/23 16:51:12.4     -27    -24     61     37     71 228.7  64.7  34176  289.85 0854.36
2009/04/23 16:51:12.5      20    -81     74     84    111 165.7  46.4  34164  289.65 0854.36
2009/04/23 16:51:12.6      51   -153     62    162    173 161.3  21.7  34172  289.79 0854.36
2009/04/23 16:51:12.7      -6   -134     95    135    165 182.7  38.6  34176  289.84 0854.36
2009/04/23 16:51:12.8      10   -107     80    108    134 174.2  40.1  34186  290.01 0854.36
2009/04/23 16:51:12.9      26   -128     89    131    158 168.5  37.6  34166  289.69 0854.36
2009/04/23 16:51:13.0      11   -150     67    151    165 175.5  25.3  34154  289.46 0854.36
2009/04/23 16:51:13.1      22   -173     65    175    186 172.7  21.5  34150  289.41 0854.36
2009/04/23 16:51:13.2      39   -173     -3    178    179 167.3  -1.2  34150  289.40 0854.36
2009/04/23 16:51:13.3      91   -172     44    195    201 152.1  12.9  34154  289.46 0854.36
2009/04/23 16:51:13.4      70   -194     32    207    210 160.2   8.8  34150  289.40 0854.36
2009/04/23 16:51:13.5      33   -162     36    166    171 168.4  12.4  34148  289.36 0854.36
2009/04/23 16:51:13.6      29   -147     62    150    162 168.5  23.6  34148  289.38 0854.35
2009/04/23 16:51:13.7      37   -144     69    149    164 165.3  26.6  34148  289.38 0854.35
2009/04/23 16:51:13.8      42   -158     89    164    186 164.9  30.8  34152  289.45 0854.35
2009/04/23 16:51:13.9      24   -154     83    156    176 171.1  30.3  34154  289.46 0854.35
2009/04/23 16:51:14.0      51   -140    116    150    189 160.0  42.0  34154  289.48 0854.35
2009/04/23 16:51:14.1      26   -128    114    131    173 168.4  45.6  34154  289.48 0854.35
2009/04/23 16:51:14.2     -13   -180     65    181    192 184.2  20.2  34152  289.43 0854.35
2009/04/23 16:51:14.3      -4   -163     62    164    175 181.6  21.3  34150  289.41 0854.35
2009/04/23 16:51:14.4      15   -199     18    200    201 175.5   5.4  34148  289.36 0854.35
2009/04/23 16:51:14.5     -16   -218     18    219    220 184.4   4.9  34148  289.38 0854.35
2009/04/23 16:51:14.6     -32   -200     -2    203    204 189.1  -0.7  34148  289.36 0854.35
2009/04/23 16:51:14.7     -98   -171    -32    198    201 209.9  -9.3  34176  289.84 0854.35
2009/04/23 16:51:14.8     -31   -187      2    190    191 189.6   0.8  34154  289.46 0854.35
2009/04/23 16:51:14.9      58   -163    -11    174    175 160.4  -3.7  34146  289.35 0854.35
2009/04/23 16:51:15.0      10   -136     -3    137    138 175.5  -1.3  34148  289.38 0854.35
2009/04/23 16:51:15.1      14   -146     51    147    156 174.2  19.4  34146  289.35 0854.35
2009/04/23 16:51:15.2       7   -159     69    160    174 177.3  24.6  34148  289.38 0854.35
2009/04/23 16:51:15.3     -21   -174     57    176    186 186.9  18.1  34150  289.41 0854.35
2009/04/23 16:51:15.4      -3   -204     56    205    213 180.9  15.3  34144  289.31 0854.35
2009/04/23 16:51:15.5      13   -174    101    175    202 175.6  32.9  34148  289.38 0854.35
2009/04/23 16:51:15.6      11   -151     84    152    173 175.5  31.6  34148  289.38 0854.36
2009/04/23 16:51:15.7      19   -133     65    135    149 171.5  27.3  34148  289.38 0854.36
2009/04/23 16:51:15.8      42   -132     57    139    150 162.2  23.1  34146  289.35 0854.36
2009/04/23 16:51:16.0      45   -214     77    219    233 168.0  19.4  34146  289.33 0854.36
2009/04/23 16:51:16.1      51   -241     97    247    265 168.0  23.0  34148  289.36 0854.36
2009/04/23 16:51:16.1      38   -224     71    228    239 170.2  17.3  34150  289.39 0854.36
2009/04/23 16:51:16.3      12   -157     -6    158    159 175.5  -2.2  34146  289.35 0854.36
2009/04/23 16:51:16.4     -14   -114     47    115    124 187.1  23.0  34148  289.38 0854.36
2009/04/23 16:51:16.5      38   -109     50    116    126 160.8  25.1  34144  289.31 0854.36
2009/04/23 16:51:16.6      47   -143     32    151    155 161.7  12.2  34144  289.30 0854.36
2009/04/23 16:51:16.7      34   -163     57    167    177 168.0  18.9  34144  289.31 0854.36
2009/04/23 16:51:16.8     -17   -211     66    212    223 184.9  17.4  34138  289.19 0854.36
2009/04/23 16:51:16.9     -28   -207    108    209    235 187.8  29.3  34140  289.24 0854.36
2009/04/23 16:51:17.0     -18   -215     74    216    229 184.9  18.9  34140  289.24 0854.36
2009/04/23 16:51:17.1      23   -267    122    269    295 174.9  26.2  34158  289.53 0854.36
2009/04/23 16:51:17.2      12   -228    149    229    273 176.9  36.3  34156  289.49 0854.36
2009/04/23 16:51:17.3     -43   -229    160    234    283 190.7  37.6  34144  289.29 0854.36
2009/04/23 16:51:17.4     -55   -253    143    260    296 192.4  31.3  34140  289.24 0854.36
2009/04/23 16:51:17.5     -47   -260    120    265    290 190.2  26.2  34142  289.25 0854.36
2009/04/23 16:51:17.6     -28   -209    138    211    252 187.8  36.0  34164  289.63 0854.36
2009/04/23 16:51:17.7     -14   -195    186    196    270 184.4  48.5  34176  289.85 0854.38
2009/04/23 16:51:17.8      20   -245    206    246    320 175.1  44.3  34190  290.07 0854.38
2009/04/23 16:51:17.9     -29   -233    156    235    282 187.1  36.5  34188  290.03 0854.38
2009/04/23 16:51:18.0     -64   -235    166    244    295 195.4  37.6  34198  290.20 0854.38
2009/04/23 16:51:18.1     -84   -210    174    227    286 201.8  41.6  34212  290.46 0854.38
2009/04/23 16:51:18.2     -49   -211    123    217    249 193.3  32.3  34200  290.24 0854.38
2009/04/23 16:51:18.3     -47   -221     83    226    240 192.0  20.9  34198  290.20 0854.38
2009/04/23 16:51:18.4     -34   -199    164    202    260 189.8  43.5  34214  290.49 0854.38
2009/04/23 16:51:18.5     -63   -258    172    266    316 193.8  36.0  34212  290.46 0854.38
2009/04/23 16:51:18.6     -71   -247    211    258    333 196.0  43.5  34190  290.07 0854.38
2009/04/23 16:51:18.7     -44   -199    229    205    307 192.7  53.5  34174  289.80 0854.38
2009/04/23 16:51:18.8     -87   -216    203    234    309 202.1  45.4  34190  290.09 0854.38
2009/04/23 16:51:18.9    -123   -187    144    225    267 213.4  35.6  34190  290.09 0854.38
2009/04/23 16:51:19.0     -30   -133    151    137    203 192.9  52.7  34178  289.87 0854.38
2009/04/23 16:51:19.1      -8   -186    148    187    238 182.7  42.4  34170  289.74 0854.38
2009/04/23 16:51:19.2     -53   -154    155    164    225 199.2  48.0  34156  289.50 0854.38
2009/04/23 16:51:19.3    -127   -126    169    180    246 225.2  48.0  34192  290.13 0854.38
2009/04/23 16:51:19.4     -79   -109    145    135    198 216.0  52.2  34176  289.84 0854.38
2009/04/23 16:51:19.5     -20    -79     99     82    128 194.3  56.3  34156  289.50 0854.38
2009/04/23 16:51:19.6      10   -142     76    143    161 176.0  30.1  34146  289.35 0854.38
2009/04/23 16:51:19.7     -51   -156     70    165    179 198.0  24.1  34140  289.24 0854.38
2009/04/23 16:51:19.8     -95   -157    102    184    210 211.4  31.4  34142  289.26 0854.38
2009/04/23 16:51:19.9     -89   -160     27    184    187 209.0   8.5  34142  289.28 0854.38
2009/04/23 16:51:20.0     -81   -152     -6    173    174 208.1  -2.2  34142  289.28 0854.38
2009/04/23 16:51:20.1     -71   -188     63    201    211 200.7  17.4  34136  289.16 0854.38
2009/04/23 16:51:20.2    -109   -189    115    219    247 209.9  30.1  34138  289.20 0854.38
2009/04/23 16:51:20.3     -48    -84     62     98    115 209.9  35.5  34142  289.28 0854.38
2009/04/23 16:51:20.4      76    -52    102     93    138 124.6  52.2  34148  289.38 0854.38
2009/04/23 16:51:20.5     103    -47     41    114    121 114.8  20.9  34144  289.31 0854.38
2009/04/23 16:51:20.6      75    -10     73     76    105  97.9  49.4  34144  289.31 0854.38
2009/04/23 16:51:20.7      81     26     65     86    107  71.8  40.7  34144  289.31 0854.38
2009/04/23 16:51:20.8      62     28     44     69     81  65.6  35.5  34142  289.26 0854.38
2009/04/23 16:51:20.9      82     35     49     90    102  66.5  31.3  34140  289.23 0854.38
2009/04/23 16:51:21.0      95     32     46    101    110  71.4  26.6  34138  289.21 0854.38
2009/04/23 16:51:21.1      76     25     49     81     94  71.4  35.0  34144  289.30 0854.38
2009/04/23 16:51:21.2      83      6     29     84     90  85.6  19.2  34140  289.23 0854.38
2009/04/23 16:51:21.3      66     10      8     67     68  81.2   6.9  34138  289.21 0854.38
2009/04/23 16:51:21.4      52     17      2     55     56  71.4   2.8  34140  289.23 0854.38
2009/04/23 16:51:21.5       3      7      2      8      9  25.4  18.9  34144  289.31 0854.38
2009/04/23 16:51:21.6     -16    -10      2     20     21 237.6   6.9  34152  289.45 0854.38
2009/04/23 16:51:21.7     -25    -34     -1     43     44 217.0  -2.2  34156  289.52 0854.36
2009/04/23 16:51:21.8     -18   -103     56    105    119 190.2  30.3  34144  289.31 0854.36
2009/04/23 16:51:21.9     -22   -155     68    157    171 188.1  24.9  34148  289.36 0854.36
2009/04/23 16:51:22.0     -43   -128     29    136    140 198.7  12.2  34146  289.33 0854.36
2009/04/23 16:51:22.1     -47   -127    -10    136    137 200.5  -4.6  34140  289.23 0854.36
2009/04/23 16:51:22.2     -44    -96      5    106    107 204.9   2.8  34142  289.28 0854.36
2009/04/23 16:51:22.3     -27   -101     14    105    107 195.1   8.0  34138  289.21 0854.36
2009/04/23 16:51:22.4     -43   -141      0    148    149 196.9   0.2  34142  289.26 0854.36
2009/04/23 16:51:22.5      24   -170     99    172    198 171.8  32.7  34136  289.16 0854.36
2009/04/23 16:51:22.6      42   -185     90    190    210 167.1  27.2  34136  289.16 0854.36
2009/04/23 16:51:22.7     109   -144     58    181    191 142.8  17.9  34138  289.21 0854.36
2009/04/23 16:51:22.8      83   -136     66    160    173 148.4  23.6  34140  289.24 0854.36
2009/04/23 16:51:22.9     131   -104     90    168    190 128.6  30.6  34128  289.04 0854.36
2009/04/23 16:51:23.0     112    -81    -41    139    146 126.0 -16.6  34136  289.16 0854.36
2009/04/23 16:51:23.1     132   -163    -25    210    212 141.0  -6.9  34132  289.09 0854.36
2009/04/23 16:51:23.2      70   -211     81    223    237 161.7  21.0  34132  289.09 0854.36
2009/04/23 16:51:23.3      95   -284     82    300    312 161.5  15.3  34132  289.09 0854.36
2009/04/23 16:51:23.4     123   -321    159    344    378 159.0  26.6  34130  289.08 0854.36
2009/04/23 16:51:23.5      95   -310    182    325    372 163.0  31.5  34130  289.06 0854.36
2009/04/23 16:51:23.6      78   -307    224    317    388 165.7  38.8  34142  289.26 0854.36
2009/04/23 16:51:23.7      33   -326     57    328    333 174.1   9.9  34144  289.30 0854.36
2009/04/23 16:51:23.8      94   -260    -46    277    281 160.0  -9.6  34142  289.27 0854.36
2009/04/23 16:51:23.9      95   -201    -66    223    233 154.6 -16.6  34148  289.38 0854.36
2009/04/23 16:51:24.0      76   -228    -22    241    243 161.5  -5.4  34148  289.36 0854.36
2009/04/23 16:51:24.1      62   -227     -2    236    237 164.6  -0.7  34152  289.42 0854.36
2009/04/23 16:51:24.2     129   -210     -9    247    248 148.4  -2.2  34150  289.39 0854.36
2009/04/23 16:51:24.3     104   -190     -1    217    218 151.3  -0.5  34148  289.38 0854.36
2009/04/23 16:51:24.4     108   -211    -43    238    242 152.8 -10.4  34150  289.39 0854.36
2009/04/23 16:51:24.5      91   -198    -14    218    219 155.3  -3.9  34148  289.36 0854.36
2009/04/23 16:51:24.6      74   -203    -50    217    223 160.0 -13.2  34150  289.40 0854.36
2009/04/23 16:51:24.7      40   -191    -61    196    205 168.0 -22.5  34152  289.45 0854.36
2009/04/23 16:51:24.8      33   -187      7    191    192 169.8   2.3  34156  289.52 0854.36
2009/04/23 16:51:24.9      45   -169      3    176    177 164.9   1.2  34154  289.48 0854.36
2009/04/23 16:51:25.0     132   -160     42    208    213 140.3  11.4  34142  289.28 0854.36
2009/04/23 16:51:25.1      31   -219     40    222    226 171.9  10.3  34144  289.30 0854.36
2009/04/23 16:51:25.2      99   -257     86    276    290 158.8  17.3  34154  289.47 0854.36
2009/04/23 16:51:25.3      49   -281    148    286    322 170.0  29.6  34164  289.64 0854.36
2009/04/23 16:51:25.4      47   -289     97    293    309 170.7  18.5  34142  289.25 0854.36
2009/04/23 16:51:25.5      64   -276     95    284    300 166.9  18.5  34142  289.27 0854.36
2009/04/23 16:51:25.6      95   -268     40    285    288 160.4   8.0  34148  289.36 0854.36
2009/04/23 16:51:25.7      58   -326     10    332    333 169.8   1.8  34148  289.37 0854.35
2009/04/23 16:51:25.8      43   -291      6    295    296 171.5   1.2  34150  289.39 0854.35
2009/04/23 16:51:25.9     140   -252    -70    289    298 151.0 -13.7  34146  289.34 0854.35
2009/04/23 16:51:26.0     106   -290    -69    309    317 159.9 -12.6  34146  289.32 0854.35
2009/04/23 16:51:26.1     131   -336    -66    361    367 158.6 -10.4  34134  289.13 0854.35
2009/04/23 16:51:26.2     135   -365   -111    390    406 159.6 -15.9  34132  289.11 0854.35
2009/04/23 16:51:26.3     140   -367    -60    394    399 159.1  -8.7  34128  289.03 0854.35
2009/04/23 16:51:26.4     183   -334    -23    381    382 151.3  -3.5  34126  288.99 0854.35
2009/04/23 16:51:26.5     211   -331     -1    393    394 147.5  -0.3  34120  288.88 0854.35
2009/04/23 16:51:26.6     196   -282    -39    344    347 145.2  -6.6  34120  288.91 0854.35
2009/04/23 16:51:26.7     178   -273     -6    327    328 146.9  -1.1  34118  288.85 0854.35
2009/04/23 16:51:26.8     178   -266    -59    321    327 146.2 -10.5  34124  288.95 0854.35
2009/04/23 16:51:26.9     127   -280    -39    308    311 155.5  -7.4  34124  288.95 0854.35
2009/04/23 16:51:27.0     192   -332     23    384    385 150.0   3.5  34120  288.91 0854.35
2009/04/23 16:51:27.1     207   -350     77    407    415 149.4  10.8  34126  288.99 0854.35
2009/04/23 16:51:27.2     151   -431     88    457    466 160.6  11.0  34134  289.12 0854.35
2009/04/23 16:51:27.3     206   -413     76    462    469 153.5   9.3  34142  289.28 0854.35
2009/04/23 16:51:27.4     227   -465     58    518    522 153.9   6.5  34112  288.77 0854.35
2009/04/23 16:51:27.5     215   -334     83    398    407 147.2  11.8  34120  288.90 0854.35
2009/04/23 16:51:27.6     157   -360      8    394    395 156.4   1.2  34116  288.82 0854.35
2009/04/23 16:51:27.7      86   -334     -1    345    346 165.5  -0.3  34118  288.86 0854.35
2009/04/23 16:51:27.8      50   -314    123    319    341 170.9  22.2  34136  289.15 0854.35
2009/04/23 16:51:27.9     -52   -201    112    208    236 194.7  30.6  34140  289.23 0854.35
2009/04/23 16:51:28.0     -61   -262    146    270    306 193.3  31.0  34138  289.20 0854.35
2009/04/23 16:51:28.1     -18   -164    165    166    234 186.5  50.0  34140  289.23 0854.35
2009/04/23 16:51:28.2      32   -204     79    207    221 171.1  22.0  34126  289.01 0854.35
2009/04/23 16:51:28.3      60   -271     59    278    285 167.5  12.0  34124  288.97 0854.35
2009/04/23 16:51:28.4      82   -303     76    315    325 164.8  13.7  34124  288.97 0854.35
2009/04/23 16:51:28.5     114   -313     78    334    344 159.9  13.3  34126  288.98 0854.35
2009/04/23 16:51:28.6      82   -343     66    353    360 166.4  10.6  34132  289.10 0854.35
2009/04/23 16:51:28.7      61   -352     84    358    368 170.1  13.3  34132  289.10 0854.35
2009/04/23 16:51:28.8      46   -338    100    342    357 172.2  16.3  34136  289.16 0854.35
2009/04/23 16:51:28.9      62   -399     47    404    407 171.1   6.7  34140  289.22 0854.35
2009/04/23 16:51:29.0      69   -435     31    441    443 170.9   4.0  34134  289.12 0854.35
2009/04/23 16:51:29.1      60   -441     62    446    451 172.2   7.9  34134  289.14 0854.35
2009/04/23 16:51:29.2      56   -437     93    441    451 172.6  12.0  34132  289.11 0854.35
2009/04/23 16:51:29.3      68   -452     89    458    467 171.4  11.0  34132  289.09 0854.35
2009/04/23 16:51:29.4      27   -484     78    485    492 176.8   9.2  34134  289.13 0854.35
2009/04/23 16:51:29.5      50   -472    102    475    486 173.9  12.2  34136  289.15 0854.35
2009/04/23 16:51:29.6     -26   -421     89    422    432 183.6  12.0  34128  289.02 0854.35
2009/04/23 16:51:29.7       8   -471     94    472    482 179.0  11.3  34126  289.01 0854.35
2009/04/23 16:51:29.8       5   -370    227    371    434 179.1  34.4  34136  289.17 0854.35
2009/04/23 16:51:29.9     -69   -327    122    335    356 192.0  20.9  34136  289.18 0854.35
2009/04/23 16:51:30.0     -43   -368     12    371    372 186.7   1.9  34130  289.08 0854.35
2009/04/23 16:51:30.1      37   -352    -88    355    366 173.9 -14.1  34134  289.13 0854.35
2009/04/23 16:51:30.2       9   -305    -12    306    307 178.2  -2.3  34134  289.12 0854.35
2009/04/23 16:51:30.3       0   -294      4    295    296 179.9   0.8  34128  289.03 0854.35
2009/04/23 16:51:30.4      69   -318     57    326    332 167.6  10.0  34128  289.03 0854.35
2009/04/23 16:51:30.5     120   -327     22    349    350 159.8   3.7  34130  289.06 0854.35
2009/04/23 16:51:30.6     105   -297     17    316    317 160.4   3.1  34130  289.05 0854.35
2009/04/23 16:51:30.7     133   -306    -42    334    337 156.5  -7.3  34130  289.06 0854.35
2009/04/23 16:51:30.8     142   -258    -37    295    298 151.1  -7.3  34134  289.12 0854.35
2009/04/23 16:51:30.9     131   -251    -25    284    286 152.4  -5.2  34132  289.09 0854.35
2009/04/23 16:51:31.0     113   -269    -21    292    293 157.2  -4.1  34130  289.05 0854.35
2009/04/23 16:51:31.1     109   -237    -33    261    264 155.3  -7.2  34128  289.02 0854.35
2009/04/23 16:51:31.2      96   -231    -17    251    252 157.3  -3.9  34128  289.02 0854.35
2009/04/23 16:51:31.3     136   -216    -19    256    257 147.9  -4.4  34128  289.03 0854.35
2009/04/23 16:51:31.4     160   -220    -17    273    274 143.9  -3.7  34130  289.07 0854.35
2009/04/23 16:51:31.5     149   -198    -22    249    251 143.0  -5.2  34130  289.05 0854.35
2009/04/23 16:51:31.6     155   -164      1    226    227 136.7   0.5  34134  289.14 0854.35
2009/04/23 16:51:31.7     144   -177     -8    229    230 141.0  -2.1  34132  289.09 0854.35
2009/04/23 16:51:31.8     123   -146    -10    192    193 139.9  -3.1  34132  289.11 0854.35
2009/04/23 16:51:31.9      91   -179    -43    201    206 153.0 -12.2  34136  289.16 0854.35
2009/04/23 16:51:32.0      58   -123    -30    137    141 154.7 -12.4  34130  289.08 0854.35
2009/04/23 16:51:32.1      48   -109      8    120    121 156.4   3.8  34132  289.09 0854.35
2009/04/23 16:51:32.2     118   -104    -35    158    162 131.3 -12.6  34132  289.09 0854.35
2009/04/23 16:51:32.3      97   -103     29    142    146 136.8  11.6  34126  289.01 0854.35
2009/04/23 16:51:32.4      59   -141     35    153    158 157.3  13.1  34122  288.92 0854.35
2009/04/23 16:51:32.5      39   -128     10    134    135 163.0   4.4  34126  289.01 0854.35
2009/04/23 16:51:32.6      84   -101    -36    132    138 140.4 -15.5  34130  289.06 0854.35
2009/04/23 16:51:32.7      81    -93     18    124    126 139.0   8.5  34130  289.06 0854.37
2009/04/23 16:51:32.8      80   -109     20    136    138 143.5   8.5  34132  289.09 0854.37
2009/04/23 16:51:32.9      49   -136     49    145    154 159.9  18.9  34134  289.13 0854.37
2009/04/23 16:51:33.0     134   -100      4    168    169 126.6   1.6  34130  289.08 0854.37
2009/04/23 16:51:33.1     128   -127     17    181    182 134.9   5.4  34126  289.01 0854.37
2009/04/23 16:51:33.2     128    -71     28    147    150 118.9  11.1  34128  289.04 0854.37
2009/04/23 16:51:33.3     155    -69    -11    170    171 114.0  -3.9  34130  289.06 0854.37
2009/04/23 16:51:33.4     151    -50      9    160    161 108.6   3.3  34134  289.13 0854.37
2009/04/23 16:51:33.5      97    -97     17    138    140 134.9   7.1  34134  289.14 0854.37
2009/04/23 16:51:33.6      84   -165     31    186    189 152.8   9.5  34134  289.14 0854.37
2009/04/23 16:51:33.7     143   -127     81    192    208 131.8  24.1  34134  289.14 0854.37
2009/04/23 16:51:33.8      79   -180     19    197    198 156.2   5.7  34138  289.19 0854.37
2009/04/23 16:51:33.9      32   -176     31    179    182 169.5  10.1  34138  289.21 0854.37
2009/04/23 16:51:34.0       0   -156     54    157    167 180.0  18.9  34148  289.38 0854.37
2009/04/23 16:51:34.1      16   -183     98    184    208 174.9  30.3  34144  289.30 0854.37
2009/04/23 16:51:34.2      21   -151    123    153    196 171.9  43.3  34160  289.58 0854.37
2009/04/23 16:51:34.3      -8   -202    115    203    233 182.5  32.1  34140  289.24 0854.37
2009/04/23 16:51:34.4       0   -216    102    217    239 180.2  27.0  34138  289.21 0854.37
2009/04/23 16:51:34.5      20   -225    104    226    248 174.9  26.6  34144  289.29 0854.37
2009/04/23 16:51:34.6       6   -214     84    215    230 178.4  22.5  34140  289.23 0854.37
2009/04/23 16:51:34.7      -3   -227     61    228    237 180.9  15.0  34138  289.20 0854.39
2009/04/23 16:51:34.8       0   -238    101    239    259 180.0  24.2  34146  289.32 0854.39
2009/04/23 16:51:34.9     -29   -158    -12    161    162 190.5  -4.6  34140  289.23 0854.39
2009/04/23 16:51:35.0    -135   -188    -65    232    240 215.8 -20.4  34132  289.10 0854.39
2009/04/23 16:51:35.1    -116   -167    -56    204    212 214.7 -15.5  34134  289.13 0854.39
2009/04/23 16:51:35.2    -160   -193    -79    251    264 219.7 -17.6  34126  288.98 0854.39
2009/04/23 16:51:35.3    -169   -148    -45    225    230 228.7 -11.3  34142  289.28 0854.39
2009/04/23 16:51:35.4     -55   -162    -95    172    196 198.7 -35.7  34146  289.33 0854.39
2009/04/23 16:51:35.5     -49   -150     11    159    160 198.3   4.2  34148  289.38 0854.39
2009/04/23 16:51:35.6     -86   -139      5    164    165 211.6   1.8  34154  289.48 0854.39
2009/04/23 16:51:35.7     -94   -160     -7    186    187 210.5  -2.2  34150  289.41 0854.39
2009/04/23 16:51:35.8     -41   -148     19    154    156 195.6   7.2  34156  289.50 0854.39
2009/04/23 16:51:35.9     -58   -188    -43    197    202 197.2 -12.4  34154  289.46 0854.39
2009/04/23 16:51:36.0     -66   -197    -26    209    211 198.7  -7.3  34152  289.43 0854.39
2009/04/23 16:51:36.1     -79   -209    -28    224    226 200.9  -7.2  34152  289.43 0854.39
2009/04/23 16:51:36.2     -84   -193     10    211    212 203.6   2.9  34160  289.57 0854.39
2009/04/23 16:51:36.3     -79   -167     48    185    192 205.4  14.5  34162  289.62 0854.39
2009/04/23 16:51:36.4     -18   -122     43    124    132 188.5  19.4  34152  289.43 0854.39
2009/04/23 16:51:36.5     -59   -134     28    147    150 203.7  11.0  34148  289.38 0854.39
2009/04/23 16:51:36.6      -5    -77     29     78     83 184.4  21.0  34152  289.43 0854.39
2009/04/23 16:51:36.7      10    -69     66     70     96 171.1  49.0  34154  289.46 0854.40
2009/04/23 16:51:36.8      15    -15     78     22     81 134.9  83.9  34176  289.85 0854.40
2009/04/23 16:51:36.9       7     36     42     37     55  11.6  54.3  34178  289.87 0854.40
2009/04/23 16:51:37.0     -35     22     32     42     52 302.4  42.7  34168  289.72 0854.40
2009/04/23 16:51:37.1      -4     12     24     13     27 341.3  68.8  34166  289.69 0854.40
2009/04/23 16:51:37.2       4     43     25     44     50   5.3  32.4  34166  289.67 0854.40
2009/04/23 16:51:37.3     -30     34     44     46     63 317.7  50.0  34176  289.84 0854.40
2009/04/23 16:51:37.4     -29    -34     43     45     62 220.5  49.0  34158  289.53 0854.40
2009/04/23 16:51:37.5       5    -65     41     66     77 175.6  35.5  34142  289.26 0854.40
2009/04/23 16:51:37.6      34    -58     60     68     90 149.3  45.8  34142  289.28 0854.40
2009/04/23 16:51:37.7      51    -49     55     71     89 134.0  42.2  34148  289.36 0854.40
2009/04/23 16:51:37.8      45    -40     58     61     84 132.2  49.0  34156  289.52 0854.40
2009/04/23 16:51:37.9      46    -46     58     66     87 135.0  46.4  34144  289.30 0854.40
2009/04/23 16:51:38.0      38    -87     68     95    116 156.4  39.1  34138  289.19 0854.40
2009/04/23 16:51:38.1      69    -90     93    114    147 142.6  43.7  34140  289.23 0854.40
2009/04/23 16:51:38.2      95    -86    109    129    168 132.2  44.3  34140  289.24 0854.40
2009/04/23 16:51:38.3     136    -62    111    150    186 114.4  40.1  34144  289.30 0854.40
2009/04/23 16:51:38.4      78    -87    109    118    160 138.1  47.7  34136  289.16 0854.40
2009/04/23 16:51:38.5      41    -87     89     97    131 154.5  47.9  34146  289.33 0854.40
2009/04/23 16:51:38.6      21    -40     61     46     76 152.8  59.4  34150  289.40 0854.40
2009/04/23 16:51:38.7      81     56     59     99    115  54.9  34.4  34184  289.99 0854.40
2009/04/23 16:51:38.8      58     36     79     69    104  58.5  54.3  34220  290.60 0854.40
2009/04/23 16:51:38.9      71    -59     86     93    126 129.5  47.9  34218  290.57 0854.40
2009/04/23 16:51:39.0      51    -49     96     71    119 134.0  60.0  34214  290.50 0854.40
2009/04/23 16:51:39.1     111    -72     81    133    155 122.9  35.0  34196  290.19 0854.40
2009/04/23 16:51:39.2     141    -77    110    161    194 118.9  37.3  34162  289.60 0854.40
2009/04/23 16:51:39.3      54   -150     75    160    176 160.0  27.0  34136  289.16 0854.40
2009/04/23 16:51:39.4      71   -139     66    157    170 152.8  24.1  34136  289.18 0854.40
2009/04/23 16:51:39.5      71   -140     41    158    164 152.9  14.7  34134  289.13 0854.40
2009/04/23 16:51:39.6      73    -77     43    107    115 136.7  23.0  34156  289.50 0854.40
2009/04/23 16:51:39.7     120    -51    123    131    179 113.1  48.2  34178  289.87 0854.40
2009/04/23 16:51:39.8      97   -145    117    175    210 146.2  37.0  34142  289.26 0854.40
2009/04/23 16:51:39.9      93   -128     62    159    170 144.0  22.3  34140  289.23 0854.40
2009/04/23 16:51:40.0      78   -108     93    134    163 144.0  38.0  34166  289.67 0854.40
2009/04/23 16:51:40.1      82   -156     73    177    191 152.4  23.6  34136  289.18 0854.40
2009/04/23 16:51:40.2       6   -177     90    178    199 178.0  29.1  34132  289.09 0854.40
2009/04/23 16:51:40.3      84   -201     78    219    232 157.3  20.2  34132  289.11 0854.40
2009/04/23 16:51:40.4      75   -235     86    247    262 162.2  19.2  34130  289.07 0854.40
2009/04/23 16:51:40.5      39   -266    100    269    286 171.5  21.0  34130  289.07 0854.40
2009/04/23 16:51:40.6     101   -255    109    275    295 158.4  23.0  34134  289.12 0854.40
2009/04/23 16:51:40.7     119   -267    117    293    315 155.9  23.0  34128  289.03 0854.40
2009/04/23 16:51:40.8      58   -274    165    281    325 168.0  33.1  34156  289.51 0854.40
2009/04/23 16:51:40.9     119   -242    143    270    305 153.7  30.1  34144  289.29 0854.40
2009/04/23 16:51:41.0     123   -293    148    318    350 157.2  27.0  34132  289.10 0854.40
2009/04/23 16:51:41.1     198   -309    158    368    400 147.4  24.9  34116  288.82 0854.40
2009/04/23 16:51:41.2     183   -353    203    398    446 152.5  29.2  34112  288.77 0854.40
2009/04/23 16:51:41.3     135   -429    127    450    468 162.5  15.8  34108  288.68 0854.40
2009/04/23 16:51:41.4     153   -444    131    470    488 160.9  15.6  34100  288.57 0854.40
2009/04/23 16:51:41.5     116   -438    161    454    483 165.1  19.6  34090  288.39 0854.40
2009/04/23 16:51:41.6     100   -388    160    401    431 165.5  23.0  34092  288.41 0854.40
2009/04/23 16:51:41.7      70   -397    181    404    442 169.9  25.8  34108  288.68 0854.40
2009/04/23 16:51:41.8    -122   -286     69    312    320 203.2  12.5  34140  289.22 0854.40
2009/04/23 16:51:41.9    -148   -175    108    230    254 220.3  27.1  34146  289.34 0854.40
2009/04/23 16:51:42.1     -84   -370    163    380    413 192.8  24.8  34146  289.33 0854.40
2009/04/23 16:51:42.1    -170   -470    113    501    514 200.0  12.8  34140  289.23 0854.40
2009/04/23 16:51:42.3    -211   -382    112    437    452 209.0  14.4  34148  289.36 0854.40
2009/04/23 16:51:42.4    -229   -337     88    408    418 214.3  12.3  34154  289.48 0854.40
2009/04/23 16:51:42.5    -234   -424     36    485    487 208.9   4.3  34110  288.71 0854.40
2009/04/23 16:51:42.6    -248   -352      6    431    432 215.2   0.8  34112  288.75 0854.40
2009/04/23 16:51:42.7    -232   -284    -81    367    376 219.2 -12.5  34086  288.33 0854.40
2009/04/23 16:51:42.8    -221   -269   -119    349    370 219.3 -18.9  34080  288.22 0854.40
2009/04/23 16:51:42.9    -194   -234   -108    305    323 219.6 -24.6  34096  288.49 0854.40
2009/04/23 16:51:43.0    -131   -337    -98    362    376 201.3 -15.2  34110  288.71 0854.40
2009/04/23 16:51:43.1     -22   -240    -34    242    245 185.3  -8.0  34114  288.78 0854.40
2009/04/23 16:51:43.2     -42   -348    -45    351    354 187.0  -7.3  34116  288.81 0854.40
2009/04/23 16:51:43.3     -77   -325    -58    335    341 193.4  -9.9  34112  288.76 0854.40
2009/04/23 16:51:43.4    -133   -333    -64    359    365 201.8 -10.2  34102  288.60 0854.40
2009/04/23 16:51:43.5    -102   -298    -94    316    330 198.9 -16.6  34100  288.56 0854.40
2009/04/23 16:51:43.6     -89   -388    -76    399    407 192.9 -10.8  34098  288.51 0854.40
2009/04/23 16:51:43.7     -20   -319    -49    320    324 183.6  -8.8  34098  288.53 0854.40
2009/04/23 16:51:43.8    -237   -315     32    395    397 217.0   4.7  34116  288.81 0854.40
2009/04/23 16:51:43.9    -207   -132    -13    246    247 237.5  -3.1  34122  288.93 0854.40
2009/04/23 16:51:44.0    -247   -167      4    299    300 236.0   0.8  34112  288.76 0854.40
2009/04/23 16:51:44.1    -257   -133     62    290    297 242.5  12.2  34120  288.88 0854.40
2009/04/23 16:51:44.2    -272      2    -36    273    276 270.6  -7.7  34114  288.80 0854.40
2009/04/23 16:51:44.3    -222     31    -23    225    227 278.1  -6.0  34120  288.89 0854.40
2009/04/23 16:51:44.4     -30    -49     98     58    113 211.6  66.2  34120  288.91 0854.40
2009/04/23 16:51:44.5      26   -247     45    249    254 173.8  10.3  34120  288.88 0854.40
2009/04/23 16:51:44.6       6   -438    169    439    470 179.1  22.2  34106  288.65 0854.40
2009/04/23 16:51:44.7      12   -368    165    369    404 178.1  25.8  34102  288.60 0854.40
2009/04/23 16:51:44.8     131   -387     31    409    411 161.2   4.4  34092  288.41 0854.40
2009/04/23 16:51:44.9     203   -382     79    433    441 152.0  10.3  34080  288.23 0854.40
2009/04/23 16:51:45.0     109   -383    -26    399    400 164.1  -3.8  34084  288.28 0854.40
2009/04/23 16:51:45.1     146   -406    -16    432    433 160.2  -2.2  34086  288.31 0854.40
2009/04/23 16:51:45.2     232   -405     14    467    468 150.2   1.8  34082  288.25 0854.40
2009/04/23 16:51:45.3     211   -492     84    536    543 156.8   9.0  34082  288.26 0854.40
2009/04/23 16:51:45.4     245   -562    108    614    624 156.4  10.0  34080  288.23 0854.40
2009/04/23 16:51:45.5     212   -504    127    547    562 157.2  13.1  34084  288.28 0854.40
2009/04/23 16:51:45.6     252   -533    158    590    611 154.7  15.0  34086  288.31 0854.40
2009/04/23 16:51:45.7     199   -495    154    534    556 158.1  16.1  34076  288.16 0854.40
2009/04/23 16:51:45.8     125   -453     33    471    473 164.5   4.0  34088  288.34 0854.40
2009/04/23 16:51:45.9     221   -592     -7    633    634 159.5  -0.7  34084  288.28 0854.40
2009/04/23 16:51:46.0     327   -590     35    675    676 151.0   3.0  34086  288.33 0854.40
2009/04/23 16:51:46.1     298   -479    182    565    594 148.1  17.9  34092  288.41 0854.40
2009/04/23 16:51:46.2     252   -349    159    431    459 144.1  21.0  34090  288.38 0854.40
2009/04/23 16:51:46.3      51   -210    234    217    319 166.2  52.3  34092  288.43 0854.40
2009/04/23 16:51:46.4      25   -165    123    168    208 171.1  39.7  34096  288.50 0854.40
2009/04/23 16:51:46.5      26   -273     91    275    290 174.4  18.5  34088  288.36 0854.40
2009/04/23 16:51:46.6     -77   -409    165    417    448 190.7  22.9  34100  288.55 0854.40
2009/04/23 16:51:46.7      39   -467    144    469    491 175.1  17.1  34098  288.51 0854.40
2009/04/23 16:51:46.8       7   -465     97    466    477 179.1  11.8  34096  288.49 0854.41
2009/04/23 16:51:46.9     123   -389    185    409    448 162.4  26.2  34088  288.34 0854.41
2009/04/23 16:51:47.0     288   -401     88    494    502 144.3  10.1  34098  288.51 0854.41
2009/04/23 16:51:47.1     123   -472   -128    488    505 165.4 -14.8  34098  288.51 0854.41
2009/04/23 16:51:47.2     164   -491   -149    518    540 161.5 -16.1  34100  288.55 0854.41
2009/04/23 16:51:47.3     187   -322    115    373    391 149.9  17.2  34116  288.81 0854.41
2009/04/23 16:51:47.4     137   -323      4    352    353 157.0   0.7  34126  288.98 0854.41
2009/04/23 16:51:47.5      86   -423    -28    432    433 168.4  -3.8  34112  288.75 0854.41
2009/04/23 16:51:47.6     265   -623    -26    678    679 157.0  -2.2  34098  288.51 0854.41
2009/04/23 16:51:47.7      51   -549    256    552    608 174.7  26.6  34122  288.93 0854.41
2009/04/23 16:51:47.8      75   -442    122    449    466 170.3  15.3  34116  288.83 0854.41
2009/04/23 16:51:47.9       0   -114    116    115    163 180.0  49.9  34128  289.02 0854.41
2009/04/23 16:51:48.0     137   -407     76    430    437 161.3  10.1  34106  288.65 0854.41
2009/04/23 16:51:48.1     -78   -391    143    399    423 191.3  20.6  34112  288.75 0854.41
2009/04/23 16:51:48.2     -66   -190      7    202    203 199.2   2.1  34120  288.91 0854.41
2009/04/23 16:51:48.3    -168   -100     42    196    201 239.1  12.2  34120  288.89 0854.41
2009/04/23 16:51:48.4      44   -175    -55    181    190 165.7 -17.0  34116  288.84 0854.41
2009/04/23 16:51:48.5     122   -201    -52    236    242 148.8 -12.6  34118  288.87 0854.41
2009/04/23 16:51:48.6     148   -110    -67    185    196 126.6 -25.4  34108  288.70 0854.41
2009/04/23 16:51:48.7     -27     39    -85     48     97 324.8 -72.1  34122  288.94 0854.41
2009/04/23 16:51:48.8    -117     12    -82    118    143 276.1 -42.4  34126  289.01 0854.41
2009/04/23 16:51:48.9    -117   -138    -48    182    189 220.3 -15.0  34124  288.96 0854.41
2009/04/23 16:51:49.0    -163   -194   -100    254    272 220.1 -27.2  34124  288.95 0854.41
2009/04/23 16:51:49.1    -102   -178   -145    206    251 209.9 -42.9  34116  288.83 0854.41
2009/04/23 16:51:49.2      21   -199   -171    201    263 173.8 -49.2  34118  288.85 0854.41
2009/04/23 16:51:49.3     106   -237   -146    260    298 155.9 -36.0  34118  288.87 0854.41
2009/04/23 16:51:49.4     185   -326   -106    376    391 150.4 -15.8  34106  288.66 0854.41
2009/04/23 16:51:49.5     148   -246     12    288    289 149.0   2.5  34114  288.78 0854.41
2009/04/23 16:51:49.6      66   -238    200    248    318 164.4  43.0  34120  288.88 0854.41
2009/04/23 16:51:49.7     138    -78    206    159    260 119.8  58.5  34130  289.08 0854.41
2009/04/23 16:51:49.8      10    -21    247     24    248 152.8  90.0  34136  289.16 0854.41
2009/04/23 16:51:49.9      58     25     90     64    110  66.5  60.6  34126  289.01 0854.41
2009/04/23 16:51:50.0       9    122     -5    123    124   4.5  -2.6  34128  289.04 0854.41
2009/04/23 16:51:50.1       4     -9   -158     11    158 154.6 -90.0  34132  289.11 0854.41
2009/04/23 16:51:50.2     138   -317   -200    346    399 156.5 -37.2  34104  288.64 0854.41
2009/04/23 16:51:50.3     197   -317    -54    374    378 148.1  -8.2  34112  288.76 0854.41
2009/04/23 16:51:50.4     217   -318    -39    386    389 145.6  -5.9  34106  288.66 0854.41
2009/04/23 16:51:50.5     281   -264     25    386    387 133.2   3.8  34102  288.60 0854.41
2009/04/23 16:51:50.6     291   -278    142    403    428 133.7  19.5  34102  288.58 0854.41
2009/04/23 16:51:50.7     269   -261    164    375    409 134.1  25.1  34104  288.62 0854.41
2009/04/23 16:51:50.8     284   -277    149    397    424 134.3  21.6  34104  288.63 0854.44
2009/04/23 16:51:50.9     193   -406    222    450    501 154.5  28.2  34104  288.61 0854.44
2009/04/23 16:51:51.0     217   -422    184    475    509 152.8  22.3  34110  288.71 0854.44
2009/04/23 16:51:51.1     269   -432    109    509    521 148.1  12.2  34104  288.64 0854.44
2009/04/23 16:51:51.2     269   -357      5    448    449 143.0   0.7  34102  288.60 0854.44
2009/04/23 16:51:51.3     352   -352     27    499    500 135.0   3.1  34104  288.61 0854.44
2009/04/23 16:51:51.4     290   -335     -8    444    445 139.1  -1.2  34106  288.67 0854.44
2009/04/23 16:51:51.5     349   -222     55    414    418 122.5   7.6  34106  288.65 0854.44
2009/04/23 16:51:51.6     309   -264    114    407    423 130.6  15.7  34106  288.67 0854.44
2009/04/23 16:51:51.7     318   -298     52    437    441 133.1   6.8  34102  288.58 0854.44
2009/04/23 16:51:51.8     304   -304    171    430    462 135.0  23.0  34104  288.63 0854.44
2009/04/23 16:51:51.9      91   -263     93    279    295 160.9  18.4  34106  288.65 0854.44
2009/04/23 16:51:52.0     196   -295     -5    355    356 146.3  -0.9  34106  288.66 0854.44
2009/04/23 16:51:52.1     223   -354    110    419    434 147.8  14.7  34102  288.60 0854.44
2009/04/23 16:51:52.2     250   -302    179    393    431 140.3  26.2  34106  288.67 0854.44
2009/04/23 16:51:52.3     293   -186     81    348    358 122.5  13.2  34102  288.59 0854.44
2009/04/23 16:51:52.4     190   -266     45    328    332 144.4   7.9  34104  288.62 0854.44
2009/04/23 16:51:52.5     192   -279     85    339    350 145.4  14.2  34110  288.71 0854.44
2009/04/23 16:51:52.6     222   -234    134    323    349 136.6  23.8  34108  288.69 0854.44
2009/04/23 16:51:52.7     271   -225     -4    353    354 129.7  -0.7  34112  288.76 0854.44
2009/04/23 16:51:52.8     284   -145     47    320    324 117.1   8.5  34114  288.80 0854.44
2009/04/23 16:51:52.9     184   -153     -9    240    241 129.6  -2.2  34112  288.75 0854.44
2009/04/23 16:51:53.0     162   -195     59    254    261 140.4  13.2  34110  288.71 0854.44
2009/04/23 16:51:53.1     145   -329   -107    360    376 156.2 -16.7  34110  288.74 0854.44
2009/04/23 16:51:53.2     111   -313   -112    333    352 160.5 -18.7  34122  288.93 0854.44
2009/04/23 16:51:53.3      67   -240    -78    250    261 164.4 -22.5  34122  288.93 0854.44
2009/04/23 16:51:53.4      28   -199    -47    202    208 171.9 -13.3  34130  289.06 0854.44
2009/04/23 16:51:53.5     129   -183    -45    225    230 144.8 -11.3  34118  288.87 0854.44
2009/04/23 16:51:53.6     186   -134     -4    230    231 125.9  -1.1  34098  288.53 0854.44
2009/04/23 16:51:53.7     150    -71     17    167    168 115.4   5.9  34098  288.52 0854.44
2009/04/23 16:51:53.8     126    -41     18    133    135 108.2   8.0  34098  288.53 0854.41
2009/04/23 16:51:53.9      85    -51     -5    100    101 121.1  -3.1  34106  288.65 0854.41
2009/04/23 16:51:54.0      65    -47    -41     81     90 125.9 -33.1  34112  288.75 0854.41
2009/04/23 16:51:54.1      39    -46    -20     61     65 139.5 -18.7  34118  288.87 0854.41
2009/04/23 16:51:54.3       2    -31     19     32     37 175.5  35.5  34130  289.06 0854.41
2009/04/23 16:51:54.3      -5    -16     28     17     32 198.7  64.7  34132  289.09 0854.41
2009/04/23 16:51:54.4     -23      7     31     25     39 288.4  56.4  34134  289.14 0854.41
2009/04/23 16:51:54.5     -55     14     34     57     66 285.1  34.4  34130  289.06 0854.41
2009/04/23 16:51:54.6     -35     45     10     58     59 322.2  10.1  34120  288.89 0854.41
2009/04/23 16:51:54.7     -70      5      8     71     72 274.4   6.9  34116  288.82 0854.41
2009/04/23 16:51:54.8     -63    -20    -88     67    110 251.8 -63.4  34122  288.92 0854.41
2009/04/23 16:51:54.9      40     39    -42     57     70  45.9 -44.1  34134  289.14 0854.41
2009/04/23 16:51:55.0      58     27     12     65     67  64.7  11.1  34126  288.99 0854.41
2009/04/23 16:51:55.1      -2    166     37    167    172 359.0  12.6  34122  288.94 0854.41
2009/04/23 16:51:55.2      74    134     68    154    168  29.0  25.3  34126  288.99 0854.41
2009/04/23 16:51:55.3      63    106     82    124    148  30.7  36.5  34124  288.97 0854.41
2009/04/23 16:51:55.4      98    142     87    173    193  34.7  28.7  34116  288.82 0854.41
2009/04/23 16:51:55.5      49     90    105    103    147  28.5  50.2  34130  289.06 0854.41
2009/04/23 16:51:55.6     -92    -26    120     96    153 254.1  56.9  34132  289.11 0854.41
2009/04/23 16:51:55.7     -57     14     45     59     74 284.2  41.7  34122  288.94 0854.41
2009/04/23 16:51:55.8     -47     56     71     74    102 320.4  49.0  34142  289.26 0854.36
2009/04/23 16:51:55.9     -66     12    109     68    128 280.6  64.7  34144  289.31 0854.36
2009/04/23 16:51:56.0    -108    -25     90    111    142 256.7  43.7  34136  289.16 0854.36
2009/04/23 16:51:56.1     -93    -67     13    115    116 234.0   6.9  34126  288.99 0854.36
2009/04/23 16:51:56.2      10    -82     32     83     88 172.9  21.5  34136  289.16 0854.36
2009/04/23 16:51:56.3      13    -68    105     70    126 168.5  63.6  34140  289.24 0854.36
2009/04/23 16:51:56.4      -6    -68    118     69    136 185.3  66.8  34130  289.08 0854.36
2009/04/23 16:51:56.5     -29    -48     87     57    104 211.6  64.1  34130  289.08 0854.36
2009/04/23 16:51:56.6       0    -10     69     11     69 175.5  90.0  34150  289.41 0854.36
2009/04/23 16:51:56.7     -13     17     75     22     78 322.2  82.8  34152  289.45 0854.36
2009/04/23 16:51:56.8     -19     34     90     40     98 331.0  74.5  34174  289.80 0854.36
2009/04/23 16:51:56.9     -10     50     95     52    108 348.5  69.3  34146  289.35 0854.36
2009/04/23 16:51:57.0     -13     47     81     49     94 344.0  65.1  34146  289.35 0854.36
2009/04/23 16:51:57.1      -8     22     85     24     88 340.0  83.9  34154  289.46 0854.36
2009/04/23 16:51:57.2     -18     17     65     26     70 313.1  77.1  34136  289.16 0854.36
2009/04/23 16:51:57.3     -42      0     59     43     73 270.0  60.5  34126  288.99 0854.36
2009/04/23 16:51:57.4      -8      1     84      9     84 281.5  90.0  34140  289.24 0854.36
2009/04/23 16:51:57.5     -30     19     78     36     85 302.4  73.5  34154  289.48 0854.36
2009/04/23 16:51:57.6     125    -50    130    135    187 111.8  49.0  34154  289.46 0854.36
2009/04/23 16:51:57.7     144    -15    173    145    225  96.1  56.3  34172  289.79 0854.36
2009/04/23 16:51:57.8      61     62    149     88    173  44.7  66.4  34198  290.23 0854.36
2009/04/23 16:51:57.9      88     94    144    129    193  43.2  53.5  34222  290.62 0854.36
2009/04/23 16:51:58.0      27     67    151     73    167  21.8  72.7  34230  290.75 0854.36
2009/04/23 16:51:58.1     -19     -7    110     21    111 248.3  89.6  34224  290.67 0854.36
2009/04/23 16:51:58.2     -49     13     94     51    106 285.1  68.9  34220  290.58 0854.36
2009/04/23 16:51:58.3       2     26     37     27     45   4.5  60.5  34204  290.31 0854.36
2009/04/23 16:51:58.4      29     21     65     36     74  54.0  68.8  34210  290.43 0854.36
2009/04/23 16:51:58.5     -34     -2     74     35     81 265.7  73.5  34208  290.40 0854.36
2009/04/23 16:51:58.6      12    -25     73     28     78 154.6  79.2  34214  290.50 0854.36
2009/04/23 16:51:58.7      -1     22     65     23     68 357.3  81.2  34204  290.33 0854.36
2009/04/23 16:51:58.8      32     63     80     71    106  27.2  53.3  34178  289.89 0854.36
2009/04/23 16:51:58.9      83     14    119     85    146  80.3  60.6  34194  290.14 0854.36
2009/04/23 16:51:59.0     103     65    146    122    190  57.6  56.3  34196  290.18 0854.36
2009/04/23 16:51:59.1     168     40    213    173    274  76.3  56.6  34186  290.00 0854.36
2009/04/23 16:51:59.2     110     68    178    130    220  58.0  60.5  34194  290.16 0854.36
2009/04/23 16:51:59.3     205     34    177    208    273  80.4  44.5  34142  289.25 0854.36
2009/04/23 16:51:59.4     227      3    131    228    262  89.1  32.4  34146  289.32 0854.36
2009/04/23 16:51:59.5     207     64     98    217    238  72.7  25.9  34154  289.46 0854.36
2009/04/23 16:51:59.6     177     29     71    180    193  80.5  22.5  34142  289.28 0854.36
2009/04/23 16:51:59.7     170     44    109    176    207  75.4  35.0  34154  289.46 0854.36
2009/04/23 16:51:59.8     105     25     68    109    128  76.3  35.5  34146  289.35 0854.37
2009/04/23 16:51:59.9     112     22     74    115    136  78.5  35.6  34142  289.26 0854.37
2009/04/23 16:52:00.0     119      2     89    120    149  88.7  39.7  34150  289.41 0854.37
2009/04/23 16:52:00.1      91     37    141     99    172  67.8  61.8  34172  289.77 0854.37
2009/04/23 16:52:00.2      95     52    139    109    176  61.1  57.7  34178  289.87 0854.37
2009/04/23 16:52:00.3     136     79    168    158    230  59.8  52.1  34186  290.01 0854.37
2009/04/23 16:52:00.4     159    121     98    200    222  52.7  28.0  34210  290.41 0854.37
2009/04/23 16:52:00.5     119     82    105    145    179  55.4  39.7  34284  291.69 0854.37
2009/04/23 16:52:00.6     165    140    169    217    275  49.6  41.7  34288  291.73 0854.37
2009/04/23 16:52:00.7      86     78    142    117    183  47.8  56.4  34290  291.77 0854.37
2009/04/23 16:52:00.8       6     82    127     83    151   4.4  64.6  34292  291.81 0854.37
2009/04/23 16:52:00.9     131    136    145    190    239  43.9  41.2  34336  292.56 0854.37
2009/04/23 16:52:01.0     148    175     90    230    246  40.1  22.5  34208  290.39 0854.37
2009/04/23 16:52:01.1     183    175     74    254    265  46.4  16.3  34216  290.51 0854.37
2009/04/23 16:52:01.2      97     85    152    130    200  48.7  55.0  34232  290.81 0854.37
2009/04/23 16:52:01.3      53    149    100    159    187  19.6  35.5  34258  291.25 0854.37
2009/04/23 16:52:01.4      -6    136     37    137    143 357.4  15.3  34262  291.32 0854.37
2009/04/23 16:52:01.5     -65    102     44    122    129 327.4  20.4  34260  291.26 0854.37
2009/04/23 16:52:01.6    -127    174     92    216    234 323.9  24.6  34298  291.93 0854.37
2009/04/23 16:52:01.7    -115    123     66    169    181 316.8  22.5  34320  292.30 0854.37
2009/04/23 16:52:01.8    -129    125     88    180    200 314.2  28.0  34354  292.86 0854.37
2009/04/23 16:52:01.9    -135    100     61    169    179 306.6  20.4  34352  292.85 0854.37
2009/04/23 16:52:02.0    -121     99     83    157    177 309.5  30.3  34300  291.95 0854.37
2009/04/23 16:52:02.1     -78     73    106    107    150 313.1  50.0  34320  292.30 0854.37
2009/04/23 16:52:02.2      -3     -8     77      9     77 205.4  90.0  34336  292.56 0854.37
2009/04/23 16:52:02.3     -31    -31     83     44     93 225.1  69.8  34324  292.35 0854.37
2009/04/23 16:52:02.4     -14    -30    101     34    106 205.4  81.0  34338  292.61 0854.37
2009/04/23 16:52:02.5      -3     12     72     13     73 344.9  90.0  34308  292.10 0854.37
2009/04/23 16:52:02.6     -23     30     49     39     62 322.2  56.4  34318  292.27 0854.37
2009/04/23 16:52:02.7       5     84      1     85     86   3.6   0.8  34308  292.10 0854.37
2009/04/23 16:52:02.8      16     91    -30     93     98  10.2 -18.1  34304  292.01 0854.37
2009/04/23 16:52:02.9      51     42    -13     67     69  50.5 -11.3  34300  291.95 0854.37
2009/04/23 16:52:03.0      56     47    -21     74     78  50.4 -16.0  34304  292.01 0854.37
2009/04/23 16:52:03.1      58     28    -23     65     68  63.8 -23.3  34292  291.83 0854.37
2009/04/23 16:52:03.2      72     34    -59     80     99  64.7 -44.1  34288  291.74 0854.37
2009/04/23 16:52:03.3      71     68    -51     99    111  46.0 -33.7  34294  291.86 0854.37
2009/04/23 16:52:03.4      69     79    -30    106    111  41.0 -16.0  34292  291.83 0854.37
2009/04/23 16:52:03.5      95    102    -12    140    141  43.2  -5.1  34244  290.99 0854.37
2009/04/23 16:52:03.6     119    126    -24    174    176  43.2  -8.0  34166  289.67 0854.37
2009/04/23 16:52:03.7     144    108    -24    181    183  53.1  -7.7  34122  288.94 0854.37
2009/04/23 16:52:03.8     111     94    -14    146    147  49.6  -5.6  34146  289.35 0854.37
2009/04/23 16:52:03.9      96    140    -11    170    171  34.5  -3.9  34202  290.28 0854.37
2009/04/23 16:52:04.0     137    137     -5    195    196  45.0  -1.6  34150  289.41 0854.37
2009/04/23 16:52:04.1     181    173     -7    251    252  46.2  -1.6  34254  291.17 0854.37
2009/04/23 16:52:04.2     122    196     11    231    232  31.9   2.8  34266  291.38 0854.37
2009/04/23 16:52:04.3     139    148     45    204    210  43.2  12.6  34316  292.22 0854.37
2009/04/23 16:52:04.4     132    140      2    193    194  43.2   0.8  34304  292.03 0854.37
2009/04/23 16:52:04.5     176     91     -1    199    200  62.5  -0.5  34172  289.77 0854.37
2009/04/23 16:52:04.6     194    123    -35    230    233  57.6  -8.8  34162  289.62 0854.37
2009/04/23 16:52:04.7     194    165     16    255    256  49.6   3.8  34280  291.61 0854.37
2009/04/23 16:52:04.8     187    178    108    259    280  46.4  24.1  34358  292.94 0854.37
2009/04/23 16:52:04.9     146     98    162    177    239  56.0  47.1  34336  292.56 0854.37
2009/04/23 16:52:05.0     160     90    118    184    218  60.5  35.6  34258  291.25 0854.37
2009/04/23 16:52:05.1     174    101     35    202    206  59.8   9.9  34282  291.66 0854.37
2009/04/23 16:52:05.2     122    117     41    170    175  46.2  13.7  34290  291.79 0854.37
2009/04/23 16:52:05.3     158    134     72    208    221  49.6  19.2  34216  290.52 0854.37
2009/04/23 16:52:05.4     128    151     66    198    209  40.3  18.4  34204  290.31 0854.37
2009/04/23 16:52:05.5      90    162     98    186    210  29.0  29.8  34206  290.36 0854.37
2009/04/23 16:52:05.6      80    220    102    235    256  20.1  25.1  34208  290.39 0854.37
2009/04/23 16:52:05.7      91    238    109    255    277  20.9  24.6  34214  290.48 0854.37
2009/04/23 16:52:05.8     105    159    113    191    221  33.4  33.5  34188  290.06 0854.38
2009/04/23 16:52:05.9      26    203     69    205    217   7.3  18.6  34212  290.47 0854.38
2009/04/23 16:52:06.0      18    245     97    246    264   4.4  22.8  34200  290.24 0854.38
2009/04/23 16:52:06.1     -25    264     91    266    282 354.6  18.9  34188  290.03 0854.38
2009/04/23 16:52:06.2     -54    264     70    270    280 348.4  14.7  34180  289.90 0854.38
2009/04/23 16:52:06.3     -40    260     -5    264    265 351.1  -1.3  34198  290.22 0854.38
2009/04/23 16:52:06.4     -24    233     41    235    239 354.0  10.1  34180  289.92 0854.38
2009/04/23 16:52:06.5      -7    167     60    168    178 357.3  20.4  34180  289.91 0854.38
2009/04/23 16:52:06.6       2    130     81    131    154   0.9  35.5  34260  291.26 0854.38
2009/04/23 16:52:06.7       6     85     88     86    123   4.5  50.1  34258  291.23 0854.38
2009/04/23 16:52:06.8      14    191     30    192    195   4.5   9.0  34252  291.15 0854.38
2009/04/23 16:52:06.9     -51    226    -66    232    242 347.1 -16.0  34246  291.04 0854.38
2009/04/23 16:52:07.0     -13    271    -19    272    273 357.1  -4.1  34234  290.82 0854.38
2009/04/23 16:52:07.1     -23    169    -18    171    173 352.2  -6.2  34236  290.87 0854.38
2009/04/23 16:52:07.2     152    123     57    196    205  51.1  16.3  34254  291.16 0854.38
2009/04/23 16:52:07.3     166    110     43    200    205  56.5  12.2  34298  291.93 0854.38
2009/04/23 16:52:07.4     140    154     39    209    213  42.3  10.8  34290  291.79 0854.38
2009/04/23 16:52:07.5     120    225     56    256    263  28.1  12.4  34194  290.15 0854.38
2009/04/23 16:52:07.6      80    263     86    276    290  16.9  17.4  34202  290.27 0854.38
2009/04/23 16:52:07.7       8    279     68    280    289   1.8  13.7  34194  290.14 0854.38
2009/04/23 16:52:07.8     -15    337    129    338    361 357.4  21.8  34192  290.13 0854.42
2009/04/23 16:52:07.9    -110    215    -26    242    244 332.9  -6.2  34198  290.20 0854.42
2009/04/23 16:52:08.0     -78    188    -26    204    206 337.5  -7.3  34206  290.35 0854.42
2009/04/23 16:52:08.1      19    254     26    255    257   4.4   6.0  34176  289.83 0854.42
2009/04/23 16:52:08.2      18    235     55    236    243   4.4  13.2  34182  289.93 0854.42
2009/04/23 16:52:08.3      -8    244     34    245    248 358.0   8.0  34184  289.97 0854.42
2009/04/23 16:52:08.5      90    263     69    279    288  18.9  13.9  34170  289.75 0854.42
2009/04/23 16:52:08.6      82    275      4    288    289  16.7   0.8  34220  290.58 0854.42
2009/04/23 16:52:08.7      31    251    -24    253    255   7.1  -5.6  34236  290.87 0854.42
2009/04/23 16:52:08.7      80    195    -11    211    212  22.3  -3.2  34200  290.26 0854.42
2009/04/23 16:52:08.9       1    180     -7    181    182   0.5  -2.2  34222  290.64 0854.42
2009/04/23 16:52:09.0     -68    127     27    145    148 331.9  10.6  34220  290.58 0854.42
2009/04/23 16:52:09.1     -93    110     22    145    147 319.9   9.0  34218  290.57 0854.42
2009/04/23 16:52:09.2     -86    127     -3    154    155 325.7  -1.2  34220  290.58 0854.42
2009/04/23 16:52:09.3     -95    172    -25    197    199 331.0  -7.3  34240  290.94 0854.42
2009/04/23 16:52:09.4      -9    191    -24    192    194 357.1  -7.2  34210  290.41 0854.42
2009/04/23 16:52:09.5     -18    246     16    247    248 355.6   3.8  34190  290.09 0854.42
2009/04/23 16:52:09.6    -122    328    -42    351    354 339.5  -6.9  34218  290.57 0854.42
2009/04/23 16:52:09.7    -156    331    -14    367    368 334.7  -2.2  34218  290.55 0854.42
2009/04/23 16:52:09.8    -177    330     11    375    376 331.7   1.8  34218  290.55 0854.42
2009/04/23 16:52:09.9     -99    305     81    321    332 341.9  14.2  34230  290.75 0854.41
2009/04/23 16:52:10.0     -78    226     84    240    255 340.8  19.4  34236  290.87 0854.41
2009/04/23 16:52:10.1     -83    203     68    220    231 337.7  17.3  34238  290.89 0854.41
2009/04/23 16:52:10.2     -85    206     79    223    236 337.5  20.2  34266  291.36 0854.41
2009/04/23 16:52:10.3     -97    175     79    201    215 331.0  23.0  34266  291.38 0854.41
2009/04/23 16:52:10.4     -57    142     96    154    181 338.2  35.2  34262  291.30 0854.41
2009/04/23 16:52:10.5     -28    137    123    140    186 348.4  45.8  34248  291.08 0854.41
2009/04/23 16:52:10.6       9    136     70    137    153   4.0  29.2  34240  290.92 0854.41
2009/04/23 16:52:10.7     -42    105     47    114    123 338.2  23.1  34244  291.01 0854.41
2009/04/23 16:52:10.8      22    169     42    171    177   7.6  13.9  34214  290.48 0854.41
2009/04/23 16:52:10.9     -22    195     46    197    203 353.5  13.2  34244  291.01 0854.41
2009/04/23 16:52:11.0     -41    204     11    209    210 348.7   3.1  34250  291.09 0854.41
2009/04/23 16:52:11.1      50    203    -40    210    214  14.0 -10.9  34246  291.04 0854.41
2009/04/23 16:52:11.2      13    169    -23    170    172   4.5  -8.0  34262  291.30 0854.41
2009/04/23 16:52:11.3      20    177    -52    179    187   6.7 -16.4  34262  291.30 0854.41
2009/04/23 16:52:11.4      77    171     32    188    191  24.5   9.9  34270  291.45 0854.41
2009/04/23 16:52:11.5      55    139     51    150    159  21.9  18.9  34276  291.54 0854.41
2009/04/23 16:52:11.6      85     78     69    116    134  47.3  33.5  34262  291.32 0854.41
2009/04/23 16:52:11.7      94     88     59    129    141  46.8  26.6  34270  291.45 0854.41
2009/04/23 16:52:11.8      49    207     42    213    218  13.6  11.1  34258  291.23 0854.41
2009/04/23 16:52:11.9      38    190     15    194    195  11.5   4.6  34256  291.21 0854.40
2009/04/23 16:52:12.0      35    172     10    176    177  11.8   3.3  34254  291.16 0854.40
2009/04/23 16:52:12.1     -35    131     53    136    145 344.8  22.5  34260  291.28 0854.40
2009/04/23 16:52:12.2    -109    116     40    160    166 317.0  14.3  34260  291.26 0854.40
2009/04/23 16:52:12.3    -127    108     14    168    169 310.4   4.9  34258  291.23 0854.40
2009/04/23 16:52:12.4    -178     75    -26    194    196 292.8  -7.7  34258  291.25 0854.40
2009/04/23 16:52:12.5    -190     93     -8    212    213 296.2  -2.2  34266  291.37 0854.40
2009/04/23 16:52:12.6    -175     58      7    185    186 288.4   2.3  34264  291.35 0854.40
2009/04/23 16:52:12.7    -164      2     36    165    169 270.8  12.4  34276  291.54 0854.40
2009/04/23 16:52:12.8    -139     -3     28    140    143 268.7  11.6  34270  291.43 0854.40
2009/04/23 16:52:12.9     -82     49     49     96    107 301.1  28.2  34258  291.25 0854.40
2009/04/23 16:52:13.0     -81    104     51    133    142 322.1  22.0  34234  290.84 0854.40
2009/04/23 16:52:13.1    -182    123     89    220    237 304.1  23.1  34238  290.89 0854.40
2009/04/23 16:52:13.2    -160    150     14    220    221 313.3   3.8  34204  290.33 0854.40
2009/04/23 16:52:13.3    -149    204    -24    253    255 323.9  -5.6  34252  291.12 0854.40
2009/04/23 16:52:13.4    -127    210    -13    246    247 328.8  -3.2  34250  291.10 0854.40
2009/04/23 16:52:13.5    -156    132     24    205    207 310.2   6.9  34244  290.99 0854.40
2009/04/23 16:52:13.6    -126    115     -4    171    172 312.4  -1.6  34278  291.57 0854.40
2009/04/23 16:52:13.7    -119     70      0    139    140 300.7  -0.3  34282  291.66 0854.40
2009/04/23 16:52:13.8    -109     37      0    116    117 289.1  -0.3  34284  291.67 0854.40
2009/04/23 16:52:13.9     -77     63    -12    100    101 309.5  -7.2  34274  291.52 0854.36
2009/04/23 16:52:14.0     -54     31     19     63     66 299.8  17.3  34278  291.57 0854.36
2009/04/23 16:52:14.1     -58     11     16     60     63 281.5  15.3  34284  291.69 0854.36
2009/04/23 16:52:14.2     -61     40     57     73     92 303.3  42.7  34278  291.59 0854.36
2009/04/23 16:52:14.3     -37     45     61     59     84 320.3  50.1  34278  291.57 0854.36
2009/04/23 16:52:14.4      -3     50     77     51     92 355.5  63.6  34286  291.72 0854.36
2009/04/23 16:52:14.5     -20     55     74     59     94 340.0  57.5  34294  291.84 0854.36
2009/04/23 16:52:14.6       5     37     54     38     66   8.0  61.5  34300  291.95 0854.36
2009/04/23 16:52:14.7      26     17     65     32     72  55.8  72.8  34304  292.03 0854.36
2009/04/23 16:52:14.8      39     13     80     42     90  71.6  70.4  34304  292.03 0854.36
2009/04/23 16:52:14.9      10      6     55     13     56  57.6  86.9  34306  292.05 0854.36
2009/04/23 16:52:15.0      27     -9     40     29     49 108.6  60.5  34316  292.22 0854.36
2009/04/23 16:52:15.1      57     -4     19     58     62  94.3  18.4  34316  292.23 0854.36
2009/04/23 16:52:15.2      67      0     46     68     82  90.0  37.6  34312  292.17 0854.36
2009/04/23 16:52:15.3     -23    -49     71     55     89 205.4  57.9  34318  292.27 0854.36
2009/04/23 16:52:15.4      84     12    109     85    138  81.6  58.4  34332  292.51 0854.36
2009/04/23 16:52:15.5     154     85     84    176    195  61.1  27.3  34340  292.63 0854.36
2009/04/23 16:52:15.6     151    -16    139    152    205  96.2  47.1  34346  292.75 0854.36
2009/04/23 16:52:15.7     130    -22     98    132    164  99.6  40.4  34344  292.71 0854.36
2009/04/23 16:52:15.8     151    -16     85    152    174  96.2  31.9  34358  292.93 0854.36
2009/04/23 16:52:15.9     227    -38     75    231    244  99.6  18.1  34366  293.06 0854.36
2009/04/23 16:52:16.0     218    -56     91    226    243 104.4  23.0  34370  293.13 0854.36
2009/04/23 16:52:16.1     192   -115     91    224    241 120.9  23.1  34356  292.91 0854.36
2009/04/23 16:52:16.2     197    -19    -14    198    199  95.7  -4.1  34296  291.89 0854.36
2009/04/23 16:52:16.3     188    -12     36    189    193  93.9  11.0  34318  292.25 0854.36
2009/04/23 16:52:16.4     177     24     22    179    181  82.1   7.2  34312  292.17 0854.36
2009/04/23 16:52:16.5     221     92    111    240    264  67.4  27.0  34336  292.55 0854.36
2009/04/23 16:52:16.6     277      0     97    278    295  90.0  19.4  34370  293.13 0854.36
2009/04/23 16:52:16.7     237      3     93    238    255  89.2  22.8  34352  292.82 0854.36
2009/04/23 16:52:16.8     158    116     70    197    209  53.6  20.2  34360  292.97 0854.36
2009/04/23 16:52:16.9     151    150    123    214    246  45.2  32.4  34308  292.07 0854.35
2009/04/23 16:52:17.0     188    138     81    234    248  53.6  19.2  34316  292.21 0854.35
2009/04/23 16:52:17.1     200     83     96    217    237  67.4  25.2  34394  293.56 0854.35
2009/04/23 16:52:17.2     201     39     88    205    223  79.0  24.6  34402  293.68 0854.35
2009/04/23 16:52:17.3     198     71    107    211    236  70.1  29.1  34350  292.81 0854.35
2009/04/23 16:52:17.4     139     88     98    165    191  57.6  33.7  34318  292.25 0854.35
2009/04/23 16:52:17.5     142    138     33    199    202  45.8   9.5  34298  291.91 0854.35
2009/04/23 16:52:17.6      65    167    104    180    207  21.4  32.9  34298  291.93 0854.35
2009/04/23 16:52:17.7      37    118     43    124    132  17.4  19.2  34286  291.72 0854.35
2009/04/23 16:52:17.8      92    104     50    140    148  41.4  20.4  34276  291.54 0854.35
2009/04/23 16:52:17.9      93     76     72    121    140  50.5  33.5  34278  291.59 0854.35
2009/04/23 16:52:18.0      10     31     76     33     82  18.7  75.5  34300  291.95 0854.35
2009/04/23 16:52:18.1     -13    -28     82     32     88 205.3  78.2  34326  292.40 0854.35
2009/04/23 16:52:18.2      40     -8     74     41     84 101.5  68.3  34318  292.27 0854.35
2009/04/23 16:52:18.3      61    -12     60     63     87 101.5  49.0  34308  292.10 0854.35
2009/04/23 16:52:18.4      43    -27     59     52     78 122.4  53.7  34318  292.25 0854.35
2009/04/23 16:52:18.5      64    -41     86     77    115 122.5  53.3  34332  292.51 0854.35
2009/04/23 16:52:18.6      98     -6    109     99    147  93.5  52.7  34344  292.71 0854.35
2009/04/23 16:52:18.7      70     47    131     85    156  55.8  64.6  34352  292.83 0854.35
2009/04/23 16:52:18.8      46     21    114     51    124  64.8  74.9  34354  292.88 0854.35
2009/04/23 16:52:18.9      59     29    121     66    137  63.8  68.9  34356  292.92 0854.34
2009/04/23 16:52:19.0      16    -12     77     21     79 127.8  84.4  34360  292.97 0854.34
2009/04/23 16:52:19.1      13    -28     56     31     64 154.7  68.8  34352  292.85 0854.34
2009/04/23 16:52:19.2     -11    -33     91     35     97 198.5  78.6  34360  292.98 0854.34
2009/04/23 16:52:19.3       7    -45     83     46     94 171.1  68.3  34352  292.83 0854.34
2009/04/23 16:52:19.4      50      0     90     51    103  90.0  68.8  34336  292.56 0854.34
2009/04/23 16:52:19.5      42     23    103     48    113  61.1  73.1  34354  292.88 0854.34
2009/04/23 16:52:19.6      33     40     92     52    105  39.6  68.3  34354  292.88 0854.34
2009/04/23 16:52:19.7      -1     13    111     14    111 355.5  90.0  34354  292.86 0854.34
2009/04/23 16:52:19.8     -31    -35     82     47     94 221.4  67.2  34348  292.76 0854.34
2009/04/23 16:52:19.9     -31    -42     58     53     78 216.1  52.2  34342  292.66 0854.34
2009/04/23 16:52:20.0      -7    -39     25     40     47 190.7  35.5  34342  292.68 0854.34
2009/04/23 16:52:20.1      27    -39     30     48     56 144.8  35.5  34348  292.76 0854.34
2009/04/23 16:52:20.2     138    -27    106    141    176 101.4  40.7  34372  293.17 0854.34
2009/04/23 16:52:20.3     139     10    113    140    179  85.6  43.3  34364  293.05 0854.34
2009/04/23 16:52:20.4     168      5    154    169    228  88.3  47.5  34356  292.92 0854.34
2009/04/23 16:52:20.5     109     12    172    110    204  83.4  64.6  34374  293.22 0854.34
2009/04/23 16:52:20.6      -6    -72    129     73    148 185.3  68.3  34382  293.36 0854.34
2009/04/23 16:52:20.7      58     -4     96     59    112  94.3  65.1  34376  293.26 0854.34
2009/04/23 16:52:20.8      67    -30    103     74    126 114.4  60.6  34378  293.29 0854.34
2009/04/23 16:52:20.9      14      3     77     15     78  74.9  89.6  34378  293.27 0854.34
2009/04/23 16:52:21.0      52     -3     92     53    106  93.5  67.7  34374  293.21 0854.34
2009/04/23 16:52:21.1     -30     23     65     38     75 307.8  66.8  34376  293.24 0854.34
2009/04/23 16:52:21.2      36    -58     90     69    113 148.4  58.5  34374  293.21 0854.34
2009/04/23 16:52:21.3      14    -17     83     23     86 140.4  83.9  34374  293.22 0854.34
2009/04/23 16:52:21.4     -20      8     74     22     77 291.7  81.8  34384  293.39 0854.34
2009/04/23 16:52:21.5     -38     40     87     56    103 315.9  64.6  34368  293.10 0854.34
2009/04/23 16:52:21.6     -28     85    112     90    143 341.7  56.9  34342  292.66 0854.34
2009/04/23 16:52:21.7       1     38     98     39    105   2.7  77.1  34346  292.73 0854.34
2009/04/23 16:52:21.8      -6      7     85     10     85 316.8  90.0  34330  292.47 0854.34
2009/04/23 16:52:21.9      34      6     95     35    101  78.5  79.2  34346  292.73 0854.34
2009/04/23 16:52:22.0      83    -46     80     96    124 119.3  43.8  34354  292.86 0854.34
2009/04/23 16:52:22.1     117    -74    121    139    184 122.4  45.6  34352  292.83 0854.34
2009/04/23 16:52:22.2     166      0    133    167    213  90.0  42.7  34330  292.46 0854.34
2009/04/23 16:52:22.3     213      0    146    214    259  89.9  37.6  34334  292.53 0854.34
2009/04/23 16:52:22.4     239     18     98    240    259  85.6  23.1  34324  292.35 0854.34
2009/04/23 16:52:22.5     159     46    127    166    209  73.6  41.4  34322  292.34 0854.34
2009/04/23 16:52:22.6     134     73    131    153    201  61.2  45.4  34316  292.22 0854.34
2009/04/23 16:52:22.7     187     91    121    209    241  64.0  32.9  34338  292.59 0854.34
2009/04/23 16:52:22.8     181     85    157    201    255  64.8  42.0  34360  292.96 0854.34
2009/04/23 16:52:22.9      87    136     93    162    186  32.5  32.1  34320  292.29 0854.34
2009/04/23 16:52:23.0     115    104    104    156    187  47.8  36.7  34354  292.88 0854.34
2009/04/23 16:52:23.1      40    149     72    155    170  15.1  26.6  34308  292.10 0854.34
2009/04/23 16:52:23.2      88     88     90    125    154  45.0  39.5  34324  292.37 0854.34
2009/04/23 16:52:23.3      64     57     67     86    109  48.2  42.2  34326  292.40 0854.34
2009/04/23 16:52:23.4      40     75     27     86     91  28.1  17.3  34318  292.25 0854.34
2009/04/23 16:52:23.5     126     69    113    144    183  61.1  42.0  34330  292.46 0854.34
2009/04/23 16:52:23.6      61     85    102    105    146  35.6  49.4  34326  292.40 0854.34
2009/04/23 16:52:23.7     184    144     52    234    240  52.0  12.6  34326  292.40 0854.34
2009/04/23 16:52:23.8     199     94     52    221    228  64.7  13.2  34326  292.40 0854.34
2009/04/23 16:52:23.9     174     74     66    190    202  66.9  19.2  34322  292.32 0854.34
2009/04/23 16:52:24.0     142    137     89    198    217  46.0  25.7  34318  292.25 0854.34
2009/04/23 16:52:24.1      67    130     57    147    157  27.2  22.3  34306  292.05 0854.34
2009/04/23 16:52:24.2      93     70     27    117    121  52.7  13.2  34316  292.23 0854.34
2009/04/23 16:52:24.3      85     28    -18     90     92  71.6 -11.3  34320  292.30 0854.34
2009/04/23 16:52:24.4     125     78     38    148    153  58.0  14.7  34368  293.10 0854.34
2009/04/23 16:52:24.5     114      8     40    115    122  85.6  19.4  34358  292.95 0854.34
2009/04/23 16:52:24.6      63     -3     28     64     69  93.5  26.2  34336  292.58 0854.34
2009/04/23 16:52:24.7      68    -28     25     74     79 112.6  18.9  34298  291.91 0854.34
2009/04/23 16:52:24.8      54    -29    -12     62     64 118.9 -11.3  34290  291.77 0854.34
2009/04/23 16:52:24.9      78    -40     33     88     93 117.5  20.4  34274  291.50 0854.36
2009/04/23 16:52:25.0      74     -5     62     75     97  94.4  43.8  34298  291.93 0854.36
2009/04/23 16:52:25.1      80     -4     58     81     99  93.5  39.5  34322  292.32 0854.36
2009/04/23 16:52:25.2      51      0     36     52     63  90.0  38.6  34336  292.56 0854.36
2009/04/23 16:52:25.3      52     10     54     54     76  78.5  50.1  34340  292.64 0854.36
2009/04/23 16:52:25.4       0    -18     26     19     32 182.7  60.5  34338  292.59 0854.36
2009/04/23 16:52:25.5      23    -62     -4     67     68 159.1  -4.1  34324  292.37 0854.36
2009/04/23 16:52:25.6      43    -33     41     55     68 127.8  41.7  34318  292.27 0854.36
2009/04/23 16:52:25.7      28     -3     35     29     45  97.9  55.4  34334  292.54 0854.36
2009/04/23 16:52:25.8       0      0     34      1     34 270.0 -90.0  34336  292.58 0854.36
2009/04/23 16:52:25.9       1     16     43     17     46   4.5  78.2  34344  292.69 0854.36
2009/04/23 16:52:26.0       9      0     49     10     50  90.0  89.1  34356  292.90 0854.36
2009/04/23 16:52:26.1      37     20     45     43     62  62.0  51.2  34360  292.98 0854.36
2009/04/23 16:52:26.2      64    -15     70     66     96 103.3  51.2  34360  292.98 0854.36
2009/04/23 16:52:26.3      32    -97    107    103    148 161.7  51.2  34354  292.88 0854.36
2009/04/23 16:52:26.4     111     15    109    113    157  82.0  49.0  34354  292.86 0854.36
2009/04/23 16:52:26.5      26      2    129     27    131  85.6  89.0  34364  293.04 0854.36
2009/04/23 16:52:26.6       1    -72    111     73    132 179.1  64.1  34362  293.00 0854.36
2009/04/23 16:52:26.7     -15    -76     92     78    120 191.6  55.4  34342  292.66 0854.36
2009/04/23 16:52:26.8     -20    -20     83     29     87 225.0  80.7  34360  292.98 0854.36
2009/04/23 16:52:26.9      16     78     76     80    110  11.6  48.5  34360  292.98 0854.36
2009/04/23 16:52:27.0      42     65     47     78     91  33.4  34.0  34358  292.95 0854.36
2009/04/23 16:52:27.1      53     52     38     75     84  45.1  28.7  34362  293.00 0854.36
2009/04/23 16:52:27.2      32     40     24     52     57  38.7  27.1  34366  293.07 0854.36
2009/04/23 16:52:27.3      24     50     18     56     60  25.4  18.4  34368  293.12 0854.36
2009/04/23 16:52:27.4      12     46     12     48     50  15.1  14.3  34366  293.09 0854.36
2009/04/23 16:52:27.5      30     56      5     64     65  28.1   4.9  34368  293.10 0854.36
2009/04/23 16:52:27.6     126     16    119    128    174  82.5  48.2  34350  292.81 0854.36
2009/04/23 16:52:27.7      76    -61     87     98    131 128.6  45.9  34358  292.95 0854.36
2009/04/23 16:52:27.8      71      6    107     72    128  84.8  63.2  34362  293.00 0854.36
2009/04/23 16:52:27.9      45     27     69     53     87  58.5  58.5  34374  293.21 0854.36
2009/04/23 16:52:28.0      24     38     57     46     73  32.5  56.4  34372  293.17 0854.36
2009/04/23 16:52:28.1     -10    -14     70     18     72 216.1  84.9  34344  292.69 0854.36
2009/04/23 16:52:28.2     -24      6     78     25     81 285.1  81.8  34362  293.00 0854.36
2009/04/23 16:52:28.3     -13    -40     89     43     98 197.8  72.4  34326  292.40 0854.36
2009/04/23 16:52:28.4     -36    -20     68     42     79 241.1  65.1  34320  292.30 0854.36
2009/04/23 16:52:28.5      -2    -21     77     22     80 186.2  83.9  34314  292.20 0854.36
2009/04/23 16:52:28.6       0    -23     65     24     69 180.9  80.2  34292  291.83 0854.36
2009/04/23 16:52:28.7      28    -33     80     44     91 139.5  68.8  34296  291.88 0854.36
2009/04/23 16:52:28.8     -35     -2     82     36     89 265.6  74.5  34328  292.44 0854.36
2009/04/23 16:52:28.9     -65      5     32     66     73 274.4  27.3  34328  292.44 0854.35
2009/04/23 16:52:29.0    -106     22     23    109    112 281.9  12.2  34340  292.64 0854.35
2009/04/23 16:52:29.1     -80    -85     74    117    138 223.2  35.5  34298  291.91 0854.35
2009/04/23 16:52:29.2    -104    -85     75    135    154 230.9  31.4  34298  291.91 0854.35
2009/04/23 16:52:29.3     -95     -1     58     96    112 269.2  34.4  34316  292.23 0854.35
2009/04/23 16:52:29.4    -130    -42     21    137    139 251.8   9.0  34300  291.96 0854.35
2009/04/23 16:52:29.5    -109   -108     32    154    158 225.1  12.0  34298  291.91 0854.35
2009/04/23 16:52:29.6     -84   -116     67    144    158 216.1  26.6  34290  291.77 0854.35
2009/04/23 16:52:29.7     -89    -85     24    124    127 226.4  11.1  34308  292.08 0854.35
2009/04/23 16:52:29.8     -52    -97     86    111    140 208.5  41.7  34314  292.20 0854.35
2009/04/23 16:52:29.9     -60   -101    100    118    154 210.7  44.3  34326  292.39 0854.35
2009/04/23 16:52:30.0     -96    -41     92    105    139 246.5  45.8  34330  292.47 0854.35
2009/04/23 16:52:30.1    -114    -29     68    118    136 255.4  33.4  34324  292.37 0854.35
2009/04/23 16:52:30.2     -79    -53     67     96    117 236.3  38.0  34326  292.40 0854.35
2009/04/23 16:52:30.3     -39    -40     64     56     85 224.2  54.3  34336  292.56 0854.35
2009/04/23 16:52:30.4     -22    -47     46     53     70 205.3  44.8  34342  292.66 0854.35
2009/04/23 16:52:30.5     -37     -7     52     38     64 258.5  60.5  34336  292.56 0854.35
2009/04/23 16:52:30.6     -75     41     79     86    116 298.9  47.9  34320  292.29 0854.35
2009/04/23 16:52:30.7     -46     48     70     67     96 315.9  50.7  34324  292.37 0854.35
2009/04/23 16:52:30.8     -51    -19     34     55     64 249.2  35.5  34328  292.42 0854.35
2009/04/23 16:52:30.9     -35    -34     27     50     56 225.9  30.3  34328  292.44 0854.34
2009/04/23 16:52:31.0     -54    -38     42     67     79 234.9  35.0  34342  292.68 0854.34
2009/04/23 16:52:31.1     -37    -58     60     69     91 212.5  45.4  34348  292.76 0854.34
2009/04/23 16:52:31.2     -60    -60     46     85     96 225.1  30.8  34338  292.59 0854.34
2009/04/23 16:52:31.3     -64    -42     23     77     81 236.7  16.8  34328  292.42 0854.34
2009/04/23 16:52:31.4     -66      4    -23     67     70 274.3 -23.3  34274  291.52 0854.34
2009/04/23 16:52:31.5     -92      8    -23     93     96 275.2 -13.9  34252  291.13 0854.34
2009/04/23 16:52:31.6     -84     11    -47     85     97 277.9 -36.3  34250  291.11 0854.34
2009/04/23 16:52:31.7    -104     16    -32    106    110 279.2 -21.7  34266  291.37 0854.34
2009/04/23 16:52:31.8     -68     11     13     69     71 279.7  11.1  34256  291.21 0854.34
2009/04/23 16:52:31.9     -58     -4     11     59     61 265.7  11.0  34260  291.28 0854.34
2009/04/23 16:52:32.0     -63     -2     -8     64     65 267.4  -7.2  34266  291.37 0854.34
2009/04/23 16:52:32.1    -106      0    -32    107    111 269.6 -21.7  34272  291.49 0854.34
2009/04/23 16:52:32.2    -102    -27    -38    106    113 255.0 -19.7  34276  291.55 0854.34
2009/04/23 16:52:32.3     -88    -20    -29     91     96 257.2 -17.6  34282  291.66 0854.34
2009/04/23 16:52:32.4     -68    -51     19     86     89 233.1  12.6  34290  291.77 0854.34
2009/04/23 16:52:32.5     -27    -56     61     63     87 206.3  50.0  34298  291.93 0854.34
2009/04/23 16:52:32.6      -9    -76     54     77     94 187.1  38.0  34312  292.15 0854.34
2009/04/23 16:52:32.7     -17    -77     67     79    103 192.5  44.8  34310  292.12 0854.34
2009/04/23 16:52:32.8     -13    -63     27     65     70 191.6  24.1  34302  292.00 0854.34
2009/04/23 16:52:32.9     -69    -64     18     95     97 227.3  11.1  34294  291.86 0854.33
2009/04/23 16:52:33.0     -60    -62     37     87     94 223.7  24.6  34300  291.95 0854.33
2009/04/23 16:52:33.1     -70    -45     21     84     87 237.5  14.3  34296  291.89 0854.33
2009/04/23 16:52:33.2     -52    -56     20     77     80 223.3  14.7  34292  291.81 0854.33
2009/04/23 16:52:33.3     -53    -68     57     87    104 218.3  36.0  34308  292.10 0854.33
2009/04/23 16:52:33.4     -42    -41     63     59     86 225.9  51.6  34322  292.34 0854.33
2009/04/23 16:52:33.5     -34    -37     35     51     61 222.3  38.6  34316  292.22 0854.33
2009/04/23 16:52:33.6       0    -46     40     47     61 180.0  44.8  34332  292.51 0854.33
2009/04/23 16:52:33.7       5    -27     40     28     48 168.4  61.5  34346  292.75 0854.33
2009/04/23 16:52:33.8      38    -30     21     49     53 128.6  24.1  34380  293.31 0854.33
2009/04/23 16:52:33.9      66    -50     43     84     94 127.3  29.3  34388  293.46 0854.33
2009/04/23 16:52:34.0      54    -25     77     60     97 115.2  57.9  34396  293.60 0854.33
2009/04/23 16:52:34.1      34    -26     84     43     94 127.8  70.8  34402  293.68 0854.33
2009/04/23 16:52:34.2      62     -4     73     63     96  94.4  54.8  34406  293.77 0854.33
2009/04/23 16:52:34.3      92    -36     94    100    137 111.7  48.0  34408  293.80 0854.33
2009/04/23 16:52:34.4      14    -29     69     33     76 154.6  72.9  34406  293.75 0854.33
2009/04/23 16:52:34.5      37    -45     78     59     97 140.3  59.0  34408  293.80 0854.33
2009/04/23 16:52:34.6      12     11     15     17     22  46.7  47.9  34426  294.11 0854.33
2009/04/23 16:52:34.7      21     32     64     39     74  32.6  64.7  34436  294.28 0854.33
2009/04/23 16:52:34.8       0      0     84      0     84   0.0  90.0  34446  294.44 0854.33
2009/04/23 16:52:34.9      62     -8    120     63    135  98.0  70.4  34430  294.16 0854.33
2009/04/23 16:52:35.0      32    -25     79     41     89 127.8  70.4  34408  293.79 0854.33
2009/04/23 16:52:35.1       6    -31     49     32     58 168.4  64.6  34376  293.24 0854.33
2009/04/23 16:52:35.3      30      4     61     31     68  82.1  71.9  34386  293.41 0854.33
2009/04/23 16:52:35.4      42     67     81     80    113  32.5  49.7  34398  293.63 0854.33
2009/04/23 16:52:35.5      97     36    109    104    150  69.6  51.6  34372  293.17 0854.33
2009/04/23 16:52:35.6      61     40    106     74    129  56.7  62.1  34362  293.02 0854.33
2009/04/23 16:52:35.6      59     14     93     61    111  76.7  64.1  34372  293.17 0854.33
2009/04/23 16:52:35.8      12     44     91     46    101  16.0  71.4  34376  293.24 0854.33
2009/04/23 16:52:35.9      19     74     93     77    120  14.3  56.3  34360  292.97 0854.33
2009/04/23 16:52:36.0       2     86     92     87    126   1.8  51.6  34344  292.69 0854.33
2009/04/23 16:52:36.1     -37    121    100    127    161 343.0  42.2  34336  292.56 0854.33
2009/04/23 16:52:36.2     -35    117    119    123    171 343.1  49.2  34342  292.66 0854.33
2009/04/23 16:52:36.3     -56    101    103    116    155 330.6  45.9  34292  291.81 0854.33
2009/04/23 16:52:36.4     -28     80    115     85    143 340.4  60.5  34308  292.10 0854.33
2009/04/23 16:52:36.5     -30    121    136    125    184 345.7  52.2  34286  291.72 0854.33
2009/04/23 16:52:36.6     -39    108     94    115    148 340.0  43.7  34280  291.62 0854.33
2009/04/23 16:52:36.7     -56     83     57    101    115 326.2  31.9  34274  291.52 0854.33
2009/04/23 16:52:36.8     -28     59     75     66     99 334.6  54.3  34274  291.52 0854.33
2009/04/23 16:52:36.9     -32     10     66     34     74 288.4  70.8  34274  291.52 0854.33
2009/04/23 16:52:37.0     -55    -11     30     57     64 258.6  30.3  34290  291.79 0854.33
2009/04/23 16:52:37.1     -31    -31     71     44     83 225.1  65.7  34288  291.76 0854.33
2009/04/23 16:52:37.2     -42      5     76     43     87 277.0  67.7  34294  291.86 0854.33
2009/04/23 16:52:37.3     -91     93     93    131    160 315.5  39.1  34286  291.71 0854.33
2009/04/23 16:52:37.4    -107    128     85    168    188 320.1  28.7  34254  291.18 0854.33
2009/04/23 16:52:37.5    -109    102     83    150    171 313.1  31.4  34244  290.99 0854.33
2009/04/23 16:52:37.6    -132     71     73    151    167 298.4  27.4  34208  290.38 0854.33
2009/04/23 16:52:37.7    -142     67     65    158    170 295.2  23.6  34272  291.49 0854.33
2009/04/23 16:52:37.8    -219     71     58    231    239 287.9  14.2  34314  292.19 0854.33
2009/04/23 16:52:37.9    -163     80     61    182    193 296.2  18.6  34304  292.03 0854.33
2009/04/23 16:52:38.0    -132     85     38    158    163 302.9  13.5  34298  291.91 0854.33
2009/04/23 16:52:38.1    -121     95     30    155    158 308.2  11.1  34302  292.00 0854.33
2009/04/23 16:52:38.2    -153     51     -5    162    163 288.4  -1.8  34304  292.03 0854.33
2009/04/23 16:52:38.3     -73     -5     58     74     94 265.7  42.2  34314  292.18 0854.33
2009/04/23 16:52:38.4     -40    -36     77     54     94 227.8  62.1  34308  292.10 0854.33
2009/04/23 16:52:38.5      15    -31     66     35     74 154.6  69.8  34308  292.08 0854.33
2009/04/23 16:52:38.6      22    -39     49     46     67 150.1  52.1  34306  292.06 0854.33
2009/04/23 16:52:38.7      63    -41     65     76    100 123.3  44.8  34306  292.06 0854.33
2009/04/23 16:52:38.8      40    -14    101     43    109 109.1  75.5  34304  292.03 0854.33
2009/04/23 16:52:38.9      -4    -27     60     28     66 189.8  73.1  34318  292.27 0854.33
2009/04/23 16:52:39.0       3    -34     49     35     60 173.8  60.5  34314  292.20 0854.33
2009/04/23 16:52:39.1     -26    -43     64     51     81 210.7  57.5  34316  292.22 0854.33
2009/04/23 16:52:39.2     -17    -64     73     67     99 195.1  52.2  34302  291.98 0854.33
2009/04/23 16:52:39.3       6     -2     79      7     79 108.2  90.0  34308  292.10 0854.33
2009/04/23 16:52:39.4       0    -44     65     45     79 180.9  62.1  34298  291.91 0854.33
2009/04/23 16:52:39.5      21    -49     69     54     87 156.4  57.9  34304  292.01 0854.33
2009/04/23 16:52:39.6     -18    -78     91     81    121 193.4  53.7  34296  291.89 0854.33
2009/04/23 16:52:39.7     -42   -117     74    125    145 200.0  33.5  34292  291.83 0854.33
2009/04/23 16:52:39.8     -20    -75    114     78    138 195.1  62.6  34286  291.72 0854.33
2009/04/23 16:52:39.9    -107    -72    136    130    188 235.9  51.4  34302  292.00 0854.33
2009/04/23 16:52:40.0    -112    -80     98    138    169 234.5  38.8  34316  292.22 0854.34
2009/04/23 16:52:40.1     -99    -69    128    121    176 234.9  52.0  34252  291.13 0854.34
2009/04/23 16:52:40.2     -95   -129     70    161    175 216.5  24.9  34240  290.94 0854.34
2009/04/23 16:52:40.3    -195    -69      1    207    208 250.5   0.5  34240  290.94 0854.34
2009/04/23 16:52:40.4    -171    -81     18    190    191 244.6   5.4  34250  291.11 0854.34
2009/04/23 16:52:40.5    -137    -75    -19    157    159 241.1  -6.9  34238  290.91 0854.34
2009/04/23 16:52:40.6    -139    -87    -16    165    166 238.0  -5.6  34216  290.52 0854.34
2009/04/23 16:52:40.7    -139   -115      7    181    182 230.5   2.5  34220  290.58 0854.34
2009/04/23 16:52:40.8    -132   -132     15    187    188 225.1   4.6  34220  290.60 0854.34
2009/04/23 16:52:40.9     -76   -149    -30    168    171 207.0 -10.3  34214  290.48 0854.34
2009/04/23 16:52:41.0    -130   -136      4    189    190 223.7   1.2  34200  290.26 0854.34
2009/04/23 16:52:41.1    -157   -101    -24    187    189 237.1  -7.3  34150  289.41 0854.34
2009/04/23 16:52:41.2    -143    -91    -23    170    172 237.6  -7.7  34142  289.28 0854.34
2009/04/23 16:52:41.3    -131    -75    -35    152    157 240.2 -13.2  34138  289.19 0854.34
2009/04/23 16:52:41.4    -127    -73    -24    147    150 240.2  -9.3  34140  289.23 0854.34
2009/04/23 16:52:41.5    -127    -70    -30    146    150 241.2 -11.9  34142  289.28 0854.34
2009/04/23 16:52:41.6    -145    -69    -35    161    165 244.6 -12.4  34138  289.21 0854.34
2009/04/23 16:52:41.7    -196    -80    -76    212    226 247.8 -19.7  34212  290.47 0854.34
2009/04/23 16:52:41.8    -227      0    -19    228    229 269.9  -4.9  34284  291.69 0854.34
2009/04/23 16:52:41.9    -282      0    -37    283    286 269.9  -7.5  34256  291.21 0854.34
2009/04/23 16:52:42.0    -276    -30    -45    278    282 263.8  -9.4  34210  290.41 0854.33
2009/04/23 16:52:42.1    -287    -19    -78    288    299 266.1 -15.2  34146  289.34 0854.33
2009/04/23 16:52:42.2    -282    -35   -102    285    303 262.8 -19.8  34138  289.20 0854.33
2009/04/23 16:52:42.3    -298    -70    -84    307    318 256.7 -20.0  34212  290.46 0854.33
2009/04/23 16:52:42.4    -233    -66    -69    243    252 254.1 -20.7  34232  290.78 0854.33
2009/04/23 16:52:42.5    -214   -110   -127    241    272 242.7 -34.6  34256  291.19 0854.33
2009/04/23 16:52:42.6    -248    -25      2    250    251 264.1   0.5  34288  291.73 0854.33
2009/04/23 16:52:42.7    -161    -19     77    163    180 263.2  27.2  34290  291.77 0854.33
2009/04/23 16:52:42.8    -122     54     65    134    148 294.0  27.3  34288  291.74 0854.33
2009/04/23 16:52:42.9    -130     33     64    135    149 284.2  27.2  34298  291.93 0854.33
2009/04/23 16:52:43.0    -106      3     41    107    114 271.7  21.5  34290  291.79 0854.33
2009/04/23 16:52:43.1      -5     73     74     74    104 355.6  50.1  34294  291.86 0854.33
2009/04/23 16:52:43.2     -70    106    103    128    164 326.6  43.0  34288  291.74 0854.33
2009/04/23 16:52:43.3    -101    143     74    176    190 324.8  24.1  34292  291.81 0854.33
2009/04/23 16:52:43.4     -89    138     99    165    192 327.3  34.2  34282  291.64 0854.33
2009/04/23 16:52:43.5     -70    106     69    128    145 326.6  31.3  34274  291.50 0854.33
2009/04/23 16:52:43.6     -69     86     67    111    129 321.3  34.0  34264  291.33 0854.33
2009/04/23 16:52:43.7     -79     21     32     82     88 285.5  22.0  34282  291.66 0854.33
2009/04/23 16:52:43.8     -19    121    -32    123    128 350.7 -14.5  34308  292.08 0854.33
2009/04/23 16:52:43.9     -85     25    -48     89    101 286.8 -35.2  34268  291.40 0854.33
2009/04/23 16:52:44.0     -56     64    -27     86     91 318.6 -17.6  34234  290.82 0854.33
2009/04/23 16:52:44.1     -49     85     58     99    114 330.1  33.5  34268  291.40 0854.33
2009/04/23 16:52:44.2    -109    128     -9    169    170 319.5  -3.3  34218  290.57 0854.33
2009/04/23 16:52:44.3     -84    131    -20    156    158 327.4  -7.3  34206  290.36 0854.33
2009/04/23 16:52:44.4     -86     99    -21    132    134 319.0  -9.3  34216  290.52 0854.33
2009/04/23 16:52:44.5     -76     93      3    121    122 320.8   1.8  34246  291.03 0854.33
2009/04/23 16:52:44.6     -35     97     70    104    125 340.0  37.4  34244  290.99 0854.33
2009/04/23 16:52:44.7     -10    136     21    137    139 355.6   9.0  34248  291.06 0854.33
2009/04/23 16:52:44.8     -47    142    105    150    183 341.5  38.4  34270  291.45 0854.33
2009/04/23 16:52:44.9     -40    119     73    126    145 341.3  32.9  34268  291.42 0854.33
2009/04/23 16:52:45.0      -6     77    104     78    130 355.5  59.0  34262  291.32 0854.33
2009/04/23 16:52:45.1      21      7     90     23     92  71.8  85.9  34294  291.84 0854.33
2009/04/23 16:52:45.2      15    -19     77     25     80 140.4  81.2  34312  292.15 0854.33
2009/04/23 16:52:45.3      -6      1     76      7     76 281.5  90.0  34330  292.47 0854.33
2009/04/23 16:52:45.4      -6     49     81     50     95 352.0  64.7  34294  291.84 0854.33
2009/04/23 16:52:45.5     -25     76    112     81    138 341.3  60.6  34310  292.13 0854.33
2009/04/23 16:52:45.6     -30     95     94    100    137 342.2  48.0  34270  291.45 0854.33
2009/04/23 16:52:45.7       0     95     82     96    126   0.0  45.4  34276  291.55 0854.33
2009/04/23 16:52:45.8       5     74     75     75    106   4.5  50.1  34292  291.83 0854.33
2009/04/23 16:52:45.9      13     -9     37     17     40 126.0  74.0  34308  292.10 0854.33
2009/04/23 16:52:46.0       9    -48     36     49     60 169.3  39.7  34312  292.17 0854.33
2009/04/23 16:52:46.1      -1    -10     45     11     46 188.0  85.9  34310  292.13 0854.33
2009/04/23 16:52:46.2     -19    -31     78     37     86 212.5  72.9  34302  292.00 0854.33
2009/04/23 16:52:46.3     -64    -84     88    106    137 217.4  43.8  34278  291.59 0854.33
2009/04/23 16:52:46.4     -31    -92     87     98    131 198.7  45.9  34256  291.20 0854.33
2009/04/23 16:52:46.5     -43   -119     73    127    146 200.0  32.9  34242  290.96 0854.33
2009/04/23 16:52:46.6     -50   -100     48    113    122 206.7  24.1  34262  291.32 0854.33
2009/04/23 16:52:46.7     -29   -105     78    110    134 195.6  38.6  34274  291.52 0854.33
2009/04/23 16:52:46.8      14    -90     69     92    115 171.1  40.1  34278  291.57 0854.33
2009/04/23 16:52:46.9      57    -21     48     61     77 110.8  43.7  34286  291.72 0854.33
2009/04/23 16:52:47.0      46    -22     57     52     77 116.2  52.2  34288  291.76 0854.33
2009/04/23 16:52:47.1      -5    -31     42     32     52 189.8  57.5  34292  291.81 0854.33
2009/04/23 16:52:47.2       6    -45     48     46     66 172.0  50.1  34280  291.60 0854.33
2009/04/23 16:52:47.3      52    -59     65     80    103 138.6  43.7  34282  291.64 0854.33
2009/04/23 16:52:47.4      54    -54     60     77     97 135.0  42.2  34282  291.64 0854.33
2009/04/23 16:52:47.5      58    -93     55    110    122 147.9  28.2  34276  291.54 0854.33
2009/04/23 16:52:47.6       7    -99     34    100    106 175.5  18.9  34274  291.52 0854.33
2009/04/23 16:52:47.7      32    -88     65     94    114 160.0  37.6  34274  291.50 0854.33
2009/04/23 16:52:47.8      51    -65     55     83     99 141.7  36.5  34320  292.30 0854.33
2009/04/23 16:52:47.9      21    -64     54     68     86 161.3  42.7  34288  291.76 0854.33
2009/04/23 16:52:48.0      22    -68     66     72     97 161.7  47.9  34300  291.96 0854.34
2009/04/23 16:52:48.1       0    -81     55     82     98 180.0  37.0  34316  292.22 0854.34
2009/04/23 16:52:48.2      -9    -67     66     68     94 188.1  50.5  34302  292.00 0854.34
2009/04/23 16:52:48.3     -16    -99     45    101    110 189.3  26.2  34280  291.60 0854.34
2009/04/23 16:52:48.4      -6    -98     45     99    108 184.0  26.6  34282  291.64 0854.34
2009/04/23 16:52:48.5     -16    -99     58    101    116 189.3  32.4  34306  292.05 0854.34
2009/04/23 16:52:48.6     -38    -96     65    104    122 201.8  35.0  34312  292.15 0854.34
2009/04/23 16:52:48.7     -24    -89     79     93    122 195.1  45.4  34314  292.20 0854.34
2009/04/23 16:52:48.8      10    -71    100     72    123 172.0  60.6  34342  292.68 0854.34
2009/04/23 16:52:48.9      69    -96     88    119    148 144.0  39.7  34344  292.69 0854.34
2009/04/23 16:52:49.0      91    -86     70    126    144 133.2  31.4  34316  292.22 0854.34
2009/04/23 16:52:49.1      50    -50     68     72     99 134.9  48.5  34342  292.66 0854.34
2009/04/23 16:52:49.2      35    -78     65     86    107 155.9  40.7  34332  292.51 0854.34
2009/04/23 16:52:49.3      39    -89     72     98    121 156.4  40.1  34292  291.83 0854.34
2009/04/23 16:52:49.4      38    -72     57     82     99 151.9  38.6  34250  291.09 0854.34
2009/04/23 16:52:49.5      55    -82     61     99    116 146.2  35.5  34236  290.87 0854.34
2009/04/23 16:52:49.6      43    -76     70     88    112 150.6  43.7  34232  290.79 0854.34
2009/04/23 16:52:49.7      17    -73     44     76     87 166.6  32.9  34254  291.18 0854.34
2009/04/23 16:52:49.8      -1    -53     93     54    107 181.8  67.2  34308  292.08 0854.34
2009/04/23 16:52:49.9     -29    -45     62     54     82 212.5  54.3  34328  292.42 0854.34
2009/04/23 16:52:50.0      34    -58     51     68     85 149.3  40.7  34278  291.57 0854.34
2009/04/23 16:52:50.1      56    -83     49    101    112 146.2  27.3  34262  291.30 0854.34
2009/04/23 16:52:50.2      96    -64     35    116    122 123.7  16.8  34252  291.13 0854.34
2009/04/23 16:52:50.3      89    -44      5    100    101 116.6   3.3  34238  290.91 0854.34
2009/04/23 16:52:50.4      88    -70     24    113    116 128.6  12.2  34230  290.77 0854.34
2009/04/23 16:52:50.5      78    -60     36     99    105 127.8  20.0  34232  290.81 0854.34
2009/04/23 16:52:50.6     106    -45     18    116    118 113.1   9.0  34248  291.06 0854.34
2009/04/23 16:52:50.7     102    -39     30    110    115 111.3  15.3  34268  291.40 0854.34
2009/04/23 16:52:50.8     124      0     61    125    139  90.0  27.8  34256  291.21 0854.34
2009/04/23 16:52:50.9     138      0     52    139    148  90.0  21.0  34254  291.18 0854.34
2009/04/23 16:52:51.0     106    -15     32    108    113  98.0  16.8  34242  290.98 0854.34
2009/04/23 16:52:51.1      83     -7     36     84     91  94.8  24.6  34244  291.01 0854.34
2009/04/23 16:52:51.2      79     -1     29     80     85  90.9  20.0  34242  290.96 0854.34
2009/04/23 16:52:51.3      80     20     30     83     88  75.4  20.0  34256  291.21 0854.34
2009/04/23 16:52:51.4      72     50     -1     88     89  54.9  -1.3  34256  291.21 0854.34
2009/04/23 16:52:51.5      36     47     25     60     65  37.8  23.0  34274  291.50 0854.34
2009/04/23 16:52:51.6      55     62     23     84     88  41.4  15.3  34296  291.89 0854.34
2009/04/23 16:52:51.7      64     77     35    101    108  39.6  19.4  34304  292.03 0854.34
2009/04/23 16:52:51.8      66     84      8    108    109  38.3   4.4  34294  291.86 0854.34
2009/04/23 16:52:51.9      90     96     23    132    135  43.3  10.1  34308  292.08 0854.34
2009/04/23 16:52:52.0     124     87     -8    152    153  54.9  -3.1  34326  292.40 0854.34
2009/04/23 16:52:52.1     176    106     48    206    212  58.9  13.2  34332  292.49 0854.34
2009/04/23 16:52:52.2     169    147    101    225    246  48.9  25.9  34328  292.43 0854.34
2009/04/23 16:52:52.3     146    120    111    190    220  50.7  32.9  34322  292.34 0854.34
2009/04/23 16:52:52.4     104    135    116    171    206  37.6  37.4  34300  291.96 0854.34
2009/04/23 16:52:52.5     187     48    113    194    224  75.4  33.1  34312  292.17 0854.34
2009/04/23 16:52:52.6     207     82     90    223    240  68.3  23.1  34292  291.80 0854.34
2009/04/23 16:52:52.7     183     75    123    199    233  67.6  35.2  34318  292.25 0854.34
2009/04/23 16:52:52.8     185     91    158    207    260  63.8  41.2  34258  291.24 0854.34
2009/04/23 16:52:52.9     163    130    164    209    265  51.4  42.4  34270  291.43 0854.34
2009/04/23 16:52:53.0     119     57     86    133    158  64.2  36.0  34270  291.45 0854.34
2009/04/23 16:52:53.1      63     67    122     93    153  43.2  59.0  34282  291.64 0854.34
2009/04/23 16:52:53.2     -17     94     79     96    124 349.8  43.7  34286  291.71 0854.34
2009/04/23 16:52:53.3      -1    120     49    121    130 359.1  23.1  34284  291.67 0854.34
2009/04/23 16:52:53.4      31    140     28    144    147  12.5  11.1  34294  291.84 0854.34
2009/04/23 16:52:53.5      41    139     51    146    155  16.5  19.4  34302  291.98 0854.34
2009/04/23 16:52:53.6      35    127     33    132    137  15.6  14.3  34286  291.71 0854.34
2009/04/23 16:52:53.7      89    106     51    139    148  40.1  21.0  34272  291.49 0854.34
2009/04/23 16:52:53.8     102     84     31    133    137  50.4  13.2  34260  291.26 0854.34
2009/04/23 16:52:53.9      98     49     -2    110    111  63.4  -1.3  34252  291.15 0854.34
2009/04/23 16:52:54.0     139     19     47    141    149  82.0  18.4  34260  291.26 0854.34
2009/04/23 16:52:54.1     151     94     55    179    188  58.0  17.1  34286  291.71 0854.34
2009/04/23 16:52:54.2     145     15     79    146    166  83.9  30.8  34286  291.71 0854.34
2009/04/23 16:52:54.3     164     26     34    167    171  80.8  11.6  34292  291.83 0854.34
2009/04/23 16:52:54.4     258     22     46    260    265  85.0  10.0  34312  292.16 0854.34
2009/04/23 16:52:54.5     247     82     41    261    265  71.6   9.0  34318  292.26 0854.34
2009/04/23 16:52:54.6     297    107     12    316    317  70.1   2.2  34294  291.84 0854.34
2009/04/23 16:52:54.7     353    -87    -85    364    374 103.9 -13.3  34170  289.74 0854.34
2009/04/23 16:52:54.8     323     -4   -167    324    364  90.8 -33.7  34150  289.40 0854.34
2009/04/23 16:52:54.9     284     39    -84    287    300  82.0 -16.4  34162  289.59 0854.34
2009/04/23 16:52:55.0     355    -21     69    356    363  93.4  11.0  34180  289.91 0854.34
2009/04/23 16:52:55.1     283    -80    119    295    318 105.9  23.2  34200  290.26 0854.34
2009/04/23 16:52:55.2     201      9    174    202    266  87.2  45.1  34200  290.26 0854.34
2009/04/23 16:52:55.3     262     28     98    264    281  83.8  21.0  34200  290.26 0854.34
2009/04/23 16:52:55.4     316    144     -6    348    349  65.5  -1.1  34170  289.74 0854.34
2009/04/23 16:52:55.5     248    199     57    319    325  51.3  10.2  34140  289.22 0854.34
2009/04/23 16:52:55.6     229    166     76    284    295  54.0  15.0  34154  289.47 0854.34
2009/04/23 16:52:55.7     219    161     87    273    287  53.6  17.7  34134  289.14 0854.34
2009/04/23 16:52:55.9     207    220    104    303    321  43.2  18.9  34132  289.09 0854.34
2009/04/23 16:52:55.9     231    147     74    275    285  57.5  15.2  34260  291.26 0854.34
2009/04/23 16:52:56.0     210     66     74    221    234  72.5  18.6  34298  291.93 0854.34
2009/04/23 16:52:56.1     149     90     98    175    200  58.7  31.6  34290  291.79 0854.34
2009/04/23 16:52:56.2     142     76     82    162    181  61.8  28.7  34270  291.43 0854.34
2009/04/23 16:52:56.3     140     81    106    162    193  59.8  35.7  34140  289.24 0854.34
2009/04/23 16:52:56.4     153     73     95    170    194  64.5  31.6  34126  288.99 0854.34
2009/04/23 16:52:56.5     153     31    103    157    187  78.6  36.3  34130  289.08 0854.34
2009/04/23 16:52:56.6     149     30     95    152    179  78.5  35.2  34134  289.14 0854.34
2009/04/23 16:52:56.7     180     25    110    182    212  81.9  34.2  34130  289.08 0854.34
2009/04/23 16:52:56.8     165     39    141    170    220  76.5  43.8  34160  289.58 0854.34
2009/04/23 16:52:56.9     143     30    206    147    253  78.1  61.3  34214  290.48 0854.34
2009/04/23 16:52:57.0     166     31    202    170    264  79.2  56.1  34184  289.97 0854.34
2009/04/23 16:52:57.1     181     41    203    186    275  77.0  53.0  34160  289.58 0854.34
2009/04/23 16:52:57.2     215    101    232    238    332  64.8  49.3  34178  289.86 0854.34
2009/04/23 16:52:57.3     249    127    214    280    352  63.0  41.4  34172  289.76 0854.34
2009/04/23 16:52:57.4     215    210    200    301    361  45.6  36.7  34218  290.57 0854.34
2009/04/23 16:52:57.5     184    162    222    246    331  48.6  46.9  34256  291.19 0854.34
2009/04/23 16:52:57.6     197    249    187    318    368  38.3  33.4  34238  290.88 0854.34
2009/04/23 16:52:57.7     204    153    159    255    300  53.1  35.5  34262  291.29 0854.34
2009/04/23 16:52:57.8     145    137    151    200    250  46.7  40.9  34246  291.04 0854.34
2009/04/23 16:52:57.9     112     93     97    146    175  50.4  36.5  34294  291.86 0854.34
2009/04/23 16:52:58.0      42    118    131    126    181  20.0  51.2  34306  292.06 0854.34
2009/04/23 16:52:58.1      84    153    106    175    204  29.0  34.2  34298  291.91 0854.34
2009/04/23 16:52:58.2      47    173     83    180    198  15.4  26.4  34250  291.11 0854.34
2009/04/23 16:52:58.3      65    146     -6    160    161  24.1  -2.2  34188  290.06 0854.34
2009/04/23 16:52:58.4      98    138     55    170    179  35.2  17.9  34204  290.33 0854.34
2009/04/23 16:52:58.5      64     61    113     89    143  46.0  57.9  34230  290.75 0854.34
2009/04/23 16:52:58.6     130    126    142    182    230  45.8  42.0  34232  290.79 0854.34
2009/04/23 16:52:58.7     258    161     68    305    313  58.0  12.6  34232  290.78 0854.34
2009/04/23 16:52:58.8     328    175     89    372    383  61.9  13.5  34274  291.52 0854.34
2009/04/23 16:52:58.9     269    203    119    338    358  52.9  20.2  34228  290.74 0854.34
2009/04/23 16:52:59.0     325    127    137    350    375  68.6  22.7  34248  291.08 0854.34
2009/04/23 16:52:59.1     279     75    193    290    348  74.9  36.7  34308  292.07 0854.34
2009/04/23 16:52:59.2     264     81     81    277    289  72.9  16.3  34208  290.37 0854.34
2009/04/23 16:52:59.3     261    115     58    286    293  66.3  11.6  34168  289.70 0854.34
2009/04/23 16:52:59.4     230     71     72    241    252  72.7  16.8  34196  290.19 0854.34
2009/04/23 16:52:59.5     186    175    101    256    275  46.9  22.8  34164  289.63 0854.34
2009/04/23 16:52:59.6     170    140    134    221    258  50.7  34.2  34188  290.05 0854.34
2009/04/23 16:52:59.7     159    127    143    204    249  51.4  38.5  34168  289.70 0854.34
2009/04/23 16:52:59.8     170     91    113    194    224  61.8  33.1  34148  289.38 0854.34
2009/04/23 16:52:59.9     184     82    155    202    254  65.8  41.4  34148  289.36 0854.34
2009/04/23 16:53:00.0     160     12    105    161    192  85.6  35.7  34150  289.41 0854.34
2009/04/23 16:53:00.1     112    112     30    159    162  45.1  10.8  34130  289.08 0854.34
2009/04/23 16:53:00.2     169     90     -7    192    193  61.8  -2.2  34150  289.40 0854.34
2009/04/23 16:53:00.3     184    101     25    211    213  61.1   6.9  34236  290.86 0854.34
2009/04/23 16:53:00.4     193     78    105    209    233  67.8  28.7  34232  290.79 0854.34
2009/04/23 16:53:00.5      91     54    121    107    161  59.3  53.7  34226  290.69 0854.34
2009/04/23 16:53:00.6      38     51     82     64    104  37.0  57.9  34236  290.86 0854.34
2009/04/23 16:53:00.7       4     56     96     57    111   4.5  66.8  34208  290.38 0854.34
2009/04/23 16:53:00.8      -2     90     88     91    126 358.6  49.4  34206  290.35 0854.34
2009/04/23 16:53:00.9     -11     26    124     29    127 336.4  86.9  34210  290.43 0854.34
2009/04/23 16:53:01.0     -33     13    110     36    115 291.7  80.7  34214  290.48 0854.33
2009/04/23 16:53:01.1     -39     31     80     51     94 308.6  64.7  34188  290.06 0854.33
2009/04/23 16:53:01.2     -26     75     91     80    121 340.8  54.3  34194  290.14 0854.33
2009/04/23 16:53:01.3      -5     47     92     48    103 353.8  69.8  34232  290.79 0854.33
2009/04/23 16:53:01.5       0      2     72      3     72  18.5  90.0  34236  290.86 0854.33
2009/04/23 16:53:01.6     -13   -128    119    129    175 185.8  47.9  34198  290.23 0854.33
2009/04/23 16:53:01.7      84    -96     82    128    152 139.0  35.6  34202  290.30 0854.33
2009/04/23 16:53:01.8      66    -99     36    120    126 146.2  16.8  34200  290.25 0854.33
2009/04/23 16:53:01.9      66    -74      8    100    101 138.6   4.9  34198  290.23 0854.33
2009/04/23 16:53:02.0      66   -120     14    138    139 151.0   5.9  34200  290.25 0854.33
2009/04/23 16:53:02.1       8    -98    -12     99    100 175.1  -7.3  34204  290.31 0854.33
2009/04/23 16:53:02.2      21    -54    -14     59     61 158.2 -13.4  34206  290.35 0854.33
2009/04/23 16:53:02.3      18    -49    -16     53     56 160.0 -16.6  34206  290.35 0854.33
2009/04/23 16:53:02.4       4    -64     -8     65     66 175.6  -7.3  34204  290.31 0854.33
2009/04/23 16:53:02.5     -12    -62    -17     64     67 191.6 -15.5  34198  290.21 0854.33
2009/04/23 16:53:02.6     -63    -76     -9     99    100 219.6  -5.6  34198  290.23 0854.33
2009/04/23 16:53:02.7     -58    -75    -29     96    101 217.8 -17.0  34198  290.21 0854.33
2009/04/23 16:53:02.8     -67    -53    -99     86    131 231.4 -58.7  34196  290.18 0854.33
2009/04/23 16:53:02.9     -60   -101    -23    118    121 210.7 -11.3  34188  290.06 0854.33
2009/04/23 16:53:03.0     -71    -64    -79     96    124 227.8 -48.1  34200  290.25 0854.33
2009/04/23 16:53:03.1     -20    -21    -97     30    101 223.2 -86.7  34208  290.38 0854.33
2009/04/23 16:53:03.2      16    -60    -93     63    112 164.9 -67.0  34204  290.33 0854.33
2009/04/23 16:53:03.3      29    -64    -87     71    112 155.5 -60.8  34206  290.35 0854.33
2009/04/23 16:53:03.4      -7      7    -90     11     90 315.0 -90.0  34220  290.60 0854.33
2009/04/23 16:53:03.5     -22     13    -90     26     93 300.7 -87.2  34220  290.58 0854.33
2009/04/23 16:53:03.6      20      8    -70     22     73  68.3 -85.1  34224  290.65 0854.33
2009/04/23 16:53:03.7     -80     -6    -95     81    124 265.6 -59.2  34220  290.58 0854.33
2009/04/23 16:53:03.8     -86    -29    -52     91    104 250.9 -36.8  34222  290.64 0854.33
2009/04/23 16:53:03.9      -6    -17    -47     19     50 198.7 -81.5  34222  290.62 0854.33
2009/04/23 16:53:04.0       2     -3    -44      4     44 147.5 -90.0  34222  290.64 0854.33
2009/04/23 16:53:04.1      -1    -12    -32     13     34 186.2 -83.6  34220  290.60 0854.33
2009/04/23 16:53:04.2      -1     -4     -8      5      9 191.6 -69.1  34212  290.47 0854.33
2009/04/23 16:53:04.3      27     47    -33     55     64  29.9 -39.9  34214  290.50 0854.33
2009/04/23 16:53:04.4      40     36    -57     54     78  47.8 -56.0  34216  290.53 0854.33
2009/04/23 16:53:04.5      16     10    -57     19     60  57.6 -85.4  34228  290.74 0854.33
2009/04/23 16:53:04.6      22      7    -51     24     56  71.4 -77.5  34234  290.84 0854.33
2009/04/23 16:53:04.7      19      3    -40     20     44  78.5 -75.2  34230  290.75 0854.33
2009/04/23 16:53:04.8      19      2    -40     20     44  83.9 -75.2  34224  290.65 0854.33
2009/04/23 16:53:04.9      10      7    -34     13     36  54.0 -85.6  34226  290.69 0854.33
2009/04/23 16:53:05.0       7      6    -38     10     39  50.5 -89.3  34228  290.72 0854.33
2009/04/23 16:53:05.1      14     10    -31     18     35  54.0 -69.1  34232  290.81 0854.33
2009/04/23 16:53:05.2      10     10    -29     15     32  45.0 -75.2  34234  290.82 0854.33
2009/04/23 16:53:05.3      32    -23    -17     40     43 126.0 -27.4  34232  290.79 0854.33
2009/04/23 16:53:05.4      55     -8    -15     56     59  98.8 -15.5  34218  290.57 0854.33
2009/04/23 16:53:05.5      55    -35     -1     66     67 122.4  -1.3  34208  290.40 0854.33
2009/04/23 16:53:05.6      75    -80     -6    110    111 136.8  -3.1  34202  290.28 0854.33
2009/04/23 16:53:05.7      60    -79    -27    100    104 143.0 -15.4  34202  290.30 0854.33
2009/04/23 16:53:05.8      36   -104     13    111    112 160.8   7.1  34198  290.21 0854.33
2009/04/23 16:53:05.9     119   -116     74    167    182 134.4  25.3  34170  289.75 0854.33
2009/04/23 16:53:06.0      82   -247    119    261    286 161.5  26.2  34152  289.42 0854.33
2009/04/23 16:53:06.1      97   -181    107    206    232 151.7  29.5  34148  289.38 0854.33
2009/04/23 16:53:06.2      92   -194    150    216    262 154.5  38.4  34178  289.86 0854.33
2009/04/23 16:53:06.3      84   -181    158    200    254 155.1  42.7  34168  289.70 0854.33
2009/04/23 16:53:06.4      31   -162    173    166    239 168.9  51.2  34176  289.84 0854.33
2009/04/23 16:53:06.5      95    -96     67    136    151 135.5  27.3  34176  289.84 0854.33
2009/04/23 16:53:06.6      33    -35     25     49     55 136.8  29.3  34178  289.87 0854.33
2009/04/23 16:53:06.7     -20    -77     31     80     85 195.1  22.0  34184  289.97 0854.33
2009/04/23 16:53:06.8       5    -75     24     76     80 175.6  17.9  34174  289.80 0854.33
2009/04/23 16:53:06.9      43    -75     12     87     88 150.1   8.0  34160  289.58 0854.33
2009/04/23 16:53:07.0     122    -62      7    138    139 117.0   3.3  34166  289.67 0854.33
2009/04/23 16:53:07.1     105    -67     34    125    130 122.5  15.3  34164  289.65 0854.33
2009/04/23 16:53:07.2     140    -42    -38    147    152 106.8 -14.5  34168  289.72 0854.33
2009/04/23 16:53:07.3     104    -51    -47    116    125 116.2 -27.4  34174  289.80 0854.33
2009/04/23 16:53:07.4      20    -73     25     76     81 164.0  18.4  34172  289.79 0854.33
2009/04/23 16:53:07.5     -38    -81     78     90    119 205.4  45.8  34166  289.69 0854.33
2009/04/23 16:53:07.6       7   -137    142    138    198 176.9  50.7  34176  289.85 0854.33
2009/04/23 16:53:07.7      22     13    117     26    119  59.3  88.0  34194  290.16 0854.33
2009/04/23 16:53:07.8      -8    -23    113     25    115 200.0  88.5  34184  289.97 0854.33
2009/04/23 16:53:07.9      75   -150    168    168    237 153.3  50.1  34176  289.85 0854.33
2009/04/23 16:53:08.0      95    -95    116    135    177 134.9  45.1  34176  289.84 0854.33
2009/04/23 16:53:08.1      24   -177     78    179    195 172.2  25.1  34166  289.69 0854.33
2009/04/23 16:53:08.2      54   -165    126    174    214 161.7  39.5  34172  289.79 0854.33
2009/04/23 16:53:08.3      74   -129     46    149    157 150.1  17.3  34174  289.82 0854.33
2009/04/23 16:53:08.4     100   -147     48    179    186 145.7  15.0  34170  289.75 0854.33
2009/04/23 16:53:08.5      94   -148     86    176    195 147.5  28.0  34176  289.85 0854.33
2009/04/23 16:53:08.6      19   -148     41    150    156 172.4  15.3  34170  289.75 0854.33
2009/04/23 16:53:08.7      50   -125     59    135    147 158.2  25.1  34174  289.80 0854.33
2009/04/23 16:53:08.8      26   -138     -4    141    142 169.3  -1.8  34164  289.65 0854.33
2009/04/23 16:53:08.9      64   -138     -6    153    154 155.1  -2.2  34164  289.65 0854.33
2009/04/23 16:53:09.0      96   -137    -15    168    169 145.0  -5.4  34168  289.70 0854.33
2009/04/23 16:53:09.1     117   -147    -42    189    194 141.5 -12.6  34170  289.75 0854.34
2009/04/23 16:53:09.2     156   -166    -62    228    237 136.8 -15.2  34170  289.73 0854.34
2009/04/23 16:53:09.3      82   -192     47    209    215 156.8  12.9  34158  289.55 0854.34
2009/04/23 16:53:09.4     174   -302     51    349    353 150.1   8.3  34142  289.26 0854.34
2009/04/23 16:53:09.5     127   -291     83    318    329 156.3  14.7  34138  289.19 0854.34
2009/04/23 16:53:09.6     134   -263     83    296    308 152.9  15.8  34140  289.24 0854.34
2009/04/23 16:53:09.7      88   -214     91    232    249 157.7  22.3  34138  289.20 0854.34
2009/04/23 16:53:09.8      41   -185     74    190    203 167.3  22.3  34142  289.26 0854.34
2009/04/23 16:53:09.9      10   -237     90    238    254 177.5  22.0  34148  289.36 0854.34
2009/04/23 16:53:10.0      28   -222     74    224    237 172.7  18.4  34154  289.46 0854.34
2009/04/23 16:53:10.1       5   -161     68    162    175 178.2  24.1  34150  289.40 0854.34
2009/04/23 16:53:10.2       1   -119    185    120    220 179.1  64.4  34164  289.65 0854.34
2009/04/23 16:53:10.3      11   -149    156    150    216 175.6  51.4  34164  289.63 0854.34
2009/04/23 16:53:10.4      15   -139    149    140    204 173.8  52.0  34162  289.62 0854.34
2009/04/23 16:53:10.5      19   -141    157    143    212 172.0  52.7  34166  289.69 0854.34
2009/04/23 16:53:10.6      32   -106    141    111    179 163.1  57.7  34170  289.74 0854.34
2009/04/23 16:53:10.7       7    -99    133    100    166 175.5  59.4  34172  289.77 0854.34
2009/04/23 16:53:10.8       6   -131    161    132    208 177.3  56.4  34172  289.77 0854.34
2009/04/23 16:53:10.9     -33   -136    181    141    229 193.8  58.2  34166  289.67 0854.34
2009/04/23 16:53:11.0       7    -92    148     93    174 175.1  64.7  34170  289.74 0854.34
2009/04/23 16:53:11.1      -6   -119    116    120    166 183.1  49.2  34174  289.82 0854.34
2009/04/23 16:53:11.2      21    -89    110     92    143 166.6  55.8  34192  290.11 0854.34
2009/04/23 16:53:11.3      11   -115    114    116    162 174.2  50.0  34190  290.08 0854.34
2009/04/23 16:53:11.4     -22     -3    121     23    123 260.3  89.6  34206  290.36 0854.34
2009/04/23 16:53:11.5     -56    -39    111     69    130 234.9  64.7  34192  290.13 0854.34
2009/04/23 16:53:11.6     -69    -23    103     73    126 251.4  61.1  34222  290.62 0854.34
2009/04/23 16:53:11.7      -7      2     87      8     87 288.6  90.0  34224  290.65 0854.34
2009/04/23 16:53:11.8     -21     -3     60     22     63 260.3  80.2  34214  290.50 0854.34
2009/04/23 16:53:11.9     -71    -39     60     82    101 241.1  39.7  34208  290.40 0854.34
2009/04/23 16:53:12.0     -55    -87    113    104    153 212.5  52.2  34208  290.40 0854.34
2009/04/23 16:53:12.1     -70   -117    134    137    191 210.8  49.4  34250  291.11 0854.34
2009/04/23 16:53:12.2     -94   -156    134    183    226 211.0  39.7  34320  292.29 0854.34
2009/04/23 16:53:12.3     -91    -96    167    133    213 223.2  57.5  34330  292.46 0854.34
2009/04/23 16:53:12.4     -76    -71    125    105    163 226.9  55.6  34308  292.10 0854.34
2009/04/23 16:53:12.5      15    -32     71     36     79 154.5  71.4  34222  290.64 0854.34
2009/04/23 16:53:12.6     -97    -62    132    116    175 237.1  54.3  34290  291.79 0854.34
2009/04/23 16:53:12.7    -158   -136    119    209    240 229.3  32.3  34312  292.17 0854.34
2009/04/23 16:53:12.8    -133   -167    111    214    241 218.5  29.3  34234  290.83 0854.34
2009/04/23 16:53:12.9    -220    -59    122    228    258 254.9  30.6  34340  292.62 0854.34
2009/04/23 16:53:13.0    -158     56    123    168    208 289.5  39.7  34326  292.40 0854.34
2009/04/23 16:53:13.1      61    -39    129     73    148 122.4  68.3  34238  290.89 0854.33
2009/04/23 16:53:13.2     127    -55    147    139    202 113.6  51.6  34214  290.48 0854.33
2009/04/23 16:53:13.3      38    -93    187    101    212 157.7  69.1  34186  290.02 0854.33
2009/04/23 16:53:13.4       2   -134    173    135    219 179.1  58.2  34182  289.94 0854.33
2009/04/23 16:53:13.5     -13   -145    183    146    234 185.3  57.1  34176  289.85 0854.33
2009/04/23 16:53:13.6      -4   -203    220    204    300 181.4  52.2  34164  289.63 0854.33
2009/04/23 16:53:13.7     -19   -195    228    197    301 185.8  54.8  34164  289.63 0854.33
2009/04/23 16:53:13.8     -24   -223    231    225    322 186.2  50.7  34166  289.66 0854.33
2009/04/23 16:53:13.9     -19   -254    288    255    384 184.4  54.2  34172  289.77 0854.33
2009/04/23 16:53:14.0     -85   -295    325    308    447 196.1  51.9  34166  289.68 0854.33
2009/04/23 16:53:14.1     -68   -190    314    202    373 199.8  64.6  34162  289.61 0854.33
2009/04/23 16:53:14.2     -14   -188    233    189    300 184.4  56.6  34166  289.68 0854.33
2009/04/23 16:53:14.3     -35   -179    164    183    245 191.1  46.4  34162  289.62 0854.33
2009/04/23 16:53:14.4      46    -72    131     86    156 147.5  64.6  34192  290.11 0854.33
2009/04/23 16:53:14.5      54     87    103    103    145  31.6  50.1  34206  290.36 0854.33
2009/04/23 16:53:14.6     -78    231    139    244    280 341.3  32.4  34238  290.90 0854.33
2009/04/23 16:53:14.7     -95    239    139    258    293 338.2  30.8  34248  291.05 0854.33
2009/04/23 16:53:14.8     -83    103    150    133    200 321.3  54.0  34224  290.67 0854.33
2009/04/23 16:53:14.9     -36     -8    131     38    136 256.7  83.3  34244  290.99 0854.33
2009/04/23 16:53:15.0      55    -35     80     66    103 122.4  56.3  34222  290.64 0854.33
2009/04/23 16:53:15.1     -24     96    130    100    164 345.7  58.7  34232  290.81 0854.34
2009/04/23 16:53:15.2     -22    305    178    306    354 355.8  32.9  34258  291.23 0854.34
2009/04/23 16:53:15.3     -65    348    190    354    401 349.4  30.5  34262  291.30 0854.34
2009/04/23 16:53:15.4     -70    293    203    302    363 346.4  37.2  34218  290.57 0854.34
2009/04/23 16:53:15.5    -161    202    222    259    341 321.5  45.1  34236  290.87 0854.34
2009/04/23 16:53:15.6    -101    231    140    253    289 336.3  31.4  34240  290.92 0854.34
2009/04/23 16:53:15.7      20    245     45    246    251   4.7  10.3  34246  291.02 0854.34
2009/04/23 16:53:15.8     -81    260    188    273    331 342.6  37.8  34318  292.24 0854.34
2009/04/23 16:53:15.9    -134    212    202    251    322 327.7  43.0  34350  292.79 0854.34
2009/04/23 16:53:16.0    -211    254    181    331    377 320.4  31.3  34346  292.73 0854.34
2009/04/23 16:53:16.1    -210    219    171    304    348 316.3  31.7  34352  292.83 0854.34
2009/04/23 16:53:16.2    -191    138    203    236    311 306.0  45.1  34340  292.62 0854.34
2009/04/23 16:53:16.3     142     19    144    144    203  82.1  50.1  34296  291.89 0854.34
2009/04/23 16:53:16.4     149     35    202    154    254  76.7  59.0  34272  291.49 0854.34
2009/04/23 16:53:16.5      76      5    103     77    128  85.6  59.4  34286  291.71 0854.34
2009/04/23 16:53:16.6      10     77     83     78    113   8.1  51.6  34308  292.10 0854.34
2009/04/23 16:53:16.7      30     90    122     96    155  18.7  57.5  34328  292.44 0854.34
2009/04/23 16:53:16.8      -1    117    111    118    162 359.5  48.2  34322  292.32 0854.34
2009/04/23 16:53:16.9      29    225    112    227    253   7.6  28.2  34272  291.46 0854.34
2009/04/23 16:53:17.0       2    130     46    131    138   0.9  20.0  34274  291.50 0854.34
2009/04/23 16:53:17.1      32     99     67    105    124  18.3  35.6  34302  291.98 0854.34
2009/04/23 16:53:17.2     -40    114     14    122    123 340.4   6.9  34320  292.30 0854.34
2009/04/23 16:53:17.3       0     -6    -25      7     25 175.5 -87.2  34328  292.42 0854.34
2009/04/23 16:53:17.4      83    -24     60     87    105 106.4  37.6  34306  292.06 0854.34
2009/04/23 16:53:17.5     137    -19     92    139    166  97.9  36.5  34308  292.08 0854.34
2009/04/23 16:53:17.6      61    -44    109     76    132 126.0  62.1  34314  292.18 0854.34
2009/04/23 16:53:17.7     143     24     93    146    173  80.3  35.5  34308  292.08 0854.34
2009/04/23 16:53:17.8     108     13     64    109    126  83.0  33.5  34314  292.20 0854.34
2009/04/23 16:53:17.9       0      7     32      8     33   4.5  84.9  34308  292.08 0854.34
2009/04/23 16:53:18.0     -24     60    -24     65     69 338.2 -24.4  34312  292.15 0854.34
2009/04/23 16:53:18.1      55     15     20     58     62  74.9  18.9  34316  292.22 0854.35
2009/04/23 16:53:18.2     159     94    198    185    270  59.3  52.2  34342  292.67 0854.35
2009/04/23 16:53:18.3      91     75    157    118    196  50.5  59.2  34338  292.61 0854.35
2009/04/23 16:53:18.4       5    115    182    116    215   2.7  64.6  34332  292.49 0854.35
2009/04/23 16:53:18.5      79    144    171    165    237  28.7  51.2  34290  291.79 0854.35
2009/04/23 16:53:18.6      26    193    162    195    253   7.8  43.8  34388  293.45 0854.35
2009/04/23 16:53:18.7      75    240    156    252    296  17.4  34.8  34368  293.10 0854.35
2009/04/23 16:53:18.8      67    266    117    275    298  14.3  24.6  34286  291.70 0854.35
2009/04/23 16:53:18.9      91    209    128    229    262  23.6  31.6  34238  290.90 0854.35
2009/04/23 16:53:19.0      94    310    130    325    350  17.0  23.0  34352  292.85 0854.35
2009/04/23 16:53:19.1      56    312    115    318    338  10.2  20.7  34366  293.06 0854.35
2009/04/23 16:53:19.2      52    326    124    331    353   9.1  21.5  34274  291.51 0854.35
2009/04/23 16:53:19.3      26    357     61    358    364   4.3   9.7  34224  290.66 0854.35
2009/04/23 16:53:19.4      34    316     26    318    320   6.2   4.7  34210  290.41 0854.35
2009/04/23 16:53:19.5      45    299     15    303    304   8.7   2.9  34236  290.85 0854.35
2009/04/23 16:53:19.6      12    276     15    277    278   2.6   3.1  34324  292.36 0854.35
2009/04/23 16:53:19.7       8    228     63    229    238   2.2  15.6  34378  293.27 0854.35
2009/04/23 16:53:19.8       5    212     75    213    225   1.6  20.0  34360  292.97 0854.35
2009/04/23 16:53:19.9      -3    241     95    242    259 359.1  22.5  34278  291.56 0854.35
2009/04/23 16:53:20.0      56    207     37    215    219  15.2   9.9  34226  290.69 0854.35
2009/04/23 16:53:20.1      34    169    -35    173    177  11.6 -11.6  34216  290.53 0854.34
2009/04/23 16:53:20.2      69    157    -46    172    179  23.8 -15.2  34226  290.70 0854.34
2009/04/23 16:53:20.3      57    162    -46    172    179  19.6 -15.2  34216  290.53 0854.34
2009/04/23 16:53:20.4      62    160    -52    172    179  21.2 -22.1  34212  290.47 0854.34
2009/04/23 16:53:20.5      38    159    -43    164    170  13.6 -14.7  34200  290.26 0854.34
2009/04/23 16:53:20.6      40    127    -37    134    140  17.4 -15.5  34200  290.25 0854.34
2009/04/23 16:53:20.7      98     98    -33    139    143  45.0 -13.4  34198  290.23 0854.34
2009/04/23 16:53:20.8     114     88    -40    145    151  52.2 -15.5  34200  290.26 0854.34
2009/04/23 16:53:20.9      86    112    -28    142    145  37.8 -11.5  34198  290.21 0854.34
2009/04/23 16:53:21.0      65     79    -28    103    107  39.6 -15.4  34194  290.14 0854.34
2009/04/23 16:53:21.1     100    100   -100    142    173  44.9 -43.0  34180  289.92 0854.34
2009/04/23 16:53:21.2     108    135    -81    174    191  38.7 -31.4  34186  290.01 0854.34
2009/04/23 16:53:21.3      78    139    -57    160    169  29.4 -24.4  34186  290.01 0854.34
2009/04/23 16:53:21.4     117     95    -54    152    162  50.9 -19.7  34198  290.23 0854.34
2009/04/23 16:53:21.5     102    136    -83    171    190  37.0 -31.8  34220  290.60 0854.34
2009/04/23 16:53:21.6     131    110    -64    172    183  49.8 -25.7  34198  290.23 0854.34
2009/04/23 16:53:21.7     138     79    -44    160    167  60.2 -15.5  34210  290.41 0854.34
2009/04/23 16:53:21.8     116     89    -44    147    154  52.7 -17.0  34208  290.40 0854.34
2009/04/23 16:53:21.9     128     75    -28    149    152  59.8 -10.9  34204  290.33 0854.34
2009/04/23 16:53:22.0     155    111    -51    191    198  54.3 -15.0  34178  289.87 0854.34
2009/04/23 16:53:22.1     115    106    -47    157    165  47.1 -16.8  34188  290.06 0854.34
2009/04/23 16:53:22.2      23     97    -65    100    119  13.8 -40.4  34204  290.31 0854.34
2009/04/23 16:53:22.3      83     53    -11     99    100  57.5  -6.7  34204  290.31 0854.34
2009/04/23 16:53:22.4      66     22    -58     70     90  70.9 -48.2  34210  290.43 0854.34
2009/04/23 16:53:22.5      45     18    -32     49     58  68.3 -40.0  34222  290.64 0854.34
2009/04/23 16:53:22.6      54     18    -20     58     62  71.4 -19.7  34212  290.47 0854.34
2009/04/23 16:53:22.7      90      6    -56     91    106  86.1 -39.4  34266  291.37 0854.34
2009/04/23 16:53:22.8     203      3     82    204    219  89.1  23.1  34362  293.02 0854.34
2009/04/23 16:53:22.9     220     16     81    221    235  85.7  21.0  34340  292.63 0854.34
2009/04/23 16:53:23.0     209    -41     47    214    220 101.2  12.4  34308  292.08 0854.34
2009/04/23 16:53:23.1     170    -11     33    171    175  93.7  11.1  34336  292.58 0854.34
2009/04/23 16:53:23.2     229    -10     31    230    233  92.5   7.8  34336  292.56 0854.34
2009/04/23 16:53:23.3     265    -12     72    266    276  92.8  15.3  34294  291.84 0854.34
2009/04/23 16:53:23.4     205      0      8    206    207  90.0   2.3  34286  291.71 0854.34
2009/04/23 16:53:23.5     121      3     42    122    130  88.3  18.9  34286  291.71 0854.34
2009/04/23 16:53:23.6     187    112      3    218    219  59.1   1.0  34300  291.96 0854.34
2009/04/23 16:53:23.7     181     60     66    191    203  71.4  19.2  34396  293.60 0854.34
2009/04/23 16:53:23.8     167     38    125    172    212  77.0  39.5  34426  294.11 0854.34
2009/04/23 16:53:23.9     167     57     97    177    201  70.9  31.4  34424  294.08 0854.34
2009/04/23 16:53:24.0     107     44     87    116    145  67.4  40.1  34416  293.92 0854.34
2009/04/23 16:53:24.1     151     63    108    164    196  67.4  36.5  34364  293.05 0854.32
2009/04/23 16:53:24.2     101    152    -41    183    188  33.6 -12.9  34350  292.80 0854.32
2009/04/23 16:53:24.3      58     96    100    113    150  31.2  45.9  34356  292.90 0854.32
2009/04/23 16:53:24.4      77     49    138     92    165  57.1  63.4  34412  293.87 0854.32
2009/04/23 16:53:24.5      92     59    122    110    164  57.5  53.3  34416  293.92 0854.32
2009/04/23 16:53:24.6      67     22    112     71    132  71.4  64.7  34404  293.74 0854.32
2009/04/23 16:53:24.7      87     48    146    100    176  61.1  62.4  34402  293.70 0854.32
2009/04/23 16:53:24.8      72     76     85    105    135  43.3  43.7  34406  293.75 0854.32
2009/04/23 16:53:24.9      40     19     15     45     48  63.8  18.9  34400  293.67 0854.32
2009/04/23 16:53:25.0     119      1     56    120    132  89.2  27.1  34404  293.72 0854.32
2009/04/23 16:53:25.1     199     32    119    202    234  80.8  33.4  34400  293.65 0854.32
2009/04/23 16:53:25.2     204     22    113    206    234  83.6  31.0  34410  293.84 0854.32
2009/04/23 16:53:25.3     220     37     87    224    240  80.4  22.1  34372  293.18 0854.32
2009/04/23 16:53:25.4     190    102     67    216    227  61.8  17.4  34270  291.45 0854.32
2009/04/23 16:53:25.5     173     95     42    198    203  61.1  12.0  34240  290.94 0854.32
2009/04/23 16:53:25.6     148     92     56    175    184  58.2  17.9  34240  290.94 0854.32
2009/04/23 16:53:25.7     166    124     78    208    222  53.1  21.5  34224  290.65 0854.32
2009/04/23 16:53:25.8     128    130     86    183    202  44.7  27.0  34224  290.67 0854.32
2009/04/23 16:53:25.9     117    130     57    176    186  41.9  18.1  34238  290.91 0854.32
2009/04/23 16:53:26.0     193     24     90    195    214  82.8  26.6  34344  292.71 0854.32
2009/04/23 16:53:26.1     166      8     47    167    174  87.2  15.8  34288  291.74 0854.31
2009/04/23 16:53:26.2     130     42     -7    137    138  71.8  -3.2  34252  291.15 0854.31
2009/04/23 16:53:26.3     167     39     28    172    175  76.7   9.5  34266  291.38 0854.31
2009/04/23 16:53:26.4     189     14      7    190    191  85.7   2.1  34282  291.66 0854.31
2009/04/23 16:53:26.5     219     -8     21    220    222  92.1   5.7  34296  291.89 0854.31
2009/04/23 16:53:26.6     262     88     22    277    278  71.4   4.6  34268  291.39 0854.31
2009/04/23 16:53:26.7     231     88     98    248    266  69.2  23.0  34292  291.80 0854.31
2009/04/23 16:53:26.8     188     66    115    200    230  70.5  32.4  34298  291.93 0854.31
2009/04/23 16:53:26.9     144     20    142    146    203  82.0  49.8  34298  291.91 0854.31
2009/04/23 16:53:27.0     229     10    101    230    251  87.5  25.2  34298  291.90 0854.31
2009/04/23 16:53:27.1      77     15    148     79    167  78.5  69.8  34334  292.52 0854.31
2009/04/23 16:53:27.2     149     50     81    158    177  71.4  29.1  34274  291.50 0854.31
2009/04/23 16:53:27.3     172     44     36    178    182  75.4  11.4  34268  291.40 0854.31
2009/04/23 16:53:27.4     163     31    -39    167    172  79.0 -13.2  34260  291.26 0854.31
2009/04/23 16:53:27.5     159     71    -65    175    186  65.8 -25.9  34252  291.13 0854.31
2009/04/23 16:53:27.6     270     81     24    283    285  73.2   5.0  34340  292.62 0854.31
2009/04/23 16:53:27.7     201     16     17    202    203  85.2   4.9  34344  292.71 0854.31
2009/04/23 16:53:27.8     214     14     -9    215    216  86.1  -2.6  34338  292.59 0854.31
2009/04/23 16:53:27.9     158      2     67    159    172  89.1  24.1  34336  292.56 0854.31
2009/04/23 16:53:28.0     132     22    -20    134    136  80.4  -8.8  34304  292.03 0854.31
2009/04/23 16:53:28.1      96     26     -5    100    101  74.9  -3.1  34284  291.67 0854.29
2009/04/23 16:53:28.2     119     40     68    126    143  71.4  31.3  34268  291.42 0854.29
2009/04/23 16:53:28.3      86    104    105    136    171  39.7  41.7  34282  291.66 0854.29
2009/04/23 16:53:28.4      45    103    125    113    168  23.6  53.3  34294  291.86 0854.29
2009/04/23 16:53:28.5      23    166    105    168    198   8.1  35.0  34288  291.76 0854.29
2009/04/23 16:53:28.6     -49    167     96    175    199 343.7  31.3  34318  292.27 0854.29
2009/04/23 16:53:28.7     -25    271    -24    273    275 354.7  -5.2  34270  291.43 0854.29
2009/04/23 16:53:28.8     -69    291    -35    300    303 346.6  -6.7  34222  290.63 0854.29
2009/04/23 16:53:29.0    -119    215    -35    247    250 331.0  -8.2  34226  290.70 0854.29
2009/04/23 16:53:29.1     -80    126    123    150    193 327.5  43.7  34272  291.49 0854.29
2009/04/23 16:53:29.2      -9    117    191    118    224 355.6  65.1  34314  292.20 0854.29
2009/04/23 16:53:29.3     124     90    174    154    232  54.0  54.0  34298  291.91 0854.29
2009/04/23 16:53:29.4     137    123    157    185    242  48.0  44.8  34338  292.61 0854.29
2009/04/23 16:53:29.5     266    175    102    319    336  56.7  17.8  34312  292.14 0854.29
2009/04/23 16:53:29.6     258    267     44    372    375  43.9   6.9  34274  291.52 0854.29
2009/04/23 16:53:29.7     261    344     60    433    438  37.2   8.0  34284  291.69 0854.29
2009/04/23 16:53:29.8      82    404     81    413    421  11.6  11.1  34298  291.91 0854.29
2009/04/23 16:53:29.9      63    442     79    447    455   8.2  10.0  34228  290.73 0854.29
2009/04/23 16:53:30.0      56    404    160    409    439   8.0  22.4  34250  291.09 0854.29
2009/04/23 16:53:30.1      85    394    120    404    422  12.3  16.5  34288  291.74 0854.29
2009/04/23 16:53:30.2      50    391     69    395    402   7.4   9.9  34268  291.40 0854.26
2009/04/23 16:53:30.3      82    463    125    471    488  10.1  14.9  34188  290.05 0854.26
2009/04/23 16:53:30.4     171    448    178    480    511  21.0  21.3  34360  292.97 0854.26
2009/04/23 16:53:30.5     237    289    169    374    410  39.3  26.0  34376  293.24 0854.26
2009/04/23 16:53:30.6     113    385     73    402    409  16.4  10.3  34356  292.89 0854.26
2009/04/23 16:53:30.7      44    344     54    347    352   7.4   8.9  34228  290.72 0854.26
2009/04/23 16:53:30.8     236    234     86    333    344  45.3  14.5  34316  292.22 0854.26
2009/04/23 16:53:30.9      31    422    232    424    483   4.2  31.0  34144  289.29 0854.26
2009/04/23 16:53:31.0     -37    492     64    494    499 355.7   7.5  34222  290.64 0854.26
2009/04/23 16:53:31.1     237    309     75    390    398  37.5  11.0  34214  290.50 0854.26
2009/04/23 16:53:31.2     216    373     70    432    438  30.1   9.2  34236  290.87 0854.26
2009/04/23 16:53:31.3      91    341    -44    354    357  15.0  -7.2  34244  291.01 0854.26
2009/04/23 16:53:31.4     218    560    -13    601    602  21.3  -1.3  34248  291.05 0854.26
2009/04/23 16:53:31.5     182    552     -9    582    583  18.3  -0.9  34200  290.24 0854.26
2009/04/23 16:53:31.6     179    640     38    665    667  15.7   3.3  34216  290.51 0854.26
2009/04/23 16:53:31.7     456    551    205    716    745  39.6  16.0  34240  290.94 0854.26
2009/04/23 16:53:31.8     335    699     81    776    781  25.6   6.0  34150  289.39 0854.26
2009/04/23 16:53:31.9     247    662    -66    707    711  20.5  -5.4  34156  289.49 0854.26
2009/04/23 16:53:32.0     134    541   -125    558    572  13.9 -12.7  34156  289.50 0854.26
2009/04/23 16:53:32.1     243    473    -10    532    533  27.2  -1.2  34138  289.19 0854.26
2009/04/23 16:53:32.2     185    463    -27    499    500  21.8  -3.2  34140  289.23 0854.25
2009/04/23 16:53:32.3     118    392    -60    410    415  16.8  -8.4  34148  289.38 0854.25
2009/04/23 16:53:32.4     109    273    -37    295    298  21.8  -7.3  34130  289.07 0854.25
2009/04/23 16:53:32.5      86    301    -14    314    315  16.0  -2.6  34140  289.22 0854.25
2009/04/23 16:53:32.6      70    288      2    297    298  13.8   0.5  34146  289.32 0854.25
2009/04/23 16:53:32.7      93    307     15    322    323  16.9   2.8  34120  288.88 0854.25
2009/04/23 16:53:32.8      79    503     46    510    513   9.0   5.2  34080  288.22 0854.25
2009/04/23 16:53:32.9     128    538     31    554    555  13.4   3.3  34078  288.19 0854.25
2009/04/23 16:53:33.0     151    458     53    483    487  18.3   6.4  34078  288.17 0854.25
2009/04/23 16:53:33.1     131    460     80    479    486  15.9   9.5  34066  287.98 0854.25
2009/04/23 16:53:33.2      33    476    -27    478    479   4.0  -3.3  34078  288.20 0854.25
2009/04/23 16:53:33.3      37    450    -35    452    454   4.8  -4.5  34078  288.19 0854.25
2009/04/23 16:53:33.4      -4    357    -56    358    363 359.3  -9.0  34082  288.25 0854.25
2009/04/23 16:53:33.5     -22    343     -6    344    345 356.2  -1.1  34076  288.15 0854.25
2009/04/23 16:53:33.6      20    369     19    370    371   3.1   3.0  34088  288.35 0854.25
2009/04/23 16:53:33.7      31    372     43    374    377   4.9   6.6  34090  288.37 0854.25
2009/04/23 16:53:33.8      38    376     37    378    380   5.9   5.7  34084  288.28 0854.25
2009/04/23 16:53:33.9       4    386     19    387    388   0.7   2.9  34070  288.06 0854.25
2009/04/23 16:53:34.0      25    375     81    376    385   3.9  12.3  34066  287.98 0854.25
2009/04/23 16:53:34.1     -25    338     52    339    343 355.8   8.8  34074  288.11 0854.25
2009/04/23 16:53:34.2      -4    304     14    305    306 359.1   2.8  34104  288.61 0854.27
2009/04/23 16:53:34.3     160    132     76    208    221  50.5  21.0  34182  289.94 0854.27
2009/04/23 16:53:34.4     283    197    119    345    366  55.2  19.1  34192  290.13 0854.27
2009/04/23 16:53:34.5     316    269    127    416    436  49.6  17.0  34182  289.95 0854.27
2009/04/23 16:53:34.6      90    414    148    424    449  12.4  20.0  34196  290.19 0854.27
2009/04/23 16:53:34.7      69    391    230    398    459  10.1  32.6  34182  289.94 0854.27
2009/04/23 16:53:34.8       6    397    230    398    459   1.0  32.6  34214  290.50 0854.27
2009/04/23 16:53:34.9     -10    401    175    402    438 358.5  25.1  34250  291.09 0854.27
2009/04/23 16:53:35.0     -85    373     38    383    386 347.1   5.8  34274  291.51 0854.27
2009/04/23 16:53:35.1     -36    378     -8    380    381 354.4  -1.3  34304  292.03 0854.27
2009/04/23 16:53:35.2      27    492    -33    493    495   3.2  -3.9  34290  291.78 0854.27
2009/04/23 16:53:35.3       7    395    -43    396    399   1.1  -6.2  34282  291.66 0854.27
2009/04/23 16:53:35.4    -166    387    -95    422    433 336.8 -12.7  34108  288.68 0854.27
2009/04/23 16:53:35.5    -317    356   -156    478    503 318.3 -18.1  34072  288.08 0854.27
2009/04/23 16:53:35.6    -292    324   -161    437    465 318.0 -25.4  34068  288.02 0854.27
2009/04/23 16:53:35.7    -270    200   -221    337    403 306.5 -40.8  34064  287.96 0854.27
2009/04/23 16:53:35.8     -46    204   -158    210    262 347.3 -45.1  34068  288.02 0854.27
2009/04/23 16:53:35.9     159     87   -121    182    218  61.4 -41.1  34102  288.58 0854.27
2009/04/23 16:53:36.0     225     35   -131    228    262  81.0 -36.8  34144  289.29 0854.27
2009/04/23 16:53:36.1     193     59   -197    202    282  72.9 -53.8  34106  288.66 0854.27
2009/04/23 16:53:36.2     264    211   -209    339    398  51.4 -39.0  34074  288.13 0854.28
2009/04/23 16:53:36.3     328    317   -274    457    532  46.0 -38.1  34058  287.85 0854.28
2009/04/23 16:53:36.4     519    260    -31    581    582  63.4  -3.1  34222  290.64 0854.28
2009/04/23 16:53:36.5     596    237    -18    642    643  68.3  -1.6  34248  291.06 0854.28
2009/04/23 16:53:36.6     524    229    -25    573    574  66.4  -2.5  34146  289.34 0854.28
2009/04/23 16:53:36.7     514    236    -11    566    567  65.3  -1.2  34220  290.58 0854.28
2009/04/23 16:53:36.8     570    239     56    619    622  67.3   5.2  34114  288.79 0854.28
2009/04/23 16:53:36.9     544    268     84    607    613  63.8   7.9  34168  289.71 0854.28
2009/04/23 16:53:37.0     535    316     47    622    624  59.4   4.4  34110  288.74 0854.28
2009/04/23 16:53:37.1     506    321     57    600    603  57.6   5.5  34144  289.29 0854.28
2009/04/23 16:53:37.2     418    329    -20    533    534  51.8  -2.2  34172  289.77 0854.28
2009/04/23 16:53:37.3     442    227    -52    497    500  62.8  -6.0  34162  289.61 0854.28
2009/04/23 16:53:37.4     354    291     48    459    462  50.5   6.0  34140  289.22 0854.28
2009/04/23 16:53:37.5      18    305    169    306    349   3.4  31.4  34158  289.55 0854.28
2009/04/23 16:53:37.6    -155    247     43    292    296 327.9   8.5  34130  289.07 0854.28
2009/04/23 16:53:37.7    -261    346    -16    434    435 323.0  -2.2  34100  288.55 0854.28
2009/04/23 16:53:37.8    -366    394   -137    539    557 317.1 -14.3  34064  287.94 0854.28
2009/04/23 16:53:37.9    -376    399   -161    549    573 316.7 -16.4  34056  287.82 0854.28
2009/04/23 16:53:38.0    -501    450   -162    674    694 311.9 -13.6  34064  287.95 0854.28
2009/04/23 16:53:38.1    -511    404   -120    652    664 308.3 -10.5  34066  287.99 0854.28
2009/04/23 16:53:38.2    -385    234      5    451    452 301.3   0.7  34092  288.41 0854.27
2009/04/23 16:53:38.3    -328    207     60    388    393 302.3   8.9  34100  288.54 0854.27
2009/04/23 16:53:38.4    -300    336     22    451    452 318.2   2.9  34086  288.31 0854.27
2009/04/23 16:53:38.5    -288    271     77    396    404 313.2  11.1  34094  288.44 0854.27
2009/04/23 16:53:38.6     -19    402     56    403    408 357.2   8.0  34112  288.75 0854.27
2009/04/23 16:53:38.7     237    143    194    278    338  58.9  38.4  34114  288.80 0854.27
2009/04/23 16:53:38.8     298    189     24    353    354  57.6   4.0  34110  288.74 0854.27
2009/04/23 16:53:38.9     190    190    192    269    330  45.0  39.0  34158  289.53 0854.27
2009/04/23 16:53:39.0     175    296    115    345    364  30.6  18.5  34146  289.32 0854.27
2009/04/23 16:53:39.1     188    319     38    371    374  30.6   6.0  34138  289.21 0854.27
2009/04/23 16:53:39.2     260    387    130    467    485  33.9  15.6  34138  289.20 0854.28
2009/04/23 16:53:39.3     140    387    150    412    438  20.0  20.9  34144  289.29 0854.28
2009/04/23 16:53:39.4     154    464    127    489    506  18.4  14.6  34094  288.46 0854.28
2009/04/23 16:53:39.5     175    523    101    552    562  18.6  10.4  34174  289.82 0854.28
2009/04/23 16:53:39.6      60    387    212    392    445   8.8  30.8  34176  289.83 0854.28
2009/04/23 16:53:39.7       5    343    182    344    389   0.9  30.3  34160  289.57 0854.28
2009/04/23 16:53:39.8      66    421    114    427    442   8.9  15.0  34162  289.61 0854.28
2009/04/23 16:53:39.9      36    467     18    469    470   4.5   2.2  34130  289.08 0854.28
2009/04/23 16:53:40.0     183    507   -128    540    556  19.9 -13.4  34140  289.23 0854.28
2009/04/23 16:53:40.1     228    467    -65    520    525  26.1  -7.2  34180  289.90 0854.28
2009/04/23 16:53:40.2     196    423    117    467    482  24.9  14.2  34196  290.18 0854.28
2009/04/23 16:53:40.3      83    351     68    361    368  13.4  10.7  34192  290.11 0854.28
2009/04/23 16:53:40.4     261    346     21    434    435  37.0   2.8  34246  291.02 0854.28
2009/04/23 16:53:40.5     152    305    -13    341    342  26.5  -2.2  34182  289.94 0854.28
2009/04/23 16:53:40.6    -151    259    -93    300    314 329.7 -22.2  34114  288.80 0854.28
2009/04/23 16:53:40.7     -78    283   -136    294    323 344.4 -31.0  34084  288.27 0854.28
2009/04/23 16:53:40.8     -68    262    -93    271    287 345.3 -18.9  34084  288.29 0854.28
2009/04/23 16:53:40.9      37    218    -74    222    234   9.7 -23.6  34086  288.33 0854.28
2009/04/23 16:53:41.0      62    249    -33    257    260  14.2  -7.5  34094  288.44 0854.28
2009/04/23 16:53:41.1     167    246    -45    298    302  34.2  -8.6  34122  288.93 0854.28
2009/04/23 16:53:41.2     150    234    -25    279    281  32.7  -5.2  34104  288.63 0854.28
2009/04/23 16:53:41.3      10    323    -91    324    337   1.8 -15.7  34094  288.45 0854.28
2009/04/23 16:53:41.4      52    266    -70    272    281  11.1 -14.5  34090  288.37 0854.28
2009/04/23 16:53:41.5      24    219    -27    221    223   6.5  -7.2  34092  288.43 0854.28
2009/04/23 16:53:41.6     -52    298    -16    303    304 350.0  -3.1  34112  288.75 0854.28
2009/04/23 16:53:41.7     -53    314    -87    319    331 350.3 -15.4  34084  288.27 0854.28
2009/04/23 16:53:41.8    -121    330    -20    352    353 339.8  -3.3  34080  288.23 0854.28
2009/04/23 16:53:41.9     -89    372      1    383    384 346.5   0.2  34100  288.54 0854.28
2009/04/23 16:53:42.0     -21    309     38    310    313 356.0   7.1  34116  288.83 0854.28
2009/04/23 16:53:42.1      15    300    -31    301    303   2.9  -6.0  34144  289.31 0854.28
2009/04/23 16:53:42.2     -46    258    -65    263    271 349.8 -13.9  34126  288.98 0854.28
2009/04/23 16:53:42.3      41    222     39    226    230  10.5   9.9  34124  288.96 0854.28
2009/04/23 16:53:42.4      50    233     51    239    245  12.3  12.2  34110  288.71 0854.28
2009/04/23 16:53:42.5      16    260     78    261    273   3.6  16.6  34096  288.49 0854.28
2009/04/23 16:53:42.6      94    196     55    218    225  25.6  14.3  34098  288.53 0854.28
2009/04/23 16:53:42.7      55    205     98    213    234  15.2  26.2  34208  290.38 0854.28
2009/04/23 16:53:42.8     108    182     18    212    213  30.7   4.9  34204  290.33 0854.28
2009/04/23 16:53:42.9      33    308     -6    310    311   6.3  -1.1  34132  289.09 0854.28
2009/04/23 16:53:43.0      62    259     51    267    272  13.6  11.0  34182  289.93 0854.28
2009/04/23 16:53:43.1      22    222     -8    224    225   5.8  -2.1  34140  289.23 0854.28
2009/04/23 16:53:43.2     -16    204    -39    205    209 355.3 -10.9  34132  289.11 0854.28
2009/04/23 16:53:43.3     -31    262    -34    264    267 353.1  -7.3  34182  289.93 0854.28
2009/04/23 16:53:43.4      42    242    -54    246    252  10.0 -12.4  34196  290.17 0854.28
2009/04/23 16:53:43.5     -35    239    -13    242    243 351.5  -3.1  34218  290.56 0854.28
2009/04/23 16:53:43.6     -19    224    -28    225    227 354.9  -7.2  34218  290.57 0854.28
2009/04/23 16:53:43.7      28    200    -64    203    213   8.1 -17.5  34222  290.62 0854.28
2009/04/23 16:53:43.8       4    240    -71    241    251   1.1 -21.5  34200  290.24 0854.28
2009/04/23 16:53:43.9      30    216    -90    219    236   8.0 -28.0  34212  290.47 0854.28
2009/04/23 16:53:44.0      24    172    -49    174    180   8.2 -20.2  34232  290.81 0854.28
2009/04/23 16:53:44.1      26    152    -57    155    165   9.7 -25.1  34238  290.89 0854.28
2009/04/23 16:53:44.2      30    147    -65    151    164  11.6 -29.3  34230  290.75 0854.28
2009/04/23 16:53:44.3      75     32   -103     82    131  66.5 -61.3  34174  289.80 0854.28
2009/04/23 16:53:44.4     148    -11    -72    149    165  94.4 -32.2  34150  289.40 0854.28
2009/04/23 16:53:44.5     202     36    -74    206    218  79.9 -25.1  34122  288.94 0854.28
2009/04/23 16:53:44.6     191     26    -61    193    203  82.1 -17.6  34128  289.04 0854.28
2009/04/23 16:53:44.7     146    -36    -87    151    174 104.2 -37.3  34150  289.40 0854.28
2009/04/23 16:53:44.8     165     -1    -50    166    173  90.4 -22.1  34140  289.24 0854.28
2009/04/23 16:53:44.9     150     19    -45    152    158  82.5 -21.2  34146  289.33 0854.28
2009/04/23 16:53:45.0     147    124     24    193    195  49.8   7.2  34204  290.33 0854.28
2009/04/23 16:53:45.1     185    161     64    246    255  49.1  14.7  34240  290.92 0854.28
2009/04/23 16:53:45.2     171    141     60    222    231  50.5  15.2  34236  290.87 0854.28
2009/04/23 16:53:45.3     202    168     71    263    273  50.2  15.2  34228  290.71 0854.28
2009/04/23 16:53:45.4     170    149    103    227    249  48.7  26.2  34234  290.83 0854.28
2009/04/23 16:53:45.5      45    170     34    176    180  14.9  11.0  34234  290.84 0854.28
2009/04/23 16:53:45.6       1    207      7    208    209   0.5   2.1  34214  290.50 0854.28
2009/04/23 16:53:45.7      70    194      6    207    208  20.0   1.8  34184  289.97 0854.28
2009/04/23 16:53:45.8      59    175     29    185    188  18.7   9.0  34198  290.21 0854.28
2009/04/23 16:53:45.9     -50    155     27    164    167 342.0   9.5  34216  290.52 0854.28
2009/04/23 16:53:46.0     -71    171     11    186    187 337.3   3.6  34208  290.38 0854.28
2009/04/23 16:53:46.1     -13    142     22    143    145 354.7   8.9  34182  289.96 0854.28
2009/04/23 16:53:46.2      25     76     47     81     93  18.3  33.5  34176  289.84 0854.28
2009/04/23 16:53:46.3      84     67     85    108    137  51.4  42.2  34158  289.55 0854.28
2009/04/23 16:53:46.4      23     78    108     82    135  16.9  58.5  34184  289.97 0854.28
2009/04/23 16:53:46.5     -44     91     86    102    133 334.1  44.3  34208  290.38 0854.28
2009/04/23 16:53:46.6     -51     80     39     96    103 327.5  23.0  34208  290.38 0854.28
2009/04/23 16:53:46.7     -50    105     52    117    128 334.5  25.2  34218  290.57 0854.28
2009/04/23 16:53:46.8     -82     78     49    114    124 313.6  24.6  34200  290.25 0854.28
2009/04/23 16:53:46.9     -94     83      6    126    127 311.3   2.8  34168  289.72 0854.28
2009/04/23 16:53:47.0     -94     54     28    109    113 300.2  14.7  34162  289.60 0854.28
2009/04/23 16:53:47.1     -75     71     36    104    111 313.2  19.4  34166  289.67 0854.28
2009/04/23 16:53:47.2     -90     96     57    132    143 316.7  24.6  34200  290.25 0854.28
2009/04/23 16:53:47.3     -88     48     48    101    111 298.4  27.2  34210  290.41 0854.28
2009/04/23 16:53:47.4    -112     62      6    129    130 298.9   2.9  34280  291.60 0854.28
2009/04/23 16:53:47.5    -137     71    -11    155    156 297.5  -4.1  34304  292.01 0854.28
2009/04/23 16:53:47.6    -159     77     -7    177    178 296.0  -2.3  34310  292.13 0854.28
2009/04/23 16:53:47.7     -97     88    -17    132    134 312.2  -7.3  34320  292.29 0854.28
2009/04/23 16:53:47.8     -85     90     -5    125    126 316.7  -2.6  34284  291.69 0854.28
2009/04/23 16:53:47.9     -92     78     47    121    129 310.4  22.0  34250  291.09 0854.28
2009/04/23 16:53:48.0     -26     68     63     73     96 339.1  45.4  34240  290.92 0854.28
2009/04/23 16:53:48.1      77     44     83     89    121  60.2  48.0  34216  290.52 0854.28
2009/04/23 16:53:48.2      78     24    104     82    132  72.3  57.5  34228  290.74 0854.28
2009/04/23 16:53:48.3      -7     -7     66     11     66 225.0  90.0  34248  291.08 0854.28
2009/04/23 16:53:48.4     -30     -8     64     32     71 254.9  72.8  34258  291.23 0854.28
2009/04/23 16:53:48.5     -26     21     62     34     70 309.5  68.8  34230  290.77 0854.28
2009/04/23 16:53:48.6     -65     75     49    100    111 319.0  27.3  34216  290.53 0854.28
2009/04/23 16:53:48.7     -36     66     53     76     92 331.0  38.0  34222  290.64 0854.28
2009/04/23 16:53:48.8     -72     72     49    103    114 315.0  27.3  34206  290.35 0854.28
2009/04/23 16:53:48.9     -74     89     66    116    133 320.4  32.9  34198  290.23 0854.28
2009/04/23 16:53:49.0     -90     81     46    122    130 312.2  21.5  34204  290.33 0854.28
2009/04/23 16:53:49.1     -71     51     59     88    105 305.5  36.5  34220  290.60 0854.28
2009/04/23 16:53:49.2    -111     19     77    113    136 280.1  37.4  34226  290.70 0854.28
2009/04/23 16:53:49.3     -82      3     56     83    100 272.6  37.0  34222  290.62 0854.28
2009/04/23 16:53:49.4     -81     56     37     99    105 305.1  21.5  34218  290.57 0854.28
2009/04/23 16:53:49.5     -65     41     34     78     85 302.5  25.1  34220  290.60 0854.28
2009/04/23 16:53:49.6     -80     26     -7     85     86 288.2  -5.2  34224  290.65 0854.28
2009/04/23 16:53:49.7    -113    -25    -33    116    121 257.2 -16.0  34236  290.87 0854.28
2009/04/23 16:53:49.8     -82     -3    -29     83     87 267.4 -23.8  34254  291.18 0854.28
2009/04/23 16:53:49.9     -53     19    -38     57     68 290.0 -40.0  34270  291.43 0854.28
2009/04/23 16:53:50.0     -46     -7    -18     47     50 261.2 -25.4  34258  291.23 0854.28
2009/04/23 16:53:50.1     -38    -20    -14     44     47 242.0 -17.6  34256  291.21 0854.28
2009/04/23 16:53:50.2     -17    -51     18     54     58 198.7  18.9  34256  291.21 0854.28
2009/04/23 16:53:50.3      -4    -69     24     70     75 183.6  19.4  34262  291.30 0854.28
2009/04/23 16:53:50.4     -12    -86     10     87     88 188.5   6.9  34260  291.28 0854.28
2009/04/23 16:53:50.5     -60   -107     24    123    126 209.4  11.0  34256  291.21 0854.28
2009/04/23 16:53:50.6     -91   -110     43    144    151 219.6  16.8  34242  290.98 0854.28
2009/04/23 16:53:50.7    -102   -129     46    165    172 218.3  15.8  34260  291.28 0854.28
2009/04/23 16:53:50.8      22   -163     80    165    183 172.0  27.8  34236  290.87 0854.28
2009/04/23 16:53:50.9      23   -169    123    171    210 172.2  39.5  34218  290.55 0854.28
2009/04/23 16:53:51.0      19   -168    116    170    205 173.3  37.6  34214  290.48 0854.28
2009/04/23 16:53:51.1      -7   -149    137    150    203 182.7  47.5  34218  290.55 0854.28
2009/04/23 16:53:51.2      40   -152    123    158    200 165.3  41.7  34222  290.62 0854.29
2009/04/23 16:53:51.3       3   -205    133    206    245 179.1  35.7  34222  290.61 0854.29
2009/04/23 16:53:51.4      42   -142    146    149    208 163.5  49.8  34248  291.06 0854.29
2009/04/23 16:53:51.5      54   -150    152    160    220 160.0  48.2  34262  291.32 0854.29
2009/04/23 16:53:51.6       2   -183     92    184    205 179.1  28.5  34242  290.96 0854.29
2009/04/23 16:53:51.7      33   -185    173    189    256 169.8  47.5  34244  291.00 0854.29
2009/04/23 16:53:51.8     -12   -159    162    160    227 184.5  50.1  34254  291.16 0854.29
2009/04/23 16:53:51.9       9   -197    141    198    243 177.3  38.8  34226  290.69 0854.29
2009/04/23 16:53:52.0      47   -213     68    219    230 167.5  17.4  34206  290.35 0854.29
2009/04/23 16:53:52.1      97   -209     89    231    247 155.1  22.1  34196  290.17 0854.29
2009/04/23 16:53:52.2     118   -269    110    294    313 156.3  21.5  34172  289.76 0854.29
2009/04/23 16:53:52.3     105   -204     89    230    246 152.8  22.1  34162  289.61 0854.29
2009/04/23 16:53:52.4     140   -262    126    298    323 151.9  24.5  34160  289.56 0854.29
2009/04/23 16:53:52.5      86   -330    125    341    363 165.4  21.0  34168  289.72 0854.29
2009/04/23 16:53:52.6      35   -327    161    329    366 173.8  28.0  34164  289.64 0854.29
2009/04/23 16:53:52.7     -23   -247    170    249    301 185.3  37.6  34166  289.68 0854.29
2009/04/23 16:53:52.8     -46   -229    194    234    303 191.6  43.8  34166  289.68 0854.29
2009/04/23 16:53:52.9     -47   -230    206    235    312 191.8  46.1  34166  289.68 0854.29
2009/04/23 16:53:53.0    -101   -214    216    237    320 205.4  47.1  34172  289.78 0854.29
2009/04/23 16:53:53.1     -36   -210    170    214    273 189.7  42.7  34170  289.75 0854.29
2009/04/23 16:53:53.2       2   -311    217    312    380 179.5  38.0  34160  289.57 0854.29
2009/04/23 16:53:53.3      41   -244    206    248    322 170.4  44.0  34168  289.70 0854.29
2009/04/23 16:53:53.4      68   -202    153    214    263 161.3  39.1  34170  289.75 0854.29
2009/04/23 16:53:53.5     117   -166    130    204    241 144.8  35.6  34168  289.70 0854.29
2009/04/23 16:53:53.6     129   -105    146    167    221 129.1  45.8  34170  289.74 0854.29
2009/04/23 16:53:53.7      -3    -94     97     95    135 182.2  50.1  34192  290.11 0854.29
2009/04/23 16:53:53.8      21   -219    132    221    257 174.4  33.5  34172  289.76 0854.29
2009/04/23 16:53:53.9      54   -263    152    269    308 168.2  31.9  34178  289.86 0854.29
2009/04/23 16:53:54.0      96   -278    106    295    313 160.8  20.6  34178  289.88 0854.29
2009/04/23 16:53:54.1      49   -291     25    296    298 170.3   5.0  34170  289.75 0854.29
2009/04/23 16:53:54.2      89   -251     26    267    269 160.4   5.7  34174  289.81 0854.29
2009/04/23 16:53:54.3      65   -217      8    227    228 163.3   2.1  34172  289.77 0854.29
2009/04/23 16:53:54.4      65   -209     18    220    221 162.6   4.9  34176  289.84 0854.29
2009/04/23 16:53:54.5     130   -231     23    266    268 150.6   5.0  34178  289.86 0854.29
2009/04/23 16:53:54.6     128   -233    115    267    290 151.1  25.1  34174  289.80 0854.29
2009/04/23 16:53:54.7     105   -166     -7    197    198 147.5  -2.3  34174  289.82 0854.29
2009/04/23 16:53:54.8     106   -183     20    212    214 149.7   5.4  34176  289.84 0854.29
2009/04/23 16:53:54.9      62   -141     -1    155    156 156.4  -0.5  34178  289.87 0854.29
2009/04/23 16:53:55.0      84    -88    -11    122    123 136.3  -5.2  34172  289.79 0854.29
2009/04/23 16:53:55.1     100    -33     -7    106    107 108.4  -4.1  34172  289.77 0854.29
2009/04/23 16:53:55.2     141    -14     12    142    143  95.7   4.9  34168  289.72 0854.30
2009/04/23 16:53:55.3     156    -71     33    172    176 114.4  11.0  34168  289.70 0854.30
2009/04/23 16:53:55.4     169   -123     15    210    211 126.0   4.2  34168  289.70 0854.30
2009/04/23 16:53:55.5     195   -113    -14    226    227 120.0  -3.7  34168  289.72 0854.30
2009/04/23 16:53:55.6     128   -133     -7    185    186 136.1  -2.2  34168  289.70 0854.30
2009/04/23 16:53:55.7     139   -130     74    191    204 133.1  22.0  34166  289.67 0854.30
2009/04/23 16:53:55.8     105   -149    120    183    218 144.8  36.3  34162  289.62 0854.30
2009/04/23 16:53:55.9     216   -177    102    280    298 129.3  21.0  34160  289.56 0854.30
2009/04/23 16:53:56.0     322   -251     56    409    413 128.0   7.8  34158  289.53 0854.30
2009/04/23 16:53:56.1     283   -216     45    357    360 127.4   7.2  34154  289.48 0854.30
2009/04/23 16:53:56.2     233   -222     -7    323    324 133.6  -1.4  34154  289.47 0854.30
2009/04/23 16:53:56.3     209   -207     76    295    305 134.8  14.5  34144  289.31 0854.30
2009/04/23 16:53:56.4     166   -222     95    278    294 143.1  18.9  34144  289.29 0854.30
2009/04/23 16:53:56.5      12   -194    175    195    262 176.4  46.9  34140  289.22 0854.30
2009/04/23 16:53:56.6     -33   -158    148    162    219 191.8  47.5  34140  289.24 0854.30
2009/04/23 16:53:56.8     -15   -101     86    103    134 188.9  43.8  34160  289.57 0854.30
2009/04/23 16:53:56.9     -27   -105     82    109    136 194.7  40.7  34156  289.50 0854.30
2009/04/23 16:53:57.0     -75   -168     77    185    200 204.1  23.8  34172  289.77 0854.30
2009/04/23 16:53:57.1     -99   -193      8    218    219 207.2   2.1  34166  289.67 0854.30
2009/04/23 16:53:57.2    -143   -201      7    247    248 215.4   1.7  34160  289.58 0854.30
2009/04/23 16:53:57.3    -110   -215    -59    242    250 207.1 -13.7  34162  289.59 0854.31
2009/04/23 16:53:57.4    -141   -333   -125    362    384 202.9 -19.1  34172  289.79 0854.31
2009/04/23 16:53:57.5    -154   -260     26    303    305 210.7   5.0  34178  289.86 0854.31
2009/04/23 16:53:57.6    -183   -178     46    256    261 225.8  10.3  34176  289.83 0854.31
2009/04/23 16:53:57.7    -266   -169     41    316    319 237.6   7.4  34174  289.80 0854.31
2009/04/23 16:53:57.8    -167     12     64    168    179 274.4  21.7  34176  289.85 0854.31
2009/04/23 16:53:57.9     -88   -110     57    141    152 218.7  23.0  34174  289.82 0854.31
2009/04/23 16:53:58.0     -69   -148     84    164    184 204.9  29.3  34166  289.67 0854.31
2009/04/23 16:53:58.1    -157     -7    144    158    213 267.4  47.5  34186  290.01 0854.31
2009/04/23 16:53:58.2    -177    -65     37    189    193 249.6  11.1  34200  290.26 0854.31
2009/04/23 16:53:58.3    -227    -28     -1    229    230 262.8  -0.5  34216  290.52 0854.31
2009/04/23 16:53:58.4     -58   -125    -15    138    139 204.9  -6.2  34206  290.36 0854.31
2009/04/23 16:53:58.5      46   -155      0    162    163 163.5   0.0  34170  289.75 0854.31
2009/04/23 16:53:58.6      48   -242     23    247    249 168.7   5.4  34168  289.71 0854.31
2009/04/23 16:53:58.7      63   -229    -17    238    239 164.4  -4.1  34174  289.80 0854.31
2009/04/23 16:53:58.8      51   -171     90    179    200 163.3  28.7  34166  289.67 0854.31
2009/04/23 16:53:58.9     197   -343     61    396    401 150.1   8.8  34156  289.52 0854.31
2009/04/23 16:53:59.0     191   -251     43    316    319 142.6   7.8  34158  289.54 0854.31
2009/04/23 16:53:59.1     243   -268     29    363    365 137.8   4.7  34164  289.65 0854.31
2009/04/23 16:53:59.2     198   -218     41    295    298 137.7   8.0  34154  289.47 0854.31
2009/04/23 16:53:59.3     223   -178     78    286    297 128.6  15.3  34158  289.53 0854.32
2009/04/23 16:53:59.4     281   -179     18    334    335 122.5   3.1  34164  289.65 0854.32
2009/04/23 16:53:59.5     243   -295     19    383    384 140.5   2.9  34162  289.60 0854.32
2009/04/23 16:53:59.6      22   -217     11    219    220 174.2   2.9  34162  289.62 0854.32
2009/04/23 16:53:59.7      66   -130    109    146    182 152.9  40.4  34168  289.70 0854.32
2009/04/23 16:53:59.8     106    -48    120    117    167 114.4  50.7  34170  289.75 0854.32
2009/04/23 16:53:59.9     115   -179    200    213    292 147.3  48.0  34186  290.02 0854.32
2009/04/23 16:54:00.0     151   -175    151    232    276 139.2  36.3  34184  289.98 0854.32
2009/04/23 16:54:00.1     192   -204    142    281    314 136.8  28.7  34188  290.03 0854.32
2009/04/23 16:54:00.2     201   -136    111    243    267 124.2  26.2  34188  290.03 0854.32
2009/04/23 16:54:00.3      78   -220     65    234    243 160.4  15.6  34156  289.51 0854.33
2009/04/23 16:54:00.4     -60   -197     -4    207    208 196.9  -1.1  34146  289.35 0854.33
2009/04/23 16:54:00.5     -67    -92     -9    114    115 216.1  -4.6  34152  289.45 0854.33
2009/04/23 16:54:00.6      59     71     73     93    118  39.6  42.2  34158  289.53 0854.33
2009/04/23 16:54:00.7      88     92     91    128    157  43.7  39.1  34176  289.84 0854.33
2009/04/23 16:54:00.8      73     76     49    106    116  43.7  27.1  34170  289.75 0854.33
2009/04/23 16:54:00.9      26     87      1     91     92  16.9   0.8  34166  289.67 0854.33
2009/04/23 16:54:01.0      67    130    -53    147    156  27.2 -24.8  34162  289.60 0854.33
2009/04/23 16:54:01.1     125     80    -61    149    161  57.5 -28.0  34152  289.45 0854.33
2009/04/23 16:54:01.2     150     30    -45    154    160  78.5 -21.2  34156  289.52 0854.33
2009/04/23 16:54:01.3     130      5    -32    131    135  87.4 -13.9  34156  289.52 0854.33
2009/04/23 16:54:01.4     140     -6     -5    141    142  92.6  -2.2  34148  289.38 0854.33
2009/04/23 16:54:01.5     133     41      2    140    141  72.7   0.8  34148  289.36 0854.33
2009/04/23 16:54:01.6     157     21     55    159    169  82.3  19.2  34154  289.48 0854.33
2009/04/23 16:54:01.7     172    -19     74    174    189  96.4  24.6  34156  289.50 0854.33
2009/04/23 16:54:01.8     153     69     97    169    194  65.6  32.7  34174  289.82 0854.33
2009/04/23 16:54:01.9     165     68    143    179    229  67.6  43.0  34180  289.91 0854.33
2009/04/23 16:54:02.0     122    107    111    163    197  48.7  37.6  34212  290.45 0854.33
2009/04/23 16:54:02.1      95     88    104    130    166  47.3  43.3  34210  290.43 0854.33
2009/04/23 16:54:02.2     168     43     97    174    199  75.4  31.4  34194  290.16 0854.33
2009/04/23 16:54:02.3     235    -59    124    243    272 104.2  29.2  34160  289.58 0854.34
2009/04/23 16:54:02.4      98   -220     94    242    259 155.9  22.3  34150  289.41 0854.34
2009/04/23 16:54:02.5       0   -296    110    297    316 179.9  21.3  34156  289.51 0854.34
2009/04/23 16:54:02.6     215   -456    158    505    530 154.7  17.4  34138  289.19 0854.34
2009/04/23 16:54:02.7     201   -513    230    552    598 158.6  24.1  34126  289.00 0854.34
2009/04/23 16:54:02.8     188   -453    206    491    532 157.4  24.1  34134  289.13 0854.34
2009/04/23 16:54:02.9     243   -531     29    584    585 155.4   2.9  34138  289.19 0854.34
2009/04/23 16:54:03.0     240   -613    189    659    686 158.6  16.0  34138  289.21 0854.34
2009/04/23 16:54:03.1     185   -551    206    582    617 161.4  20.3  34138  289.19 0854.34
2009/04/23 16:54:03.2     128   -545    120    560    573 166.8  12.1  34130  289.07 0854.34
2009/04/23 16:54:03.3     123   -432    105    450    463 164.1  13.2  34140  289.22 0854.34
2009/04/23 16:54:03.4     208   -546    199    585    619 159.1  18.8  34134  289.12 0854.34
2009/04/23 16:54:03.5     301   -481    193    568    601 148.0  18.8  34144  289.29 0854.34
2009/04/23 16:54:03.6     193   -440    249    481    541 156.3  29.4  34144  289.29 0854.34
2009/04/23 16:54:03.7     280   -595    266    658    709 154.8  23.2  34140  289.22 0854.34
2009/04/23 16:54:03.8     156   -522    264    545    605 163.3  27.7  34124  288.97 0854.34
2009/04/23 16:54:03.9    -118   -527     95    541    550 192.6  10.0  34134  289.13 0854.34
2009/04/23 16:54:04.0    -119   -560    275    573    635 192.1  27.4  34148  289.37 0854.34
2009/04/23 16:54:04.1     -18   -485    139    486    506 182.2  16.0  34146  289.35 0854.34
2009/04/23 16:54:04.2    -119   -586     29    598    599 191.5   2.8  34146  289.32 0854.34
2009/04/23 16:54:04.3     -48   -444     -2    447    448 186.2  -0.3  34140  289.22 0854.34
2009/04/23 16:54:04.4      69   -323     34    331    333 167.9   6.0  34152  289.42 0854.34
2009/04/23 16:54:04.5     160   -322    -45    360    363 153.6  -7.2  34146  289.33 0854.34
2009/04/23 16:54:04.6     227   -397     -8    458    459 150.3  -1.1  34146  289.34 0854.34
2009/04/23 16:54:04.7     348   -395     -2    527    528 138.6  -0.3  34152  289.43 0854.34
2009/04/23 16:54:04.8     252   -335     12    420    421 143.0   1.7  34152  289.43 0854.34
2009/04/23 16:54:04.9     279   -444     25    525    526 147.9   2.8  34144  289.31 0854.34
2009/04/23 16:54:05.0     233   -421    182    482    515 151.0  21.6  34136  289.17 0854.34
2009/04/23 16:54:05.1     113   -359    238    377    445 162.5  35.5  34146  289.33 0854.34
2009/04/23 16:54:05.2     -31   -287    220    289    363 186.3  41.3  34148  289.38 0854.34
2009/04/23 16:54:05.3     -26   -422    225    423    479 183.6  30.3  34146  289.34 0854.34
2009/04/23 16:54:05.4      69   -348    192    355    403 168.7  30.6  34148  289.37 0854.34
2009/04/23 16:54:05.5     -21   -431    276    432    512 182.8  35.6  34146  289.32 0854.34
2009/04/23 16:54:05.6    -184   -361    133    406    428 207.0  18.1  34132  289.09 0854.34
2009/04/23 16:54:05.7    -160   -540     86    564    571 196.5   8.7  34142  289.26 0854.34
2009/04/23 16:54:05.8     -60   -653    233    657    698 185.3  19.6  34154  289.48 0854.34
2009/04/23 16:54:05.9      87   -532    243    540    592 170.7  25.9  34144  289.30 0854.34
2009/04/23 16:54:06.0      51   -420    122    424    442 173.0  16.1  34148  289.36 0854.34
2009/04/23 16:54:06.1      38   -490      7    492    493 175.5   0.8  34152  289.42 0854.34
2009/04/23 16:54:06.2      54   -469    110    473    486 173.4  13.1  34150  289.39 0854.34
2009/04/23 16:54:06.3     -26   -483     17    484    485 183.1   2.1  34156  289.49 0854.35
2009/04/23 16:54:06.4     -62   -400     24    405    406 188.9   3.5  34148  289.36 0854.35
2009/04/23 16:54:06.5     -51   -565    -22    568    569 185.2  -2.2  34150  289.40 0854.35
2009/04/23 16:54:06.6     -23   -446   -121    447    464 183.0 -15.2  34144  289.31 0854.35
2009/04/23 16:54:06.7     122   -377     55    397    402 162.1   8.0  34146  289.32 0854.35
2009/04/23 16:54:06.8       8   -516      6    517    518 179.1   0.7  34144  289.30 0854.35
2009/04/23 16:54:06.9     153   -567    114    588    599 164.9  11.0  34140  289.24 0854.35
2009/04/23 16:54:07.0      94   -624     86    632    638 171.4   7.8  34140  289.23 0854.35
2009/04/23 16:54:07.1     -84   -453    224    461    512 190.6  27.8  34126  289.00 0854.35
2009/04/23 16:54:07.2      16   -367    243    368    440 177.4  36.5  34142  289.26 0854.35
2009/04/23 16:54:07.3      -3   -348    221    349    413 180.6  35.5  34144  289.30 0854.35
2009/04/23 16:54:07.4      -6   -393    138    394    418 181.0  19.4  34146  289.33 0854.35
2009/04/23 16:54:07.5      30   -358    -15    360    361 175.2  -2.5  34146  289.33 0854.35
2009/04/23 16:54:07.6      32   -400    -93    402    413 175.4 -13.1  34148  289.38 0854.35
2009/04/23 16:54:07.7      87   -428    -55    437    441 168.5  -7.2  34150  289.39 0854.35
2009/04/23 16:54:07.8      90   -354    -98    366    379 165.7 -15.0  34152  289.45 0854.35
2009/04/23 16:54:07.9     237   -310    -78    391    399 142.6 -11.3  34148  289.37 0854.35
2009/04/23 16:54:08.0     319   -312     21    447    448 134.4   2.8  34146  289.34 0854.35
2009/04/23 16:54:08.1     279   -292     42    405    408 136.3   6.0  34148  289.36 0854.35
2009/04/23 16:54:08.2     319   -365     13    485    486 138.8   1.6  34146  289.35 0854.35
2009/04/23 16:54:08.3     375   -341     28    508    509 132.3   3.2  34150  289.39 0854.35
2009/04/23 16:54:08.4     349   -457     52    576    579 142.6   5.2  34148  289.37 0854.35
2009/04/23 16:54:08.5     311   -371    117    485    499 140.0  13.6  34140  289.22 0854.35
2009/04/23 16:54:08.6     291   -329     22    440    441 138.5   2.9  34146  289.34 0854.35
2009/04/23 16:54:08.7     279   -288    -67    402    408 135.9  -9.5  34148  289.38 0854.35
2009/04/23 16:54:08.8     277   -304     -6    412    413 137.7  -0.9  34144  289.29 0854.35
2009/04/23 16:54:08.9     250   -328     49    413    417 142.6   6.9  34144  289.31 0854.35
2009/04/23 16:54:09.0     207   -455     63    500    504 155.5   7.2  34146  289.32 0854.35
2009/04/23 16:54:09.1     178   -521    171    551    578 161.1  17.3  34142  289.27 0854.35
2009/04/23 16:54:09.2     165   -542     28    567    568 163.1   2.9  34140  289.23 0854.35
2009/04/23 16:54:09.3     123   -456    117    473    488 164.8  13.9  34142  289.27 0854.35
2009/04/23 16:54:09.4     213   -406    124    459    476 152.3  15.2  34146  289.35 0854.35
2009/04/23 16:54:09.5      67   -444    118    450    466 171.4  14.7  34144  289.29 0854.35
2009/04/23 16:54:09.6      72   -366      5    374    375 168.8   0.8  34148  289.38 0854.35
2009/04/23 16:54:09.7     143   -392    -16    418    419 159.9  -2.2  34142  289.26 0854.35
2009/04/23 16:54:09.8     105   -482    182    494    526 167.7  21.0  34124  288.96 0854.35
2009/04/23 16:54:09.9     308   -550     23    631    632 150.7   2.1  34128  289.03 0854.35
2009/04/23 16:54:10.0     242   -494     56    551    554 153.9   5.9  34128  289.04 0854.35
2009/04/23 16:54:10.1     135   -328     69    355    362 157.6  11.1  34136  289.18 0854.35
2009/04/23 16:54:10.2     209   -290     98    358    372 144.2  15.3  34136  289.18 0854.35
2009/04/23 16:54:10.3     123   -386     34    406    408 162.3   4.9  34148  289.36 0854.36
2009/04/23 16:54:10.4     101   -324    140    340    367 162.6  23.6  34142  289.25 0854.36
2009/04/23 16:54:10.5     140   -391    248    416    484 160.3  33.6  34132  289.11 0854.36
2009/04/23 16:54:10.6     147   -282    250    319    405 152.4  42.1  34140  289.23 0854.36
2009/04/23 16:54:10.7     130   -139    147    191    241 136.8  41.6  34142  289.28 0854.36
2009/04/23 16:54:10.8     132   -264    221    296    369 153.5  40.6  34146  289.33 0854.36
2009/04/23 16:54:10.9     138   -209    195    251    317 146.6  41.9  34150  289.41 0854.36
2009/04/23 16:54:11.0      85    -70    129    111    170 129.6  55.0  34162  289.62 0854.36
2009/04/23 16:54:11.1      46   -158    141    165    217 163.7  45.1  34146  289.35 0854.36
2009/04/23 16:54:11.2      17     11    128     21    129  55.8  90.0  34172  289.79 0854.36
2009/04/23 16:54:11.3      37     45    125     59    138  39.6  73.1  34162  289.62 0854.36
2009/04/23 16:54:11.4      90     74    190    117    223  50.5  65.1  34152  289.45 0854.36
2009/04/23 16:54:11.5     215   -113    187    243    306 117.8  41.6  34148  289.36 0854.36
2009/04/23 16:54:11.6     294   -144     91    328    341 116.2  15.6  34144  289.30 0854.36
2009/04/23 16:54:11.7     201   -132    226    241    330 123.3  48.0  34142  289.27 0854.36
2009/04/23 16:54:11.8     210   -160    124    265    292 127.3  27.1  34140  289.24 0854.36
2009/04/23 16:54:11.9     200   -209    125    290    315 136.3  24.8  34138  289.19 0854.36
2009/04/23 16:54:12.0     156   -298    236    337    411 152.4  38.6  34138  289.21 0854.36
2009/04/23 16:54:12.1     143   -258    228    296    373 151.0  41.6  34144  289.30 0854.36
2009/04/23 16:54:12.2     134   -222    164    260    307 149.0  35.5  34146  289.34 0854.36
2009/04/23 16:54:12.3     189   -296    181    352    395 147.4  29.3  34142  289.26 0854.36
2009/04/23 16:54:12.4     165   -335    198    374    423 153.8  30.2  34138  289.21 0854.36
2009/04/23 16:54:12.5     262   -198    108    329    347 127.1  18.1  34148  289.38 0854.36
2009/04/23 16:54:12.6     263   -266     80    375    384 135.4  12.1  34154  289.47 0854.36
2009/04/23 16:54:12.7     236   -221     87    324    336 133.1  15.1  34152  289.42 0854.36
2009/04/23 16:54:12.8     151   -254      4    296    297 149.2   0.8  34146  289.32 0854.36
2009/04/23 16:54:12.9     141   -245    -35    283    286 150.1  -7.2  34154  289.46 0854.36
2009/04/23 16:54:13.0      73   -228    -79    240    253 162.2 -18.3  34158  289.53 0854.36
2009/04/23 16:54:13.1     -97   -112   -134    149    200 221.0 -51.0  34156  289.52 0854.36
2009/04/23 16:54:13.2     -72    -77    -70    106    127 223.3 -40.9  34158  289.53 0854.36
2009/04/23 16:54:13.3      21     65    -73     69    100  18.5 -56.5  34198  290.21 0854.36
2009/04/23 16:54:13.4      29      3    -38     30     48  83.9 -61.9  34204  290.31 0854.36
2009/04/23 16:54:13.5      24      0    -34     25     42  90.0 -63.8  34188  290.04 0854.36
2009/04/23 16:54:13.6       8    -47    -45     48     65 169.3 -52.4  34186  290.02 0854.36
2009/04/23 16:54:13.7      47   -140    -51    148    156 161.3 -23.3  34176  289.84 0854.36
2009/04/23 16:54:13.8      25   -215    -11    217    218 173.1  -3.1  34152  289.43 0854.36
2009/04/23 16:54:13.9      18   -166     -7    168    169 173.8  -2.6  34158  289.53 0854.36
2009/04/23 16:54:14.0      12   -164     66    165    177 175.8  23.0  34162  289.60 0854.36
2009/04/23 16:54:14.1      52    -67    118     86    146 142.2  60.5  34158  289.53 0854.36
2009/04/23 16:54:14.2     171   -207    164    269    315 140.4  34.2  34136  289.15 0854.36
2009/04/23 16:54:14.3     231    -73    230    243    334 107.7  48.4  34152  289.44 0854.36
2009/04/23 16:54:14.4      78     -5    180     79    196  94.3  75.0  34164  289.65 0854.36
2009/04/23 16:54:14.5     388    -23    232    389    452  93.4  33.5  34144  289.29 0854.36
2009/04/23 16:54:14.6     270    -51     95    275    292 100.8  19.2  34152  289.42 0854.36
2009/04/23 16:54:14.7     248   -183      2    309    310 126.4   0.5  34144  289.31 0854.36
2009/04/23 16:54:14.8     237   -166    -37    290    293 125.1  -7.3  34140  289.22 0854.36
2009/04/23 16:54:14.9     210   -139     82    252    266 123.5  18.1  34148  289.36 0854.36
2009/04/23 16:54:15.0     139    -74     99    158    186 118.0  35.5  34150  289.40 0854.36
2009/04/23 16:54:15.1     104    -62     98    122    156 120.7  43.0  34152  289.43 0854.36
2009/04/23 16:54:15.2     170    -92     38    194    198 118.6  11.1  34148  289.36 0854.36
2009/04/23 16:54:15.3     196   -108    122    224    255 118.9  31.0  34144  289.29 0854.36
2009/04/23 16:54:15.4     208   -266    198    338    391 142.0  33.0  34130  289.08 0854.36
2009/04/23 16:54:15.5     176   -451    174    485    515 158.7  20.6  34136  289.18 0854.36
2009/04/23 16:54:15.6     197   -353    171    405    439 150.9  24.3  34148  289.36 0854.36
2009/04/23 16:54:15.7     188   -282    211    339    399 146.3  35.0  34152  289.43 0854.36
2009/04/23 16:54:15.8      84   -399    222    408    464 168.0  31.3  34146  289.34 0854.36
2009/04/23 16:54:15.9      58   -307    251    313    401 169.3  42.9  34142  289.26 0854.36
2009/04/23 16:54:16.0     160   -206    218    262    340 142.2  44.1  34142  289.27 0854.36
2009/04/23 16:54:16.1     104   -143    188    178    258 143.9  51.6  34146  289.32 0854.36
2009/04/23 16:54:16.2     -46   -240    203    245    318 190.9  44.0  34144  289.29 0854.36
2009/04/23 16:54:16.3      18   -254     69    255    265 175.8  15.3  34148  289.37 0854.35
2009/04/23 16:54:16.4      80   -122    -17    147    149 146.6  -6.7  34146  289.35 0854.35
2009/04/23 16:54:16.5     -61   -157     76    169    185 201.4  25.9  34146  289.33 0854.35
2009/04/23 16:54:16.6     -21   -136     -7    138    139 188.9  -3.1  34144  289.31 0854.35
2009/04/23 16:54:16.7      34    -41    -15     54     57 140.4 -15.5  34146  289.33 0854.35
2009/04/23 16:54:16.8      24     36     17     44     47  34.3  21.0  34148  289.38 0854.35
2009/04/23 16:54:16.9      64    -19      9     67     68 106.8   8.0  34150  289.40 0854.35
2009/04/23 16:54:17.0      74    -35     69     83    107 115.4  43.8  34148  289.38 0854.35
2009/04/23 16:54:17.1     148   -157      9    216    217 136.7   2.5  34136  289.16 0854.35
2009/04/23 16:54:17.2      85   -248     29    263    265 160.9   6.5  34120  288.88 0854.35
2009/04/23 16:54:17.3      87   -218     -9    235    236 158.2  -2.2  34122  288.92 0854.35
2009/04/23 16:54:17.4      91   -142    -19    169    171 147.3  -6.7  34122  288.92 0854.35
2009/04/23 16:54:17.5     182    -97    -32    207    210 118.2  -8.8  34124  288.97 0854.35
2009/04/23 16:54:17.6     165    -69    106    180    208 112.8  33.5  34130  289.06 0854.35
2009/04/23 16:54:17.7     188    -36    110    192    221 101.0  32.7  34124  288.96 0854.35
2009/04/23 16:54:17.8     142    -62    164    156    226 113.6  52.0  34116  288.84 0854.35
2009/04/23 16:54:17.9     232   -163     77    284    295 125.1  15.3  34104  288.63 0854.35
2009/04/23 16:54:18.0     370   -174    176    409    445 115.2  24.9  34110  288.72 0854.35
2009/04/23 16:54:18.1     105   -538    236    549    597 168.9  24.9  34104  288.61 0854.35
2009/04/23 16:54:18.2     -60   -389    105    394    408 188.8  15.0  34112  288.75 0854.35
2009/04/23 16:54:18.3      86   -338     63    349    355 165.6  10.3  34096  288.50 0854.35
2009/04/23 16:54:18.4     132   -396    302    418    515 161.5  39.5  34084  288.30 0854.35
2009/04/23 16:54:18.5     272   -225    386    354    523 129.6  52.9  34110  288.73 0854.35
2009/04/23 16:54:18.6     446    -64    402    451    604  98.3  46.3  34112  288.77 0854.35
2009/04/23 16:54:18.7     311   -261    338    407    529 130.0  43.8  34108  288.69 0854.35
2009/04/23 16:54:18.8     289    -79    182    300    350 105.3  34.3  34100  288.54 0854.35
2009/04/23 16:54:18.9     182    111    -97    214    234  58.5 -30.6  34110  288.74 0854.35
2009/04/23 16:54:19.0     249    118    -88    276    289  64.6 -22.9  34118  288.85 0854.35
2009/04/23 16:54:19.1     283     91     20    298    299  72.1   3.9  34112  288.75 0854.35
2009/04/23 16:54:19.2     192     97     -4    216    217  63.1  -1.1  34112  288.77 0854.35
2009/04/23 16:54:19.3     188    -29     81    191    207  98.8  24.6  34112  288.75 0854.35
2009/04/23 16:54:19.4     174   -104     75    203    216 120.9  21.3  34108  288.69 0854.35
2009/04/23 16:54:19.5     342   -137    178    369    409 111.8  27.4  34106  288.66 0854.35
2009/04/23 16:54:19.6     100   -157    216    187    285 147.5  54.8  34106  288.65 0854.35
2009/04/23 16:54:19.7     150   -180    147    235    277 140.3  35.2  34110  288.73 0854.35
2009/04/23 16:54:19.8     286    -17     47    287    291  93.5   9.5  34108  288.70 0854.35
2009/04/23 16:54:19.9     292   -161    116    334    353 118.9  20.1  34102  288.60 0854.35
2009/04/23 16:54:20.0     195   -250    238    318    397 142.1  40.6  34098  288.52 0854.35
2009/04/23 16:54:20.1     -10   -172    302    173    348 183.6  67.7  34124  288.95 0854.35
2009/04/23 16:54:20.2      -7    -62    145     63    158 187.1  75.3  34116  288.82 0854.35
2009/04/23 16:54:20.3     156   -121    206    198    285 128.0  51.2  34116  288.83 0854.35
2009/04/23 16:54:20.4      77   -344    223    353    417 167.3  35.5  34102  288.59 0854.35
2009/04/23 16:54:20.5      44   -408    137    411    434 173.8  18.5  34110  288.73 0854.35
2009/04/23 16:54:20.6      -9   -344    120    345    366 181.6  19.3  34110  288.74 0854.35
2009/04/23 16:54:20.7    -125   -277    -39    304    307 204.3  -7.3  34110  288.73 0854.35
2009/04/23 16:54:20.8    -220   -368     17    429    430 210.9   2.3  34108  288.68 0854.35
2009/04/23 16:54:20.9     -91   -596     41    603    605 188.7   3.9  34100  288.56 0854.35
2009/04/23 16:54:21.0      11   -538     26    539    540 178.7   2.8  34100  288.55 0854.35
2009/04/23 16:54:21.1     -20   -365     21    366    367 183.2   3.3  34106  288.66 0854.35
2009/04/23 16:54:21.2     -16   -249    115    250    275 183.8  26.2  34112  288.76 0854.35
2009/04/23 16:54:21.3      29   -268    168    270    318 173.7  34.9  34116  288.81 0854.35
2009/04/23 16:54:21.4     -26   -186    131    188    229 188.2  38.4  34116  288.84 0854.35
2009/04/23 16:54:21.5     -16     59     98     62    115 344.9  64.7  34144  289.30 0854.35
2009/04/23 16:54:21.6     -25      0     90     26     93 270.0  82.8  34140  289.24 0854.35
2009/04/23 16:54:21.7      76      1    169     77    185  89.2  73.8  34134  289.13 0854.35
2009/04/23 16:54:21.8     166   -245     55    297    303 145.8  10.6  34110  288.71 0854.35
2009/04/23 16:54:21.9      74   -212    -12    225    226 160.6  -3.3  34108  288.70 0854.35
2009/04/23 16:54:22.0      69   -208    -28    220    222 161.7  -7.3  34110  288.74 0854.35
2009/04/23 16:54:22.1      52   -152    -57    161    172 160.8 -19.7  34112  288.75 0854.35
2009/04/23 16:54:22.2     103   -113     20    154    156 137.7   7.5  34114  288.79 0854.35
2009/04/23 16:54:22.3     109   -102    131    150    199 133.1  45.8  34112  288.77 0854.35
2009/04/23 16:54:22.4     149    -71    170    166    237 115.4  50.7  34116  288.82 0854.35
2009/04/23 16:54:22.5     -57   -339     52    344    348 189.7   8.7  34106  288.66 0854.35
2009/04/23 16:54:22.6     130   -378    131    400    421 161.0  18.1  34108  288.68 0854.35
2009/04/23 16:54:22.7     301   -388    170    492    521 142.2  19.1  34102  288.59 0854.35
2009/04/23 16:54:22.8     138   -462    217    483    529 163.4  25.8  34084  288.29 0854.35
2009/04/23 16:54:22.9     208   -343    153    402    430 148.7  21.8  34102  288.58 0854.35
2009/04/23 16:54:23.0     269   -354    237    445    504 142.8  30.3  34106  288.66 0854.35
2009/04/23 16:54:23.1     267   -354    183    444    480 142.9  23.7  34108  288.69 0854.35
2009/04/23 16:54:23.2     320   -347    360    473    594 137.4  41.2  34094  288.47 0854.35
2009/04/23 16:54:23.3     303   -305    334    430    544 135.2  41.7  34104  288.64 0854.34
2009/04/23 16:54:23.4     326   -332    308    466    558 135.5  36.5  34100  288.55 0854.34
2009/04/23 16:54:23.5     220   -219    222    311    382 134.8  39.2  34110  288.74 0854.34
2009/04/23 16:54:23.6     183    -68    222    196    296 110.4  54.2  34124  288.97 0854.34
2009/04/23 16:54:23.7     116     -3     16    117    119  91.7   8.0  34120  288.89 0854.34
2009/04/23 16:54:23.8     -35    -49     73     61     95 216.1  56.3  34126  288.99 0854.34
2009/04/23 16:54:23.9      18   -114     86    116    144 170.7  39.7  34120  288.89 0854.34
2009/04/23 16:54:24.0     239   -126    105    271    290 117.8  22.3  34114  288.78 0854.34
2009/04/23 16:54:24.1     302   -134     96    331    345 114.0  16.3  34108  288.69 0854.34
2009/04/23 16:54:24.2     263   -135    190    296    351 117.3  35.7  34110  288.74 0854.34
2009/04/23 16:54:24.3     154   -151    254    216    333 134.4  55.5  34114  288.80 0854.34
2009/04/23 16:54:24.4      29   -262    221    264    344 173.5  44.1  34124  288.95 0854.34
2009/04/23 16:54:24.5     107   -100    199    147    247 133.1  60.0  34120  288.91 0854.34
2009/04/23 16:54:24.7     117     16    200    119    232  82.0  66.4  34132  289.11 0854.34
2009/04/23 16:54:24.8     187    -42    195    192    273 102.8  50.2  34108  288.68 0854.34
2009/04/23 16:54:24.9     252   -286    275    382    470 138.6  39.3  34104  288.63 0854.34
2009/04/23 16:54:25.0     114   -294    276    316    419 158.8  45.6  34114  288.79 0854.34
2009/04/23 16:54:25.1     190   -352    207    401    451 151.6  29.3  34122  288.92 0854.34
2009/04/23 16:54:25.2     384   -385    216    544    585 135.1  23.0  34106  288.66 0854.34
2009/04/23 16:54:25.3     417   -268    152    496    519 122.8  17.0  34108  288.69 0854.34
2009/04/23 16:54:25.4     432   -206    143    479    501 115.5  16.7  34116  288.81 0854.35
2009/04/23 16:54:25.5     244   -244    134    346    371 135.0  22.4  34126  288.99 0854.35
2009/04/23 16:54:25.6     396   -164    -17    429    430 112.5  -2.3  34108  288.70 0854.35
2009/04/23 16:54:25.7     451   -212      6    499    500 115.2   0.7  34108  288.68 0854.35
2009/04/23 16:54:25.8     436   -113    163    451    480 104.6  19.9  34112  288.76 0854.35
2009/04/23 16:54:25.9     407   -163    129    439    458 111.9  16.4  34114  288.78 0854.35
2009/04/23 16:54:26.0     195   -122     80    231    245 122.0  19.2  34112  288.76 0854.35
2009/04/23 16:54:26.1     134    -63     70    149    164 115.4  27.0  34116  288.82 0854.35
2009/04/23 16:54:26.2     140   -186    109    233    257 143.0  27.0  34114  288.78 0854.35
2009/04/23 16:54:26.3     163   -212     68    268    277 142.4  14.3  34114  288.78 0854.35
2009/04/23 16:54:26.4     226   -260     70    345    353 139.0  11.6  34110  288.74 0854.35
2009/04/23 16:54:26.5     162   -283    133    327    353 150.2  23.4  34110  288.74 0854.35
2009/04/23 16:54:26.6     307   -386    106    494    506 141.5  12.1  34100  288.57 0854.35
2009/04/23 16:54:26.7     351   -515    126    624    637 145.7  11.5  34100  288.55 0854.35
2009/04/23 16:54:26.8      92   -482    302    491    576 169.1  34.5  34098  288.53 0854.35
2009/04/23 16:54:26.9     135   -446    385    467    605 163.1  43.7  34142  289.28 0854.35
2009/04/23 16:54:27.0     241   -555    287    606    670 156.5  27.1  34100  288.55 0854.35
2009/04/23 16:54:27.1     170   -453    227    484    534 159.4  27.1  34100  288.54 0854.35
2009/04/23 16:54:27.2     343   -434     42    554    556 141.7   4.4  34104  288.63 0854.35
2009/04/23 16:54:27.3     258   -587     39    642    644 156.3   3.5  34096  288.49 0854.35
2009/04/23 16:54:27.4     305   -421    -57    521    525 144.0  -6.3  34100  288.57 0854.35
2009/04/23 16:54:27.5     179   -487     13    519    520 159.8   1.5  34096  288.50 0854.35
2009/04/23 16:54:27.6       6   -483    156    484    509 179.3  17.9  34114  288.78 0854.35
2009/04/23 16:54:27.7      30   -355    353    357    502 175.1  49.9  34126  289.00 0854.35
2009/04/23 16:54:27.8     132   -214    249    252    354 148.4  49.9  34124  288.97 0854.35
2009/04/23 16:54:27.9     415      5     -1    416    417  89.2  -0.3  34118  288.87 0854.35
2009/04/23 16:54:28.0     252    -81     92    265    281 107.8  19.2  34116  288.83 0854.35
2009/04/23 16:54:28.1     207   -175     85    272    286 130.2  17.4  34114  288.78 0854.35
2009/04/23 16:54:28.2      81   -155    -64    176    187 152.4 -25.1  34106  288.67 0854.35
2009/04/23 16:54:28.3      -7   -225   -132    226    261 182.0 -37.5  34122  288.92 0854.35
2009/04/23 16:54:28.4     -90     73     14    117    118 309.1   6.9  34108  288.69 0854.35
2009/04/23 16:54:28.5    -220    200     20    298    299 312.2   3.9  34112  288.75 0854.35
2009/04/23 16:54:28.6    -166    175    -39    242    246 316.6  -9.3  34112  288.76 0854.35
2009/04/23 16:54:28.7     -90    153     -5    178    179 329.5  -1.8  34110  288.72 0854.35
2009/04/23 16:54:28.8      44    176     49    182    189  14.0  15.3  34118  288.86 0854.35
2009/04/23 16:54:28.9     -44    164     55    170    179 344.9  17.9  34116  288.84 0854.35
2009/04/23 16:54:29.0     -16    113    -32    115    119 351.9 -20.2  34120  288.91 0854.35
2009/04/23 16:54:29.1      87    122    -90    151    175  35.6 -38.4  34124  288.97 0854.35
2009/04/23 16:54:29.2      82    -22   -116     86    144 105.5 -64.9  34130  289.08 0854.35
2009/04/23 16:54:29.3     247      4     58    248    255  89.0  13.2  34118  288.85 0854.35
2009/04/23 16:54:29.4     179    -58    125    189    226 108.2  36.5  34112  288.75 0854.35
2009/04/23 16:54:29.5     199    -44     52    204    211 102.6  14.3  34110  288.74 0854.35
2009/04/23 16:54:29.6     254   -161     70    301    310 122.4  13.2  34106  288.66 0854.35
2009/04/23 16:54:29.7     189   -198    107    274    294 136.3  22.5  34100  288.54 0854.35
2009/04/23 16:54:29.8      61   -323    161    329    366 169.2  28.0  34104  288.62 0854.35
2009/04/23 16:54:29.9       7   -444    231    445    501 179.0  29.6  34092  288.42 0854.35
2009/04/23 16:54:30.0     131   -396     66    418    424 161.7   9.0  34096  288.48 0854.35
2009/04/23 16:54:30.1     180   -352     33    396    398 152.8   4.9  34096  288.49 0854.35
2009/04/23 16:54:30.2     122   -369    119    389    407 161.7  17.0  34090  288.38 0854.35
2009/04/23 16:54:30.3     220   -386    141    445    467 150.4  17.7  34094  288.46 0854.35
2009/04/23 16:54:30.4     325   -367    111    491    504 138.5  12.8  34092  288.42 0854.35
2009/04/23 16:54:30.5     285   -321    201    430    474 138.5  26.7  34090  288.38 0854.35
2009/04/23 16:54:30.6     215   -388    233    444    501 151.0  29.9  34100  288.56 0854.35
2009/04/23 16:54:30.7     169   -470     95    500    510 160.2  10.8  34094  288.46 0854.35
2009/04/23 16:54:30.8     221   -662    287    699    755 161.5  23.6  34078  288.18 0854.35
2009/04/23 16:54:30.9     414   -547    219    687    722 142.9  17.7  34082  288.25 0854.35
2009/04/23 16:54:31.0     340   -713     70    790    794 154.5   5.1  34094  288.44 0854.35
2009/04/23 16:54:31.1     306   -559    140    638    654 151.3  12.4  34078  288.18 0854.35
2009/04/23 16:54:31.2     268   -474    453    545    708 150.5  44.0  34088  288.36 0854.35
2009/04/23 16:54:31.3     202   -700    280    729    780 163.9  22.1  34072  288.08 0854.35
2009/04/23 16:54:31.4       9   -549    260    550    608 179.0  27.1  34094  288.46 0854.35
2009/04/23 16:54:31.5      -5   -556    307    557    636 180.6  31.3  34106  288.66 0854.35
2009/04/23 16:54:31.6      -4   -544    171    545    572 180.5  17.4  34092  288.41 0854.35
2009/04/23 16:54:31.7     -99   -580     -3    589    590 189.7  -0.4  34090  288.39 0854.35
2009/04/23 16:54:31.8     -79   -436    -45    444    447 190.3  -5.9  34094  288.45 0854.35
2009/04/23 16:54:31.9    -108   -331   -113    349    366 198.0 -23.3  34094  288.44 0854.35
2009/04/23 16:54:32.0     150   -447    164    472    500 161.4  19.2  34068  288.03 0854.35
2009/04/23 16:54:32.1      30   -348    123    350    372 175.0  19.4  34090  288.40 0854.35
2009/04/23 16:54:32.2    -123   -241    200    271    336 207.1  40.0  34088  288.34 0854.35
2009/04/23 16:54:32.3     -67   -103    220    124    252 213.0  68.1  34108  288.69 0854.35
2009/04/23 16:54:32.4     -49    -93    115    106    156 207.6  52.2  34098  288.53 0854.35
2009/04/23 16:54:32.5      21     79     95     82    125  15.1  54.3  34112  288.75 0854.35
2009/04/23 16:54:32.6      46   -140    122    148    191 161.7  43.8  34108  288.70 0854.35
2009/04/23 16:54:32.7      11   -154     11    155    156 175.6   4.4  34092  288.43 0854.35
2009/04/23 16:54:32.8      35   -206      2    209    210 170.3   0.8  34094  288.45 0854.35
2009/04/23 16:54:32.9       9   -181      3    182    183 176.9   1.2  34088  288.35 0854.35
2009/04/23 16:54:33.0     114   -132     55    175    184 139.2  17.7  34090  288.40 0854.35
2009/04/23 16:54:33.1     187   -111     97    218    238 120.6  25.7  34092  288.43 0854.35
2009/04/23 16:54:33.2     -32    -77    178     84    196 202.7  73.1  34100  288.55 0854.35
2009/04/23 16:54:33.3     148     74    125    166    207  63.4  40.9  34090  288.38 0854.35
2009/04/23 16:54:33.4     130   -112      8    172    173 130.9   2.9  34098  288.53 0854.34
2009/04/23 16:54:33.5      95    -31    -43    101    109 108.4 -29.0  34102  288.60 0854.34
2009/04/23 16:54:33.6      64      6    -45     65     79  83.9 -42.4  34102  288.60 0854.34
2009/04/23 16:54:33.7      24     30    -77     39     86  39.7 -75.2  34106  288.67 0854.34
2009/04/23 16:54:33.8      47     99   -114    110    158  25.4 -55.3  34096  288.50 0854.34
2009/04/23 16:54:33.9      40    203    -66    208    218  11.3 -22.8  34092  288.42 0854.34
2009/04/23 16:54:34.0       0    110   -126    111    167   0.0 -58.7  34096  288.48 0854.34
2009/04/23 16:54:34.1      19     71    -93     74    118  15.2 -62.3  34094  288.45 0854.34
2009/04/23 16:54:34.2     -20     49   -105     54    118 337.3 -75.4  34100  288.57 0854.34
2009/04/23 16:54:34.3      11    101   -110    102    150   6.7 -56.6  34106  288.65 0854.34
2009/04/23 16:54:34.4      66    -93    -11    115    116 144.8  -5.6  34102  288.58 0854.34
2009/04/23 16:54:34.5      28    -71      3     77     78 158.1   2.8  34096  288.48 0854.34
2009/04/23 16:54:34.6      84   -297    132    309    336 164.2  24.5  34086  288.31 0854.34
2009/04/23 16:54:34.7     -42   -403    180    406    444 186.0  25.6  34080  288.23 0854.34
2009/04/23 16:54:34.8    -153   -366    198    397    443 202.7  28.4  34076  288.16 0854.34
2009/04/23 16:54:34.9      32   -251    205    254    326 172.7  43.1  34086  288.32 0854.34
2009/04/23 16:54:35.0     -33   -438    130    440    459 184.4  16.5  34080  288.23 0854.34
2009/04/23 16:54:35.1      23   -505    118    506    520 177.3  13.1  34074  288.13 0854.34
2009/04/23 16:54:35.2       8   -512    184    513    545 179.1  20.4  34074  288.13 0854.34
2009/04/23 16:54:35.3     -60   -415    219    420    473 188.3  29.8  34088  288.34 0854.34
2009/04/23 16:54:35.4      16   -457    170    458    488 177.9  21.4  34084  288.27 0854.34
2009/04/23 16:54:35.5     230   -434    196    492    529 152.0  23.0  34082  288.25 0854.34
2009/04/23 16:54:35.6     507   -535    327    738    807 136.6  25.6  34082  288.25 0854.34
2009/04/23 16:54:35.7     410   -734    239    841    875 150.8  15.9  34076  288.14 0854.34
2009/04/23 16:54:35.8     236   -622    421    666    787 159.2  35.3  34076  288.16 0854.34
2009/04/23 16:54:35.9     597   -620    622    861   1062 136.1  39.5  34098  288.53 0854.34
2009/04/23 16:54:36.0     432   -410    375    596    704 133.5  35.1  34064  287.94 0854.34
2009/04/23 16:54:36.1     424   -247    292    491    571 120.2  33.5  34074  288.11 0854.34
2009/04/23 16:54:36.2     271    -77    181    282    335 105.9  35.6  34082  288.26 0854.34
2009/04/23 16:54:36.3     205    -55     65    213    223 105.1  17.1  34082  288.26 0854.34
2009/04/23 16:54:36.4     167     73    -43    183    189  66.5 -13.4  34092  288.43 0854.34
2009/04/23 16:54:36.5     110   -321    114    340    359 161.0  18.6  34088  288.35 0854.34
2009/04/23 16:54:36.6     181   -213    115    280    302 139.7  23.1  34084  288.27 0854.34
2009/04/23 16:54:36.7     165   -125     -8    208    209 127.1  -2.2  34090  288.40 0854.34
2009/04/23 16:54:36.8     168   -172     79    241    254 135.7  18.1  34094  288.44 0854.34
2009/04/23 16:54:36.9     140   -115     20    182    184 129.5   6.5  34090  288.40 0854.34
2009/04/23 16:54:37.0     215   -109    -21    242    244 117.0  -5.1  34086  288.31 0854.34
2009/04/23 16:54:37.1     194   -310     78    366    375 147.9  12.1  34086  288.33 0854.34
2009/04/23 16:54:37.2     261   -461      9    530    531 150.5   1.0  34098  288.52 0854.34
2009/04/23 16:54:37.3     336   -406   -107    528    539 140.4 -11.5  34100  288.55 0854.34
2009/04/23 16:54:37.4     192   -407   -170    451    481 154.7 -26.0  34100  288.57 0854.35
2009/04/23 16:54:37.5      62   -110   -214    127    248 150.6 -71.2  34094  288.47 0854.35
2009/04/23 16:54:37.6     -63    -96   -132    116    175 213.4 -58.7  34100  288.57 0854.35
2009/04/23 16:54:37.7     114   -271    -64    295    303 157.2 -12.4  34102  288.59 0854.35
2009/04/23 16:54:37.8      -2   -239   -111    240    264 180.7 -31.4  34106  288.66 0854.35
2009/04/23 16:54:37.9     202   -118     33    235    238 120.4   8.0  34102  288.58 0854.35
2009/04/23 16:54:38.0     263   -180     42    319    322 124.4   7.6  34106  288.65 0854.35
2009/04/23 16:54:38.1     219   -323    -20    391    392 145.8  -3.0  34106  288.66 0854.35
2009/04/23 16:54:38.2     235   -409      3    472    473 150.1   0.4  34098  288.51 0854.35
2009/04/23 16:54:38.3     101   -525    124    535    550 169.1  13.1  34108  288.69 0854.35
2009/04/23 16:54:38.4     203   -518     11    557    558 158.6   1.2  34096  288.48 0854.35
2009/04/23 16:54:38.5     306   -534     47    616    618 150.2   4.4  34102  288.59 0854.35
2009/04/23 16:54:38.6     184   -482    -20    517    518 159.1  -2.2  34098  288.51 0854.35
2009/04/23 16:54:38.7     155   -466     44    492    495 161.6   5.2  34104  288.64 0854.35
2009/04/23 16:54:38.8     -33   -483    -51    485    488 184.0  -6.1  34100  288.56 0854.35
2009/04/23 16:54:38.9     115   -621     25    632    633 169.5   2.3  34106  288.67 0854.35
2009/04/23 16:54:39.0      31   -558    -12    559    560 176.8  -1.3  34112  288.75 0854.35
2009/04/23 16:54:39.1     116   -430   -105    446    459 164.9 -13.3  34108  288.70 0854.35
2009/04/23 16:54:39.2      79   -422    -45    430    433 169.3  -6.1  34102  288.58 0854.35
2009/04/23 16:54:39.3     264   -559    -73    619    624 154.7  -6.8  34102  288.60 0854.35
2009/04/23 16:54:39.4     368   -567    -80    677    682 147.0  -6.8  34090  288.39 0854.35
2009/04/23 16:54:39.5     424   -579    -51    718    720 143.8  -4.1  34084  288.29 0854.35
2009/04/23 16:54:39.6     396   -622     56    738    740 147.5   4.4  34074  288.11 0854.35
2009/04/23 16:54:39.7     289   -629    150    693    710 155.3  12.3  34072  288.08 0854.35
2009/04/23 16:54:39.8     479   -578    176    751    772 140.4  13.2  34076  288.14 0854.35
2009/04/23 16:54:39.9     208   -605    143    641    657 161.0  12.6  34100  288.54 0854.35
2009/04/23 16:54:40.0     233   -421    161    482    509 151.0  18.5  34098  288.51 0854.35
2009/04/23 16:54:40.1     203   -572    169    608    632 160.4  15.6  34102  288.60 0854.35
2009/04/23 16:54:40.2     389   -375     46    541    544 134.0   4.9  34106  288.65 0854.35
2009/04/23 16:54:40.3     335   -314    -20    460    461 133.2  -2.5  34104  288.63 0854.35
2009/04/23 16:54:40.4     109   -336   -249    354    432 162.0 -43.0  34102  288.60 0854.35
2009/04/23 16:54:40.5     194   -336   -136    389    413 150.0 -19.3  34108  288.68 0854.35
2009/04/23 16:54:40.6     152   -500    -22    523    524 163.1  -2.5  34106  288.65 0854.35
2009/04/23 16:54:40.7     186   -558      7    589    590 161.6   0.7  34102  288.58 0854.35
2009/04/23 16:54:40.8     278   -505     -2    577    578 151.2  -0.3  34092  288.42 0854.35
2009/04/23 16:54:40.9     188   -188    -74    266    277 135.0 -15.5  34098  288.51 0854.35
2009/04/23 16:54:41.0     267   -299   -152    402    429 138.2 -26.1  34098  288.51 0854.35
2009/04/23 16:54:41.1     235   -358   -118    429    446 146.7 -15.4  34100  288.55 0854.35
2009/04/23 16:54:41.2     -67   -464    -77    469    476 188.3  -9.3  34094  288.46 0854.35
2009/04/23 16:54:41.3      56   -610     35    613    614 174.7   3.3  34102  288.58 0854.35
2009/04/23 16:54:41.4     181   -545    -42    575    577 161.6  -4.2  34102  288.59 0854.34
2009/04/23 16:54:41.5     167   -555    -83    580    587 163.2  -8.2  34096  288.49 0854.34
2009/04/23 16:54:41.6     -59   -369   -188    374    418 189.2 -33.1  34096  288.50 0854.34
2009/04/23 16:54:41.7       2   -148    -30    149    152 179.1 -11.5  34098  288.53 0854.34
2009/04/23 16:54:41.8     452   -485     75    664    669 137.0   6.5  34080  288.21 0854.34
2009/04/23 16:54:41.9     614   -388     90    727    733 122.3   7.1  34096  288.49 0854.34
2009/04/23 16:54:42.0     304   -327    -24    447    448 137.1  -3.2  34102  288.60 0854.34
2009/04/23 16:54:42.1     272   -258     46    376    379 133.5   7.1  34100  288.54 0854.34
2009/04/23 16:54:42.2     246   -378   -134    452    472 146.9 -16.5  34090  288.40 0854.34
2009/04/23 16:54:42.3     398   -257     72    475    481 122.9   8.7  34098  288.52 0854.34
2009/04/23 16:54:42.4     446   -506     88    675    681 138.6   7.5  34084  288.29 0854.34
2009/04/23 16:54:42.5     358   -595      5    695    696 149.0   0.5  34082  288.24 0854.34
2009/04/23 16:54:42.6     313   -643      4    716    717 154.0   0.3  34084  288.30 0854.34
2009/04/23 16:54:42.7     336   -507    -27    609    610 146.4  -2.6  34078  288.20 0854.34
2009/04/23 16:54:42.8     364   -452      8    581    582 141.2   0.8  34068  288.00 0854.34
2009/04/23 16:54:42.9     305   -572     67    649    653 151.9   5.9  34066  287.98 0854.34
2009/04/23 16:54:43.0     314   -469     32    565    566 146.2   3.3  34078  288.19 0854.34
2009/04/23 16:54:43.1     555   -505    -54    751    753 132.3  -4.1  34088  288.35 0854.34
2009/04/23 16:54:43.2     530   -581     34    787    788 137.6   2.5  34056  287.81 0854.34
2009/04/23 16:54:43.3     474   -613     73    775    779 142.3   5.4  34064  287.95 0854.34
2009/04/23 16:54:43.4     349   -581     34    679    680 149.0   2.9  34086  288.33 0854.34
2009/04/23 16:54:43.5     270   -640    117    695    705 157.1   9.6  34074  288.12 0854.34
2009/04/23 16:54:43.6     236   -749    269    786    832 162.5  18.9  34052  287.76 0854.34
2009/04/23 16:54:43.7     455   -721    142    853    865 147.8   9.5  34066  287.99 0854.34
2009/04/23 16:54:43.8     392   -700    213    803    831 150.7  14.9  34076  288.15 0854.34
2009/04/23 16:54:43.9     324   -484    196    583    616 146.2  18.6  34084  288.27 0854.34
2009/04/23 16:54:44.0     229   -543    334    590    677 157.1  32.0  34078  288.20 0854.34
2009/04/23 16:54:44.1     250   -516    252    574    626 154.1  25.3  34084  288.29 0854.34
2009/04/23 16:54:44.2     109   -493     89    506    514 167.5  10.0  34078  288.17 0854.34
2009/04/23 16:54:44.3      28   -522     81    523    530 176.9   8.9  34080  288.21 0854.34
2009/04/23 16:54:44.4      66   -196    -66    208    219 161.3 -17.6  34084  288.30 0854.34
2009/04/23 16:54:44.5     192   -111    -73    222    233 120.0 -23.8  34086  288.31 0854.34
2009/04/23 16:54:44.6     298    -60    -56    305    311 101.5 -10.4  34090  288.39 0854.34
2009/04/23 16:54:44.7     370   -142     20    397    398 111.1   2.9  34094  288.44 0854.34
2009/04/23 16:54:44.8     230   -214    112    315    334 132.9  20.3  34090  288.39 0854.34
2009/04/23 16:54:44.9     148   -195     34    246    249 142.8   8.0  34092  288.43 0854.34
2009/04/23 16:54:45.0     171   -190    -78    256    267 138.1 -21.8  34092  288.41 0854.34
2009/04/23 16:54:45.1     -31   -325    212    327    389 185.6  35.6  34084  288.27 0854.34
2009/04/23 16:54:45.2     134    -48     82    143    164 110.0  32.7  34086  288.31 0854.34
2009/04/23 16:54:45.3      98    -31    -81    103    131 107.7 -47.1  34078  288.20 0854.34
2009/04/23 16:54:45.4      33   -239    288    242    376 172.0  55.8  34068  288.03 0854.34
2009/04/23 16:54:45.5     340   -319    340    467    577 133.1  39.7  34064  287.96 0854.34
2009/04/23 16:54:45.6     175   -346    242    388    457 153.2  35.2  34072  288.09 0854.34
2009/04/23 16:54:45.7     506   -119    159    520    544 103.3  17.1  34074  288.11 0854.34
2009/04/23 16:54:45.8     170   -192    108    257    278 138.6  24.1  34076  288.14 0854.34
2009/04/23 16:54:45.9     -33   -238    -70    241    250 188.0 -21.0  34084  288.27 0854.34
2009/04/23 16:54:46.0     105   -177    -73    206    218 149.3 -24.6  34076  288.16 0854.34
2009/04/23 16:54:46.1     274      0     23    275    277  90.0   5.0  34070  288.04 0854.34
2009/04/23 16:54:46.2     241   -164    292    292    412 124.2  50.1  34074  288.11 0854.34
2009/04/23 16:54:46.3      41   -371    304    374    481 173.7  43.3  34074  288.12 0854.34
2009/04/23 16:54:46.4     -44   -292    156    296    334 188.7  30.1  34078  288.17 0854.34
2009/04/23 16:54:46.5     -23    -93    222     96    241 194.3  75.3  34080  288.21 0854.34
2009/04/23 16:54:46.6     239     17    306    240    388  85.9  57.9  34078  288.20 0854.34
2009/04/23 16:54:46.7     557   -220    247    600    648 111.6  23.7  34068  288.03 0854.34
2009/04/23 16:54:46.8     361   -325    252    486    547 132.0  29.6  34074  288.11 0854.34
2009/04/23 16:54:46.9     339   -246    321    420    528 126.0  41.2  34074  288.10 0854.34
2009/04/23 16:54:47.0     167   -284    288    330    438 149.6  45.8  34084  288.28 0854.34
2009/04/23 16:54:47.1     122   -182    190    220    290 146.2  45.4  34086  288.32 0854.34
2009/04/23 16:54:47.2     215   -421    183    473    507 152.9  22.3  34076  288.15 0854.34
2009/04/23 16:54:47.3     231   -425    213    484    528 151.4  25.2  34072  288.08 0854.34
2009/04/23 16:54:47.4     159   -449    348    477    590 160.4  39.7  34084  288.30 0854.34
2009/04/23 16:54:47.5     241   -316    337    398    521 142.7  44.4  34074  288.13 0854.34
2009/04/23 16:54:47.6     333   -241    219    412    466 126.0  30.3  34072  288.09 0854.34
2009/04/23 16:54:47.7     227   -278    300    360    468 140.8  44.2  34094  288.46 0854.34
2009/04/23 16:54:47.8     255   -349    350    433    556 143.8  43.1  34094  288.44 0854.34
2009/04/23 16:54:47.9     172   -384    285    421    508 155.8  37.4  34084  288.27 0854.34
2009/04/23 16:54:48.0      38   -367    194    370    417 174.0  30.0  34084  288.28 0854.34
2009/04/23 16:54:48.1     314   -139    295    344    453 113.9  45.0  34118  288.85 0854.34
2009/04/23 16:54:48.2     326   -188    163    377    410 119.9  25.0  34094  288.45 0854.34
2009/04/23 16:54:48.3     252   -188    104    315    332 126.8  18.4  34090  288.37 0854.34
2009/04/23 16:54:48.4      91   -137     99    165    192 146.4  34.2  34082  288.26 0854.34
2009/04/23 16:54:48.5     229   -194     34    301    303 130.2   6.5  34092  288.43 0854.34
2009/04/23 16:54:48.6     297   -130    109    325    343 113.7  18.6  34090  288.38 0854.34
2009/04/23 16:54:48.7     228    -44    114    233    259 101.0  28.0  34088  288.36 0854.34
2009/04/23 16:54:48.8     127   -181    119    222    251 145.0  30.3  34084  288.27 0854.34
2009/04/23 16:54:48.9     171   -150    122    228    258 131.3  30.6  34082  288.26 0854.34
2009/04/23 16:54:49.0      70   -136     99    154    183 152.8  35.6  34086  288.31 0854.34
2009/04/23 16:54:49.1     -13   -176    113    177    209 184.5  35.6  34080  288.21 0854.34
2009/04/23 16:54:49.2       3   -271    185    272    328 179.3  37.4  34082  288.24 0854.34
2009/04/23 16:54:49.3     -71   -281    175    290    338 194.3  34.0  34078  288.17 0854.34
2009/04/23 16:54:49.4      48   -244     51    249    255 168.7  11.6  34080  288.21 0854.34
2009/04/23 16:54:49.5      22   -146    -35    148    153 171.1 -13.4  34080  288.21 0854.34
2009/04/23 16:54:49.6      95   -142     44    172    178 146.2  14.5  34076  288.16 0854.34
2009/04/23 16:54:49.7     123   -168     84    209    225 143.9  23.1  34078  288.20 0854.34
2009/04/23 16:54:49.8     146   -136    110    200    228 132.9  31.4  34074  288.13 0854.34
2009/04/23 16:54:49.9      23    -96    181     99    206 166.2  69.1  34088  288.35 0854.34
2009/04/23 16:54:50.0      93    -33    147     99    177 109.5  62.8  34092  288.43 0854.34
2009/04/23 16:54:50.1     128    -34    179    133    223 105.1  60.0  34068  288.01 0854.34
2009/04/23 16:54:50.2      85   -134    319    160    356 147.5  71.4  34076  288.14 0854.34
2009/04/23 16:54:50.3     184   -145    248    235    341 128.2  51.9  34068  288.00 0854.34
2009/04/23 16:54:50.4     173   -223    233    283    366 142.2  43.7  34068  288.03 0854.33
2009/04/23 16:54:50.5     372   -262    232    456    511 125.2  29.2  34064  287.93 0854.33
2009/04/23 16:54:50.6     457   -150     91    481    490 108.2  10.8  34072  288.07 0854.33
2009/04/23 16:54:50.8     184   -444    254    481    543 157.4  30.1  34060  287.89 0854.33
2009/04/23 16:54:50.8     264   -369   -154    455    481 144.4 -18.7  34066  287.98 0854.33
2009/04/23 16:54:50.9     243   -176    -29    301    303 126.0  -5.6  34072  288.07 0854.33
2009/04/23 16:54:51.1     207   -108     -9    234    235 117.5  -2.2  34070  288.05 0854.33
2009/04/23 16:54:51.2     271    -90     51    286    291 108.4  10.1  34060  287.88 0854.33
2009/04/23 16:54:51.3     156   -132    -26    205    207 130.2  -7.5  34068  288.01 0854.33
2009/04/23 16:54:51.4     121   -110     16    164    165 132.2   5.9  34060  287.89 0854.33
2009/04/23 16:54:51.5    -118   -199     23    232    234 210.7   5.7  34062  287.92 0854.33
2009/04/23 16:54:51.6     120   -198    -32    232    235 148.8  -8.0  34064  287.95 0854.33
2009/04/23 16:54:51.7     147   -189     48    240    245 142.2  11.4  34060  287.88 0854.33
2009/04/23 16:54:51.8    -176   -312    -55    359    364 209.4  -8.7  34066  287.98 0854.33
2009/04/23 16:54:51.9     -65   -434   -123    439    455 188.6 -20.3  34062  287.92 0854.33
2009/04/23 16:54:52.0     290   -446    156    533    556 146.9  16.3  34062  287.92 0854.33
2009/04/23 16:54:52.1     190   -570    -43    602    604 161.5  -4.1  34062  287.92 0854.33
2009/04/23 16:54:52.2     296   -345    -71    455    461 139.4  -8.9  34066  287.97 0854.33
2009/04/23 16:54:52.3     295   -185   -132    349    373 122.1 -26.1  34064  287.93 0854.33
2009/04/23 16:54:52.4     127   -387    -78    408    416 161.9 -10.9  34058  287.84 0854.33
2009/04/23 16:54:52.5     155   -409    141    438    461 159.2  17.8  34064  287.95 0854.33
2009/04/23 16:54:52.6     189   -298     66    354    361 147.6  10.6  34066  287.98 0854.33
2009/04/23 16:54:52.7     126   -288     95    315    330 156.3  16.8  34068  288.02 0854.33
2009/04/23 16:54:52.8     136   -318    -73    347    355 156.8 -12.0  34068  288.00 0854.33
2009/04/23 16:54:52.9      15   -276   -259    277    379 176.9 -52.4  34064  287.96 0854.33
2009/04/23 16:54:53.0     -34   -213   -222    216    309 189.1 -55.1  34074  288.10 0854.33
2009/04/23 16:54:53.1     -23   -215   -152    217    264 186.2 -43.0  34076  288.14 0854.33
2009/04/23 16:54:53.2      28   -322   -161    324    361 175.0 -32.8  34064  287.94 0854.33
2009/04/23 16:54:53.3     317   -145     15    349    350 114.6   2.5  34058  287.84 0854.33
2009/04/23 16:54:53.4     170    121    -80    209    223  54.5 -26.1  34068  288.03 0854.33
2009/04/23 16:54:53.5     -74   -111   -205    134    244 213.8 -68.3  34070  288.06 0854.33
2009/04/23 16:54:53.6      24   -119   -186    122    222 168.4 -68.5  34074  288.11 0854.33
2009/04/23 16:54:53.7    -145     12   -159    146    215 274.8 -56.9  34080  288.21 0854.33
2009/04/23 16:54:53.8    -106    -43    -32    115    120 247.8 -15.5  34076  288.16 0854.33
2009/04/23 16:54:53.9      71    -64     45     96    106 132.2  27.1  34080  288.21 0854.33
2009/04/23 16:54:54.0      57   -283    -15    289    290 168.4  -3.1  34074  288.10 0854.33
2009/04/23 16:54:54.1     -39   -289   -220    292    365 187.8 -45.2  34078  288.20 0854.33
2009/04/23 16:54:54.2      24   -266   -305    268    406 174.7 -58.7  34070  288.06 0854.33
2009/04/23 16:54:54.3    -169    -19   -333    171    374 263.4 -75.2  34086  288.31 0854.33
2009/04/23 16:54:54.4      57    -88   -140    105    175 147.0 -63.8  34086  288.31 0854.33
2009/04/23 16:54:54.5    -213     64   -267    223    347 286.8 -60.6  34086  288.32 0854.33
2009/04/23 16:54:54.6     -62     64   -101     90    135 315.9 -58.6  34090  288.38 0854.33
2009/04/23 16:54:54.7      26     92    -49     96    107  16.0 -32.6  34084  288.28 0854.33
2009/04/23 16:54:54.8     103    171    -53    200    208  31.2 -15.0  34078  288.20 0854.33
2009/04/23 16:54:54.9     269     45    179    273    326  80.4  36.4  34070  288.05 0854.33
2009/04/23 16:54:55.0     428     35    280    430    513  85.3  36.2  34068  288.02 0854.33
2009/04/23 16:54:55.1     305     11    227    306    381  87.9  40.0  34076  288.15 0854.33
2009/04/23 16:54:55.2     430   -172    108    464    477 111.8  13.1  34064  287.95 0854.33
2009/04/23 16:54:55.3     427      0    206    428    474  90.0  27.7  34062  287.90 0854.33
2009/04/23 16:54:55.4     559    -67     -4    564    565  96.9  -0.5  34068  288.03 0854.33
2009/04/23 16:54:55.5     403   -133    151    425    451 108.3  20.4  34066  287.99 0854.33
2009/04/23 16:54:55.6     135    -92    243    164    293 124.2  62.7  34078  288.17 0854.33
2009/04/23 16:54:55.7     235    -85    247    251    352 110.0  49.7  34076  288.14 0854.33
2009/04/23 16:54:55.8      74   -273     -1    283    284 164.8  -0.3  34072  288.09 0854.33
2009/04/23 16:54:55.9     195   -129    -73    235    247 123.5 -17.3  34078  288.19 0854.33
2009/04/23 16:54:56.0     246   -133     18    280    281 118.4   3.8  34078  288.17 0854.33
2009/04/23 16:54:56.1     330    -66     42    337    340 101.4   7.1  34084  288.28 0854.33
2009/04/23 16:54:56.2     325    -42    170    328    369  97.5  29.4  34072  288.08 0854.33
2009/04/23 16:54:56.3     240   -233    211    335    395 134.2  35.2  34076  288.15 0854.33
2009/04/23 16:54:56.4    -186   -395    354    437    562 205.3  43.1  34078  288.19 0854.33
2009/04/23 16:54:56.5       6   -373    308    374    484 179.0  43.7  34082  288.24 0854.35
2009/04/23 16:54:56.6     -54   -218    245    225    332 194.0  52.7  34084  288.29 0854.35
2009/04/23 16:54:56.7    -134   -316    179    344    387 202.9  29.5  34078  288.20 0854.35
2009/04/23 16:54:56.8    -269   -347    205    440    485 217.8  26.7  34084  288.29 0854.35
2009/04/23 16:54:56.9    -256   -384     82    462    470 213.7  10.1  34084  288.29 0854.35
2009/04/23 16:54:57.0    -171   -544    145    571    590 197.5  14.3  34082  288.26 0854.35
2009/04/23 16:54:57.1    -234   -544    -74    593    598 203.3  -7.2  34084  288.29 0854.35
2009/04/23 16:54:57.2    -171   -645    -32    668    669 194.9  -2.8  34082  288.24 0854.35
2009/04/23 16:54:57.3     -95   -534     48    543    546 190.1   5.1  34078  288.19 0854.35
2009/04/23 16:54:57.4      -6   -347    -41    348    351 181.0  -6.8  34074  288.10 0854.35
2009/04/23 16:54:57.5     -48   -343    -99    347    362 188.1 -16.0  34076  288.15 0854.35
2009/04/23 16:54:57.6    -234   -436    -45    495    498 208.2  -5.2  34084  288.27 0854.35
2009/04/23 16:54:57.7    -166   -368   -145    404    429 204.3 -25.1  34086  288.31 0854.35
2009/04/23 16:54:57.8    -131   -429   -179    449    483 197.0 -27.4  34078  288.18 0854.35
2009/04/23 16:54:57.9    -102   -382   -140    396    421 195.1 -19.5  34078  288.19 0854.35
2009/04/23 16:54:58.0     -42   -361     34    364    366 186.7   5.4  34080  288.22 0854.35
2009/04/23 16:54:58.1      85   -435    -24    444    445 168.9  -3.2  34084  288.28 0854.35
2009/04/23 16:54:58.2      15   -489     -7    490    491 178.2  -0.9  34084  288.30 0854.35
2009/04/23 16:54:58.3      17   -502    -10    503    504 178.0  -1.2  34082  288.24 0854.35
2009/04/23 16:54:58.4     247   -450     67    514    519 151.2   7.5  34078  288.18 0854.35
2009/04/23 16:54:58.5     307   -561    -90    640    647 151.3  -8.0  34066  287.99 0854.35
2009/04/23 16:54:58.6     354   -545    -48    651    653 147.0  -4.2  34078  288.18 0854.35
2009/04/23 16:54:58.7      13   -371   -129    372    393 177.9 -24.3  34076  288.15 0854.35
2009/04/23 16:54:58.8    -138   -396   -151    420    446 199.3 -25.0  34086  288.31 0854.35
2009/04/23 16:54:58.9    -127   -464    -42    482    484 195.3  -5.1  34088  288.34 0854.35
2009/04/23 16:54:59.0    -126   -445    -90    463    472 195.9 -11.0  34088  288.34 0854.35
2009/04/23 16:54:59.1    -284   -354   -113    454    468 218.7 -14.1  34086  288.33 0854.35
2009/04/23 16:54:59.2    -324   -257    -83    414    423 231.6 -11.3  34094  288.46 0854.35
2009/04/23 16:54:59.3    -249   -336     84    419    428 216.6  11.4  34084  288.29 0854.35
2009/04/23 16:54:59.4    -275   -245     96    369    382 228.3  14.7  34090  288.40 0854.35
2009/04/23 16:54:59.5    -289   -310    -84    425    434 223.0 -11.2  34092  288.41 0854.35
2009/04/23 16:54:59.6    -243   -323   -144    405    430 217.0 -19.6  34098  288.53 0854.35
2009/04/23 16:54:59.7    -191   -316   -114    370    388 211.1 -17.2  34090  288.40 0854.35
2009/04/23 16:54:59.8    -119   -282    -37    307    310 202.9  -6.9  34092  288.43 0854.35
2009/04/23 16:54:59.9     -75   -360    -19    368    369 191.9  -3.0  34090  288.40 0854.35
2009/04/23 16:55:00.0    -206   -404    -41    454    456 207.1  -5.2  34088  288.36 0854.35
2009/04/23 16:55:00.1    -126   -348    -20    371    372 200.0  -3.1  34090  288.38 0854.35
2009/04/23 16:55:00.2    -199   -281    -86    345    356 215.4 -14.1  34090  288.40 0854.35
2009/04/23 16:55:00.3    -151   -253   -147    295    329 210.8 -32.8  34082  288.26 0854.35
2009/04/23 16:55:00.4    -185   -368    -84    413    422 206.7 -11.5  34090  288.39 0854.35
2009/04/23 16:55:00.5     -92   -384    -57    395    400 193.6  -8.2  34084  288.28 0854.36
2009/04/23 16:55:00.6    -199   -336    -55    391    396 210.7  -8.1  34086  288.32 0854.36
2009/04/23 16:55:00.7    -167   -311    -33    354    356 208.2  -5.5  34090  288.38 0854.36
2009/04/23 16:55:00.8     -75   -396     -1    404    405 190.7  -0.3  34088  288.34 0854.36
2009/04/23 16:55:00.9    -102   -484    -19    495    496 192.0  -2.2  34084  288.29 0854.36
2009/04/23 16:55:01.0      96   -473     35    483    485 168.5   4.2  34078  288.20 0854.36
2009/04/23 16:55:01.1      63   -491    -67    496    501 172.7  -7.7  34074  288.13 0854.36
2009/04/23 16:55:01.2     -12   -446    -90    447    456 181.6 -11.5  34078  288.17 0854.36
2009/04/23 16:55:01.3     -29   -419    -44    421    424 184.0  -6.0  34080  288.23 0854.36
2009/04/23 16:55:01.4    -128   -481    -77    498    504 194.9  -8.8  34078  288.17 0854.36
2009/04/23 16:55:01.5    -133   -552    -50    568    571 193.6  -5.1  34082  288.24 0854.36
2009/04/23 16:55:01.6    -192   -612    -51    642    645 197.4  -4.6  34074  288.13 0854.36
2009/04/23 16:55:01.7    -175   -694    -52    716    718 194.2  -4.2  34074  288.10 0854.36
2009/04/23 16:55:01.8    -219   -678      6    713    714 197.9   0.5  34076  288.15 0854.36
2009/04/23 16:55:01.9     -17   -789      4    790    791 181.3   0.3  34062  287.90 0854.36
2009/04/23 16:55:02.0     -17   -592    118    593    605 181.7  11.3  34078  288.17 0854.36
2009/04/23 16:55:02.1       0   -459     26    460    461 179.9   3.2  34076  288.14 0854.36
2009/04/23 16:55:02.2     -69   -523    -32    528    529 187.6  -3.5  34078  288.19 0854.36
2009/04/23 16:55:02.3    -113   -559    -31    571    572 191.5  -3.2  34078  288.17 0854.36
2009/04/23 16:55:02.4    -293   -413    -36    507    509 215.3  -4.1  34066  287.98 0854.36
2009/04/23 16:55:02.5    -255   -401    -67    476    481 212.4  -8.1  34072  288.07 0854.35
2009/04/23 16:55:02.6    -313   -421    -29    525    526 216.6  -3.2  34080  288.23 0854.35
2009/04/23 16:55:02.7    -388   -369    -83    536    543 226.4  -8.9  34070  288.06 0854.35
2009/04/23 16:55:02.8    -368   -343   -120    504    519 227.0 -13.4  34074  288.12 0854.35
2009/04/23 16:55:02.9    -283   -280   -119    399    417 225.4 -16.6  34080  288.23 0854.35
2009/04/23 16:55:03.0    -161   -283   -157    326    361 209.6 -31.8  34076  288.16 0854.35
2009/04/23 16:55:03.1    -185   -209    -72    280    290 221.4 -14.5  34086  288.32 0854.35
2009/04/23 16:55:03.2     -36   -108    -71    115    135 198.7 -39.9  34086  288.33 0854.35
2009/04/23 16:55:03.3     -84   -156     11    178    179 208.3   3.6  34080  288.21 0854.35
2009/04/23 16:55:03.4    -132   -259    -92    291    306 207.1 -17.5  34074  288.12 0854.35
2009/04/23 16:55:03.5    -204   -173   -163    268    313 229.6 -38.6  34080  288.21 0854.34
2009/04/23 16:55:03.6    -108   -227   -111    252    275 205.5 -29.6  34074  288.12 0854.34
2009/04/23 16:55:03.7      49   -240    -94    246    263 168.4 -26.4  34078  288.19 0854.34
2009/04/23 16:55:03.8      88   -238    -40    254    258 159.7  -9.0  34080  288.22 0854.34
2009/04/23 16:55:03.9      26   -154    -63    157    169 170.2 -27.4  34080  288.21 0854.34
2009/04/23 16:55:04.0     -52    -28    -89     60    107 241.1 -67.6  34092  288.43 0854.34
2009/04/23 16:55:04.1      22    -91   -132     94    162 166.2 -65.5  34100  288.55 0854.34
2009/04/23 16:55:04.2     -68   -364   -338    371    501 190.6 -51.4  34090  288.38 0854.34
2009/04/23 16:55:04.3      -3   -351   -366    352    507 180.6 -55.6  34088  288.36 0854.34
2009/04/23 16:55:04.4     -12   -365   -254    366    445 182.0 -42.4  34088  288.34 0854.34
2009/04/23 16:55:04.5      63   -227   -278    236    364 164.4 -59.9  34096  288.49 0854.34
2009/04/23 16:55:04.6      60   -428   -146    433    456 172.0 -23.5  34084  288.28 0854.34
2009/04/23 16:55:04.7     -63   -309   -149    316    349 191.6 -31.5  34102  288.60 0854.34
2009/04/23 16:55:04.8     -52   -256   -155    262    304 191.5 -37.8  34106  288.65 0854.34
2009/04/23 16:55:04.9     -52   -293   -146    298    331 190.2 -32.4  34100  288.56 0854.34
2009/04/23 16:55:05.0     133   -298   -106    327    343 155.9 -23.0  34086  288.33 0854.34
2009/04/23 16:55:05.1     153   -339      5    372    373 155.7   0.8  34082  288.25 0854.34
2009/04/23 16:55:05.2      83   -424    -16    433    434 168.9  -2.2  34084  288.29 0854.34
2009/04/23 16:55:05.3     -18   -236    -21    237    238 184.4  -5.1  34098  288.53 0854.34
2009/04/23 16:55:05.4      16    -50     18     53     57 161.3  19.2  34096  288.50 0854.34
2009/04/23 16:55:05.5      17   -370     31    371    373 177.3   4.9  34096  288.49 0854.33
2009/04/23 16:55:05.6     -67   -369   -122    376    396 190.3 -18.0  34102  288.59 0854.33
2009/04/23 16:55:05.7     125   -445   -108    463    476 164.3 -13.2  34078  288.17 0854.33
2009/04/23 16:55:05.8     303   -199    -14    363    364 123.4  -2.3  34106  288.67 0854.33
2009/04/23 16:55:05.9     242   -136     23    278    280 119.3   4.9  34130  289.05 0854.33
2009/04/23 16:55:06.0      58   -112    -25    127    130 152.8 -11.3  34102  288.58 0854.33
2009/04/23 16:55:06.1     -81   -241     30    255    257 198.7   6.9  34108  288.70 0854.33
2009/04/23 16:55:06.2     -53   -290    110    295    314 190.5  21.4  34086  288.31 0854.33
2009/04/23 16:55:06.3     -96   -369     71    382    389 194.6  10.6  34090  288.40 0854.33
2009/04/23 16:55:06.4     -49   -317    133    321    347 188.9  23.7  34090  288.40 0854.33
2009/04/23 16:55:06.5     -87   -263    155    278    318 198.3  31.6  34092  288.43 0854.33
2009/04/23 16:55:06.6     -97   -301     90    317    330 197.9  15.9  34090  288.39 0854.33
2009/04/23 16:55:06.7     -50   -374     51    378    382 187.7   7.8  34092  288.42 0854.33
2009/04/23 16:55:06.8    -126   -380     85    401    411 198.5  12.0  34094  288.46 0854.33
2009/04/23 16:55:06.9    -119   -414     28    431    432 196.1   3.8  34098  288.51 0854.33
2009/04/23 16:55:07.0     -55   -394     20    398    399 188.0   2.9  34104  288.62 0854.33
2009/04/23 16:55:07.1     -82   -379    -21    388    389 192.3  -3.1  34104  288.64 0854.33
2009/04/23 16:55:07.2     -74   -374     21    382    383 191.2   3.2  34116  288.84 0854.33
2009/04/23 16:55:07.3    -103   -319     17    336    337 197.9   3.0  34110  288.74 0854.33
2009/04/23 16:55:07.4     -61   -324     38    330    333 190.8   6.7  34116  288.81 0854.33
2009/04/23 16:55:07.5     -37   -299     19    302    303 187.1   3.6  34108  288.68 0854.34
2009/04/23 16:55:07.6      -8   -266     19    267    268 181.8   4.2  34106  288.66 0854.34
2009/04/23 16:55:07.7      18   -296      6    297    298 176.5   1.2  34102  288.58 0854.34
2009/04/23 16:55:07.8      22   -334    123    335    356 176.2  21.0  34104  288.64 0854.34
2009/04/23 16:55:07.9     -94   -311    187    326    375 196.9  32.4  34110  288.71 0854.34
2009/04/23 16:55:08.0     -53   -225    181    232    294 193.4  41.7  34108  288.68 0854.34
2009/04/23 16:55:08.1    -175   -257     33    312    314 214.3   6.1  34102  288.58 0854.34
2009/04/23 16:55:08.2    -122   -296     26    321    323 202.5   4.7  34100  288.54 0854.34
2009/04/23 16:55:08.3     -63   -353     43    359    362 190.2   6.9  34120  288.91 0854.34
2009/04/23 16:55:08.4    -126   -300      8    326    327 202.8   1.5  34098  288.51 0854.34
2009/04/23 16:55:08.5    -169   -280     24    328    329 211.2   4.3  34096  288.49 0854.34
2009/04/23 16:55:08.6    -168   -331    -14    372    373 207.0  -2.2  34114  288.79 0854.34
2009/04/23 16:55:08.7     -85   -357     57    368    373 193.4   8.8  34106  288.67 0854.34
2009/04/23 16:55:08.8     -65   -363    107    369    385 190.3  16.1  34090  288.38 0854.34
2009/04/23 16:55:08.9     -93   -307     95    321    335 196.9  16.6  34092  288.42 0854.34
2009/04/23 16:55:09.0     -37   -312     61    315    321 186.9  11.0  34092  288.41 0854.34
2009/04/23 16:55:09.1     112   -327    -39    346    349 161.0  -6.5  34094  288.44 0854.34
2009/04/23 16:55:09.2     164   -311    -79    352    361 152.1 -12.7  34108  288.69 0854.34
2009/04/23 16:55:09.3     152   -309    -77    345    354 153.8 -12.7  34110  288.72 0854.34
2009/04/23 16:55:09.4     163   -297    -68    340    347 151.2 -11.3  34106  288.67 0854.34
2009/04/23 16:55:09.5     161   -330    -35    368    370 153.9  -5.5  34116  288.84 0854.34
2009/04/23 16:55:09.6     175   -241     15    298    299 144.0   2.9  34106  288.66 0854.34
2009/04/23 16:55:09.7      93   -280    -69    296    304 161.5 -13.2  34118  288.85 0854.34
2009/04/23 16:55:09.8     141   -261    -62    297    304 151.5 -11.8  34120  288.90 0854.34
2009/04/23 16:55:09.9     116   -341    -73    361    369 161.2 -11.5  34112  288.77 0854.34
2009/04/23 16:55:10.0     107   -423    -71    437    443 165.7  -9.3  34118  288.85 0854.34
2009/04/23 16:55:10.1     114   -376    -86    394    404 163.1 -12.4  34116  288.84 0854.34
2009/04/23 16:55:10.2     191   -512     30    547    548 159.5   3.2  34110  288.74 0854.34
2009/04/23 16:55:10.3     195   -471     91    510    519 157.5  10.1  34108  288.68 0854.34
2009/04/23 16:55:10.4     201   -596    109    630    640 161.3   9.9  34084  288.27 0854.34
2009/04/23 16:55:10.5     228   -537    211    584    620 156.9  20.8  34088  288.34 0854.34
2009/04/23 16:55:10.6     271   -520    209    587    623 152.5  20.4  34092  288.41 0854.34
2009/04/23 16:55:10.7     346   -494    158    604    625 145.0  14.7  34090  288.40 0854.34
2009/04/23 16:55:10.8     227   -451    192    505    540 153.3  21.8  34094  288.47 0854.34
2009/04/23 16:55:10.9     210   -577    291    615    680 160.0  27.1  34112  288.77 0854.34
2009/04/23 16:55:11.0     156   -532    312    555    636 163.6  31.9  34112  288.76 0854.34
2009/04/23 16:55:11.1     111   -525    235    537    586 168.0  25.2  34118  288.86 0854.34
2009/04/23 16:55:11.2     128   -493    247    510    566 165.4  27.7  34116  288.84 0854.34
2009/04/23 16:55:11.3      73   -494    301    500    583 171.5  34.0  34118  288.85 0854.34
2009/04/23 16:55:11.4     -10   -515    287    516    590 181.2  31.4  34098  288.53 0854.34
2009/04/23 16:55:11.5     -44   -568    234    570    616 184.5  23.6  34100  288.56 0854.35
2009/04/23 16:55:11.6     -78   -557     32    563    564 188.0   3.3  34094  288.45 0854.35
2009/04/23 16:55:11.7     -87   -532    -28    540    541 189.3  -3.0  34090  288.40 0854.35
2009/04/23 16:55:11.8     -74   -373    -55    381    386 191.3  -8.2  34094  288.47 0854.35
2009/04/23 16:55:11.9      41   -400    -22    403    404 174.0  -3.1  34102  288.58 0854.35
2009/04/23 16:55:12.0     -60   -403   -121    408    426 188.5 -16.5  34100  288.55 0854.35
2009/04/23 16:55:12.1     -94   -444    -14    454    455 192.0  -1.8  34106  288.65 0854.35
2009/04/23 16:55:12.2       6   -432    -58    433    437 179.2  -7.7  34094  288.46 0854.35
2009/04/23 16:55:12.3      39   -423    -55    426    430 174.7  -7.5  34102  288.58 0854.35
2009/04/23 16:55:12.4      59   -408    -74    413    420 171.7 -10.3  34102  288.60 0854.35
2009/04/23 16:55:12.5      99   -399    -34    412    414 166.1  -4.8  34098  288.53 0854.35
2009/04/23 16:55:12.6      63   -401    124    407    426 171.0  17.0  34114  288.80 0854.35
2009/04/23 16:55:12.7      30   -394     55    396    401 175.5   8.0  34110  288.74 0854.35
2009/04/23 16:55:12.8      24   -318     36    320    323 175.5   6.5  34104  288.63 0854.35
2009/04/23 16:55:12.9      43   -272    -45    276    280 170.9  -9.3  34096  288.49 0854.35
2009/04/23 16:55:13.0     138   -232     23    271    273 149.3   4.9  34106  288.65 0854.35
2009/04/23 16:55:13.1     162   -253    116    301    322 147.3  22.0  34110  288.71 0854.35
2009/04/23 16:55:13.2     126   -264     88    293    307 154.5  16.8  34106  288.66 0854.35
2009/04/23 16:55:13.3     146   -215    106    261    281 145.7  23.1  34106  288.66 0854.35
2009/04/23 16:55:13.4     156   -244     85    290    303 147.4  16.3  34102  288.58 0854.35
2009/04/23 16:55:13.5     120   -252     41    280    284 154.6   8.5  34102  288.59 0854.34
2009/04/23 16:55:13.6     183   -276     70    332    340 146.4  12.0  34098  288.52 0854.34
2009/04/23 16:55:13.7     171   -252    117    305    326 145.7  22.0  34100  288.54 0854.34
2009/04/23 16:55:13.8     144   -219    119    263    288 146.6  26.2  34100  288.56 0854.34
2009/04/23 16:55:13.9     100   -141    156    173    232 144.6  46.9  34114  288.79 0854.34
2009/04/23 16:55:14.0     105   -129    145    167    221 141.0  45.8  34134  289.14 0854.34
2009/04/23 16:55:14.1      99   -158    142    187    234 147.9  41.2  34146  289.35 0854.34
2009/04/23 16:55:14.2     118   -144    154    187    242 140.6  43.7  34146  289.35 0854.34
2009/04/23 16:55:14.3     114   -134    157    177    236 139.7  46.2  34116  288.84 0854.34
2009/04/23 16:55:14.4      97    -97    139    138    195 134.9  50.1  34136  289.18 0854.34
2009/04/23 16:55:14.5     186   -121    179    223    285 123.1  43.0  34124  288.97 0854.34
2009/04/23 16:55:14.6      35   -273    225    276    356 172.7  43.5  34150  289.40 0854.34
2009/04/23 16:55:14.7     135     54    168    146    222  68.2  54.3  34154  289.48 0854.34
2009/04/23 16:55:14.8     167    -18    178    169    245  96.4  51.6  34142  289.26 0854.34
2009/04/23 16:55:15.0      29   -138     97    142    171 168.0  37.6  34122  288.92 0854.34
2009/04/23 16:55:15.0     158   -223     99    274    292 144.8  19.9  34102  288.59 0854.34
2009/04/23 16:55:15.1     105   -183     59    212    221 150.1  15.6  34102  288.58 0854.34
2009/04/23 16:55:15.2       2   -161    135    162    210 179.3  43.8  34112  288.77 0854.34
2009/04/23 16:55:15.3      29   -144    136    147    200 168.5  47.7  34108  288.69 0854.34
2009/04/23 16:55:15.4     -16   -156    170    157    231 186.2  52.2  34104  288.64 0854.34
2009/04/23 16:55:15.5    -104   -280    254    300    393 200.5  44.7  34102  288.60 0854.34
2009/04/23 16:55:15.6      -5   -229    248    230    338 181.4  52.2  34114  288.78 0854.34
2009/04/23 16:55:15.7    -125   -388    192    408    450 197.9  27.1  34110  288.73 0854.34
2009/04/23 16:55:15.8    -107   -457     37    470    472 193.3   4.6  34104  288.61 0854.34
2009/04/23 16:55:15.9    -118   -353    -39    373    376 198.5  -6.1  34104  288.62 0854.34
2009/04/23 16:55:16.0    -118   -221    -68    251    261 208.1 -15.2  34100  288.56 0854.34
2009/04/23 16:55:16.1     -35   -147    -49    152    160 193.4 -17.9  34108  288.70 0854.34
2009/04/23 16:55:16.2      36   -107    133    114    175 161.3  55.4  34112  288.75 0854.34
2009/04/23 16:55:16.3      13   -129     -2    130    131 174.2  -1.2  34114  288.79 0854.34
2009/04/23 16:55:16.4      24   -208     27    210    212 173.3   7.5  34116  288.82 0854.34
2009/04/23 16:55:16.5      46   -268    -65    273    281 170.2 -13.4  34116  288.83 0854.34
2009/04/23 16:55:16.6      73   -184   -104    199    224 158.2 -34.2  34116  288.84 0854.34
2009/04/23 16:55:16.7     179   -135    -68    225    236 127.1 -16.8  34114  288.80 0854.34
2009/04/23 16:55:16.8     213   -175     23    276    278 129.5   4.9  34116  288.81 0854.34
2009/04/23 16:55:16.9     192   -156     40    248    252 129.1   9.3  34118  288.87 0854.34
2009/04/23 16:55:17.1     205   -121     47    239    244 120.7  11.1  34120  288.88 0854.34
2009/04/23 16:55:17.1     300   -125     97    326    341 112.7  16.6  34126  288.99 0854.34
2009/04/23 16:55:17.3     184      1    181    185    258  89.6  49.4  34130  289.07 0854.34
2009/04/23 16:55:17.4     -18    -45    140     49    148 201.8  80.7  34144  289.30 0854.34
2009/04/23 16:55:17.5       0     28    142     29    144 359.1  89.1  34158  289.53 0854.34
2009/04/23 16:55:17.5      58     -6    139     59    151  96.1  75.5  34144  289.30 0854.33
2009/04/23 16:55:17.7      30    -46     82     56     99 146.6  62.1  34146  289.35 0854.33
2009/04/23 16:55:17.8      41     14     62     44     76  70.9  60.6  34142  289.28 0854.33
2009/04/23 16:55:17.9      94     35     37    101    107  69.6  20.4  34132  289.09 0854.33
2009/04/23 16:55:18.0      89    -18     60     91    109 101.5  36.0  34128  289.04 0854.33
2009/04/23 16:55:18.1      87    -26     82     91    122 106.8  46.9  34130  289.06 0854.33
2009/04/23 16:55:18.2      38     12    121     40    127  72.3  80.7  34134  289.13 0854.33
2009/04/23 16:55:18.3     101     90     63    136    149  48.2  27.1  34130  289.06 0854.33
2009/04/23 16:55:18.4      68     42     90     81    121  58.0  53.3  34134  289.13 0854.33
2009/04/23 16:55:18.5      14     58    105     60    120  14.3  67.7  34138  289.19 0854.33
2009/04/23 16:55:18.6     159     95    189    186    265  59.3  50.4  34120  288.90 0854.33
2009/04/23 16:55:18.7      10    -53    191     55    198 168.5  83.5  34124  288.97 0854.33
2009/04/23 16:55:18.8      28     40    234     50    239  35.2  88.2  34142  289.28 0854.33
2009/04/23 16:55:18.9     196    -32    244    199    314  99.5  56.8  34118  288.87 0854.33
2009/04/23 16:55:19.0     232    -14    311    233    388  93.5  59.4  34130  289.06 0854.33
2009/04/23 16:55:19.1     248     63    195    257    322  75.6  41.2  34124  288.97 0854.33
2009/04/23 16:55:19.2     231     46     45    236    241  78.6  10.8  34124  288.97 0854.33
2009/04/23 16:55:19.3     184     62     82    195    211  71.2  24.1  34124  288.96 0854.33
2009/04/23 16:55:19.4     133     36    134    138    192  74.9  49.4  34130  289.08 0854.33
2009/04/23 16:55:19.5     118     -4    114    119    164  92.1  49.2  34128  289.02 0854.33
2009/04/23 16:55:19.6      96      0    123     97    156  90.4  57.7  34132  289.09 0854.32
2009/04/23 16:55:19.7     105    -57     92    120    151 118.4  41.7  34130  289.08 0854.32
2009/04/23 16:55:19.8      76    -67     70    102    123 131.3  37.6  34132  289.09 0854.32
2009/04/23 16:55:19.9      23    -49     57     55     79 154.6  50.7  34132  289.09 0854.32
2009/04/23 16:55:20.0     -30    -51    124     60    137 210.7  72.8  34138  289.19 0854.32
2009/04/23 16:55:20.1     -15    -75    117     77    140 191.6  63.6  34132  289.09 0854.32
2009/04/23 16:55:20.2     122     -1    142    123    187  90.8  54.8  34138  289.19 0854.32
2009/04/23 16:55:20.3     128     42     72    135    153  71.8  30.8  34132  289.09 0854.32
2009/04/23 16:55:20.4      85    -27     82     90    121 107.7  47.5  34132  289.11 0854.32
2009/04/23 16:55:20.5      86    -14     57     88    104  99.2  35.6  34130  289.08 0854.32
2009/04/23 16:55:20.6      26     -4     89     27     93  99.7  82.3  34148  289.36 0854.32
2009/04/23 16:55:20.7     -26      2     99     27    102 274.4  84.8  34144  289.30 0854.32
2009/04/23 16:55:20.8     159   -180     80    241    255 138.5  18.4  34118  288.87 0854.32
2009/04/23 16:55:20.9     149   -191     38    243    247 142.2   8.9  34120  288.90 0854.32
2009/04/23 16:55:21.0     112   -169    -32    203    206 146.4  -9.0  34118  288.87 0854.32
2009/04/23 16:55:21.1      90   -148    -45    174    180 148.6 -14.5  34122  288.94 0854.32
2009/04/23 16:55:21.2     102   -107    -51    149    157 136.3 -24.0  34122  288.92 0854.32
2009/04/23 16:55:21.3      52    -91     -5    106    107 150.1  -3.1  34124  288.96 0854.32
2009/04/23 16:55:21.4      40   -123      2    130    131 161.7   1.2  34118  288.87 0854.32
2009/04/23 16:55:21.5      56   -116     -4    130    131 154.1  -1.8  34118  288.86 0854.32
2009/04/23 16:55:21.6      43    -68    -28     81     85 147.4 -23.3  34122  288.94 0854.32
2009/04/23 16:55:21.7     119      0    -38    120    126  90.4 -17.6  34128  289.04 0854.32
2009/04/23 16:55:21.8     131    -54     -2    142    143 112.6  -1.2  34128  289.02 0854.32
2009/04/23 16:55:21.9      53     -2    -77     54     94  92.6 -66.5  34134  289.13 0854.32
2009/04/23 16:55:22.0      61      4    -41     62     74  85.7 -40.0  34132  289.11 0854.32
2009/04/23 16:55:22.1      42     20    -59     47     75  63.8 -60.8  34136  289.18 0854.32
2009/04/23 16:55:22.2       0    -25    -63     26     68 180.9 -81.5  34140  289.23 0854.32
2009/04/23 16:55:22.3     -38    -28    -39     48     61 234.0 -48.1  34136  289.18 0854.32
2009/04/23 16:55:22.4     -52     15    -16     55     58 285.9 -16.6  34134  289.13 0854.32
2009/04/23 16:55:22.5     -62     38     -4     73     74 301.5  -3.1  34132  289.09 0854.32
2009/04/23 16:55:22.6     -46     21      7     51     52 294.4   8.0  34134  289.14 0854.32
2009/04/23 16:55:22.7     -45      7      8     46     47 278.8  10.1  34130  289.08 0854.32
2009/04/23 16:55:22.8     -58     18     17     61     64 287.7  16.3  34130  289.08 0854.32
2009/04/23 16:55:22.9     -71      7     24     72     76 276.1  18.4  34134  289.14 0854.32
2009/04/23 16:55:23.0     -61      4     39     62     73 274.4  35.5  34146  289.33 0854.32
2009/04/23 16:55:23.1     -89      0    -16     90     92 270.0 -10.3  34130  289.06 0854.32
2009/04/23 16:55:23.2     -19    -37     71     42     82 208.1  66.8  34140  289.24 0854.32
2009/04/23 16:55:23.3     -28   -105     92    109    142 195.1  44.3  34130  289.06 0854.32
2009/04/23 16:55:23.4      18    -54    103     57    117 161.5  68.8  34134  289.14 0854.32
2009/04/23 16:55:23.5      40   -133    113    140    179 163.1  43.3  34130  289.08 0854.32
2009/04/23 16:55:23.6      85   -117     90    145    170 143.9  35.0  34126  289.01 0854.31
2009/04/23 16:55:23.7     107    -78    115    133    175 126.4  45.4  34126  288.99 0854.31
2009/04/23 16:55:23.8      93   -110    116    145    185 139.9  43.3  34120  288.91 0854.31
2009/04/23 16:55:23.9       1   -126     82    127    151 179.1  35.6  34120  288.91 0854.31
2009/04/23 16:55:24.0     -31   -109     90    114    145 196.0  42.2  34126  288.99 0854.31
2009/04/23 16:55:24.1      -8    -59    102     60    118 188.0  66.8  34144  289.31 0854.31
2009/04/23 16:55:24.2     -54    -24     67     60     89 245.6  53.7  34140  289.24 0854.31
2009/04/23 16:55:24.3     -17     22     41     29     50 322.2  61.5  34138  289.19 0854.31
2009/04/23 16:55:24.4     -65    -91     82    113    139 215.6  39.7  34128  289.04 0854.31
2009/04/23 16:55:24.5     -63    -61     90     88    125 226.0  50.1  34134  289.13 0854.31
2009/04/23 16:55:24.6      70      7     88     71    113  83.9  56.4  34144  289.31 0854.30
2009/04/23 16:55:24.7     -71     -5    125     72    144 265.6  67.2  34150  289.40 0854.30
2009/04/23 16:55:24.8     -34    -16    105     38    111 244.6  80.2  34150  289.40 0854.30
2009/04/23 16:55:24.9      10      5     79     12     79  64.7  90.0  34156  289.52 0854.30
2009/04/23 16:55:25.0       3     24    112     25    114   8.0  88.5  34160  289.57 0854.30
2009/04/23 16:55:25.1     -28     40    114     50    124 324.8  75.0  34164  289.63 0854.30
2009/04/23 16:55:25.2     -19    -47    139     51    148 202.7  79.2  34150  289.41 0854.30
2009/04/23 16:55:25.3      -8    -59    116     60    130 188.0  70.8  34140  289.24 0854.30
2009/04/23 16:55:25.4     -17    -88     90     90    127 191.1  50.1  34138  289.19 0854.30
2009/04/23 16:55:25.5      17   -127     85    129    154 172.0  35.6  34128  289.02 0854.30
2009/04/23 16:55:25.6      19   -109     72    111    132 169.8  35.6  34128  289.04 0854.30
2009/04/23 16:55:25.7      33   -100     88    106    137 161.5  43.8  34138  289.21 0854.30
2009/04/23 16:55:25.8     -17      2     43     18     46 277.9  77.1  34138  289.21 0854.30
2009/04/23 16:55:25.9     -36    -12     88     38     95 251.4  75.0  34160  289.58 0854.30
2009/04/23 16:55:26.0     -47     31     95     57    110 303.3  65.7  34154  289.46 0854.30
2009/04/23 16:55:26.1      -5    101     24    102    105 356.9  13.7  34158  289.53 0854.30
2009/04/23 16:55:26.2       5    130     46    131    139   2.2  19.4  34158  289.53 0854.30
2009/04/23 16:55:26.3     -50     -3     35     51     61 265.7  38.6  34150  289.40 0854.30
2009/04/23 16:55:26.4    -121     12     70    122    140 275.7  32.4  34154  289.46 0854.30
2009/04/23 16:55:26.5    -134     81     58    157    167 301.1  21.0  34148  289.38 0854.30
2009/04/23 16:55:26.6     -31    -54     67     63     91 209.9  51.6  34146  289.33 0854.30
2009/04/23 16:55:26.7     -51   -130    141    140    198 201.4  50.1  34134  289.14 0854.30
2009/04/23 16:55:26.8    -149   -244     61    286    293 211.4  12.2  34142  289.27 0854.30
2009/04/23 16:55:26.9    -182   -241     74    303    313 217.0  13.8  34140  289.24 0854.30
2009/04/23 16:55:27.0    -161   -189    130    249    280 220.5  29.5  34132  289.09 0854.30
2009/04/23 16:55:27.1      -6    -17    117     19    118 198.7  90.0  34148  289.38 0854.30
2009/04/23 16:55:27.2       0    -85     94     86    127 180.0  52.7  34140  289.24 0854.30
2009/04/23 16:55:27.3       6    -42    133     43    139 171.1  80.7  34142  289.26 0854.30
2009/04/23 16:55:27.4       0    -30    128     31    131 180.9  86.9  34154  289.46 0854.30
2009/04/23 16:55:27.5       6    -54    120     55    132 172.9  73.5  34154  289.48 0854.30
2009/04/23 16:55:27.6     -23    -88    151     91    176 194.7  66.2  34158  289.53 0854.30
2009/04/23 16:55:27.7       9   -110    122    111    164 175.1  53.0  34164  289.63 0854.30
2009/04/23 16:55:27.8      -2    -64    113     65    130 181.8  67.2  34168  289.72 0854.30
2009/04/23 16:55:27.9     -42   -153    115    159    196 195.6  39.7  34164  289.65 0854.30
2009/04/23 16:55:28.0     -26   -130    124    133    181 191.5  47.9  34164  289.63 0854.30
2009/04/23 16:55:28.1       5   -105     59    106    121 176.9  31.4  34170  289.74 0854.30
2009/04/23 16:55:28.2      33    -24     91     42    100 126.0  73.5  34192  290.11 0854.30
2009/04/23 16:55:28.3      23    -30     47     39     61 142.2  56.3  34190  290.09 0854.30
2009/04/23 16:55:28.4      15      5     43     16     45  71.4  80.2  34198  290.23 0854.30
2009/04/23 16:55:28.5      41     23     80     48     93  60.2  65.7  34212  290.45 0854.30
2009/04/23 16:55:28.6      39    -13     39     42     57 108.4  49.0  34196  290.19 0854.31
2009/04/23 16:55:28.7      44    -37    -12     58     60 129.6 -12.4  34182  289.94 0854.31
2009/04/23 16:55:28.8      36    -73    -22     82     86 153.7 -15.4  34178  289.87 0854.31
2009/04/23 16:55:28.9      51    -77    -38     93    100 146.2 -27.5  34176  289.84 0854.31
2009/04/23 16:55:29.0      78    -48    -12     92     93 122.0  -7.7  34184  289.97 0854.31
2009/04/23 16:55:29.1      59    -32     13     68     70 118.9  11.0  34188  290.04 0854.31
2009/04/23 16:55:29.2      43    -21      9     49     50 116.2  11.1  34184  289.99 0854.31
2009/04/23 16:55:29.3      35    -78     -3     86     87 155.5  -2.2  34158  289.53 0854.31
2009/04/23 16:55:29.4      38   -114    -14    121    122 161.5  -6.7  34144  289.31 0854.31
2009/04/23 16:55:29.5      25   -108     14    112    113 166.6   7.5  34156  289.50 0854.31
2009/04/23 16:55:29.6      32    -81     64     88    108 158.2  39.7  34162  289.60 0854.31
2009/04/23 16:55:29.7      27    -79     68     84    108 160.8  43.7  34172  289.77 0854.31
2009/04/23 16:55:29.8      20    -72     56     75     93 164.0  40.7  34168  289.70 0854.31
2009/04/23 16:55:29.9       0    -57     83     58    101 179.1  61.5  34164  289.63 0854.31
2009/04/23 16:55:30.0      10    -21    107     24    109 152.8  88.5  34172  289.77 0854.31
2009/04/23 16:55:30.1     -55    -71     92     90    128 217.8  50.1  34156  289.52 0854.31
2009/04/23 16:55:30.2     -68    -43     67     81    105 237.6  43.8  34154  289.46 0854.31
2009/04/23 16:55:30.3     -38    -65     78     76    108 210.7  50.1  34146  289.35 0854.31
2009/04/23 16:55:30.4     -69    -24     41     74     84 250.9  31.9  34148  289.36 0854.31
2009/04/23 16:55:30.5     -60     27     23     66     70 294.4  19.4  34156  289.52 0854.31
2009/04/23 16:55:30.6     -39     -3     28     40     48 265.6  38.6  34168  289.70 0854.32
2009/04/23 16:55:30.7      24    103     37    106    113  13.4  19.4  34182  289.94 0854.32
2009/04/23 16:55:30.8     -32    158    125    162    204 348.4  41.6  34232  290.81 0854.32
2009/04/23 16:55:30.9     -85    136    124    161    203 327.9  41.6  34220  290.58 0854.32
2009/04/23 16:55:31.0     -94    210    105    231    253 335.9  26.2  34264  291.33 0854.32
2009/04/23 16:55:31.1    -134    209    123    249    277 327.3  28.2  34230  290.76 0854.32
2009/04/23 16:55:31.2     -86    205    200    223    299 337.1  46.6  34306  292.04 0854.32
2009/04/23 16:55:31.3     -48    142    189    150    241 341.3  57.5  34306  292.05 0854.32
2009/04/23 16:55:31.4     -29    153    143    156    211 349.3  47.5  34284  291.67 0854.32
2009/04/23 16:55:31.5      -3    152     87    153    176 358.6  32.1  34258  291.23 0854.32
2009/04/23 16:55:31.6     -20    147    110    149    185 352.0  39.9  34272  291.47 0854.32
2009/04/23 16:55:31.7      14    108     92    109    142   7.6  44.3  34306  292.05 0854.32
2009/04/23 16:55:31.8      45     88     65     99    118  27.2  36.5  34284  291.69 0854.32
2009/04/23 16:55:31.9      80    125     75    149    166  32.5  28.5  34288  291.76 0854.32
2009/04/23 16:55:32.0      88    148     57    173    183  30.7  18.4  34272  291.47 0854.32
2009/04/23 16:55:32.1     108    141     75    178    193  37.6  23.8  34298  291.93 0854.32
2009/04/23 16:55:32.2      82    188    127    206    242  23.7  34.5  34332  292.51 0854.32
2009/04/23 16:55:32.3      39    143     96    149    177  15.2  35.7  34332  292.51 0854.32
2009/04/23 16:55:32.4       0     73     50     74     89   0.0  37.0  34284  291.69 0854.32
2009/04/23 16:55:32.5      50    100     51    112    123  26.7  25.7  34260  291.26 0854.32
2009/04/23 16:55:32.6      29    146     36    149    154  11.5  13.7  34246  291.04 0854.33
2009/04/23 16:55:32.7     -11    157     42    158    164 356.0  15.0  34256  291.21 0854.33
2009/04/23 16:55:32.8     -77     76      9    109    110 314.6   4.9  34268  291.42 0854.33
2009/04/23 16:55:32.9     -68     97   -107    119    160 324.8 -51.0  34160  289.57 0854.33
2009/04/23 16:55:33.0     -56    123   -136    136    192 335.5 -54.5  34178  289.89 0854.33
2009/04/23 16:55:33.1     -60    113   -136    129    187 331.9 -56.4  34200  290.25 0854.33
2009/04/23 16:55:33.2     -72     90   -175    116    209 321.3 -68.0  34222  290.64 0854.33
2009/04/23 16:55:33.3    -198     53   -263    206    334 285.1 -62.4  34198  290.22 0854.33
2009/04/23 16:55:33.4    -131      9   -208    132    246 274.3 -69.1  34178  289.89 0854.33
2009/04/23 16:55:33.5     -36     38   -123     53    133 316.8 -79.4  34138  289.19 0854.33
2009/04/23 16:55:33.6      26     64    -82     70    107  21.9 -59.8  34136  289.18 0854.33
2009/04/23 16:55:33.7      77    108    -86    133    158  35.6 -40.4  34114  288.80 0854.33
2009/04/23 16:55:33.8     101    116    -56    154    163  41.0 -25.1  34112  288.75 0854.33
2009/04/23 16:55:33.9     101     83    -41    132    139  50.5 -17.5  34110  288.74 0854.33
2009/04/23 16:55:34.0     110    110    -57    156    166  45.0 -24.8  34114  288.79 0854.33
2009/04/23 16:55:34.1     131    123    -29    180    183  46.8  -9.3  34120  288.91 0854.33
2009/04/23 16:55:34.2     142    176    -65    227    237  39.0 -16.0  34168  289.71 0854.33
2009/04/23 16:55:34.3     122    141    -37    187    191  40.8 -11.3  34178  289.89 0854.33
2009/04/23 16:55:34.4     172    117    -78    209    223  55.8 -25.4  34176  289.84 0854.33
2009/04/23 16:55:34.5     150    149    -60    212    220  45.1 -20.4  34192  290.13 0854.33
2009/04/23 16:55:34.6     177    146    -29    230    232  50.4  -7.2  34168  289.70 0854.35
2009/04/23 16:55:34.7     214    122      6    247    248  60.2   1.6  34142  289.27 0854.35
2009/04/23 16:55:34.8     166    -22    -21    168    170  97.7  -7.2  34154  289.48 0854.35
2009/04/23 16:55:34.9     186      4     -4    187    188  88.5  -1.3  34166  289.69 0854.35
2009/04/23 16:55:35.0     147     99     99    178    203  56.0  31.4  34198  290.21 0854.35
2009/04/23 16:55:35.1     157     54     57    167    177  70.9  18.9  34190  290.09 0854.35
2009/04/23 16:55:35.2     231     91    129    249    280  68.5  29.3  34184  289.98 0854.35
2009/04/23 16:55:35.3     203     72    140    216    257  70.5  36.0  34192  290.12 0854.35
2009/04/23 16:55:35.4     221     82    139    236    273  69.6  33.4  34194  290.15 0854.35
2009/04/23 16:55:35.5     201     81    149    217    263  68.0  37.6  34188  290.03 0854.35
2009/04/23 16:55:35.6     105     17    164    107    195  80.8  63.9  34176  289.85 0854.35
2009/04/23 16:55:35.7     109     22    125    112    167  78.6  53.5  34194  290.16 0854.35
2009/04/23 16:55:35.8      25     38    137     46    144  33.4  81.0  34194  290.16 0854.35
2009/04/23 16:55:35.9      47     22    111     52    122  64.7  73.5  34196  290.18 0854.35
2009/04/23 16:55:36.0      56     33    100     66    119  59.3  63.2  34202  290.30 0854.35
2009/04/23 16:55:36.1      44     60     69     75    101  36.1  47.9  34190  290.08 0854.35
2009/04/23 16:55:36.2      44     44     29     63     69  45.1  27.1  34184  289.97 0854.35
2009/04/23 16:55:36.3      43      1    -13     44     46  87.4 -16.6  34168  289.72 0854.35
2009/04/23 16:55:36.4     120     25    -44    123    131  78.1 -19.7  34174  289.82 0854.35
2009/04/23 16:55:36.5     110     30     22    115    118  74.5  11.1  34170  289.74 0854.35
2009/04/23 16:55:36.6     142     19     55    144    154  82.1  21.5  34168  289.70 0854.35
2009/04/23 16:55:36.7     117      0     49    118    127  90.0  23.6  34170  289.74 0854.35
2009/04/23 16:55:36.8     134    -22      6    136    137  99.6   2.9  34166  289.67 0854.35
2009/04/23 16:55:36.9     175     39    -16    180    181  77.2  -5.2  34168  289.70 0854.35
2009/04/23 16:55:37.0     125     49     30    135    139  68.7  12.6  34176  289.85 0854.35
2009/04/23 16:55:37.1     133     21     47    135    144  80.8  19.4  34180  289.92 0854.35
2009/04/23 16:55:37.2     145      7     64    146    159  87.0  25.3  34174  289.80 0854.35
2009/04/23 16:55:37.3     162     41     88    168    189  75.6  29.8  34160  289.58 0854.35
2009/04/23 16:55:37.4     236     45    111    241    265  79.0  26.6  34148  289.37 0854.35
2009/04/23 16:55:37.5     279    -19    118    280    303  93.9  24.3  34168  289.71 0854.35
2009/04/23 16:55:37.6     208   -132    118    247    273 122.4  27.3  34164  289.64 0854.35
2009/04/23 16:55:37.7     161    -86    105    183    210 118.2  32.7  34166  289.67 0854.35
2009/04/23 16:55:37.8     154    -25    129    157    203  99.2  43.7  34168  289.70 0854.35
2009/04/23 16:55:37.9     105      7    140    106    175  86.1  59.0  34172  289.77 0854.35
2009/04/23 16:55:38.0     -39     17    105     43    113 293.5  77.0  34190  290.09 0854.35
2009/04/23 16:55:38.1     -17     -2     87     18     88 262.1  89.0  34198  290.23 0854.35
2009/04/23 16:55:38.2      29    -49     89     58    106 149.3  64.6  34184  289.99 0854.35
2009/04/23 16:55:38.3      89    -42    107     99    145 115.3  52.2  34182  289.94 0854.35
2009/04/23 16:55:38.4      23    -82     53     86    101 164.4  35.0  34168  289.72 0854.35
2009/04/23 16:55:38.5      46   -105    105    115    155 156.4  47.9  34170  289.75 0854.35
2009/04/23 16:55:38.6      12      8    100     15    101  57.6  90.0  34190  290.08 0854.35
2009/04/23 16:55:38.7      32    -64     91     72    116 152.8  57.5  34188  290.04 0854.35
2009/04/23 16:55:38.8     113    -23     93    116    148 101.5  43.3  34166  289.69 0854.35
2009/04/23 16:55:38.9     193   -166     63    255    263 130.7  13.9  34162  289.61 0854.35
2009/04/23 16:55:39.0     170    -58     91    180    201 109.1  29.1  34154  289.46 0854.35
2009/04/23 16:55:39.1     185    -70     37    198    202 110.8  10.6  34162  289.62 0854.35
2009/04/23 16:55:39.2     148    -39     52    154    163 105.1  18.9  34168  289.70 0854.35
2009/04/23 16:55:39.3      84    -84    105    120    159 135.0  45.6  34174  289.82 0854.35
2009/04/23 16:55:39.4      95    -81     98    126    159 130.4  42.0  34184  289.99 0854.35
2009/04/23 16:55:39.5      99    -96     70    139    155 134.0  28.7  34190  290.09 0854.35
2009/04/23 16:55:39.6      96    -43    134    106    170 114.0  57.5  34208  290.40 0854.35
2009/04/23 16:55:39.7     115    -41    134    123    181 109.9  52.5  34210  290.41 0854.35
2009/04/23 16:55:39.8      72    -84     96    111    146 139.5  45.4  34196  290.19 0854.35
2009/04/23 16:55:39.9     136    -45    115    144    184 108.6  42.7  34216  290.52 0854.35
2009/04/23 16:55:40.0       3      0     79      4     79  90.0  90.0  34232  290.79 0854.35
2009/04/23 16:55:40.1      -5    -20     82     21     84 195.1  85.4  34214  290.50 0854.35
2009/04/23 16:55:40.2     -23    -50    128     56    139 204.5  75.0  34202  290.30 0854.35
2009/04/23 16:55:40.3      -6      0     74      7     74 270.0  90.0  34218  290.57 0854.35
2009/04/23 16:55:40.4      10   -134    115    135    177 175.5  44.8  34214  290.48 0854.35
2009/04/23 16:55:40.5      27   -105    121    109    162 165.3  53.3  34212  290.47 0854.35
2009/04/23 16:55:40.6      13    -58    131     60    144 166.6  73.5  34216  290.52 0854.33
2009/04/23 16:55:40.7      40   -102    114    110    158 158.2  50.9  34204  290.33 0854.33
2009/04/23 16:55:40.8      44   -130    125    138    186 161.3  46.9  34202  290.30 0854.33
2009/04/23 16:55:40.9      35   -134    126    139    187 165.3  47.1  34208  290.38 0854.33
2009/04/23 16:55:41.0      68   -193    148    205    252 160.4  39.3  34196  290.17 0854.33
2009/04/23 16:55:41.1      85   -118    146    146    206 144.0  50.1  34196  290.19 0854.33
2009/04/23 16:55:41.2     120    -55    160    133    208 114.8  56.3  34212  290.45 0854.33
2009/04/23 16:55:41.3      83    -74    118    112    162 131.8  51.4  34204  290.31 0854.33
2009/04/23 16:55:41.4     131   -121    186    179    258 132.9  51.2  34210  290.42 0854.33
2009/04/23 16:55:41.5     180   -170    220    248    331 133.3  46.4  34212  290.46 0854.33
2009/04/23 16:55:41.6      89   -166    160    189    247 151.7  44.8  34212  290.45 0854.33
2009/04/23 16:55:41.7      99   -121    159    157    223 140.8  50.1  34212  290.45 0854.33
2009/04/23 16:55:41.8     109   -109    165    155    226 135.0  52.1  34220  290.60 0854.33
2009/04/23 16:55:41.9     -13    -24    109     28    112 209.0  85.4  34230  290.75 0854.33
2009/04/23 16:55:42.0      35    -68    114     77    137 152.8  62.7  34200  290.26 0854.33
2009/04/23 16:55:42.1      41    -62     95     75    121 146.6  57.9  34200  290.26 0854.33
2009/04/23 16:55:42.2     142    -67    174    158    235 115.3  53.3  34226  290.70 0854.33
2009/04/23 16:55:42.3     145   -126    141    193    239 130.9  39.7  34204  290.33 0854.33
2009/04/23 16:55:42.4     145   -145    139    206    248 135.0  37.3  34202  290.29 0854.33
2009/04/23 16:55:42.5      55   -152    102    162    191 160.0  35.5  34192  290.13 0854.33
2009/04/23 16:55:42.6      14   -195     69    196    207 175.6  20.0  34192  290.13 0854.33
2009/04/23 16:55:42.7      35   -171     54    175    184 168.2  17.1  34192  290.13 0854.33
2009/04/23 16:55:42.8      -3   -193     52    194    201 180.9  15.0  34198  290.23 0854.33
2009/04/23 16:55:42.9      16   -206     64    207    217 175.5  17.4  34196  290.18 0854.33
2009/04/23 16:55:43.1       2   -147     69    148    163 179.0  26.4  34196  290.18 0854.33
2009/04/23 16:55:43.1      64   -213     57    223    231 163.1  14.5  34156  289.50 0854.33
2009/04/23 16:55:43.3      15   -175    105    176    204 174.9  33.5  34176  289.85 0854.33
2009/04/23 16:55:43.3     -37   -197     80    201    216 190.7  23.0  34178  289.87 0854.33
2009/04/23 16:55:43.4    -115   -253    107    279    298 204.5  22.0  34172  289.76 0854.33
2009/04/23 16:55:43.6    -140   -241     97    279    296 210.1  19.2  34188  290.05 0854.33
2009/04/23 16:55:43.7    -206   -278    129    347    370 216.5  21.3  34188  290.03 0854.33
2009/04/23 16:55:43.7     -98   -255    216    274    348 201.2  42.4  34128  289.02 0854.33
2009/04/23 16:55:43.9     -13   -233    183    234    297 183.4  41.7  34132  289.10 0854.33
2009/04/23 16:55:44.0     -26   -239     65    241    250 186.2  15.3  34122  288.93 0854.33
2009/04/23 16:55:44.1       0   -330     81    331    341 180.1  13.8  34158  289.55 0854.33
2009/04/23 16:55:44.2       2   -335    109    336    354 179.5  18.0  34170  289.74 0854.33
2009/04/23 16:55:44.3      -9   -274    142    275    309 182.0  29.3  34158  289.54 0854.33
2009/04/23 16:55:44.4       0   -214    123    215    247 180.2  32.4  34154  289.47 0854.33
2009/04/23 16:55:44.5     -13   -193     82    194    210 184.0  24.3  34152  289.45 0854.33
2009/04/23 16:55:44.6     -27   -163    135    166    213 189.6  43.5  34156  289.50 0854.33
2009/04/23 16:55:44.7     -63   -206     59    216    224 197.0  15.3  34132  289.09 0854.34
2009/04/23 16:55:44.8     -75   -297    118    307    328 194.3  22.0  34112  288.75 0854.34
2009/04/23 16:55:44.9    -223   -266    -88    348    360 220.0 -14.3  34106  288.66 0854.34
2009/04/23 16:55:45.0    -184   -172    -85    253    267 226.9 -18.6  34096  288.48 0854.34
2009/04/23 16:55:45.1     -76   -159     37    177    181 205.6  12.0  34090  288.38 0854.34
2009/04/23 16:55:45.2      -6   -111    109    112    156 183.1  49.9  34106  288.67 0854.34
2009/04/23 16:55:45.3     -88    -76     86    117    145 229.1  39.7  34124  288.97 0854.34
2009/04/23 16:55:45.4     -84    -70     55    110    122 230.4  28.2  34120  288.91 0854.34
2009/04/23 16:55:45.5     -23    -23     44     33     55 225.0  59.4  34134  289.13 0854.34
2009/04/23 16:55:45.6      -9     -3     30     10     31 248.3  81.0  34150  289.40 0854.34
2009/04/23 16:55:45.7      13      8     86     16     87  57.6  90.0  34162  289.62 0854.34
2009/04/23 16:55:45.8      -9    -41     81     43     91 193.4  69.8  34176  289.85 0854.34
2009/04/23 16:55:45.9       2     23     90     24     93   6.2  84.9  34194  290.14 0854.34
2009/04/23 16:55:46.0     -19    -26     86     33     92 216.1  78.6  34186  290.01 0854.34
2009/04/23 16:55:46.1     -19   -103     96    105    142 190.7  47.9  34142  289.26 0854.34
2009/04/23 16:55:46.2      42    -66    104     79    130 147.5  58.5  34152  289.45 0854.34
2009/04/23 16:55:46.3     -37   -142     73    147    164 194.7  28.5  34134  289.13 0854.34
2009/04/23 16:55:46.4     -44   -131    111    139    177 198.7  42.7  34132  289.11 0854.34
2009/04/23 16:55:46.5     -52   -120     91    131    159 203.6  38.4  34138  289.19 0854.34
2009/04/23 16:55:46.6       1    -14     73     15     74 175.5  89.0  34174  289.80 0854.34
2009/04/23 16:55:46.7       4   -209    236    210    315 178.9  53.7  34152  289.44 0854.34
2009/04/23 16:55:46.8      17   -119    162    121    202 171.5  59.8  34152  289.43 0854.34
2009/04/23 16:55:46.9      16    -85    120     87    148 169.3  60.5  34154  289.46 0854.34
2009/04/23 16:55:47.0      19   -176    156    178    236 173.8  45.8  34140  289.24 0854.34
2009/04/23 16:55:47.1      35    -89    137     96    167 158.2  61.5  34150  289.40 0854.34
2009/04/23 16:55:47.2      -3   -219    169    220    277 181.0  41.6  34152  289.44 0854.34
2009/04/23 16:55:47.3      -7   -212    179    213    278 182.0  44.3  34148  289.37 0854.34
2009/04/23 16:55:47.4     -27   -209    156    211    262 187.6  39.9  34132  289.10 0854.34
2009/04/23 16:55:47.5      45   -172    189    178    259 165.1  52.1  34144  289.29 0854.34
2009/04/23 16:55:47.6      -4   -272    186    273    330 180.9  37.4  34134  289.14 0854.34
2009/04/23 16:55:47.7      39   -306    120    309    331 172.7  22.4  34136  289.15 0854.33
2009/04/23 16:55:47.8      -4   -239    103    240    261 181.0  24.6  34130  289.05 0854.33
2009/04/23 16:55:47.9     -59   -170    144    181    231 199.2  43.0  34134  289.13 0854.33
2009/04/23 16:55:48.0     -15    -62    172     64    183 194.3  78.9  34158  289.55 0854.33
2009/04/23 16:55:48.1      54     66     86     86    121  39.6  50.1  34170  289.74 0854.33
2009/04/23 16:55:48.2      17    129     74    131    150   7.6  31.4  34156  289.50 0854.33
2009/04/23 16:55:48.3    -118    192     84    226    241 328.4  21.3  34162  289.59 0854.33
2009/04/23 16:55:48.4    -156     91    -37    181    185 300.2 -11.6  34166  289.67 0854.33
2009/04/23 16:55:48.5    -126    220      7    254    255 330.2   1.7  34160  289.56 0854.33
2009/04/23 16:55:48.6    -124    232     31    264    266 331.9   6.7  34174  289.81 0854.33
2009/04/23 16:55:48.7    -102    116     49    155    163 318.5  17.7  34176  289.85 0854.33
2009/04/23 16:55:48.8     -61    225     19    234    235 344.9   4.9  34182  289.93 0854.33
2009/04/23 16:55:48.9    -117    138      7    181    182 319.7   2.3  34180  289.91 0854.33
2009/04/23 16:55:49.0     -12    178    -19    179    181 356.0  -6.2  34178  289.89 0854.33
2009/04/23 16:55:49.1     -64    220    -77    230    243 343.7 -18.7  34194  290.15 0854.33
2009/04/23 16:55:49.2      68    127     41    145    151  28.1  15.8  34200  290.25 0854.33
2009/04/23 16:55:49.3      11    252     36    253    256   2.7   8.2  34206  290.36 0854.33
2009/04/23 16:55:49.4      21    265     32    266    268   4.7   6.9  34190  290.09 0854.33
2009/04/23 16:55:49.5     -67    249    -14    258    259 344.9  -3.3  34184  289.97 0854.33
2009/04/23 16:55:49.6       8    197     90    198    217   2.5  26.2  34210  290.41 0854.33
2009/04/23 16:55:49.7     -71    156    -29    172    175 335.3  -9.8  34202  290.28 0854.33
2009/04/23 16:55:49.8     -36     36    -65     51     82 315.0 -61.9  34190  290.08 0854.33
2009/04/23 16:55:49.9     -78     73     -4    107    108 313.1  -2.2  34194  290.16 0854.33
2009/04/23 16:55:50.0    -123    119    -14    172    173 314.0  -4.9  34188  290.06 0854.33
2009/04/23 16:55:50.1    -210    149    -27    258    260 305.5  -6.0  34184  289.98 0854.33
2009/04/23 16:55:50.2    -257    192    -57    321    327 306.8 -10.1  34214  290.48 0854.33
2009/04/23 16:55:50.3    -201    104    -65    227    237 297.3 -16.0  34208  290.37 0854.33
2009/04/23 16:55:50.4    -191     38    -64    195    205 281.4 -23.8  34186  290.01 0854.33
2009/04/23 16:55:50.5    -369     30      5    371    372 274.7   0.8  34168  289.72 0854.33
2009/04/23 16:55:50.6    -273    -54     72    279    289 258.8  14.5  34156  289.51 0854.33
2009/04/23 16:55:50.7    -128    -60    135    142    195 244.6  48.5  34186  290.02 0854.33
2009/04/23 16:55:50.8     -94    -79    115    123    168 230.0  48.2  34198  290.21 0854.33
2009/04/23 16:55:50.9     -96    -69     88    119    148 234.0  39.7  34196  290.18 0854.33
2009/04/23 16:55:51.0     -80    -50     90     95    130 238.0  48.5  34192  290.11 0854.33
2009/04/23 16:55:51.1     -58    -11     81     60    100 259.4  60.0  34184  289.97 0854.33
2009/04/23 16:55:51.2     -58     54     68     80    104 313.1  44.8  34180  289.92 0854.33
2009/04/23 16:55:51.3     -71     43     68     84    108 301.5  43.7  34168  289.70 0854.33
2009/04/23 16:55:51.4    -234    -32     67    237    247 262.1  15.8  34152  289.42 0854.33
2009/04/23 16:55:51.5    -302     84     36    314    317 285.7   6.7  34160  289.58 0854.33
2009/04/23 16:55:51.6    -341     84    102    352    367 283.9  16.1  34182  289.96 0854.33
2009/04/23 16:55:51.7    -265     36      3    268    269 277.9   0.8  34182  289.93 0854.34
2009/04/23 16:55:51.8    -105    -37     49    112    122 250.5  25.1  34182  289.96 0854.34
2009/04/23 16:55:51.9      40    -54     65     68     94 143.9  49.4  34186  290.02 0854.34
2009/04/23 16:55:52.0     -41   -123    140    130    191 198.7  52.2  34144  289.31 0854.34
2009/04/23 16:55:52.1    -186    -62     64    197    208 251.4  18.1  34146  289.35 0854.34
2009/04/23 16:55:52.2     -13    -51     40     53     66 194.3  40.7  34150  289.41 0854.34
2009/04/23 16:55:52.3      -3   -114    133    115    175 181.8  54.8  34156  289.52 0854.34
2009/04/23 16:55:52.4     -40   -180    116    185    218 192.5  35.5  34146  289.35 0854.34
2009/04/23 16:55:52.5     -78   -218     59    232    240 199.8  14.3  34142  289.25 0854.34
2009/04/23 16:55:52.6     -23   -223     29    225    227 186.0   7.5  34140  289.23 0854.34
2009/04/23 16:55:52.7      36   -209     10    213    214 170.2   2.8  34140  289.23 0854.34
2009/04/23 16:55:52.8      44   -170      3    176    177 165.3   1.0  34144  289.30 0854.34
2009/04/23 16:55:52.9      50   -115     82    126    150 156.4  35.6  34144  289.31 0854.34
2009/04/23 16:55:53.0      14    -97    101     99    141 171.5  50.2  34150  289.41 0854.34
2009/04/23 16:55:53.1      -9   -117    123    118    170 184.4  50.9  34160  289.57 0854.34
2009/04/23 16:55:53.2      -3   -220     90    221    238 180.9  23.1  34144  289.31 0854.34
2009/04/23 16:55:53.3     -73   -233     91    245    261 197.4  21.3  34144  289.29 0854.34
2009/04/23 16:55:53.4     -74   -226     83    238    253 198.3  19.2  34144  289.29 0854.34
2009/04/23 16:55:53.5     -99   -210    142    233    272 205.4  34.4  34150  289.39 0854.34
2009/04/23 16:55:53.6    -132   -231    136    267    299 209.8  29.2  34146  289.34 0854.34
2009/04/23 16:55:53.7     -83   -262    112    275    296 197.6  23.1  34138  289.20 0854.35
2009/04/23 16:55:53.8     -88   -295    147    309    342 196.7  27.3  34142  289.26 0854.35
2009/04/23 16:55:53.9      12   -275    162    276    320 177.4  33.3  34142  289.27 0854.35
2009/04/23 16:55:54.0      52   -255    194    261    325 168.4  40.2  34140  289.22 0854.35
2009/04/23 16:55:54.1      24   -258    197    260    326 174.7  40.9  34140  289.24 0854.35
2009/04/23 16:55:54.2     -11   -263    174    264    316 182.5  36.6  34138  289.20 0854.35
2009/04/23 16:55:54.3     -33   -243    157    246    291 187.8  35.6  34146  289.34 0854.35
2009/04/23 16:55:54.4     -57   -283    183    289    342 191.5  35.5  34136  289.15 0854.35
2009/04/23 16:55:54.5     -45   -238    160    243    290 190.7  36.3  34140  289.22 0854.35
2009/04/23 16:55:54.6     -72   -303    182    312    361 193.4  33.1  34148  289.38 0854.35
2009/04/23 16:55:54.7     -14   -316    150    317    350 182.6  27.1  34134  289.13 0854.35
2009/04/23 16:55:54.8       8   -314    179    315    362 178.4  32.1  34138  289.21 0854.35
2009/04/23 16:55:54.9     -41   -330    184    333    380 187.2  31.4  34128  289.04 0854.35
2009/04/23 16:55:55.0     -15   -305    179    306    354 182.9  33.0  34130  289.06 0854.35
2009/04/23 16:55:55.1      48   -323    145    327    357 171.5  25.6  34136  289.16 0854.35
2009/04/23 16:55:55.2      13   -300     25    301    303 177.5   4.9  34140  289.24 0854.35
2009/04/23 16:55:55.3      23   -301     56    302    308 175.6  10.6  34138  289.19 0854.35
2009/04/23 16:55:55.4       1   -270     70    271    280 179.8  14.5  34136  289.17 0854.35
2009/04/23 16:55:55.5    -135   -265    106    298    316 207.1  20.3  34134  289.14 0854.35
2009/04/23 16:55:55.6     -91   -326     70    339    347 195.7  11.8  34134  289.13 0854.35
2009/04/23 16:55:55.7     -14   -310    171    311    354 182.7  31.3  34152  289.43 0854.34
2009/04/23 16:55:55.8    -113   -299     57    320    326 200.8  10.2  34134  289.12 0854.34
2009/04/23 16:55:55.9    -165   -161     -4    231    232 225.8  -1.2  34144  289.31 0854.34
2009/04/23 16:55:56.0     -70   -103     87    125    152 214.3  38.0  34144  289.30 0854.34
2009/04/23 16:55:56.1      37   -185    -31    189    192 168.5  -9.3  34138  289.21 0854.34
2009/04/23 16:55:56.2     149   -149    -12    212    213 135.0  -3.3  34130  289.08 0854.34
2009/04/23 16:55:56.3     102   -127     45    164    171 141.3  15.3  34138  289.19 0854.34
2009/04/23 16:55:56.4     161    -82      9    181    182 117.1   3.1  34146  289.35 0854.34
2009/04/23 16:55:56.5     189    -33      1    193    194 100.1   0.5  34150  289.40 0854.34
2009/04/23 16:55:56.6     137    -18     85    139    162  97.5  34.8  34156  289.50 0854.34
2009/04/23 16:55:56.7      71    -24     32     76     82 109.1  24.1  34152  289.43 0854.34
2009/04/23 16:55:56.8     -15    -54     88     57    104 196.0  64.6  34170  289.75 0854.34
2009/04/23 16:55:56.9    -116    -17     41    118    126 261.6  19.2  34158  289.53 0854.34
2009/04/23 16:55:57.0    -120     48     21    130    132 291.7   9.5  34156  289.50 0854.34
2009/04/23 16:55:57.1     -85     -3     83     86    119 267.4  49.4  34162  289.62 0854.34
2009/04/23 16:55:57.2      -5    -72    138     73    156 184.5  69.8  34152  289.45 0854.34
2009/04/23 16:55:57.3     -48   -180    168    187    251 195.1  46.6  34142  289.28 0854.34
2009/04/23 16:55:57.4     -31   -165     70    169    182 190.9  23.4  34138  289.21 0854.34
2009/04/23 16:55:57.5     -58   -133     34    146    150 203.6  13.1  34136  289.18 0854.34
2009/04/23 16:55:57.6     -37   -124     21    130    132 197.0   9.5  34138  289.19 0854.34
2009/04/23 16:55:57.7      54    -87    100    103    143 147.9  49.4  34144  289.31 0854.35
2009/04/23 16:55:57.8      57    -28     65     64     91 116.2  50.1  34144  289.31 0854.35
2009/04/23 16:55:57.9      16    -24     70     30     76 145.7  76.1  34152  289.43 0854.35
2009/04/23 16:55:58.0     -52    -49     71     72    101 226.9  50.0  34156  289.50 0854.35
2009/04/23 16:55:58.1    -110   -175     74    207    219 212.1  20.4  34140  289.23 0854.35
2009/04/23 16:55:58.2    -108   -208     83    235    250 207.4  19.4  34138  289.20 0854.35
2009/04/23 16:55:58.3    -129   -310     75    336    345 202.6  12.6  34138  289.20 0854.35
2009/04/23 16:55:58.4     -82   -257    139    270    303 197.8  29.3  34142  289.25 0854.35
2009/04/23 16:55:58.5     -11   -161    125    162    204 184.0  41.6  34142  289.26 0854.35
2009/04/23 16:55:58.6     -49   -228    102    234    255 192.3  25.1  34138  289.19 0854.35
2009/04/23 16:55:58.7     -54   -148     62    158    169 200.1  22.3  34138  289.19 0854.35
2009/04/23 16:55:58.8     -49   -144     79    153    172 198.7  29.3  34144  289.30 0854.35
2009/04/23 16:55:58.9      29   -164     69    167    180 170.0  23.6  34142  289.26 0854.35
2009/04/23 16:55:59.0       4   -187      9    188    189 178.6   2.9  34140  289.23 0854.35
2009/04/23 16:55:59.1      17   -103    -11    105    106 170.2  -6.2  34138  289.21 0854.35
2009/04/23 16:55:59.2      23    -79     42     83     93 163.5  28.2  34136  289.16 0854.35
2009/04/23 16:55:59.3      28   -114     78    118    141 166.2  36.5  34134  289.13 0854.35
2009/04/23 16:55:59.4     -30   -160     20    163    165 190.7   7.2  34134  289.14 0854.35
2009/04/23 16:55:59.5     -84   -163      5    184    185 207.2   1.8  34126  288.99 0854.35
2009/04/23 16:55:59.6    -122   -222    -92    254    270 208.9 -25.1  34112  288.76 0854.35
2009/04/23 16:55:59.7    -149   -288     15    325    326 207.3   2.8  34128  289.02 0854.33
2009/04/23 16:55:59.8     -91   -269    -52    285    290 198.7 -10.5  34128  289.02 0854.33
2009/04/23 16:55:59.9     -71   -267      0    277    278 195.1   0.0  34130  289.07 0854.33
2009/04/23 16:56:00.0      15   -179     74    180    194 175.1  23.6  34134  289.14 0854.33
2009/04/23 16:56:00.1     -25   -156    116    159    196 189.3  39.7  34132  289.11 0854.33
2009/04/23 16:56:00.2     -52   -274    108    280    300 190.9  22.1  34124  288.97 0854.33
2009/04/23 16:56:00.3     -58   -286     52    292    297 191.5  10.1  34118  288.87 0854.33
2009/04/23 16:56:00.4      -6   -259     56    260    267 181.4  12.2  34128  289.02 0854.33
2009/04/23 16:56:00.5      33   -261     22    264    266 172.8   4.9  34126  288.98 0854.33
2009/04/23 16:56:00.6      61   -300     27    307    309 168.4   5.2  34130  289.05 0854.33
2009/04/23 16:56:00.7      -9   -212     74    213    226 182.7  19.2  34130  289.06 0854.33
2009/04/23 16:56:00.8      18   -162     76    164    180 173.5  26.6  34130  289.08 0854.33
2009/04/23 16:56:00.9     -14   -188     79    189    204 184.5  24.3  34128  289.04 0854.33
2009/04/23 16:56:01.0     -56   -209     92    217    235 195.1  24.3  34130  289.06 0854.33
2009/04/23 16:56:01.1      18   -180     63    181    192 174.2  19.4  34136  289.16 0854.33
2009/04/23 16:56:01.2      22   -125     34    128    133 169.8  15.2  34132  289.09 0854.33
2009/04/23 16:56:01.3      62   -128     42    143    150 154.1  16.3  34130  289.08 0854.33
2009/04/23 16:56:01.4     120    -95     45    154    161 128.2  16.3  34130  289.06 0854.33
2009/04/23 16:56:01.5     122    -44    -11    130    131 110.0  -5.1  34128  289.04 0854.33
2009/04/23 16:56:01.6      86    -85     39    122    129 134.6  17.9  34122  288.92 0854.33
2009/04/23 16:56:01.7     123   -123     72    175    189 134.9  23.4  34116  288.84 0854.30
2009/04/23 16:56:01.8     129   -141      9    192    193 137.5   2.9  34128  289.04 0854.30
2009/04/23 16:56:01.9     127   -178     21    219    221 144.4   5.7  34124  288.96 0854.30
2009/04/23 16:56:02.0     118   -253     29    280    282 155.1   6.0  34120  288.88 0854.30
2009/04/23 16:56:02.1     127   -270    -11    299    300 154.8  -2.2  34122  288.92 0854.30
2009/04/23 16:56:02.2      72   -192     13    206    207 159.5   3.8  34116  288.82 0854.30
2009/04/23 16:56:02.3      30   -244      7    246    247 172.9   1.8  34120  288.90 0854.30
2009/04/23 16:56:02.4     109   -198     11    227    228 151.1   2.8  34120  288.91 0854.30
2009/04/23 16:56:02.5     140   -149     40    205    209 136.8  11.1  34118  288.86 0854.30
2009/04/23 16:56:02.6     108   -177     71    208    220 148.6  18.9  34108  288.69 0854.30
2009/04/23 16:56:02.7     141   -282    103    316    333 153.5  18.0  34098  288.51 0854.30
2009/04/23 16:56:02.8     161   -260    107    306    325 148.3  19.3  34102  288.58 0854.30
2009/04/23 16:56:02.9     176   -258     96    313    328 145.7  17.1  34096  288.49 0854.30
2009/04/23 16:56:03.0     101   -208     87    232    247 154.1  21.5  34098  288.53 0854.30
2009/04/23 16:56:03.1      92   -190    100    212    234 154.1  27.1  34100  288.55 0854.30
2009/04/23 16:56:03.2      78   -221    137    235    272 160.4  33.1  34100  288.54 0854.30
2009/04/23 16:56:03.3     120   -243    103    271    289 153.7  21.7  34106  288.65 0854.30
2009/04/23 16:56:03.4      66   -168    127    181    221 158.4  38.6  34110  288.74 0854.30
2009/04/23 16:56:03.5      48   -163    175    171    244 163.5  50.7  34126  289.01 0854.30
2009/04/23 16:56:03.6       9   -196    184    197    269 177.1  48.0  34116  288.83 0854.30
2009/04/23 16:56:03.7      66   -217    172    227    284 163.1  41.2  34110  288.71 0854.28
2009/04/23 16:56:03.8      22   -275    151    276    314 175.3  30.9  34116  288.83 0854.28
2009/04/23 16:56:03.9      19   -275    161    276    319 176.0  32.9  34120  288.88 0854.28
2009/04/23 16:56:04.0       3   -245    146    246    286 179.3  33.5  34124  288.97 0854.28
2009/04/23 16:56:04.1     -14   -218    150    219    265 183.8  37.8  34124  288.97 0854.28
2009/04/23 16:56:04.2      -4   -169    133    170    215 181.4  42.0  34126  288.99 0854.28
2009/04/23 16:56:04.3      -7   -185    127    186    225 182.2  37.6  34124  288.97 0854.28
2009/04/23 16:56:04.4       8   -112    100    113    150 175.6  45.9  34130  289.06 0854.28
2009/04/23 16:56:04.5      27   -140     94    143    171 168.9  36.3  34126  289.01 0854.28
2009/04/23 16:56:04.6       3   -150     77    151    169 178.6  29.1  34126  288.99 0854.28
2009/04/23 16:56:04.7      -1   -135    105    136    171 180.8  41.7  34130  289.08 0854.28
2009/04/23 16:56:04.8     -23   -114     89    117    147 191.6  41.6  34130  289.06 0854.28
2009/04/23 16:56:04.9       2   -153     27    154    157 179.1  10.1  34118  288.87 0854.28
2009/04/23 16:56:05.0      17   -224     59    225    233 175.5  14.7  34112  288.77 0854.28
2009/04/23 16:56:05.1      -4   -185     93    186    207 181.4  28.5  34122  288.94 0854.28
2009/04/23 16:56:05.2      28   -138    132    141    193 168.4  48.0  34126  289.01 0854.28
2009/04/23 16:56:05.3     -32   -134     92    138    165 193.8  36.7  34122  288.94 0854.28
2009/04/23 16:56:05.4      52   -109    106    121    160 154.5  45.8  34132  289.09 0854.28
2009/04/23 16:56:05.5      28   -196    137    199    241 171.8  37.8  34130  289.06 0854.28
2009/04/23 16:56:05.6      -2   -289     56    290    296 180.5  11.0  34122  288.92 0854.28
2009/04/23 16:56:05.7     -18   -245     47    246    251 184.2  10.8  34124  288.95 0854.30
2009/04/23 16:56:05.8     -40   -199     24    204    206 191.5   6.7  34122  288.94 0854.30
2009/04/23 16:56:05.9      52   -246     56    252    259 168.0  12.6  34122  288.92 0854.30
2009/04/23 16:56:06.0      10   -214     86    215    231 177.1  23.0  34122  288.94 0854.30
2009/04/23 16:56:06.1      33   -215     33    218    221 171.3   8.8  34118  288.87 0854.30
2009/04/23 16:56:06.2     142   -103    -16    176    177 126.0  -5.4  34122  288.92 0854.30
2009/04/23 16:56:06.3     162     -4     79    163    181  91.5  27.4  34126  289.01 0854.30
2009/04/23 16:56:06.4     118     -9    121    119    169  94.4  50.1  34132  289.11 0854.30
2009/04/23 16:56:06.5     115     35    123    121    172  72.7  50.1  34138  289.19 0854.30
2009/04/23 16:56:06.6      74     -1     96     75    121  90.9  58.4  34146  289.33 0854.30
2009/04/23 16:56:06.7      67      0    104     68    124  90.0  64.1  34154  289.48 0854.30
2009/04/23 16:56:06.8     -30     17     57     35     66 300.7  64.7  34162  289.60 0854.30
2009/04/23 16:56:06.9     -28      2     70     29     75 274.4  77.0  34166  289.69 0854.30
2009/04/23 16:56:07.0     -19    -30     63     36     72 212.5  68.8  34150  289.40 0854.30
2009/04/23 16:56:07.1     -43    -47     27     64     69 222.3  23.1  34138  289.19 0854.30
2009/04/23 16:56:07.2     -46    -62     16     78     80 217.0  11.6  34132  289.09 0854.30
2009/04/23 16:56:07.3     -34    -46     15     58     61 216.1  15.2  34138  289.21 0854.30
2009/04/23 16:56:07.4     -73    -29      4     79     80 248.2   2.9  34136  289.16 0854.30
2009/04/23 16:56:07.5     -37     -2     -4     38     39 265.6  -7.3  34132  289.11 0854.30
2009/04/23 16:56:07.6     -60     34     13     70     72 299.8  11.0  34136  289.18 0854.30
2009/04/23 16:56:07.7     -59     43     20     74     77 306.0  15.2  34136  289.16 0854.30
2009/04/23 16:56:07.8     -86     45     -5     98     99 297.5  -3.1  34130  289.08 0854.30
2009/04/23 16:56:07.9     -55     55    -27     78     83 314.9 -19.7  34138  289.19 0854.30
2009/04/23 16:56:08.0     -81      4     -8     82     83 273.0  -6.2  34140  289.24 0854.30
2009/04/23 16:56:08.1     -63     12     -8     65     66 281.5  -7.3  34146  289.35 0854.30
2009/04/23 16:56:08.2     -54      0     -7     55     56 270.0  -7.3  34146  289.33 0854.30
2009/04/23 16:56:08.3     -37     11     -5     39     40 287.7  -8.2  34138  289.19 0854.30
2009/04/23 16:56:08.4     -32      6     -9     33     35 281.5 -15.5  34140  289.24 0854.30
2009/04/23 16:56:08.5     -16     10     -8     19     20 302.5 -27.4  34144  289.30 0854.30
2009/04/23 16:56:08.6      -4     23    -18     24     30 350.2 -46.1  34146  289.35 0854.30
2009/04/23 16:56:08.7      -4     17    -28     18     33 344.9 -69.0  34152  289.45 0854.32
2009/04/23 16:56:08.8      -1     35    -16     36     39 357.3 -29.5  34174  289.80 0854.32
2009/04/23 16:56:08.9     -26     14    -20     30     36 298.9 -40.0  34180  289.92 0854.32
2009/04/23 16:56:09.0     -48     27    -25     56     61 299.8 -29.5  34186  290.01 0854.32
2009/04/23 16:56:09.1     -57     54    -30     79     84 313.1 -25.4  34192  290.13 0854.32
2009/04/23 16:56:09.2     -80     75    -27    111    115 313.2 -13.9  34182  289.94 0854.32
2009/04/23 16:56:09.3     -95     46     32    106    111 295.8  16.8  34142  289.26 0854.32
2009/04/23 16:56:09.4     -95     78      2    124    125 309.5   1.2  34138  289.21 0854.32
2009/04/23 16:56:09.6    -105     71      2    128    129 304.2   1.2  34138  289.19 0854.32
2009/04/23 16:56:09.6    -118    101      8    156    157 310.4   3.1  34134  289.14 0854.32
2009/04/23 16:56:09.7     -65    102     75    122    143 327.4  35.0  34146  289.35 0854.32
2009/04/23 16:56:09.9     -13     82     95     84    126 350.7  54.2  34150  289.41 0854.32
2009/04/23 16:56:10.0     -15    106     96    108    144 351.5  46.4  34160  289.58 0854.32
2009/04/23 16:56:10.0      49     25    121     56    133  62.9  73.5  34162  289.62 0854.32
2009/04/23 16:56:10.1      69     39     94     80    123  60.2  54.8  34166  289.69 0854.32
2009/04/23 16:56:10.2      32     78     75     85    113  22.7  46.4  34160  289.57 0854.32
2009/04/23 16:56:10.3      19     74     65     77    100  14.3  44.3  34166  289.67 0854.32
2009/04/23 16:56:10.5     -15     80     59     82    101 348.9  39.5  34160  289.57 0854.32
2009/04/23 16:56:10.6      13     39     37     42     55  18.5  45.8  34148  289.36 0854.32
2009/04/23 16:56:10.7      64     35     98     74    122  61.1  59.0  34162  289.62 0854.32
2009/04/23 16:56:10.8      34    -22     56     41     69 122.5  60.5  34158  289.55 0854.29
2009/04/23 16:56:10.9      14    -26     49     30     57 151.0  64.7  34158  289.55 0854.29
2009/04/23 16:56:11.0      51      0     72     52     88  90.0  60.5  34156  289.52 0854.29
2009/04/23 16:56:11.1      36    -94    128    101    163 158.6  57.7  34142  289.28 0854.29
2009/04/23 16:56:11.2      67    -55     94     88    128 129.5  52.1  34136  289.18 0854.29
2009/04/23 16:56:11.3      -8    -63     92     64    112 188.0  61.5  34140  289.24 0854.29
2009/04/23 16:56:11.4      14    -15    120     21    121 136.8  90.0  34160  289.58 0854.29
2009/04/23 16:56:11.5     -52     17     94     55    108 288.4  67.2  34158  289.55 0854.29
2009/04/23 16:56:11.6      21    -67     95     71    118 162.2  59.4  34174  289.82 0854.29
2009/04/23 16:56:11.7       0    -58    109     59    123 180.9  68.9  34176  289.84 0854.29
2009/04/23 16:56:11.8     -32    -10     86     34     92 251.6  77.6  34188  290.04 0854.29
2009/04/23 16:56:11.9      72    -28     54     78     94 111.7  37.6  34170  289.74 0854.29
2009/04/23 16:56:12.0     105    -31     26    110    114 106.8  13.2  34170  289.74 0854.29
2009/04/23 16:56:12.1     135    -44     49    143    152 108.2  18.9  34198  290.23 0854.29
2009/04/23 16:56:12.2     210      0    144    211    255  90.0  37.6  34254  291.17 0854.29
2009/04/23 16:56:12.3     216     30    116    219    247  82.0  30.2  34238  290.88 0854.29
2009/04/23 16:56:12.4     235     38     84    239    254  80.8  19.4  34242  290.95 0854.29
2009/04/23 16:56:12.5     250     34     89    253    268  82.1  20.0  34260  291.27 0854.29
2009/04/23 16:56:12.6     186     -6     79    187    203  92.1  24.1  34214  290.50 0854.29
2009/04/23 16:56:12.7     208     25     57    210    218  83.0  15.3  34254  291.16 0854.29
2009/04/23 16:56:12.8     146    -30    114    150    188 101.9  41.2  34190  290.08 0854.31
2009/04/23 16:56:12.9     162     49     87    170    190  72.9  29.1  34226  290.69 0854.31
2009/04/23 16:56:13.0      58    -30    112     66    130 118.0  66.8  34160  289.58 0854.31
2009/04/23 16:56:13.1       0    -85    112     86    141 180.0  58.5  34158  289.55 0854.31
2009/04/23 16:56:13.2      -8   -108    103    109    149 184.4  48.0  34176  289.85 0854.31
2009/04/23 16:56:13.3       6    -85      0     86     87 176.0   0.2  34172  289.77 0854.31
2009/04/23 16:56:13.4     -48     12    -47     50     68 284.2 -53.4  34180  289.92 0854.31
2009/04/23 16:56:13.5     -16     16      9     23     24 315.0  21.0  34182  289.96 0854.31
2009/04/23 16:56:13.6     -36    -61     18     71     74 210.7  14.3  34172  289.79 0854.31
2009/04/23 16:56:13.7     -26    -28     39     39     55 223.4  50.1  34180  289.91 0854.31
2009/04/23 16:56:13.8     -21    -26     26     34     42 219.6  41.7  34182  289.96 0854.31
2009/04/23 16:56:13.9     -48   -101     41    112    119 205.5  20.9  34170  289.75 0854.31
2009/04/23 16:56:14.0      39    -42     75     58     94 136.8  58.5  34194  290.16 0854.31
2009/04/23 16:56:14.1      82    -45     78     94    122 118.9  43.8  34176  289.84 0854.31
2009/04/23 16:56:14.2      94     31     12    100    101  71.6   6.9  34178  289.89 0854.31
2009/04/23 16:56:14.3      29      0    -28     30     41  90.0 -53.4  34176  289.85 0854.31
2009/04/23 16:56:14.4     -24    -97     41    101    109 194.3  23.0  34176  289.85 0854.31
2009/04/23 16:56:14.5     -10    -47     17     49     52 192.5  19.2  34176  289.85 0854.31
2009/04/23 16:56:14.6      93      4     31     94    100  87.4  18.4  34186  290.02 0854.31
2009/04/23 16:56:14.7     133     78     71    155    170  59.8  26.4  34198  290.23 0854.31
2009/04/23 16:56:14.8     102     97    126    142    189  46.4  46.2  34242  290.98 0854.26
2009/04/23 16:56:14.9     -61    122    144    137    198 333.3  51.6  34244  290.99 0854.26
2009/04/23 16:56:15.0     -90   -170     84    193    210 208.1  25.1  34220  290.60 0854.26
2009/04/23 16:56:15.1    -141   -202    113    247    271 215.0  26.4  34180  289.92 0854.26
2009/04/23 16:56:15.2    -119   -151    101    193    217 218.3  29.8  34178  289.87 0854.26
2009/04/23 16:56:15.3     -79   -209     11    224    225 200.9   2.9  34168  289.72 0854.26
2009/04/23 16:56:15.4     -47   -164     24    171    173 196.3   8.2  34168  289.72 0854.26
2009/04/23 16:56:15.5      -6   -159     21    160    162 182.5   7.8  34172  289.79 0854.26
2009/04/23 16:56:15.6     -82   -185    -88    203    221 203.8 -29.3  34166  289.69 0854.26
2009/04/23 16:56:15.7     -83   -229    -88    244    259 200.0 -25.1  34172  289.78 0854.26
2009/04/23 16:56:15.8     -88   -209   -107    228    251 202.9 -31.5  34178  289.86 0854.26
2009/04/23 16:56:15.9      46   -140    -46    148    155 161.7 -17.3  34182  289.96 0854.26
2009/04/23 16:56:16.0       9   -123     72    124    143 175.5  33.4  34184  289.99 0854.26
2009/04/23 16:56:16.1      -6   -135     69    136    152 182.6  28.7  34186  290.01 0854.26
2009/04/23 16:56:16.2     -50   -143    -48    152    160 199.6 -17.6  34168  289.72 0854.26
2009/04/23 16:56:16.3     -20   -204     39    206    210 185.6  10.8  34170  289.74 0854.26
2009/04/23 16:56:16.4      24   -141    -37    144    149 170.2 -14.5  34168  289.72 0854.26
2009/04/23 16:56:16.5      37   -147    -31    152    156 165.7 -11.6  34170  289.74 0854.26
2009/04/23 16:56:16.6     -14   -153     87    154    176 185.3  31.6  34176  289.85 0854.26
2009/04/23 16:56:16.7    -141   -170    163    222    275 219.7  39.9  34196  290.17 0854.26
2009/04/23 16:56:16.8     -97   -116    117    152    191 219.7  41.7  34204  290.33 0854.25
2009/04/23 16:56:16.9     -80    -74    118    110    161 227.3  52.2  34204  290.33 0854.25
2009/04/23 16:56:17.0     -97   -117    119    153    193 219.6  42.0  34208  290.40 0854.25
2009/04/23 16:56:17.1     -70   -125    156    144    212 209.4  52.2  34188  290.04 0854.25
2009/04/23 16:56:17.2     -66   -127    208    144    252 207.6  62.1  34184  289.97 0854.25
2009/04/23 16:56:17.3    -147    -94    167    175    241 237.4  49.0  34198  290.23 0854.25
2009/04/23 16:56:17.4    -166    -64     85    179    198 248.7  27.3  34192  290.13 0854.25
2009/04/23 16:56:17.5     -77    -82    149    113    187 223.3  59.0  34182  289.94 0854.25
2009/04/23 16:56:17.6    -119   -115    157    166    228 226.0  48.2  34178  289.89 0854.25
2009/04/23 16:56:17.7     -76   -160    152    178    234 205.3  44.8  34174  289.82 0854.25
2009/04/23 16:56:17.8     -98   -204    158    227    276 205.6  38.4  34172  289.78 0854.25
2009/04/23 16:56:17.9     -61   -171    166    182    246 199.8  47.0  34172  289.79 0854.25
2009/04/23 16:56:18.0    -137   -195    154    239    284 215.2  35.6  34182  289.95 0854.25
2009/04/23 16:56:18.1    -153   -134    125    204    239 228.7  34.4  34174  289.80 0854.25
2009/04/23 16:56:18.2    -220   -155     95    270    287 234.9  19.4  34170  289.75 0854.25
2009/04/23 16:56:18.3    -240   -153    104    285    303 237.5  20.9  34176  289.85 0854.25
2009/04/23 16:56:18.4    -212   -188    123    284    309 228.4  25.1  34182  289.93 0854.25
2009/04/23 16:56:18.5    -249   -142     44    287    291 240.2   8.8  34176  289.83 0854.25
2009/04/23 16:56:18.6    -219   -178    117    283    306 230.9  23.8  34178  289.86 0854.25
2009/04/23 16:56:18.7    -214   -100     58    237    245 244.8  13.9  34176  289.83 0854.25
2009/04/23 16:56:18.8    -183   -109     37    214    218 239.3   9.9  34184  289.99 0854.22
2009/04/23 16:56:18.9    -248   -108     58    271    278 246.5  12.2  34190  290.09 0854.22
2009/04/23 16:56:19.0    -180   -219     44    284    288 219.4   8.8  34154  289.46 0854.22
2009/04/23 16:56:19.1    -126   -109     70    167    181 229.1  23.8  34178  289.89 0854.22
2009/04/23 16:56:19.2    -155   -111     35    191    195 234.3  10.6  34172  289.79 0854.22
2009/04/23 16:56:19.3    -257   -137     45    292    296 242.0   8.8  34184  289.98 0854.22
2009/04/23 16:56:19.4    -195   -171    -44    260    264 228.7  -9.6  34168  289.70 0854.22
2009/04/23 16:56:19.5    -182   -150    -17    237    238 230.5  -4.1  34168  289.71 0854.22
2009/04/23 16:56:19.6    -222   -221    -15    314    315 225.1  -2.8  34164  289.63 0854.22
2009/04/23 16:56:19.7    -239   -220    -12    326    327 227.4  -2.1  34174  289.80 0854.22
2009/04/23 16:56:19.8    -236   -141    -54    276    282 239.1 -11.1  34186  290.02 0854.22
2009/04/23 16:56:19.9    -252   -104     32    273    275 247.6   6.9  34202  290.29 0854.22
2009/04/23 16:56:20.0    -297    -89    -26    311    313 253.2  -4.9  34196  290.17 0854.22
2009/04/23 16:56:20.1    -256   -101      0    276    277 248.3   0.0  34202  290.27 0854.22
2009/04/23 16:56:20.2    -282   -203    -44    348    351 234.3  -7.3  34186  290.01 0854.22
2009/04/23 16:56:20.3    -251   -218     46    333    337 229.0   7.9  34178  289.89 0854.22
2009/04/23 16:56:20.4    -259   -213    116    336    356 230.5  19.2  34208  290.38 0854.22
2009/04/23 16:56:20.5    -321   -192     66    375    381 239.1  10.0  34192  290.11 0854.22
2009/04/23 16:56:20.6    -335   -192     68    387    394 240.2  10.0  34218  290.57 0854.22
2009/04/23 16:56:20.7    -293   -183    125    346    367 238.0  20.7  34230  290.76 0854.22
2009/04/23 16:56:20.8    -362    -75     38    370    373 258.2   6.0  34224  290.66 0854.21
2009/04/23 16:56:20.9    -284    -21     35    285    288 265.6   7.1  34242  290.95 0854.21
2009/04/23 16:56:21.0    -314     19     62    315    322 273.5  11.1  34246  291.02 0854.21
2009/04/23 16:56:21.1    -310    -14    106    311    329 267.4  18.8  34238  290.88 0854.21
2009/04/23 16:56:21.2    -209    216    181    301    351 315.9  33.8  34196  290.18 0854.21
2009/04/23 16:56:21.3    -172    271    112    322    342 327.5  19.2  34180  289.91 0854.21
2009/04/23 16:56:21.4     -75    279    119    290    313 344.9  23.6  34192  290.10 0854.21
2009/04/23 16:56:21.5       7    301     19    302    303   1.4   3.6  34212  290.46 0854.21
2009/04/23 16:56:21.6      30    307    151    309    343   5.6  27.9  34186  290.01 0854.21
2009/04/23 16:56:21.7      58     83    189    102    214  34.7  69.1  34212  290.45 0854.21
2009/04/23 16:56:21.8     360    142    108    388    403  68.4  15.7  34202  290.28 0854.21
2009/04/23 16:56:21.9     234    235     88    332    344  44.9  14.9  34198  290.21 0854.21
2009/04/23 16:56:22.0     166    219    144    275    310  37.2  29.5  34212  290.46 0854.21
2009/04/23 16:56:22.1     169    305     33    349    351  29.0   5.5  34222  290.62 0854.21
2009/04/23 16:56:22.2     339    158     94    375    387  65.0  14.2  34188  290.06 0854.21
2009/04/23 16:56:22.3     239    152     68    284    293  57.5  13.5  34196  290.19 0854.21
2009/04/23 16:56:22.4     229     75      3    242    243  71.8   0.8  34194  290.14 0854.21
2009/04/23 16:56:22.5     156     76     20    174    176  64.0   6.7  34186  290.02 0854.21
2009/04/23 16:56:22.6     129    106      2    168    169  50.7   0.8  34196  290.19 0854.21
2009/04/23 16:56:22.7     144     79     84    165    185  61.1  29.1  34226  290.70 0854.21
2009/04/23 16:56:22.8     124     59     63    138    151  64.6  26.6  34230  290.77 0854.18
2009/04/23 16:56:22.9      84     60     49    104    114  54.5  27.1  34238  290.91 0854.18
2009/04/23 16:56:23.0     108     15    146    110    182  82.0  59.4  34246  291.03 0854.18
2009/04/23 16:56:23.1     142      7    120    143    186  87.0  44.1  34234  290.82 0854.18
2009/04/23 16:56:23.2       0     -5    123      6    123 182.7  90.0  34264  291.33 0854.18
2009/04/23 16:56:23.3     129     72     89    149    173  60.7  34.0  34226  290.70 0854.18
2009/04/23 16:56:23.4     226    120    -87    257    271  62.0 -23.3  34232  290.80 0854.18
2009/04/23 16:56:23.5     237     96    130    256    287  67.8  29.2  34230  290.75 0854.18
2009/04/23 16:56:23.6     298     -8    194    299    356  91.7  36.0  34242  290.98 0854.18
2009/04/23 16:56:23.7     257     -4     80    258    271  91.0  17.3  34242  290.97 0854.18
2009/04/23 16:56:23.8     199      4    115    200    230  88.7  32.4  34248  291.06 0854.18
2009/04/23 16:56:23.9     221      9    142    222    263  87.5  35.6  34254  291.17 0854.18
2009/04/23 16:56:24.0     159      5     83    160    180  87.9  29.5  34244  290.99 0854.18
2009/04/23 16:56:24.1     106    -28    106    110    152 105.1  49.4  34246  291.04 0854.18
2009/04/23 16:56:24.2     127     -8    164    128    208  93.9  58.2  34246  291.03 0854.18
2009/04/23 16:56:24.3     164     29    124    167    208  79.9  40.1  34242  290.98 0854.18
2009/04/23 16:56:24.4      97    110    119    147    189  41.4  43.5  34254  291.16 0854.18
2009/04/23 16:56:24.5     103     40     84    111    139  68.7  40.7  34254  291.18 0854.18
2009/04/23 16:56:24.6     133     48     69    142    157  70.0  27.8  34256  291.20 0854.18
2009/04/23 16:56:24.7      93     93     49    132    140  45.1  21.0  34266  291.37 0854.18
2009/04/23 16:56:24.8     131     47    107    140    176  70.0  41.4  34242  290.98 0854.17
2009/04/23 16:56:24.9     163    139     90    215    233  49.6  23.8  34246  291.03 0854.17
2009/04/23 16:56:25.0     174    211     31    274    276  39.6   6.5  34242  290.95 0854.17
2009/04/23 16:56:25.1     139    320   -105    350    365  23.5 -21.7  34176  289.84 0854.17
2009/04/23 16:56:25.2     -80    263    -65    276    284 343.1 -13.4  34116  288.83 0854.17
2009/04/23 16:56:25.3      -4    282   -102    283    300 359.1 -25.1  34084  288.27 0854.17
2009/04/23 16:56:25.4     131    258    -11    290    291  27.0  -2.2  34150  289.39 0854.17
2009/04/23 16:56:25.5      69    179    166    193    254  21.2  44.9  34156  289.51 0854.17
2009/04/23 16:56:25.6     118     85     51    146    155  54.0  19.4  34210  290.43 0854.17
2009/04/23 16:56:25.7      33    162     58    166    176  11.6  19.4  34200  290.25 0854.17
2009/04/23 16:56:25.8     128    294    208    322    383  23.6  35.7  34288  291.73 0854.17
2009/04/23 16:56:25.9     127    132    288    184    341  43.9  64.6  34226  290.68 0854.17
2009/04/23 16:56:26.0     350    250     92    431    441  54.5  12.2  34204  290.31 0854.17
2009/04/23 16:56:26.1     325    186     58    375    380  60.2   8.9  34208  290.40 0854.17
2009/04/23 16:56:26.2     321    194     47    376    379  58.9   7.2  34192  290.11 0854.17
2009/04/23 16:56:26.3     292    162    -28    334    336  61.0  -4.9  34184  289.98 0854.17
2009/04/23 16:56:26.4     267    121     30    294    296  65.6   5.9  34182  289.95 0854.17
2009/04/23 16:56:26.5     221     74    -32    234    237  71.4  -8.0  34162  289.59 0854.17
2009/04/23 16:56:26.6      39     14   -113     42    120  69.2 -83.6  34178  289.89 0854.17
2009/04/23 16:56:26.7     118    -31    -43    123    131 105.1 -19.6  34164  289.65 0854.17
2009/04/23 16:56:26.8     221     -3    -70    222    233  90.8 -17.6  34202  290.30 0854.18
2009/04/23 16:56:26.9     387   -137     26    411    412 109.5   3.6  34224  290.67 0854.18
2009/04/23 16:56:27.0     300    -96    -12    316    317 107.8  -2.2  34228  290.71 0854.18
2009/04/23 16:56:27.1     421   -214    -51    473    476 117.0  -6.2  34222  290.64 0854.18
2009/04/23 16:56:27.2     329   -240    -17    408    409 126.1  -2.5  34194  290.14 0854.18
2009/04/23 16:56:27.3     310   -300    -44    432    435 134.0  -5.9  34182  289.94 0854.18
2009/04/23 16:56:27.4      38    -93     51    101    113 157.7  28.2  34218  290.57 0854.18
2009/04/23 16:56:27.5     102     69    291    124    316  55.8  75.7  34204  290.31 0854.18
2009/04/23 16:56:27.6      22    307     92    308    322   4.2  16.6  34192  290.12 0854.18
2009/04/23 16:56:27.7     238    210    193    318    371  48.6  34.1  34240  290.93 0854.18
2009/04/23 16:56:27.8     298    111    289    319    430  69.6  46.9  34304  292.02 0854.16
2009/04/23 16:56:27.9     275     74    278    285    398  74.9  49.3  34316  292.22 0854.16
2009/04/23 16:56:28.0     151    -53    281    161    323 109.5  67.7  34254  291.17 0854.16
2009/04/23 16:56:28.1      89     -7    251     90    266  94.8  79.9  34274  291.52 0854.16
2009/04/23 16:56:28.2     241     -4    269    242    361  91.0  53.6  34266  291.36 0854.16
2009/04/23 16:56:28.3     194     11    344    195    395  86.7  68.1  34288  291.73 0854.16
2009/04/23 16:56:28.4     321    173    415    365    552  61.6  54.3  34252  291.12 0854.16
2009/04/23 16:56:28.5     287    117    416    310    518  67.8  59.7  34174  289.80 0854.16
2009/04/23 16:56:28.6     430    670    418    797    899  32.7  29.9  34106  288.65 0854.16
2009/04/23 16:56:28.7     553    784    295    960   1005  35.2  17.1  34090  288.39 0854.16
2009/04/23 16:56:28.8     489    429    411    651    769  48.7  35.5  34090  288.37 0854.16
2009/04/23 16:56:28.9     419    446    292    613    678  43.2  27.3  34102  288.60 0854.16
2009/04/23 16:56:29.0     371    420    332    561    651  41.4  33.4  34110  288.72 0854.16
2009/04/23 16:56:29.1     340    499    334    604    690  34.3  31.4  34122  288.94 0854.16
2009/04/23 16:56:29.2     499    500    350    707    788  44.9  28.4  34094  288.45 0854.16
2009/04/23 16:56:29.3     444    464    357    643    735  43.7  31.4  34106  288.66 0854.16
2009/04/23 16:56:29.4     636    405    350    755    832  57.5  26.6  34126  288.99 0854.16
2009/04/23 16:56:29.5     588    433    379    731    823  53.6  29.6  34072  288.07 0854.16
2009/04/23 16:56:29.6     561    438    374    713    805  52.0  29.9  34198  290.20 0854.16
2009/04/23 16:56:29.7     463    414    510    622    804  48.2  43.6  34172  289.79 0854.16
2009/04/23 16:56:29.8     535    384    520    659    839  54.3  42.2  34042  287.58 0854.19
2009/04/23 16:56:29.9     433    270    473    511    696  58.1  47.7  34090  288.40 0854.19
2009/04/23 16:56:30.0     378    140    380    404    554  69.7  48.0  34108  288.68 0854.19
2009/04/23 16:56:30.1     718    -66    409    722    829  95.3  32.1  34128  289.03 0854.19
2009/04/23 16:56:30.2     613    204    441    647    783  71.5  37.7  34160  289.58 0854.19
2009/04/23 16:56:30.3     587     44    348    589    684  85.6  33.4  34156  289.52 0854.19
2009/04/23 16:56:30.4     597   -393    500    716    873 123.4  38.4  34160  289.58 0854.19
2009/04/23 16:56:30.5     299   -361    388    469    608 140.4  43.8  34160  289.57 0854.19
2009/04/23 16:56:30.6      72   -169    338    184    384 156.8  69.0  34160  289.57 0854.19
2009/04/23 16:56:30.7     449   -120    304    465    555 105.0  36.3  34134  289.14 0854.19
2009/04/23 16:56:30.8     590   -205    205    625    658 109.2  18.2  34132  289.09 0854.19
2009/04/23 16:56:30.9     587    -65    169    591    615  96.4  16.0  34118  288.85 0854.19
2009/04/23 16:56:31.0     546    -92    196    554    587  99.6  20.3  34100  288.54 0854.19
2009/04/23 16:56:31.1     486    -58    214    490    534  96.9  25.1  34118  288.85 0854.19
2009/04/23 16:56:31.2     339   -113    172    358    397 108.5  27.7  34116  288.82 0854.19
2009/04/23 16:56:31.3     313    -71    151    321    354 102.8  27.1  34116  288.82 0854.19
2009/04/23 16:56:31.4     415    -56    148    419    445  97.7  19.5  34114  288.80 0854.19
2009/04/23 16:56:31.5     418   -159    181    448    483 110.8  23.2  34082  288.25 0854.19
2009/04/23 16:56:31.6     324   -257     81    414    422 128.4  11.1  34106  288.65 0854.19
2009/04/23 16:56:31.7     244   -228    125    335    357 133.0  21.4  34126  288.99 0854.19
2009/04/23 16:56:31.8      86    -86    202    123    236 135.0  66.0  34146  289.33 0854.20
2009/04/23 16:56:31.9     203   -286    280    352    449 144.6  42.6  34124  288.95 0854.20
2009/04/23 16:56:32.0      84   -144    191    167    253 149.7  54.3  34130  289.08 0854.20
2009/04/23 16:56:32.1     260   -132    253    292    386 116.9  45.4  34116  288.84 0854.20
2009/04/23 16:56:32.2     359   -113    261    377    458 107.6  37.9  34094  288.46 0854.20
2009/04/23 16:56:32.3     350   -137    231    377    442 111.4  34.4  34096  288.48 0854.20
2009/04/23 16:56:32.4     274   -162    250    319    405 120.7  42.1  34088  288.35 0854.20
2009/04/23 16:56:32.5     212    -64    239    222    326 106.8  52.5  34094  288.46 0854.20
2009/04/23 16:56:32.6     125    250    255    280    378  26.7  47.3  34172  289.77 0854.20
2009/04/23 16:56:32.7     146    100    223    178    285  55.6  57.3  34250  291.09 0854.20
2009/04/23 16:56:32.8      71    185    254    199    322  21.2  58.0  34232  290.78 0854.20
2009/04/23 16:56:32.9     163    199    258    258    364  39.4  50.1  34218  290.54 0854.20
2009/04/23 16:56:33.0      31     40    191     51    197  37.8  84.9  34234  290.84 0854.20
2009/04/23 16:56:33.1       0    -86    195     87    213 180.4  74.5  34220  290.58 0854.20
2009/04/23 16:56:33.2      28   -250    212    252    329 173.5  44.3  34128  289.03 0854.20
2009/04/23 16:56:33.3      73   -279    236    289    373 165.3  43.6  34142  289.25 0854.20
2009/04/23 16:56:33.4     -53   -312    263    317    411 189.7  43.8  34142  289.25 0854.20
2009/04/23 16:56:33.5       5    -89    207     90    225 176.4  75.0  34162  289.62 0854.20
2009/04/23 16:56:33.6      80   -126    180    150    234 147.4  56.1  34152  289.43 0854.20
2009/04/23 16:56:33.7     108    -59    166    124    207 118.9  59.4  34156  289.50 0854.20
2009/04/23 16:56:33.8     123    -36    161    129    206 106.4  56.9  34156  289.50 0854.21
2009/04/23 16:56:33.9     165    -88    190    188    267 118.2  50.1  34154  289.46 0854.21
2009/04/23 16:56:34.0     106   -119    224    160    275 138.5  61.1  34184  289.98 0854.21
2009/04/23 16:56:34.1      78   -383    300    392    493 168.4  41.2  34178  289.87 0854.21
2009/04/23 16:56:34.2       5   -319    339    320    466 179.0  52.1  34186  290.02 0854.21
2009/04/23 16:56:34.3      79   -366    366    375    524 167.7  49.4  34168  289.71 0854.21
2009/04/23 16:56:34.4     210   -321    397    384    552 146.8  51.2  34126  289.01 0854.21
2009/04/23 16:56:34.5     604   -523    573    800    984 130.9  39.2  34106  288.65 0854.21
2009/04/23 16:56:34.6     767   -573    -91    958    963 126.8  -5.5  34098  288.53 0854.21
2009/04/23 16:56:34.7     470   -488   -202    678    708 136.1 -16.6  34100  288.57 0854.21
2009/04/23 16:56:34.8     267   -377   -149    462    485 144.7 -22.9  34108  288.69 0854.21
2009/04/23 16:56:34.9      63   -372   -361    378    522 170.3 -53.0  34104  288.64 0854.21
2009/04/23 16:56:35.0     238   -454    202    513    551 152.3  22.7  34100  288.57 0854.21
2009/04/23 16:56:35.1     109   -494    225    507    554 167.5  25.6  34094  288.45 0854.21
2009/04/23 16:56:35.2     161   -324   -123    362    382 153.5 -23.5  34094  288.45 0854.21
2009/04/23 16:56:35.3     267   -668   -118    720    730 158.2  -9.3  34078  288.18 0854.21
2009/04/23 16:56:35.4     263   -657   -129    708    720 158.2 -10.4  34088  288.34 0854.21
2009/04/23 16:56:35.5     -41   -268   -339    272    434 188.7 -61.7  34100  288.54 0854.21
2009/04/23 16:56:35.6    -184   -156     92    242    258 229.8  22.0  34086  288.32 0854.21
2009/04/23 16:56:35.7      43   -127    228    135    264 161.3  66.8  34100  288.57 0854.21
2009/04/23 16:56:35.8      69   -209    152    221    268 161.7  37.8  34094  288.44 0854.22
2009/04/23 16:56:35.9      88   -208    -39    226    230 157.1  -9.8  34092  288.43 0854.22
2009/04/23 16:56:36.0      45   -227   -104    232    254 168.7 -30.3  34100  288.56 0854.22
2009/04/23 16:56:36.1      70   -241    -31    252    255 163.7  -7.2  34102  288.58 0854.22
2009/04/23 16:56:36.2      64   -128    -29    144    147 153.3 -11.5  34104  288.62 0854.22
2009/04/23 16:56:36.3      48    -77    -29     91     96 147.9 -18.1  34108  288.69 0854.22
2009/04/23 16:56:36.4      41    -17     32     45     55 113.5  38.6  34108  288.69 0854.22
2009/04/23 16:56:36.5     -42     51     43     67     79 320.4  36.0  34122  288.94 0854.22
2009/04/23 16:56:36.6     -28      0     28     29     40 270.0  50.0  34110  288.74 0854.22
2009/04/23 16:56:36.8     116     29    -51    120    130  75.8 -29.0  34110  288.72 0854.22
2009/04/23 16:56:36.9     185     72    -68    199    210  68.7 -23.3  34110  288.72 0854.22
2009/04/23 16:56:37.0     137     -1    -12    138    139  90.8  -5.2  34110  288.74 0854.22
2009/04/23 16:56:37.1      61   -169    117    180    214 160.0  35.6  34112  288.75 0854.22
2009/04/23 16:56:37.2      58   -134     70    147    162 156.4  27.2  34112  288.75 0854.22
2009/04/23 16:56:37.3     112    -95     17    148    150 130.4   6.9  34114  288.79 0854.22
2009/04/23 16:56:37.4      50      9    -32     51     60  79.4 -39.9  34120  288.89 0854.22
2009/04/23 16:56:37.5     -84    -53     -1    100    101 238.0  -0.7  34114  288.80 0854.22
2009/04/23 16:56:37.6     -51   -119    107    130    168 203.2  43.7  34116  288.82 0854.22
2009/04/23 16:56:37.7    -131   -152     18    202    203 220.8   5.2  34108  288.69 0854.22
2009/04/23 16:56:37.8    -104   -104    114    148    186 225.0  42.0  34114  288.80 0854.22
2009/04/23 16:56:37.9    -134   -129     91    187    207 226.2  27.8  34114  288.80 0854.23
2009/04/23 16:56:38.0    -103   -183    182    211    278 209.4  45.4  34116  288.83 0854.23
2009/04/23 16:56:38.1    -120   -199    164    233    284 211.0  38.6  34122  288.92 0854.23
2009/04/23 16:56:38.2     -70    -76    173    104    201 222.3  66.2  34118  288.87 0854.23
2009/04/23 16:56:38.3      26    -55    179     61    189 154.7  81.0  34134  289.13 0854.23
2009/04/23 16:56:38.4     -14     85    172     87    192 350.2  71.4  34132  289.11 0854.23
2009/04/23 16:56:38.5     131     -3    221    132    257  91.7  66.7  34116  288.84 0854.23
2009/04/23 16:56:38.6     210   -167    113    269    291 128.6  24.1  34098  288.51 0854.23
2009/04/23 16:56:38.7     252    -55    111    259    281 102.4  24.6  34120  288.88 0854.23
2009/04/23 16:56:38.8     232    -62     64    241    250 105.1  15.0  34116  288.83 0854.23
2009/04/23 16:56:38.9     118    -26    166    122    206 102.8  60.0  34126  288.99 0854.23
2009/04/23 16:56:39.0     170    -80    173    189    256 115.3  47.5  34132  289.10 0854.23
2009/04/23 16:56:39.1     -16     36     71     40     81 336.4  68.3  34136  289.16 0854.23
2009/04/23 16:56:39.2      15    -31     79     35     86 152.8  75.0  34144  289.30 0854.23
2009/04/23 16:56:39.3      -4   -103    144    104    177 182.7  60.6  34126  289.01 0854.23
2009/04/23 16:56:39.4     -15    -94    202     96    223 189.3  72.8  34130  289.06 0854.23
2009/04/23 16:56:39.5    -185   -191    379    266    463 224.1  61.7  34090  288.39 0854.23
2009/04/23 16:56:39.6     -78   -249    265    261    371 197.4  50.4  34100  288.55 0854.23
2009/04/23 16:56:39.7    -298   -278      5    408    409 227.0   0.8  34094  288.45 0854.23
2009/04/23 16:56:39.8    -221   -227    103    318    335 224.2  18.0  34102  288.59 0854.23
2009/04/23 16:56:39.9    -345    -83    144    355    383 256.4  23.1  34142  289.25 0854.25
2009/04/23 16:56:40.0    -262    -46    129    267    296 259.9  27.4  34120  288.88 0854.25
2009/04/23 16:56:40.1     -68    115    138    134    192 329.3  50.7  34128  289.02 0854.25
2009/04/23 16:56:40.2     -66     61     -3     91     92 312.7  -2.2  34116  288.84 0854.25
2009/04/23 16:56:40.3     -24    -73    -21     77     79 198.3 -20.2  34110  288.72 0854.25
2009/04/23 16:56:40.4     151     96     78    180    196  57.4  25.1  34122  288.94 0854.25
2009/04/23 16:56:40.5     250    178     62    308    315  54.5  11.4  34146  289.32 0854.25
2009/04/23 16:56:40.6     179    148    -78    233    245  50.5 -23.6  34154  289.46 0854.25
2009/04/23 16:56:40.7      69    166   -114    180    213  22.7 -39.9  34160  289.57 0854.25
2009/04/23 16:56:40.8     -18     92    -12     94     95 348.4  -7.3  34154  289.46 0854.25
2009/04/23 16:56:40.9     248    -54    239    254    348 102.4  48.0  34192  290.10 0854.25
2009/04/23 16:56:41.0     292     54    -13    297    298  79.4  -2.6  34282  291.63 0854.25
2009/04/23 16:56:41.1     301     32    159    303    342  83.9  30.0  34224  290.66 0854.25
2009/04/23 16:56:41.2     219    -34    136    222    260  99.0  34.5  34210  290.42 0854.25
2009/04/23 16:56:41.3     441     34      6    443    444  85.5   0.8  34186  290.00 0854.25
2009/04/23 16:56:41.4       0   -158    133    159    207 180.0  44.1  34180  289.92 0854.25
2009/04/23 16:56:41.5      83   -230    -33    245    248 160.0  -7.7  34174  289.80 0854.25
2009/04/23 16:56:41.6      36    -77      5     86     87 154.6   3.8  34140  289.23 0854.25
2009/04/23 16:56:41.7    -441   -198   -149    484    507 245.8 -17.2  34094  288.44 0854.25
2009/04/23 16:56:41.8    -441   -154   -233    468    522 250.7 -32.8  34084  288.27 0854.25
2009/04/23 16:56:41.9    -365    -98   -129    379    401 254.9 -18.9  34076  288.16 0854.26
2009/04/23 16:56:42.0    -299   -251   -199    391    438 229.9 -33.6  34082  288.24 0854.26
2009/04/23 16:56:42.1    -397   -450   -103    601    611 221.4  -9.8  34072  288.07 0854.26
2009/04/23 16:56:42.2    -259   -394   -142    472    492 213.4 -21.6  34074  288.12 0854.26
2009/04/23 16:56:42.3     -93   -400   -197    411    455 193.1 -31.7  34076  288.16 0854.26
2009/04/23 16:56:42.4     -33   -396    -81    398    407 184.8 -11.5  34062  287.92 0854.26
2009/04/23 16:56:42.5    -331   -595   -170    682    703 209.1 -14.1  34088  288.36 0854.26
2009/04/23 16:56:42.6    -484   -354   -196    600    632 233.8 -18.1  34116  288.81 0854.26
2009/04/23 16:56:42.7    -491   -324   -254    589    641 236.5 -29.2  34104  288.62 0854.26
2009/04/23 16:56:42.8    -436   -198   -223    479    528 245.6 -31.3  34112  288.76 0854.26
2009/04/23 16:56:42.9    -406    -17   -290    407    499 267.5 -43.5  34146  289.35 0854.26
2009/04/23 16:56:43.0    -282     21   -215    283    355 274.3 -45.5  34152  289.43 0854.26
2009/04/23 16:56:43.1    -267   -143   -172    303    348 241.8 -36.4  34112  288.76 0854.26
2009/04/23 16:56:43.2    -104   -512   -156    523    546 191.5 -16.7  34100  288.55 0854.26
2009/04/23 16:56:43.3    -230   -599    129    642    655 201.1  11.4  34086  288.33 0854.26
2009/04/23 16:56:43.4       7   -689    -26    690    691 179.4  -2.2  34098  288.51 0854.26
2009/04/23 16:56:43.5     -62   -863     65    866    869 184.1   4.3  34088  288.36 0854.26
2009/04/23 16:56:43.6     -42   -862    272    864    906 182.8  17.5  34100  288.57 0854.26
2009/04/23 16:56:43.7     186   -792    244    814    850 166.8  16.7  34034  287.45 0854.26
2009/04/23 16:56:43.8     320   -566    346    651    737 150.5  30.2  34090  288.40 0854.26
2009/04/23 16:56:43.9     456   -550    122    715    726 140.4   9.7  34084  288.27 0854.27
2009/04/23 16:56:44.0     294   -422    169    515    543 145.2  18.2  34090  288.40 0854.27
2009/04/23 16:56:44.1     225   -385    200    446    488 149.7  25.8  34098  288.51 0854.27
2009/04/23 16:56:44.2     273   -459    280    535    603 149.3  29.9  34126  288.98 0854.27
2009/04/23 16:56:44.3     468   -484    203    674    704 136.0  16.8  34088  288.34 0854.27
2009/04/23 16:56:44.4     457   -605    133    759    771 142.9  10.0  34088  288.36 0854.27
2009/04/23 16:56:44.5     294   -680    120    742    752 156.6   9.2  34090  288.38 0854.27
2009/04/23 16:56:44.6     200   -696     75    725    730 164.0   6.0  34088  288.34 0854.27
2009/04/23 16:56:44.7     115   -606    145    617    634 169.2  13.3  34088  288.35 0854.27
2009/04/23 16:56:44.8      64   -618    219    622    660 174.0  19.4  34088  288.35 0854.27
2009/04/23 16:56:44.9      -9   -625     19    626    627 180.9   1.8  34098  288.52 0854.27
2009/04/23 16:56:45.0     298   -664    -11    728    729 155.8  -0.9  34086  288.32 0854.27
2009/04/23 16:56:45.1     306   -534     43    616    618 150.2   4.0  34080  288.23 0854.27
2009/04/23 16:56:45.2     234   -647      5    689    690 160.1   0.5  34094  288.46 0854.27
2009/04/23 16:56:45.3     340   -568    -85    662    668 149.1  -7.4  34100  288.55 0854.27
2009/04/23 16:56:45.4     293   -572    -21    643    644 152.8  -1.9  34092  288.42 0854.27
2009/04/23 16:56:45.5     414   -708     -8    821    822 149.7  -0.6  34086  288.33 0854.27
2009/04/23 16:56:45.6     407   -544      4    680    681 143.2   0.4  34080  288.21 0854.27
2009/04/23 16:56:45.7     347   -818    -19    889    890 157.0  -1.3  34078  288.18 0854.27
2009/04/23 16:56:45.8     380   -793    -19    880    881 154.4  -1.3  34064  287.96 0854.27
2009/04/23 16:56:45.9     365   -824   -114    902    910 156.1  -7.2  34064  287.96 0854.25
2009/04/23 16:56:46.0     161   -677   -212    696    728 166.6 -17.0  34078  288.17 0854.25
2009/04/23 16:56:46.1     182   -711    -38    735    736 165.6  -3.0  34078  288.19 0854.25
2009/04/23 16:56:46.2     203   -747    -74    775    779 164.8  -5.5  34076  288.14 0854.25
2009/04/23 16:56:46.3     207   -813    -25    840    841 165.7  -1.7  34080  288.22 0854.25
2009/04/23 16:56:46.4     285   -711    -80    767    772 158.2  -6.0  34076  288.16 0854.25
2009/04/23 16:56:46.5     197   -811   -160    835    851 166.3 -10.9  34076  288.14 0854.25
2009/04/23 16:56:46.6     202   -998    -99   1019   1025 168.6  -5.6  34078  288.17 0854.25
2009/04/23 16:56:46.7      43   -889   -288    891    937 177.2 -17.9  34084  288.28 0854.25
2009/04/23 16:56:46.8     191   -707   -256    733    777 164.9 -19.3  34082  288.26 0854.25
2009/04/23 16:56:46.9     -44   -588   -209    590    625 184.3 -24.7  34076  288.16 0854.25
2009/04/23 16:56:47.0     -69   -670   -197    674    702 185.9 -21.1  34088  288.34 0854.25
2009/04/23 16:56:47.1     193   -698    -44    725    727 164.5  -3.5  34080  288.23 0854.25
2009/04/23 16:56:47.2     218   -858   -146    886    899 165.7  -9.4  34078  288.17 0854.25
2009/04/23 16:56:47.3     278   -740    -84    791    796 159.4  -6.1  34072  288.07 0854.25
2009/04/23 16:56:47.4     193   -610   -188    640    668 162.4 -16.4  34080  288.21 0854.25
2009/04/23 16:56:47.5      90   -447   -139    456    477 168.6 -17.0  34082  288.24 0854.25
2009/04/23 16:56:47.6      83   -273   -198    286    347 163.0 -42.4  34084  288.30 0854.25
2009/04/23 16:56:47.7     121   -201    -61    235    243 148.8 -14.7  34084  288.27 0854.25
2009/04/23 16:56:47.8      81   -267    -92    280    294 163.1 -23.6  34086  288.31 0854.25
2009/04/23 16:56:47.9     330   -520    -24    616    617 147.6  -2.2  34072  288.08 0854.21
2009/04/23 16:56:48.0     320   -417    -19    526    527 142.5  -2.1  34092  288.41 0854.21
2009/04/23 16:56:48.1     275   -493    -46    565    567 150.8  -4.7  34080  288.23 0854.21
2009/04/23 16:56:48.2     225   -476   -178    527    557 154.7 -18.7  34084  288.30 0854.21
2009/04/23 16:56:48.3     161   -548   -164    572    596 163.6 -16.0  34072  288.09 0854.21
2009/04/23 16:56:48.4     158   -584     55    606    609 164.9   5.2  34078  288.19 0854.21
2009/04/23 16:56:48.5     147   -620   -183    638    664 166.6 -16.0  34070  288.05 0854.21
2009/04/23 16:56:48.6     109   -498   -145    510    530 167.6 -20.5  34080  288.23 0854.21
2009/04/23 16:56:48.7      58   -472   -210    476    520 172.9 -29.7  34084  288.27 0854.21
2009/04/23 16:56:48.8     118   -539   -188    552    584 167.6 -18.8  34082  288.26 0854.21
2009/04/23 16:56:48.9     304   -602   -154    675    693 153.2 -12.9  34064  287.95 0854.23
2009/04/23 16:56:49.0     178   -620    -44    646    648 164.0  -3.9  34080  288.21 0854.23
2009/04/23 16:56:49.1     186   -653     38    679    681 164.1   3.2  34078  288.19 0854.23
2009/04/23 16:56:49.2      36   -517    -94    519    528 176.0 -10.3  34076  288.14 0854.23
2009/04/23 16:56:49.3      51   -609   -195    612    643 175.2 -17.7  34076  288.15 0854.23
2009/04/23 16:56:49.4      54   -644   -160    647    667 175.1 -13.9  34082  288.26 0854.23
2009/04/23 16:56:49.5     266   -502   -126    569    583 152.1 -12.5  34076  288.14 0854.23
2009/04/23 16:56:49.6      77   -472   -151    479    503 170.7 -17.6  34086  288.32 0854.23
2009/04/23 16:56:49.7     122   -491   -165    506    533 166.0 -18.1  34086  288.31 0854.23
2009/04/23 16:56:49.8     155   -531   -231    554    600 163.7 -28.5  34086  288.31 0854.23
2009/04/23 16:56:49.9     229   -503   -222    553    595 155.5 -27.5  34084  288.27 0854.23
2009/04/23 16:56:50.0     138   -417   -312    440    539 161.6 -43.4  34074  288.10 0854.23
2009/04/23 16:56:50.1       0   -377   -128    378    400 180.1 -18.7  34084  288.27 0854.23
2009/04/23 16:56:50.2     136   -265   -140    298    329 152.8 -31.5  34104  288.61 0854.23
2009/04/23 16:56:50.3    -169     57    -95    179    202 288.8 -34.7  34100  288.55 0854.23
2009/04/23 16:56:50.4      21    -11     60     24     64 118.9  77.1  34114  288.80 0854.23
2009/04/23 16:56:50.5     270   -373    260    461    529 144.1  31.9  34086  288.32 0854.23
2009/04/23 16:56:50.6     289   -335    351    443    565 139.2  42.3  34114  288.80 0854.23
2009/04/23 16:56:50.7      58   -384    345    389    519 171.4  46.1  34130  289.05 0854.23
2009/04/23 16:56:50.8     -73   -335    240    344    419 192.4  38.4  34122  288.94 0854.23
2009/04/23 16:56:50.9     -93   -348    290    361    463 195.0  43.0  34136  289.16 0854.22
2009/04/23 16:56:51.0    -122   -363    389    384    546 198.6  50.2  34142  289.27 0854.22
2009/04/23 16:56:51.1    -232   -373    347    440    560 211.9  42.2  34136  289.18 0854.22
2009/04/23 16:56:51.2     -75   -431    377    438    577 189.9  45.0  34134  289.13 0854.22
2009/04/23 16:56:51.3     -59   -316    386    322    502 190.6  56.2  34134  289.14 0854.22
2009/04/23 16:56:51.4     -23   -308    445    309    541 184.4  62.0  34142  289.25 0854.22
2009/04/23 16:56:51.5     -41   -289    347    293    454 188.2  55.6  34158  289.55 0854.22
2009/04/23 16:56:51.6     -22   -287    296    288    412 184.4  51.1  34164  289.64 0854.22
2009/04/23 16:56:51.7      62    -38    193     73    206 121.5  78.4  34170  289.75 0854.22
2009/04/23 16:56:51.8     -38   -257    163    260    306 188.5  35.5  34158  289.54 0854.22
2009/04/23 16:56:51.9      84   -354    147    364    392 166.6  23.2  34138  289.20 0854.22
2009/04/23 16:56:52.0     -38   -574    183    576    605 183.8  17.7  34130  289.08 0854.22
2009/04/23 16:56:52.1      71   -448    284    454    535 171.0  35.2  34134  289.12 0854.22
2009/04/23 16:56:52.2      -4   -548    291    549    621 180.5  30.2  34128  289.03 0854.22
2009/04/23 16:56:52.3       0   -554    248    555    607 180.0  25.7  34118  288.86 0854.22
2009/04/23 16:56:52.4      32   -595    195    596    628 176.9  18.1  34110  288.74 0854.22
2009/04/23 16:56:52.5     -47   -440    255    443    511 186.2  32.6  34116  288.81 0854.22
2009/04/23 16:56:52.6      23   -518    243    519    573 177.4  27.0  34120  288.91 0854.22
2009/04/23 16:56:52.7      42   -495    311    497    586 175.1  35.0  34136  289.18 0854.22
2009/04/23 16:56:52.8      18   -402    214    403    456 177.3  30.3  34134  289.12 0854.22
2009/04/23 16:56:52.9     -35   -233    251    236    344 188.7  52.1  34172  289.78 0854.23
2009/04/23 16:56:53.0      -6   -204    181    205    273 181.8  45.9  34130  289.05 0854.23
2009/04/23 16:56:53.1     -43   -235    118    239    266 190.5  28.0  34124  288.97 0854.23
2009/04/23 16:56:53.2    -124   -179     97    219    239 214.7  25.3  34122  288.94 0854.23
2009/04/23 16:56:53.3     -66    -54     25     86     90 230.5  16.3  34122  288.94 0854.23
2009/04/23 16:56:53.4    -111      8     58    112    126 274.3  29.3  34126  289.01 0854.23
2009/04/23 16:56:53.5     -94     -9    114     95    148 264.3  56.3  34134  289.14 0854.23
2009/04/23 16:56:53.6    -200     56    179    208    274 285.9  45.1  34158  289.53 0854.23
2009/04/23 16:56:53.7     -69    132    106    149    182 332.4  38.8  34156  289.52 0854.23
2009/04/23 16:56:53.8    -187     63    163    198    256 288.6  43.7  34160  289.56 0854.23
2009/04/23 16:56:53.9    -282     45     84    286    299 279.2  16.4  34154  289.47 0854.23
2009/04/23 16:56:54.0    -223      3     14    224    225 271.0   3.8  34144  289.31 0854.23
2009/04/23 16:56:54.1    -257    -65    -86    266    280 255.8 -17.9  34140  289.24 0854.23
2009/04/23 16:56:54.2    -194     -7    -84    195    212 267.9 -29.3  34140  289.24 0854.23
2009/04/23 16:56:54.3    -303   -101     54    320    325 251.4   9.7  34150  289.39 0854.23
2009/04/23 16:56:54.4    -302   -142    -25    334    335 244.8  -4.4  34136  289.15 0854.23
2009/04/23 16:56:54.5    -294   -167    -91    339    352 240.5 -15.1  34130  289.06 0854.23
2009/04/23 16:56:54.6    -280    -80     30    292    294 254.0   5.9  34132  289.09 0854.23
2009/04/23 16:56:54.7    -321     31     27    323    325 275.7   4.9  34140  289.24 0854.23
2009/04/23 16:56:54.8    -351     26     51    352    356 274.4   8.3  34166  289.69 0854.23
2009/04/23 16:56:54.9    -277   -104     31    297    299 249.4   6.1  34144  289.31 0854.23
2009/04/23 16:56:55.0    -203    -51    138    210    251 255.8  36.3  34170  289.75 0854.23
2009/04/23 16:56:55.1    -283     74     43    293    297 284.8   8.5  34176  289.85 0854.23
2009/04/23 16:56:55.2    -217     22    104    219    242 275.9  27.1  34170  289.73 0854.23
2009/04/23 16:56:55.3    -155     26     85    158    179 279.7  30.8  34174  289.80 0854.23
2009/04/23 16:56:55.4    -226      3    -45    227    232 270.9 -11.3  34160  289.57 0854.23
2009/04/23 16:56:55.5    -277    -52    -73    282    292 259.2 -14.5  34160  289.58 0854.23
2009/04/23 16:56:55.6    -292   -114    -82    314    325 248.7 -14.8  34136  289.15 0854.23
2009/04/23 16:56:55.7    -260     94   -114    277    299 289.9 -27.8  34138  289.20 0854.23
2009/04/23 16:56:55.8    -300     -7     37    301    304 268.5   7.1  34150  289.41 0854.23
2009/04/23 16:56:55.9    -307   -106     69    325    333 250.9  12.0  34154  289.48 0854.23
2009/04/23 16:56:56.0    -124    -57    171    137    219 245.2  57.1  34172  289.77 0854.23
2009/04/23 16:56:56.1    -163      8     96    164    190 273.0  33.1  34192  290.11 0854.23
2009/04/23 16:56:56.2    -173    -53     73    181    195 252.9  23.0  34190  290.09 0854.23
2009/04/23 16:56:56.3    -196    -65     49    207    213 251.6  13.5  34182  289.96 0854.23
2009/04/23 16:56:56.4    -249    -46     46    254    259 259.4  10.3  34172  289.78 0854.23
2009/04/23 16:56:56.5    -283      4     80    284    296 271.0  15.8  34170  289.75 0854.23
2009/04/23 16:56:56.6    -295    -52     29    300    302 259.9   5.7  34168  289.71 0854.23
2009/04/23 16:56:56.7    -304     33     95    306    321 276.2  17.3  34168  289.71 0854.23
2009/04/23 16:56:56.8    -291    -59     88    297    310 258.5  16.6  34150  289.41 0854.23
2009/04/23 16:56:56.9    -278   -126     66    306    314 245.6  12.2  34152  289.42 0854.23
2009/04/23 16:56:57.0    -370   -277      2    463    464 233.1   0.4  34188  290.04 0854.23
2009/04/23 16:56:57.1    -477   -256    105    542    553 241.7  11.0  34182  289.94 0854.23
2009/04/23 16:56:57.2    -397   -191    104    441    454 244.2  13.3  34168  289.72 0854.23
2009/04/23 16:56:57.3    -192   -211    148    286    322 222.3  29.6  34164  289.63 0854.23
2009/04/23 16:56:57.4     -84   -146    230    169    285 209.9  60.3  34160  289.56 0854.23
2009/04/23 16:56:57.5    -193   -194    251    274    371 224.9  47.3  34152  289.43 0854.23
2009/04/23 16:56:57.6    -184   -226    182    292    344 219.2  35.1  34174  289.80 0854.23
2009/04/23 16:56:57.7     -86    -77    260    116    284 228.2  74.5  34160  289.56 0854.23
2009/04/23 16:56:57.8      26    206    259    208    332   7.3  57.3  34168  289.70 0854.23
2009/04/23 16:56:57.9    -136    285    196    316    371 334.5  34.9  34158  289.55 0854.23
2009/04/23 16:56:58.0    -315    108    113    334    353 289.0  18.8  34154  289.48 0854.23
2009/04/23 16:56:58.1    -155    206    131    259    290 323.0  29.1  34160  289.56 0854.23
2009/04/23 16:56:58.2     -77     44    189     89    208 299.8  73.1  34164  289.65 0854.23
2009/04/23 16:56:58.3     -12    -38    154     40    159 197.8  85.4  34176  289.85 0854.23
2009/04/23 16:56:58.4     -72      1    110     73    132 270.8  63.6  34168  289.70 0854.23
2009/04/23 16:56:58.5    -119    -86    173    148    227 234.0  55.4  34168  289.70 0854.23
2009/04/23 16:56:58.6      42      1     85     43     95  88.3  71.4  34168  289.70 0854.23
2009/04/23 16:56:58.7      32     -6     98     33    103 101.4  81.0  34170  289.75 0854.23
2009/04/23 16:56:58.8      65    202     76    213    226  18.0  20.2  34158  289.55 0854.23
2009/04/23 16:56:58.9     -27    193    103    195    220 351.9  30.1  34162  289.60 0854.21
2009/04/23 16:56:59.0     296    131    106    324    341  66.0  18.2  34182  289.96 0854.21
2009/04/23 16:56:59.1     226    157     64    276    284  55.1  13.2  34180  289.90 0854.21
2009/04/23 16:56:59.2     168    222    -43    279    283  37.2  -8.8  34180  289.90 0854.21
2009/04/23 16:56:59.3     127    187    -46    227    232  34.2 -11.5  34182  289.94 0854.21
2009/04/23 16:56:59.4     149    204    -32    253    256  36.1  -7.2  34178  289.86 0854.21
2009/04/23 16:56:59.5      74    116    -83    138    161  32.5 -38.1  34170  289.74 0854.21
2009/04/23 16:56:59.6     -25    237   -107    239    261 353.8 -30.1  34162  289.59 0854.21
2009/04/23 16:56:59.7     -74    187    -98    202    224 338.4 -31.7  34164  289.65 0854.21
2009/04/23 16:56:59.8    -143    217    -76    260    272 326.6 -16.4  34178  289.86 0854.21
2009/04/23 16:56:59.9    -177    202    -38    269    272 318.8  -8.2  34168  289.70 0854.21
2009/04/23 16:57:00.0    -198    172    -33    263    266 311.1  -7.2  34172  289.78 0854.21
2009/04/23 16:57:00.1    -201    227    -72    304    313 318.5 -13.4  34202  290.27 0854.21
2009/04/23 16:57:00.2     -36    176    -60    180    189 348.2 -23.6  34232  290.79 0854.21
2009/04/23 16:57:00.3       0    198   -101    199    223   0.2 -33.6  34238  290.91 0854.21
2009/04/23 16:57:00.4      44    178    -67    184    195  14.0 -25.1  34238  290.91 0854.21
2009/04/23 16:57:00.5     -12    273    -15    274    275 357.3  -3.1  34238  290.90 0854.21
2009/04/23 16:57:00.6      31    302    -39    304    307   6.0  -7.3  34250  291.09 0854.21
2009/04/23 16:57:00.7     -63    312    -36    319    322 348.4  -6.5  34232  290.78 0854.21
2009/04/23 16:57:00.8     -75    273   -101    284    302 344.6 -19.7  34214  290.49 0854.21
2009/04/23 16:57:00.9     -35    205    -18    208    209 350.3  -5.1  34224  290.65 0854.21
2009/04/23 16:57:01.0     -45    145     -8    152    153 342.6  -3.2  34226  290.69 0854.21
2009/04/23 16:57:01.1     -65    134     38    150    155 334.1  14.3  34224  290.65 0854.21
2009/04/23 16:57:01.2      19    123     59    125    138   8.9  27.1  34232  290.79 0854.21
2009/04/23 16:57:01.3      23    131     26    134    137  10.2  11.0  34232  290.79 0854.21
2009/04/23 16:57:01.4      69    106     33    127    132  33.4  14.7  34230  290.77 0854.21
2009/04/23 16:57:01.5      76     82     -5    112    113  42.8  -2.6  34222  290.64 0854.21
2009/04/23 16:57:01.6     183     62     -3    194    195  71.2  -1.2  34236  290.87 0854.21
2009/04/23 16:57:01.7     218    107     71    243    254  63.8  16.4  34242  290.97 0854.21
2009/04/23 16:57:01.8     141     64     23    155    157  65.6   8.5  34242  290.98 0854.21
2009/04/23 16:57:01.9      60     50    100     79    127  50.4  57.5  34242  290.98 0854.21
2009/04/23 16:57:02.0     -29     32     59     44     73 317.7  59.4  34210  290.41 0854.21
2009/04/23 16:57:02.1     -38     40     51     56     75 315.9  47.9  34190  290.09 0854.21
2009/04/23 16:57:02.2    -156     -3     99    157    185 268.7  35.5  34178  289.87 0854.21
2009/04/23 16:57:02.3    -160     59    116    171    206 290.2  37.4  34186  290.02 0854.21
2009/04/23 16:57:02.4    -136     96    126    167    209 305.1  40.9  34204  290.31 0854.21
2009/04/23 16:57:02.5    -159    129    117    206    236 309.1  32.3  34204  290.31 0854.21
2009/04/23 16:57:02.6    -134    150    103    202    226 318.3  29.1  34252  291.15 0854.21
2009/04/23 16:57:02.7     -65    142     82    157    177 335.5  29.5  34268  291.42 0854.21
2009/04/23 16:57:02.8     109     68    107    129    167  58.0  44.1  34258  291.23 0854.21
2009/04/23 16:57:02.9      -5    102    145    103    177 356.9  61.1  34292  291.81 0854.24
2009/04/23 16:57:03.0     -15    132    142    133    194 353.3  52.0  34320  292.30 0854.24
2009/04/23 16:57:03.1     -33    124    163    129    207 344.8  57.7  34318  292.27 0854.24
2009/04/23 16:57:03.2      96    166    234    193    303  30.1  56.4  34330  292.45 0854.24
2009/04/23 16:57:03.3     160    234    252    284    379  34.5  46.2  34314  292.20 0854.24
2009/04/23 16:57:03.4     270    192    274    332    430  54.5  43.7  34306  292.05 0854.24
2009/04/23 16:57:03.5     208    182    286    277    398  48.9  51.1  34328  292.41 0854.24
2009/04/23 16:57:03.6     142    147    207    205    291  44.1  50.1  34320  292.30 0854.24
2009/04/23 16:57:03.7     182     79    107    199    225  66.5  30.6  34330  292.46 0854.24
2009/04/23 16:57:03.8      12    160    106    161    192   4.5  36.0  34334  292.52 0854.24
2009/04/23 16:57:03.9      57     36    124     68    141  57.6  68.9  34344  292.69 0854.24
2009/04/23 16:57:04.0      11    142    177    143    227   4.5  56.6  34340  292.63 0854.24
2009/04/23 16:57:04.1      36    208    108    212    237   9.8  29.2  34334  292.52 0854.24
2009/04/23 16:57:04.2       5    214    115    215    243   1.4  30.3  34344  292.70 0854.24
2009/04/23 16:57:04.3    -169    144    106    223    246 310.4  27.2  34324  292.36 0854.24
2009/04/23 16:57:04.4      34    105     64    111    128  18.3  32.9  34338  292.61 0854.24
2009/04/23 16:57:04.6     151     80    128    171    213  62.0  40.4  34304  292.01 0854.24
2009/04/23 16:57:04.7     120     66    152    138    205  61.2  53.3  34308  292.08 0854.24
2009/04/23 16:57:04.8     180     46    168    186    250  75.6  46.9  34308  292.08 0854.24
2009/04/23 16:57:04.9     268    101    113    287    308  69.2  23.0  34376  293.25 0854.24
2009/04/23 16:57:05.0     266    138     47    300    304  62.5   9.0  34362  292.99 0854.26
2009/04/23 16:57:05.1     216     71    129    228    261  71.8  32.1  34314  292.18 0854.26
2009/04/23 16:57:05.2     298     70    177    307    354  76.7  32.7  34336  292.58 0854.26
2009/04/23 16:57:05.3     346    205     79    403    411  59.4  11.1  34302  291.98 0854.26
2009/04/23 16:57:05.4     309    240     95    392    404  52.2  13.7  34288  291.74 0854.26
2009/04/23 16:57:05.5     274    188     78    333    343  55.5  13.3  34268  291.42 0854.26
2009/04/23 16:57:05.6     188    275     95    334    348  34.3  15.9  34248  291.06 0854.26
2009/04/23 16:57:05.7     228    282     57    363    368  39.0   9.0  34228  290.74 0854.26
2009/04/23 16:57:05.8     309    170    100    353    368  61.1  15.9  34224  290.66 0854.26
2009/04/23 16:57:05.9     185    252    132    313    339  36.3  24.2  34264  291.35 0854.26
2009/04/23 16:57:06.0     134    231    176    268    320  30.1  36.4  34316  292.23 0854.26
2009/04/23 16:57:06.1     105    251    149    273    311  22.8  31.3  34326  292.40 0854.26
2009/04/23 16:57:06.2     308    254    128    400    421  50.5  17.8  34280  291.60 0854.26
2009/04/23 16:57:06.3     408    259    195    484    521  57.6  23.1  34214  290.49 0854.26
2009/04/23 16:57:06.4     396    343    194    525    559  49.1  21.1  34142  289.28 0854.26
2009/04/23 16:57:06.5     585    322     63    668    672  61.1   5.4  34158  289.54 0854.26
2009/04/23 16:57:06.6     562    287     36    632    634  62.9   3.3  34122  288.94 0854.26
2009/04/23 16:57:06.7     578    272     40    639    641  64.8   3.6  34156  289.50 0854.26
2009/04/23 16:57:06.8     377    412     38    559    561  42.4   3.9  34150  289.40 0854.26
2009/04/23 16:57:06.9     333    333     26    472    473  45.0   3.2  34216  290.52 0854.26
2009/04/23 16:57:07.0     145    349     -5    379    380  22.6  -0.9  34218  290.57 0854.27
2009/04/23 16:57:07.1     136    325     -9    353    354  22.7  -1.6  34254  291.18 0854.27
2009/04/23 16:57:07.2     116    309    -18    331    332  20.7  -3.2  34244  291.01 0854.27
2009/04/23 16:57:07.3      61    240    -91    248    264  14.3 -25.3  34246  291.04 0854.27
2009/04/23 16:57:07.4      49     87   -171    101    198  29.4 -71.2  34264  291.35 0854.27
2009/04/23 16:57:07.5     127     83    -99    152    181  56.7 -40.4  34266  291.38 0854.27
2009/04/23 16:57:07.6     180    123    -72    219    230  55.6 -23.8  34258  291.23 0854.27
2009/04/23 16:57:07.7     222    -16     85    223    238  94.3  22.0  34246  291.04 0854.27
2009/04/23 16:57:07.8     248     81    140    262    297  71.8  30.6  34246  291.02 0854.27
2009/04/23 16:57:07.9     159     64     91    172    194  68.0  30.3  34246  291.03 0854.27
2009/04/23 16:57:08.0      20     90     67     93    114  12.5  39.5  34264  291.33 0854.27
2009/04/23 16:57:08.1    -164     99    -77    192    206 301.3 -27.4  34256  291.20 0854.27
2009/04/23 16:57:08.2     -63     17     -9     66     67 285.1  -8.2  34262  291.30 0854.27
2009/04/23 16:57:08.3     -67     67    -43     96    105 315.0 -30.1  34252  291.13 0854.27
2009/04/23 16:57:08.4    -103     86     -7    135    136 309.6  -3.2  34240  290.94 0854.27
2009/04/23 16:57:08.5     -91    165     58    189    198 331.0  17.3  34238  290.91 0854.27
2009/04/23 16:57:08.6     -87    136     82    162    181 327.4  28.7  34240  290.94 0854.27
2009/04/23 16:57:08.7    -255    266    143    369    395 316.2  22.3  34224  290.67 0854.27
2009/04/23 16:57:08.8    -240    269     66    361    367 318.3  10.4  34192  290.10 0854.27
2009/04/23 16:57:08.9    -361    213    -25    420    421 300.6  -3.5  34178  289.87 0854.27
2009/04/23 16:57:09.0    -285    181     52    338    342 302.5   8.8  34210  290.43 0854.29
2009/04/23 16:57:09.1    -230    155    129    278    306 304.0  27.0  34216  290.53 0854.29
2009/04/23 16:57:09.2    -180    148    158    234    282 309.5  37.4  34226  290.68 0854.29
2009/04/23 16:57:09.3    -242    120    146    271    307 296.4  30.8  34244  290.99 0854.29
2009/04/23 16:57:09.4    -202     88    140    221    261 293.7  35.5  34240  290.93 0854.29
2009/04/23 16:57:09.5    -163    174    121    239    267 316.8  29.1  34240  290.93 0854.29
2009/04/23 16:57:09.6    -133    204     37    244    247 326.8   8.8  34230  290.76 0854.29
2009/04/23 16:57:09.7    -183    183     81    259    272 315.0  17.4  34256  291.19 0854.29
2009/04/23 16:57:09.8    -138    213     54    254    260 327.0  12.2  34256  291.21 0854.29
2009/04/23 16:57:09.9    -224    210    107    308    327 313.2  19.2  34244  290.99 0854.29
2009/04/23 16:57:10.0    -169    330    164    371    405 332.8  25.3  34248  291.05 0854.33
2009/04/23 16:57:10.1    -155    251    122    296    320 328.3  23.7  34248  291.07 0854.33
2009/04/23 16:57:10.2     -38    401     56    403    408 354.6   8.0  34230  290.75 0854.33
2009/04/23 16:57:10.3     -77    325     62    335    341 346.6  10.6  34238  290.88 0854.33
2009/04/23 16:57:10.4     -70    358     78    365    374 348.9  12.2  34264  291.34 0854.33
2009/04/23 16:57:10.5    -204    288    219    354    416 324.7  34.6  34262  291.32 0854.33
2009/04/23 16:57:10.6    -204    302     22    365    366 325.9   3.5  34182  289.94 0854.33
2009/04/23 16:57:10.7    -129    306     80    333    343 337.1  13.6  34230  290.77 0854.33
2009/04/23 16:57:10.8     -13    243     34    244    247 356.9   8.0  34290  291.78 0854.33
2009/04/23 16:57:10.9      19    171    -57    173    182   6.5 -23.8  34262  291.32 0854.33
2009/04/23 16:57:11.0      63     85     80    107    133  36.5  40.1  34274  291.50 0854.33
2009/04/23 16:57:11.1     125    120    131    174    217  46.2  40.7  34282  291.66 0854.33
2009/04/23 16:57:11.2     168    -22     94    170    194  97.5  31.4  34268  291.42 0854.33
2009/04/23 16:57:11.3     178     12    161    179    240  86.1  46.9  34246  291.04 0854.33
2009/04/23 16:57:11.4     229     54    121    236    265  76.7  29.2  34280  291.61 0854.33
2009/04/23 16:57:11.5     197    -47     46    203    209 103.5  12.9  34292  291.83 0854.33
2009/04/23 16:57:11.6     224     25    131    226    261  83.4  32.7  34318  292.26 0854.33
2009/04/23 16:57:11.7     338    133    121    364    384  68.5  18.4  34288  291.73 0854.33
2009/04/23 16:57:11.8     399    133    -22    421    422  71.5  -3.0  34238  290.90 0854.33
2009/04/23 16:57:11.9     569    218    239    610    655  69.0  22.5  34258  291.23 0854.33
2009/04/23 16:57:12.0     766    180    -12    787    788  76.7  -0.9  34256  291.20 0854.34
2009/04/23 16:57:12.1     620    -98    -58    628    631  99.0  -5.4  34234  290.84 0854.34
2009/04/23 16:57:12.2     572    406     38    702    704  54.6   3.1  34186  290.00 0854.34
2009/04/23 16:57:12.3     700     97    -58    707    710  82.1  -4.7  34132  289.10 0854.34
2009/04/23 16:57:12.4     498    109   -180    510    540  77.6 -24.7  34128  289.04 0854.34
2009/04/23 16:57:12.5     529     96   -175    538    565  79.7 -23.2  34152  289.45 0854.34
2009/04/23 16:57:12.6     549    198     22    584    585  70.1   2.2  34116  288.81 0854.34
2009/04/23 16:57:12.7     473    -82    -21    481    482  99.9  -2.6  34142  289.27 0854.34
2009/04/23 16:57:12.8     465     95    -74    475    481  78.4  -8.9  34192  290.10 0854.34
2009/04/23 16:57:12.9     536    -23    -35    537    539  92.5  -3.7  34140  289.23 0854.34
2009/04/23 16:57:13.0     457     18     55    458    462  87.7   6.9  34158  289.55 0854.34
2009/04/23 16:57:13.1     364     88    182    375    416  76.4  27.8  34170  289.73 0854.34
2009/04/23 16:57:13.2     179    113    215    212    301  57.6  50.2  34176  289.85 0854.34
2009/04/23 16:57:13.3     236     88     44    253    257  69.4  10.0  34188  290.03 0854.34
2009/04/23 16:57:13.4     198    128    -65    236    245  57.1 -15.4  34206  290.36 0854.34
2009/04/23 16:57:13.5     153    -41   -196    159    252 105.0 -61.3  34206  290.35 0854.34
2009/04/23 16:57:13.6     458     67   -151    463    487  81.7 -18.1  34142  289.28 0854.34
2009/04/23 16:57:13.7     405    176   -132    442    462  66.5 -16.6  34154  289.48 0854.34
2009/04/23 16:57:13.8     285    134     49    315    319  64.8   8.9  34166  289.68 0854.34
2009/04/23 16:57:13.9     229    104     -9    252    253  65.4  -2.2  34180  289.90 0854.34
2009/04/23 16:57:14.0     464    270    -26    538    539  59.8  -2.8  34254  291.18 0854.34
2009/04/23 16:57:14.1     341    380   -148    511    533  41.9 -16.2  34202  290.30 0854.34
2009/04/23 16:57:14.2     217    417    -91    471    480  27.5 -11.0  34182  289.96 0854.34
2009/04/23 16:57:14.3      22    495    181    496    527   2.6  20.9  34204  290.32 0854.34
2009/04/23 16:57:14.4     182    354    301    399    499  27.2  40.8  34192  290.10 0854.34
2009/04/23 16:57:14.5     336    228     20    407    408  55.8   2.9  34194  290.16 0854.34
2009/04/23 16:57:14.6     342    342     -6    484    485  45.0  -0.7  34216  290.52 0854.34
2009/04/23 16:57:14.7     337    185     82    385    394  61.1  12.2  34228  290.72 0854.34
2009/04/23 16:57:14.8     251    162    -11    299    300  57.1  -2.2  34230  290.76 0854.34
2009/04/23 16:57:14.9     230    294    184    374    416  38.0  28.2  34280  291.62 0854.34
2009/04/23 16:57:15.0     468    292    179    552    581  58.0  18.0  34156  289.52 0854.34
2009/04/23 16:57:15.1     419    197    205    464    507  64.8  25.2  34260  291.27 0854.34
2009/04/23 16:57:15.2     480    245     10    540    541  62.9   1.1  34186  290.02 0854.34
2009/04/23 16:57:15.3     464    365    262    591    646  51.8  25.6  34188  290.03 0854.34
2009/04/23 16:57:15.4     495    332     99    597    606  56.2   9.5  34252  291.12 0854.34
2009/04/23 16:57:15.5     453    288    239    538    588  57.5  25.6  34266  291.36 0854.34
2009/04/23 16:57:15.6     519    313    247    607    655  58.9  23.5  34266  291.37 0854.34
2009/04/23 16:57:15.7     446    270     77    522    528  58.8   8.5  34150  289.41 0854.34
2009/04/23 16:57:15.8     466    277     34    543    545  59.3   3.6  34148  289.38 0854.34
2009/04/23 16:57:15.9     432    212     48    482    485  63.8   5.8  34136  289.17 0854.34
2009/04/23 16:57:16.0     499    218     -3    545    546  66.4  -0.4  34110  288.74 0854.31
2009/04/23 16:57:16.1     549    253     -2    605    606  65.2  -0.3  34174  289.80 0854.31
2009/04/23 16:57:16.2     487    168     -4    516    517  71.0  -0.5  34154  289.47 0854.31
2009/04/23 16:57:16.3     409    116     -6    426    427  74.1  -0.9  34134  289.12 0854.31
2009/04/23 16:57:16.4     455    158     14    482    483  70.8   1.7  34170  289.73 0854.31
2009/04/23 16:57:16.5     424    227     75    482    488  61.8   8.9  34198  290.20 0854.31
2009/04/23 16:57:16.6     259    144     88    297    310  60.9  16.6  34156  289.51 0854.31
2009/04/23 16:57:16.7     297    132    189    325    375  66.0  32.9  34248  291.05 0854.31
2009/04/23 16:57:16.8     357    349    176    500    530  45.6  20.3  34232  290.79 0854.31
2009/04/23 16:57:16.9     340    219     57    405    410  57.2   8.1  34186  290.02 0854.31
2009/04/23 16:57:17.0     313    191    194    367    415  58.6  30.2  34272  291.49 0854.31
2009/04/23 16:57:17.1     227    193    139    299    329  49.6  26.9  34254  291.17 0854.31
2009/04/23 16:57:17.2     323    299    119    441    457  47.2  15.2  34182  289.95 0854.31
2009/04/23 16:57:17.3     358    326    111    485    498  47.7  12.9  34226  290.69 0854.31
2009/04/23 16:57:17.4     246    228    246    336    416  47.1  39.8  34272  291.49 0854.31
2009/04/23 16:57:17.5     312    312    251    442    508  45.0  32.1  34272  291.49 0854.31
2009/04/23 16:57:17.6     347    190     55    396    400  61.2   7.9  34222  290.62 0854.31
2009/04/23 16:57:17.7     376    227    194    440    480  58.9  25.3  34256  291.19 0854.31
2009/04/23 16:57:17.8     368    242    102    441    453  56.7  13.1  34156  289.51 0854.31
2009/04/23 16:57:17.9     341    159      6    377    378  64.9   1.0  34156  289.52 0854.31
2009/04/23 16:57:18.0     289    155    -41    329    332  61.8  -7.2  34166  289.67 0854.30
2009/04/23 16:57:18.1     375    185   -157    419    447  63.8 -25.9  34156  289.49 0854.30
2009/04/23 16:57:18.2     300    285      5    415    416  46.5   0.8  34150  289.39 0854.30
2009/04/23 16:57:18.3     329    181    -33    376    378  61.1  -5.1  34146  289.33 0854.30
2009/04/23 16:57:18.4     374    131    -28    397    398  70.7  -4.1  34136  289.16 0854.30
2009/04/23 16:57:18.5     468    129     -2    486    487  74.6  -0.3  34136  289.15 0854.30
2009/04/23 16:57:18.6     520     55   -119    523    537  83.9 -12.9  34188  290.04 0854.30
2009/04/23 16:57:18.7     443      6   -163    444    472  89.2 -25.5  34180  289.92 0854.30
2009/04/23 16:57:18.8     403    -19     52    404    408  92.8   7.4  34208  290.38 0854.30
2009/04/23 16:57:18.9     388    -10      7    389    390  91.5   1.1  34172  289.76 0854.30
2009/04/23 16:57:19.0     334   -106    -68    351    358 107.7 -11.1  34198  290.21 0854.30
2009/04/23 16:57:19.1     239    -64    -75    248    260 105.1 -17.0  34204  290.32 0854.30
2009/04/23 16:57:19.2     345   -189     40    394    397 118.8   5.9  34234  290.83 0854.30
2009/04/23 16:57:19.3     352    -12     -7    353    354  92.1  -1.2  34162  289.59 0854.30
2009/04/23 16:57:19.4     292      0    -93    293    307  90.0 -22.9  34184  289.98 0854.30
2009/04/23 16:57:19.5     249    -18     61    250    258  94.3  13.9  34200  290.24 0854.30
2009/04/23 16:57:19.6     161    -94    122    187    223 120.2  35.7  34242  290.96 0854.30
2009/04/23 16:57:19.7     138   -128    177    189    258 132.7  48.0  34270  291.44 0854.30
2009/04/23 16:57:19.8     171    -64    228    183    292 110.8  57.3  34254  291.17 0854.30
2009/04/23 16:57:19.9      39   -128    156    134    205 163.1  55.0  34260  291.28 0854.30
2009/04/23 16:57:20.0      51    -70    156     87    178 143.9  68.8  34266  291.38 0854.29
2009/04/23 16:57:20.1     101   -122    123    159    201 140.4  41.7  34264  291.33 0854.29
2009/04/23 16:57:20.2      77    -35    139     85    162 114.8  65.4  34288  291.74 0854.29
2009/04/23 16:57:20.3      28    -68    110     74    132 157.3  63.2  34282  291.66 0854.29
2009/04/23 16:57:20.4      48    -53    125     72    144 137.7  67.2  34276  291.54 0854.29
2009/04/23 16:57:20.5      76    -10    128     77    149  97.9  66.2  34282  291.64 0854.29
2009/04/23 16:57:20.6       0     11    122     12    122 355.5  90.0  34282  291.66 0854.29
2009/04/23 16:57:20.7      27    -65    109     71    130 157.3  64.1  34228  290.74 0854.29
2009/04/23 16:57:20.8      27     -4     95     28     99  99.7  83.3  34238  290.91 0854.29
2009/04/23 16:57:20.9      23      5    105     24    107  76.7  88.0  34248  291.08 0854.29
2009/04/23 16:57:21.0     109     34    150    115    189  72.3  58.7  34242  290.96 0854.29
2009/04/23 16:57:21.1      82     31    135     88    161  69.2  63.9  34240  290.94 0854.29
2009/04/23 16:57:21.2     130    126    159    182    241  45.8  45.8  34206  290.35 0854.29
2009/04/23 16:57:21.3     128    150     96    198    220  40.5  27.4  34200  290.25 0854.29
2009/04/23 16:57:21.4      38    186    122    190    225  11.6  35.6  34306  292.06 0854.29
2009/04/23 16:57:21.5     195     71    178    208    273  70.0  44.9  34214  290.49 0854.29
2009/04/23 16:57:21.6      44     70    163     83    182  32.1  70.8  34246  291.04 0854.29
2009/04/23 16:57:21.7     -31    356    131    358    381 355.0  20.9  34318  292.24 0854.29
2009/04/23 16:57:21.8       2    306    164    307    348   0.5  30.5  34306  292.05 0854.29
2009/04/23 16:57:21.9     122    321     78    344    353  20.9  12.8  34324  292.36 0854.29
2009/04/23 16:57:22.0     135    240     97    276    293  29.4  19.4  34316  292.23 0854.30
2009/04/23 16:57:22.1     120    243     55    272    278  26.3  11.4  34320  292.28 0854.30
2009/04/23 16:57:22.2     177    166     62    243    251  46.9  14.5  34310  292.13 0854.30
2009/04/23 16:57:22.3     299    151    165    336    374  63.1  28.0  34328  292.44 0854.30
2009/04/23 16:57:22.4     300    215    128    370    392  54.4  19.2  34324  292.37 0854.30
2009/04/23 16:57:22.5     153    257    134    300    328  30.8  25.8  34268  291.41 0854.30
2009/04/23 16:57:22.6     276    371     -9    463    464  36.6  -1.2  34162  289.61 0854.30
2009/04/23 16:57:22.7     483    342     56    593    596  54.7   5.5  34198  290.22 0854.30
2009/04/23 16:57:22.8     522    287    132    596    611  61.2  12.5  34246  291.04 0854.30
2009/04/23 16:57:22.9     577    229    222    621    660  68.3  19.7  34182  289.94 0854.30
2009/04/23 16:57:23.0     590    278    164    653    674  64.8  14.2  34176  289.83 0854.30
2009/04/23 16:57:23.1     347    385    -60    519    523  42.1  -6.7  34190  290.09 0854.30
2009/04/23 16:57:23.2     382    370     29    532    533  45.9   3.1  34156  289.50 0854.30
2009/04/23 16:57:23.3     453    223    -10    505    506  63.8  -1.2  34140  289.23 0854.30
2009/04/23 16:57:23.4     370    155     86    402    412  67.3  12.1  34118  288.85 0854.30
2009/04/23 16:57:23.5     286    138    115    318    338  64.2  20.7  34120  288.89 0854.30
2009/04/23 16:57:23.6      30    325    239    327    405   5.3  39.8  34126  289.01 0854.30
2009/04/23 16:57:23.7    -137    246    116    282    304 330.8  23.6  34132  289.10 0854.30
2009/04/23 16:57:23.8    -261    260     69    369    376 314.8  10.6  34126  289.01 0854.30
2009/04/23 16:57:23.9    -182    263   -157    320    356 325.3 -32.5  34094  288.45 0854.30
2009/04/23 16:57:24.0    -344    285   -123    447    464 309.6 -15.4  34090  288.38 0854.31
2009/04/23 16:57:24.1    -376    281   -117    470    485 306.8 -14.0  34120  288.88 0854.31
2009/04/23 16:57:24.2    -391    235    -95    457    467 301.0 -11.8  34146  289.33 0854.31
2009/04/23 16:57:24.3    -329    110   -336    348    483 288.6 -53.4  34158  289.55 0854.31
2009/04/23 16:57:24.4    -259    -15    -14    260    261 266.6  -3.1  34130  289.07 0854.31
2009/04/23 16:57:24.5    -213   -101    228    236    328 244.6  49.1  34158  289.54 0854.31
2009/04/23 16:57:24.6    -150    -95    127    178    218 237.6  39.3  34162  289.62 0854.31
2009/04/23 16:57:24.7    -119     16    115    121    166 277.9  48.7  34160  289.57 0854.31
2009/04/23 16:57:24.8    -114    143    122    184    220 321.5  36.7  34144  289.30 0854.31
2009/04/23 16:57:24.9    -229    100     76    250    262 293.6  17.1  34146  289.34 0854.31
2009/04/23 16:57:25.0    -331    236    145    407    433 305.5  19.6  34138  289.19 0854.31
2009/04/23 16:57:25.1    -243     62     21    251    252 284.4   4.9  34152  289.42 0854.31
2009/04/23 16:57:25.2    -198    223      6    299    300 318.5   1.2  34122  288.93 0854.31
2009/04/23 16:57:25.3    -115    208     73    238    250 331.0  17.1  34120  288.88 0854.31
2009/04/23 16:57:25.4    -142    139    256    200    324 314.4  58.0  34134  289.12 0854.31
2009/04/23 16:57:25.6    -178    297    195    347    398 329.0  31.9  34120  288.91 0854.31
2009/04/23 16:57:25.6     107    269     99    290    307  21.8  18.9  34104  288.63 0854.31
2009/04/23 16:57:25.7     126    253    167    283    328  26.5  33.3  34114  288.80 0854.31
2009/04/23 16:57:25.8     122     61    277    137    309  63.4  71.9  34144  289.29 0854.31
2009/04/23 16:57:25.9      28   -105    181    109    211 164.9  66.0  34142  289.28 0854.31
2009/04/23 16:57:26.0     -82    -66    184    106    212 230.9  67.2  34154  289.46 0854.31
2009/04/23 16:57:26.1    -127     54    128    139    188 293.1  47.7  34140  289.23 0854.31
2009/04/23 16:57:26.2    -120     17     64    122    137 278.4  29.8  34154  289.48 0854.31
2009/04/23 16:57:26.3    -161   -147    143    219    261 227.6  36.0  34156  289.49 0854.31
2009/04/23 16:57:26.4     -93    -60    144    111    181 237.1  58.5  34160  289.58 0854.31
2009/04/23 16:57:26.5    -124    -90     56    154    163 234.0  20.7  34170  289.74 0854.31
2009/04/23 16:57:26.6    -205   -159     46    260    265 232.3  10.1  34156  289.49 0854.31
2009/04/23 16:57:26.7    -151   -236    115    281    303 212.6  23.4  34166  289.66 0854.31
2009/04/23 16:57:26.8    -177   -234     71    294    303 217.2  13.7  34172  289.76 0854.31
2009/04/23 16:57:26.9    -179   -203   -144    271    306 221.4 -34.7  34174  289.81 0854.31
2009/04/23 16:57:27.0    -192   -195    -76    275    286 224.5 -15.5  34174  289.81 0854.31
2009/04/23 16:57:27.1     -59   -329   -132    335    360 190.2 -26.9  34158  289.55 0854.31
2009/04/23 16:57:27.2    -117   -267   -160    292    332 203.7 -35.7  34140  289.24 0854.31
2009/04/23 16:57:27.3    -138   -271   -198    305    363 207.0 -40.3  34122  288.94 0854.31
2009/04/23 16:57:27.4    -211   -251   -156    329    364 220.1 -31.6  34110  288.74 0854.31
2009/04/23 16:57:27.5    -252   -381    -35    458    460 213.5  -4.4  34118  288.87 0854.31
2009/04/23 16:57:27.6    -316   -456    -60    555    559 214.7  -6.2  34124  288.97 0854.31
2009/04/23 16:57:27.7    -291   -264    213    394    447 227.8  30.7  34124  288.95 0854.31
2009/04/23 16:57:27.8    -195   -216    187    292    346 222.1  35.6  34144  289.30 0854.31
2009/04/23 16:57:27.9    -322   -271     -9    421    422 229.9  -1.3  34154  289.48 0854.31
2009/04/23 16:57:28.0    -254   -287      6    384    385 221.5   1.0  34174  289.82 0854.31
2009/04/23 16:57:28.1    -284   -309    -10    421    422 222.6  -1.4  34170  289.73 0854.31
2009/04/23 16:57:28.2    -278   -325    -15    428    429 220.6  -2.1  34152  289.44 0854.31
2009/04/23 16:57:28.3    -337   -321     31    466    468 226.4   3.9  34162  289.62 0854.31
2009/04/23 16:57:28.4    -322   -299    -78    440    447 227.1 -10.1  34160  289.56 0854.31
2009/04/23 16:57:28.5    -251   -284    -11    380    381 221.4  -1.8  34162  289.60 0854.31
2009/04/23 16:57:28.6    -127   -283    -17    311    312 204.1  -3.1  34158  289.54 0854.31
2009/04/23 16:57:28.7     -87   -303    153    316    351 196.1  27.4  34158  289.55 0854.31
2009/04/23 16:57:28.8     -11   -335     72    336    344 182.0  12.1  34154  289.48 0854.31
2009/04/23 16:57:28.9    -343   -281     29    444    445 230.6   3.8  34160  289.58 0854.31
2009/04/23 16:57:29.0    -159   -276     -4    319    320 209.9  -0.9  34152  289.42 0854.31
2009/04/23 16:57:29.1    -228   -160     26    279    281 234.9   5.4  34156  289.51 0854.31
2009/04/23 16:57:29.2    -215   -222     87    310    323 224.1  15.8  34148  289.36 0854.31
2009/04/23 16:57:29.3    -125   -235     -8    267    268 208.1  -1.8  34154  289.46 0854.31
2009/04/23 16:57:29.4    -143   -152    -48    209    215 223.2 -13.2  34158  289.55 0854.31
2009/04/23 16:57:29.5    -161   -121    -67    202    212 233.1 -23.8  34158  289.55 0854.31
2009/04/23 16:57:29.6    -135   -122      0    183    184 227.8   0.0  34164  289.63 0854.31
2009/04/23 16:57:29.7    -154    -86     33    177    181 240.7  10.8  34162  289.60 0854.31
2009/04/23 16:57:29.8    -100   -123     45    159    166 219.2  15.8  34152  289.45 0854.31
2009/04/23 16:57:29.9     -98   -137      0    169    170 215.6   0.0  34154  289.48 0854.31
2009/04/23 16:57:30.0     -27   -139    -67    142    157 191.1 -31.4  34162  289.62 0854.30
2009/04/23 16:57:30.1    -156      0    -96    157    184 270.0 -39.2  34170  289.74 0854.30
2009/04/23 16:57:30.2     -63    -54    -65     84    106 229.6 -46.1  34176  289.84 0854.30
2009/04/23 16:57:30.3     -97   -104    -29    143    146 223.2 -11.5  34170  289.74 0854.30
2009/04/23 16:57:30.4    -106   -174     -8    205    206 211.4  -2.2  34168  289.72 0854.30
2009/04/23 16:57:30.5     -97   -174    -43    200    205 209.0 -12.4  34176  289.84 0854.30
2009/04/23 16:57:30.6     -88    -92      2    128    129 223.7   1.2  34176  289.84 0854.30
2009/04/23 16:57:30.7     -58   -183      9    193    194 197.6   2.8  34174  289.82 0854.30
2009/04/23 16:57:30.8    -143   -204     19    250    251 215.0   4.4  34178  289.86 0854.30
2009/04/23 16:57:30.9    -107   -271     38    292    295 201.6   7.5  34158  289.53 0854.30
2009/04/23 16:57:31.0    -115   -301    -12    323    324 201.0  -2.3  34172  289.76 0854.26
2009/04/23 16:57:31.1    -143   -215     23    259    261 213.6   5.2  34174  289.80 0854.26
2009/04/23 16:57:31.2     -74   -201     12    215    216 200.3   3.3  34168  289.72 0854.26
2009/04/23 16:57:31.3     -66   -262    -12    271    272 194.2  -2.6  34166  289.68 0854.26
2009/04/23 16:57:31.4     -22   -236     -2    238    239 185.3  -0.7  34178  289.88 0854.26
2009/04/23 16:57:31.5     151   -277     97    316    331 151.3  17.1  34178  289.86 0854.26
2009/04/23 16:57:31.6      98   -224    169    245    297 156.3  37.8  34176  289.85 0854.26
2009/04/23 16:57:31.7     129   -173    177    216    279 143.3  43.7  34172  289.76 0854.26
2009/04/23 16:57:31.8      76   -177    148    193    243 156.6  41.4  34166  289.69 0854.26
2009/04/23 16:57:31.9     207   -207    -28    294    296 135.0  -5.6  34160  289.56 0854.26
2009/04/23 16:57:32.0     179   -231     -6    293    294 142.1  -1.3  34166  289.68 0854.26
2009/04/23 16:57:32.1     147   -191     24    242    244 142.4   5.7  34170  289.75 0854.26
2009/04/23 16:57:32.2     103   -162     -3    193    194 147.4  -1.1  34172  289.77 0854.26
2009/04/23 16:57:32.4      75   -164     66    181    192 155.5  20.4  34170  289.75 0854.26
2009/04/23 16:57:32.5      50   -162    133    170    215 162.6  42.0  34192  290.11 0854.26
2009/04/23 16:57:32.6     110   -146     88    183    203 143.0  27.4  34182  289.94 0854.26
2009/04/23 16:57:32.7     -20   -151    144    153    210 187.6  48.2  34178  289.89 0854.26
2009/04/23 16:57:32.8      24   -123    155    126    199 168.9  56.6  34184  289.97 0854.26
2009/04/23 16:57:32.9     -23   -160     31    162    166 188.2  11.0  34168  289.70 0854.26
2009/04/23 16:57:33.0     -50   -212     40    218    222 193.4  10.6  34176  289.85 0854.26
2009/04/23 16:57:33.1     -50   -208     81    214    228 193.6  21.5  34176  289.85 0854.25
2009/04/23 16:57:33.2    -100   -197     93    222    240 207.0  24.1  34178  289.88 0854.25
2009/04/23 16:57:33.3     -60   -201     68    210    221 196.7  17.9  34172  289.79 0854.25
2009/04/23 16:57:33.4     -22   -248     34    250    253 185.1   7.8  34168  289.71 0854.25
2009/04/23 16:57:33.5     -85   -203    105    221    244 202.7  27.2  34172  289.76 0854.25
2009/04/23 16:57:33.6     -55   -202    134    210    249 195.2  35.6  34172  289.78 0854.25
2009/04/23 16:57:33.7     -40   -238    122    242    271 189.6  28.5  34184  289.97 0854.25
2009/04/23 16:57:33.8    -107   -292    114    312    332 200.1  21.0  34180  289.90 0854.25
2009/04/23 16:57:33.9      -6   -281    128    282    309 181.4  26.2  34174  289.80 0854.25
2009/04/23 16:57:34.0       0   -196    109    197    225 179.8  31.4  34172  289.77 0854.25
2009/04/23 16:57:34.1      55   -137    128    148    195 158.1  45.6  34172  289.79 0854.25
2009/04/23 16:57:34.2     120    -40    138    127    187 108.6  52.5  34150  289.41 0854.25
2009/04/23 16:57:34.3       5    -64     22     65     69 175.5  19.4  34162  289.60 0854.25
2009/04/23 16:57:34.4     -31    -13     20     34     39 246.5  33.5  34164  289.65 0854.25
2009/04/23 16:57:34.5     -33    -21      7     40     41 237.6  10.1  34170  289.75 0854.25
2009/04/23 16:57:34.6     -69      5     51     70     86 274.3  39.7  34178  289.87 0854.25
2009/04/23 16:57:34.7    -105    -41     42    113    120 248.7  21.0  34168  289.70 0854.25
2009/04/23 16:57:34.8    -103    -36     47    110    119 250.5  24.1  34168  289.70 0854.25
2009/04/23 16:57:34.9    -132    -77     82    153    173 239.8  30.6  34160  289.58 0854.25
2009/04/23 16:57:35.0    -132   -126     65    183    194 226.4  20.0  34166  289.67 0854.25
2009/04/23 16:57:35.1    -102     53    135    116    177 297.5  55.0  34176  289.84 0854.26
2009/04/23 16:57:35.2      -1     79    110     80    136 359.1  60.5  34156  289.52 0854.26
2009/04/23 16:57:35.3     122    126     78    176    192  44.1  25.7  34130  289.08 0854.26
2009/04/23 16:57:35.4      47    144     59    152    163  18.3  22.0  34144  289.30 0854.26
2009/04/23 16:57:35.5      11    144     28    145    148   4.5  11.0  34138  289.21 0854.26
2009/04/23 16:57:35.6      21    128     18    130    132   9.7   8.0  34142  289.26 0854.26
2009/04/23 16:57:35.7       7    101      5    102    103   4.5   2.8  34146  289.35 0854.26
2009/04/23 16:57:35.8      27     75    -24     80     84  20.0 -16.6  34148  289.38 0854.26
2009/04/23 16:57:35.9     129    -30     77    133    153 103.3  33.4  34146  289.33 0854.26
2009/04/23 16:57:36.0     153     64     40    166    171  67.2  13.7  34154  289.48 0854.26
2009/04/23 16:57:36.1     140    137    -32    197    200  45.6  -9.3  34168  289.70 0854.26
2009/04/23 16:57:36.2     175    154    -12    234    235  48.7  -3.1  34206  290.36 0854.26
2009/04/23 16:57:36.3     123    208    -78    242    255  30.7 -17.9  34154  289.46 0854.26
2009/04/23 16:57:36.4     195    183    -52    268    274  46.9 -11.1  34196  290.17 0854.26
2009/04/23 16:57:36.5     258    115    -84    283    296  66.0 -16.6  34154  289.47 0854.26
2009/04/23 16:57:36.6     245     94    -14    263    264  68.9  -3.1  34228  290.73 0854.26
2009/04/23 16:57:36.7     175     72     30    190    193  67.4   9.0  34224  290.65 0854.26
2009/04/23 16:57:36.8     133    100     64    167    178  52.9  22.0  34210  290.41 0854.26
2009/04/23 16:57:36.9      27    228    -35    230    233   6.9  -8.8  34182  289.94 0854.26
2009/04/23 16:57:37.0     -28    169    -85    172    191 350.4 -32.2  34152  289.45 0854.26
2009/04/23 16:57:37.1      39    144    -50    150    159  15.2 -18.7  34134  289.13 0854.27
2009/04/23 16:57:37.2     -12    151    -66    152    165 355.1 -29.3  34122  288.92 0854.27
2009/04/23 16:57:37.3      16    151    -68    152    166   6.3 -30.3  34120  288.91 0854.27
2009/04/23 16:57:37.4    -124    155   -104    199    224 321.3 -34.2  34122  288.94 0854.27
2009/04/23 16:57:37.5     -33    206   -123    209    242 350.9 -37.9  34136  289.18 0854.27
2009/04/23 16:57:37.6      28    242   -116    244    270   6.7 -31.6  34148  289.36 0854.27
2009/04/23 16:57:37.7     143    222    -14    265    266  32.7  -3.2  34148  289.36 0854.27
2009/04/23 16:57:37.8      90    198    -37    218    222  24.5  -9.8  34138  289.19 0854.27
2009/04/23 16:57:37.9     116     90    -36    147    152  52.2 -13.9  34134  289.13 0854.27
2009/04/23 16:57:38.0      29     66     -5     73     74  23.6  -4.1  34134  289.14 0854.27
2009/04/23 16:57:38.1      44     69    -51     82     96  32.5 -39.9  34126  289.01 0854.27
2009/04/23 16:57:38.2      82     22    -40     86     94  74.5 -31.5  34120  288.91 0854.27
2009/04/23 16:57:38.3     115     26    -40    118    125  77.2 -18.7  34120  288.91 0854.27
2009/04/23 16:57:38.4     122     34    -23    127    130  74.1 -10.3  34120  288.89 0854.27
2009/04/23 16:57:38.5     137     40    -44    143    149  73.6 -22.3  34116  288.84 0854.27
2009/04/23 16:57:38.6     138     46    -49    146    154  71.4 -23.6  34128  289.04 0854.27
2009/04/23 16:57:38.7     166     49    -61    174    185  73.4 -19.4  34128  289.04 0854.27
2009/04/23 16:57:38.8     192     50    -39    199    203  75.4 -11.3  34126  289.01 0854.27
2009/04/23 16:57:38.9     217     -3      6    218    219  90.8   1.8  34136  289.16 0854.27
2009/04/23 16:57:39.0     138     -1     92    139    166  90.8  36.5  34134  289.13 0854.27
2009/04/23 16:57:39.1     159    -12    146    160    216  94.4  47.5  34162  289.62 0854.28
2009/04/23 16:57:39.2     105     -1    164    106    195  90.8  64.1  34184  289.99 0854.28
2009/04/23 16:57:39.3     166     27    181    169    247  80.8  52.2  34238  290.91 0854.28
2009/04/23 16:57:39.4     158     15    152    159    219  84.3  48.7  34162  289.60 0854.28
2009/04/23 16:57:39.5      99     20    144    102    176  78.5  60.8  34200  290.26 0854.28
2009/04/23 16:57:39.6     110    -28     85    114    142 104.6  40.1  34152  289.45 0854.28
2009/04/23 16:57:39.7     148      0    111    149    185  89.6  40.7  34136  289.18 0854.28
2009/04/23 16:57:39.8     192     67    186    204    276  70.7  47.1  34222  290.61 0854.28
2009/04/23 16:57:39.9     198     43    144    203    248  77.6  38.6  34154  289.46 0854.28
2009/04/23 16:57:40.0     166     41    171    172    242  76.1  50.0  34242  290.96 0854.28
2009/04/23 16:57:40.1      21     42    140     48    148  27.2  81.2  34260  291.28 0854.28
2009/04/23 16:57:40.2      -8     11    139     14    139 323.9  90.0  34250  291.11 0854.28
2009/04/23 16:57:40.3      19     59    145     63    158  18.5  75.3  34240  290.94 0854.28
2009/04/23 16:57:40.4      33    -12     94     36    100 110.0  77.6  34248  291.08 0854.28
2009/04/23 16:57:40.5      20      7    110     22    112  70.0  89.0  34236  290.87 0854.28
2009/04/23 16:57:40.6       2     25     98     26    101   4.5  84.9  34236  290.86 0854.28
2009/04/23 16:57:40.7     -36     16     83     40     92 294.4  72.9  34220  290.60 0854.28
2009/04/23 16:57:40.8     -22     40     71     46     84 331.0  64.6  34222  290.64 0854.28
2009/04/23 16:57:40.9      30     26    105     40    112  48.7  78.6  34222  290.64 0854.28
2009/04/23 16:57:41.0     135      0     62    136    149  90.0  27.1  34162  289.62 0854.28
2009/04/23 16:57:41.1      56     13     90     58    107  76.7  64.6  34168  289.72 0854.29
2009/04/23 16:57:41.2      44     28    107     53    119  57.5  71.4  34216  290.52 0854.29
2009/04/23 16:57:41.3      61      4     94     62    112  85.7  64.1  34230  290.75 0854.29
2009/04/23 16:57:41.4      -4    -23     84     24     87 189.8  83.3  34230  290.75 0854.29
2009/04/23 16:57:41.5     113     37     91    120    150  71.6  41.2  34238  290.91 0854.29
2009/04/23 16:57:41.6      80     20     78     83    113  75.8  48.5  34276  291.55 0854.29
2009/04/23 16:57:41.7     -30    -63     49     70     85 205.4  38.0  34262  291.30 0854.29
2009/04/23 16:57:41.8     -80    -42     56     91    106 242.0  35.0  34262  291.32 0854.29
2009/04/23 16:57:41.9     -72   -100    112    124    167 215.6  46.9  34226  290.69 0854.29
2009/04/23 16:57:42.0    -123   -109    120    165    204 228.4  39.7  34196  290.19 0854.29
2009/04/23 16:57:42.1     -25    -94     57     98    113 195.1  33.5  34224  290.67 0854.29
2009/04/23 16:57:42.2       3    -46     69     47     83 175.5  62.6  34218  290.55 0854.29
2009/04/23 16:57:42.3      49    -53     74     73    103 137.7  49.7  34198  290.21 0854.29
2009/04/23 16:57:42.4      29   -145     84    149    171 168.4  31.9  34182  289.96 0854.29
2009/04/23 16:57:42.5     -32    -99     90    105    138 198.3  45.4  34170  289.75 0854.29
2009/04/23 16:57:42.6     -23      7     55     25     60 288.4  73.1  34196  290.19 0854.29
2009/04/23 16:57:42.7      56     30     76     64     99  61.1  55.8  34214  290.48 0854.29
2009/04/23 16:57:42.8      52     18     92     56    107  70.9  65.1  34224  290.67 0854.29
2009/04/23 16:57:42.9     -19    -37     62     42     74 208.1  63.6  34226  290.69 0854.29
2009/04/23 16:57:43.0     -12    -54     93     56    108 192.5  65.7  34210  290.41 0854.29
2009/04/23 16:57:43.1       2   -139    101    140    172 179.1  39.1  34184  289.97 0854.29
2009/04/23 16:57:43.2       0   -212    107    213    238 180.2  28.7  34180  289.91 0854.29
2009/04/23 16:57:43.3     113   -205    172    235    291 151.1  39.7  34212  290.46 0854.29
2009/04/23 16:57:43.4      46   -152    157    159    223 163.0  50.0  34228  290.74 0854.29
2009/04/23 16:57:43.5      37   -109    153    116    192 161.3  59.0  34220  290.60 0854.29
2009/04/23 16:57:43.6     -12   -158    181    159    240 184.4  54.2  34204  290.31 0854.29
2009/04/23 16:57:43.7     -12   -166    185    167    249 184.4  53.3  34210  290.41 0854.29
2009/04/23 16:57:43.8      12   -154    146    155    212 175.5  48.2  34190  290.09 0854.29
2009/04/23 16:57:43.9      22   -164    131    166    211 172.2  42.4  34202  290.28 0854.29
2009/04/23 16:57:44.0      81   -136    101    159    188 149.3  35.5  34206  290.35 0854.29
2009/04/23 16:57:44.1      32    -96     42    102    110 161.3  23.6  34196  290.18 0854.29
2009/04/23 16:57:44.2      29    -77     49     83     96 159.1  34.0  34188  290.04 0854.29
2009/04/23 16:57:44.3     101    -65     77    121    143 122.9  35.5  34214  290.48 0854.29
2009/04/23 16:57:44.4      71   -102     92    125    155 145.3  39.7  34202  290.28 0854.29
2009/04/23 16:57:44.5     -15    -77     60     79     99 191.6  40.7  34190  290.09 0854.29
2009/04/23 16:57:44.6      34    -31     64     47     79 132.2  60.0  34204  290.31 0854.29
2009/04/23 16:57:44.7     -13   -127     74    128    147 186.3  32.9  34168  289.70 0854.29
2009/04/23 16:57:44.8      16   -130     70    132    149 172.9  30.3  34164  289.63 0854.29
2009/04/23 16:57:44.9      42   -151     89    157    180 164.4  31.9  34172  289.77 0854.29
2009/04/23 16:57:45.0     -51   -193     56    200    208 195.1  15.8  34158  289.53 0854.29
2009/04/23 16:57:45.1     -70   -142     40    159    165 206.3  14.3  34164  289.63 0854.30
2009/04/23 16:57:45.2     -46   -143     69    151    166 197.8  26.4  34164  289.63 0854.30
2009/04/23 16:57:45.3     -28   -137     81    140    161 191.6  32.7  34162  289.62 0854.30
2009/04/23 16:57:45.4     -42   -128     73    135    153 198.3  31.3  34156  289.52 0854.30
2009/04/23 16:57:45.5     -45    -98     98    109    146 204.9  46.9  34164  289.65 0854.30
2009/04/23 16:57:45.6       4    -68    103     69    123 176.4  63.2  34186  290.01 0854.30
2009/04/23 16:57:45.7      -8   -106     94    107    142 184.5  45.9  34178  289.89 0854.30
2009/04/23 16:57:45.8       1   -107    110    108    154 179.1  50.1  34170  289.75 0854.30
2009/04/23 16:57:45.9     -52   -160    147    169    223 198.0  45.8  34158  289.55 0854.30
2009/04/23 16:57:46.0     -23   -162    131    164    209 188.2  43.0  34178  289.89 0854.30
2009/04/23 16:57:46.1      16   -128     78    130    151 172.9  34.0  34186  290.02 0854.30
2009/04/23 16:57:46.2       6   -127     61    128    141 177.3  27.2  34180  289.91 0854.30
2009/04/23 16:57:46.3     -16   -125    171    127    213 187.6  60.0  34178  289.87 0854.30
2009/04/23 16:57:46.4       0    -66    167     67    179 180.0  77.1  34198  290.21 0854.30
2009/04/23 16:57:46.5       8     26     98     28    101  18.5  83.9  34208  290.40 0854.30
2009/04/23 16:57:46.6      -1    -30     97     31    101 182.6  81.2  34200  290.26 0854.30
2009/04/23 16:57:46.7     -29    -29    131     42    137 225.1  81.2  34192  290.11 0854.30
2009/04/23 16:57:46.8     -12    -63    115     65    132 191.5  68.3  34172  289.77 0854.30
2009/04/23 16:57:46.9     -23    -99     89    102    135 193.4  45.8  34158  289.55 0854.30
2009/04/23 16:57:47.0       2    -86    104     87    135 178.6  56.3  34160  289.57 0854.30
2009/04/23 16:57:47.1     -33    -80     86     87    122 202.7  50.0  34158  289.55 0854.31
2009/04/23 16:57:47.2    -108    -59     91    124    153 241.1  39.7  34164  289.63 0854.31
2009/04/23 16:57:47.3    -102    -34     58    108    122 251.6  30.8  34168  289.72 0854.31
2009/04/23 16:57:47.4    -110     16     43    112    119 278.4  21.5  34170  289.74 0854.31
2009/04/23 16:57:47.5     -98    -32     36    104    111 251.8  19.2  34178  289.87 0854.31
2009/04/23 16:57:47.6    -120    -52     65    132    147 246.4  27.3  34176  289.85 0854.31
2009/04/23 16:57:47.7     -85    -51    106    100    145 239.3  52.1  34176  289.84 0854.31
2009/04/23 16:57:47.8     -52    -46     71     70     99 228.7  50.1  34182  289.96 0854.31
2009/04/23 16:57:47.9     -29    -10     80     31     85 250.0  78.2  34196  290.19 0854.31
2009/04/23 16:57:48.0      29    -12     59     32     67 113.5  68.9  34194  290.14 0854.31
2009/04/23 16:57:48.1      58     -1     55     59     80  91.7  47.9  34190  290.08 0854.31
2009/04/23 16:57:48.2      24      4     58     25     63  80.3  76.1  34200  290.25 0854.31
2009/04/23 16:57:48.3       2      0     58      3     58  90.0  90.0  34204  290.33 0854.31
2009/04/23 16:57:48.4      21     20     61     30     67  46.7  72.8  34208  290.38 0854.31
2009/04/23 16:57:48.5      59     37     92     70    115  57.6  59.0  34192  290.13 0854.31
2009/04/23 16:57:48.6      45     29     93     54    107  57.5  67.2  34188  290.06 0854.31
2009/04/23 16:57:48.7      39     40     81     57     99  44.2  61.1  34188  290.04 0854.31
2009/04/23 16:57:48.8     -16      5     64     17     66 288.6  84.9  34214  290.48 0854.31
2009/04/23 16:57:48.9      -3     49     57     50     75 355.5  54.3  34200  290.25 0854.31
2009/04/23 16:57:49.0       4     75     41     76     86   3.6  30.8  34222  290.64 0854.31
2009/04/23 16:57:49.1     -12     60     54     62     82 348.4  45.8  34246  291.03 0854.32
2009/04/23 16:57:49.2     -16     42     76     45     88 339.1  66.8  34226  290.70 0854.32
2009/04/23 16:57:49.3     -83     88     75    122    143 316.7  35.0  34208  290.38 0854.32
2009/04/23 16:57:49.4     -34    162     94    166    190 348.0  31.9  34178  289.87 0854.32
2009/04/23 16:57:49.5     -23    180    103    182    209 352.7  31.9  34182  289.94 0854.32
2009/04/23 16:57:49.6      75    206    138    220    259  20.1  35.5  34174  289.81 0854.32
2009/04/23 16:57:49.7      14    248    140    249    285   3.4  31.9  34162  289.61 0854.32
2009/04/23 16:57:49.8      39    206    102    210    233  10.9  27.4  34158  289.53 0854.32
2009/04/23 16:57:49.9      61     96    112    114    159  32.5  50.0  34168  289.72 0854.32
2009/04/23 16:57:50.0     145     73    101    163    191  63.1  35.5  34166  289.69 0854.32
2009/04/23 16:57:50.1     105    119     79    159    177  41.4  28.2  34166  289.67 0854.32
2009/04/23 16:57:50.2      61    123     66    138    152  26.3  27.2  34170  289.75 0854.32
2009/04/23 16:57:50.3     104     63    143    122    187  58.9  55.4  34184  289.97 0854.32
2009/04/23 16:57:50.4      91     20     74     94    119  77.2  42.2  34186  290.02 0854.32
2009/04/23 16:57:50.5      74     61     66     97    117  50.5  37.0  34190  290.09 0854.32
2009/04/23 16:57:50.6      -3    124     46    125    133 358.2  20.9  34238  290.91 0854.32
2009/04/23 16:57:50.7     -22     26     74     35     81 320.4  73.5  34242  290.98 0854.32
2009/04/23 16:57:50.8    -109    -19    103    111    151 259.9  47.9  34218  290.57 0854.32
2009/04/23 16:57:50.9    -195     92     83    216    231 295.3  22.0  34250  291.09 0854.32
2009/04/23 16:57:51.0    -245     95     72    263    273 291.3  15.3  34246  291.02 0854.32
2009/04/23 16:57:51.1    -193     26    108    195    222 277.9  31.4  34194  290.14 0854.33
2009/04/23 16:57:51.2    -178     65     74    190    203 290.2  22.3  34190  290.08 0854.33
2009/04/23 16:57:51.3    -119    118     41    168    174 314.8  13.9  34208  290.38 0854.33
2009/04/23 16:57:51.4     100    -22     85    103    133 102.4  43.7  34236  290.86 0854.33
2009/04/23 16:57:51.5     183     49    156    190    245  74.9  43.7  34270  291.43 0854.33
2009/04/23 16:57:51.6     109     -2    139    110    177  91.3  57.5  34202  290.30 0854.33
2009/04/23 16:57:51.7     114     30    125    119    172  75.0  51.2  34210  290.41 0854.33
2009/04/23 16:57:51.8     152     36    110    157    191  76.7  38.6  34200  290.26 0854.33
2009/04/23 16:57:51.9     148    -11    136    149    201  94.4  47.5  34196  290.18 0854.33
2009/04/23 16:57:52.0     124     -1    140    125    187  90.8  53.7  34198  290.21 0854.33
2009/04/23 16:57:52.1     158     12    129    159    204  85.6  43.5  34196  290.18 0854.35
2009/04/23 16:57:52.2     128     -9     62    129    143  94.4  27.2  34200  290.25 0854.35
2009/04/23 16:57:52.3     203     22     24    205    207  83.6   6.7  34202  290.28 0854.35
2009/04/23 16:57:52.4     203      5     31    204    207  88.5   8.8  34248  291.08 0854.35
2009/04/23 16:57:52.5     372     13    155    373    403  88.0  24.1  34260  291.28 0854.35
2009/04/23 16:57:52.6     399     41    154    402    430  84.1  22.0  34308  292.09 0854.35
2009/04/23 16:57:52.7     294    -36     35    297    300  97.0   6.9  34260  291.27 0854.35
2009/04/23 16:57:52.8      97    -20    167    100    194 101.9  66.2  34242  290.98 0854.35
2009/04/23 16:57:52.9     229     44    157    234    281  79.0  37.0  34322  292.33 0854.35
2009/04/23 16:57:53.0     256    133     99    289    306  62.5  18.9  34324  292.35 0854.35
2009/04/23 16:57:53.1     183    116    106    217    241  57.6  28.0  34304  292.02 0854.35
2009/04/23 16:57:53.2     213     51    124    220    252  76.5  32.1  34304  292.01 0854.35
2009/04/23 16:57:53.3     225     95     62    245    253  67.2  14.3  34204  290.32 0854.35
2009/04/23 16:57:53.4     194      8     16    195    196  87.4   4.9  34202  290.30 0854.35
2009/04/23 16:57:53.5     200    -24     35    202    206  97.0   9.9  34248  291.06 0854.35
2009/04/23 16:57:53.6     246     63    131    254    285  75.6  29.3  34298  291.92 0854.35
2009/04/23 16:57:53.7     283     98     77    300    310  70.9  14.4  34270  291.44 0854.35
2009/04/23 16:57:53.8     257     40    187    261    321  81.0  39.1  34226  290.70 0854.35
2009/04/23 16:57:53.9     154     46    190    161    249  73.2  55.6  34254  291.16 0854.35
2009/04/23 16:57:54.0     211     25    162    213    267  83.2  40.9  34196  290.17 0854.35
2009/04/23 16:57:54.1     241     48    115    246    271  78.5  27.1  34196  290.17 0854.35
2009/04/23 16:57:54.2     321     80    108    331    349  75.8  18.0  34250  291.11 0854.35
2009/04/23 16:57:54.3     349    169    147    388    414  64.1  21.8  34304  292.03 0854.35
2009/04/23 16:57:54.4     282     85    165    295    338  73.2  31.6  34322  292.33 0854.35
2009/04/23 16:57:54.5     331    114    106    351    367  70.9  16.8  34348  292.77 0854.35
2009/04/23 16:57:54.6     420    137     77    442    449  71.9  10.0  34288  291.75 0854.35
2009/04/23 16:57:54.7     282     80     23    294    295  74.1   4.6  34268  291.39 0854.35
2009/04/23 16:57:54.8     299     -7    104    300    318  91.5  19.2  34188  290.03 0854.35
2009/04/23 16:57:54.9     269     -3     93    270    286  90.8  19.2  34190  290.07 0854.35
2009/04/23 16:57:55.0     239     14     87    240    256  86.6  19.9  34202  290.27 0854.35
2009/04/23 16:57:55.1     222     30    131    225    260  82.1  33.1  34252  291.12 0854.35
2009/04/23 16:57:55.2     175     67    114    188    219  68.9  34.2  34284  291.67 0854.35
2009/04/23 16:57:55.3     211     77    126    225    257  69.8  31.4  34272  291.48 0854.35
2009/04/23 16:57:55.4     232     72     92    244    260  72.7  21.7  34212  290.44 0854.35
2009/04/23 16:57:55.5     216     44     85    221    236  78.3  22.1  34198  290.23 0854.35
2009/04/23 16:57:55.6     248     38    152    251    293  81.2  34.0  34228  290.73 0854.35
2009/04/23 16:57:55.7     232     36     64    235    244  81.2  15.3  34228  290.73 0854.35
2009/04/23 16:57:55.8     292     88     16    305    306  73.2   3.1  34286  291.70 0854.35
2009/04/23 16:57:55.9     273    100     72    291    300  69.8  13.9  34304  292.02 0854.35
2009/04/23 16:57:56.0     204     91    114    224    251  66.0  29.1  34286  291.72 0854.35
2009/04/23 16:57:56.1     200     54    124    208    242  74.9  33.7  34304  292.03 0854.36
2009/04/23 16:57:56.2     266     23    170    268    317  85.0  35.5  34274  291.51 0854.36
2009/04/23 16:57:56.3     341     62    110    347    365  79.7  17.7  34290  291.78 0854.36
2009/04/23 16:57:56.4     274     11     81    275    287  87.6  16.4  34300  291.94 0854.36
2009/04/23 16:57:56.5     265    -41    180    269    323  98.8  36.9  34216  290.51 0854.36
2009/04/23 16:57:56.6     200    -90    172    220    279 114.4  41.7  34214  290.48 0854.36
2009/04/23 16:57:56.7     126    -69    160    144    215 118.9  53.5  34216  290.53 0854.36
2009/04/23 16:57:56.8     -38   -149    230    154    276 194.3  62.8  34252  291.14 0854.36
2009/04/23 16:57:56.9     -79   -202    304    217    373 201.4  61.0  34242  290.98 0854.36
2009/04/23 16:57:57.0      28    -40    130     50    139 144.8  78.2  34264  291.35 0854.36
2009/04/23 16:57:57.1     191    -54    187    199    273 105.9  48.0  34272  291.46 0854.36
2009/04/23 16:57:57.2      74     65    154     99    183  48.7  64.6  34278  291.59 0854.36
2009/04/23 16:57:57.3      41     57    140     71    156  36.0  71.4  34266  291.37 0854.36
2009/04/23 16:57:57.4     -29     84    107     89    139 340.8  56.3  34272  291.49 0854.36
2009/04/23 16:57:57.5     -50     73     71     89    113 325.3  43.3  34278  291.57 0854.36
2009/04/23 16:57:57.6       4      2     87      5     87  57.6  90.0  34276  291.55 0854.36
2009/04/23 16:57:57.7     -77   -134    147    155    213 209.9  48.7  34284  291.69 0854.36
2009/04/23 16:57:57.8    -104   -280    117    300    322 200.5  22.3  34250  291.10 0854.36
2009/04/23 16:57:57.9     -17   -200    234    201    308 185.1  55.3  34240  290.93 0854.36
2009/04/23 16:57:58.0     -17   -228    128    229    262 184.5  31.6  34244  291.00 0854.36
2009/04/23 16:57:58.1     -81   -196     74    213    226 202.5  19.2  34260  291.28 0854.37
2009/04/23 16:57:58.2     -17   -184     50    185    192 185.3  15.3  34250  291.09 0854.37
2009/04/23 16:57:58.3     -52   -188     89    196    215 195.4  26.2  34236  290.86 0854.37
2009/04/23 16:57:58.4     -17   -193    135    194    236 185.1  38.4  34236  290.87 0854.37
2009/04/23 16:57:58.5     -73   -199    134    213    251 200.3  35.5  34254  291.16 0854.37
2009/04/23 16:57:58.6     -99   -184    117    209    239 208.3  31.6  34278  291.59 0854.37
2009/04/23 16:57:58.7     -86   -176     91    196    216 206.1  27.0  34270  291.43 0854.37
2009/04/23 16:57:58.8     -90   -104     43    138    145 221.0  17.4  34274  291.50 0854.37
2009/04/23 16:57:58.9    -130   -208     94    246    263 211.9  22.0  34266  291.36 0854.37
2009/04/23 16:57:59.0    -117   -162     95    201    222 215.8  27.1  34252  291.13 0854.37
2009/04/23 16:57:59.1    -133   -241     96    276    293 209.0  19.2  34258  291.24 0854.37
2009/04/23 16:57:59.2    -146   -137     98    201    223 226.8  27.8  34260  291.28 0854.37
2009/04/23 16:57:59.3     -99   -140     60    172    183 215.4  19.4  34266  291.38 0854.37
2009/04/23 16:57:59.5     -71    -86     61    112    127 219.6  31.3  34278  291.57 0854.37
2009/04/23 16:57:59.6     -69    -44     56     83    100 237.5  37.0  34274  291.52 0854.37
2009/04/23 16:57:59.6     -66    -12     96     68    117 259.4  60.6  34288  291.74 0854.37
2009/04/23 16:57:59.7      -2     -2    106      4    106 225.0  90.0  34282  291.66 0854.37
2009/04/23 16:57:59.8      -3     32    111     33    115 353.8  82.8  34276  291.55 0854.37
2009/04/23 16:57:59.9      63     40     86     75    114  57.6  54.3  34250  291.09 0854.37
2009/04/23 16:58:00.1     124     41     72    131    149  71.6  31.3  34242  290.96 0854.37
2009/04/23 16:58:00.2      65     69    117     95    150  43.2  56.4  34274  291.50 0854.36
2009/04/23 16:58:00.3      27     67     77     73    106  21.8  51.6  34276  291.55 0854.36
2009/04/23 16:58:00.4      38    115     96    122    155  18.5  42.7  34298  291.91 0854.36
2009/04/23 16:58:00.5      63     63     69     90    113  45.1  41.7  34292  291.81 0854.36
2009/04/23 16:58:00.6      64     66     62     93    111  44.1  36.5  34278  291.59 0854.36
2009/04/23 16:58:00.7     130     58     39    143    149  66.0  15.3  34286  291.71 0854.36
2009/04/23 16:58:00.8     115     75     36    138    143  56.7  14.7  34280  291.60 0854.36
2009/04/23 16:58:00.9      82    143     43    166    172  29.9  14.7  34266  291.38 0854.36
2009/04/23 16:58:01.0      62    133     48    147    155  24.9  18.4  34258  291.25 0854.36
2009/04/23 16:58:01.1     132     82    -16    156    157  58.0  -6.0  34254  291.18 0854.36
2009/04/23 16:58:01.2     141     26    -20    144    146  79.4  -8.2  34264  291.35 0854.36
2009/04/23 16:58:01.3     141     28     28    144    147  78.5  11.0  34276  291.54 0854.36
2009/04/23 16:58:01.4     155     86    101    178    204  60.9  32.1  34282  291.66 0854.36
2009/04/23 16:58:01.5     107     59     99    123    157  61.2  43.3  34300  291.96 0854.36
2009/04/23 16:58:01.6      41     48    122     64    137  40.5  70.4  34304  292.01 0854.36
2009/04/23 16:58:01.7     -22    108    162    111    196 348.4  62.4  34322  292.34 0854.36
2009/04/23 16:58:01.8      16    104    122    106    161   8.9  54.6  34354  292.88 0854.36
2009/04/23 16:58:01.9      -1     94    125     95    157 359.1  58.7  34336  292.58 0854.36
2009/04/23 16:58:02.0     -38     77     58     86    103 333.7  37.0  34326  292.39 0854.36
2009/04/23 16:58:02.1     -80     63     57    103    117 308.2  31.4  34314  292.20 0854.36
2009/04/23 16:58:02.2     -85     37     32     93     99 293.5  19.4  34326  292.40 0854.36
2009/04/23 16:58:02.3     -81     43     49     92    104 298.0  30.8  34318  292.25 0854.36
2009/04/23 16:58:02.4     -87     28     38     92     99 288.2  23.1  34310  292.12 0854.36
2009/04/23 16:58:02.5      -7    227    157    228    276 358.0  37.6  34288  291.75 0854.36
2009/04/23 16:58:02.6       0    232    170    233    288   0.0  39.7  34222  290.63 0854.36
2009/04/23 16:58:02.7      96    229     99    249    267  22.8  23.0  34222  290.61 0854.36
2009/04/23 16:58:02.8     179    203    107    271    291  41.4  22.8  34252  291.12 0854.36
2009/04/23 16:58:02.9     146    146    136    207    247  45.0  36.5  34280  291.61 0854.36
2009/04/23 16:58:03.0     312    220    179    383    422  54.8  27.1  34292  291.82 0854.36
2009/04/23 16:58:03.1     277    136    169    309    352  63.8  31.0  34318  292.25 0854.36
2009/04/23 16:58:03.2     410    412    171    582    607  44.9  16.4  34256  291.19 0854.36
2009/04/23 16:58:03.3     222    402    119    460    476  28.9  14.5  34226  290.69 0854.36
2009/04/23 16:58:03.4     477    156     34    503    505  71.8   3.9  34240  290.93 0854.36
2009/04/23 16:58:03.5     469    285    212    549    588  58.7  22.2  34278  291.56 0854.36
2009/04/23 16:58:03.6     363    386    145    531    551  43.2  15.3  34180  289.92 0854.36
2009/04/23 16:58:03.7     430    334    163    545    569  52.2  16.7  34178  289.87 0854.36
2009/04/23 16:58:03.8     336    347    194    484    521  44.1  23.1  34170  289.73 0854.36
2009/04/23 16:58:03.9     405    404    134    573    589  45.1  13.2  34148  289.37 0854.36
2009/04/23 16:58:04.0     340    212     -1    401    402  58.0  -0.3  34204  290.33 0854.36
2009/04/23 16:58:04.1     123    369    114    390    407  18.5  16.3  34194  290.15 0854.36
2009/04/23 16:58:04.2      71    424   -146    431    456   9.6 -18.8  34252  291.12 0854.38
2009/04/23 16:58:04.3     221    390   -152    449    474  29.6 -23.8  34248  291.05 0854.38
2009/04/23 16:58:04.4     349    361    -19    503    504  44.0  -2.2  34224  290.66 0854.38
2009/04/23 16:58:04.5     490    329      2    591    592  56.1   0.2  34272  291.49 0854.38
2009/04/23 16:58:04.6     532    226    -40    579    581  67.0  -4.0  34268  291.41 0854.38
2009/04/23 16:58:04.7     647    140    -85    663    669  77.7  -7.3  34296  291.87 0854.38
2009/04/23 16:58:04.8     576    233    -44    622    624  67.9  -4.1  34198  290.23 0854.38
2009/04/23 16:58:04.9     481    182      4    515    516  69.2   0.5  34254  291.17 0854.38
2009/04/23 16:58:05.0     485    209     16    529    530  66.7   1.8  34202  290.30 0854.38
2009/04/23 16:58:05.1     297    213    120    366    386  54.3  18.2  34180  289.91 0854.38
2009/04/23 16:58:05.2     242    272      3    365    366  41.7   0.5  34174  289.81 0854.38
2009/04/23 16:58:05.3     209    275     78    346    355  37.2  12.8  34166  289.69 0854.38
2009/04/23 16:58:05.4     265    218    -44    344    347  50.5  -7.3  34160  289.57 0854.38
2009/04/23 16:58:05.5     185    200    -29    273    275  42.8  -6.2  34162  289.59 0854.38
2009/04/23 16:58:05.6     141    215      8    258    259  33.2   1.8  34160  289.56 0854.38
2009/04/23 16:58:05.7     240    238     40    339    342  45.2   6.9  34152  289.43 0854.38
2009/04/23 16:58:05.8     233    166     78    287    298  54.5  15.2  34158  289.54 0854.38
2009/04/23 16:58:05.9     227    159     90    278    293  55.0  17.9  34156  289.51 0854.38
2009/04/23 16:58:06.0     209    228    -29    310    312  42.5  -5.4  34156  289.49 0854.38
2009/04/23 16:58:06.1     196    130    -79    236    250  56.5 -18.6  34146  289.34 0854.38
2009/04/23 16:58:06.2     285    118     15    309    310  67.4   2.8  34148  289.36 0854.40
2009/04/23 16:58:06.3     347    159     72    382    389  65.3  10.7  34180  289.91 0854.40
2009/04/23 16:58:06.4     307    136    192    337    387  66.0  32.1  34178  289.86 0854.40
2009/04/23 16:58:06.5     245    172    227    300    376  54.9  40.9  34166  289.69 0854.40
2009/04/23 16:58:06.6     364    146     41    393    396  68.2   6.0  34154  289.48 0854.40
2009/04/23 16:58:06.7     386    188    165    430    460  64.0  22.1  34244  291.01 0854.40
2009/04/23 16:58:06.8     382    152    230    412    471  68.3  31.6  34244  290.99 0854.40
2009/04/23 16:58:06.9     314     60    182    320    368  79.2  32.3  34192  290.13 0854.40
2009/04/23 16:58:07.0     355     93    189    368    413  75.2  29.3  34178  289.89 0854.40
2009/04/23 16:58:07.1     290     55    215    296    365  79.2  39.7  34218  290.54 0854.40
2009/04/23 16:58:07.2     190     62    245    200    316  71.8  56.6  34252  291.14 0854.40
2009/04/23 16:58:07.3     162    118    233    201    307  54.0  55.0  34254  291.16 0854.40
2009/04/23 16:58:07.4       0   -116    193    117    225 180.0  66.2  34246  291.04 0854.40
2009/04/23 16:58:07.5      45   -180    159    186    244 165.7  44.8  34248  291.08 0854.40
2009/04/23 16:58:07.6      78   -277    157    288    328 164.2  30.9  34240  290.92 0854.40
2009/04/23 16:58:07.7      92   -321    115    335    355 164.0  18.9  34240  290.94 0854.40
2009/04/23 16:58:07.8     105   -263      4    284    285 158.2   1.0  34282  291.63 0854.40
2009/04/23 16:58:07.9       0   -328    177    329    373 179.9  30.7  34260  291.27 0854.40
2009/04/23 16:58:08.0      18   -358    135    359    383 177.0  21.6  34286  291.71 0854.40
2009/04/23 16:58:08.1     -51   -356    -11    360    361 188.3  -1.9  34172  289.76 0854.40
2009/04/23 16:58:08.2      42   -294    -89    298    312 171.9 -16.6  34166  289.66 0854.37
2009/04/23 16:58:08.3     198   -302     43    362    365 146.7   6.8  34274  291.51 0854.37
2009/04/23 16:58:08.4     235   -281     86    367    377 140.0  13.2  34246  291.03 0854.37
2009/04/23 16:58:08.5     200   -211    147    291    326 136.6  28.9  34238  290.90 0854.37
2009/04/23 16:58:08.6     262   -165     99    310    326 122.2  17.7  34232  290.80 0854.37
2009/04/23 16:58:08.7     212   -186    195    283    343 131.3  38.0  34232  290.78 0854.37
2009/04/23 16:58:08.8     289   -115     40    312    315 111.8   7.5  34160  289.56 0854.37
2009/04/23 16:58:08.9     253    -11    165    254    302  92.6  35.7  34236  290.87 0854.37
2009/04/23 16:58:09.0     231    -10    127    232    264  92.6  31.3  34196  290.19 0854.37
2009/04/23 16:58:09.1     279    -78    180    290    341 105.7  35.0  34176  289.85 0854.37
2009/04/23 16:58:09.2     288    -71    212    297    364 103.9  39.1  34228  290.72 0854.37
2009/04/23 16:58:09.3     148    -75    249    167    299 117.0  63.2  34272  291.48 0854.37
2009/04/23 16:58:09.4      -4     62    145     63    158 355.5  75.3  34274  291.52 0854.37
2009/04/23 16:58:09.5      87      0    242     88    257  90.0  79.2  34306  292.05 0854.37
2009/04/23 16:58:09.6     205     38    221    209    304  79.4  52.1  34272  291.46 0854.37
2009/04/23 16:58:09.7      41      7    146     42    151  79.4  83.3  34254  291.18 0854.37
2009/04/23 16:58:09.8     -38    -83    219     92    237 204.5  76.1  34242  290.98 0854.37
2009/04/23 16:58:09.9     -24   -109    267    112    289 192.5  76.1  34216  290.51 0854.37
2009/04/23 16:58:10.0    -138   -166    256    217    335 219.7  55.6  34230  290.76 0854.37
2009/04/23 16:58:10.1    -154   -265    241    307    390 210.3  42.1  34230  290.76 0854.37
2009/04/23 16:58:10.2    -204   -123    131    239    272 238.9  31.3  34184  289.98 0854.39
2009/04/23 16:58:10.3    -209    -25    184    211    279 263.0  45.8  34202  290.27 0854.39
2009/04/23 16:58:10.4     -76     74    105    107    149 314.0  50.0  34200  290.26 0854.39
2009/04/23 16:58:10.5     140     97    148    171    226  55.4  45.4  34200  290.25 0854.39
2009/04/23 16:58:10.6     149     30     77    153    171  78.5  28.5  34204  290.31 0854.39
2009/04/23 16:58:10.7     156    109    154    191    245  54.9  43.3  34194  290.16 0854.39
2009/04/23 16:58:10.8     219    286    171    361    399  37.5  27.2  34188  290.04 0854.39
2009/04/23 16:58:10.9     201    276     73    342    350  36.1  12.1  34188  290.06 0854.39
2009/04/23 16:58:11.0     199     66    158    210    262  71.6  40.7  34198  290.20 0854.39
2009/04/23 16:58:11.1     123    217    107    250    271  29.6  24.3  34186  290.00 0854.39
2009/04/23 16:58:11.2     -21    250    154    251    294 355.1  34.4  34194  290.15 0854.39
2009/04/23 16:58:11.3      -3    235    263    236    353 359.1  53.6  34208  290.37 0854.39
2009/04/23 16:58:11.4     -71     75    139    104    173 316.8  59.8  34214  290.48 0854.39
2009/04/23 16:58:11.5      -8    161    123    162    203 356.9  40.9  34220  290.58 0854.39
2009/04/23 16:58:11.6       6    121      6    122    123   3.1   2.9  34236  290.86 0854.39
2009/04/23 16:58:11.7    -105     43     71    114    134 292.6  35.5  34220  290.58 0854.39
2009/04/23 16:58:11.8    -178      6     98    179    204 272.1  31.3  34202  290.28 0854.39
2009/04/23 16:58:11.9    -154     31     22    158    160 281.5   8.2  34198  290.21 0854.39
2009/04/23 16:58:12.0    -250     15     39    251    255 273.5   9.0  34204  290.31 0854.39
2009/04/23 16:58:12.1    -276      4    -15    277    278 270.9  -3.3  34196  290.17 0854.39
2009/04/23 16:58:12.2    -253     23    -52    255    261 275.2 -11.6  34200  290.24 0854.41
2009/04/23 16:58:12.3    -310     69     66    318    325 282.6  11.8  34200  290.24 0854.41
2009/04/23 16:58:12.4    -273      1     98    274    291 270.4  20.2  34200  290.24 0854.41
2009/04/23 16:58:12.5    -175    -17     34    176    180 264.3  11.1  34200  290.25 0854.41
2009/04/23 16:58:12.6    -203     72     -4    216    217 289.7  -1.1  34200  290.25 0854.41
2009/04/23 16:58:12.7    -126    119    -21    174    176 313.6  -6.9  34196  290.18 0854.41
2009/04/23 16:58:12.8     -67    -26     25     73     78 248.3  19.4  34196  290.19 0854.41
2009/04/23 16:58:12.9    -154     14    101    155    185 275.2  36.0  34198  290.21 0854.41
2009/04/23 16:58:13.0       9    136     97    137    167   4.0  38.8  34204  290.31 0854.41
2009/04/23 16:58:13.1      -1    163    162    164    230 359.5  50.0  34208  290.38 0854.41
2009/04/23 16:58:13.2      -2    192    140    193    238 359.3  39.7  34190  290.09 0854.39
2009/04/23 16:58:13.3     121     92    162    153    222  52.7  52.0  34190  290.08 0854.39
2009/04/23 16:58:13.4     169    102    113    198    227  58.7  32.1  34196  290.19 0854.39
2009/04/23 16:58:13.5     172     76     69    189    201  66.0  21.0  34202  290.28 0854.39
2009/04/23 16:58:13.6     115     39    119    122    170  70.9  49.8  34202  290.28 0854.39
2009/04/23 16:58:13.7      65     16    140     68    155  75.8  72.8  34208  290.38 0854.39
2009/04/23 16:58:13.8      40      0     94     41    102  90.0  75.5  34214  290.48 0854.39
2009/04/23 16:58:13.9      72     21    111     76    134  73.2  62.7  34206  290.35 0854.39
2009/04/23 16:58:14.0      64     17    101     67    121  74.9  63.2  34200  290.25 0854.39
2009/04/23 16:58:14.1      50     16     57     53     77  71.8  52.1  34208  290.38 0854.39
2009/04/23 16:58:14.2       8    -26     79     28     83 161.3  80.7  34208  290.38 0854.39
2009/04/23 16:58:14.3       2    -42     91     43    100 177.3  72.9  34202  290.30 0854.39
2009/04/23 16:58:14.4       0     -2     95      3     95 189.7  90.0  34208  290.40 0854.39
2009/04/23 16:58:14.5       9     -5     84     11     84 118.9  90.0  34208  290.40 0854.39
2009/04/23 16:58:14.6      15    -76    103     78    129 168.5  59.0  34194  290.16 0854.39
2009/04/23 16:58:14.7       3    -14     79     15     80 164.9  90.0  34202  290.30 0854.39
2009/04/23 16:58:14.8      44    -13     36     46     58 106.8  43.7  34194  290.14 0854.39
2009/04/23 16:58:14.9      48    -30      2     57     58 122.4   2.9  34192  290.13 0854.39
2009/04/23 16:58:15.0      27     -4     27     28     38  99.7  52.0  34196  290.18 0854.39
2009/04/23 16:58:15.1      29     10     22     31     38  70.0  37.6  34190  290.09 0854.39
2009/04/23 16:58:15.2      43     14     23     46     51  71.4  27.3  34192  290.13 0854.38
2009/04/23 16:58:15.3      35     11     45     37     58  71.4  56.3  34196  290.19 0854.38
2009/04/23 16:58:15.4       2     37     29     38     47   4.4  41.7  34192  290.13 0854.38
2009/04/23 16:58:15.5       3     69      8     70     71   2.7   6.9  34188  290.04 0854.38
2009/04/23 16:58:15.6     -18     97     13     99    100 349.3   8.0  34184  289.97 0854.38
2009/04/23 16:58:15.7     -14    146     57    147    157 354.2  22.3  34206  290.35 0854.38
2009/04/23 16:58:15.8      12    164     68    165    178   4.5  23.4  34212  290.45 0854.38
2009/04/23 16:58:15.9      86    131     83    158    178  33.4  30.1  34182  289.96 0854.38
2009/04/23 16:58:16.0      72    134    102    153    183  28.1  36.5  34152  289.45 0854.38
2009/04/23 16:58:16.1      -2    159    120    160    200 359.0  40.7  34220  290.60 0854.38
2009/04/23 16:58:16.2      13    122     91    123    153   6.2  39.7  34236  290.86 0854.38
2009/04/23 16:58:16.3       7    142    100    143    174   3.1  38.0  34204  290.33 0854.38
2009/04/23 16:58:16.4       0     83    113     84    140   0.0  60.0  34208  290.38 0854.38
2009/04/23 16:58:16.5     -11     49    142     51    150 347.5  80.2  34210  290.41 0854.38
2009/04/23 16:58:16.6     -22     88    142     91    168 345.7  64.6  34194  290.14 0854.38
2009/04/23 16:58:16.7      -6    111    137    112    176 356.9  56.4  34192  290.13 0854.38
2009/04/23 16:58:16.8     -19    161     84    163    183 353.3  29.5  34214  290.50 0854.38
2009/04/23 16:58:16.9      -3    125     37    126    132 358.2  16.3  34218  290.55 0854.38
2009/04/23 16:58:17.0      27    138     55    141    151  11.1  23.0  34206  290.36 0854.38
2009/04/23 16:58:17.1     -23    128     21    131    133 349.8   9.5  34250  291.11 0854.38
2009/04/23 16:58:17.2      15    113     45    115    123   7.6  22.5  34234  290.84 0854.34
2009/04/23 16:58:17.3     170    187     20    253    254  42.3   4.6  34224  290.66 0854.34
2009/04/23 16:58:17.4     125    184    -16    223    224  34.3  -4.1  34224  290.67 0854.34
2009/04/23 16:58:17.5     106    200     56    227    234  27.9  13.9  34214  290.50 0854.34
2009/04/23 16:58:17.6     151    134     47    203    209  48.4  13.2  34220  290.58 0854.34
2009/04/23 16:58:17.7     241    147     66    283    291  58.5  13.2  34226  290.68 0854.34
2009/04/23 16:58:17.8     241    245     58    344    349  44.5   9.7  34198  290.23 0854.34
2009/04/23 16:58:17.9     174    231      6    290    291  37.0   1.2  34202  290.27 0854.34
2009/04/23 16:58:18.0     167    195     43    257    261  40.5   9.5  34232  290.80 0854.34
2009/04/23 16:58:18.1      98    178     18    204    205  28.9   5.2  34232  290.79 0854.34
2009/04/23 16:58:18.2     142    119     56    186    195  50.0  16.8  34176  289.85 0854.34
2009/04/23 16:58:18.3     227     80     59    241    249  70.5  13.9  34184  289.97 0854.34
2009/04/23 16:58:18.4     240    109     49    264    269  65.6  10.6  34248  291.05 0854.34
2009/04/23 16:58:18.5     243    136     44    279    283  60.7   9.0  34310  292.13 0854.34
2009/04/23 16:58:18.6     242     46    -31    247    250  79.2  -7.3  34242  290.95 0854.34
2009/04/23 16:58:18.7     205     -6     -1    206    207  91.7  -0.5  34232  290.81 0854.34
2009/04/23 16:58:18.8     144     -7     -2    145    146  93.0  -1.2  34274  291.50 0854.34
2009/04/23 16:58:18.9     126    -63     90    142    168 116.6  35.5  34216  290.52 0854.34
2009/04/23 16:58:19.0     130     -1     97    131    163  90.8  40.1  34160  289.58 0854.34
2009/04/23 16:58:19.1     100     -7    125    101    160  94.4  56.9  34162  289.62 0854.34
2009/04/23 16:58:19.2     181    -31    134    184    227  99.9  39.7  34154  289.46 0854.32
2009/04/23 16:58:19.3     176    -18    113    177    209  95.9  35.6  34156  289.50 0854.32
2009/04/23 16:58:19.4     180     67    127    193    231  69.6  36.0  34170  289.74 0854.32
2009/04/23 16:58:19.5     209     31    140    212    254  81.4  36.5  34160  289.58 0854.32
2009/04/23 16:58:19.6     215     -7    147    216    261  92.1  37.4  34164  289.63 0854.32
2009/04/23 16:58:19.7     222     16    121    223    253  85.7  31.3  34190  290.09 0854.32
2009/04/23 16:58:19.8     238     18    139    239    276  85.6  32.9  34280  291.61 0854.32
2009/04/23 16:58:19.9     242      0     75    243    255  90.1  17.3  34198  290.20 0854.32
2009/04/23 16:58:20.0     257     48     -1    262    263  79.4  -0.3  34198  290.20 0854.32
2009/04/23 16:58:20.1     237    137      7    274    275  60.0   1.6  34186  290.02 0854.32
2009/04/23 16:58:20.2     171    186     47    253    258  42.5  10.6  34180  289.92 0854.32
2009/04/23 16:58:20.3     184    152     96    239    257  50.4  23.0  34166  289.68 0854.32
2009/04/23 16:58:20.4     156    156    142    221    262  45.0  35.6  34174  289.80 0854.32
2009/04/23 16:58:20.5      74    224    128    236    268  18.3  31.0  34176  289.85 0854.32
2009/04/23 16:58:20.6      95    204    116    226    254  24.9  29.3  34242  290.97 0854.32
2009/04/23 16:58:20.7     153    197    111    250    273  37.8  25.3  34268  291.41 0854.32
2009/04/23 16:58:20.8     209    147    106    256    277  54.9  23.8  34246  291.04 0854.32
2009/04/23 16:58:20.9     101    241     58    262    269  22.7  12.6  34230  290.75 0854.32
2009/04/23 16:58:21.0     106    245      8    268    269  23.4   1.7  34250  291.09 0854.32
2009/04/23 16:58:21.1     140    213    -10    256    257  33.4  -2.2  34262  291.29 0854.32
2009/04/23 16:58:21.2     249    169     47    302    306  55.8   8.9  34218  290.54 0854.31
2009/04/23 16:58:21.3     141    198     96    244    262  35.4  22.8  34204  290.32 0854.31
2009/04/23 16:58:21.4      80    168    117    187    220  25.4  35.5  34200  290.25 0854.31
2009/04/23 16:58:21.5      37    183     95    187    209  11.6  29.1  34202  290.28 0854.31
2009/04/23 16:58:21.6      34    178     79    182    198  10.9  24.9  34224  290.67 0854.31
2009/04/23 16:58:21.7       2    167    124    168    208   1.0  40.1  34250  291.11 0854.31
2009/04/23 16:58:21.8      44    219    100    224    245  11.3  25.9  34212  290.46 0854.31
2009/04/23 16:58:21.9      46    229     94    234    252  11.5  23.0  34232  290.80 0854.31
2009/04/23 16:58:22.0      61    201    148    211    257  16.9  38.6  34252  291.12 0854.31
2009/04/23 16:58:22.1      47    232    131    237    270  11.5  31.4  34218  290.56 0854.31
2009/04/23 16:58:22.2     104    212     78    237    250  26.3  18.4  34212  290.44 0854.31
2009/04/23 16:58:22.3      93    162     68    187    198  29.9  20.9  34192  290.13 0854.31
2009/04/23 16:58:22.4      89    222     27    240    242  21.9   6.5  34178  289.86 0854.31
2009/04/23 16:58:22.5      70    248     33    258    261  15.8   7.5  34168  289.70 0854.31
2009/04/23 16:58:22.6      86    237     25    253    255  20.0   5.7  34172  289.76 0854.31
2009/04/23 16:58:22.7      59    203     27    212    214  16.3   7.5  34176  289.85 0854.31
2009/04/23 16:58:22.8      52    130      6    141    142  21.8   2.8  34174  289.82 0854.31
2009/04/23 16:58:22.9      43    131    -22    138    140  18.3  -9.3  34174  289.80 0854.31
2009/04/23 16:58:23.0      33    129    -26    134    137  14.3 -11.3  34178  289.89 0854.31
2009/04/23 16:58:23.1      -9    145      7    146    147 356.4   2.9  34176  289.84 0854.31
2009/04/23 16:58:23.2      -3    147     54    148    157 358.6  21.0  34178  289.89 0854.33
2009/04/23 16:58:23.3      13    116     47    117    126   6.7  23.0  34186  290.02 0854.33
2009/04/23 16:58:23.4      17    125     12    127    128   8.0   5.4  34202  290.30 0854.33
2009/04/23 16:58:23.5      -1    115     -6    116    117 359.1  -3.1  34212  290.45 0854.33
2009/04/23 16:58:23.6      11     95      7     96     97   6.7   4.4  34208  290.40 0854.33
2009/04/23 16:58:23.7      21     64     42     68     79  18.5  35.0  34214  290.50 0854.33
2009/04/23 16:58:23.8      56    120     31    133    137  24.9  13.2  34212  290.47 0854.33
2009/04/23 16:58:23.9       0    142     28    143    146   0.0  11.1  34216  290.53 0854.33
2009/04/23 16:58:24.0     -25    128     50    131    140 348.9  21.5  34224  290.67 0854.33
2009/04/23 16:58:24.1     -41    110     58    118    131 339.5  27.8  34226  290.70 0854.33
2009/04/23 16:58:24.2     -73     84     64    112    128 319.0  32.4  34228  290.72 0854.33
2009/04/23 16:58:24.3     -71    101     53    124    134 324.8  24.6  34244  291.01 0854.33
2009/04/23 16:58:24.4    -119     30      9    123    124 284.2   4.4  34260  291.28 0854.33
2009/04/23 16:58:24.5    -135     15      0    136    137 276.6  -0.3  34276  291.55 0854.33
2009/04/23 16:58:24.6     -82     51    -12     97     98 302.0  -7.3  34266  291.37 0854.33
2009/04/23 16:58:24.7      -7     85    -44     86     96 354.7 -33.7  34246  291.03 0854.33
2009/04/23 16:58:24.8     -22    109     -1    112    113 348.4  -0.7  34254  291.16 0854.33
2009/04/23 16:58:24.9      27     87     15     92     94  17.4   9.5  34242  290.98 0854.33
2009/04/23 16:58:25.0     -12    108     -3    109    110 353.3  -1.8  34230  290.77 0854.33
2009/04/23 16:58:25.1      26     64     33     70     77  21.9  27.1  34238  290.89 0854.33
2009/04/23 16:58:25.2      16     90     39     92     99  10.2  24.1  34244  290.99 0854.28
2009/04/23 16:58:25.3      -1     77     39     78     87 359.1  28.2  34254  291.16 0854.28
2009/04/23 16:58:25.4     -25     90    -52     94    107 344.0 -35.8  34248  291.08 0854.28
2009/04/23 16:58:25.5     -32     96    -64    102    120 341.7 -39.9  34240  290.94 0854.28
2009/04/23 16:58:25.6    -105     65    -41    124    131 302.0 -18.7  34232  290.81 0854.28
2009/04/23 16:58:25.8     -99     63    -57    118    131 302.4 -31.7  34232  290.81 0854.28
2009/04/23 16:58:25.8    -112     57    -69    126    143 297.1 -35.8  34224  290.67 0854.28
2009/04/23 16:58:25.9    -112     46    -73    122    142 292.6 -37.9  34236  290.87 0854.28
2009/04/23 16:58:26.0     -99    -26    -69    103    123 254.9 -41.4  34246  291.04 0854.28
2009/04/23 16:58:26.2     -62    -21    -64     66     91 251.4 -54.4  34242  290.98 0854.28
2009/04/23 16:58:26.3     -43    -33    -54     55     77 232.2 -55.5  34246  291.03 0854.28
2009/04/23 16:58:26.4     -23    -23    -35     33     48 225.0 -54.5  34254  291.16 0854.28
2009/04/23 16:58:26.5     -33    -39     -6     52     53 220.5  -7.2  34248  291.06 0854.28
2009/04/23 16:58:26.6     -45    -48     23     66     71 223.2  19.4  34246  291.03 0854.28
2009/04/23 16:58:26.7     -32     -8     43     34     54 254.9  57.5  34248  291.08 0854.28
2009/04/23 16:58:26.8     -50     16     52     53     74 287.7  51.1  34256  291.20 0854.28
2009/04/23 16:58:26.9     -76    -54     65     94    114 234.9  37.6  34264  291.33 0854.28
2009/04/23 16:58:27.0     -67    -22     72     71    101 251.8  50.1  34258  291.25 0854.28
2009/04/23 16:58:27.1     -57    -25     54     63     82 246.5  45.4  34258  291.25 0854.28
2009/04/23 16:58:27.2     -39     13     44     42     60 288.4  51.2  34252  291.15 0854.28
2009/04/23 16:58:27.3     -37    -25     37     45     58 235.8  43.8  34264  291.35 0854.27
2009/04/23 16:58:27.4     -55    -27     49     62     79 243.8  42.7  34266  291.38 0854.27
2009/04/23 16:58:27.5     -27    -56     68     63     92 206.3  52.2  34266  291.38 0854.27
2009/04/23 16:58:27.6     -25    -45     71     52     88 209.0  60.5  34268  291.42 0854.27
2009/04/23 16:58:27.7     -54    -24     65     60     88 245.6  52.2  34282  291.66 0854.27
2009/04/23 16:58:27.8     -76    -47     74     90    116 238.0  43.7  34280  291.60 0854.27
2009/04/23 16:58:27.9     -60    -59     67     85    108 225.6  43.3  34284  291.67 0854.27
2009/04/23 16:58:28.0     -84    -95     68    128    144 221.5  30.8  34286  291.72 0854.27
2009/04/23 16:58:28.1     -85   -113     82    142    163 217.0  32.9  34288  291.74 0854.27
2009/04/23 16:58:28.2     -95   -107     71    144    160 221.4  28.2  34296  291.88 0854.27
2009/04/23 16:58:28.3    -108    -92     62    143    155 229.6  25.1  34294  291.86 0854.27
2009/04/23 16:58:28.4    -125   -149     38    195    199 219.9  11.1  34268  291.42 0854.27
2009/04/23 16:58:28.5    -125   -156     47    200    206 218.7  13.2  34256  291.21 0854.27
2009/04/23 16:58:28.6     -99   -172     54    199    207 209.9  15.3  34268  291.40 0854.27
2009/04/23 16:58:28.7     -63   -143     51    157    166 203.8  18.1  34264  291.33 0854.27
2009/04/23 16:58:28.8     -11    -95     70     96    118 186.7  39.7  34256  291.20 0854.27
2009/04/23 16:58:28.9      13    -51    -30     53     60 165.7 -35.8  34240  290.92 0854.27
2009/04/23 16:58:29.0     -47    -11    -27     49     55 256.7 -36.8  34238  290.89 0854.27
2009/04/23 16:58:29.1    -154    -76      3    173    174 243.6   1.0  34242  290.96 0854.27
2009/04/23 16:58:29.2    -144    -81     15    166    167 240.7   5.4  34244  290.99 0854.27
2009/04/23 16:58:29.3    -127    -74     35    148    153 239.8  13.2  34238  290.91 0854.26
2009/04/23 16:58:29.4    -132    -78     46    154    161 239.3  16.6  34264  291.35 0854.26
2009/04/23 16:58:29.5    -117    -93     46    150    157 231.4  17.1  34256  291.20 0854.26
2009/04/23 16:58:29.6    -115   -108     58    158    168 226.9  21.0  34258  291.23 0854.26
2009/04/23 16:58:29.7     -83   -108     90    137    163 217.8  36.3  34256  291.20 0854.26
2009/04/23 16:58:29.8    -103   -103     72    146    162 225.1  28.2  34266  291.37 0854.26
2009/04/23 16:58:29.9    -106    -67     35    126    131 237.5  15.8  34288  291.76 0854.26
2009/04/23 16:58:30.0     -65    -76     46    101    110 220.5  26.6  34272  291.47 0854.26
2009/04/23 16:58:30.1     -41    -83     48     93    104 206.3  29.8  34270  291.43 0854.26
2009/04/23 16:58:30.2     -25    -78     78     82    113 197.8  49.0  34286  291.71 0854.26
2009/04/23 16:58:30.3      -6    -86     65     87    108 184.5  40.7  34288  291.76 0854.26
2009/04/23 16:58:30.4     -29    -95     68    100    120 196.9  37.6  34288  291.74 0854.26
2009/04/23 16:58:30.5    -104   -148     96    182    205 215.2  29.8  34266  291.38 0854.26
2009/04/23 16:58:30.6    -151   -132     95    201    222 228.7  27.1  34290  291.79 0854.26
2009/04/23 16:58:30.7     -81   -121    119    146    188 213.8  43.7  34268  291.42 0854.26
2009/04/23 16:58:30.8    -132    -67     60    149    160 243.0  23.0  34278  291.59 0854.26
2009/04/23 16:58:30.9     -92    -42     22    102    105 245.6  12.6  34264  291.33 0854.26
2009/04/23 16:58:31.0      13    -90     37     92     99 171.5  23.0  34266  291.37 0854.26
2009/04/23 16:58:31.1      35    -76     -8     84     85 155.1  -5.6  34276  291.54 0854.26
2009/04/23 16:58:31.2      44    -60      5     75     76 143.9   3.8  34280  291.60 0854.26
2009/04/23 16:58:31.3      36    -46     16     59     62 142.2  15.3  34288  291.76 0854.25
2009/04/23 16:58:31.4       4    -23     21     24     31 170.2  45.8  34302  292.00 0854.25
2009/04/23 16:58:31.5      -4    -12     21     13     24 198.3  64.7  34318  292.25 0854.25
2009/04/23 16:58:31.6     -20    -17      4     27     28 228.7   9.0  34308  292.10 0854.25
2009/04/23 16:58:31.7     -17    -63     22     66     70 195.1  18.9  34268  291.42 0854.25
2009/04/23 16:58:31.8    -102    -79     62    130    144 232.2  27.3  34266  291.38 0854.25
2009/04/23 16:58:31.9    -119    -76     56    142    152 237.6  23.0  34268  291.40 0854.25
2009/04/23 16:58:32.0    -132      6     28    133    137 272.6  12.2  34274  291.52 0854.25
2009/04/23 16:58:32.1    -110     34     50    116    126 287.3  25.1  34292  291.83 0854.25
2009/04/23 16:58:32.2    -166    -29      9    169    170 259.9   3.3  34274  291.52 0854.25
2009/04/23 16:58:32.3    -147     -7     -8    148    149 267.0  -3.1  34268  291.40 0854.25
2009/04/23 16:58:32.4    -106    -35    -31    112    117 251.4 -15.4  34266  291.37 0854.25
2009/04/23 16:58:32.5     -96    -24    -31    100    104 255.8 -22.8  34266  291.38 0854.25
2009/04/23 16:58:32.6     -97    -32    -25    103    107 251.8 -13.9  34236  290.87 0854.25
2009/04/23 16:58:32.7     -16      5    -64     17     66 288.2 -89.3  34252  291.13 0854.25
2009/04/23 16:58:32.8     -46     10    -48     48     67 282.4 -54.5  34258  291.25 0854.25
2009/04/23 16:58:32.9    -106    -21    -33    109    115 258.5 -17.0  34254  291.18 0854.25
2009/04/23 16:58:33.0    -180    -81    -77    198    212 245.8 -26.7  34226  290.70 0854.25
2009/04/23 16:58:33.1    -287    -44   -140    291    322 261.2 -31.8  34204  290.32 0854.25
2009/04/23 16:58:33.2    -286    -67    -21    294    295 256.7  -4.1  34196  290.19 0854.25
2009/04/23 16:58:33.3    -310    -98    -80    326    336 252.5 -13.8  34182  289.94 0854.24
2009/04/23 16:58:33.4    -296   -186    -44    350    353 237.9  -7.3  34226  290.69 0854.24
2009/04/23 16:58:33.5    -234   -207    -48    313    317 228.6  -8.8  34236  290.85 0854.24
2009/04/23 16:58:33.6    -240   -304    -61    388    393 218.4  -9.0  34224  290.66 0854.24
2009/04/23 16:58:33.7    -255   -173   -104    309    327 235.9 -18.7  34166  289.66 0854.24
2009/04/23 16:58:33.8    -162   -222    -42    275    279 216.1  -8.8  34178  289.88 0854.24
2009/04/23 16:58:33.9     -51   -223     36    229    232 192.9   9.0  34228  290.72 0854.24
2009/04/23 16:58:34.0      -7   -181     64    182    194 182.2  19.6  34254  291.18 0854.24
2009/04/23 16:58:34.1      36   -227    120    230    259 170.9  29.8  34250  291.10 0854.24
2009/04/23 16:58:34.2       8   -276     92    277    292 178.2  18.4  34246  291.02 0854.24
2009/04/23 16:58:34.3      45   -222    123    227    258 168.4  31.0  34250  291.10 0854.26
2009/04/23 16:58:34.4     -26   -212     64    214    224 187.1  16.8  34224  290.67 0854.26
2009/04/23 16:58:34.5     117   -310    119    332    352 159.3  20.6  34204  290.32 0854.26
2009/04/23 16:58:34.6      95   -389    133    401    423 166.2  18.5  34228  290.73 0854.26
2009/04/23 16:58:34.7      71   -374    132    381    404 169.1  19.2  34234  290.83 0854.26
2009/04/23 16:58:34.8      17   -310    106    311    329 176.9  18.8  34238  290.88 0854.26
2009/04/23 16:58:34.9     -22   -287    193    288    346 184.4  36.9  34230  290.76 0854.26
2009/04/23 16:58:35.0     -10   -295    215    296    365 182.0  39.7  34226  290.69 0854.26
2009/04/23 16:58:35.1       4   -279    237    280    366 179.1  44.5  34228  290.72 0854.26
2009/04/23 16:58:35.2      15   -304    253    305    396 177.1  43.8  34202  290.30 0854.26
2009/04/23 16:58:35.3      10   -327    250    328    412 178.1  41.2  34172  289.79 0854.26
2009/04/23 16:58:35.4      23   -330    255    331    417 175.9  41.5  34170  289.74 0854.26
2009/04/23 16:58:35.5     -22   -335    210    336    396 183.8  35.0  34178  289.87 0854.26
2009/04/23 16:58:35.6     -60   -310    210    316    379 191.1  36.7  34198  290.20 0854.26
2009/04/23 16:58:35.7     -64   -274    167    282    327 193.1  33.5  34192  290.10 0854.26
2009/04/23 16:58:35.8     -80   -285    130    297    324 195.8  25.2  34190  290.09 0854.26
2009/04/23 16:58:35.9     -42   -240    115    244    269 190.0  27.1  34192  290.10 0854.26
2009/04/23 16:58:36.0      38   -224    121    228    258 170.4  30.3  34200  290.26 0854.26
2009/04/23 16:58:36.1      24   -114    205    117    236 168.0  67.7  34218  290.55 0854.26
2009/04/23 16:58:36.2      29   -312    203    314    373 174.7  35.7  34198  290.20 0854.26
2009/04/23 16:58:36.3      25   -320    231    322    396 175.5  39.2  34194  290.15 0854.27
2009/04/23 16:58:36.4      23   -358    189    359    405 176.3  30.1  34194  290.16 0854.27
2009/04/23 16:58:36.5       3   -200    216    201    295 179.0  52.2  34202  290.27 0854.27
2009/04/23 16:58:36.6      65   -120    158    137    209 151.5  54.8  34214  290.48 0854.27
2009/04/23 16:58:36.7      50   -213    161    219    271 166.7  39.7  34204  290.32 0854.27
2009/04/23 16:58:36.8     -69   -241    217    251    331 196.0  45.4  34210  290.42 0854.27
2009/04/23 16:58:36.9       3   -248    235    249    342 179.1  48.2  34200  290.26 0854.27
2009/04/23 16:58:37.0       8   -291    199    292    353 178.4  37.6  34184  289.99 0854.27
2009/04/23 16:58:37.1     -35   -284    203    287    351 187.2  38.7  34188  290.04 0854.27
2009/04/23 16:58:37.2     -16   -252    160    253    299 183.8  35.5  34196  290.17 0854.27
2009/04/23 16:58:37.3      20   -241    177    242    299 175.1  39.7  34198  290.20 0854.27
2009/04/23 16:58:37.4      17   -226    193    227    297 175.5  44.8  34202  290.29 0854.27
2009/04/23 16:58:37.5     -21   -255    186    256    316 184.9  39.7  34204  290.31 0854.27
2009/04/23 16:58:37.6     -83   -233    179    248    305 199.6  39.5  34202  290.29 0854.27
2009/04/23 16:58:37.7     -74   -314    233    323    398 193.4  39.3  34198  290.21 0854.27
2009/04/23 16:58:37.8     -88   -295    127    309    334 196.7  23.7  34200  290.24 0854.27
2009/04/23 16:58:37.9     -67   -259    120    268    293 194.5  25.9  34218  290.54 0854.27
2009/04/23 16:58:38.0     -22   -187    162    189    248 186.9  44.8  34228  290.74 0854.27
2009/04/23 16:58:38.1     -12   -202    158    203    257 183.4  41.7  34242  290.97 0854.27
2009/04/23 16:58:38.2     -41   -172    151    177    232 193.6  44.8  34248  291.06 0854.27
2009/04/23 16:58:38.3     -40   -170    162    175    238 193.4  47.9  34242  290.96 0854.26
2009/04/23 16:58:38.4     -38   -141    164    147    220 195.2  53.5  34238  290.91 0854.26
2009/04/23 16:58:38.5      19    -94    130     96    161 168.4  59.8  34234  290.84 0854.26
2009/04/23 16:58:38.6      32   -167    170    171    241 168.9  50.0  34224  290.67 0854.26
2009/04/23 16:58:38.7      -2   -172    219    173    279 180.9  57.7  34246  291.04 0854.26
2009/04/23 16:58:38.8     -17   -161    213    162    267 186.2  59.2  34242  290.97 0854.26
2009/04/23 16:58:38.9       6    -30    202     31    204 168.4  90.0  34212  290.47 0854.26
2009/04/23 16:58:39.0     -26     21    180     34    183 309.5  90.0  34244  291.01 0854.26
2009/04/23 16:58:39.1      24   -142    110    145    182 170.2  40.9  34182  289.96 0854.26
2009/04/23 16:58:39.2      46   -191    150    197    247 166.4  41.2  34182  289.96 0854.26
2009/04/23 16:58:39.3      16   -114    162    116    199 172.0  60.8  34198  290.23 0854.26
2009/04/23 16:58:39.4     -26   -187    239    189    304 188.0  57.5  34170  289.75 0854.26
2009/04/23 16:58:39.5      32    -39    147     51    155 140.4  81.2  34196  290.19 0854.26
2009/04/23 16:58:39.6       0    -51    155     52    163 180.9  81.0  34194  290.14 0854.26
2009/04/23 16:58:39.7     -51   -162    221    170    278 197.6  58.5  34184  289.98 0854.26
2009/04/23 16:58:39.8     -42   -172    212    178    276 193.8  55.6  34178  289.88 0854.26
2009/04/23 16:58:39.9     -19   -144    170    146    224 187.6  55.0  34180  289.92 0854.26
2009/04/23 16:58:40.0     -49   -202     90    209    227 193.8  24.9  34168  289.70 0854.26
2009/04/23 16:58:40.1     -43   -192     91    197    217 192.9  26.6  34174  289.82 0854.26
2009/04/23 16:58:40.2     -31   -152    103    156    186 191.6  36.3  34172  289.79 0854.26
2009/04/23 16:58:40.3     -33   -156    101    160    189 192.0  35.5  34178  289.87 0854.27
2009/04/23 16:58:40.4      -8   -112    107    113    155 184.4  48.7  34184  289.99 0854.27
2009/04/23 16:58:40.5     -16   -117    105    119    158 188.0  46.4  34186  290.01 0854.27
2009/04/23 16:58:40.6     -16    -61    123     64    138 195.1  70.8  34204  290.33 0854.27
2009/04/23 16:58:40.7       1    -78    121     79    144 179.1  64.6  34206  290.36 0854.27
2009/04/23 16:58:40.8     -23   -118    144    121    188 191.1  56.1  34194  290.14 0854.27
2009/04/23 16:58:40.9     -73   -176    111    191    220 202.5  32.9  34172  289.79 0854.27
2009/04/23 16:58:41.0     -50   -183    130    190    230 195.4  37.6  34172  289.77 0854.27
2009/04/23 16:58:41.1     -27   -197     94    199    220 188.0  27.1  34170  289.75 0854.27
2009/04/23 16:58:41.2     -38   -198     81    202    217 190.9  23.0  34168  289.72 0854.27
2009/04/23 16:58:41.3     -41   -150    102    156    186 195.6  36.0  34174  289.80 0854.27
2009/04/23 16:58:41.4     -32   -156     90    160    183 191.6  31.9  34176  289.85 0854.27
2009/04/23 16:58:41.5     -61   -157     93    169    192 201.4  31.4  34188  290.04 0854.27
2009/04/23 16:58:41.6     -93   -153     18    180    181 211.4   5.9  34204  290.33 0854.27
2009/04/23 16:58:41.7     -48   -176     72    183    196 195.4  22.8  34198  290.23 0854.27
2009/04/23 16:58:41.8     -23   -112    153    115    191 191.6  59.2  34218  290.55 0854.27
2009/04/23 16:58:41.9     -81   -111     87    138    163 216.1  35.5  34232  290.81 0854.27
2009/04/23 16:58:42.0    -110   -133    157    173    233 219.6  47.1  34228  290.74 0854.27
2009/04/23 16:58:42.1     -91    -87    176    127    217 226.4  60.6  34216  290.52 0854.27
2009/04/23 16:58:42.2     -96    -88    165    131    210 227.3  57.5  34212  290.45 0854.27
2009/04/23 16:58:42.3    -104   -103    124    147    192 225.2  44.3  34206  290.36 0854.29
2009/04/23 16:58:42.4     -81   -113    122    140    185 215.6  45.6  34202  290.28 0854.29
2009/04/23 16:58:42.5    -124   -143    130    190    230 221.0  37.6  34208  290.40 0854.29
2009/04/23 16:58:42.6     -69   -148    166    164    233 204.9  50.1  34226  290.70 0854.29
2009/04/23 16:58:42.7    -100   -106    129    146    194 223.3  46.2  34222  290.62 0854.29
2009/04/23 16:58:42.8     -75   -159    110    176    207 205.4  35.5  34222  290.64 0854.29
2009/04/23 16:58:42.9     -72   -156    111    173    205 204.9  35.6  34240  290.92 0854.29
2009/04/23 16:58:43.0     -93   -138     74    167    182 214.1  25.3  34268  291.42 0854.29
2009/04/23 16:58:43.1    -135    -74    112    155    191 241.2  39.5  34294  291.84 0854.29
2009/04/23 16:58:43.2     -26   -112    103    116    155 193.4  45.9  34274  291.52 0854.29
2009/04/23 16:58:43.3     -62    -87     49    107    117 215.6  26.2  34272  291.47 0854.29
2009/04/23 16:58:43.4    -119    -72     26    140    143 238.9  10.6  34276  291.55 0854.29
2009/04/23 16:58:43.5     -36     19     69     41     80 298.0  66.8  34282  291.64 0854.29
2009/04/23 16:58:43.6     -33     92     75     99    124 340.0  41.2  34296  291.88 0854.29
2009/04/23 16:58:43.7     -76     49     68     91    113 302.9  40.1  34302  291.98 0854.29
2009/04/23 16:58:43.8    -123     17     18    125    127 278.0   8.5  34282  291.64 0854.29
2009/04/23 16:58:43.9    -180    -15      5    181    182 265.0   1.8  34194  290.16 0854.29
2009/04/23 16:58:44.0    -167    -65     13    180    181 248.7   4.4  34184  289.99 0854.29
2009/04/23 16:58:44.1    -157    -51     12    166    167 252.1   4.4  34190  290.09 0854.29
2009/04/23 16:58:44.2    -121   -103    -68    160    173 229.6 -28.7  34214  290.48 0854.29
2009/04/23 16:58:44.3     -93    -83    -48    125    133 228.2 -25.9  34204  290.31 0854.29
2009/04/23 16:58:44.4       3   -170     -7    171    172 178.9  -2.6  34202  290.30 0854.29
2009/04/23 16:58:44.5     -35   -131    -12    136    137 195.1  -5.2  34202  290.28 0854.29
2009/04/23 16:58:44.6     -12   -104     12    105    106 187.1   6.9  34220  290.60 0854.29
2009/04/23 16:58:44.7     -25    -76     33     81     87 198.7  23.0  34238  290.89 0854.29
2009/04/23 16:58:44.8     -30    -64     43     72     83 205.5  34.0  34232  290.81 0854.29
2009/04/23 16:58:44.9     -39    -41     19     57     61 223.2  18.9  34232  290.81 0854.29
2009/04/23 16:58:45.0       6   -138     57    139    150 177.4  23.1  34270  291.43 0854.29
2009/04/23 16:58:45.1      11   -190     31    191    194 176.6   9.5  34264  291.35 0854.29
2009/04/23 16:58:45.2     -34   -160     83    164    183 192.0  29.1  34306  292.06 0854.29
2009/04/23 16:58:45.3     -35   -165     80    169    186 192.0  27.1  34298  291.93 0854.29
2009/04/23 16:58:45.4     -80   -163    -17    182    183 206.3  -5.4  34284  291.67 0854.29
2009/04/23 16:58:45.5     -69   -147    -19    163    165 205.3  -6.7  34274  291.50 0854.29
2009/04/23 16:58:45.6     -74   -157     61    174    185 205.2  19.4  34286  291.72 0854.29
2009/04/23 16:58:45.7     -91   -174     54    197    205 207.6  15.3  34258  291.23 0854.29
2009/04/23 16:58:45.8     -71   -179     92    193    213 201.9  27.3  34274  291.52 0854.29
2009/04/23 16:58:45.9     -84   -218    141    234    273 201.2  34.2  34248  291.07 0854.29
2009/04/23 16:58:46.0     -84   -183     71    202    215 204.7  19.4  34214  290.48 0854.29
2009/04/23 16:58:46.1    -241   -138    104    278    296 240.2  21.5  34190  290.07 0854.29
2009/04/23 16:58:46.2    -210   -223     80    307    318 223.3  14.7  34186  290.02 0854.29
2009/04/23 16:58:46.3    -199   -234     85    308    320 220.3  15.6  34200  290.26 0854.28
2009/04/23 16:58:46.4    -231   -143     99    272    289 238.2  20.9  34226  290.68 0854.28
2009/04/23 16:58:46.5    -257   -147    181    297    347 240.2  34.3  34226  290.69 0854.28
2009/04/23 16:58:46.6    -110   -173     69    206    218 212.5  18.6  34214  290.50 0854.28
2009/04/23 16:58:46.7     -45   -197    126    203    238 192.9  34.8  34216  290.53 0854.28
2009/04/23 16:58:46.8     -62   -247     95    255    272 194.3  21.3  34186  290.02 0854.28
2009/04/23 16:58:46.9     -50   -243    114    249    273 191.8  26.2  34184  289.97 0854.28
2009/04/23 16:58:47.0     -23   -224    105    226    249 186.0  27.0  34172  289.76 0854.28
2009/04/23 16:58:47.1     -32   -229    125    232    263 188.0  30.8  34174  289.80 0854.28
2009/04/23 16:58:47.2     -32   -257    104    259    279 187.1  23.0  34170  289.73 0854.28
2009/04/23 16:58:47.3     -66   -231     78    241    254 196.0  17.9  34166  289.68 0854.28
2009/04/23 16:58:47.4     -89   -235     80    252    265 200.9  17.7  34166  289.68 0854.28
2009/04/23 16:58:47.5    -110   -250     82    274    287 203.7  16.8  34186  290.00 0854.28
2009/04/23 16:58:47.6    -137   -222     94    262    278 211.7  20.7  34214  290.49 0854.28
2009/04/23 16:58:47.7    -139   -238     98    276    292 210.3  20.4  34178  289.86 0854.28
2009/04/23 16:58:47.8    -169   -219     75    277    288 217.6  15.3  34186  290.00 0854.28
2009/04/23 16:58:47.9    -164   -256    107    305    323 212.6  20.1  34184  289.98 0854.28
2009/04/23 16:58:48.0    -139   -198     84    242    257 215.1  19.2  34184  289.97 0854.28
2009/04/23 16:58:48.1    -121   -223     89    254    270 208.5  19.4  34186  290.02 0854.28
2009/04/23 16:58:48.2     -95   -249     26    267    269 201.0   5.7  34196  290.17 0854.28
2009/04/23 16:58:48.3     -32   -224     65    227    237 188.1  16.0  34190  290.07 0854.30
2009/04/23 16:58:48.4     -46   -228     68    233    243 191.5  16.3  34198  290.22 0854.30
2009/04/23 16:58:48.5     -43   -192    113    197    227 192.9  32.4  34242  290.96 0854.30
2009/04/23 16:58:48.6      -3   -194    112    195    224 180.9  32.4  34220  290.60 0854.30
2009/04/23 16:58:48.7     -23   -178     98    180    204 187.6  31.3  34222  290.62 0854.30
2009/04/23 16:58:48.8     -36   -155    123    160    201 193.3  41.6  34232  290.79 0854.30
2009/04/23 16:58:48.9     -19   -126    102    128    163 188.9  42.7  34222  290.64 0854.30
2009/04/23 16:58:49.0      26   -128     81    131    154 168.4  35.5  34194  290.16 0854.30
2009/04/23 16:58:49.1      36   -153     70    158    172 166.6  25.3  34182  289.94 0854.30
2009/04/23 16:58:49.2     -38   -170     78    175    191 192.7  25.7  34186  290.02 0854.30
2009/04/23 16:58:49.3       4   -166     53    167    176 178.4  17.7  34188  290.06 0854.30
2009/04/23 16:58:49.4     -45   -152     24    159    161 196.5   8.8  34190  290.09 0854.30
2009/04/23 16:58:49.5     -90   -139     51    166    174 213.0  17.3  34196  290.19 0854.30
2009/04/23 16:58:49.6     -81   -165      9    185    186 206.3   2.9  34198  290.23 0854.30
2009/04/23 16:58:49.7     -86   -195     10    214    215 203.8   2.8  34192  290.13 0854.30
2009/04/23 16:58:49.8      42   -269    -62    273    281 171.1 -12.9  34176  289.83 0854.30
2009/04/23 16:58:49.9      81   -205    -75    221    234 158.4 -18.9  34176  289.84 0854.30
2009/04/23 16:58:50.0      20   -186    -36    188    192 173.8 -11.1  34180  289.92 0854.30
2009/04/23 16:58:50.1      69   -167     57    181    190 157.5  17.7  34184  289.97 0854.30
2009/04/23 16:58:50.2     -24   -282    163    284    327 184.9  32.6  34230  290.75 0854.30
2009/04/23 16:58:50.3     -33   -302    197    304    362 186.3  35.9  34242  290.96 0854.29
2009/04/23 16:58:50.4    -108   -403    154    418    445 195.1  21.0  34242  290.95 0854.29
2009/04/23 16:58:50.5     -34   -313    117    315    336 186.2  21.4  34220  290.59 0854.29
2009/04/23 16:58:50.6    -143   -443     53    466    470 197.9   6.6  34202  290.27 0854.29
2009/04/23 16:58:50.7    -120   -256     77    284    295 205.2  15.2  34206  290.34 0854.29
2009/04/23 16:58:50.8     -65   -116    167    134    214 209.4  57.1  34214  290.48 0854.29
2009/04/23 16:58:50.9      -4   -120    206    121    238 182.2  67.0  34204  290.33 0854.29
2009/04/23 16:58:51.0    -182   -194     69    267    276 223.2  14.7  34198  290.22 0854.29
2009/04/23 16:58:51.1    -221   -208     88    304    317 226.8  16.1  34186  290.02 0854.29
2009/04/23 16:58:51.2    -214   -336    148    399    425 212.5  21.1  34180  289.92 0854.29
2009/04/23 16:58:51.3    -275   -294    226    403    462 223.1  31.5  34168  289.72 0854.29
2009/04/23 16:58:51.4    -246   -343    199    423    467 215.7  27.1  34170  289.75 0854.29
2009/04/23 16:58:51.5    -176   -246    218    303    373 215.6  39.5  34180  289.91 0854.29
2009/04/23 16:58:51.6    -237   -178    290    297    415 233.1  49.3  34224  290.66 0854.29
2009/04/23 16:58:51.7    -303   -200    196    364    413 236.6  30.7  34208  290.40 0854.29
2009/04/23 16:58:51.8    -298   -215    229    368    433 234.1  34.9  34214  290.50 0854.29
2009/04/23 16:58:51.9    -326   -232    -94    401    412 234.5 -13.3  34194  290.16 0854.29
2009/04/23 16:58:52.1    -408   -436      8    598    599 223.1   0.8  34186  290.02 0854.29
2009/04/23 16:58:52.2    -222   -464    -56    515    519 205.7  -6.2  34130  289.06 0854.29
2009/04/23 16:58:52.3    -118   -430    -74    447    454 195.4  -9.4  34154  289.46 0854.29
2009/04/23 16:58:52.4    -124   -522     61    537    541 193.4   6.5  34166  289.68 0854.30
2009/04/23 16:58:52.5    -279   -436      6    518    519 212.6   0.7  34142  289.27 0854.30
2009/04/23 16:58:52.6    -318   -372   -135    490    509 220.5 -15.4  34108  288.68 0854.30
2009/04/23 16:58:52.7     -27   -636    -66    637    641 182.5  -6.0  34138  289.20 0854.30
2009/04/23 16:58:52.8     -86   -565    144    572    590 188.7  14.2  34162  289.61 0854.30
2009/04/23 16:58:52.9     -74   -362    123    370    391 191.7  18.5  34180  289.91 0854.30
2009/04/23 16:58:53.0     -54   -528    130    531    547 185.9  13.8  34158  289.55 0854.30
2009/04/23 16:58:53.1     -25   -233    249    235    342 186.2  52.0  34164  289.63 0854.30
2009/04/23 16:58:53.2    -119   -367    296    386    486 198.0  41.4  34180  289.92 0854.30
2009/04/23 16:58:53.3     -80   -387    275    396    482 191.7  38.1  34188  290.04 0854.30
2009/04/23 16:58:53.4    -127   -312    184    338    384 202.2  31.3  34194  290.16 0854.30
2009/04/23 16:58:53.5    -223   -176    104    285    303 231.8  20.9  34170  289.75 0854.30
2009/04/23 16:58:53.6     -88   -172    151    194    245 207.0  42.0  34174  289.82 0854.30
2009/04/23 16:58:53.7     -78   -166    157    184    241 205.2  44.9  34174  289.82 0854.30
2009/04/23 16:58:53.8    -154    -51    132    163    209 251.4  43.5  34192  290.11 0854.30
2009/04/23 16:58:53.9    -246    282    192    375    421 318.8  29.2  34190  290.09 0854.30
2009/04/23 16:58:54.0    -206    257    204    330    387 321.2  35.0  34198  290.23 0854.30
2009/04/23 16:58:54.1     -45    255    123    260    287 350.0  27.2  34192  290.10 0854.30
2009/04/23 16:58:54.2     181    119    222    217    310  56.7  50.4  34192  290.10 0854.30
2009/04/23 16:58:54.3      53    219    113    226    252  13.6  28.5  34180  289.92 0854.30
2009/04/23 16:58:54.4      42    240     71    244    255  10.0  16.3  34176  289.85 0854.32
2009/04/23 16:58:54.5     114    198     68    229    239  30.1  16.6  34170  289.75 0854.32
2009/04/23 16:58:54.6     184    238    -63    302    309  37.8 -11.8  34176  289.83 0854.32
2009/04/23 16:58:54.7     202    195     64    282    290  46.0  12.9  34206  290.36 0854.32
2009/04/23 16:58:54.8      37    344    125    347    370   6.2  19.9  34178  289.89 0854.32
2009/04/23 16:58:54.9      49    369    210    373    428   7.7  31.9  34180  289.90 0854.32
2009/04/23 16:58:55.0     211    477    296    522    600  23.9  32.3  34218  290.56 0854.32
2009/04/23 16:58:55.1      75    416    218    423    475  10.3  29.4  34234  290.82 0854.32
2009/04/23 16:58:55.2     287    486    195    565    598  30.6  19.1  34272  291.49 0854.32
2009/04/23 16:58:55.3     249    466     69    529    534  28.1   7.5  34180  289.92 0854.32
2009/04/23 16:58:55.4     254    636    321    686    757  21.8  27.0  34116  288.84 0854.32
2009/04/23 16:58:55.5     210    581    356    619    714  19.9  32.4  34098  288.53 0854.32
2009/04/23 16:58:55.6     207    490    257    533    591  22.9  27.7  34124  288.95 0854.32
2009/04/23 16:58:55.7     -58    447    278    451    529 352.6  34.6  34126  289.01 0854.32
2009/04/23 16:58:55.8    -459    496    128    677    690 317.2  10.7  34138  289.19 0854.32
2009/04/23 16:58:55.9    -223     17     35    224    227 274.6   9.0  34122  288.92 0854.32
2009/04/23 16:58:56.0    -364    217   -151    424    450 300.8 -24.8  34158  289.55 0854.32
2009/04/23 16:58:56.1     -62    390   -175    396    432 350.9 -29.6  34184  289.97 0854.32
2009/04/23 16:58:56.2     152    420   -197    447    488  20.0 -29.7  34148  289.37 0854.32
2009/04/23 16:58:56.3     127    321   -158    346    380  21.7 -30.8  34152  289.43 0854.32
2009/04/23 16:58:56.4     156    214   -148    266    304  36.1 -35.8  34124  288.95 0854.32
2009/04/23 16:58:56.5     121    190   -134    226    262  32.5 -37.9  34116  288.81 0854.32
2009/04/23 16:58:56.6     137     96   -151    168    225  55.1 -51.0  34120  288.91 0854.32
2009/04/23 16:58:56.7     143     11   -106    144    178  85.6 -44.3  34118  288.87 0854.32
2009/04/23 16:58:56.8     117    -74   -153    139    206 122.4 -57.4  34134  289.13 0854.32
2009/04/23 16:58:56.9      72      5    -86     73    112  85.7 -60.2  34104  288.64 0854.32
2009/04/23 16:58:57.0     262    203   -114    332    352  52.2 -19.0  34102  288.60 0854.32
2009/04/23 16:58:57.1     402    224    -30    461    463  60.9  -3.8  34108  288.70 0854.32
2009/04/23 16:58:57.2     373    531     95    650    657  35.1   8.3  34106  288.65 0854.32
2009/04/23 16:58:57.3     428    201     77    474    481  64.8   9.2  34106  288.66 0854.32
2009/04/23 16:58:57.4     437    110     97    451    462  75.8  12.2  34102  288.58 0854.31
2009/04/23 16:58:57.5     478   -219     25    526    527 114.6   2.8  34112  288.75 0854.31
2009/04/23 16:58:57.6     502     -5   -168    503    530  90.6 -23.6  34116  288.82 0854.31
2009/04/23 16:58:57.7     517   -245   -223    573    614 115.4 -26.8  34110  288.73 0854.31
2009/04/23 16:58:57.8     414   -244    -64    481    486 120.6  -7.6  34114  288.79 0854.31
2009/04/23 16:58:57.9     147   -202     51    251    257 143.9  11.6  34130  289.05 0854.31
2009/04/23 16:58:58.0      58    -90    -30    108    113 147.0 -15.5  34128  289.04 0854.31
2009/04/23 16:58:58.1     434   -124   -143    452    475 106.0 -17.6  34104  288.61 0854.31
2009/04/23 16:58:58.2     305    -87      8    318    319 105.9   1.5  34118  288.87 0854.31
2009/04/23 16:58:58.3     514    -83    -22    521    522  99.2  -2.5  34118  288.87 0854.31
2009/04/23 16:58:58.4     511    103     78    522    528  78.6   8.6  34120  288.91 0854.31
2009/04/23 16:58:58.5     409    120     18    427    428  73.6   2.5  34114  288.80 0854.31
2009/04/23 16:58:58.6     341    289    144    448    471  49.7  17.8  34116  288.83 0854.31
2009/04/23 16:58:58.7     187    233   -120    299    322  38.7 -27.3  34116  288.81 0854.31
2009/04/23 16:58:58.8      75    214    -25    227    229  19.4  -6.5  34116  288.82 0854.31
2009/04/23 16:58:58.9     146    103    -80    179    196  54.7 -29.7  34120  288.89 0854.31
2009/04/23 16:58:59.0     125    103    -89    162    184  50.5 -35.8  34124  288.97 0854.31
2009/04/23 16:58:59.1     170    134   -100    217    238  51.8 -30.8  34122  288.92 0854.31
2009/04/23 16:58:59.2      98    117   -116    153    192  40.1 -45.6  34120  288.91 0854.31
2009/04/23 16:58:59.3     181     86    -71    201    213  64.6 -24.4  34122  288.92 0854.31
2009/04/23 16:58:59.4     203     66    -82    214    229  71.8 -26.4  34126  289.01 0854.32
2009/04/23 16:58:59.5      26    -96    -93    100    136 164.4 -52.3  34132  289.11 0854.32
2009/04/23 16:58:59.6      31   -209    -23    212    214 171.5  -6.2  34124  288.97 0854.32
2009/04/23 16:58:59.7     135   -234     24    271    273 150.1   5.2  34122  288.93 0854.32
2009/04/23 16:58:59.8     361   -104    -72    376    383 106.2 -10.9  34114  288.79 0854.32
2009/04/23 16:58:59.9     387    -54   -102    391    405  98.0 -14.6  34124  288.96 0854.32
2009/04/23 16:59:00.0     443    -70    -50    449    452  99.0  -6.5  34126  289.00 0854.32
2009/04/23 16:59:00.1     408    -75    -20    415    416 100.5  -2.8  34122  288.94 0854.32
2009/04/23 16:59:00.2     261     95    -87    278    292  70.0 -17.5  34118  288.85 0854.32
2009/04/23 16:59:00.3     307     93    -38    321    324  73.1  -6.9  34128  289.02 0854.32
2009/04/23 16:59:00.4     429     11    128    430    449  88.5  16.7  34128  289.04 0854.32
2009/04/23 16:59:00.5     414    -15    184    415    453  92.1  25.3  34124  288.95 0854.32
2009/04/23 16:59:00.6     238      3    135    239    274  89.1  31.9  34122  288.93 0854.32
2009/04/23 16:59:00.7      39      3     91     40     99  85.6  75.5  34138  289.19 0854.32
2009/04/23 16:59:00.8     -38     60     62     72     95 327.5  45.4  34138  289.21 0854.32
2009/04/23 16:59:00.9     -57     90     16    107    109 327.5   8.5  34138  289.19 0854.32
2009/04/23 16:59:01.0    -217    166    148    274    311 307.3  31.0  34154  289.47 0854.32
2009/04/23 16:59:01.1    -311    333    162    456    483 317.0  20.4  34154  289.47 0854.32
2009/04/23 16:59:01.2    -289    232    271    371    459 308.8  39.7  34184  289.99 0854.32
2009/04/23 16:59:01.3    -262    304     -8    402    403 319.2  -1.2  34192  290.13 0854.32
2009/04/23 16:59:01.4    -132    507    101    524    534 345.4  11.0  34176  289.85 0854.30
2009/04/23 16:59:01.5     -81    487     20    494    495 350.6   2.3  34184  289.98 0854.30
2009/04/23 16:59:01.6    -263    534    -23    596    597 333.7  -2.2  34188  290.05 0854.30
2009/04/23 16:59:01.7    -253    509    -53    569    572 333.5  -5.4  34162  289.61 0854.30
2009/04/23 16:59:01.8    -391    352     61    527    531 312.0   6.7  34134  289.14 0854.30
2009/04/23 16:59:01.9    -428    393    -11    582    583 312.6  -1.2  34088  288.36 0854.30
2009/04/23 16:59:02.0    -457    375    -47    592    594 309.4  -4.6  34060  287.87 0854.30
2009/04/23 16:59:02.1    -363    329     -9    491    492 312.2  -1.2  34148  289.37 0854.30
2009/04/23 16:59:02.2    -364    328    -53    490    493 312.0  -6.2  34172  289.76 0854.30
2009/04/23 16:59:02.3    -345    309    -58    464    468 311.8  -7.2  34180  289.91 0854.30
2009/04/23 16:59:02.4    -284    249   -134    378    402 311.3 -19.5  34154  289.47 0854.30
2009/04/23 16:59:02.5    -165    250    -32    300    302 326.6  -6.2  34212  290.46 0854.30
2009/04/23 16:59:02.6     150    -34     27    154    157 102.8  10.1  34222  290.62 0854.30
2009/04/23 16:59:02.7     200   -198     98    282    299 134.7  19.2  34204  290.32 0854.30
2009/04/23 16:59:02.8     182   -116    258    217    337 122.5  55.8  34188  290.03 0854.30
2009/04/23 16:59:02.9     132   -189    167    231    285 145.0  39.7  34170  289.75 0854.30
2009/04/23 16:59:03.0     205   -170     71    267    277 129.6  15.0  34170  289.73 0854.30
2009/04/23 16:59:03.1     266    -81     78    279    290 106.9  15.8  34200  290.26 0854.30
2009/04/23 16:59:03.2     453    221    131    505    522  64.0  14.6  34186  290.01 0854.30
2009/04/23 16:59:03.3     357    267     38    447    449  53.2   5.0  34150  289.39 0854.30
2009/04/23 16:59:03.4     254    366     50    446    449  34.8   6.5  34122  288.92 0854.30
2009/04/23 16:59:03.5     238    439     15    500    501  28.5   1.8  34110  288.71 0854.30
2009/04/23 16:59:03.6     248    443    112    508    521  29.3  12.5  34128  289.03 0854.30
2009/04/23 16:59:03.7     229    492    137    543    560  25.0  14.2  34194  290.14 0854.30
2009/04/23 16:59:03.8     173    453    200    486    525  21.0  23.6  34178  289.88 0854.30
2009/04/23 16:59:03.9     174    564    214    591    628  17.2  20.8  34152  289.45 0854.30
2009/04/23 16:59:04.0      -6    434    166    435    465 359.1  22.0  34144  289.29 0854.30
2009/04/23 16:59:04.1     -43    239      0    243    244 349.8   0.0  34140  289.24 0854.30
2009/04/23 16:59:04.2      71    166    -59    181    191  23.2 -18.3  34126  288.99 0854.30
2009/04/23 16:59:04.3    -244    134      3    279    280 298.8   0.8  34132  289.09 0854.30
2009/04/23 16:59:04.4    -258    101    -88    278    291 291.5 -22.9  34142  289.25 0854.30
2009/04/23 16:59:04.5    -367    152   -106    398    412 292.6 -15.0  34132  289.09 0854.30
2009/04/23 16:59:04.6    -314    208   -120    377    395 303.6 -22.8  34112  288.76 0854.30
2009/04/23 16:59:04.7    -361    121    -66    381    387 288.6  -9.9  34066  287.98 0854.30
2009/04/23 16:59:04.8    -512    189   -172    546    573 290.3 -17.5  34062  287.92 0854.30
2009/04/23 16:59:04.9    -499    245   -176    557    584 296.2 -22.8  34062  287.90 0854.30
2009/04/23 16:59:05.0    -217    184   -213    285    355 310.4 -45.0  34078  288.18 0854.30
2009/04/23 16:59:05.1    -212    359   -243    418    483 329.4 -37.3  34072  288.09 0854.30
2009/04/23 16:59:05.2    -529    129   -126    545    560 283.8 -13.0  34096  288.50 0854.30
2009/04/23 16:59:05.3    -349     64     10    355    356 280.5   1.7  34104  288.62 0854.30
2009/04/23 16:59:05.4    -266     31    165    268    314 276.8  34.4  34148  289.36 0854.30
2009/04/23 16:59:05.5    -291    116    124    314    337 291.7  22.8  34136  289.16 0854.30
2009/04/23 16:59:05.6    -260    279     28    382    383 317.0   4.2  34134  289.13 0854.30
2009/04/23 16:59:05.7    -264    263    -14    373    374 314.9  -2.2  34116  288.84 0854.30
2009/04/23 16:59:05.8    -410    279     -2    497    498 304.3  -0.3  34122  288.93 0854.30
2009/04/23 16:59:05.9    -251    362     13    441    442 325.2   1.8  34116  288.82 0854.30
2009/04/23 16:59:06.0    -352    221    116    416    432 302.1  15.6  34118  288.87 0854.30
2009/04/23 16:59:06.1    -283    255    204    382    433 312.0  30.3  34162  289.61 0854.30
2009/04/23 16:59:06.2    -236    302    134    384    406 322.0  20.0  34158  289.54 0854.30
2009/04/23 16:59:06.3    -169    281    199    328    383 329.0  34.2  34166  289.67 0854.30
2009/04/23 16:59:06.4    -147    255    140    295    326 330.1  27.1  34158  289.53 0854.30
2009/04/23 16:59:06.5    -146    201     63    249    257 323.9  14.3  34144  289.29 0854.30
2009/04/23 16:59:06.6     -78    226     18    240    241 340.8   4.4  34156  289.51 0854.30
2009/04/23 16:59:06.7     136    398    -53    421    425  19.0  -7.2  34212  290.46 0854.30
2009/04/23 16:59:06.8      46    413    -13    416    417   6.5  -1.8  34190  290.09 0854.30
2009/04/23 16:59:06.9      92    454    -25    464    465  11.6  -3.1  34142  289.25 0854.30
2009/04/23 16:59:07.0     -56    359     15    364    365 351.1   2.4  34164  289.64 0854.30
2009/04/23 16:59:07.1    -114    321    121    341    362 340.4  19.6  34140  289.23 0854.30
2009/04/23 16:59:07.2    -162    261    220    308    378 328.3  39.1  34166  289.67 0854.30
2009/04/23 16:59:07.3     -73    200    143    214    257 340.0  36.7  34170  289.73 0854.30
2009/04/23 16:59:07.4     -74    206    194    219    292 340.2  46.2  34168  289.70 0854.28
2009/04/23 16:59:07.5     -29    172     34    175    179 350.4  11.1  34178  289.89 0854.28
2009/04/23 16:59:07.6     -91    136     44    164    170 326.2  15.2  34182  289.94 0854.28
2009/04/23 16:59:07.7     -88     51    134    102    168 300.2  59.0  34190  290.09 0854.28
2009/04/23 16:59:07.8    -104     40    171    112    204 291.3  64.1  34180  289.92 0854.28
2009/04/23 16:59:07.9    -153     -4    197    154    250 268.3  58.2  34184  289.97 0854.28
2009/04/23 16:59:08.0    -102      6    225    103    247 273.5  74.0  34196  290.18 0854.28
2009/04/23 16:59:08.1       2      4    215      5    215  32.5  90.0  34214  290.48 0854.28
2009/04/23 16:59:08.2      35      2    196     36    199  85.7  90.0  34220  290.58 0854.28
2009/04/23 16:59:08.3    -105     37    252    112    275 289.5  74.8  34250  291.09 0854.28
2009/04/23 16:59:08.4      39     24    115     46    123  58.5  77.1  34250  291.09 0854.28
2009/04/23 16:59:08.5    -139     49     18    148    150 289.5   7.1  34230  290.75 0854.28
2009/04/23 16:59:08.6      -8    175    285    176    334 357.1  65.4  34224  290.65 0854.28
2009/04/23 16:59:08.7     522    283    203    594    628  61.5  18.9  34264  291.35 0854.28
2009/04/23 16:59:08.8     221    424    203    479    520  27.5  24.5  34162  289.61 0854.28
2009/04/23 16:59:08.9     353    388    229    525    572  42.3  25.1  34130  289.07 0854.28
2009/04/23 16:59:09.0     205    337    303    395    497  31.3  41.3  34156  289.52 0854.28
2009/04/23 16:59:09.1     149    136    246    203    318  47.6  56.4  34178  289.88 0854.28
2009/04/23 16:59:09.2     121    116    223    169    279  46.2  59.0  34216  290.51 0854.28
2009/04/23 16:59:09.3     105    305     97    323    338  19.1  16.7  34100  288.57 0854.28
2009/04/23 16:59:09.4     309    381    -10    491    492  39.1  -1.3  34208  290.39 0854.28
2009/04/23 16:59:09.5     257    238     95    351    364  47.2  15.1  34188  290.03 0854.28
2009/04/23 16:59:09.6     349    156     97    383    396  65.9  14.3  34230  290.76 0854.28
2009/04/23 16:59:09.7     414    121     28    432    433  73.6   3.8  34218  290.56 0854.28
2009/04/23 16:59:09.8     357    109     96    374    387  72.9  14.4  34222  290.64 0854.28
2009/04/23 16:59:09.9     376    178     21    417    418  64.6   3.0  34218  290.55 0854.28
2009/04/23 16:59:10.0     409    186     79    450    458  65.5  10.0  34224  290.65 0854.28
2009/04/23 16:59:10.1     390     98    111    403    419  75.8  15.4  34196  290.17 0854.28
2009/04/23 16:59:10.2     327     74     25    336    337  77.1   4.3  34202  290.28 0854.28
2009/04/23 16:59:10.3     324    113     68    344    351  70.8  11.3  34212  290.47 0854.28
2009/04/23 16:59:10.4     368    143     -8    396    397  68.7  -1.2  34216  290.52 0854.28
2009/04/23 16:59:10.5     387     51     35    391    393  82.4   5.2  34272  291.49 0854.28
2009/04/23 16:59:10.6     359     28    151    361    391  85.5  24.1  34296  291.88 0854.28
2009/04/23 16:59:10.7     343     46    208    347    404  82.3  33.7  34312  292.14 0854.28
2009/04/23 16:59:10.8     313    116     84    335    346  69.6  14.2  34262  291.32 0854.28
2009/04/23 16:59:10.9     170     80     91    188    208  64.8  27.4  34280  291.60 0854.28
2009/04/23 16:59:11.0     171    -56    124    181    219 108.2  37.6  34240  290.94 0854.28
2009/04/23 16:59:11.1      71     69    147    100    177  46.0  62.6  34250  291.09 0854.28
2009/04/23 16:59:11.2    -151     67     53    166    175 294.0  17.7  34262  291.30 0854.28
2009/04/23 16:59:11.3    -201    -47     10    207    208 256.7   2.9  34250  291.11 0854.28
2009/04/23 16:59:11.4    -222     11     -4    223    224 273.0  -1.2  34242  290.98 0854.27
2009/04/23 16:59:11.5      26    -83   -127     88    154 162.2 -67.0  34224  290.67 0854.27
2009/04/23 16:59:11.6       1   -117    -69    118    136 179.1 -37.8  34170  289.74 0854.27
2009/04/23 16:59:11.7      74   -142   -153    161    222 152.4 -52.9  34192  290.13 0854.27
2009/04/23 16:59:11.8     -60   -102    -57    119    131 210.3 -31.7  34202  290.30 0854.27
2009/04/23 16:59:11.9    -278   -138    121    311    333 243.6  22.5  34216  290.51 0854.27
2009/04/23 16:59:12.0    -182    -52    -43    190    195 253.8 -12.9  34168  289.70 0854.27
2009/04/23 16:59:12.1     -69    159    -62    174    185 336.6 -19.7  34242  290.96 0854.27
2009/04/23 16:59:12.2     -66     96     93    117    149 325.3  43.3  34258  291.25 0854.27
2009/04/23 16:59:12.3    -188     49     92    195    215 284.6  27.1  34192  290.13 0854.27
2009/04/23 16:59:12.4    -179     48    130    186    226 285.1  38.4  34176  289.84 0854.27
2009/04/23 16:59:12.5    -151    286    125    324    347 332.1  22.2  34226  290.69 0854.27
2009/04/23 16:59:12.6     -97    310    126    325    348 342.6  22.3  34238  290.89 0854.27
2009/04/23 16:59:12.7    -194    226     37    299    302 319.4   7.1  34182  289.95 0854.27
2009/04/23 16:59:12.8    -170    346   -123    386    406 333.8 -17.7  34194  290.16 0854.27
2009/04/23 16:59:12.9    -171    334    133    376    398 332.9  20.2  34212  290.47 0854.27
2009/04/23 16:59:13.0    -181    486    116    519    532 339.5  12.6  34170  289.74 0854.27
2009/04/23 16:59:13.1    -167    344   -115    383    399 334.0 -21.7  34152  289.45 0854.27
2009/04/23 16:59:13.2     165    340     62    378    384  25.9   9.4  34178  289.89 0854.27
2009/04/23 16:59:13.3     226    284      0    363    364  38.5   0.1  34148  289.38 0854.27
2009/04/23 16:59:13.4      61    -57     86     84    120 133.1  50.1  34142  289.26 0854.29
2009/04/23 16:59:13.5    -155   -122    -64    198    209 231.8 -17.9  34156  289.50 0854.29
2009/04/23 16:59:13.6    -284   -322   -181    430    466 221.4 -28.6  34136  289.16 0854.29
2009/04/23 16:59:13.7    -277   -235   -236    364    433 229.7 -40.4  34114  288.80 0854.29
2009/04/23 16:59:13.8    -533   -171   -288    560    629 252.2 -33.8  34152  289.44 0854.29
2009/04/23 16:59:13.9    -496   -144   -155    517    539 253.8 -21.7  34182  289.96 0854.29
2009/04/23 16:59:14.0    -435    165   -213    466    512 290.8 -30.6  34156  289.50 0854.29
2009/04/23 16:59:14.1    -329    329   -262    466    534 315.0 -36.3  34136  289.17 0854.29
2009/04/23 16:59:14.2      28    525   -220    526    570   3.1 -28.5  34140  289.23 0854.29
2009/04/23 16:59:14.3    -179    594   -103    621    630 343.2  -9.5  34110  288.74 0854.29
2009/04/23 16:59:14.4    -114    632   -108    643    653 349.8  -9.6  34122  288.93 0854.29
2009/04/23 16:59:14.5     -45    583    -62    585    589 355.5  -6.1  34128  289.02 0854.29
2009/04/23 16:59:14.6      78    344     20    353    354  12.8   3.2  34128  289.04 0854.29
2009/04/23 16:59:14.7     301    204    182    364    406  55.9  28.5  34130  289.08 0854.29
2009/04/23 16:59:14.8     290    189    230    347    416  56.8  36.6  34138  289.21 0854.29
2009/04/23 16:59:14.9     381    282    297    475    560  53.5  35.0  34126  288.99 0854.29
2009/04/23 16:59:15.0     423    106    320    437    541  75.9  39.7  34144  289.30 0854.29
2009/04/23 16:59:15.1     379     55    255    384    460  81.6  36.6  34154  289.46 0854.29
2009/04/23 16:59:15.2     316    127    236    341    414  68.0  38.0  34136  289.18 0854.29
2009/04/23 16:59:15.3     336    245    244    416    482  53.9  33.1  34126  289.00 0854.29
2009/04/23 16:59:15.4     278    256     74    379    387  47.3  11.1  34138  289.20 0854.32
2009/04/23 16:59:15.5     303    171     59    349    355  60.5   9.7  34136  289.18 0854.32
2009/04/23 16:59:15.6     284     76    141    295    326  75.0  27.3  34122  288.93 0854.32
2009/04/23 16:59:15.7     252     19     79    253    266  85.7  17.4  34128  289.02 0854.32
2009/04/23 16:59:15.8     323     87     98    335    350  74.9  16.3  34122  288.93 0854.32
2009/04/23 16:59:15.9     304     71      3    313    314  76.7   0.7  34128  289.02 0854.32
2009/04/23 16:59:16.0     524    340     16    625    626  57.0   1.5  34104  288.62 0854.32
2009/04/23 16:59:16.1     327    332    132    467    486  44.5  15.8  34112  288.76 0854.32
2009/04/23 16:59:16.2     299    245     75    387    395  50.7  11.0  34088  288.35 0854.32
2009/04/23 16:59:16.3      32    273     23    275    277   6.7   4.9  34178  289.88 0854.32
2009/04/23 16:59:16.4      72    305    -24    314    316  13.4  -4.5  34166  289.66 0854.33
2009/04/23 16:59:16.5     400    162    -54    432    436  67.9  -7.2  34112  288.75 0854.33
2009/04/23 16:59:16.6     439    226     82    494    501  62.7   9.5  34130  289.05 0854.33
2009/04/23 16:59:16.7     458      0    156    459    486  89.9  18.8  34146  289.34 0854.33
2009/04/23 16:59:16.8     433   -111    312    448    545 104.4  38.3  34152  289.45 0854.33
2009/04/23 16:59:16.9     256    -31    401    258    476  97.0  64.4  34150  289.41 0854.33
2009/04/23 16:59:17.0     -68     37    274     78    284 298.8  83.9  34180  289.90 0854.33
2009/04/23 16:59:17.1     -24     -9    297     26    298 248.3  90.0  34196  290.19 0854.33
2009/04/23 16:59:17.2    -133    -21    197    135    238 260.8  62.4  34188  290.06 0854.33
2009/04/23 16:59:17.3       3     27    144     28    146   8.0  89.1  34176  289.85 0854.33
2009/04/23 16:59:17.4      81    176    329    194    381  24.7  66.8  34128  289.03 0854.33
2009/04/23 16:59:17.5     286    465    375    547    663  31.6  37.7  34116  288.82 0854.33
2009/04/23 16:59:17.6     303    532    239    613    657  29.7  22.5  34152  289.45 0854.33
2009/04/23 16:59:17.7    -133    436    281    457    536 343.0  34.6  34206  290.34 0854.33
2009/04/23 16:59:17.8     -19    754    296    755    810 358.5  22.5  34174  289.81 0854.33
2009/04/23 16:59:18.0     305    433    267    530    593  35.2  28.8  34168  289.71 0854.33
2009/04/23 16:59:18.1     114    558    209    570    607  11.6  21.0  34178  289.86 0854.33
2009/04/23 16:59:18.1      29    546    117    547    560   3.1  12.1  34162  289.60 0854.33
2009/04/23 16:59:18.2     261    538    174    598    623  25.9  16.3  34134  289.13 0854.33
2009/04/23 16:59:18.4     286    370    281    468    545  37.8  34.0  34150  289.40 0854.33
2009/04/23 16:59:18.4     123    192    204    229    306  32.6  46.2  34158  289.54 0854.35
2009/04/23 16:59:18.6     308    301    272    431    509  45.7  35.3  34172  289.76 0854.35
2009/04/23 16:59:18.7     145    382    222    409    465  20.9  30.9  34178  289.87 0854.35
2009/04/23 16:59:18.8     336    171    249    377    451  63.0  36.5  34154  289.48 0854.35
2009/04/23 16:59:18.9     353     97    381    367    529  74.6  51.2  34144  289.30 0854.35
2009/04/23 16:59:19.0     241      7    326    242    406  88.1  59.8  34150  289.40 0854.35
2009/04/23 16:59:19.1     321     14    235    322    398  87.5  39.7  34136  289.16 0854.35
2009/04/23 16:59:19.2     375    -38    277    377    467  95.9  39.9  34150  289.39 0854.35
2009/04/23 16:59:19.3     227    -72     96    239    257 107.7  23.0  34146  289.34 0854.35
2009/04/23 16:59:19.4      -8   -135    203    136    244 183.6  63.4  34168  289.72 0854.35
2009/04/23 16:59:19.5     -79     59    143     99    173 306.9  62.4  34170  289.75 0854.35
2009/04/23 16:59:19.6     -38     74    144     84    166 332.4  67.2  34170  289.74 0854.35
2009/04/23 16:59:19.7     188    235    103    302    320  38.7  18.9  34172  289.76 0854.35
2009/04/23 16:59:19.8     133    156    206    206    291  40.5  50.1  34180  289.90 0854.35
2009/04/23 16:59:19.9      46     72    146     86    169  32.5  66.8  34192  290.13 0854.35
2009/04/23 16:59:20.0     -90    134    119    162    201 326.2  39.9  34182  289.94 0854.35
2009/04/23 16:59:20.1     -61    227    151    236    280 344.9  35.6  34180  289.90 0854.35
2009/04/23 16:59:20.2    -257    -67    -69    266    275 255.4 -14.7  34170  289.75 0854.35
2009/04/23 16:59:20.3      15   -174    107    175    205 174.9  34.4  34176  289.84 0854.35
2009/04/23 16:59:20.4     -53   -194    310    202    370 195.4  64.1  34182  289.93 0854.35
2009/04/23 16:59:20.5    -268   -234    259    357    441 228.9  39.7  34128  289.02 0854.35
2009/04/23 16:59:20.6    -233   -206    155    312    348 228.6  28.2  34146  289.33 0854.35
2009/04/23 16:59:20.7    -142   -247    234    285    368 209.9  43.7  34176  289.84 0854.35
2009/04/23 16:59:20.8    -125    -29    248    129    279 256.7  70.8  34202  290.29 0854.35
2009/04/23 16:59:20.9    -197     85     90    215    233 293.5  23.8  34204  290.31 0854.35
2009/04/23 16:59:21.0    -304    125     39    329    332 292.4   6.9  34202  290.27 0854.35
2009/04/23 16:59:21.1    -374     -4    128    375    397 269.3  18.9  34182  289.96 0854.35
2009/04/23 16:59:21.2    -196   -244    183    313    362 218.8  33.0  34192  290.13 0854.35
2009/04/23 16:59:21.3    -233   -125     -7    265    266 241.8  -1.6  34182  289.93 0854.35
2009/04/23 16:59:21.4    -406    -82     98    415    427 258.5  13.3  34182  289.95 0854.35
2009/04/23 16:59:21.5    -503   -110     64    516    521 257.6   7.1  34202  290.27 0854.35
2009/04/23 16:59:21.6    -374   -245    152    448    474 236.7  18.8  34178  289.89 0854.35
2009/04/23 16:59:21.7     -91   -281    135    296    325 197.9  26.3  34150  289.41 0854.35
2009/04/23 16:59:21.8    -149   -256    100    297    314 210.3  18.6  34166  289.66 0854.35
2009/04/23 16:59:21.9     -96   -241    103    260    279 201.9  22.8  34152  289.44 0854.35
2009/04/23 16:59:22.0    -138   -303    175    333    376 204.5  30.1  34136  289.16 0854.35
2009/04/23 16:59:22.1    -212   -128    198    248    317 238.9  42.7  34142  289.25 0854.35
2009/04/23 16:59:22.2    -200    -36     70    204    216 259.6  18.9  34170  289.74 0854.35
2009/04/23 16:59:22.3     -57   -106     30    121    125 208.1  14.3  34154  289.46 0854.35
2009/04/23 16:59:22.4    -157    -22    -16    159    160 262.0  -6.0  34160  289.57 0854.35
2009/04/23 16:59:22.5    -244     94    -14    262    263 291.1  -3.2  34156  289.51 0854.34
2009/04/23 16:59:22.6    -294    104    -94    312    326 289.5 -16.8  34168  289.70 0854.34
2009/04/23 16:59:22.7    -360     23     56    361    366 273.8   8.8  34156  289.50 0854.34
2009/04/23 16:59:22.8    -370    -22     50    371    375 266.6   7.8  34160  289.57 0854.34
2009/04/23 16:59:22.9    -377     76     27    385    386 281.5   4.0  34152  289.42 0854.34
2009/04/23 16:59:23.0    -365    -25    -73    366    374 266.0 -11.3  34148  289.38 0854.34
2009/04/23 16:59:23.1    -365    -90      0    376    377 256.1   0.1  34162  289.62 0854.34
2009/04/23 16:59:23.2    -294    -23     58    295    301 265.4  11.1  34160  289.58 0854.34
2009/04/23 16:59:23.3    -354    -23    -58    355    360 266.3  -9.3  34136  289.18 0854.34
2009/04/23 16:59:23.4    -458    -93    -60    468    472 258.4  -7.4  34130  289.05 0854.34
2009/04/23 16:59:23.5    -520   -208   -177    561    589 248.2 -17.6  34148  289.37 0854.34
2009/04/23 16:59:23.6    -283     76     86    294    307 285.1  16.3  34170  289.75 0854.34
2009/04/23 16:59:23.7    -320   -156    104    357    372 244.0  16.3  34184  289.99 0854.34
2009/04/23 16:59:23.8    -306   -255    152    399    426 230.2  22.0  34164  289.65 0854.34
2009/04/23 16:59:23.9     -74   -236    274    248    369 197.4  53.3  34162  289.60 0854.34
2009/04/23 16:59:24.0    -173   -202    265    267    376 220.5  50.0  34162  289.59 0854.34
2009/04/23 16:59:24.1       0     88    153     89    177   0.0  67.2  34180  289.91 0854.34
2009/04/23 16:59:24.2     179    205    151    273    311  41.2  31.5  34172  289.78 0854.34
2009/04/23 16:59:24.3     226    157     97    276    293  55.1  19.4  34172  289.78 0854.34
2009/04/23 16:59:24.4     223    150     41    269    273  56.0   8.8  34168  289.70 0854.34
2009/04/23 16:59:24.5     195    173     66    262    271  48.4  14.3  34172  289.76 0854.34
2009/04/23 16:59:24.6     223    130     51    259    265  59.8  11.1  34168  289.70 0854.34
2009/04/23 16:59:24.7     300     42    216    304    372  81.9  39.1  34132  289.10 0854.34
2009/04/23 16:59:24.8     242    133    216    277    351  61.1  41.7  34128  289.02 0854.34
2009/04/23 16:59:24.9     108     36     64    114    130  71.4  31.9  34122  288.94 0854.34
2009/04/23 16:59:25.0     215     12     88    216    233  86.7  23.1  34114  288.79 0854.34
2009/04/23 16:59:25.1     342     19     32    343    345  86.7   5.4  34126  288.99 0854.34
2009/04/23 16:59:25.2     651    224    162    689    708  71.0  13.3  34116  288.84 0854.34
2009/04/23 16:59:25.3     575    291    301    645    711  63.1  26.9  34108  288.70 0854.34
2009/04/23 16:59:25.4     572    326    116    659    670  60.3  10.0  34118  288.87 0854.34
2009/04/23 16:59:25.5     577    245     31    627    628  67.0   2.9  34130  289.08 0854.34
2009/04/23 16:59:25.6     702    342     66    782    786  64.0   4.9  34134  289.12 0854.34
2009/04/23 16:59:25.7     796    288    108    847    854  70.1   7.3  34108  288.68 0854.34
2009/04/23 16:59:25.8     858    230     69    889    892  75.0   4.5  34110  288.71 0854.34
2009/04/23 16:59:25.9     720    228    244    756    795  72.4  17.9  34128  289.02 0854.34
2009/04/23 16:59:26.0     799    188    222    821    851  76.7  15.2  34090  288.38 0854.34
2009/04/23 16:59:26.1     744    239    171    782    801  72.2  12.4  34084  288.27 0854.34
2009/04/23 16:59:26.2     850    252    209    887    912  73.5  13.3  34072  288.09 0854.34
2009/04/23 16:59:26.3     825    241    192    860    882  73.7  12.6  34078  288.18 0854.34
2009/04/23 16:59:26.4     858    261    259    898    935  73.1  16.1  34090  288.40 0854.34
2009/04/23 16:59:26.5     692    230    258    730    775  71.6  19.5  34082  288.26 0854.34
2009/04/23 16:59:26.6     470    216     99    518    528  65.3  10.8  34074  288.13 0854.34
2009/04/23 16:59:26.7     335    366    178    497    527  42.4  20.4  34090  288.37 0854.34
2009/04/23 16:59:26.8     488    269    197    558    591  61.1  20.3  34108  288.70 0854.34
2009/04/23 16:59:26.9     517    289    116    593    605  60.8  11.1  34098  288.53 0854.34
2009/04/23 16:59:27.0     619    440    138    760    773  54.6  10.3  34098  288.53 0854.34
2009/04/23 16:59:27.1     403    152    -23    431    432  69.3  -3.2  34108  288.68 0854.34
2009/04/23 16:59:27.2     354    154     64    386    392  66.5   9.4  34126  288.98 0854.34
2009/04/23 16:59:27.3     544    285   -105    615    624  62.4  -9.7  34142  289.28 0854.34
2009/04/23 16:59:27.4     515    238   -160    568    591  65.2 -15.8  34148  289.36 0854.34
2009/04/23 16:59:27.5     372    159   -103    405    418  66.8 -14.3  34148  289.36 0854.34
2009/04/23 16:59:27.6     253    238    -99    348    362  46.8 -15.9  34132  289.10 0854.34
2009/04/23 16:59:27.7     101     81      2    130    131  51.4   1.2  34142  289.28 0854.34
2009/04/23 16:59:27.8     219     51    -66    226    235  76.7 -21.2  34136  289.16 0854.34
2009/04/23 16:59:27.9     332     34    115    334    354  84.0  19.1  34162  289.60 0854.34
2009/04/23 16:59:28.0     330    226    175    401    437  55.6  25.1  34174  289.80 0854.34
2009/04/23 16:59:28.1     247    392    247    464    525  32.2  30.3  34166  289.69 0854.34
2009/04/23 16:59:28.2     381    252    293    457    542  56.5  35.6  34146  289.32 0854.34
2009/04/23 16:59:28.3     415    374    232    559    605  48.0  23.9  34164  289.64 0854.34
2009/04/23 16:59:28.4     464    372    214    596    633  51.3  20.6  34170  289.74 0854.34
2009/04/23 16:59:28.5     453    414    144    614    631  47.6  13.2  34142  289.28 0854.34
2009/04/23 16:59:28.6     561    333     89    653    660  59.3   7.8  34108  288.68 0854.34
2009/04/23 16:59:28.7     457    251    258    522    582  61.2  28.2  34156  289.50 0854.34
2009/04/23 16:59:28.8     168    214     37    273    276  38.1   7.8  34156  289.51 0854.34
2009/04/23 16:59:28.9     121    295     68    319    327  22.3  12.0  34142  289.27 0854.34
2009/04/23 16:59:29.0     166    200     94    261    277  39.6  20.9  34128  289.03 0854.34
2009/04/23 16:59:29.1     288    308     20    422    423  43.1   2.8  34158  289.55 0854.34
2009/04/23 16:59:29.2     291    196    -13    352    353  56.0  -2.2  34158  289.54 0854.34
2009/04/23 16:59:29.3     218    217    120    308    330  45.2  22.4  34194  290.15 0854.34
2009/04/23 16:59:29.4     134    215    151    254    295  31.9  33.5  34176  289.83 0854.34
2009/04/23 16:59:29.5     121    330     74    352    360  20.2  12.0  34268  291.39 0854.34
2009/04/23 16:59:29.6      96    307     48    322    326  17.4   8.5  34268  291.39 0854.34
2009/04/23 16:59:29.7     283    314    293    423    514  42.0  38.0  34238  290.90 0854.34
2009/04/23 16:59:29.8     240    543   -121    594    607  23.9 -11.6  34178  289.88 0854.34
2009/04/23 16:59:29.9     427    373   -139    568    585  48.9 -13.8  34132  289.10 0854.34
2009/04/23 16:59:30.0     590    327    -26    675    676  61.0  -2.3  34082  288.24 0854.34
2009/04/23 16:59:30.1     560    323    -15    647    648  60.0  -1.4  34084  288.28 0854.34
2009/04/23 16:59:30.2     666    317    -20    738    739  64.5  -1.6  34108  288.70 0854.34
2009/04/23 16:59:30.3     637    291     30    701    702  65.4   2.5  34088  288.35 0854.34
2009/04/23 16:59:30.4     645    188    134    672    686  73.7  11.3  34150  289.41 0854.34
2009/04/23 16:59:30.5     470     51    272    473    545  83.8  32.4  34194  290.14 0854.35
2009/04/23 16:59:30.6     431    -86    303    440    534 101.4  37.9  34172  289.78 0854.35
2009/04/23 16:59:30.7     371    -21    360    372    517  93.3  49.1  34158  289.54 0854.35
2009/04/23 16:59:30.8     406    215    324    460    562  62.0  38.6  34144  289.31 0854.35
2009/04/23 16:59:30.9     148    148    395    210    447  45.0  69.9  34142  289.26 0854.35
2009/04/23 16:59:31.0    -115    188    275    221    352 328.6  57.1  34158  289.53 0854.35
2009/04/23 16:59:31.1      88    275    111    289    309  17.8  22.0  34158  289.54 0854.35
2009/04/23 16:59:31.2      88    279    123    293    317  17.6  24.1  34164  289.64 0854.35
2009/04/23 16:59:31.3     -63    312    209    319    381 348.4  36.3  34218  290.57 0854.35
2009/04/23 16:59:31.4     186    271    290    330    439  34.5  45.8  34216  290.51 0854.35
2009/04/23 16:59:31.5     123    497     -1    512    513  13.9  -0.2  34224  290.66 0854.35
2009/04/23 16:59:31.6      97    439     70    450    456  12.5   8.9  34194  290.14 0854.35
2009/04/23 16:59:31.7      28    190   -153    193    246   8.5 -47.1  34164  289.63 0854.35
2009/04/23 16:59:31.8     115    169    -70    205    217  34.3 -18.9  34174  289.80 0854.35
2009/04/23 16:59:31.9     -78    123   -122    146    190 327.5 -48.2  34176  289.84 0854.35
2009/04/23 16:59:32.0    -363    114    132    381    404 287.5  19.2  34184  289.99 0854.35
2009/04/23 16:59:32.1    -430    260    -96    503    513 301.2 -10.9  34166  289.67 0854.35
2009/04/23 16:59:32.2    -428    258      9    500    501 301.1   1.1  34152  289.45 0854.35
2009/04/23 16:59:32.3    -554    230   -120    601    613 292.6 -11.3  34110  288.71 0854.35
2009/04/23 16:59:32.4    -529    163     42    554    556 287.2   4.3  34142  289.26 0854.35
2009/04/23 16:59:32.5    -438     11    158    439    466 271.5  20.6  34136  289.17 0854.36
2009/04/23 16:59:32.6    -377    -84     90    387    398 257.3  13.1  34130  289.06 0854.36
2009/04/23 16:59:32.7    -206   -262     67    334    341 218.2  11.5  34162  289.62 0854.36
2009/04/23 16:59:32.8    -241   -165     53    293    298 235.6  10.3  34138  289.20 0854.36
2009/04/23 16:59:32.9      -3   -184    103    185    211 181.1  31.6  34166  289.69 0854.36
2009/04/23 16:59:33.0      18     -6    105     19    106 108.4  90.0  34170  289.74 0854.36
2009/04/23 16:59:33.1       0      7    159      8    159 355.5  90.0  34168  289.72 0854.36
2009/04/23 16:59:33.2     -48    143     32    152    156 341.3  12.2  34148  289.38 0854.36
2009/04/23 16:59:33.3    -145    -12     88    146    170 265.2  34.2  34152  289.43 0854.36
2009/04/23 16:59:33.4    -174    -14     17    175    176 265.2   5.7  34158  289.53 0854.36
2009/04/23 16:59:33.5    -155   -102     90    186    206 236.7  27.3  34170  289.75 0854.36
2009/04/23 16:59:33.6    -237    179    -47    298    302 307.1  -9.0  34150  289.41 0854.36
2009/04/23 16:59:33.7    -253     61    -82    261    273 283.7 -22.5  34156  289.51 0854.36
2009/04/23 16:59:33.8    -257    -14   -124    258    286 266.7 -31.7  34160  289.56 0854.36
2009/04/23 16:59:33.9    -131    -24    -88    134    160 259.4 -40.9  34162  289.62 0854.36
2009/04/23 16:59:34.0    -123     30    -58    127    139 283.7 -31.0  34154  289.46 0854.36
2009/04/23 16:59:34.1    -187    198    102    273    291 316.7  21.0  34138  289.20 0854.36
2009/04/23 16:59:34.2     -68    158     14    173    174 336.6   4.9  34138  289.19 0854.36
2009/04/23 16:59:34.3      69    258    -68    268    277  15.1 -14.4  34112  288.75 0854.36
2009/04/23 16:59:34.4     198    314    -29    372    374  32.2  -4.5  34102  288.60 0854.36
2009/04/23 16:59:34.5    -102    217     20    240    241 334.8   4.9  34122  288.92 0854.37
2009/04/23 16:59:34.6       0     28     73     29     78 359.1  77.6  34126  288.99 0854.37
2009/04/23 16:59:34.7       8    170    109    171    202   2.7  35.6  34140  289.24 0854.37
2009/04/23 16:59:34.8    -228    147    180    272    326 302.9  36.6  34176  289.85 0854.37
2009/04/23 16:59:34.9    -113    251    138    276    308 335.7  28.5  34170  289.75 0854.37
2009/04/23 16:59:35.0    -144    146     80    206    220 315.5  22.5  34160  289.57 0854.37
2009/04/23 16:59:35.1    -159    262     29    307    309 328.8   5.4  34150  289.39 0854.37
2009/04/23 16:59:35.2     -33    178    130    182    223 349.3  39.3  34152  289.43 0854.37
2009/04/23 16:59:35.3     -21    178     63    180    191 353.1  19.4  34168  289.72 0854.37
2009/04/23 16:59:35.4      69    179      7    193    194  21.2   2.3  34194  290.14 0854.37
2009/04/23 16:59:35.5      77    162    -21    180    182  25.6  -6.7  34206  290.35 0854.37
2009/04/23 16:59:35.6      88    201    -12    220    221  23.6  -3.1  34232  290.81 0854.37
2009/04/23 16:59:35.7     172    162     15    237    238  46.8   3.6  34214  290.48 0854.37
2009/04/23 16:59:35.8     148    178     36    232    235  39.6   9.0  34198  290.20 0854.37
2009/04/23 16:59:35.9     250    129    151    282    319  62.7  30.5  34202  290.29 0854.37
2009/04/23 16:59:36.0     411    137    145    434    458  71.5  18.6  34220  290.60 0854.37
2009/04/23 16:59:36.1     302    123    118    327    347  67.8  20.6  34238  290.88 0854.37
2009/04/23 16:59:36.2     401    245     90    471    480  58.6  10.8  34222  290.62 0854.37
2009/04/23 16:59:36.3     510    348     93    618    625  55.6   8.6  34262  291.32 0854.37
2009/04/23 16:59:36.4     706    316    231    774    808  65.9  16.6  34174  289.81 0854.37
2009/04/23 16:59:36.5     909    325    135    966    976  70.3   8.0  34090  288.40 0854.37
2009/04/23 16:59:36.6     908    445    156   1012   1024  63.9   8.8  34108  288.69 0854.37
2009/04/23 16:59:36.7     844    330    -35    907    908  68.6  -2.2  34124  288.95 0854.37
2009/04/23 16:59:36.8     726    297     83    785    790  67.7   6.1  34106  288.66 0854.37
2009/04/23 16:59:36.9     449    455     85    640    646  44.6   7.6  34120  288.91 0854.37
2009/04/23 16:59:37.0     441    434      8    619    620  45.5   0.8  34116  288.84 0854.37
2009/04/23 16:59:37.1     286    408     83    499    506  35.1   9.5  34124  288.96 0854.37
2009/04/23 16:59:37.2     153    438    -11    465    466  19.3  -1.4  34136  289.17 0854.37
2009/04/23 16:59:37.3     113    394    -44    410    413  16.0  -6.2  34136  289.17 0854.37
2009/04/23 16:59:37.4     258    225   -208    343    401  48.9 -38.6  34136  289.15 0854.37
2009/04/23 16:59:37.5     314   -137   -161    343    378 113.7 -31.5  34126  288.99 0854.38
2009/04/23 16:59:37.6     409    543    137    681    695  37.0  11.4  34126  288.99 0854.38
2009/04/23 16:59:37.7     283    -48    228    288    367  99.7  42.4  34136  289.15 0854.38
2009/04/23 16:59:37.8     401   -263    248    480    540 123.3  29.3  34114  288.80 0854.38
2009/04/23 16:59:37.9      97     97    263    138    297  45.0  70.0  34116  288.83 0854.38
2009/04/23 16:59:38.0     196   -244     17    314    315 141.3   3.1  34112  288.76 0854.38
2009/04/23 16:59:38.1     616   -207    296    651    715 108.6  26.2  34154  289.46 0854.38
2009/04/23 16:59:38.2     638   -149    405    656    770 103.2  34.6  34124  288.97 0854.38
2009/04/23 16:59:38.3     549   -182    254    579    632 108.4  25.2  34144  289.31 0854.38
2009/04/23 16:59:38.4     388   -239    212    456    502 121.6  26.9  34134  289.12 0854.38
2009/04/23 16:59:38.5       0    200    -95    201    222   0.0 -31.5  34136  289.16 0854.38
2009/04/23 16:59:38.6    -107    322    -43    340    343 341.5  -7.2  34150  289.40 0854.38
2009/04/23 16:59:38.7     -22    276      3    277    278 355.3   0.8  34158  289.53 0854.38
2009/04/23 16:59:38.8    -170     55     94    179    202 288.2  29.8  34160  289.58 0854.38
2009/04/23 16:59:38.9     -64   -135     95    150    177 205.3  35.5  34166  289.69 0854.38
2009/04/23 16:59:39.0      -9   -509     19    510    511 181.1   2.2  34140  289.22 0854.38
2009/04/23 16:59:39.2     243   -771    120    809    818 162.5   8.5  34128  289.04 0854.38
2009/04/23 16:59:39.3     248   -602    201    652    683 157.6  17.2  34150  289.41 0854.38
2009/04/23 16:59:39.3     113   -709    300    719    779 170.9  24.1  34152  289.43 0854.38
2009/04/23 16:59:39.4     130   -354    384    378    538 159.8  50.6  34172  289.76 0854.38
2009/04/23 16:59:39.5      55     58    305     81    315  43.3  85.2  34134  289.12 0854.38
2009/04/23 16:59:39.6     -42      0    265     43    268 270.0  90.0  34142  289.26 0854.38
2009/04/23 16:59:39.7     -75   -222    365    235    434 198.7  64.4  34164  289.65 0854.38
2009/04/23 16:59:39.8    -147   -411    469    437    641 199.8  52.3  34140  289.24 0854.38
2009/04/23 16:59:39.9     175   -149    466    231    520 130.4  71.9  34128  289.02 0854.38
2009/04/23 16:59:40.0     -19    -28    317     34    318 214.3  90.0  34142  289.25 0854.38
2009/04/23 16:59:40.1      86   -101    281    133    310 139.5  73.1  34128  289.02 0854.38
2009/04/23 16:59:40.2      24   -175    255    177    310 172.2  62.1  34144  289.29 0854.38
2009/04/23 16:59:40.3    -205   -442    458    488    669 204.9  48.0  34126  288.98 0854.38
2009/04/23 16:59:40.5    -311   -400    428    507    663 217.9  44.5  34110  288.74 0854.38
2009/04/23 16:59:40.5    -299   -198    247    359    435 236.5  37.8  34118  288.87 0854.38
2009/04/23 16:59:40.6    -341     62   -197    347    399 280.4 -36.7  34074  288.13 0854.38
2009/04/23 16:59:40.7    -317    -76    -14    326    327 256.5  -2.6  34070  288.04 0854.38
2009/04/23 16:59:40.8    -617   -145   -155    634    653 256.7 -13.8  34092  288.43 0854.38
2009/04/23 16:59:40.9    -706   -519   -110    877    884 233.7  -7.2  34092  288.42 0854.38
2009/04/23 16:59:41.0    -673   -657   -149    941    953 225.7  -9.0  34088  288.36 0854.38
2009/04/23 16:59:41.1    -487   -552     17    737    738 221.4   1.4  34096  288.48 0854.38
2009/04/23 16:59:41.2    -599    155     58    619    622 284.5   5.4  34130  289.08 0854.38
2009/04/23 16:59:41.3    -613     36      7    615    616 273.4   0.7  34124  288.96 0854.38
2009/04/23 16:59:41.4    -350   -115     46    369    372 251.7   7.2  34130  289.06 0854.38
2009/04/23 16:59:41.6    -488   -135   -180    507    539 254.5 -19.6  34124  288.96 0854.39
2009/04/23 16:59:41.6    -436    -52    -56    440    444 263.1  -7.3  34134  289.14 0854.39
2009/04/23 16:59:41.7    -347   -109     -8    364    365 252.5  -1.3  34126  289.01 0854.39
2009/04/23 16:59:41.8    -284    -21    -79    285    296 265.6 -15.5  34118  288.87 0854.39
2009/04/23 16:59:41.9    -297    -60   -135    303    331 258.6 -30.1  34106  288.65 0854.39
2009/04/23 16:59:42.0    -171     55    106    180    208 287.9  33.5  34118  288.87 0854.39
2009/04/23 16:59:42.1    -523    -93     63    532    536 259.9   6.8  34120  288.91 0854.39
2009/04/23 16:59:42.2    -440   -252   -121    508    523 240.2 -13.4  34124  288.95 0854.39
2009/04/23 16:59:42.3    -441   -232     27    499    500 242.3   3.1  34130  289.06 0854.39
2009/04/23 16:59:42.4    -263   -168    174    313    358 237.4  31.4  34120  288.91 0854.39
2009/04/23 16:59:42.5    -420   -116    247    436    501 254.5  32.0  34126  289.01 0854.39
2009/04/23 16:59:42.6    -390   -107    -27    405    406 254.6  -3.9  34120  288.89 0854.39
2009/04/23 16:59:42.7    -533   -144      7    553    554 254.9   0.8  34102  288.58 0854.39
2009/04/23 16:59:42.8    -758    -23   -247    759    799 268.2 -18.1  34078  288.19 0854.39
2009/04/23 16:59:42.9    -420    -83   -210    429    477 258.8 -32.4  34080  288.23 0854.39
2009/04/23 16:59:43.0    -669    -66   -230    673    712 264.3 -18.9  34092  288.42 0854.39
2009/04/23 16:59:43.1    -550   -207   -134    588    604 249.3 -12.9  34100  288.56 0854.39
2009/04/23 16:59:43.2    -665     31   -120    666    677 272.7 -10.2  34106  288.65 0854.39
2009/04/23 16:59:43.3    -563   -429    173    708    729 232.7  13.8  34096  288.49 0854.39
2009/04/23 16:59:43.4    -769   -223    198    801    826 253.8  13.9  34090  288.37 0854.39
2009/04/23 16:59:43.5    -831   -219   -116    860    868 255.2  -7.7  34074  288.11 0854.41
2009/04/23 16:59:43.6    -615    -44   -142    617    634 265.9 -13.0  34076  288.15 0854.41
2009/04/23 16:59:43.7    -477   -124   -170    493    522 255.4 -19.1  34104  288.62 0854.41
2009/04/23 16:59:43.8    -743   -383   -230    837    869 242.7 -15.4  34080  288.21 0854.41
2009/04/23 16:59:43.9    -832   -204   -182    857    877 256.2 -12.0  34078  288.20 0854.41
2009/04/23 16:59:44.1    -764   -257   -284    807    856 251.4 -19.4  34080  288.21 0854.41
2009/04/23 16:59:44.1    -344   -174    -21    386    387 243.2  -3.1  34094  288.47 0854.41
2009/04/23 16:59:44.2    -391   -436    -75    586    591 221.9  -7.3  34096  288.49 0854.41
2009/04/23 16:59:44.3    -532   -378     34    653    654 234.6   3.0  34078  288.18 0854.41
2009/04/23 16:59:44.4    -709   -645   -186    959    977 227.7 -11.0  34076  288.16 0854.41
2009/04/23 16:59:44.6    -545   -517     36    752    753 226.5   2.8  34094  288.46 0854.41
2009/04/23 16:59:44.7    -814   -418    122    916    925 242.8   7.6  34082  288.24 0854.41
2009/04/23 16:59:44.7    -692   -359    -65    780    783 242.6  -4.8  34074  288.10 0854.41
2009/04/23 16:59:44.9    -504   -126   -182    520    551 255.9 -19.3  34094  288.47 0854.41
2009/04/23 16:59:45.0    -432   -205   -137    479    498 244.6 -20.7  34098  288.51 0854.41
2009/04/23 16:59:45.1    -558   -586     10    810    811 223.6   0.7  34072  288.08 0854.41
2009/04/23 16:59:45.2    -512   -443   -195    678    705 229.1 -20.8  34078  288.20 0854.41
2009/04/23 16:59:45.3    -212   -950    -42    974    975 192.6  -2.5  34074  288.11 0854.41
2009/04/23 16:59:45.4    -415   -682   -183    799    820 211.3 -12.9  34068  288.01 0854.41
2009/04/23 16:59:45.5    -458   -380    -57    596    599 230.3  -5.5  34094  288.46 0854.41
2009/04/23 16:59:45.6    -531   -424   -164    680    700 231.4 -13.6  34110  288.72 0854.41
2009/04/23 16:59:45.7    -360   -729   -171    813    831 206.3 -11.9  34090  288.37 0854.41
2009/04/23 16:59:45.8    -232   -606   -112    650    660 201.0  -9.8  34094  288.45 0854.41
2009/04/23 16:59:45.9    -110   -584      5    595    596 190.7   0.5  34088  288.36 0854.41
2009/04/23 16:59:46.0    -454   -771    -66    895    898 210.5  -4.2  34078  288.17 0854.41
2009/04/23 16:59:46.1    -190   -711     20    736    737 195.0   1.6  34082  288.26 0854.41
2009/04/23 16:59:46.2    -303   -744     19    804    805 202.2   1.4  34074  288.13 0854.41
2009/04/23 16:59:46.3    -266   -519     38    584    586 207.2   3.7  34076  288.14 0854.41
2009/04/23 16:59:46.4    -268   -649    -49    703    705 202.4  -4.0  34066  287.98 0854.41
2009/04/23 16:59:46.5    -362   -533    -50    645    648 214.2  -4.5  34074  288.11 0854.41
2009/04/23 16:59:46.6    -535   -331    171    630    653 238.3  15.2  34080  288.23 0854.41
2009/04/23 16:59:46.7    -262   -336    149    427    453 218.0  19.3  34080  288.23 0854.41
2009/04/23 16:59:46.8    -234   -283    123    368    389 219.6  18.6  34074  288.11 0854.41
2009/04/23 16:59:46.9     -34   -269     48    272    277 187.3  10.1  34080  288.22 0854.41
2009/04/23 16:59:47.0    -171   -321   -145    364    391 208.1 -27.4  34070  288.06 0854.41
2009/04/23 16:59:47.1    -318   -278    -69    423    429 228.8  -9.4  34086  288.33 0854.41
2009/04/23 16:59:47.2     -95   -228   -150    248    289 202.7 -38.8  34078  288.19 0854.41
2009/04/23 16:59:47.3    -120    -28   -130    124    179 256.7 -55.8  34090  288.38 0854.41
2009/04/23 16:59:47.4    -421    -71   -188    427    466 260.4 -29.6  34102  288.58 0854.41
2009/04/23 16:59:47.5    -412    -63   -338    417    536 261.2 -47.7  34094  288.47 0854.41
2009/04/23 16:59:47.6    -778   -270   -327    824    886 250.8 -27.4  34088  288.34 0854.40
2009/04/23 16:59:47.7    -511   -309   -309    598    673 238.9 -33.8  34058  287.86 0854.40
2009/04/23 16:59:47.8    -194   -282   -153    343    375 214.5 -30.1  34082  288.25 0854.40
2009/04/23 16:59:47.9    -195   -414     89    458    467 205.2  11.0  34082  288.24 0854.40
2009/04/23 16:59:48.0     128   -539    300    555    630 166.6  30.8  34062  287.90 0854.40
2009/04/23 16:59:48.1    -298   -625    416    693    808 205.5  33.8  34082  288.24 0854.40
2009/04/23 16:59:48.2    -504   -670     34    839    840 217.0   2.3  34076  288.16 0854.40
2009/04/23 16:59:48.3    -320   -770    288    834    883 202.6  19.1  34080  288.22 0854.40
2009/04/23 16:59:48.4    -342   -653    221    738    771 207.7  16.7  34084  288.30 0854.40
2009/04/23 16:59:48.5    -392   -484    170    624    647 219.0  15.3  34084  288.28 0854.40
2009/04/23 16:59:48.6    -479   -377    151    610    629 231.8  13.9  34074  288.10 0854.40
2009/04/23 16:59:48.7    -421   -305     41    521    523 234.1   4.6  34086  288.31 0854.40
2009/04/23 16:59:48.8    -365   -176    135    406    429 244.3  18.5  34084  288.29 0854.40
2009/04/23 16:59:48.9    -210    316    294    380    480 326.4  41.7  34096  288.48 0854.40
2009/04/23 16:59:49.0     -13    124    169    125    210 353.8  60.0  34100  288.55 0854.40
2009/04/23 16:59:49.1     154    309    120    346    367  26.6  19.2  34092  288.42 0854.40
2009/04/23 16:59:49.2     138    279     92    312    326  26.3  16.5  34084  288.27 0854.40
2009/04/23 16:59:49.3      -6    222    -75    223    236 358.4 -18.7  34090  288.38 0854.40
2009/04/23 16:59:49.4     203     62    -27    213    215  73.1  -7.5  34088  288.36 0854.40
2009/04/23 16:59:49.5     221     42    131    225    260  79.2  33.1  34092  288.41 0854.40
2009/04/23 16:59:49.6     190   -271     92    332    345 144.9  15.6  34078  288.20 0854.39
2009/04/23 16:59:49.7     -83   -306    197    318    374 195.2  34.9  34106  288.66 0854.39
2009/04/23 16:59:49.8    -152   -231     54    277    283 213.4  11.1  34112  288.76 0854.39
2009/04/23 16:59:49.9    -365   -210   -127    422    440 240.1 -21.7  34096  288.48 0854.39
2009/04/23 16:59:50.0    -508   -318     55    600    603 238.0   5.3  34098  288.51 0854.39
2009/04/23 16:59:50.1    -365   -469   -177    595    620 217.9 -21.6  34098  288.51 0854.39
2009/04/23 16:59:50.2    -289   -527   -208    602    637 208.8 -19.1  34106  288.67 0854.39
2009/04/23 16:59:50.3    -286   -535   -199    607    639 208.1 -18.2  34112  288.77 0854.39
2009/04/23 16:59:50.4    -438   -632   -162    770    787 214.7 -11.9  34114  288.80 0854.39
2009/04/23 16:59:50.5    -216   -566    -71    606    611 200.9  -6.7  34108  288.68 0854.39
2009/04/23 16:59:50.6     -69   -551    119    556    569 187.2  12.2  34094  288.47 0854.39
2009/04/23 16:59:50.7    -149   -466    -19    490    491 197.8  -2.2  34098  288.52 0854.39
2009/04/23 16:59:50.8    -214   -135   -193    253    318 237.8 -45.6  34110  288.71 0854.39
2009/04/23 16:59:50.9    -319    -82    -49    330    334 255.6  -8.6  34110  288.74 0854.39
2009/04/23 16:59:51.0    -220   -389    123    448    465 209.5  15.4  34106  288.65 0854.39
2009/04/23 16:59:51.1    -220   -506    205    552    588 203.5  21.4  34110  288.71 0854.39
2009/04/23 16:59:51.2    -243   -328    -78    409    417 216.5 -10.8  34104  288.63 0854.39
2009/04/23 16:59:51.3     -98   -447     93    458    468 192.4  11.5  34106  288.66 0854.39
2009/04/23 16:59:51.4    -234   -335   -122    409    427 215.0 -16.6  34122  288.92 0854.39
2009/04/23 16:59:51.5    -151   -428    -98    455    466 199.5 -12.2  34112  288.77 0854.39
2009/04/23 16:59:51.6    -105   -538   -167    549    575 191.1 -16.9  34108  288.69 0854.38
2009/04/23 16:59:51.7      44   -426    -38    429    431 174.0  -5.1  34114  288.78 0854.38
2009/04/23 16:59:51.8     152   -451     56    477    481 161.3   6.7  34106  288.66 0854.38
2009/04/23 16:59:51.9     117   -507     77    521    527 167.0   8.5  34102  288.58 0854.38
2009/04/23 16:59:52.0     -50   -494    -67    497    502 185.8  -7.7  34118  288.86 0854.38
2009/04/23 16:59:52.1     -10   -387    230    388    451 181.5  33.4  34104  288.61 0854.38
2009/04/23 16:59:52.2     -45   -743     12    745    746 183.5   1.0  34120  288.89 0854.38
2009/04/23 16:59:52.3      58   -682     14    685    686 175.1   1.2  34096  288.50 0854.38
2009/04/23 16:59:52.4     296   -481    165    566    590 148.4  16.3  34114  288.78 0854.38
2009/04/23 16:59:52.5     108   -578    213    588    626 169.4  19.9  34114  288.78 0854.38
2009/04/23 16:59:52.6     154   -642    408    661    776 166.5  34.6  34114  288.80 0854.38
2009/04/23 16:59:52.7     148   -736    453    751    877 168.6  34.0  34116  288.83 0854.38
2009/04/23 16:59:52.8     -90   -888    363    893    963 185.8  23.4  34116  288.83 0854.38
2009/04/23 16:59:52.9     -57   -883    315    885    939 183.7  20.4  34122  288.94 0854.38
2009/04/23 16:59:53.0      23   -899    349    900    965 178.5  22.3  34136  289.15 0854.38
2009/04/23 16:59:53.1     -92   -704    378    710    804 187.5  30.3  34122  288.93 0854.38
2009/04/23 16:59:53.2    -142   -708    387    723    820 191.4  30.5  34126  288.98 0854.38
2009/04/23 16:59:53.3     -60   -908    406    911    997 183.8  25.6  34120  288.91 0854.38
2009/04/23 16:59:53.4     -59   -878    407    880    969 183.9  26.6  34122  288.93 0854.38
2009/04/23 16:59:53.5    -275   -661    514    716    881 202.6  39.3  34128  289.04 0854.38
2009/04/23 16:59:53.6    -231   -674    367    713    801 199.0  29.4  34128  289.03 0854.38
2009/04/23 16:59:53.7     -88   -561    465    569    734 189.0  43.6  34122  288.94 0854.38
2009/04/23 16:59:53.8    -183   -386    494    428    653 205.3  54.8  34130  289.08 0854.38
2009/04/23 16:59:53.9    -133   -348    453    373    586 201.0  56.4  34134  289.14 0854.38
2009/04/23 16:59:54.0    -123   -257    274    285    395 205.6  49.0  34136  289.15 0854.38
2009/04/23 16:59:54.1    -385    137    122    409    428 289.6  16.7  34150  289.39 0854.38
2009/04/23 16:59:54.2    -404    -18    240    405    470 267.4  33.4  34146  289.33 0854.38
2009/04/23 16:59:54.3    -233    -60     47    241    246 255.4  11.1  34148  289.36 0854.38
2009/04/23 16:59:54.4    -246   -196     32    315    317 231.4   6.0  34146  289.34 0854.38
2009/04/23 16:59:54.5    -166    -34    119    170    207 258.3  38.4  34158  289.53 0854.38
2009/04/23 16:59:54.6    -163      4    166    164    233 271.5  50.1  34160  289.58 0854.38
2009/04/23 16:59:54.7    -155    -70    108    171    202 245.6  35.5  34162  289.62 0854.38
2009/04/23 16:59:54.8      19     19     67     27     72  45.0  77.1  34178  289.89 0854.38
2009/04/23 16:59:54.9      53     79     87     96    129  33.8  47.5  34160  289.57 0854.38
2009/04/23 16:59:55.0      61    140    -31    153    157  23.7 -11.6  34142  289.26 0854.38
2009/04/23 16:59:55.1    -105    287     16    306    307 339.9   3.1  34138  289.20 0854.38
2009/04/23 16:59:55.2     -35    291     29    294    296 353.1   5.7  34142  289.25 0854.38
2009/04/23 16:59:55.3       0    273    -24    274    276   0.0  -5.2  34138  289.19 0854.38
2009/04/23 16:59:55.4      10    137     50    138    146   4.4  20.4  34140  289.23 0854.38
2009/04/23 16:59:55.5      69     98    -88    120    148  35.2 -44.1  34140  289.24 0854.38
2009/04/23 16:59:55.6     151      2    -25    152    155  89.2  -9.3  34140  289.23 0854.37
2009/04/23 16:59:55.7      98     29     35    103    109  73.2  18.9  34142  289.26 0854.37
2009/04/23 16:59:55.8      34    105     34    111    117  18.3  17.3  34140  289.23 0854.37
2009/04/23 16:59:55.9     107      8     37    108    115  85.6  18.9  34146  289.33 0854.37
2009/04/23 16:59:56.0     140     19      6    142    143  82.0   2.8  34144  289.30 0854.37
2009/04/23 16:59:56.1     196     43      7    201    202  77.4   2.1  34156  289.52 0854.37
2009/04/23 16:59:56.2     138     10     47    139    148  85.6  18.9  34154  289.48 0854.37
2009/04/23 16:59:56.3     134     -8    -50    135    143  93.5 -25.4  34154  289.46 0854.37
2009/04/23 16:59:56.4     135    -77    -37    156    161 119.8 -13.4  34146  289.33 0854.37
2009/04/23 16:59:56.5       9   -107    -30    108    113 175.1 -15.4  34142  289.26 0854.37
2009/04/23 16:59:56.6      60   -116      8    131    132 152.4   3.8  34146  289.33 0854.37
2009/04/23 16:59:56.7     106   -119     79    160    178 138.1  28.2  34136  289.16 0854.37
2009/04/23 16:59:56.8     157   -157     72    223    235 135.0  17.9  34132  289.09 0854.37
2009/04/23 16:59:56.9     181     -8    130    182    223  92.8  39.3  34152  289.43 0854.37
2009/04/23 16:59:57.0     176     44    245    182    305  75.8  59.8  34134  289.12 0854.37
2009/04/23 16:59:57.1     248     45    247    253    353  79.6  49.4  34120  288.90 0854.37
2009/04/23 16:59:57.2     297     70    240    306    388  76.8  42.2  34120  288.89 0854.37
2009/04/23 16:59:57.3     293     97    238    309    390  71.6  41.4  34118  288.86 0854.37
2009/04/23 16:59:57.4     212    137    214    253    331  57.1  44.5  34116  288.83 0854.37
2009/04/23 16:59:57.5     147    139    189    203    277  46.4  47.9  34124  288.95 0854.37
2009/04/23 16:59:57.6      89    264    151    279    317  18.7  30.8  34130  289.07 0854.36
2009/04/23 16:59:57.7     105    366      0    381    382  16.0   0.1  34128  289.03 0854.36
2009/04/23 16:59:57.8     180    452     73    487    493  21.8   8.6  34124  288.95 0854.36
2009/04/23 16:59:57.9     164    429     61    460    465  20.9   7.6  34160  289.58 0854.36
2009/04/23 16:59:58.0     188    353    123    401    420  28.1  17.1  34164  289.65 0854.36
2009/04/23 16:59:58.1      72    347     -7    355    356  11.8  -1.2  34146  289.32 0854.36
2009/04/23 16:59:58.2       5    357    -42    358    361   0.9  -6.8  34146  289.32 0854.36
2009/04/23 16:59:58.3     -17    322    -12    323    324 356.9  -2.2  34162  289.59 0854.36
2009/04/23 16:59:58.4     -61    428     24    433    434 351.9   3.2  34230  290.77 0854.36
2009/04/23 16:59:58.5      54    199     29    207    210  15.2   8.0  34230  290.75 0854.36
2009/04/23 16:59:58.6     186    153    221    242    327  50.5  47.1  34184  289.97 0854.37
2009/04/23 16:59:58.7      76    316    319    326    456  13.6  49.4  34190  290.09 0854.37
2009/04/23 16:59:58.8     -83    357    139    367    392 346.9  21.8  34202  290.27 0854.37
2009/04/23 16:59:58.9      41    330    243    333    412   7.1  39.7  34202  290.30 0854.37
2009/04/23 16:59:59.0      82    167    168    187    251  26.3  46.6  34208  290.38 0854.37
2009/04/23 16:59:59.1      87    376    129    387    409  13.1  18.5  34228  290.74 0854.37
2009/04/23 16:59:59.2      44    421    153    424    451   6.0  19.9  34230  290.75 0854.37
2009/04/23 16:59:59.3     364    412    240    551    601  41.5  25.1  34218  290.54 0854.37
2009/04/23 16:59:59.4     214    366    208    425    473  30.3  28.0  34248  291.06 0854.37
2009/04/23 16:59:59.5     300    220    286    373    470  53.8  41.3  34228  290.73 0854.37
2009/04/23 16:59:59.6     425    185    208    464    508  66.5  25.7  34166  289.66 0854.37
2009/04/23 16:59:59.7     443    157    392    471    612  70.4  43.8  34184  289.97 0854.37
2009/04/23 16:59:59.8     388    326    340    507    610  50.0  37.1  34172  289.76 0854.37
